
Distance (Route):
Temperature : 20.5°C
Humidity : 67.1%
Pressure : 997.82hPa| Receiver | Frames | First received | Last received |
|---|---|---|---|
| AA1-15 | 987 | 2026-08-30 10:54:23 | 2026-08-30 13:35:02 |
| DL1XH-west | 842 | 2026-08-30 10:48:43 | 2026-08-30 13:25:19 |
| DF8AY | 776 | 2026-08-30 10:51:38 | 2026-08-30 13:29:42 |
| DO2SHX-10 | 695 | 2026-08-30 10:58:59 | 2026-08-30 13:29:42 |
| BIOWL1-15 | 662 | 2026-08-30 10:50:27 | 2026-08-30 13:22:18 |
| DL1XH-15 | 640 | 2026-08-30 10:48:42 | 2026-08-30 13:24:46 |
| DL1XH1-15 | 610 | 2026-08-30 10:49:17 | 2026-08-30 13:24:53 |
| DB0DAN | 542 | 2026-08-30 10:45:40 | 2026-08-30 13:37:25 |
| DM0DOS-11 | 524 | 2026-08-30 10:47:35 | 2026-08-30 13:22:18 |
| HSKMA3-T | 254 | 2026-08-30 11:51:03 | 2026-08-30 12:42:02 |
| DD8BA-10 | 155 | 2026-08-30 10:53:50 | 2026-08-30 13:07:00 |
| GOEST3-10 | 147 | 2026-08-30 10:59:34 | 2026-08-30 13:04:30 |
| DF8AY-15 | 129 | 2026-08-30 10:53:59 | 2026-08-30 13:26:57 |
| DL3AQ-11 | 105 | 2026-08-30 10:57:22 | 2026-08-30 13:00:47 |
| DL1NUX | 101 | 2026-08-30 12:08:24 | 2026-08-30 12:42:01 |
| DF7ER-10 | 72 | 2026-08-30 11:05:19 | 2026-08-30 13:14:57 |
| AM1SDL-15 | 62 | 2026-08-30 11:00:46 | 2026-08-30 13:27:59 |
| DL4XJ-10 | 49 | 2026-08-30 10:48:50 | 2026-08-30 11:50:31 |
| SONDE2-11 | 49 | 2026-08-30 11:03:57 | 2026-08-30 13:27:49 |
| EDDB2-12 | 47 | 2026-08-30 11:08:28 | 2026-08-30 13:24:32 |
| S3001 | 45 | 2026-08-30 10:58:34 | 2026-08-30 13:35:21 |
| SONCRA | 43 | 2026-08-30 11:01:41 | 2026-08-30 13:15:18 |
| SMARD9-15 | 42 | 2026-08-30 10:53:51 | 2026-08-30 13:25:58 |
| DC4HF-4 | 41 | 2026-08-30 10:57:42 | 2026-08-30 13:11:46 |
| TFSTFS | 37 | 2026-08-30 11:13:29 | 2026-08-30 13:17:13 |
| BIOWL9-15 | 36 | 2026-08-30 10:49:42 | 2026-08-30 13:21:20 |
| DO9LL-15 | 34 | 2026-08-30 11:05:39 | 2026-08-30 12:59:22 |
| DJ2DS-15 | 32 | 2026-08-30 10:52:06 | 2026-08-30 13:19:58 |
| EDDB2-11 | 32 | 2026-08-30 11:16:07 | 2026-08-30 13:12:32 |
| DB0UT-7 | 28 | 2026-08-30 11:11:54 | 2026-08-30 12:53:24 |
| DB0NH | 28 | 2026-08-30 11:16:55 | 2026-08-30 12:58:33 |
| DL4BBY-15 | 27 | 2026-08-30 10:55:05 | 2026-08-30 13:03:30 |
| BUE01 | 25 | 2026-08-30 11:06:49 | 2026-08-30 12:56:01 |
| DL1LOL-11 | 24 | 2026-08-30 10:55:04 | 2026-08-30 12:52:22 |
| HTAHTA | 22 | 2026-08-30 11:20:31 | 2026-08-30 12:54:12 |
| DG6HD-15 | 21 | 2026-08-30 12:03:41 | 2026-08-30 13:04:51 |
| DL1ZP-14 | 20 | 2026-08-30 11:25:28 | 2026-08-30 12:46:47 |
| DO3MHA-11 | 17 | 2026-08-30 12:06:02 | 2026-08-30 12:39:49 |
| SMARD9-10 | 15 | 2026-08-30 10:48:11 | 2026-08-30 13:17:27 |
| DL2RXE-15 | 11 | 2026-08-30 11:27:41 | 2026-08-30 13:02:11 |
| DK7RCA | 11 | 2026-08-30 11:33:26 | 2026-08-30 12:39:13 |
| AP2371 | 10 | 2026-08-30 11:01:50 | 2026-08-30 12:53:59 |
| DO2JMG | 10 | 2026-08-30 11:23:17 | 2026-08-30 12:48:57 |
| DF7PN | 10 | 2026-08-30 12:06:47 | 2026-08-30 12:39:56 |
| DO2LYB-13 | 9 | 2026-08-30 10:55:32 | 2026-08-30 13:00:26 |
| SO1NDE-10 | 9 | 2026-08-30 12:16:22 | 2026-08-30 12:42:02 |
| DK1YY | 9 | 2026-08-30 12:50:30 | 2026-08-30 13:16:27 |
| DL8OAI-8 | 8 | 2026-08-30 10:55:09 | 2026-08-30 11:29:21 |
| DJ8HS-15 | 8 | 2026-08-30 12:26:06 | 2026-08-30 12:33:46 |
| SP3BTT-10 | 6 | 2026-08-30 11:42:58 | 2026-08-30 12:47:03 |
| BIOWL7-15 | 5 | 2026-08-30 11:15:18 | 2026-08-30 12:45:39 |
| DL1CLM-18 | 5 | 2026-08-30 12:12:19 | 2026-08-30 12:38:48 |
| NBG1-10 | 4 | 2026-08-30 11:24:07 | 2026-08-30 12:52:59 |
| 13BRC | 4 | 2026-08-30 12:31:52 | 2026-08-30 12:44:51 |
| SP3WXH-11 | 4 | 2026-08-30 12:34:54 | 2026-08-30 12:45:14 |
| MECKS9 | 2 | 2026-08-30 11:34:57 | 2026-08-30 12:57:27 |
| DL3OBA | 2 | 2026-08-30 12:26:26 | 2026-08-30 12:27:10 |
| DJTTGO | 1 | 2026-08-30 12:36:11 | 2026-08-30 12:36:11 |
| Receiver | Date | Latitude | Longitude | Direction | Speed | Altitude | Climb | Temperature | Humidity | Pressure | Voltage | Killtimer | Uptime | BKT | XDATA |
|---|---|---|---|---|---|---|---|---|---|---|---|---|---|---|---|
| DB0DAN | 2026-08-30 13:37:25 | 53.18804 | 11.80191 | 53° | 29km/h | 139m | -1.7m/s | 20.5°C | 67.1% | 997.82hPa | 2.8V | 00:00:00 | 00:00:00 | 00:00:00 | |
| DB0DAN | 2026-08-30 13:37:10 | 53.18720 | 11.80011 | 52° | 38km/h | 185m | -3.8m/s | 19.9°C | 68.8% | 992.33hPa | 2.8V | 00:00:00 | 00:00:00 | 00:00:00 | |
| DB0DAN | 2026-08-30 13:36:55 | 53.18619 | 11.79808 | 53° | 38km/h | 240m | -3.2m/s | 19.3°C | 71.2% | 985.82hPa | 2.8V | 00:00:00 | 00:00:00 | 00:00:00 | |
| DB0DAN | 2026-08-30 13:36:40 | 53.18522 | 11.79613 | 54° | 38km/h | 286m | -3.4m/s | 18.6°C | 73.7% | 980.64hPa | 2.8V | 00:00:00 | 00:00:00 | 00:00:00 | |
| DB0DAN | 2026-08-30 13:36:25 | 53.18434 | 11.79407 | 53° | 38km/h | 325m | -3.2m/s | 17.8°C | 77.1% | 976.25hPa | 2.8V | 00:00:00 | 00:00:00 | 00:00:00 | |
| DB0DAN | 2026-08-30 13:36:10 | 53.18361 | 11.79182 | 58° | 40km/h | 379m | -4.3m/s | 17°C | 80.4% | 970.18hPa | 2.8V | 00:00:00 | 00:00:00 | 00:00:00 | |
| DB0DAN | 2026-08-30 13:35:55 | 53.18283 | 11.78957 | 64° | 38km/h | 435m | -4m/s | 16.2°C | 84.2% | 963.7hPa | 2.8V | 00:00:00 | 00:00:00 | 00:00:00 | |
| DB0DAN | 2026-08-30 13:35:40 | 53.18208 | 11.78721 | 65° | 42km/h | 493m | -4.4m/s | 15.6°C | 86.2% | 956.98hPa | 2.8V | 00:00:00 | 00:00:00 | 00:00:00 | |
| DB0DAN | 2026-08-30 13:35:25 | 53.18132 | 11.78483 | 61° | 40km/h | 551m | -3.6m/s | 15°C | 89.6% | 950.61hPa | 2.8V | 00:00:00 | 00:00:00 | 00:00:00 | |
| S3001 | 2026-08-30 13:35:21 | 53.18065 | 11.78276 | 57° | 44km/h | 593m | -3.3m/s | 14.6°C | 91.0% | 946.0hPa | 2.8V | 00:00:00 | 00:00:00 | 00:00:00 | |
| DB0DAN | 2026-08-30 13:35:10 | 53.18053 | 11.78244 | 58° | 46km/h | 601m | -3.9m/s | 14.6°C | 91.4% | 944.88hPa | 2.8V | 00:00:00 | 00:00:00 | 00:00:00 | |
| AA1-15 | 2026-08-30 13:35:02 | 53.18009 | 11.78084 | 66° | 44km/h | 637m | -4.2m/s | 14.3°C | 96.6% | 941.1hPa | 2.8V | 02:12:42 | 03:37:52 | 00:00:00 | |
| AA1-15 | 2026-08-30 13:35:00 | 53.18005 | 11.78067 | 64° | 44km/h | 642m | -4.1m/s | 14.2°C | 96.5% | 940.5hPa | 2.8V | 02:12:42 | 03:37:51 | 00:00:00 | |
| DB0DAN | 2026-08-30 13:34:55 | 53.17980 | 11.77987 | 63° | 42km/h | 665m | -4.8m/s | 14.1°C | 93.2% | 937.79hPa | 2.8V | 00:00:00 | 00:00:00 | 00:00:00 | |
| AA1-15 | 2026-08-30 13:34:49 | 53.17954 | 11.77886 | 68° | 42km/h | 691m | -3.8m/s | 13.9°C | 99.4% | 935.1hPa | 2.8V | 02:12:42 | 03:37:40 | 00:00:00 | |
| AA1-15 | 2026-08-30 13:34:48 | 53.17949 | 11.77870 | 67° | 44km/h | 695m | -3.5m/s | 13.9°C | 98.9% | 934.6hPa | 2.8V | 02:12:42 | 03:37:39 | 00:00:00 | |
| AA1-15 | 2026-08-30 13:34:45 | 53.17935 | 11.77819 | 64° | 44km/h | 704m | -2.7m/s | 13.8°C | 97.7% | 933.6hPa | 2.8V | 02:12:42 | 03:37:36 | 00:00:00 | |
| AA1-15 | 2026-08-30 13:34:43 | 53.17925 | 11.77786 | 63° | 44km/h | 710m | -3.3m/s | 13.8°C | 96.3% | 933hPa | 2.8V | 02:13:33 | 03:37:34 | 00:00:00 | |
| AA1-15 | 2026-08-30 13:34:43 | 53.17920 | 11.77769 | 62° | 44km/h | 714m | -3.3m/s | 13.7°C | 96.1% | 932.6hPa | 2.8V | 02:13:33 | 03:37:33 | 00:00:00 | |
| AA1-15 | 2026-08-30 13:34:41 | 53.17915 | 11.77753 | 61° | 44km/h | 717m | -2.9m/s | 13.7°C | 96.8% | 932.3hPa | 2.8V | 02:13:33 | 03:37:32 | 00:00:00 | |
| AA1-15 | 2026-08-30 13:34:40 | 53.17909 | 11.77737 | 62° | 44km/h | 720m | -3.9m/s | 13.7°C | 96.8% | 931.7hPa | 2.8V | 02:13:33 | 03:37:31 | 00:00:00 | |
| DB0DAN | 2026-08-30 13:34:40 | 53.17909 | 11.77737 | 62° | 42km/h | 720m | -3.9m/s | 13.7°C | 94.8% | 931.7hPa | 2.8V | 00:00:00 | 00:00:00 | 00:00:00 | |
| AA1-15 | 2026-08-30 13:34:39 | 53.17904 | 11.77721 | 62° | 42km/h | 724m | -3.8m/s | 13.7°C | 97.4% | 931.3hPa | 2.8V | 02:13:33 | 03:37:30 | 00:00:00 | |
| AA1-15 | 2026-08-30 13:34:34 | 53.17881 | 11.77643 | 65° | 42km/h | 745m | -4.5m/s | 13.6°C | 99.3% | 929hPa | 2.8V | 02:13:33 | 03:37:25 | 00:00:00 | |
| AA1-15 | 2026-08-30 13:34:33 | 53.17876 | 11.77627 | 65° | 44km/h | 749m | -4.1m/s | 13.5°C | 99.7% | 928.6hPa | 2.8V | 02:13:33 | 03:37:24 | 00:00:00 | |
| AA1-15 | 2026-08-30 13:34:32 | 53.17872 | 11.77611 | 65° | 44km/h | 753m | -4.7m/s | 13.5°C | 100% | 928.1hPa | 2.8V | 02:13:33 | 03:37:23 | 00:00:00 | |
| AA1-15 | 2026-08-30 13:34:30 | 53.17862 | 11.77577 | 65° | 46km/h | 762m | -4.2m/s | 13.5°C | 100% | 927.3hPa | 2.8V | 02:13:33 | 03:37:21 | 00:00:00 | |
| AA1-15 | 2026-08-30 13:34:29 | 53.17857 | 11.77560 | 65° | 44km/h | 766m | -3.9m/s | 13.4°C | 100% | 926.8hPa | 2.8V | 02:13:33 | 03:37:20 | 00:00:00 | |
| AA1-15 | 2026-08-30 13:34:27 | 53.17847 | 11.77526 | 65° | 46km/h | 774m | -4.1m/s | 13.4°C | 100% | 925.8hPa | 2.8V | 02:13:33 | 03:37:18 | 00:00:00 | |
| AA1-15 | 2026-08-30 13:34:26 | 53.17843 | 11.77508 | 66° | 46km/h | 778m | -4.5m/s | 13.4°C | 100% | 925.7hPa | 2.8V | 02:13:33 | 03:37:17 | 00:00:00 | |
| DB0DAN | 2026-08-30 13:34:25 | 53.17838 | 11.77491 | 64° | 44km/h | 783m | -4.3m/s | 13.3°C | 95.9% | 924.97hPa | 2.8V | 00:00:00 | 00:00:00 | 00:00:00 | |
| AA1-15 | 2026-08-30 13:34:25 | 53.17838 | 11.77491 | 64° | 46km/h | 783m | -4.3m/s | 13.3°C | 100% | 925hPa | 2.8V | 02:13:33 | 03:37:16 | 00:00:00 | |
| AA1-15 | 2026-08-30 13:34:23 | 53.17828 | 11.77457 | 64° | 46km/h | 792m | -4.1m/s | 13.3°C | 100% | 924.1hPa | 2.8V | 02:13:33 | 03:37:14 | 00:00:00 | |
| AA1-15 | 2026-08-30 13:34:22 | 53.17823 | 11.77440 | 65° | 44km/h | 796m | -4.1m/s | 13.3°C | 100% | 923.4hPa | 2.8V | 02:13:33 | 03:37:13 | 00:00:00 | |
| AA1-15 | 2026-08-30 13:34:21 | 53.17818 | 11.77423 | 65° | 44km/h | 800m | -3.8m/s | 13.2°C | 100% | 923.1hPa | 2.8V | 02:13:33 | 03:37:12 | 00:00:00 | |
| AA1-15 | 2026-08-30 13:34:19 | 53.17809 | 11.77390 | 64° | 42km/h | 808m | -4.2m/s | 13.2°C | 100% | 922.2hPa | 2.8V | 02:13:33 | 03:37:10 | 00:00:00 | |
| AA1-15 | 2026-08-30 13:34:18 | 53.17804 | 11.77374 | 63° | 42km/h | 812m | -4m/s | 13.2°C | 99.9% | 921.7hPa | 2.8V | 02:13:33 | 03:37:09 | 00:00:00 | |
| AA1-15 | 2026-08-30 13:34:17 | 53.17799 | 11.77358 | 62° | 44km/h | 816m | -4.1m/s | 13.1°C | 99.6% | 921.4hPa | 2.8V | 02:13:33 | 03:37:08 | 00:00:00 | |
| AA1-15 | 2026-08-30 13:34:15 | 53.17789 | 11.77326 | 61° | 42km/h | 824m | -4.1m/s | 13.1°C | 99.7% | 920.5hPa | 2.8V | 02:13:33 | 03:37:06 | 00:00:00 | |
| AA1-15 | 2026-08-30 13:34:14 | 53.17783 | 11.77310 | 62° | 44km/h | 828m | -4.3m/s | 13.1°C | 99.6% | 920hPa | 2.8V | 02:13:33 | 03:37:05 | 00:00:00 | |
| AA1-15 | 2026-08-30 13:34:13 | 53.17778 | 11.77294 | 63° | 44km/h | 833m | -4.1m/s | 13°C | 99.5% | 919.5hPa | 2.8V | 02:13:33 | 03:37:04 | 00:00:00 | |
| AA1-15 | 2026-08-30 13:34:11 | 53.17768 | 11.77261 | 63° | 46km/h | 842m | -4.3m/s | 13°C | 100% | 918.7hPa | 2.8V | 02:13:33 | 03:37:02 | 00:00:00 | |
| AA1-15 | 2026-08-30 13:34:10 | 53.17763 | 11.77244 | 65° | 46km/h | 846m | -4.3m/s | 13°C | 100% | 918.1hPa | 2.8V | 02:13:33 | 03:37:01 | 00:00:00 | |
| DB0DAN | 2026-08-30 13:34:10 | 53.17763 | 11.77244 | 65° | 44km/h | 846m | -4.3m/s | 13°C | 97.5% | 918.07hPa | 2.8V | 00:00:00 | 00:00:00 | 00:00:00 | |
| AA1-15 | 2026-08-30 13:34:08 | 53.17754 | 11.77209 | 63° | 46km/h | 854m | -4.3m/s | 12.9°C | 100% | 917.3hPa | 2.8V | 02:13:33 | 03:36:59 | 00:00:00 | |
| AA1-15 | 2026-08-30 13:34:07 | 53.17749 | 11.77192 | 64° | 46km/h | 859m | -4m/s | 12.9°C | 100% | 916.9hPa | 2.8V | 02:13:33 | 03:36:58 | 00:00:00 | |
| AA1-15 | 2026-08-30 13:34:05 | 53.17738 | 11.77158 | 62° | 44km/h | 867m | -4.4m/s | 12.9°C | 100% | 915.8hPa | 2.8V | 02:13:33 | 03:36:56 | 00:00:00 | |
| AA1-15 | 2026-08-30 13:34:04 | 53.17733 | 11.77142 | 62° | 46km/h | 872m | -4.6m/s | 12.8°C | 100% | 915.3hPa | 2.8V | 02:13:33 | 03:36:55 | 00:00:00 | |
| AA1-15 | 2026-08-30 13:34:03 | 53.17728 | 11.77125 | 64° | 44km/h | 877m | -4.4m/s | 12.8°C | 100% | 914.8hPa | 2.8V | 02:13:33 | 03:36:54 | 00:00:00 | |
| AA1-15 | 2026-08-30 13:34:01 | 53.17718 | 11.77091 | 65° | 46km/h | 885m | -4.2m/s | 12.8°C | 100% | 913.9hPa | 2.8V | 02:13:33 | 03:36:52 | 00:00:00 | |
| AA1-15 | 2026-08-30 13:34:00 | 53.17713 | 11.77073 | 66° | 46km/h | 890m | -4.1m/s | 12.7°C | 100% | 913.5hPa | 2.8V | 02:13:33 | 03:36:51 | 00:00:00 | |
| AA1-15 | 2026-08-30 13:33:59 | 53.17709 | 11.77056 | 66° | 44km/h | 894m | -4.4m/s | 12.7°C | 100% | 913hPa | 2.8V | 02:13:33 | 03:36:50 | 00:00:00 | |
| AA1-15 | 2026-08-30 13:33:57 | 53.17700 | 11.77021 | 67° | 46km/h | 902m | -3.7m/s | 12.7°C | 100% | 912.1hPa | 2.8V | 02:13:33 | 03:36:48 | 00:00:00 | |
| AA1-15 | 2026-08-30 13:33:56 | 53.17695 | 11.77003 | 68° | 46km/h | 906m | -4m/s | 12.6°C | 100% | 911.7hPa | 2.8V | 02:13:33 | 03:36:47 | 00:00:00 | |
| DB0DAN | 2026-08-30 13:33:55 | 53.17691 | 11.76986 | 67° | 42km/h | 910m | -3.9m/s | 12.6°C | 98.5% | 911.13hPa | 2.8V | 00:00:00 | 00:00:00 | 00:00:00 | |
| AA1-15 | 2026-08-30 13:33:55 | 53.17691 | 11.76986 | 67° | 46km/h | 910m | -3.9m/s | 12.6°C | 100% | 911.1hPa | 2.8V | 02:13:33 | 03:36:46 | 00:00:00 | |
| AA1-15 | 2026-08-30 13:33:53 | 53.17682 | 11.76949 | 69° | 46km/h | 918m | -3.6m/s | 12.6°C | 100% | 910.4hPa | 2.8V | 02:14:24 | 03:36:44 | 00:00:00 | |
| AA1-15 | 2026-08-30 13:33:52 | 53.17678 | 11.76931 | 68° | 46km/h | 921m | -3.5m/s | 12.6°C | 100% | 910hPa | 2.8V | 02:14:24 | 03:36:43 | 00:00:00 | |
| AA1-15 | 2026-08-30 13:33:50 | 53.17669 | 11.76895 | 70° | 47km/h | 928m | -3.6m/s | 12.5°C | 100% | 909.2hPa | 2.8V | 02:14:24 | 03:36:41 | 00:00:00 | |
| AA1-15 | 2026-08-30 13:33:49 | 53.17665 | 11.76876 | 71° | 47km/h | 932m | -3.7m/s | 12.5°C | 100% | 908.8hPa | 2.8V | 02:14:24 | 03:36:40 | 00:00:00 | |
| AA1-15 | 2026-08-30 13:33:47 | 53.17657 | 11.76839 | 70° | 47km/h | 939m | -3.4m/s | 12.4°C | 100% | 908.2hPa | 2.8V | 02:14:24 | 03:36:38 | 00:00:00 | |
| AA1-15 | 2026-08-30 13:33:46 | 53.17653 | 11.76821 | 70° | 47km/h | 942m | -3.7m/s | 12.4°C | 100% | 907.5hPa | 2.8V | 02:14:24 | 03:36:37 | 00:00:00 | |
| AA1-15 | 2026-08-30 13:33:44 | 53.17644 | 11.76784 | 67° | 47km/h | 950m | -3.5m/s | 12.4°C | 100% | 907hPa | 2.8V | 02:14:24 | 03:36:35 | 00:00:00 | |
| AA1-15 | 2026-08-30 13:33:43 | 53.17640 | 11.76765 | 68° | 47km/h | 954m | -3.7m/s | 12.4°C | 100% | 906.5hPa | 2.8V | 02:14:24 | 03:36:34 | 00:00:00 | |
| AA1-15 | 2026-08-30 13:33:41 | 53.17631 | 11.76728 | 68° | 47km/h | 961m | -3.6m/s | 12.3°C | 100% | 905.7hPa | 2.8V | 02:14:24 | 03:36:32 | 00:00:00 | |
| DB0DAN | 2026-08-30 13:33:40 | 53.17626 | 11.76709 | 70° | 46km/h | 965m | -3.8m/s | 12.3°C | 99.4% | 905.23hPa | 2.8V | 00:00:00 | 00:00:00 | 00:00:00 | |
| AA1-15 | 2026-08-30 13:33:40 | 53.17626 | 11.76709 | 70° | 47km/h | 965m | -3.8m/s | 12.3°C | 100% | 905.2hPa | 2.8V | 02:14:24 | 03:36:31 | 00:00:00 | |
| AA1-15 | 2026-08-30 13:33:38 | 53.17618 | 11.76671 | 70° | 47km/h | 972m | -3.8m/s | 12.3°C | 100% | 904.4hPa | 2.8V | 02:14:24 | 03:36:29 | 00:00:00 | |
| AA1-15 | 2026-08-30 13:33:37 | 53.17614 | 11.76652 | 71° | 47km/h | 976m | -3.8m/s | 12.2°C | 100% | 904hPa | 2.8V | 02:14:24 | 03:36:28 | 00:00:00 | |
| AA1-15 | 2026-08-30 13:33:36 | 53.17610 | 11.76633 | 72° | 47km/h | 980m | -3.6m/s | 12.2°C | 100% | 903.7hPa | 2.8V | 02:14:24 | 03:36:27 | 00:00:00 | |
| AA1-15 | 2026-08-30 13:33:34 | 53.17602 | 11.76596 | 72° | 47km/h | 987m | -3.5m/s | 12.1°C | 100% | 902.7hPa | 2.8V | 02:14:24 | 03:36:25 | 00:00:00 | |
| AA1-15 | 2026-08-30 13:33:33 | 53.17599 | 11.76577 | 73° | 46km/h | 990m | -3.3m/s | 12.1°C | 100% | 902.5hPa | 2.8V | 02:14:24 | 03:36:24 | 00:00:00 | |
| AA1-15 | 2026-08-30 13:33:32 | 53.17595 | 11.76558 | 71° | 46km/h | 994m | -3.2m/s | 12°C | 100% | 902.2hPa | 2.8V | 02:14:24 | 03:36:23 | 00:00:00 | |
| AA1-15 | 2026-08-30 13:33:30 | 53.17587 | 11.76521 | 72° | 47km/h | 1000m | -3.6m/s | 12°C | 100% | 901.4hPa | 2.8V | 02:14:24 | 03:36:21 | 00:00:00 | |
| AA1-15 | 2026-08-30 13:33:29 | 53.17584 | 11.76502 | 70° | 47km/h | 1004m | -3.3m/s | 12°C | 100% | 901.1hPa | 2.8V | 02:14:24 | 03:36:20 | 00:00:00 | |
| AA1-15 | 2026-08-30 13:33:28 | 53.17579 | 11.76484 | 70° | 47km/h | 1007m | -3.5m/s | 12°C | 100% | 900.6hPa | 2.8V | 02:14:24 | 03:36:19 | 00:00:00 | |
| AA1-15 | 2026-08-30 13:33:26 | 53.17571 | 11.76446 | 70° | 47km/h | 1015m | -3.8m/s | 11.9°C | 100% | 900hPa | 2.8V | 02:14:24 | 03:36:17 | 00:00:00 | |
| DB0DAN | 2026-08-30 13:33:25 | 53.17567 | 11.76427 | 69° | 46km/h | 1018m | -3.8m/s | 11.9°C | 100% | 899.68hPa | 2.8V | 00:00:00 | 00:00:00 | 00:00:00 | |
| AA1-15 | 2026-08-30 13:33:25 | 53.17567 | 11.76427 | 70° | 47km/h | 1018m | -3.8m/s | 11.9°C | 100% | 899.7hPa | 2.8V | 02:14:24 | 03:36:16 | 00:00:00 | |
| AA1-15 | 2026-08-30 13:33:24 | 53.17563 | 11.76408 | 71° | 49km/h | 1022m | -3.9m/s | 11.9°C | 100% | 899hPa | 2.8V | 02:14:24 | 03:36:15 | 00:00:00 | |
| AA1-15 | 2026-08-30 13:33:22 | 53.17555 | 11.76370 | 71° | 49km/h | 1030m | -3.5m/s | 11.9°C | 100% | 898.3hPa | 2.8V | 02:14:24 | 03:36:13 | 00:00:00 | |
| AA1-15 | 2026-08-30 13:33:20 | 53.17547 | 11.76331 | 72° | 47km/h | 1037m | -3.5m/s | 11.9°C | 100% | 897.6hPa | 2.8V | 02:14:24 | 03:36:11 | 00:00:00 | |
| AA1-15 | 2026-08-30 13:33:19 | 53.17544 | 11.76312 | 71° | 47km/h | 1041m | -3.5m/s | 11.9°C | 100% | 897.2hPa | 2.8V | 02:14:24 | 03:36:10 | 00:00:00 | |
| AA1-15 | 2026-08-30 13:33:18 | 53.17540 | 11.76293 | 72° | 47km/h | 1044m | -3.7m/s | 11.9°C | 100% | 896.8hPa | 2.8V | 02:14:24 | 03:36:09 | 00:00:00 | |
| AA1-15 | 2026-08-30 13:33:16 | 53.17532 | 11.76256 | 71° | 47km/h | 1051m | -3.8m/s | 11.9°C | 100% | 895.8hPa | 2.8V | 02:14:24 | 03:36:07 | 00:00:00 | |
| AA1-15 | 2026-08-30 13:33:15 | 53.17529 | 11.76237 | 72° | 47km/h | 1055m | -4m/s | 11.9°C | 100% | 895.6hPa | 2.8V | 02:14:24 | 03:36:06 | 00:00:00 | |
| AA1-15 | 2026-08-30 13:33:14 | 53.17525 | 11.76218 | 73° | 47km/h | 1059m | -3.6m/s | 11.8°C | 100% | 895.2hPa | 2.8V | 02:14:24 | 03:36:05 | 00:00:00 | |
| AA1-15 | 2026-08-30 13:33:13 | 53.17521 | 11.76199 | 72° | 46km/h | 1062m | -3.4m/s | 11.8°C | 100% | 894.8hPa | 2.8V | 02:14:24 | 03:36:04 | 00:00:00 | |
| AA1-15 | 2026-08-30 13:33:11 | 53.17514 | 11.76162 | 71° | 47km/h | 1069m | -3.6m/s | 11.8°C | 100% | 894.1hPa | 2.8V | 02:14:24 | 03:36:02 | 00:00:00 | |
| DB0DAN | 2026-08-30 13:33:10 | 53.17510 | 11.76144 | 71° | 44km/h | 1072m | -3.2m/s | 11.8°C | 100% | 893.77hPa | 2.8V | 00:00:00 | 00:00:00 | 00:00:00 | |
| AA1-15 | 2026-08-30 13:33:10 | 53.17510 | 11.76144 | 71° | 46km/h | 1072m | -3.2m/s | 11.8°C | 100% | 893.8hPa | 2.8V | 02:14:24 | 03:36:01 | 00:00:00 | |
| AA1-15 | 2026-08-30 13:33:08 | 53.17502 | 11.76106 | 69° | 47km/h | 1079m | -3.3m/s | 11.7°C | 100% | 893.1hPa | 2.8V | 02:14:24 | 03:35:59 | 00:00:00 | |
| AA1-15 | 2026-08-30 13:33:06 | 53.17493 | 11.76068 | 70° | 49km/h | 1086m | -3.7m/s | 11.7°C | 100% | 892.2hPa | 2.8V | 02:14:24 | 03:35:57 | 00:00:00 | |
| AA1-15 | 2026-08-30 13:33:04 | 53.17485 | 11.76030 | 69° | 49km/h | 1093m | -3.3m/s | 11.6°C | 100% | 891.6hPa | 2.8V | 02:14:24 | 03:35:55 | 00:00:00 | |
| AA1-15 | 2026-08-30 13:33:03 | 53.17480 | 11.76010 | 70° | 49km/h | 1097m | -3.7m/s | 11.6°C | 100% | 891.1hPa | 2.8V | 02:14:24 | 03:35:54 | 00:00:00 | |
| AA1-15 | 2026-08-30 13:33:01 | 53.17471 | 11.75971 | 68° | 49km/h | 1104m | -3.7m/s | 11.6°C | 100% | 890.4hPa | 2.8V | 02:15:15 | 03:35:52 | 00:00:00 | |
| AA1-15 | 2026-08-30 13:32:59 | 53.17462 | 11.75933 | 69° | 49km/h | 1112m | -4m/s | 11.6°C | 100% | 889.6hPa | 2.8V | 02:15:15 | 03:35:50 | 00:00:00 | |
| AA1-15 | 2026-08-30 13:32:57 | 53.17453 | 11.75894 | 69° | 51km/h | 1120m | -3.9m/s | 11.5°C | 100% | 889hPa | 2.8V | 02:15:15 | 03:35:48 | 00:00:00 | |
| AA1-15 | 2026-08-30 13:32:56 | 53.17449 | 11.75874 | 69° | 49km/h | 1123m | -3.8m/s | 11.5°C | 100% | 888.5hPa | 2.8V | 02:15:15 | 03:35:47 | 00:00:00 | |
| DB0DAN | 2026-08-30 13:32:55 | 53.17444 | 11.75855 | 68° | 47km/h | 1127m | -3.6m/s | 11.5°C | 100% | 887.92hPa | 2.8V | 00:00:00 | 00:00:00 | 00:00:00 | |
| AA1-15 | 2026-08-30 13:32:55 | 53.17444 | 11.75855 | 68° | 49km/h | 1127m | -3.6m/s | 11.5°C | 100% | 887.9hPa | 2.8V | 02:15:15 | 03:35:46 | 00:00:00 | |
| AA1-15 | 2026-08-30 13:32:53 | 53.17434 | 11.75816 | 67° | 51km/h | 1134m | -3.5m/s | 11.5°C | 100% | 887.2hPa | 2.8V | 02:15:15 | 03:35:44 | 00:00:00 | |
| AA1-15 | 2026-08-30 13:32:52 | 53.17430 | 11.75796 | 69° | 51km/h | 1138m | -3.9m/s | 11.5°C | 100% | 886.8hPa | 2.8V | 02:15:15 | 03:35:43 | 00:00:00 | |
| AA1-15 | 2026-08-30 13:32:51 | 53.17425 | 11.75777 | 68° | 49km/h | 1141m | -3.6m/s | 11.5°C | 100% | 886.5hPa | 2.8V | 02:15:15 | 03:35:42 | 00:00:00 | |
| AA1-15 | 2026-08-30 13:32:49 | 53.17415 | 11.75737 | 69° | 51km/h | 1149m | -3.5m/s | 11.4°C | 100% | 885.7hPa | 2.8V | 02:15:15 | 03:35:40 | 00:00:00 | |
| AA1-15 | 2026-08-30 13:32:48 | 53.17411 | 11.75717 | 69° | 49km/h | 1152m | -3.1m/s | 11.4°C | 100% | 885.3hPa | 2.8V | 02:15:15 | 03:35:39 | 00:00:00 | |
| AA1-15 | 2026-08-30 13:32:47 | 53.17406 | 11.75698 | 67° | 49km/h | 1155m | -3.1m/s | 11.4°C | 100% | 885hPa | 2.8V | 02:15:15 | 03:35:38 | 00:00:00 | |
| AA1-15 | 2026-08-30 13:32:46 | 53.17401 | 11.75678 | 68° | 51km/h | 1159m | -2.8m/s | 11.4°C | 100% | 884.6hPa | 2.8V | 02:15:15 | 03:35:37 | 00:00:00 | |
| AA1-15 | 2026-08-30 13:32:44 | 53.17392 | 11.75639 | 67° | 49km/h | 1165m | -2.9m/s | 11.4°C | 100% | 884.1hPa | 2.8V | 02:15:15 | 03:35:35 | 00:00:00 | |
| AA1-15 | 2026-08-30 13:32:42 | 53.17382 | 11.75600 | 69° | 49km/h | 1170m | -2.8m/s | 11.3°C | 100% | 883.5hPa | 2.8V | 02:15:15 | 03:35:33 | 00:00:00 | |
| AA1-15 | 2026-08-30 13:32:41 | 53.17377 | 11.75580 | 69° | 49km/h | 1173m | -2.5m/s | 11.3°C | 100% | 883.1hPa | 2.8V | 02:15:15 | 03:35:32 | 00:00:00 | |
| DB0DAN | 2026-08-30 13:32:40 | 53.17373 | 11.75561 | 69° | 47km/h | 1176m | -2.5m/s | 11.3°C | 100% | 882.75hPa | 2.8V | 00:00:00 | 00:00:00 | 00:00:00 | |
| AA1-15 | 2026-08-30 13:32:40 | 53.17373 | 11.75561 | 69° | 49km/h | 1176m | -2.5m/s | 11.3°C | 100% | 882.8hPa | 2.8V | 02:15:15 | 03:35:31 | 00:00:00 | |
| AA1-15 | 2026-08-30 13:32:38 | 53.17364 | 11.75522 | 69° | 49km/h | 1181m | -2.4m/s | 11.3°C | 100% | 882.1hPa | 2.8V | 02:15:15 | 03:35:29 | 00:00:00 | |
| AA1-15 | 2026-08-30 13:32:37 | 53.17359 | 11.75503 | 68° | 49km/h | 1184m | -2.6m/s | 11.2°C | 100% | 882.1hPa | 2.8V | 02:15:15 | 03:35:28 | 00:00:00 | |
| AA1-15 | 2026-08-30 13:32:35 | 53.17349 | 11.75465 | 67° | 49km/h | 1190m | -3.4m/s | 11.2°C | 100% | 881.4hPa | 2.8V | 02:15:15 | 03:35:26 | 00:00:00 | |
| AA1-15 | 2026-08-30 13:32:34 | 53.17344 | 11.75446 | 66° | 47km/h | 1193m | -2.9m/s | 11.2°C | 100% | 881.1hPa | 2.8V | 02:15:15 | 03:35:25 | 00:00:00 | |
| AA1-15 | 2026-08-30 13:32:33 | 53.17339 | 11.75428 | 65° | 47km/h | 1196m | -2.7m/s | 11.2°C | 100% | 880.6hPa | 2.8V | 02:15:15 | 03:35:24 | 00:00:00 | |
| AA1-15 | 2026-08-30 13:32:31 | 53.17329 | 11.75391 | 66° | 47km/h | 1202m | -3m/s | 11.2°C | 100% | 880.1hPa | 2.8V | 02:15:15 | 03:35:22 | 00:00:00 | |
| AA1-15 | 2026-08-30 13:32:30 | 53.17324 | 11.75373 | 65° | 47km/h | 1205m | -3.2m/s | 11.2°C | 100% | 879.7hPa | 2.8V | 02:15:15 | 03:35:21 | 00:00:00 | |
| AA1-15 | 2026-08-30 13:32:29 | 53.17319 | 11.75354 | 66° | 47km/h | 1208m | -3m/s | 11.1°C | 100% | 879.4hPa | 2.8V | 02:15:15 | 03:35:20 | 00:00:00 | |
| AA1-15 | 2026-08-30 13:32:27 | 53.17309 | 11.75317 | 66° | 47km/h | 1214m | -3.2m/s | 11.1°C | 100% | 878.7hPa | 2.8V | 02:15:15 | 03:35:18 | 00:00:00 | |
| DB0DAN | 2026-08-30 13:32:25 | 53.17299 | 11.75280 | 67° | 46km/h | 1220m | -2.9m/s | 11.1°C | 100% | 878.16hPa | 2.8V | 00:00:00 | 00:00:00 | 00:00:00 | |
| AA1-15 | 2026-08-30 13:32:25 | 53.17299 | 11.75280 | 67° | 49km/h | 1220m | -2.9m/s | 11.1°C | 100% | 878.2hPa | 2.8V | 02:15:15 | 03:35:16 | 00:00:00 | |
| AA1-15 | 2026-08-30 13:32:23 | 53.17289 | 11.75242 | 66° | 49km/h | 1227m | -2.8m/s | 11°C | 100% | 877.4hPa | 2.8V | 02:15:15 | 03:35:14 | 00:00:00 | |
| AA1-15 | 2026-08-30 13:32:22 | 53.17284 | 11.75223 | 67° | 49km/h | 1229m | -3m/s | 11°C | 100% | 877.2hPa | 2.8V | 02:15:15 | 03:35:13 | 00:00:00 | |
| AA1-15 | 2026-08-30 13:32:21 | 53.17279 | 11.75204 | 66° | 49km/h | 1233m | -3m/s | 11°C | 100% | 876.8hPa | 2.8V | 02:15:15 | 03:35:12 | 00:00:00 | |
| AA1-15 | 2026-08-30 13:32:19 | 53.17269 | 11.75167 | 67° | 47km/h | 1238m | -3.1m/s | 11°C | 100% | 876.4hPa | 2.8V | 02:15:15 | 03:35:10 | 00:00:00 | |
| AA1-15 | 2026-08-30 13:32:18 | 53.17265 | 11.75148 | 67° | 47km/h | 1242m | -3.1m/s | 11°C | 100% | 875.8hPa | 2.8V | 02:15:15 | 03:35:09 | 00:00:00 | |
| AA1-15 | 2026-08-30 13:32:17 | 53.17260 | 11.75130 | 65° | 47km/h | 1245m | -3.2m/s | 11°C | 100% | 875.4hPa | 2.8V | 02:15:15 | 03:35:08 | 00:00:00 | |
| AA1-15 | 2026-08-30 13:32:15 | 53.17250 | 11.75094 | 66° | 47km/h | 1251m | -3.2m/s | 11°C | 100% | 875hPa | 2.8V | 02:15:15 | 03:35:06 | 00:00:00 | |
| AA1-15 | 2026-08-30 13:32:14 | 53.17245 | 11.75076 | 65° | 47km/h | 1254m | -3.1m/s | 11°C | 100% | 874.5hPa | 2.8V | 02:15:15 | 03:35:05 | 00:00:00 | |
| AA1-15 | 2026-08-30 13:32:12 | 53.17235 | 11.75039 | 67° | 47km/h | 1260m | -2.9m/s | 10.9°C | 100% | 873.9hPa | 2.8V | 02:15:15 | 03:35:03 | 00:00:00 | |
| AA1-15 | 2026-08-30 13:32:11 | 53.17230 | 11.75020 | 65° | 49km/h | 1263m | -3m/s | 10.9°C | 100% | 873.5hPa | 2.8V | 02:16:06 | 03:35:02 | 00:00:00 | |
| DB0DAN | 2026-08-30 13:32:10 | 53.17225 | 11.75001 | 66° | 47km/h | 1266m | -3m/s | 10.9°C | 100% | 873.15hPa | 2.8V | 00:00:00 | 00:00:00 | 00:00:00 | |
| AA1-15 | 2026-08-30 13:32:10 | 53.17225 | 11.75001 | 66° | 49km/h | 1266m | -3m/s | 10.9°C | 100% | 873.1hPa | 2.8V | 02:16:06 | 03:35:01 | 00:00:00 | |
| AA1-15 | 2026-08-30 13:32:08 | 53.17215 | 11.74963 | 66° | 49km/h | 1272m | -2.8m/s | 10.9°C | 100% | 872.6hPa | 2.8V | 02:16:06 | 03:34:59 | 00:00:00 | |
| AA1-15 | 2026-08-30 13:32:07 | 53.17210 | 11.74943 | 67° | 51km/h | 1275m | -2.8m/s | 10.9°C | 100% | 872.3hPa | 2.8V | 02:16:06 | 03:34:58 | 00:00:00 | |
| AA1-15 | 2026-08-30 13:32:05 | 53.17200 | 11.74904 | 68° | 49km/h | 1280m | -2.7m/s | 10.8°C | 100% | 871.8hPa | 2.8V | 02:16:06 | 03:34:56 | 00:00:00 | |
| AA1-15 | 2026-08-30 13:32:04 | 53.17195 | 11.74885 | 68° | 51km/h | 1284m | -2.9m/s | 10.8°C | 100% | 871.4hPa | 2.8V | 02:16:06 | 03:34:55 | 00:00:00 | |
| AA1-15 | 2026-08-30 13:32:03 | 53.17190 | 11.74865 | 69° | 51km/h | 1286m | -2.9m/s | 10.8°C | 100% | 871.2hPa | 2.8V | 02:16:06 | 03:34:54 | 00:00:00 | |
| AA1-15 | 2026-08-30 13:32:01 | 53.17181 | 11.74825 | 68° | 51km/h | 1293m | -3.2m/s | 10.8°C | 100% | 870.6hPa | 2.8V | 02:16:06 | 03:34:52 | 00:00:00 | |
| AA1-15 | 2026-08-30 13:32:00 | 53.17176 | 11.74806 | 69° | 49km/h | 1296m | -3.2m/s | 10.8°C | 100% | 870.2hPa | 2.8V | 02:16:06 | 03:34:51 | 00:00:00 | |
| AA1-15 | 2026-08-30 13:31:59 | 53.17172 | 11.74786 | 68° | 49km/h | 1299m | -3m/s | 10.8°C | 100% | 869.9hPa | 2.8V | 02:16:06 | 03:34:50 | 00:00:00 | |
| AA1-15 | 2026-08-30 13:31:56 | 53.17157 | 11.74729 | 66° | 47km/h | 1308m | -2.6m/s | 10.7°C | 100% | 869hPa | 2.8V | 02:16:06 | 03:34:47 | 00:00:00 | |
| DB0DAN | 2026-08-30 13:31:55 | 53.17152 | 11.74711 | 65° | 47km/h | 1311m | -2.8m/s | 10.7°C | 100% | 868.63hPa | 2.8V | 00:00:00 | 00:00:00 | 00:00:00 | |
| AA1-15 | 2026-08-30 13:31:53 | 53.17142 | 11.74673 | 66° | 47km/h | 1317m | -2.8m/s | 10.7°C | 100% | 867.9hPa | 2.8V | 02:16:06 | 03:34:44 | 00:00:00 | |
| AA1-15 | 2026-08-30 13:31:52 | 53.17137 | 11.74655 | 65° | 49km/h | 1319m | -2.8m/s | 10.7°C | 100% | 867.8hPa | 2.8V | 02:16:06 | 03:34:43 | 00:00:00 | |
| AA1-15 | 2026-08-30 13:31:50 | 53.17127 | 11.74617 | 66° | 49km/h | 1325m | -2.5m/s | 10.6°C | 100% | 867hPa | 2.8V | 02:16:06 | 03:34:41 | 00:00:00 | |
| AA1-15 | 2026-08-30 13:31:46 | 53.17107 | 11.74541 | 66° | 49km/h | 1337m | -3.4m/s | 10.6°C | 100% | 866hPa | 2.8V | 02:16:06 | 03:34:37 | 00:00:00 | |
| AA1-15 | 2026-08-30 13:31:45 | 53.17103 | 11.74522 | 67° | 49km/h | 1340m | -3.1m/s | 10.6°C | 100% | 865.5hPa | 2.8V | 02:16:06 | 03:34:36 | 00:00:00 | |
| AA1-15 | 2026-08-30 13:31:44 | 53.17098 | 11.74503 | 68° | 49km/h | 1343m | -3.3m/s | 10.5°C | 100% | 865.1hPa | 2.8V | 02:16:06 | 03:34:35 | 00:00:00 | |
| AA1-15 | 2026-08-30 13:31:43 | 53.17093 | 11.74484 | 67° | 49km/h | 1347m | -3.4m/s | 10.5°C | 100% | 864.8hPa | 2.8V | 02:16:06 | 03:34:34 | 00:00:00 | |
| AA1-15 | 2026-08-30 13:31:41 | 53.17083 | 11.74446 | 67° | 49km/h | 1353m | -3.1m/s | 10.5°C | 100% | 864.1hPa | 2.8V | 02:16:06 | 03:34:32 | 00:00:00 | |
| DB0DAN | 2026-08-30 13:31:40 | 53.17078 | 11.74427 | 65° | 47km/h | 1356m | -3.1m/s | 10.5°C | 100% | 863.84hPa | 2.8V | 00:00:00 | 00:00:00 | 00:00:00 | |
| AA1-15 | 2026-08-30 13:31:39 | 53.17073 | 11.74408 | 65° | 49km/h | 1360m | -3.2m/s | 10.5°C | 100% | 863.6hPa | 2.8V | 02:16:06 | 03:34:30 | 00:00:00 | |
| AA1-15 | 2026-08-30 13:31:38 | 53.17067 | 11.74389 | 65° | 49km/h | 1363m | -3.2m/s | 10.5°C | 100% | 863.2hPa | 2.8V | 02:16:06 | 03:34:29 | 00:00:00 | |
| AA1-15 | 2026-08-30 13:31:37 | 53.17062 | 11.74370 | 65° | 49km/h | 1366m | -3m/s | 10.5°C | 100% | 862.9hPa | 2.8V | 02:16:06 | 03:34:28 | 00:00:00 | |
| AA1-15 | 2026-08-30 13:31:36 | 53.17057 | 11.74351 | 66° | 49km/h | 1369m | -3.1m/s | 10.5°C | 100% | 862.6hPa | 2.8V | 02:16:06 | 03:34:27 | 00:00:00 | |
| AA1-15 | 2026-08-30 13:31:34 | 53.17047 | 11.74314 | 66° | 49km/h | 1375m | -3m/s | 10.4°C | 100% | 862.1hPa | 2.8V | 02:16:06 | 03:34:25 | 00:00:00 | |
| AA1-15 | 2026-08-30 13:31:33 | 53.17042 | 11.74295 | 67° | 49km/h | 1378m | -3.2m/s | 10.4°C | 100% | 861.8hPa | 2.8V | 02:16:06 | 03:34:24 | 00:00:00 | |
| AA1-15 | 2026-08-30 13:31:30 | 53.17028 | 11.74238 | 70° | 49km/h | 1387m | -2.7m/s | 10.4°C | 100% | 860.8hPa | 2.8V | 02:16:06 | 03:34:21 | 00:00:00 | |
| AA1-15 | 2026-08-30 13:31:29 | 53.17024 | 11.74219 | 71° | 47km/h | 1390m | -2.7m/s | 10.4°C | 100% | 860.5hPa | 2.8V | 02:16:06 | 03:34:20 | 00:00:00 | |
| AA1-15 | 2026-08-30 13:31:27 | 53.17015 | 11.74181 | 69° | 47km/h | 1395m | -2.9m/s | 10.4°C | 100% | 859.8hPa | 2.8V | 02:16:06 | 03:34:18 | 00:00:00 | |
| AA1-15 | 2026-08-30 13:31:26 | 53.17011 | 11.74163 | 68° | 47km/h | 1398m | -3.1m/s | 10.4°C | 100% | 859.6hPa | 2.8V | 02:16:06 | 03:34:17 | 00:00:00 | |
| DB0DAN | 2026-08-30 13:31:25 | 53.17007 | 11.74144 | 67° | 46km/h | 1401m | -3m/s | 10.3°C | 100% | 859.34hPa | 2.8V | 00:00:00 | 00:00:00 | 00:00:00 | |
| AA1-15 | 2026-08-30 13:31:25 | 53.17007 | 11.74144 | 67° | 47km/h | 1401m | -3m/s | 10.3°C | 100% | 859.3hPa | 2.8V | 02:16:06 | 03:34:16 | 00:00:00 | |
| AA1-15 | 2026-08-30 13:31:23 | 53.16997 | 11.74106 | 67° | 49km/h | 1407m | -3m/s | 10.3°C | 100% | 858.4hPa | 2.8V | 02:16:06 | 03:34:14 | 00:00:00 | |
| AA1-15 | 2026-08-30 13:31:22 | 53.16992 | 11.74087 | 66° | 49km/h | 1410m | -2.8m/s | 10.3°C | 100% | 858.2hPa | 2.8V | 02:16:06 | 03:34:13 | 00:00:00 | |
| AA1-15 | 2026-08-30 13:31:21 | 53.16987 | 11.74068 | 66° | 49km/h | 1413m | -2.8m/s | 10.3°C | 100% | 858hPa | 2.8V | 02:16:06 | 03:34:12 | 00:00:00 | |
| AA1-15 | 2026-08-30 13:31:19 | 53.16976 | 11.74030 | 67° | 49km/h | 1419m | -2.9m/s | 10.3°C | 100% | 857.3hPa | 2.8V | 02:16:57 | 03:34:10 | 00:00:00 | |
| AA1-15 | 2026-08-30 13:31:18 | 53.16971 | 11.74011 | 66° | 49km/h | 1422m | -3m/s | 10.3°C | 100% | 857hPa | 2.8V | 02:16:57 | 03:34:09 | 00:00:00 | |
| AA1-15 | 2026-08-30 13:31:16 | 53.16962 | 11.73973 | 68° | 47km/h | 1427m | -2.7m/s | 10.2°C | 100% | 856.4hPa | 2.8V | 02:16:57 | 03:34:07 | 00:00:00 | |
| AA1-15 | 2026-08-30 13:31:15 | 53.16957 | 11.73954 | 67° | 47km/h | 1430m | -2.8m/s | 10.2°C | 100% | 856.1hPa | 2.8V | 02:16:57 | 03:34:06 | 00:00:00 | |
| AA1-15 | 2026-08-30 13:31:14 | 53.16953 | 11.73936 | 68° | 47km/h | 1433m | -2.9m/s | 10.2°C | 100% | 855.9hPa | 2.8V | 02:16:57 | 03:34:05 | 00:00:00 | |
| AA1-15 | 2026-08-30 13:31:12 | 53.16943 | 11.73898 | 67° | 49km/h | 1439m | -3.1m/s | 10.2°C | 100% | 855.4hPa | 2.8V | 02:16:57 | 03:34:03 | 00:00:00 | |
| AA1-15 | 2026-08-30 13:31:11 | 53.16938 | 11.73879 | 67° | 51km/h | 1442m | -3m/s | 10.2°C | 100% | 855hPa | 2.8V | 02:16:57 | 03:34:02 | 00:00:00 | |
| DB0DAN | 2026-08-30 13:31:10 | 53.16933 | 11.73859 | 67° | 49km/h | 1445m | -3m/s | 10.2°C | 100% | 854.64hPa | 2.8V | 00:00:00 | 00:00:00 | 00:00:00 | |
| AA1-15 | 2026-08-30 13:31:09 | 53.16928 | 11.73839 | 66° | 53km/h | 1448m | -2.9m/s | 10.1°C | 100% | 854.3hPa | 2.8V | 02:16:57 | 03:34:00 | 00:00:00 | |
| AA1-15 | 2026-08-30 13:31:08 | 53.16923 | 11.73819 | 66° | 53km/h | 1451m | -3m/s | 10.1°C | 100% | 854hPa | 2.8V | 02:16:57 | 03:33:59 | 00:00:00 | |
| AA1-15 | 2026-08-30 13:31:07 | 53.16917 | 11.73798 | 66° | 55km/h | 1454m | -3.2m/s | 10.1°C | 100% | 853.7hPa | 2.8V | 02:16:57 | 03:33:58 | 00:00:00 | |
| AA1-15 | 2026-08-30 13:31:06 | 53.16911 | 11.73777 | 65° | 55km/h | 1456m | -2.9m/s | 10.1°C | 100% | 853.6hPa | 2.8V | 02:16:57 | 03:33:57 | 00:00:00 | |
| AA1-15 | 2026-08-30 13:31:04 | 53.16900 | 11.73735 | 66° | 55km/h | 1462m | -3.2m/s | 10.1°C | 100% | 852.9hPa | 2.8V | 02:16:57 | 03:33:55 | 00:00:00 | |
| AA1-15 | 2026-08-30 13:31:03 | 53.16894 | 11.73714 | 66° | 57km/h | 1465m | -2.8m/s | 10.1°C | 100% | 852.7hPa | 2.8V | 02:16:57 | 03:33:54 | 00:00:00 | |
| AA1-15 | 2026-08-30 13:31:01 | 53.16883 | 11.73671 | 67° | 57km/h | 1471m | -3m/s | 9.9°C | 100% | 852hPa | 2.8V | 02:16:57 | 03:33:52 | 00:00:00 | |
| AA1-15 | 2026-08-30 13:31:00 | 53.16877 | 11.73650 | 67° | 55km/h | 1474m | -2.9m/s | 9.9°C | 100% | 851.8hPa | 2.8V | 02:16:57 | 03:33:51 | 00:00:00 | |
| AA1-15 | 2026-08-30 13:30:59 | 53.16872 | 11.73628 | 66° | 57km/h | 1477m | -3.1m/s | 9.9°C | 100% | 851.4hPa | 2.8V | 02:16:57 | 03:33:50 | 00:00:00 | |
| AA1-15 | 2026-08-30 13:30:58 | 53.16866 | 11.73607 | 67° | 55km/h | 1480m | -3.1m/s | 9.8°C | 100% | 851hPa | 2.8V | 02:16:57 | 03:33:49 | 00:00:00 | |
| AA1-15 | 2026-08-30 13:30:56 | 53.16855 | 11.73564 | 67° | 55km/h | 1486m | -2.7m/s | 9.9°C | 100% | 850.6hPa | 2.8V | 02:16:57 | 03:33:47 | 00:00:00 | |
| DB0DAN | 2026-08-30 13:30:55 | 53.16850 | 11.73543 | 69° | 51km/h | 1489m | -3m/s | 9.8°C | 100% | 850.17hPa | 2.8V | 00:00:00 | 00:00:00 | 00:00:00 | |
| AA1-15 | 2026-08-30 13:30:55 | 53.16850 | 11.73543 | 69° | 55km/h | 1489m | -3m/s | 9.8°C | 100% | 850.2hPa | 2.8V | 02:16:57 | 03:33:46 | 00:00:00 | |
| AA1-15 | 2026-08-30 13:30:53 | 53.16840 | 11.73501 | 68° | 55km/h | 1495m | -3.2m/s | 9.8°C | 100% | 849.6hPa | 2.8V | 02:16:57 | 03:33:44 | 00:00:00 | |
| AA1-15 | 2026-08-30 13:30:52 | 53.16835 | 11.73479 | 68° | 55km/h | 1498m | -3m/s | 9.8°C | 100% | 849.3hPa | 2.8V | 02:16:57 | 03:33:43 | 00:00:00 | |
| AA1-15 | 2026-08-30 13:30:50 | 53.16824 | 11.73436 | 67° | 57km/h | 1504m | -3.1m/s | 10°C | 97.7% | 848.6hPa | 2.8V | 02:16:57 | 03:33:41 | 00:00:00 | |
| AA1-15 | 2026-08-30 13:30:49 | 53.16819 | 11.73414 | 68° | 58km/h | 1507m | -3.1m/s | 10.3°C | 96.1% | 848.4hPa | 2.8V | 02:16:57 | 03:33:40 | 00:00:00 | |
| AA1-15 | 2026-08-30 13:30:48 | 53.16813 | 11.73392 | 67° | 57km/h | 1510m | -3.2m/s | 10.6°C | 95.4% | 848hPa | 2.8V | 02:16:57 | 03:33:39 | 00:00:00 | |
| AA1-15 | 2026-08-30 13:30:47 | 53.16808 | 11.73370 | 67° | 57km/h | 1513m | -3.1m/s | 10.6°C | 96% | 847.7hPa | 2.8V | 02:16:57 | 03:33:38 | 00:00:00 | |
| AA1-15 | 2026-08-30 13:30:45 | 53.16796 | 11.73325 | 68° | 57km/h | 1520m | -3.1m/s | 10.6°C | 96.1% | 847hPa | 2.8V | 02:16:57 | 03:33:36 | 00:00:00 | |
| AA1-15 | 2026-08-30 13:30:44 | 53.16791 | 11.73303 | 67° | 57km/h | 1523m | -3m/s | 10.6°C | 95.2% | 846.7hPa | 2.8V | 02:16:57 | 03:33:35 | 00:00:00 | |
| AA1-15 | 2026-08-30 13:30:42 | 53.16780 | 11.73259 | 68° | 57km/h | 1529m | -3.2m/s | 10.6°C | 94.9% | 846.2hPa | 2.7V | 02:16:57 | 03:33:33 | 00:00:00 | |
| AA1-15 | 2026-08-30 13:30:41 | 53.16774 | 11.73237 | 67° | 57km/h | 1532m | -3.1m/s | 10.6°C | 94.8% | 845.9hPa | 2.8V | 02:16:57 | 03:33:32 | 00:00:00 | |
| DB0DAN | 2026-08-30 13:30:40 | 53.16769 | 11.73214 | 68° | 55km/h | 1535m | -3.1m/s | 10.6°C | 89.9% | 845.58hPa | 2.8V | 00:00:00 | 00:00:00 | 00:00:00 | |
| AA1-15 | 2026-08-30 13:30:39 | 53.16763 | 11.73192 | 68° | 58km/h | 1538m | -3.2m/s | 10.6°C | 93% | 845.2hPa | 2.8V | 02:16:57 | 03:33:30 | 00:00:00 | |
| AA1-15 | 2026-08-30 13:30:38 | 53.16758 | 11.73169 | 68° | 57km/h | 1541m | -3.1m/s | 10.6°C | 92.3% | 844.8hPa | 2.8V | 02:16:57 | 03:33:29 | 00:00:00 | |
| AA1-15 | 2026-08-30 13:30:37 | 53.16752 | 11.73147 | 68° | 58km/h | 1545m | -3.1m/s | 10.6°C | 92.2% | 844.5hPa | 2.8V | 02:16:57 | 03:33:28 | 00:00:00 | |
| AA1-15 | 2026-08-30 13:30:35 | 53.16742 | 11.73102 | 68° | 57km/h | 1551m | -3.3m/s | 10.6°C | 91.6% | 843.9hPa | 2.8V | 02:16:57 | 03:33:26 | 00:00:00 | |
| AA1-15 | 2026-08-30 13:30:34 | 53.16736 | 11.73080 | 68° | 57km/h | 1554m | -3.3m/s | 10.6°C | 91.8% | 843.5hPa | 2.8V | 02:16:57 | 03:33:25 | 00:00:00 | |
| AA1-15 | 2026-08-30 13:30:33 | 53.16731 | 11.73057 | 69° | 57km/h | 1558m | -3.3m/s | 10.6°C | 92.1% | 843.1hPa | 2.8V | 02:16:57 | 03:33:24 | 00:00:00 | |
| AA1-15 | 2026-08-30 13:30:32 | 53.16726 | 11.73035 | 69° | 57km/h | 1561m | -3.2m/s | 10.5°C | 92.9% | 843hPa | 2.8V | 02:16:57 | 03:33:23 | 00:00:00 | |
| AA1-15 | 2026-08-30 13:30:30 | 53.16716 | 11.72991 | 69° | 55km/h | 1567m | -3.3m/s | 10.4°C | 94.3% | 842.2hPa | 2.8V | 02:16:57 | 03:33:21 | 00:00:00 | |
| AA1-15 | 2026-08-30 13:30:29 | 53.16710 | 11.72970 | 69° | 55km/h | 1570m | -3.2m/s | 10.4°C | 94.6% | 842hPa | 2.8V | 02:17:48 | 03:33:20 | 00:00:00 | |
| AA1-15 | 2026-08-30 13:30:27 | 53.16701 | 11.72926 | 70° | 55km/h | 1577m | -3.2m/s | 10.3°C | 95.7% | 841.4hPa | 2.8V | 02:17:48 | 03:33:18 | 00:00:00 | |
| AA1-15 | 2026-08-30 13:30:26 | 53.16696 | 11.72904 | 70° | 55km/h | 1580m | -3.5m/s | 10.2°C | 96.1% | 841hPa | 2.8V | 02:17:48 | 03:33:17 | 00:00:00 | |
| DB0DAN | 2026-08-30 13:30:25 | 53.16691 | 11.72882 | 70° | 53km/h | 1583m | -3.2m/s | 10.2°C | 91.1% | 840.64hPa | 2.8V | 00:00:00 | 00:00:00 | 00:00:00 | |
| AA1-15 | 2026-08-30 13:30:25 | 53.16691 | 11.72882 | 70° | 55km/h | 1583m | -3.2m/s | 10.2°C | 96.2% | 840.6hPa | 2.8V | 02:17:48 | 03:33:16 | 00:00:00 | |
| AA1-15 | 2026-08-30 13:30:23 | 53.16681 | 11.72838 | 70° | 55km/h | 1590m | -3.4m/s | 10.2°C | 96.6% | 840hPa | 2.8V | 02:17:48 | 03:33:14 | 00:00:00 | |
| AA1-15 | 2026-08-30 13:30:22 | 53.16677 | 11.72816 | 70° | 57km/h | 1593m | -3.4m/s | 10.2°C | 96.5% | 839.8hPa | 2.8V | 02:17:48 | 03:33:13 | 00:00:00 | |
| AA1-15 | 2026-08-30 13:30:21 | 53.16672 | 11.72794 | 70° | 57km/h | 1597m | -3.3m/s | 10.1°C | 96.4% | 839.4hPa | 2.8V | 02:17:48 | 03:33:12 | 00:00:00 | |
| AA1-15 | 2026-08-30 13:30:19 | 53.16662 | 11.72750 | 71° | 57km/h | 1603m | -3.3m/s | 10.1°C | 95.9% | 838.6hPa | 2.8V | 02:17:48 | 03:33:10 | 00:00:00 | |
| AA1-15 | 2026-08-30 13:30:18 | 53.16658 | 11.72728 | 71° | 57km/h | 1606m | -3.3m/s | 10.1°C | 95.3% | 838.2hPa | 2.8V | 02:17:48 | 03:33:09 | 00:00:00 | |
| AA1-15 | 2026-08-30 13:30:17 | 53.16653 | 11.72706 | 70° | 55km/h | 1610m | -3.5m/s | 10.1°C | 94.7% | 838hPa | 2.8V | 02:17:48 | 03:33:08 | 00:00:00 | |
| AA1-15 | 2026-08-30 13:30:15 | 53.16644 | 11.72662 | 71° | 55km/h | 1617m | -3.5m/s | 10.1°C | 94.5% | 837.3hPa | 2.8V | 02:17:48 | 03:33:06 | 00:00:00 | |
| AA1-15 | 2026-08-30 13:30:14 | 53.16639 | 11.72641 | 71° | 53km/h | 1620m | -3.4m/s | 10.1°C | 94.5% | 837hPa | 2.8V | 02:17:48 | 03:33:05 | 00:00:00 | |
| AA1-15 | 2026-08-30 13:30:12 | 53.16630 | 11.72597 | 71° | 55km/h | 1627m | -3.3m/s | 10°C | 94.6% | 836.2hPa | 2.8V | 02:17:48 | 03:33:03 | 00:00:00 | |
| AA1-15 | 2026-08-30 13:30:11 | 53.16626 | 11.72576 | 72° | 55km/h | 1630m | -3.3m/s | 10°C | 94.1% | 835.9hPa | 2.8V | 02:17:48 | 03:33:02 | 00:00:00 | |
| DB0DAN | 2026-08-30 13:30:10 | 53.16621 | 11.72554 | 71° | 53km/h | 1634m | -3.4m/s | 10.1°C | 90.4% | 835.58hPa | 2.8V | 00:00:00 | 00:00:00 | 00:00:00 | |
| AA1-15 | 2026-08-30 13:30:10 | 53.16621 | 11.72554 | 71° | 55km/h | 1634m | -3.4m/s | 10.1°C | 93.6% | 835.6hPa | 2.8V | 02:17:48 | 03:33:01 | 00:00:00 | |
| AA1-15 | 2026-08-30 13:30:08 | 53.16613 | 11.72510 | 73° | 55km/h | 1641m | -3.6m/s | 10.2°C | 94% | 834.8hPa | 2.8V | 02:17:48 | 03:32:59 | 00:00:00 | |
| AA1-15 | 2026-08-30 13:30:07 | 53.16609 | 11.72488 | 72° | 55km/h | 1644m | -3.5m/s | 10.1°C | 94.3% | 834.5hPa | 2.8V | 02:17:48 | 03:32:58 | 00:00:00 | |
| AA1-15 | 2026-08-30 13:30:06 | 53.16604 | 11.72465 | 73° | 57km/h | 1648m | -3.5m/s | 10.1°C | 94.2% | 834.1hPa | 2.8V | 02:17:48 | 03:32:57 | 00:00:00 | |
| AA1-15 | 2026-08-30 13:30:04 | 53.16596 | 11.72421 | 72° | 55km/h | 1654m | -3.4m/s | 10.1°C | 94.2% | 833.4hPa | 2.8V | 02:17:48 | 03:32:55 | 00:00:00 | |
| AA1-15 | 2026-08-30 13:30:01 | 53.16583 | 11.72354 | 72° | 55km/h | 1665m | -3.3m/s | 9.9°C | 95.4% | 832.5hPa | 2.8V | 02:17:48 | 03:32:52 | 00:00:00 | |
| AA1-15 | 2026-08-30 13:30:00 | 53.16578 | 11.72331 | 72° | 57km/h | 1668m | -3.5m/s | 9.9°C | 95.4% | 832.1hPa | 2.8V | 02:17:48 | 03:32:51 | 00:00:00 | |
| AA1-15 | 2026-08-30 13:29:58 | 53.16570 | 11.72286 | 72° | 55km/h | 1675m | -3.4m/s | 9.9°C | 95.6% | 831.4hPa | 2.8V | 02:17:48 | 03:32:49 | 00:00:00 | |
| AA1-15 | 2026-08-30 13:29:57 | 53.16566 | 11.72264 | 72° | 57km/h | 1679m | -3.5m/s | 9.8°C | 95.7% | 831hPa | 2.8V | 02:17:48 | 03:32:48 | 00:00:00 | |
| AA1-15 | 2026-08-30 13:29:56 | 53.16561 | 11.72241 | 73° | 57km/h | 1682m | -3.6m/s | 9.8°C | 95.5% | 830.6hPa | 2.8V | 02:17:48 | 03:32:47 | 00:00:00 | |
| DB0DAN | 2026-08-30 13:29:55 | 53.16557 | 11.72219 | 72° | 53km/h | 1686m | -3.4m/s | 9.8°C | 90.7% | 830.45hPa | 2.8V | 00:00:00 | 00:00:00 | 00:00:00 | |
| AA1-15 | 2026-08-30 13:29:54 | 53.16553 | 11.72197 | 72° | 57km/h | 1689m | -3.6m/s | 9.7°C | 94.7% | 830hPa | 2.8V | 02:17:48 | 03:32:45 | 00:00:00 | |
| AA1-15 | 2026-08-30 13:29:53 | 53.16548 | 11.72174 | 73° | 57km/h | 1693m | -3.5m/s | 9.7°C | 94.2% | 829.7hPa | 2.8V | 02:17:48 | 03:32:44 | 00:00:00 | |
| AA1-15 | 2026-08-30 13:29:52 | 53.16544 | 11.72152 | 72° | 57km/h | 1696m | -3.3m/s | 9.7°C | 93.7% | 829.5hPa | 2.8V | 02:17:48 | 03:32:43 | 00:00:00 | |
| AA1-15 | 2026-08-30 13:29:51 | 53.16540 | 11.72129 | 72° | 57km/h | 1699m | -3.3m/s | 9.7°C | 94% | 828.8hPa | 2.8V | 02:17:48 | 03:32:42 | 00:00:00 | |
| AA1-15 | 2026-08-30 13:29:49 | 53.16531 | 11.72084 | 72° | 57km/h | 1706m | -3.3m/s | 9.6°C | 94.8% | 828.3hPa | 2.8V | 02:17:48 | 03:32:40 | 00:00:00 | |
| AA1-15 | 2026-08-30 13:29:48 | 53.16527 | 11.72061 | 72° | 57km/h | 1709m | -3.4m/s | 9.6°C | 94.5% | 828hPa | 2.8V | 02:17:48 | 03:32:39 | 00:00:00 | |
| AA1-15 | 2026-08-30 13:29:46 | 53.16518 | 11.72016 | 73° | 57km/h | 1716m | -3.3m/s | 9.6°C | 94.1% | 827.3hPa | 2.8V | 02:17:48 | 03:32:37 | 00:00:00 | |
| AA1-15 | 2026-08-30 13:29:45 | 53.16514 | 11.71993 | 73° | 57km/h | 1720m | -3.5m/s | 9.6°C | 94.3% | 827hPa | 2.8V | 02:17:48 | 03:32:36 | 00:00:00 | |
| AA1-15 | 2026-08-30 13:29:44 | 53.16509 | 11.71970 | 73° | 58km/h | 1723m | -3.4m/s | 9.6°C | 95.2% | 826.6hPa | 2.8V | 02:17:48 | 03:32:35 | 00:00:00 | |
| DF8AY | 2026-08-30 13:29:42 | 53.16501 | 11.71923 | 73° | 57km/h | 1730m | -3.4m/s | 9.5°C | 95.2% | 825.9hPa | 2.8V | 02:17:48 | 03:32:33 | 00:00:00 | |
| DO2SHX-10 | 2026-08-30 13:29:42 | 53.16501 | 11.71923 | 73° | 57km/h | 1730m | -3.4m/s | 9.4°C | 91.2% | 825.9hPa | 2.8V | 00:00:00 | 03:32:33 | 00:00:00 | |
| DB0DAN | 2026-08-30 13:29:40 | 53.16493 | 11.71877 | 74° | 55km/h | 1737m | -3.5m/s | 9.5°C | 89.6% | 825.23hPa | 2.8V | 00:00:00 | 00:00:00 | 00:00:00 | |
| DF8AY | 2026-08-30 13:29:39 | 53.16489 | 11.71854 | 74° | 57km/h | 1741m | -3.4m/s | 9.5°C | 95% | 824.8hPa | 2.8V | 02:17:48 | 03:32:30 | 00:00:00 | |
| AA1-15 | 2026-08-30 13:29:38 | 53.16484 | 11.71831 | 74° | 57km/h | 1744m | -3.4m/s | 9.5°C | 95% | 824.4hPa | 2.8V | 02:18:39 | 03:32:29 | 00:00:00 | |
| AA1-15 | 2026-08-30 13:29:37 | 53.16481 | 11.71808 | 74° | 57km/h | 1748m | -3.5m/s | 9.5°C | 94.6% | 824.1hPa | 2.8V | 02:18:39 | 03:32:28 | 00:00:00 | |
| AA1-15 | 2026-08-30 13:29:36 | 53.16477 | 11.71785 | 74° | 57km/h | 1751m | -3.6m/s | 9.4°C | 94.8% | 823.9hPa | 2.8V | 02:18:39 | 03:32:27 | 00:00:00 | |
| AA1-15 | 2026-08-30 13:29:34 | 53.16469 | 11.71740 | 74° | 57km/h | 1758m | -3.4m/s | 9.3°C | 95.4% | 823.2hPa | 2.8V | 02:18:39 | 03:32:25 | 00:00:00 | |
| AA1-15 | 2026-08-30 13:29:33 | 53.16465 | 11.71717 | 74° | 57km/h | 1762m | -3.4m/s | 9.4°C | 95.3% | 822.9hPa | 2.8V | 02:18:39 | 03:32:24 | 00:00:00 | |
| AA1-15 | 2026-08-30 13:29:32 | 53.16461 | 11.71694 | 74° | 57km/h | 1765m | -3.5m/s | 9.3°C | 95.6% | 822.5hPa | 2.8V | 02:18:39 | 03:32:23 | 00:00:00 | |
| DF8AY | 2026-08-30 13:29:30 | 53.16453 | 11.71648 | 74° | 57km/h | 1772m | -3.6m/s | 9.3°C | 95.2% | 821.8hPa | 2.8V | 02:18:39 | 03:32:21 | 00:00:00 | |
| AA1-15 | 2026-08-30 13:29:29 | 53.16449 | 11.71625 | 74° | 57km/h | 1776m | -3.5m/s | 9.2°C | 95.4% | 821.5hPa | 2.8V | 02:18:39 | 03:32:20 | 00:00:00 | |
| DF8AY | 2026-08-30 13:29:27 | 53.16441 | 11.71578 | 75° | 57km/h | 1782m | -3.5m/s | 9.2°C | 94.5% | 820.8hPa | 2.8V | 02:18:39 | 03:32:18 | 00:00:00 | |
| DF8AY | 2026-08-30 13:29:26 | 53.16437 | 11.71555 | 75° | 58km/h | 1786m | -3.5m/s | 9.2°C | 94.2% | 820.4hPa | 2.8V | 02:18:39 | 03:32:17 | 00:00:00 | |
| DB0DAN | 2026-08-30 13:29:25 | 53.16434 | 11.71531 | 76° | 55km/h | 1789m | -3.5m/s | 9.2°C | 90.9% | 820.01hPa | 2.8V | 00:00:00 | 00:00:00 | 00:00:00 | |
| DF8AY | 2026-08-30 13:29:25 | 53.16434 | 11.71531 | 76° | 57km/h | 1789m | -3.5m/s | 9.2°C | 94.5% | 820hPa | 2.8V | 02:18:39 | 03:32:16 | 00:00:00 | |
| AA1-15 | 2026-08-30 13:29:23 | 53.16427 | 11.71485 | 76° | 57km/h | 1796m | -3.3m/s | 9.1°C | 94.7% | 819.4hPa | 2.8V | 02:18:39 | 03:32:14 | 00:00:00 | |
| AA1-15 | 2026-08-30 13:29:21 | 53.16420 | 11.71438 | 76° | 57km/h | 1804m | -3.4m/s | 9.1°C | 95% | 818.6hPa | 2.8V | 02:18:39 | 03:32:12 | 00:00:00 | |
| AA1-15 | 2026-08-30 13:29:19 | 53.16413 | 11.71392 | 77° | 57km/h | 1811m | -3.5m/s | 8.9°C | 95.8% | 817.9hPa | 2.8V | 02:18:39 | 03:32:10 | 00:00:00 | |
| AA1-15 | 2026-08-30 13:29:18 | 53.16410 | 11.71368 | 77° | 57km/h | 1814m | -3.5m/s | 8.9°C | 95.4% | 817.8hPa | 2.8V | 02:18:39 | 03:32:09 | 00:00:00 | |
| DF8AY | 2026-08-30 13:29:16 | 53.16403 | 11.71322 | 77° | 57km/h | 1821m | -3.4m/s | 8.9°C | 95.9% | 816.9hPa | 2.8V | 02:18:39 | 03:32:07 | 00:00:00 | |
| AA1-15 | 2026-08-30 13:29:15 | 53.16400 | 11.71299 | 77° | 57km/h | 1824m | -3.4m/s | 8.9°C | 95.6% | 816.6hPa | 2.8V | 02:18:39 | 03:32:06 | 00:00:00 | |
| DF8AY | 2026-08-30 13:29:14 | 53.16397 | 11.71276 | 77° | 57km/h | 1828m | -3.4m/s | 8.9°C | 95.6% | 816.4hPa | 2.8V | 02:18:39 | 03:32:05 | 00:00:00 | |
| DF8AY | 2026-08-30 13:29:13 | 53.16394 | 11.71252 | 78° | 57km/h | 1831m | -3.4m/s | 8.9°C | 96.1% | 816hPa | 2.8V | 02:18:39 | 03:32:04 | 00:00:00 | |
| AA1-15 | 2026-08-30 13:29:12 | 53.16391 | 11.71229 | 78° | 57km/h | 1835m | -3.4m/s | 8.8°C | 96.1% | 815.6hPa | 2.8V | 02:18:39 | 03:32:03 | 00:00:00 | |
| DF8AY | 2026-08-30 13:29:11 | 53.16388 | 11.71206 | 77° | 57km/h | 1838m | -3.4m/s | 8.8°C | 95.9% | 815.3hPa | 2.8V | 02:18:39 | 03:32:02 | 00:00:00 | |
| DB0DAN | 2026-08-30 13:29:10 | 53.16385 | 11.71183 | 78° | 55km/h | 1841m | -3.4m/s | 8.8°C | 91.4% | 814.89hPa | 2.8V | 00:00:00 | 00:00:00 | 00:00:00 | |
| DF8AY | 2026-08-30 13:29:10 | 53.16385 | 11.71183 | 78° | 57km/h | 1841m | -3.4m/s | 8.8°C | 96.1% | 814.9hPa | 2.8V | 02:18:39 | 03:32:01 | 00:00:00 | |
| DF8AY | 2026-08-30 13:29:08 | 53.16379 | 11.71136 | 78° | 57km/h | 1848m | -3.5m/s | 8.8°C | 95.6% | 814.2hPa | 2.8V | 02:18:39 | 03:31:59 | 00:00:00 | |
| AA1-15 | 2026-08-30 13:29:07 | 53.16376 | 11.71113 | 78° | 57km/h | 1852m | -3.3m/s | 8.8°C | 95.6% | 813.9hPa | 2.8V | 02:18:39 | 03:31:58 | 00:00:00 | |
| DF8AY | 2026-08-30 13:29:06 | 53.16373 | 11.71089 | 78° | 57km/h | 1855m | -3.3m/s | 8.8°C | 95.3% | 813.8hPa | 2.8V | 02:18:39 | 03:31:57 | 00:00:00 | |
| DF8AY | 2026-08-30 13:29:05 | 53.16370 | 11.71066 | 78° | 57km/h | 1858m | -3.3m/s | 8.7°C | 94.8% | 813.3hPa | 2.8V | 02:18:39 | 03:31:56 | 00:00:00 | |
| DF8AY | 2026-08-30 13:29:04 | 53.16367 | 11.71043 | 79° | 57km/h | 1862m | -3.3m/s | 8.8°C | 94.3% | 812.9hPa | 2.8V | 02:18:39 | 03:31:55 | 00:00:00 | |
| DF8AY | 2026-08-30 13:29:03 | 53.16364 | 11.71019 | 79° | 57km/h | 1865m | -3.4m/s | 8.8°C | 94.2% | 812.7hPa | 2.8V | 02:18:39 | 03:31:54 | 00:00:00 | |
| DF8AY | 2026-08-30 13:29:02 | 53.16362 | 11.70996 | 79° | 57km/h | 1868m | -3.4m/s | 8.7°C | 94.5% | 812.3hPa | 2.8V | 02:18:39 | 03:31:53 | 00:00:00 | |
| AA1-15 | 2026-08-30 13:29:01 | 53.16359 | 11.70972 | 79° | 58km/h | 1872m | -3.4m/s | 8.7°C | 94.2% | 812hPa | 2.8V | 02:18:39 | 03:31:52 | 00:00:00 | |
| DF8AY | 2026-08-30 13:29:00 | 53.16356 | 11.70948 | 80° | 57km/h | 1875m | -3.4m/s | 8.7°C | 93.7% | 811.6hPa | 2.8V | 02:18:39 | 03:31:51 | 00:00:00 | |
| DF8AY | 2026-08-30 13:28:59 | 53.16353 | 11.70924 | 79° | 58km/h | 1879m | -3.3m/s | 8.7°C | 93.6% | 811.3hPa | 2.7V | 02:18:39 | 03:31:50 | 00:00:00 | |
| DF8AY | 2026-08-30 13:28:57 | 53.16348 | 11.70876 | 81° | 58km/h | 1886m | -3.5m/s | 8.7°C | 93.4% | 810.6hPa | 2.8V | 02:18:39 | 03:31:48 | 00:00:00 | |
| DF8AY | 2026-08-30 13:28:56 | 53.16346 | 11.70852 | 80° | 58km/h | 1889m | -3.3m/s | 8.6°C | 93.4% | 810.3hPa | 2.8V | 02:18:39 | 03:31:47 | 00:00:00 | |
| DB0DAN | 2026-08-30 13:28:55 | 53.16343 | 11.70828 | 80° | 57km/h | 1893m | -3.3m/s | 8.6°C | 88.4% | 809.98hPa | 2.8V | 00:00:00 | 00:00:00 | 00:00:00 | |
| AA1-15 | 2026-08-30 13:28:55 | 53.16343 | 11.70828 | 80° | 58km/h | 1893m | -3.3m/s | 8.6°C | 93.4% | 810hPa | 2.8V | 02:18:39 | 03:31:46 | 00:00:00 | |
| DF8AY | 2026-08-30 13:28:54 | 53.16341 | 11.70804 | 82° | 57km/h | 1896m | -3.4m/s | 8.6°C | 93.3% | 809.8hPa | 2.8V | 02:18:39 | 03:31:45 | 00:00:00 | |
| AA1-15 | 2026-08-30 13:28:53 | 53.16339 | 11.70780 | 81° | 58km/h | 1899m | -3.3m/s | 8.5°C | 93.2% | 809.5hPa | 2.8V | 02:18:39 | 03:31:44 | 00:00:00 | |
| AA1-15 | 2026-08-30 13:28:52 | 53.16336 | 11.70756 | 81° | 57km/h | 1903m | -3.4m/s | 8.5°C | 92.5% | 809hPa | 2.8V | 02:18:39 | 03:31:43 | 00:00:00 | |
| AA1-15 | 2026-08-30 13:28:51 | 53.16334 | 11.70732 | 82° | 57km/h | 1906m | -3.4m/s | 8.5°C | 92.1% | 808.7hPa | 2.8V | 02:18:39 | 03:31:42 | 00:00:00 | |
| AA1-15 | 2026-08-30 13:28:49 | 53.16330 | 11.70685 | 81° | 57km/h | 1913m | -3.4m/s | 8.5°C | 91.1% | 808.1hPa | 2.8V | 02:18:39 | 03:31:40 | 00:00:00 | |
| AA1-15 | 2026-08-30 13:28:48 | 53.16328 | 11.70661 | 82° | 57km/h | 1916m | -3.3m/s | 8.5°C | 91.1% | 807.6hPa | 2.8V | 02:18:39 | 03:31:39 | 00:00:00 | |
| AA1-15 | 2026-08-30 13:28:47 | 53.16326 | 11.70638 | 81° | 57km/h | 1919m | -3.4m/s | 8.4°C | 91.7% | 807.4hPa | 2.8V | 02:19:30 | 03:31:38 | 00:00:00 | |
| DF8AY | 2026-08-30 13:28:45 | 53.16321 | 11.70591 | 82° | 57km/h | 1926m | -3.3m/s | 8.4°C | 92.5% | 806.7hPa | 2.7V | 02:19:30 | 03:31:36 | 00:00:00 | |
| AA1-15 | 2026-08-30 13:28:44 | 53.16319 | 11.70567 | 81° | 57km/h | 1929m | -3.2m/s | 8.4°C | 92.5% | 806.3hPa | 2.8V | 02:19:30 | 03:31:35 | 00:00:00 | |
| DF8AY | 2026-08-30 13:28:43 | 53.16317 | 11.70544 | 81° | 57km/h | 1932m | -3.1m/s | 8.3°C | 92.8% | 806.2hPa | 2.8V | 02:19:30 | 03:31:34 | 00:00:00 | |
| AA1-15 | 2026-08-30 13:28:42 | 53.16315 | 11.70520 | 81° | 57km/h | 1936m | -3.3m/s | 8.3°C | 93.2% | 805.7hPa | 2.7V | 02:19:30 | 03:31:33 | 00:00:00 | |
| DF8AY | 2026-08-30 13:28:41 | 53.16313 | 11.70497 | 80° | 57km/h | 1939m | -3.3m/s | 8.2°C | 93% | 805.4hPa | 2.7V | 02:19:30 | 03:31:32 | 00:00:00 | |
| DB0DAN | 2026-08-30 13:28:40 | 53.16310 | 11.70474 | 80° | 53km/h | 1943m | -3.1m/s | 8.3°C | 88.8% | 805hPa | 2.7V | 00:00:00 | 00:00:00 | 00:00:00 | |
| AA1-15 | 2026-08-30 13:28:39 | 53.16308 | 11.70450 | 81° | 57km/h | 1946m | -3m/s | 8.2°C | 92.6% | 804.8hPa | 2.7V | 02:19:30 | 03:31:30 | 00:00:00 | |
| AA1-15 | 2026-08-30 13:28:38 | 53.16306 | 11.70427 | 81° | 55km/h | 1949m | -3.3m/s | 8.3°C | 92.5% | 804.4hPa | 2.8V | 02:19:30 | 03:31:29 | 00:00:00 | |
| AA1-15 | 2026-08-30 13:28:37 | 53.16303 | 11.70404 | 80° | 55km/h | 1952m | -3.4m/s | 8.3°C | 92.5% | 804.2hPa | 2.8V | 02:19:30 | 03:31:28 | 00:00:00 | |
| AA1-15 | 2026-08-30 13:28:35 | 53.16299 | 11.70358 | 82° | 55km/h | 1959m | -3.1m/s | 8.2°C | 92.1% | 803.4hPa | 2.7V | 02:19:30 | 03:31:26 | 00:00:00 | |
| AA1-15 | 2026-08-30 13:28:34 | 53.16297 | 11.70336 | 81° | 55km/h | 1962m | -3.2m/s | 8.2°C | 92% | 803.1hPa | 2.8V | 02:19:30 | 03:31:25 | 00:00:00 | |
| AA1-15 | 2026-08-30 13:28:33 | 53.16295 | 11.70312 | 82° | 55km/h | 1965m | -3.3m/s | 8.2°C | 91.5% | 802.8hPa | 2.8V | 02:19:30 | 03:31:24 | 00:00:00 | |
| DF8AY | 2026-08-30 13:28:32 | 53.16293 | 11.70289 | 82° | 55km/h | 1969m | -3.3m/s | 8.1°C | 91.1% | 802.4hPa | 2.8V | 02:19:30 | 03:31:23 | 00:00:00 | |
| DF8AY | 2026-08-30 13:28:31 | 53.16291 | 11.70266 | 82° | 57km/h | 1972m | -3.2m/s | 8.1°C | 90.6% | 802.3hPa | 2.8V | 02:19:30 | 03:31:22 | 00:00:00 | |
| DF8AY | 2026-08-30 13:28:30 | 53.16289 | 11.70242 | 83° | 57km/h | 1975m | -3.3m/s | 8.2°C | 90.2% | 801.8hPa | 2.8V | 02:19:30 | 03:31:21 | 00:00:00 | |
| AA1-15 | 2026-08-30 13:28:29 | 53.16287 | 11.70218 | 83° | 57km/h | 1978m | -3.2m/s | 8.2°C | 90.1% | 801.5hPa | 2.8V | 02:19:30 | 03:31:20 | 00:00:00 | |
| DF8AY | 2026-08-30 13:28:27 | 53.16284 | 11.70170 | 83° | 58km/h | 1985m | -3.4m/s | 8.1°C | 90.5% | 800.9hPa | 2.8V | 02:19:30 | 03:31:18 | 00:00:00 | |
| AA1-15 | 2026-08-30 13:28:26 | 53.16282 | 11.70146 | 84° | 58km/h | 1989m | -3.1m/s | 8.1°C | 90.4% | 800.6hPa | 2.8V | 02:19:30 | 03:31:17 | 00:00:00 | |
| DB0DAN | 2026-08-30 13:28:25 | 53.16280 | 11.70122 | 83° | 55km/h | 1992m | -3.2m/s | 8.1°C | 85.8% | 800.23hPa | 2.7V | 00:00:00 | 00:00:00 | 00:00:00 | |
| DF8AY | 2026-08-30 13:28:25 | 53.16280 | 11.70122 | 83° | 57km/h | 1992m | -3.2m/s | 8.1°C | 90.2% | 800.2hPa | 2.7V | 02:19:30 | 03:31:16 | 00:00:00 | |
| DF8AY | 2026-08-30 13:28:24 | 53.16279 | 11.70098 | 84° | 58km/h | 1995m | -3.4m/s | 8°C | 90.5% | 799.8hPa | 2.8V | 02:19:30 | 03:31:15 | 00:00:00 | |
| DF8AY | 2026-08-30 13:28:23 | 53.16277 | 11.70074 | 84° | 57km/h | 1998m | -3.3m/s | 8°C | 90.5% | 799.6hPa | 2.7V | 02:19:30 | 03:31:14 | 00:00:00 | |
| DF8AY | 2026-08-30 13:28:20 | 53.16272 | 11.70003 | 83° | 57km/h | 2008m | -3.5m/s | 8°C | 88.8% | 798.7hPa | 2.8V | 02:19:30 | 03:31:11 | 00:00:00 | |
| AA1-15 | 2026-08-30 13:28:13 | 53.16259 | 11.69839 | 84° | 55km/h | 2032m | -3.4m/s | 8°C | 89.8% | 796.2hPa | 2.8V | 02:19:30 | 03:31:04 | 00:00:00 | |
| DB0DAN | 2026-08-30 13:28:10 | 53.16255 | 11.69768 | 85° | 53km/h | 2042m | -3.2m/s | 7.9°C | 86.5% | 795.43hPa | 2.7V | 00:00:00 | 00:00:00 | 00:00:00 | |
| DF8AY | 2026-08-30 13:28:10 | 53.16255 | 11.69768 | 85° | 57km/h | 2042m | -3.2m/s | 7.9°C | 91% | 795.4hPa | 2.7V | 02:19:30 | 03:31:01 | 00:00:00 | |
| AA1-15 | 2026-08-30 13:28:02 | 53.16247 | 11.69580 | 86° | 57km/h | 2069m | -3.4m/s | 7.8°C | 91% | 792.8hPa | 2.8V | 02:19:30 | 03:30:53 | 00:00:00 | |
| DF8AY | 2026-08-30 13:28:00 | 53.16245 | 11.69533 | 85° | 55km/h | 2075m | -3.5m/s | 7.9°C | 90.9% | 792.2hPa | 2.8V | 02:19:30 | 03:30:51 | 00:00:00 | |
| AM1SDL-15 | 2026-08-30 13:27:59 | 53.16244 | 11.69510 | 86° | 55km/h | 2079m | -3.3m/s | 7.8°C | 87.6% | 791.7hPa | 2.7V | 00:00:00 | 03:30:50 | 00:00:00 | |
| DO2SHX-10 | 2026-08-30 13:27:57 | 53.16242 | 11.69463 | 86° | 55km/h | 2085m | -3.1m/s | 7.9°C | 86.1% | 791.1hPa | 2.7V | 00:00:00 | 03:30:48 | 00:00:00 | |
| DB0DAN | 2026-08-30 13:27:55 | 53.16240 | 11.69417 | 86° | 53km/h | 2092m | -3.4m/s | 8°C | 82.6% | 790.58hPa | 2.7V | 00:00:00 | 00:00:00 | 00:00:00 | |
| AA1-15 | 2026-08-30 13:27:52 | 53.16237 | 11.69348 | 87° | 55km/h | 2102m | -3.3m/s | 8.1°C | 85% | 789.5hPa | 2.7V | 02:20:21 | 03:30:43 | 00:00:00 | |
| DF8AY | 2026-08-30 13:27:50 | 53.16236 | 11.69302 | 87° | 55km/h | 2109m | -3.2m/s | 8.1°C | 85.1% | 789hPa | 2.7V | 02:20:21 | 03:30:41 | 00:00:00 | |
| SONDE2-11 | 2026-08-30 13:27:49 | 53.16231 | 11.69163 | 86° | 53km/h | 2128m | -3.2m/s | 7.9°C | 79.4% | 787.1hPa | 2.7V | 00:00:00 | 00:00:00 | 00:00:00 | |
| AA1-15 | 2026-08-30 13:27:41 | 53.16229 | 11.69093 | 87° | 55km/h | 2138m | -3.2m/s | 7.8°C | 83.8% | 786.3hPa | 2.7V | 02:20:21 | 03:30:32 | 00:00:00 | |
| DB0DAN | 2026-08-30 13:27:40 | 53.16229 | 11.69070 | 88° | 51km/h | 2141m | -3.4m/s | 7.8°C | 79.6% | 785.83hPa | 2.7V | 00:00:00 | 00:00:00 | 00:00:00 | |
| DF8AY | 2026-08-30 13:27:40 | 53.16229 | 11.69048 | 89° | 53km/h | 2144m | -3.4m/s | 7.8°C | 84% | 785.7hPa | 2.7V | 02:20:21 | 03:30:30 | 00:00:00 | |
| AA1-15 | 2026-08-30 13:27:30 | 53.16223 | 11.68844 | 86° | 55km/h | 2174m | -3.6m/s | 7.4°C | 88.1% | 782.8hPa | 2.7V | 02:20:21 | 03:30:21 | 00:00:00 | |
| DF8AY | 2026-08-30 13:27:29 | 53.16222 | 11.68821 | 86° | 55km/h | 2178m | -3.4m/s | 7.3°C | 88.7% | 782.4hPa | 2.7V | 02:20:21 | 03:30:20 | 00:00:00 | |
| DO2SHX-10 | 2026-08-30 13:27:27 | 53.16221 | 11.68775 | 87° | 53km/h | 2185m | -3.3m/s | 7.3°C | 83.3% | 781.7hPa | 2.7V | 00:00:00 | 03:30:18 | 00:00:00 | |
| DB0DAN | 2026-08-30 13:27:25 | 53.16219 | 11.68730 | 86° | 51km/h | 2191m | -3.3m/s | 7.3°C | 82.6% | 781.05hPa | 2.7V | 00:00:00 | 00:00:00 | 00:00:00 | |
| AA1-15 | 2026-08-30 13:27:20 | 53.16217 | 11.68617 | 90° | 53km/h | 2208m | -3.4m/s | 7.3°C | 85.9% | 779.5hPa | 2.7V | 02:20:21 | 03:30:11 | 00:00:00 | |
| DF8AY | 2026-08-30 13:27:18 | 53.16217 | 11.68573 | 88° | 53km/h | 2215m | -3.3m/s | 7.2°C | 85.9% | 778.8hPa | 2.7V | 02:20:21 | 03:30:09 | 00:00:00 | |
| SONDE2-11 | 2026-08-30 13:27:18 | 53.16216 | 11.68550 | 89° | 53km/h | 2218m | -3.3m/s | 7.2°C | 82.1% | 778.7hPa | 2.7V | 00:00:00 | 00:00:00 | 00:00:00 | |
| DO2SHX-10 | 2026-08-30 13:27:17 | 53.16216 | 11.68550 | 90° | 53km/h | 2218m | -3.3m/s | 7.2°C | 83.0% | 778.6hPa | 2.7V | 02:20:00 | 03:30:08 | 00:00:00 | |
| DB0DAN | 2026-08-30 13:27:10 | 53.16213 | 11.68392 | 88° | 51km/h | 2241m | -3.1m/s | 7.1°C | 82.3% | 776.43hPa | 2.7V | 00:00:00 | 00:00:00 | 00:00:00 | |
| AA1-15 | 2026-08-30 13:27:09 | 53.16212 | 11.68370 | 87° | 53km/h | 2245m | -3.3m/s | 7.1°C | 87.1% | 776.1hPa | 2.7V | 02:20:21 | 03:30:00 | 00:00:00 | |
| DF8AY | 2026-08-30 13:27:08 | 53.16212 | 11.68347 | 88° | 53km/h | 2248m | -3.4m/s | 7.1°C | 87.2% | 775.6hPa | 2.7V | 02:20:21 | 03:29:59 | 00:00:00 | |
| AA1-15 | 2026-08-30 13:26:58 | 53.16207 | 11.68126 | 89° | 53km/h | 2282m | -3.4m/s | 6.9°C | 88.4% | 772.4hPa | 2.7V | 02:21:12 | 03:29:49 | 00:00:00 | |
| DF8AY | 2026-08-30 13:26:57 | 53.16207 | 11.68104 | 89° | 53km/h | 2285m | -3.4m/s | 6.9°C | 88.5% | 772.2hPa | 2.7V | 02:21:12 | 03:29:48 | 00:00:00 | |
| DF8AY-15 | 2026-08-30 13:26:57 | 53.16207 | 11.68103 | 90° | 53km/h | 2285m | -3.3m/s | 6.8°C | 83.9% | 772.2hPa | 2.7V | 00:00:00 | 03:29:48 | 00:00:00 | |
| DB0DAN | 2026-08-30 13:26:55 | 53.16206 | 11.68059 | 88° | 51km/h | 2292m | -3.5m/s | 6.8°C | 82.9% | 771.51hPa | 2.7V | 00:00:00 | 00:00:00 | 00:00:00 | |
| AA1-15 | 2026-08-30 13:26:48 | 53.16204 | 11.67902 | 89° | 53km/h | 2317m | -3.5m/s | 6.8°C | 85.2% | 769.3hPa | 2.7V | 02:21:12 | 03:29:39 | 00:00:00 | |
| SONDE2-11 | 2026-08-30 13:26:47 | 53.16203 | 11.67858 | 88° | 53km/h | 2323m | -3.4m/s | 6.7°C | 80.9% | 768.6hPa | 2.7V | 00:00:00 | 00:00:00 | 00:00:00 | |
| DF8AY | 2026-08-30 13:26:47 | 53.16203 | 11.67858 | 89° | 53km/h | 2324m | -3.4m/s | 6.7°C | 84.1% | 768.6hPa | 2.7V | 02:21:12 | 03:29:37 | 00:00:00 | |
| DB0DAN | 2026-08-30 13:26:40 | 53.16203 | 11.67724 | 89° | 49km/h | 2344m | -3.6m/s | 6.7°C | 81.2% | 766.79hPa | 2.7V | 00:00:00 | 00:00:00 | 00:00:00 | |
| AA1-15 | 2026-08-30 13:26:37 | 53.16202 | 11.67658 | 89° | 51km/h | 2355m | -3.7m/s | 6.7°C | 85.2% | 765.8hPa | 2.7V | 02:21:12 | 03:29:28 | 00:00:00 | |
| DF8AY | 2026-08-30 13:26:36 | 53.16202 | 11.67636 | 89° | 53km/h | 2358m | -3.6m/s | 6.7°C | 84.9% | 765.4hPa | 2.7V | 02:21:12 | 03:29:27 | 00:00:00 | |
| AA1-15 | 2026-08-30 13:26:26 | 53.16200 | 11.67415 | 89° | 53km/h | 2394m | -3.6m/s | 6.7°C | 85.2% | 762.1hPa | 2.7V | 02:21:12 | 03:29:17 | 00:00:00 | |
| DB0DAN | 2026-08-30 13:26:25 | 53.16200 | 11.67393 | 90° | 49km/h | 2397m | -3.5m/s | 6.6°C | 81.6% | 761.77hPa | 2.7V | 00:00:00 | 00:00:00 | 00:00:00 | |
| DF8AY | 2026-08-30 13:26:25 | 53.16200 | 11.67393 | 90° | 53km/h | 2397m | -3.5m/s | 6.6°C | 85.8% | 761.8hPa | 2.7V | 02:21:12 | 03:29:16 | 00:00:00 | |
| AA1-15 | 2026-08-30 13:26:15 | 53.16198 | 11.67172 | 89° | 53km/h | 2432m | -3.5m/s | 6.6°C | 81.9% | 758.5hPa | 2.7V | 02:21:12 | 03:29:06 | 00:00:00 | |
| DF8AY | 2026-08-30 13:26:14 | 53.16198 | 11.67150 | 89° | 51km/h | 2436m | -3.6m/s | 6.6°C | 82.2% | 758.1hPa | 2.7V | 02:22:03 | 03:29:05 | 00:00:00 | |
| DB0DAN | 2026-08-30 13:26:10 | 53.16197 | 11.67062 | 89° | 49km/h | 2450m | -3.6m/s | 6.6°C | 75.2% | 756.84hPa | 2.7V | 00:00:00 | 00:00:00 | 00:00:00 | |
| AA1-15 | 2026-08-30 13:26:04 | 53.16197 | 11.66932 | 89° | 51km/h | 2472m | -3.8m/s | 6.5°C | 78.9% | 754.9hPa | 2.7V | 02:22:03 | 03:28:55 | 00:00:00 | |
| DF8AY | 2026-08-30 13:26:03 | 53.16196 | 11.66910 | 89° | 51km/h | 2475m | -3.8m/s | 6.5°C | 79.2% | 754.4hPa | 2.7V | 02:22:03 | 03:28:54 | 00:00:00 | |
| S3001 | 2026-08-30 13:26:02 | 53.16196 | 11.66867 | 89° | 49km/h | 2483m | -3.8m/s | 6.5°C | 74.9% | 753.9hPa | 2.7V | 00:00:00 | 00:00:00 | 00:00:00 | |
| SMARD9-15 | 2026-08-30 13:25:58 | 53.16196 | 11.66803 | 89° | 49km/h | 2494m | -3.7m/s | 6.3°C | 75.2% | 752.8hPa | 2.7V | 00:00:00 | 00:00:00 | 00:00:00 | |
| DO2SHX-10 | 2026-08-30 13:25:57 | 53.16195 | 11.66782 | 89° | 51km/h | 2498m | -3.7m/s | 6.3°C | 76.1% | 752.4hPa | 2.7V | 00:00:00 | 03:28:48 | 00:00:00 | |
| DB0DAN | 2026-08-30 13:25:55 | 53.16195 | 11.66740 | 90° | 47km/h | 2505m | -3.7m/s | 6.2°C | 75.5% | 751.68hPa | 2.7V | 00:00:00 | 00:00:00 | 00:00:00 | |
| DF8AY | 2026-08-30 13:25:53 | 53.16195 | 11.66698 | 89° | 51km/h | 2513m | -3.7m/s | 6.2°C | 81% | 751.2hPa | 2.7V | 02:22:03 | 03:28:44 | 00:00:00 | |
| SONDE2-11 | 2026-08-30 13:25:45 | 53.16195 | 11.66506 | 89° | 49km/h | 2547m | -3.8m/s | 6.0°C | 73.7% | 748.0hPa | 2.7V | 00:00:00 | 00:00:00 | 00:00:00 | |
| DF8AY | 2026-08-30 13:25:43 | 53.16195 | 11.66485 | 91° | 51km/h | 2551m | -3.9m/s | 5.9°C | 80.9% | 747.6hPa | 2.7V | 02:22:03 | 03:28:34 | 00:00:00 | |
| AA1-15 | 2026-08-30 13:25:42 | 53.16195 | 11.66463 | 91° | 51km/h | 2555m | -4.1m/s | 5.9°C | 80.5% | 747.2hPa | 2.7V | 02:22:03 | 03:28:33 | 00:00:00 | |
| DB0DAN | 2026-08-30 13:25:40 | 53.16195 | 11.66420 | 91° | 49km/h | 2562m | -3.9m/s | 5.9°C | 73.7% | 746.5hPa | 2.7V | 00:00:00 | 00:00:00 | 00:00:00 | |
| DF8AY | 2026-08-30 13:25:33 | 53.16194 | 11.66269 | 90° | 53km/h | 2590m | -4.1m/s | 5.7°C | 81.5% | 743.9hPa | 2.7V | 02:22:03 | 03:28:24 | 00:00:00 | |
| AA1-15 | 2026-08-30 13:25:31 | 53.16194 | 11.66226 | 89° | 51km/h | 2598m | -4.1m/s | 5.6°C | 81.7% | 743.3hPa | 2.7V | 02:22:03 | 03:28:22 | 00:00:00 | |
| S3001 | 2026-08-30 13:25:31 | 53.16194 | 11.66204 | 89° | 51km/h | 2602m | -4.2m/s | 5.6°C | 76.0% | 742.9hPa | 2.7V | 00:00:00 | 00:00:00 | 00:00:00 | |
| DO2SHX-10 | 2026-08-30 13:25:27 | 53.16194 | 11.66138 | 90° | 53km/h | 2615m | -4.2m/s | 5.5°C | 77.5% | 741.8hPa | 2.7V | 00:00:00 | 03:28:18 | 00:00:00 | |
| DB0DAN | 2026-08-30 13:25:25 | 53.16194 | 11.66094 | 91° | 49km/h | 2623m | -4.1m/s | 5.4°C | 76.9% | 740.99hPa | 2.7V | 00:00:00 | 00:00:00 | 00:00:00 | |
| DF8AY | 2026-08-30 13:25:22 | 53.16194 | 11.66028 | 91° | 53km/h | 2636m | -4.3m/s | 5.3°C | 82.1% | 739.9hPa | 2.7V | 02:22:54 | 03:28:13 | 00:00:00 | |
| AA1-15 | 2026-08-30 13:25:21 | 53.16194 | 11.66006 | 91° | 51km/h | 2640m | -4.2m/s | 5.3°C | 82.3% | 739.6hPa | 2.7V | 02:22:54 | 03:28:12 | 00:00:00 | |
| DL1XH-west | 2026-08-30 13:25:19 | 53.16195 | 11.65962 | 91° | 53km/h | 2648m | -4.2m/s | 5.2°C | 83.2% | 738.8hPa | 2.7V | 02:22:54 | 03:28:10 | 00:00:00 | |
| DF8AY | 2026-08-30 13:25:12 | 53.16196 | 11.65806 | 92° | 53km/h | 2677m | -4.3m/s | 5°C | 83.1% | 736.2hPa | 2.7V | 02:22:54 | 03:28:03 | 00:00:00 | |
| AA1-15 | 2026-08-30 13:25:11 | 53.16196 | 11.65784 | 91° | 53km/h | 2682m | -4.2m/s | 4.9°C | 83.1% | 735.6hPa | 2.7V | 02:22:54 | 03:28:02 | 00:00:00 | |
| DB0DAN | 2026-08-30 13:25:10 | 53.16197 | 11.65761 | 92° | 51km/h | 2686m | -4.4m/s | 4.9°C | 77.6% | 735.41hPa | 2.7V | 00:00:00 | 00:00:00 | 00:00:00 | |
| DL1XH-west | 2026-08-30 13:25:05 | 53.16199 | 11.65645 | 92° | 55km/h | 2708m | -4.4m/s | 4.8°C | 84.9% | 733.4hPa | 2.7V | 02:22:54 | 03:27:56 | 00:00:00 | |
| DF8AY | 2026-08-30 13:25:01 | 53.16200 | 11.65553 | 91° | 53km/h | 2725m | -4.3m/s | 4.6°C | 82.9% | 731.9hPa | 2.7V | 02:22:54 | 03:27:52 | 00:00:00 | |
| AA1-15 | 2026-08-30 13:25:00 | 53.16200 | 11.65531 | 89° | 55km/h | 2729m | -4.3m/s | 4.6°C | 82.9% | 731.5hPa | 2.7V | 02:22:54 | 03:27:51 | 00:00:00 | |
| S3001 | 2026-08-30 13:25:00 | 53.16199 | 11.65508 | 89° | 53km/h | 2733m | -4.3m/s | 4.5°C | 78.2% | 731.2hPa | 2.7V | 00:00:00 | 00:00:00 | 00:00:00 | |
| SMARD9-15 | 2026-08-30 13:24:56 | 53.16198 | 11.65440 | 88° | 53km/h | 2746m | -4.3m/s | 4.4°C | 78.6% | 729.9hPa | 2.7V | 00:00:00 | 00:00:00 | 00:00:00 | |
| DB0DAN | 2026-08-30 13:24:55 | 53.16198 | 11.65418 | 89° | 51km/h | 2751m | -4.4m/s | 4.4°C | 78.5% | 729.66hPa | 2.7V | 00:00:00 | 00:00:00 | 00:00:00 | |
| DL1XH-west | 2026-08-30 13:24:55 | 53.16198 | 11.65418 | 89° | 53km/h | 2751m | -4.4m/s | 4.4°C | 83.3% | 729.7hPa | 2.7V | 02:22:54 | 03:27:46 | 00:00:00 | |
| DL1XH1-15 | 2026-08-30 13:24:53 | 53.16194 | 11.65258 | 87° | 55km/h | 2782m | -4.3m/s | 4.3°C | 78.7% | 726.9hPa | 2.7V | 02:22:39 | 03:27:39 | 00:00:00 | |
| DF8AY | 2026-08-30 13:24:50 | 53.16195 | 11.65304 | 87° | 55km/h | 2773m | -4.4m/s | 4.3°C | 81.8% | 727.5hPa | 2.7V | 02:22:54 | 03:27:41 | 00:00:00 | |
| AA1-15 | 2026-08-30 13:24:49 | 53.16194 | 11.65281 | 88° | 55km/h | 2777m | -4.3m/s | 4.3°C | 82.3% | 727.1hPa | 2.7V | 02:22:54 | 03:27:40 | 00:00:00 | |
| AM1SDL-15 | 2026-08-30 13:24:47 | 53.16193 | 11.65235 | 87° | 53km/h | 2786m | -4.3m/s | 4.2°C | 78.8% | 726.5hPa | 2.7V | 00:00:00 | 03:27:38 | 00:00:00 | |
| DL1XH-15 | 2026-08-30 13:24:46 | 53.16189 | 11.65099 | 85° | 53km/h | 2812m | -4.5m/s | 4.1°C | 79.5% | 724.1hPa | 2.7V | 02:22:46 | 03:27:32 | 00:00:00 | |
| DL1XH-west | 2026-08-30 13:24:44 | 53.16191 | 11.65167 | 87° | 53km/h | 2799m | -4.5m/s | 4.2°C | 83.5% | 725.3hPa | 2.7V | 02:22:54 | 03:27:35 | 00:00:00 | |
| DL1XH1-15 | 2026-08-30 13:24:43 | 53.16186 | 11.65032 | 85° | 53km/h | 2825m | -4.7m/s | 4.1°C | 78.1% | 722.8hPa | 2.7V | 02:22:49 | 03:27:29 | 00:00:00 | |
| SONDE2-11 | 2026-08-30 13:24:42 | 53.16190 | 11.65122 | 86° | 53km/h | 2808m | -4.5m/s | 4.1°C | 78.5% | 724.5hPa | 2.7V | 00:00:00 | 00:00:00 | 00:00:00 | |
| DL1XH-15 | 2026-08-30 13:24:41 | 53.16183 | 11.64988 | 84° | 53km/h | 2834m | -4.4m/s | 4.2°C | 77.3% | 722.1hPa | 2.7V | 02:22:51 | 03:27:27 | 00:00:00 | |
| DB0DAN | 2026-08-30 13:24:40 | 53.16188 | 11.65077 | 85° | 51km/h | 2817m | -4.3m/s | 4.1°C | 78.1% | 723.66hPa | 2.7V | 00:00:00 | 00:00:00 | 00:00:00 | |
| DF8AY | 2026-08-30 13:24:40 | 53.16188 | 11.65077 | 85° | 53km/h | 2817m | -4.3m/s | 4.1°C | 82.8% | 723.7hPa | 2.7V | 02:22:54 | 03:27:31 | 00:00:00 | |
| AA1-15 | 2026-08-30 13:24:38 | 53.16186 | 11.65032 | 85° | 53km/h | 2826m | -4.7m/s | 4.1°C | 81.7% | 722.8hPa | 2.7V | 02:22:54 | 03:27:29 | 00:00:00 | |
| DL1XH1-15 | 2026-08-30 13:24:38 | 53.16180 | 11.64921 | 83° | 53km/h | 2847m | -4.3m/s | 4.1°C | 77.5% | 721hPa | 2.7V | 02:22:54 | 03:27:24 | 00:00:00 | |
| DF8AY | 2026-08-30 13:24:35 | 53.16175 | 11.64854 | 83° | 53km/h | 2861m | -4.3m/s | 4°C | 81.3% | 719.8hPa | 2.7V | 02:23:45 | 03:27:21 | 00:00:00 | |
| DL1XH-west | 2026-08-30 13:24:34 | 53.16181 | 11.64943 | 84° | 53km/h | 2843m | -4.4m/s | 4.1°C | 80.4% | 721.4hPa | 2.7V | 02:22:54 | 03:27:25 | 00:00:00 | |
| EDDB2-12 | 2026-08-30 13:24:32 | 53.16178 | 11.64899 | 84° | 53km/h | 2852m | -4.4m/s | 4.1°C | 76.6% | 720.6hPa | 2.7V | 00:00:00 | 00:00:00 | 00:00:00 | |
| DL1XH-15 | 2026-08-30 13:24:32 | 53.16170 | 11.64788 | 82° | 53km/h | 2873m | -4.5m/s | 3.9°C | 78.2% | 718.6hPa | 2.7V | 02:23:00 | 03:27:18 | 00:00:00 | |
| S3001 | 2026-08-30 13:24:29 | 53.16172 | 11.64810 | 83° | 51km/h | 2869m | -4.2m/s | 4.0°C | 77.0% | 719.0hPa | 2.7V | 00:00:00 | 00:00:00 | 00:00:00 | |
| DL1XH1-15 | 2026-08-30 13:24:28 | 53.16164 | 11.64700 | 81° | 53km/h | 2891m | -4.3m/s | 3.8°C | 79.1% | 717hPa | 2.7V | 02:23:04 | 03:27:14 | 00:00:00 | |
| AA1-15 | 2026-08-30 13:24:27 | 53.16170 | 11.64788 | 83° | 53km/h | 2873m | -4.5m/s | 3.9°C | 83.2% | 718.6hPa | 2.7V | 02:23:45 | 03:27:18 | 00:00:00 | |
| DB0DAN | 2026-08-30 13:24:25 | 53.16167 | 11.64744 | 83° | 51km/h | 2882m | -4.5m/s | 3.9°C | 77.4% | 717.79hPa | 2.7V | 00:00:00 | 00:00:00 | 00:00:00 | |
| DL1XH-west | 2026-08-30 13:24:23 | 53.16164 | 11.64700 | 82° | 53km/h | 2891m | -4.3m/s | 3.8°C | 85% | 717hPa | 2.7V | 02:23:45 | 03:27:14 | 00:00:00 | |
| DL1XH1-15 | 2026-08-30 13:24:23 | 53.16154 | 11.64590 | 82° | 51km/h | 2914m | -4.5m/s | 3.7°C | 78.6% | 715hPa | 2.7V | 02:23:09 | 03:27:09 | 00:00:00 | |
| DF8AY | 2026-08-30 13:24:19 | 53.16156 | 11.64612 | 82° | 53km/h | 2909m | -4.5m/s | 3.7°C | 83.7% | 715.3hPa | 2.7V | 02:23:45 | 03:27:10 | 00:00:00 | |
| DL1XH1-15 | 2026-08-30 13:24:18 | 53.16146 | 11.64485 | 80° | 49km/h | 2936m | -4.4m/s | 3.6°C | 79% | 713.1hPa | 2.7V | 02:23:14 | 03:27:04 | 00:00:00 | |
| AA1-15 | 2026-08-30 13:24:16 | 53.16151 | 11.64548 | 82° | 51km/h | 2922m | -4.5m/s | 3.7°C | 82.5% | 714.3hPa | 2.7V | 02:23:45 | 03:27:07 | 00:00:00 | |
| DO2SHX-10 | 2026-08-30 13:24:16 | 53.16151 | 11.64547 | 83° | 49km/h | 2922m | -4.4m/s | 3.6°C | 78.6% | 714.2hPa | 2.7V | 02:23:00 | 03:27:07 | 00:00:00 | |
| DL1XH1-15 | 2026-08-30 13:24:13 | 53.16136 | 11.64380 | 81° | 49km/h | 2957m | -4.3m/s | 3.4°C | 80.1% | 711.3hPa | 2.7V | 02:23:19 | 03:26:59 | 00:00:00 | |
| DL1XH-west | 2026-08-30 13:24:12 | 53.16144 | 11.64464 | 82° | 49km/h | 2940m | -4.2m/s | 3.6°C | 82.6% | 712.7hPa | 2.7V | 02:23:45 | 03:27:03 | 00:00:00 | |
| DB0DAN | 2026-08-30 13:24:10 | 53.16140 | 11.64423 | 81° | 47km/h | 2948m | -4.4m/s | 3.5°C | 78.6% | 712hPa | 2.7V | 00:00:00 | 00:00:00 | 00:00:00 | |
| DF8AY | 2026-08-30 13:24:08 | 53.16136 | 11.64380 | 82° | 51km/h | 2957m | -4.3m/s | 3.4°C | 83% | 711.3hPa | 2.7V | 02:23:45 | 03:26:59 | 00:00:00 | |
| AA1-15 | 2026-08-30 13:24:05 | 53.16130 | 11.64317 | 80° | 51km/h | 2970m | -4.4m/s | 3.3°C | 83.5% | 710hPa | 2.7V | 02:23:45 | 03:26:56 | 00:00:00 | |
| DL1XH1-15 | 2026-08-30 13:24:03 | 53.16111 | 11.64172 | 76° | 49km/h | 3001m | -4.3m/s | 3.2°C | 79.1% | 707.4hPa | 2.7V | 02:23:29 | 03:26:49 | 00:00:00 | |
| DL1XH-west | 2026-08-30 13:24:01 | 53.16119 | 11.64233 | 78° | 51km/h | 2988m | -4.5m/s | 3.3°C | 83.9% | 708.6hPa | 2.7V | 02:23:45 | 03:26:52 | 00:00:00 | |
| DF8AY | 2026-08-30 13:23:58 | 53.16111 | 11.64172 | 76° | 49km/h | 3001m | -4.3m/s | 3.3°C | 83.8% | 707.4hPa | 2.7V | 02:23:45 | 03:26:49 | 00:00:00 | |
| S3001 | 2026-08-30 13:23:58 | 53.16108 | 11.64152 | 75° | 47km/h | 3005m | -4.2m/s | 3.2°C | 78.0% | 707.1hPa | 2.7V | 00:00:00 | 00:00:00 | 00:00:00 | |
| DB0DAN | 2026-08-30 13:23:55 | 53.16101 | 11.64112 | 76° | 47km/h | 3014m | -4.5m/s | 3.2°C | 78.1% | 706.37hPa | 2.7V | 00:00:00 | 00:00:00 | 00:00:00 | |
| DL1XH-15 | 2026-08-30 13:23:55 | 53.16092 | 11.64051 | 75° | 49km/h | 3027m | -4.3m/s | 3.1°C | 79.3% | 705.2hPa | 2.7V | 02:23:35 | 03:26:43 | 00:00:00 | |
| AA1-15 | 2026-08-30 13:23:54 | 53.16098 | 11.64092 | 76° | 47km/h | 3018m | -4.3m/s | 3.1°C | 83.4% | 705.9hPa | 2.7V | 02:23:45 | 03:26:45 | 00:00:00 | |
| DL1XH1-15 | 2026-08-30 13:23:53 | 53.16078 | 11.63971 | 74° | 51km/h | 3044m | -4.1m/s | 3.2°C | 76.7% | 703.7hPa | 2.7V | 02:23:39 | 03:26:39 | 00:00:00 | |
| DL1XH-west | 2026-08-30 13:23:51 | 53.16089 | 11.64031 | 75° | 49km/h | 3031m | -4.3m/s | 3.1°C | 83.1% | 704.8hPa | 2.7V | 02:23:45 | 03:26:42 | 00:00:00 | |
| DO2SHX-10 | 2026-08-30 13:23:50 | 53.16085 | 11.64011 | 74° | 49km/h | 3036m | -4.1m/s | 3.1°C | 78.8% | 704.4hPa | 2.7V | 00:00:00 | 03:26:41 | 00:00:00 | |
| DL1XH-15 | 2026-08-30 13:23:49 | 53.16063 | 11.63890 | 73° | 49km/h | 3061m | -4.6m/s | 3.1°C | 76.8% | 702.2hPa | 2.7V | 02:23:43 | 03:26:35 | 00:00:00 | |
| DL1XH1-15 | 2026-08-30 13:23:48 | 53.16060 | 11.63870 | 72° | 49km/h | 3065m | -4.3m/s | 3°C | 76.3% | 701.8hPa | 2.7V | 02:23:44 | 03:26:34 | 00:00:00 | |
| DF8AY | 2026-08-30 13:23:47 | 53.16075 | 11.63950 | 73° | 49km/h | 3048m | -4.2m/s | 3.1°C | 81.7% | 703.2hPa | 2.7V | 02:23:45 | 03:26:38 | 00:00:00 | |
| DO2SHX-10 | 2026-08-30 13:23:47 | 53.16075 | 11.63950 | 74° | 49km/h | 3048m | -4.2m/s | 3.1°C | 77.3% | 703.2hPa | 2.7V | 00:00:00 | 03:26:38 | 00:00:00 | |
| AM1SDL-15 | 2026-08-30 13:23:45 | 53.16067 | 11.63910 | 74° | 49km/h | 3057m | -4.2m/s | 3.0°C | 77.4% | 702.5hPa | 2.7V | 00:00:00 | 03:26:36 | 00:00:00 | |
| DL1XH-15 | 2026-08-30 13:23:44 | 53.16045 | 11.63791 | 71° | 49km/h | 3082m | -4.3m/s | 3°C | 75% | 700.2hPa | 2.7V | 02:23:48 | 03:26:30 | 00:00:00 | |
| AA1-15 | 2026-08-30 13:23:43 | 53.16060 | 11.63870 | 72° | 49km/h | 3065m | -4.3m/s | 3°C | 80.6% | 701.8hPa | 2.7V | 02:23:45 | 03:26:34 | 00:00:00 | |
| DL1XH-west | 2026-08-30 13:23:41 | 53.16052 | 11.63830 | 72° | 49km/h | 3074m | -4.3m/s | 3.1°C | 79.9% | 701.2hPa | 2.7V | 02:24:36 | 03:26:32 | 00:00:00 | |
| DB0DAN | 2026-08-30 13:23:40 | 53.16048 | 11.63811 | 72° | 47km/h | 3078m | -4.1m/s | 3°C | 74.3% | 700.68hPa | 2.7V | 00:00:00 | 00:00:00 | 00:00:00 | |
| DL1XH-15 | 2026-08-30 13:23:39 | 53.16024 | 11.63693 | 71° | 49km/h | 3103m | -4.1m/s | 2.9°C | 74.7% | 698.6hPa | 2.7V | 02:23:53 | 03:26:25 | 00:00:00 | |
| DL1XH1-15 | 2026-08-30 13:23:38 | 53.16020 | 11.63673 | 69° | 49km/h | 3107m | -4.4m/s | 2.9°C | 74.4% | 698.2hPa | 2.7V | 02:23:54 | 03:26:24 | 00:00:00 | |
| DF8AY | 2026-08-30 13:23:37 | 53.16037 | 11.63752 | 72° | 49km/h | 3091m | -4.4m/s | 3°C | 79.7% | 699.7hPa | 2.6V | 02:24:36 | 03:26:28 | 00:00:00 | |
| DF8AY-15 | 2026-08-30 13:23:36 | 53.16033 | 11.63732 | 71° | 49km/h | 3095m | -4.0m/s | 2.9°C | 75.0% | 699.1hPa | 2.7V | 02:23:00 | 03:26:27 | 00:00:00 | |
| DO2SHX-10 | 2026-08-30 13:23:35 | 53.16029 | 11.63713 | 71° | 49km/h | 3099m | -4.1m/s | 2.9°C | 74.7% | 698.9hPa | 2.7V | 02:23:00 | 03:26:26 | 00:00:00 | |
| DL1XH-15 | 2026-08-30 13:23:34 | 53.16003 | 11.63595 | 68° | 49km/h | 3124m | -4.1m/s | 2.7°C | 75% | 696.8hPa | 2.6V | 02:23:58 | 03:26:20 | 00:00:00 | |
| DL1XH1-15 | 2026-08-30 13:23:33 | 53.15998 | 11.63575 | 69° | 49km/h | 3128m | -4.1m/s | 2.7°C | 75.1% | 696.5hPa | 2.7V | 02:23:59 | 03:26:19 | 00:00:00 | |
| AA1-15 | 2026-08-30 13:23:33 | 53.16020 | 11.63673 | 69° | 49km/h | 3108m | -4.4m/s | 2.9°C | 79.6% | 698.2hPa | 2.7V | 02:24:36 | 03:26:24 | 00:00:00 | |
| DL1XH-west | 2026-08-30 13:23:30 | 53.16007 | 11.63614 | 71° | 49km/h | 3120m | -4.1m/s | 2.8°C | 80.3% | 697.1hPa | 2.7V | 02:24:36 | 03:26:21 | 00:00:00 | |
| EDDB2-12 | 2026-08-30 13:23:30 | 53.16007 | 11.63614 | 70° | 47km/h | 3120m | -4.1m/s | 2.8°C | 73.7% | 697.1hPa | 2.7V | 00:00:00 | 00:00:00 | 00:00:00 | |
| DO2SHX-10 | 2026-08-30 13:23:29 | 53.16003 | 11.63595 | 69° | 49km/h | 3124m | -4.1m/s | 2.7°C | 75.0% | 696.7hPa | 2.7V | 00:00:00 | 03:26:20 | 00:00:00 | |
| DL1XH1-15 | 2026-08-30 13:23:28 | 53.15977 | 11.63478 | 69° | 49km/h | 3149m | -4.1m/s | 2.5°C | 75.7% | 694.6hPa | 2.7V | 02:24:04 | 03:26:14 | 00:00:00 | |
| DF8AY | 2026-08-30 13:23:26 | 53.15990 | 11.63536 | 70° | 49km/h | 3137m | -4.3m/s | 2.7°C | 79.9% | 695.7hPa | 2.7V | 02:24:36 | 03:26:17 | 00:00:00 | |
| DB0DAN | 2026-08-30 13:23:25 | 53.15986 | 11.63517 | 70° | 47km/h | 3141m | -4.2m/s | 2.6°C | 74.4% | 695.35hPa | 2.7V | 00:00:00 | 00:00:00 | 00:00:00 | |
| DL1XH1-15 | 2026-08-30 13:23:23 | 53.15955 | 11.63380 | 68° | 49km/h | 3170m | -4.1m/s | 2.4°C | 75.5% | 692.8hPa | 2.7V | 02:24:09 | 03:26:09 | 00:00:00 | |
| AA1-15 | 2026-08-30 13:23:22 | 53.15973 | 11.63458 | 69° | 49km/h | 3153m | -4.2m/s | 2.5°C | 79.9% | 694.1hPa | 2.7V | 02:24:36 | 03:26:13 | 00:00:00 | |
| DL1XH-west | 2026-08-30 13:23:20 | 53.15964 | 11.63419 | 70° | 49km/h | 3162m | -4.1m/s | 2.5°C | 80% | 693.5hPa | 2.7V | 02:24:36 | 03:26:11 | 00:00:00 | |
| DO2SHX-10 | 2026-08-30 13:23:20 | 53.15964 | 11.63419 | 70° | 49km/h | 3162m | -4.1m/s | 2.4°C | 75.3% | 693.5hPa | 2.6V | 00:00:00 | 03:26:11 | 00:00:00 | |
| DL1XH1-15 | 2026-08-30 13:23:18 | 53.15932 | 11.63284 | 70° | 49km/h | 3190m | -4.1m/s | 2.2°C | 76.1% | 691hPa | 2.6V | 02:24:14 | 03:26:04 | 00:00:00 | |
| DF8AY | 2026-08-30 13:23:15 | 53.15941 | 11.63323 | 68° | 49km/h | 3182m | -4.2m/s | 2.3°C | 80.3% | 691.8hPa | 2.7V | 02:24:36 | 03:26:06 | 00:00:00 | |
| DO2SHX-10 | 2026-08-30 13:23:14 | 53.15937 | 11.63303 | 70° | 49km/h | 3186m | -4.0m/s | 2.2°C | 76.1% | 691.3hPa | 2.7V | 00:00:00 | 03:26:05 | 00:00:00 | |
| DL1XH1-15 | 2026-08-30 13:23:13 | 53.15911 | 11.63187 | 68° | 49km/h | 3210m | -3.9m/s | 2°C | 77% | 689.3hPa | 2.7V | 02:24:19 | 03:25:59 | 00:00:00 | |
| AA1-15 | 2026-08-30 13:23:11 | 53.15924 | 11.63245 | 70° | 49km/h | 3198m | -4.2m/s | 2.2°C | 81.3% | 690.3hPa | 2.7V | 02:24:36 | 03:26:02 | 00:00:00 | |
| DB0DAN | 2026-08-30 13:23:10 | 53.15920 | 11.63226 | 70° | 46km/h | 3203m | -4m/s | 2.1°C | 75.1% | 690.02hPa | 2.7V | 00:00:00 | 00:00:00 | 00:00:00 | |
| DL1XH-west | 2026-08-30 13:23:09 | 53.15915 | 11.63207 | 69° | 49km/h | 3206m | -4.2m/s | 2.1°C | 82.9% | 689.7hPa | 2.7V | 02:24:36 | 03:26:00 | 00:00:00 | |
| DL1XH-15 | 2026-08-30 13:23:08 | 53.15888 | 11.63092 | 68° | 47km/h | 3231m | -4m/s | 1.9°C | 77.2% | 687.5hPa | 2.7V | 02:24:24 | 03:25:54 | 00:00:00 | |
| DF8AY | 2026-08-30 13:23:05 | 53.15897 | 11.63130 | 68° | 49km/h | 3223m | -4m/s | 1.9°C | 82.7% | 688.2hPa | 2.6V | 02:24:36 | 03:25:56 | 00:00:00 | |
| DO2SHX-10 | 2026-08-30 13:23:05 | 53.15897 | 11.63130 | 68° | 49km/h | 3223m | -3.9m/s | 1.8°C | 77.2% | 688.1hPa | 2.7V | 00:00:00 | 03:25:56 | 00:00:00 | |
| DL1XH1-15 | 2026-08-30 13:23:03 | 53.15865 | 11.62996 | 68° | 49km/h | 3251m | -4.3m/s | 1.7°C | 77.9% | 685.9hPa | 2.7V | 02:24:29 | 03:25:49 | 00:00:00 | |
| AA1-15 | 2026-08-30 13:23:00 | 53.15874 | 11.63035 | 69° | 49km/h | 3243m | -4.1m/s | 1.8°C | 81.7% | 686.5hPa | 2.7V | 02:24:36 | 03:25:51 | 00:00:00 | |
| DL1XH-west | 2026-08-30 13:22:58 | 53.15865 | 11.62996 | 68° | 49km/h | 3251m | -4.3m/s | 1.7°C | 82.2% | 685.9hPa | 2.7V | 02:24:36 | 03:25:49 | 00:00:00 | |
| DL1XH1-15 | 2026-08-30 13:22:58 | 53.15842 | 11.62900 | 67° | 49km/h | 3272m | -4.3m/s | 1.5°C | 78.5% | 684.1hPa | 2.7V | 02:24:34 | 03:25:44 | 00:00:00 | |
| S3001 | 2026-08-30 13:22:56 | 53.15851 | 11.62939 | 67° | 47km/h | 3264m | -4.1m/s | 1.6°C | 77.1% | 684.8hPa | 2.7V | 00:00:00 | 00:00:00 | 00:00:00 | |
| DB0DAN | 2026-08-30 13:22:55 | 53.15851 | 11.62939 | 67° | 46km/h | 3264m | -4.1m/s | 1.6°C | 77.1% | 684.82hPa | 2.7V | 00:00:00 | 00:00:00 | 00:00:00 | |
| DF8AY | 2026-08-30 13:22:55 | 53.15851 | 11.62939 | 67° | 49km/h | 3264m | -4.1m/s | 1.6°C | 82.2% | 684.8hPa | 2.7V | 02:24:36 | 03:25:46 | 00:00:00 | |
| DF8AY-15 | 2026-08-30 13:22:54 | 53.15846 | 11.62919 | 68° | 49km/h | 3268m | -4.1m/s | 1.5°C | 78.4% | 684.2hPa | 2.7V | 00:00:00 | 03:25:45 | 00:00:00 | |
| DL1XH-15 | 2026-08-30 13:22:53 | 53.15818 | 11.62806 | 66° | 47km/h | 3293m | -4.4m/s | 1.3°C | 79.3% | 682.3hPa | 2.7V | 02:24:39 | 03:25:39 | 00:00:00 | |
| AA1-15 | 2026-08-30 13:22:49 | 53.15823 | 11.62825 | 67° | 47km/h | 3289m | -4.1m/s | 1.3°C | 83.2% | 682.6hPa | 2.7V | 02:26:18 | 03:25:40 | 00:00:00 | |
| DL1XH-west | 2026-08-30 13:22:48 | 53.15818 | 11.62806 | 66° | 47km/h | 3293m | -4.4m/s | 1.3°C | 82.8% | 682.3hPa | 2.7V | 02:25:27 | 03:25:39 | 00:00:00 | |
| DL1XH1-15 | 2026-08-30 13:22:48 | 53.15794 | 11.62711 | 67° | 49km/h | 3314m | -4.1m/s | 1.1°C | 79.9% | 680.6hPa | 2.7V | 02:24:44 | 03:25:34 | 00:00:00 | |
| DF8AY | 2026-08-30 13:22:44 | 53.15799 | 11.62731 | 66° | 49km/h | 3310m | -4.3m/s | 1.2°C | 84% | 680.9hPa | 2.7V | 02:25:27 | 03:25:35 | 00:00:00 | |
| DO2SHX-10 | 2026-08-30 13:22:44 | 53.15799 | 11.62730 | 67° | 49km/h | 3310m | -4.2m/s | 1.1°C | 79.8% | 680.8hPa | 2.6V | 00:00:00 | 03:25:35 | 00:00:00 | |
| DL1XH1-15 | 2026-08-30 13:22:43 | 53.15770 | 11.62615 | 67° | 49km/h | 3335m | -4m/s | 1°C | 78.6% | 678.8hPa | 2.6V | 02:24:49 | 03:25:29 | 00:00:00 | |
| DB0DAN | 2026-08-30 13:22:40 | 53.15779 | 11.62654 | 67° | 47km/h | 3327m | -4m/s | 1.2°C | 77% | 679.5hPa | 2.7V | 00:00:00 | 00:00:00 | 00:00:00 | |
| DL1XH-15 | 2026-08-30 13:22:38 | 53.15745 | 11.62519 | 66° | 49km/h | 3355m | -4.2m/s | 0.9°C | 78.7% | 677hPa | 2.7V | 02:24:54 | 03:25:24 | 00:00:00 | |
| AA1-15 | 2026-08-30 13:22:38 | 53.15769 | 11.62615 | 67° | 49km/h | 3335m | -4m/s | 1°C | 84.3% | 678.8hPa | 2.6V | 02:26:18 | 03:25:29 | 00:00:00 | |
| DF8AY | 2026-08-30 13:22:34 | 53.15750 | 11.62538 | 67° | 49km/h | 3351m | -4m/s | 1°C | 82.4% | 677.5hPa | 2.7V | 02:25:27 | 03:25:25 | 00:00:00 | |
| DF8AY-15 | 2026-08-30 13:22:34 | 53.15750 | 11.62538 | 67° | 49km/h | 3351m | -4.0m/s | 0.9°C | 78.4% | 677.4hPa | 2.7V | 02:24:00 | 03:25:25 | 00:00:00 | |
| DL1XH-15 | 2026-08-30 13:22:33 | 53.15720 | 11.62423 | 67° | 49km/h | 3375m | -4.3m/s | 0.8°C | 78.7% | 675.5hPa | 2.7V | 02:24:59 | 03:25:19 | 00:00:00 | |
| DL1XH1-15 | 2026-08-30 13:22:32 | 53.15715 | 11.62403 | 66° | 49km/h | 3379m | -4.1m/s | 0.8°C | 78.8% | 675.1hPa | 2.7V | 02:25:00 | 03:25:18 | 00:00:00 | |
| DL1XH-west | 2026-08-30 13:22:28 | 53.15720 | 11.62423 | 68° | 49km/h | 3376m | -4.3m/s | 0.8°C | 83% | 675.5hPa | 2.7V | 02:25:27 | 03:25:19 | 00:00:00 | |
| EDDB2-12 | 2026-08-30 13:22:28 | 53.15720 | 11.62423 | 67° | 49km/h | 3375m | -4.3m/s | 0.8°C | 77.4% | 675.5hPa | 2.7V | 00:00:00 | 00:00:00 | 00:00:00 | |
| DB0DAN | 2026-08-30 13:22:25 | 53.15705 | 11.62365 | 68° | 47km/h | 3388m | -4.2m/s | 0.6°C | 78.4% | 674.28hPa | 2.7V | 00:00:00 | 00:00:00 | 00:00:00 | |
| DF8AY | 2026-08-30 13:22:24 | 53.15700 | 11.62345 | 67° | 49km/h | 3392m | -4.1m/s | 0.6°C | 85% | 674hPa | 2.7V | 02:25:27 | 03:25:15 | 00:00:00 | |
| DL1XH-15 | 2026-08-30 13:22:23 | 53.15670 | 11.62229 | 68° | 49km/h | 3416m | -4.1m/s | 0.3°C | 81.3% | 671.9hPa | 2.7V | 02:25:09 | 03:25:09 | 00:00:00 | |
| DO2SHX-10 | 2026-08-30 13:22:23 | 53.15695 | 11.62325 | 67° | 51km/h | 3396m | -4.0m/s | 0.4°C | 80.3% | 673.6hPa | 2.7V | 02:25:00 | 03:25:14 | 00:00:00 | |
| SMARD9-15 | 2026-08-30 13:22:21 | 53.15685 | 11.62287 | 67° | 49km/h | 3404m | -3.9m/s | 0.5°C | 78.8% | 672.9hPa | 2.7V | 00:00:00 | 00:00:00 | 00:00:00 | |
| DO2SHX-10 | 2026-08-30 13:22:20 | 53.15680 | 11.62267 | 68° | 49km/h | 3408m | -4.0m/s | 0.4°C | 80.4% | 672.5hPa | 2.7V | 00:00:00 | 03:25:11 | 00:00:00 | |
| DM0DOS-11 | 2026-08-30 13:22:18 | 53.15646 | 11.62134 | 64° | 47km/h | 3437m | -4.5m/s | 0.1°C | 82.6% | 670.1hPa | 2.7V | 02:25:14 | 03:25:04 | 00:00:00 | |
| DL1XH-west | 2026-08-30 13:22:18 | 53.15670 | 11.62229 | 68° | 49km/h | 3416m | -4.1m/s | 0.3°C | 86.2% | 671.9hPa | 2.7V | 02:25:27 | 03:25:09 | 00:00:00 | |
| BIOWL1-15 | 2026-08-30 13:22:18 | 53.15656 | 11.62172 | 67° | 49km/h | 3428m | -4.2m/s | 0.3°C | 86.1% | 670.8hPa | 2.6V | 02:25:27 | 03:25:06 | 00:00:00 | |
| AA1-15 | 2026-08-30 13:22:16 | 53.15661 | 11.62191 | 67° | 49km/h | 3424m | -4.2m/s | 0.3°C | 85.8% | 671.2hPa | 2.7V | 02:26:18 | 03:25:07 | 00:00:00 | |
| DF8AY | 2026-08-30 13:22:14 | 53.15651 | 11.62153 | 67° | 49km/h | 3432m | -4.2m/s | 0.2°C | 87.1% | 670.4hPa | 2.7V | 02:25:27 | 03:25:05 | 00:00:00 | |
| DO2SHX-10 | 2026-08-30 13:22:14 | 53.15651 | 11.62153 | 67° | 49km/h | 3432m | -4.1m/s | 0.2°C | 82.3% | 670.4hPa | 2.7V | 02:25:00 | 03:25:05 | 00:00:00 | |
| DL1XH1-15 | 2026-08-30 13:22:12 | 53.15615 | 11.62022 | 65° | 49km/h | 3462m | -4.3m/s | -0.1°C | 83.8% | 668.1hPa | 2.7V | 02:25:20 | 03:24:58 | 00:00:00 | |
| DB0DAN | 2026-08-30 13:22:10 | 53.15631 | 11.62078 | 66° | 46km/h | 3449m | -4m/s | 0.1°C | 81.5% | 669.12hPa | 2.7V | 00:00:00 | 00:00:00 | 00:00:00 | |
| AM1SDL-15 | 2026-08-30 13:22:09 | 53.15625 | 11.62060 | 65° | 49km/h | 3453m | -4.0m/s | 0.0°C | 83.1% | 668.7hPa | 2.7V | 02:25:00 | 03:25:00 | 00:00:00 | |
| DO2SHX-10 | 2026-08-30 13:22:08 | 53.15620 | 11.62041 | 66° | 49km/h | 3458m | -4.1m/s | -0.0°C | 83.5% | 668.4hPa | 2.7V | 00:00:00 | 03:24:59 | 00:00:00 | |
| DL1XH1-15 | 2026-08-30 13:22:07 | 53.15589 | 11.61927 | 64° | 49km/h | 3483m | -4.2m/s | -0.2°C | 84% | 666.3hPa | 2.7V | 02:25:25 | 03:24:53 | 00:00:00 | |
| DL1XH-west | 2026-08-30 13:22:07 | 53.15615 | 11.62022 | 66° | 49km/h | 3462m | -4.3m/s | -0.1°C | 87.2% | 668.1hPa | 2.7V | 02:25:27 | 03:24:58 | 00:00:00 | |
| AA1-15 | 2026-08-30 13:22:06 | 53.15610 | 11.62003 | 65° | 49km/h | 3466m | -4.4m/s | -0.1°C | 87% | 667.6hPa | 2.7V | 02:26:18 | 03:24:57 | 00:00:00 | |
| BIOWL1-15 | 2026-08-30 13:22:05 | 53.15583 | 11.61908 | 65° | 51km/h | 3487m | -4.3m/s | -0.3°C | 89.6% | 666.1hPa | 2.6V | 02:25:27 | 03:24:52 | 00:00:00 | |
| DF8AY | 2026-08-30 13:22:03 | 53.15594 | 11.61946 | 66° | 49km/h | 3479m | -4.2m/s | -0.2°C | 88.3% | 666.7hPa | 2.7V | 02:25:27 | 03:24:54 | 00:00:00 | |
| DO2SHX-10 | 2026-08-30 13:22:02 | 53.15589 | 11.61927 | 65° | 49km/h | 3483m | -4.1m/s | -0.2°C | 84.0% | 666.3hPa | 2.7V | 00:00:00 | 03:24:53 | 00:00:00 | |
| DO2SHX-10 | 2026-08-30 13:21:59 | 53.15573 | 11.61870 | 67° | 49km/h | 3495m | -4.2m/s | -0.3°C | 84.7% | 665.2hPa | 2.7V | 00:00:00 | 03:24:50 | 00:00:00 | |
| DL1XH1-15 | 2026-08-30 13:21:57 | 53.15538 | 11.61740 | 65° | 47km/h | 3524m | -4.2m/s | -0.5°C | 83.6% | 663hPa | 2.7V | 02:25:35 | 03:24:43 | 00:00:00 | |
| DL1XH-west | 2026-08-30 13:21:56 | 53.15558 | 11.61814 | 67° | 47km/h | 3508m | -4.2m/s | -0.4°C | 88.9% | 664.3hPa | 2.7V | 02:26:18 | 03:24:47 | 00:00:00 | |
| DB0DAN | 2026-08-30 13:21:55 | 53.15553 | 11.61795 | 65° | 46km/h | 3512m | -4.3m/s | -0.5°C | 83% | 663.88hPa | 2.7V | 00:00:00 | 00:00:00 | 00:00:00 | |
| DF8AY | 2026-08-30 13:21:52 | 53.15538 | 11.61740 | 65° | 47km/h | 3524m | -4.2m/s | -0.5°C | 86.3% | 663hPa | 2.7V | 02:26:18 | 03:24:43 | 00:00:00 | |
| AA1-15 | 2026-08-30 13:21:49 | 53.15522 | 11.61685 | 66° | 49km/h | 3537m | -4m/s | -0.7°C | 86.8% | 661.9hPa | 2.7V | 02:26:18 | 03:24:40 | 00:00:00 | |
| DL1XH1-15 | 2026-08-30 13:21:47 | 53.15488 | 11.61550 | 68° | 51km/h | 3566m | -4.4m/s | -0.9°C | 83.2% | 659.6hPa | 2.7V | 02:25:45 | 03:24:33 | 00:00:00 | |
| DL1XH-west | 2026-08-30 13:21:45 | 53.15503 | 11.61609 | 69° | 49km/h | 3553m | -4.1m/s | -0.8°C | 86.2% | 660.5hPa | 2.7V | 02:26:18 | 03:24:36 | 00:00:00 | |
| DO2SHX-10 | 2026-08-30 13:21:44 | 53.15498 | 11.61590 | 68° | 49km/h | 3558m | -4.3m/s | -0.8°C | 82.7% | 660.0hPa | 2.7V | 00:00:00 | 03:24:35 | 00:00:00 | |
| DL1XH1-15 | 2026-08-30 13:21:42 | 53.15467 | 11.61452 | 70° | 49km/h | 3587m | -4.1m/s | -1°C | 83.4% | 657.8hPa | 2.7V | 02:25:50 | 03:24:28 | 00:00:00 | |
| DF8AY | 2026-08-30 13:21:41 | 53.15484 | 11.61531 | 70° | 49km/h | 3570m | -4m/s | -0.9°C | 86.5% | 659.1hPa | 2.7V | 02:26:18 | 03:24:32 | 00:00:00 | |
| DB0DAN | 2026-08-30 13:21:40 | 53.15480 | 11.61511 | 69° | 47km/h | 3574m | -4.1m/s | -0.9°C | 82.2% | 658.71hPa | 2.7V | 00:00:00 | 00:00:00 | 00:00:00 | |
| AA1-15 | 2026-08-30 13:21:38 | 53.15471 | 11.61472 | 72° | 49km/h | 3583m | -4m/s | -1°C | 87.7% | 658.2hPa | 2.7V | 02:26:18 | 03:24:29 | 00:00:00 | |
| DO2SHX-10 | 2026-08-30 13:21:38 | 53.15471 | 11.61471 | 72° | 49km/h | 3583m | -4.0m/s | -1.0°C | 84.1% | 658.1hPa | 2.7V | 02:25:00 | 03:24:29 | 00:00:00 | |
| DL1XH-15 | 2026-08-30 13:21:36 | 53.15443 | 11.61331 | 74° | 51km/h | 3611m | -4.2m/s | -1.1°C | 79.4% | 655.8hPa | 2.7V | 02:25:56 | 03:24:22 | 00:00:00 | |
| DF8AY | 2026-08-30 13:21:35 | 53.15439 | 11.61311 | 74° | 49km/h | 3615m | -4.2m/s | -1.2°C | 82.8% | 655.4hPa | 2.7V | 02:26:18 | 03:24:21 | 00:00:00 | |
| DL1XH-west | 2026-08-30 13:21:34 | 53.15454 | 11.61391 | 72° | 49km/h | 3599m | -4.2m/s | -1.1°C | 85.5% | 656.8hPa | 2.7V | 02:26:18 | 03:24:25 | 00:00:00 | |
| DL1XH1-15 | 2026-08-30 13:21:32 | 53.15429 | 11.61250 | 75° | 49km/h | 3627m | -3.9m/s | -1.2°C | 74.5% | 654.4hPa | 2.7V | 02:26:00 | 03:24:18 | 00:00:00 | |
| BIOWL1-15 | 2026-08-30 13:21:31 | 53.15443 | 11.61331 | 74° | 51km/h | 3611m | -4.2m/s | -1.2°C | 83% | 655.8hPa | 2.7V | 02:26:18 | 03:24:22 | 00:00:00 | |
| DL1XH-15 | 2026-08-30 13:21:31 | 53.15426 | 11.61230 | 75° | 49km/h | 3631m | -3.7m/s | -1.2°C | 74.2% | 654.1hPa | 2.7V | 02:26:01 | 03:24:17 | 00:00:00 | |
| AA1-15 | 2026-08-30 13:21:27 | 53.15429 | 11.61250 | 76° | 49km/h | 3627m | -3.9m/s | -1.2°C | 78% | 654.4hPa | 2.7V | 02:26:18 | 03:24:18 | 00:00:00 | |
| DB0DAN | 2026-08-30 13:21:25 | 53.15423 | 11.61210 | 75° | 47km/h | 3635m | -3.8m/s | -1.2°C | 72.3% | 653.86hPa | 2.7V | 00:00:00 | 00:00:00 | 00:00:00 | |
| DL1XH-west | 2026-08-30 13:21:24 | 53.15419 | 11.61189 | 76° | 51km/h | 3639m | -4.2m/s | -1.2°C | 77% | 653.5hPa | 2.6V | 02:26:18 | 03:24:15 | 00:00:00 | |
| DO2SHX-10 | 2026-08-30 13:21:23 | 53.15416 | 11.61168 | 77° | 51km/h | 3643m | -4.0m/s | -1.1°C | 71.3% | 653.1hPa | 2.7V | 00:00:00 | 03:24:14 | 00:00:00 | |
| DL1XH1-15 | 2026-08-30 13:21:22 | 53.15399 | 11.61044 | 77° | 51km/h | 3667m | -4.2m/s | -1.3°C | 72.8% | 651.1hPa | 2.7V | 02:26:10 | 03:24:08 | 00:00:00 | |
| DL1XH-15 | 2026-08-30 13:21:21 | 53.15396 | 11.61023 | 77° | 51km/h | 3671m | -4m/s | -1.4°C | 72.8% | 650.8hPa | 2.7V | 02:26:11 | 03:24:07 | 00:00:00 | |
| BIOWL1-15 | 2026-08-30 13:21:20 | 53.15402 | 11.61065 | 77° | 49km/h | 3663m | -3.9m/s | -1.2°C | 76.2% | 651.5hPa | 2.7V | 02:26:18 | 03:24:09 | 00:00:00 | |
| DF8AY | 2026-08-30 13:21:20 | 53.15407 | 11.61106 | 78° | 51km/h | 3655m | -3.9m/s | -1.2°C | 75.1% | 652.2hPa | 2.7V | 02:26:18 | 03:24:11 | 00:00:00 | |
| BIOWL9-15 | 2026-08-30 13:21:20 | 53.15404 | 11.61086 | 77° | 49km/h | 3659m | -4.3m/s | -1.2°C | 70.5% | 651.8hPa | 2.6V | 00:00:00 | 00:00:00 | 00:00:00 | |
| SMARD9-15 | 2026-08-30 13:21:19 | 53.15402 | 11.61065 | 77° | 49km/h | 3663m | -3.9m/s | -1.2°C | 70.7% | 651.5hPa | 2.6V | 00:00:00 | 00:00:00 | 00:00:00 | |
| DL1XH1-15 | 2026-08-30 13:21:17 | 53.15385 | 11.60939 | 78° | 51km/h | 3687m | -3.9m/s | -1.5°C | 74% | 649.6hPa | 2.6V | 02:26:15 | 03:24:03 | 00:00:00 | |
| AA1-15 | 2026-08-30 13:21:16 | 53.15396 | 11.61023 | 78° | 51km/h | 3671m | -4m/s | -1.4°C | 77.1% | 650.8hPa | 2.7V | 02:26:18 | 03:24:07 | 00:00:00 | |
| DL1XH-15 | 2026-08-30 13:21:16 | 53.15383 | 11.60918 | 78° | 51km/h | 3691m | -4.2m/s | -1.6°C | 74.2% | 649.1hPa | 2.6V | 02:26:16 | 03:24:02 | 00:00:00 | |
| DL1XH-west | 2026-08-30 13:21:14 | 53.15391 | 11.60981 | 77° | 51km/h | 3679m | -4m/s | -1.4°C | 77.7% | 650.3hPa | 2.7V | 02:26:18 | 03:24:05 | 00:00:00 | |
| DO2SHX-10 | 2026-08-30 13:21:14 | 53.15391 | 11.60981 | 77° | 51km/h | 3679m | -3.9m/s | -1.3°C | 73.5% | 650.2hPa | 2.7V | 00:00:00 | 03:24:05 | 00:00:00 | |
| DL1XH1-15 | 2026-08-30 13:21:12 | 53.15373 | 11.60834 | 78° | 51km/h | 3707m | -4m/s | -1.7°C | 74.9% | 647.8hPa | 2.7V | 02:26:20 | 03:23:58 | 00:00:00 | |
| DF8AY-15 | 2026-08-30 13:21:12 | 53.15385 | 11.60939 | 79° | 51km/h | 3687m | -3.9m/s | -1.5°C | 74.0% | 649.5hPa | 2.7V | 00:00:00 | 03:24:03 | 00:00:00 | |
| DL1XH-15 | 2026-08-30 13:21:11 | 53.15371 | 11.60813 | 78° | 51km/h | 3711m | -4.2m/s | -1.8°C | 74.9% | 647.5hPa | 2.7V | 02:26:21 | 03:23:57 | 00:00:00 | |
| DB0DAN | 2026-08-30 13:21:10 | 53.15380 | 11.60897 | 78° | 49km/h | 3695m | -4m/s | -1.6°C | 73% | 648.88hPa | 2.7V | 00:00:00 | 00:00:00 | 00:00:00 | |
| DF8AY | 2026-08-30 13:21:09 | 53.15378 | 11.60876 | 79° | 51km/h | 3699m | -4.2m/s | -1.6°C | 79.6% | 648.5hPa | 2.7V | 02:26:18 | 03:24:00 | 00:00:00 | |
| BIOWL1-15 | 2026-08-30 13:21:08 | 53.15370 | 11.60813 | 79° | 51km/h | 3711m | -4.2m/s | -1.8°C | 78.8% | 647.5hPa | 2.7V | 02:28:51 | 03:23:57 | 00:00:00 | |
| DL1XH1-15 | 2026-08-30 13:21:07 | 53.15362 | 11.60729 | 80° | 51km/h | 3727m | -4m/s | -1.8°C | 75.2% | 646.2hPa | 2.7V | 02:26:25 | 03:23:53 | 00:00:00 | |
| DL1XH-15 | 2026-08-30 13:21:06 | 53.15360 | 11.60708 | 81° | 51km/h | 3731m | -3.9m/s | -1.8°C | 75.3% | 646hPa | 2.7V | 02:26:26 | 03:23:52 | 00:00:00 | |
| AA1-15 | 2026-08-30 13:21:05 | 53.15368 | 11.60792 | 80° | 51km/h | 3715m | -4.2m/s | -1.7°C | 78.7% | 647.3hPa | 2.7V | 02:27:09 | 03:23:56 | 00:00:00 | |
| DL1XH-west | 2026-08-30 13:21:03 | 53.15364 | 11.60750 | 80° | 49km/h | 3723m | -4.2m/s | -1.8°C | 79% | 646.6hPa | 2.7V | 02:27:09 | 03:23:54 | 00:00:00 | |
| DM0DOS-11 | 2026-08-30 13:21:02 | 53.15351 | 11.60623 | 80° | 53km/h | 3747m | -4m/s | -2.1°C | 76.3% | 644.6hPa | 2.7V | 02:26:30 | 03:23:48 | 00:00:00 | |
| DO2SHX-10 | 2026-08-30 13:21:02 | 53.15362 | 11.60729 | 81° | 51km/h | 3727m | -4.0m/s | -1.8°C | 75.2% | 646.2hPa | 2.7V | 02:26:00 | 03:23:53 | 00:00:00 | |
| DL1XH-15 | 2026-08-30 13:21:01 | 53.15349 | 11.60601 | 80° | 51km/h | 3751m | -4.2m/s | -2.1°C | 76.5% | 644.3hPa | 2.7V | 02:26:31 | 03:23:47 | 00:00:00 | |
| DF8AY | 2026-08-30 13:20:59 | 53.15356 | 11.60666 | 80° | 51km/h | 3739m | -4m/s | -1.9°C | 80.8% | 645.3hPa | 2.7V | 02:27:09 | 03:23:50 | 00:00:00 | |
| DO2SHX-10 | 2026-08-30 13:20:59 | 53.15356 | 11.60666 | 80° | 51km/h | 3739m | -4.0m/s | -1.9°C | 75.8% | 645.3hPa | 2.7V | 00:00:00 | 03:23:50 | 00:00:00 | |
| DL1XH1-15 | 2026-08-30 13:20:57 | 53.15341 | 11.60515 | 81° | 49km/h | 3767m | -3.8m/s | -2.3°C | 76.9% | 643hPa | 2.7V | 02:26:35 | 03:23:43 | 00:00:00 | |
| DL1XH-15 | 2026-08-30 13:20:56 | 53.15339 | 11.60495 | 80° | 49km/h | 3771m | -4m/s | -2.2°C | 76.7% | 642.6hPa | 2.7V | 02:26:36 | 03:23:42 | 00:00:00 | |
| DB0DAN | 2026-08-30 13:20:55 | 53.15347 | 11.60579 | 80° | 49km/h | 3755m | -4.1m/s | -2.1°C | 75% | 644.02hPa | 2.7V | 00:00:00 | 00:00:00 | 00:00:00 | |
| AA1-15 | 2026-08-30 13:20:54 | 53.15345 | 11.60558 | 81° | 53km/h | 3759m | -4.1m/s | -2.1°C | 80.6% | 643.6hPa | 2.7V | 02:27:09 | 03:23:45 | 00:00:00 | |
| DL1XH-west | 2026-08-30 13:20:52 | 53.15341 | 11.60515 | 81° | 49km/h | 3767m | -3.8m/s | -2.3°C | 79.9% | 643hPa | 2.7V | 02:27:09 | 03:23:43 | 00:00:00 | |
| DF8AY-15 | 2026-08-30 13:20:52 | 53.15341 | 11.60515 | 82° | 49km/h | 3767m | -3.7m/s | -2.2°C | 76.9% | 643.0hPa | 2.7V | 00:00:00 | 03:23:43 | 00:00:00 | |
| DL1XH-15 | 2026-08-30 13:20:51 | 53.15328 | 11.60395 | 79° | 47km/h | 3791m | -4.1m/s | -2.4°C | 77.9% | 641.1hPa | 2.7V | 02:26:41 | 03:23:37 | 00:00:00 | |
| DF8AY | 2026-08-30 13:20:48 | 53.15333 | 11.60434 | 79° | 47km/h | 3783m | -4.1m/s | -2.3°C | 79.1% | 641.7hPa | 2.6V | 02:27:09 | 03:23:39 | 00:00:00 | |
| SMARD9-15 | 2026-08-30 13:20:48 | 53.15330 | 11.60414 | 78° | 47km/h | 3787m | -4.1m/s | -2.3°C | 76.1% | 641.5hPa | 2.7V | 00:00:00 | 00:00:00 | 00:00:00 | |
| DL1XH1-15 | 2026-08-30 13:20:47 | 53.15318 | 11.60316 | 77° | 49km/h | 3807m | -3.9m/s | -2.5°C | 79.5% | 639.8hPa | 2.7V | 02:26:45 | 03:23:33 | 00:00:00 | |
| DO2SHX-10 | 2026-08-30 13:20:47 | 53.15330 | 11.60414 | 79° | 47km/h | 3787m | -4.1m/s | -2.3°C | 77.6% | 641.4hPa | 2.6V | 00:00:00 | 03:23:38 | 00:00:00 | |
| DL1XH-15 | 2026-08-30 13:20:46 | 53.15312 | 11.60276 | 75° | 49km/h | 3815m | -4m/s | -2.6°C | 80.8% | 639.1hPa | 2.6V | 02:26:47 | 03:23:31 | 00:00:00 | |
| AA1-15 | 2026-08-30 13:20:44 | 53.15323 | 11.60356 | 77° | 47km/h | 3799m | -4.1m/s | -2.5°C | 79.9% | 640.5hPa | 2.7V | 02:27:09 | 03:23:35 | 00:00:00 | |
| DL1XH-west | 2026-08-30 13:20:42 | 53.15318 | 11.60316 | 77° | 49km/h | 3807m | -3.9m/s | -2.5°C | 80.4% | 639.8hPa | 2.7V | 02:27:09 | 03:23:33 | 00:00:00 | |
| DL1XH-15 | 2026-08-30 13:20:41 | 53.15297 | 11.60171 | 76° | 53km/h | 3835m | -4.1m/s | -2.7°C | 75% | 637.4hPa | 2.7V | 02:26:52 | 03:23:26 | 00:00:00 | |
| DB0DAN | 2026-08-30 13:20:40 | 53.15312 | 11.60276 | 76° | 46km/h | 3815m | -4m/s | -2.6°C | 79.2% | 639.08hPa | 2.6V | 00:00:00 | 00:00:00 | 00:00:00 | |
| DF8AY | 2026-08-30 13:20:38 | 53.15306 | 11.60235 | 76° | 51km/h | 3823m | -4.1m/s | -2.8°C | 82.3% | 638.5hPa | 2.7V | 02:27:09 | 03:23:29 | 00:00:00 | |
| DO2SHX-10 | 2026-08-30 13:20:38 | 53.15306 | 11.60235 | 77° | 51km/h | 3823m | -4.1m/s | -2.7°C | 81.5% | 638.4hPa | 2.7V | 00:00:00 | 03:23:29 | 00:00:00 | |
| DL1XH1-15 | 2026-08-30 13:20:37 | 53.15285 | 11.60084 | 77° | 55km/h | 3851m | -4.1m/s | -2.6°C | 69.3% | 636.3hPa | 2.7V | 02:26:56 | 03:23:22 | 00:00:00 | |
| DL1XH-15 | 2026-08-30 13:20:35 | 53.15282 | 11.60062 | 78° | 53km/h | 3855m | -4m/s | -2.6°C | 68.3% | 635.8hPa | 2.7V | 02:26:57 | 03:23:21 | 00:00:00 | |
| BIOWL1-15 | 2026-08-30 13:20:34 | 53.15294 | 11.60149 | 78° | 53km/h | 3839m | -4m/s | -2.6°C | 73.9% | 637.2hPa | 2.6V | 02:28:51 | 03:23:25 | 00:00:00 | |
| AA1-15 | 2026-08-30 13:20:33 | 53.15291 | 11.60127 | 77° | 53km/h | 3843m | -4m/s | -2.6°C | 72.8% | 637hPa | 2.7V | 02:27:09 | 03:23:24 | 00:00:00 | |
| DL1XH-west | 2026-08-30 13:20:31 | 53.15285 | 11.60084 | 78° | 55km/h | 3851m | -4.1m/s | -2.6°C | 71.6% | 636.3hPa | 2.7V | 02:27:09 | 03:23:22 | 00:00:00 | |
| DL1XH-15 | 2026-08-30 13:20:30 | 53.15268 | 11.59952 | 77° | 53km/h | 3875m | -4m/s | -2.4°C | 59.3% | 634.3hPa | 2.7V | 02:27:02 | 03:23:16 | 00:00:00 | |
| DF8AY | 2026-08-30 13:20:27 | 53.15274 | 11.59996 | 78° | 53km/h | 3867m | -3.9m/s | -2.5°C | 65.9% | 634.9hPa | 2.7V | 02:27:09 | 03:23:18 | 00:00:00 | |
| DL1XH1-15 | 2026-08-30 13:20:26 | 53.15257 | 11.59862 | 77° | 55km/h | 3891m | -4.3m/s | -2.1°C | 50.8% | 633hPa | 2.7V | 02:27:06 | 03:23:12 | 00:00:00 | |
| DB0DAN | 2026-08-30 13:20:25 | 53.15268 | 11.59952 | 78° | 51km/h | 3875m | -4m/s | -2.4°C | 58.1% | 634.34hPa | 2.7V | 00:00:00 | 00:00:00 | 00:00:00 | |
| DL1XH-15 | 2026-08-30 13:20:25 | 53.15254 | 11.59840 | 77° | 55km/h | 3895m | -4.1m/s | -2°C | 48.9% | 632.8hPa | 2.7V | 02:27:07 | 03:23:11 | 00:00:00 | |
| BIOWL1-15 | 2026-08-30 13:20:23 | 53.15262 | 11.59907 | 78° | 55km/h | 3883m | -4.1m/s | -2.3°C | 60.1% | 633.7hPa | 2.7V | 02:28:51 | 03:23:14 | 00:00:00 | |
| AA1-15 | 2026-08-30 13:20:22 | 53.15259 | 11.59885 | 79° | 55km/h | 3887m | -4m/s | -2.2°C | 58.4% | 633.5hPa | 2.6V | 02:27:09 | 03:23:13 | 00:00:00 | |
| DL1XH-west | 2026-08-30 13:20:21 | 53.15257 | 11.59862 | 78° | 55km/h | 3891m | -4.3m/s | -2.1°C | 55.7% | 633hPa | 2.7V | 02:27:09 | 03:23:12 | 00:00:00 | |
| DL1XH-15 | 2026-08-30 13:20:20 | 53.15240 | 11.59723 | 81° | 57km/h | 3915m | -4.1m/s | -2.1°C | 47.3% | 631.2hPa | 2.7V | 02:27:12 | 03:23:06 | 00:00:00 | |
| DF8AY | 2026-08-30 13:20:16 | 53.15243 | 11.59747 | 79° | 57km/h | 3911m | -3.9m/s | -2.1°C | 52.3% | 631.5hPa | 2.6V | 02:28:00 | 03:23:07 | 00:00:00 | |
| DL1XH-15 | 2026-08-30 13:20:15 | 53.15230 | 11.59605 | 82° | 57km/h | 3935m | -4m/s | -2.2°C | 46.5% | 629.6hPa | 2.6V | 02:27:17 | 03:23:01 | 00:00:00 | |
| BIOWL1-15 | 2026-08-30 13:20:13 | 53.15236 | 11.59676 | 81° | 57km/h | 3923m | -4m/s | -2.1°C | 50.5% | 630.5hPa | 2.7V | 02:28:51 | 03:23:04 | 00:00:00 | |
| DF8AY-15 | 2026-08-30 13:20:12 | 53.15234 | 11.59652 | 82° | 58km/h | 3927m | -3.9m/s | -2.1°C | 46.2% | 630.2hPa | 2.7V | 00:00:00 | 03:23:03 | 00:00:00 | |
| DL1XH1-15 | 2026-08-30 13:20:11 | 53.15222 | 11.59510 | 81° | 57km/h | 3951m | -3.8m/s | -2.4°C | 45.5% | 628.3hPa | 2.7V | 02:27:21 | 03:22:57 | 00:00:00 | |
| AA1-15 | 2026-08-30 13:20:11 | 53.15232 | 11.59628 | 82° | 58km/h | 3931m | -4m/s | -2.2°C | 50.3% | 629.9hPa | 2.7V | 02:28:00 | 03:23:02 | 00:00:00 | |
| DB0DAN | 2026-08-30 13:20:10 | 53.15230 | 11.59605 | 82° | 53km/h | 3935m | -4.1m/s | -2.2°C | 45.6% | 629.62hPa | 2.6V | 00:00:00 | 00:00:00 | 00:00:00 | |
| DL1XH-west | 2026-08-30 13:20:10 | 53.15230 | 11.59605 | 83° | 57km/h | 3935m | -4.1m/s | -2.2°C | 50.1% | 629.6hPa | 2.6V | 02:28:00 | 03:23:01 | 00:00:00 | |
| DF8AY | 2026-08-30 13:20:06 | 53.15222 | 11.59510 | 81° | 57km/h | 3951m | -3.8m/s | -2.4°C | 47.6% | 628.4hPa | 2.7V | 02:28:00 | 03:22:57 | 00:00:00 | |
| DL1XH-15 | 2026-08-30 13:20:05 | 53.15208 | 11.59368 | 79° | 58km/h | 3975m | -4m/s | -2.4°C | 41.1% | 626.4hPa | 2.7V | 02:27:27 | 03:22:51 | 00:00:00 | |
| BIOWL1-15 | 2026-08-30 13:20:03 | 53.15215 | 11.59439 | 81° | 57km/h | 3962m | -4.1m/s | -2.4°C | 46.1% | 627.4hPa | 2.7V | 02:28:51 | 03:22:54 | 00:00:00 | |
| DO2SHX-10 | 2026-08-30 13:20:02 | 53.15213 | 11.59416 | 81° | 58km/h | 3966m | -4.0m/s | -2.4°C | 43.5% | 627.0hPa | 2.7V | 00:00:00 | 03:22:53 | 00:00:00 | |
| DL1XH1-15 | 2026-08-30 13:20:01 | 53.15197 | 11.59270 | 79° | 58km/h | 3990m | -4m/s | -2.1°C | 14.7% | 625.3hPa | 2.7V | 02:27:31 | 03:22:47 | 00:00:00 | |
| DL1XH-15 | 2026-08-30 13:20:00 | 53.15194 | 11.59246 | 79° | 58km/h | 3994m | -4.2m/s | -2°C | 13.5% | 624.9hPa | 2.6V | 02:27:32 | 03:22:46 | 00:00:00 | |
| DL1XH-west | 2026-08-30 13:20:00 | 53.15208 | 11.59368 | 80° | 58km/h | 3975m | -4m/s | -2.4°C | 43.9% | 626.4hPa | 2.7V | 02:28:00 | 03:22:51 | 00:00:00 | |
| DJ2DS-15 | 2026-08-30 13:19:58 | 53.15169 | 11.59048 | 78° | 58km/h | 4026m | -3.8m/s | -1.8°C | 14.8% | 622.4hPa | 2.7V | 00:00:00 | 00:00:00 | 00:00:00 | |
| DL1XH1-15 | 2026-08-30 13:19:56 | 53.15182 | 11.59147 | 77° | 60km/h | 4010m | -4.1m/s | -1.8°C | 11.5% | 623.7hPa | 2.7V | 02:27:36 | 03:22:42 | 00:00:00 | |
| DB0DAN | 2026-08-30 13:19:55 | 53.15194 | 11.59246 | 79° | 57km/h | 3994m | -4.2m/s | -2°C | 13.2% | 624.89hPa | 2.6V | 00:00:00 | 00:00:00 | 00:00:00 | |
| DF8AY | 2026-08-30 13:19:55 | 53.15194 | 11.59246 | 79° | 58km/h | 3994m | -4.2m/s | -2°C | 15% | 624.9hPa | 2.6V | 02:28:00 | 03:22:46 | 00:00:00 | |
| EDDB2-12 | 2026-08-30 13:19:53 | 53.15185 | 11.59172 | 78° | 58km/h | 4006m | -4.1m/s | -1.9°C | 12.0% | 624.0hPa | 2.7V | 00:00:00 | 00:00:00 | 00:00:00 | |
| DF8AY-15 | 2026-08-30 13:19:52 | 53.15185 | 11.59172 | 79° | 60km/h | 4007m | -4.0m/s | -1.8°C | 12.3% | 624.0hPa | 2.7V | 00:00:00 | 03:22:43 | 00:00:00 | |
| DL1XH1-15 | 2026-08-30 13:19:51 | 53.15166 | 11.59023 | 77° | 60km/h | 4030m | -3.8m/s | -1.7°C | 15.4% | 622hPa | 2.7V | 02:27:41 | 03:22:37 | 00:00:00 | |
| DL1XH-15 | 2026-08-30 13:19:50 | 53.15163 | 11.58998 | 78° | 62km/h | 4034m | -3.8m/s | -1.7°C | 15.1% | 621.7hPa | 2.7V | 02:27:42 | 03:22:36 | 00:00:00 | |
| AA1-15 | 2026-08-30 13:19:49 | 53.15176 | 11.59098 | 78° | 60km/h | 4018m | -4m/s | -1.8°C | 16.6% | 623hPa | 2.7V | 02:28:00 | 03:22:40 | 00:00:00 | |
| DO2SHX-10 | 2026-08-30 13:19:47 | 53.15169 | 11.59048 | 79° | 60km/h | 4026m | -3.8m/s | -1.7°C | 15.2% | 622.3hPa | 2.7V | 00:00:00 | 03:22:38 | 00:00:00 | |
| DL1XH1-15 | 2026-08-30 13:19:46 | 53.15152 | 11.58898 | 78° | 62km/h | 4050m | -3.8m/s | -1.6°C | 14.7% | 620.6hPa | 2.7V | 02:27:46 | 03:22:32 | 00:00:00 | |
| DF8AY | 2026-08-30 13:19:45 | 53.15163 | 11.58998 | 78° | 62km/h | 4034m | -3.8m/s | -1.7°C | 16.8% | 621.7hPa | 2.7V | 02:28:00 | 03:22:36 | 00:00:00 | |
| DO2SHX-10 | 2026-08-30 13:19:44 | 53.15160 | 11.58973 | 80° | 60km/h | 4038m | -4.0m/s | -1.6°C | 14.6% | 621.3hPa | 2.7V | 00:00:00 | 03:22:35 | 00:00:00 | |
| AM1SDL-15 | 2026-08-30 13:19:42 | 53.15154 | 11.58923 | 79° | 60km/h | 4046m | -4.0m/s | -1.6°C | 14.6% | 620.7hPa | 2.7V | 02:27:00 | 03:22:33 | 00:00:00 | |
| DL1XH1-15 | 2026-08-30 13:19:41 | 53.15137 | 11.58771 | 79° | 62km/h | 4069m | -3.9m/s | -1.8°C | 14% | 619hPa | 2.7V | 02:27:51 | 03:22:27 | 00:00:00 | |
| DB0DAN | 2026-08-30 13:19:40 | 53.15149 | 11.58873 | 80° | 58km/h | 4054m | -3.9m/s | -1.7°C | 14.3% | 620.19hPa | 2.7V | 00:00:00 | 00:00:00 | 00:00:00 | |
| DL1XH-15 | 2026-08-30 13:19:40 | 53.15134 | 11.58746 | 78° | 60km/h | 4073m | -4m/s | -1.9°C | 14.4% | 618.6hPa | 2.7V | 02:27:52 | 03:22:26 | 00:00:00 | |
| AA1-15 | 2026-08-30 13:19:38 | 53.15143 | 11.58822 | 79° | 62km/h | 4061m | -4m/s | -1.7°C | 16.1% | 619.6hPa | 2.7V | 02:28:00 | 03:22:29 | 00:00:00 | |
| DO2SHX-10 | 2026-08-30 13:19:38 | 53.15142 | 11.58822 | 80° | 62km/h | 4061m | -3.9m/s | -1.6°C | 14.3% | 619.5hPa | 2.7V | 00:00:00 | 03:22:29 | 00:00:00 | |
| DL1XH1-15 | 2026-08-30 13:19:36 | 53.15122 | 11.58645 | 77° | 60km/h | 4089m | -4m/s | -1.8°C | 13.9% | 617.5hPa | 2.7V | 02:27:56 | 03:22:22 | 00:00:00 | |
| DL1XH-15 | 2026-08-30 13:19:35 | 53.15119 | 11.58620 | 77° | 62km/h | 4093m | -4m/s | -1.8°C | 13.8% | 617.2hPa | 2.7V | 02:27:57 | 03:22:21 | 00:00:00 | |
| DF8AY | 2026-08-30 13:19:34 | 53.15131 | 11.58720 | 79° | 62km/h | 4077m | -4.2m/s | -1.9°C | 16.1% | 618.3hPa | 2.7V | 02:28:00 | 03:22:25 | 00:00:00 | |
| DO2SHX-10 | 2026-08-30 13:19:32 | 53.15125 | 11.58670 | 79° | 60km/h | 4085m | -3.9m/s | -1.7°C | 14.1% | 617.7hPa | 2.7V | 02:27:00 | 03:22:23 | 00:00:00 | |
| DL1XH1-15 | 2026-08-30 13:19:31 | 53.15106 | 11.58519 | 77° | 62km/h | 4109m | -4.1m/s | -2°C | 13.3% | 615.9hPa | 2.7V | 02:28:01 | 03:22:17 | 00:00:00 | |
| DL1XH-15 | 2026-08-30 13:19:30 | 53.15102 | 11.58494 | 78° | 62km/h | 4113m | -4m/s | -2°C | 13.1% | 615.6hPa | 2.7V | 02:28:02 | 03:22:16 | 00:00:00 | |
| AA1-15 | 2026-08-30 13:19:27 | 53.15109 | 11.58545 | 77° | 62km/h | 4105m | -4.2m/s | -1.9°C | 15.3% | 616.3hPa | 2.6V | 02:28:00 | 03:22:18 | 00:00:00 | |
| DB0DAN | 2026-08-30 13:19:25 | 53.15102 | 11.58494 | 78° | 58km/h | 4113m | -4m/s | -2°C | 12.8% | 615.63hPa | 2.7V | 00:00:00 | 00:00:00 | 00:00:00 | |
| DL1XH-15 | 2026-08-30 13:19:25 | 53.15087 | 11.58366 | 78° | 62km/h | 4132m | -3.9m/s | -2°C | 12.4% | 614hPa | 2.7V | 02:28:07 | 03:22:11 | 00:00:00 | |
| DF8AY | 2026-08-30 13:19:24 | 53.15099 | 11.58468 | 78° | 62km/h | 4117m | -4m/s | -2°C | 14.4% | 615.4hPa | 2.7V | 02:28:51 | 03:22:15 | 00:00:00 | |
| DO2SHX-10 | 2026-08-30 13:19:23 | 53.15096 | 11.58443 | 79° | 62km/h | 4121m | -3.9m/s | -1.9°C | 12.6% | 614.9hPa | 2.7V | 02:28:00 | 03:22:14 | 00:00:00 | |
| EDDB2-12 | 2026-08-30 13:19:22 | 53.15090 | 11.58391 | 79° | 60km/h | 4129m | -4.1m/s | -2.0°C | 12.1% | 614.5hPa | 2.7V | 00:00:00 | 00:00:00 | 00:00:00 | |
| DL1XH1-15 | 2026-08-30 13:19:21 | 53.15075 | 11.58263 | 78° | 62km/h | 4148m | -3.9m/s | -2.1°C | 11.9% | 612.9hPa | 2.7V | 02:28:11 | 03:22:07 | 00:00:00 | |
| AA1-15 | 2026-08-30 13:19:16 | 53.15075 | 11.58263 | 79° | 62km/h | 4148m | -3.9m/s | -2.1°C | 12.9% | 612.9hPa | 2.7V | 02:28:51 | 03:22:07 | 00:00:00 | |
| DL1XH-15 | 2026-08-30 13:19:15 | 53.15057 | 11.58107 | 79° | 62km/h | 4172m | -3.8m/s | -2.2°C | 12.2% | 611.1hPa | 2.7V | 02:28:17 | 03:22:01 | 00:00:00 | |
| DF8AY | 2026-08-30 13:19:13 | 53.15066 | 11.58184 | 79° | 62km/h | 4161m | -4m/s | -2.1°C | 13.1% | 612hPa | 2.7V | 02:28:51 | 03:22:04 | 00:00:00 | |
| DF8AY-15 | 2026-08-30 13:19:12 | 53.15063 | 11.58158 | 79° | 62km/h | 4164m | -4.0m/s | -2.1°C | 12.1% | 611.6hPa | 2.7V | 00:00:00 | 03:22:03 | 00:00:00 | |
| DL1XH1-15 | 2026-08-30 13:19:11 | 53.15044 | 11.58005 | 78° | 60km/h | 4188m | -4m/s | -2.4°C | 12.3% | 609.9hPa | 2.7V | 02:28:21 | 03:21:57 | 00:00:00 | |
| DB0DAN | 2026-08-30 13:19:10 | 53.15057 | 11.58107 | 79° | 60km/h | 4172m | -3.8m/s | -2.2°C | 11.9% | 611.08hPa | 2.7V | 00:00:00 | 00:00:00 | 00:00:00 | |
| DL1XH-15 | 2026-08-30 13:19:10 | 53.15041 | 11.57980 | 77° | 60km/h | 4192m | -4m/s | -2.4°C | 12.3% | 609.5hPa | 2.7V | 02:28:22 | 03:21:56 | 00:00:00 | |
| DL1XH-west | 2026-08-30 13:19:06 | 53.15044 | 11.58005 | 79° | 60km/h | 4188m | -4m/s | -2.4°C | 13.6% | 609.9hPa | 2.7V | 02:28:51 | 03:21:57 | 00:00:00 | |
| DL1XH1-15 | 2026-08-30 13:19:06 | 53.15029 | 11.57880 | 78° | 60km/h | 4208m | -4.1m/s | -2.5°C | 12.3% | 608.3hPa | 2.7V | 02:28:26 | 03:21:52 | 00:00:00 | |
| AA1-15 | 2026-08-30 13:19:05 | 53.15041 | 11.57980 | 78° | 60km/h | 4192m | -4m/s | -2.4°C | 13.6% | 609.5hPa | 2.7V | 02:28:51 | 03:21:56 | 00:00:00 | |
| DF8AY | 2026-08-30 13:19:04 | 53.15034 | 11.57930 | 79° | 60km/h | 4200m | -4.1m/s | -2.5°C | 13.6% | 608.9hPa | 2.7V | 02:28:51 | 03:21:54 | 00:00:00 | |
| DO2SHX-10 | 2026-08-30 13:19:02 | 53.15032 | 11.57905 | 80° | 60km/h | 4204m | -4.1m/s | -2.5°C | 12.4% | 608.6hPa | 2.7V | 00:00:00 | 03:21:53 | 00:00:00 | |
| SONDE2-11 | 2026-08-30 13:19:01 | 53.15026 | 11.57855 | 79° | 60km/h | 4212m | -3.9m/s | -2.5°C | 12.0% | 608.0hPa | 2.7V | 00:00:00 | 00:00:00 | 00:00:00 | |
| DL1XH1-15 | 2026-08-30 13:19:01 | 53.15015 | 11.57753 | 80° | 62km/h | 4227m | -4m/s | -2.6°C | 12% | 606.8hPa | 2.7V | 02:28:31 | 03:21:47 | 00:00:00 | |
| DL1XH-15 | 2026-08-30 13:19:00 | 53.15012 | 11.57728 | 80° | 62km/h | 4231m | -4.2m/s | -2.7°C | 11.9% | 606.4hPa | 2.7V | 02:28:32 | 03:21:46 | 00:00:00 | |
| BIOWL1-15 | 2026-08-30 13:18:59 | 53.15023 | 11.57830 | 80° | 62km/h | 4216m | -3.9m/s | -2.5°C | 13.3% | 607.8hPa | 2.7V | 02:28:51 | 03:21:50 | 00:00:00 | |
| DO2SHX-10 | 2026-08-30 13:18:59 | 53.15023 | 11.57830 | 81° | 62km/h | 4216m | -3.9m/s | -2.4°C | 12.2% | 607.7hPa | 2.7V | 00:00:00 | 03:21:50 | 00:00:00 | |
| DL1XH1-15 | 2026-08-30 13:18:56 | 53.15001 | 11.57627 | 80° | 60km/h | 4247m | -3.9m/s | -2.8°C | 11.6% | 605.3hPa | 2.7V | 02:28:36 | 03:21:42 | 00:00:00 | |
| DB0DAN | 2026-08-30 13:18:55 | 53.15012 | 11.57728 | 81° | 58km/h | 4231m | -4.2m/s | -2.7°C | 11.6% | 606.41hPa | 2.7V | 00:00:00 | 00:00:00 | 00:00:00 | |
| AA1-15 | 2026-08-30 13:18:55 | 53.15012 | 11.57728 | 81° | 62km/h | 4231m | -4.2m/s | -2.7°C | 13.4% | 606.4hPa | 2.7V | 02:28:51 | 03:21:46 | 00:00:00 | |
| DF8AY | 2026-08-30 13:18:52 | 53.15004 | 11.57652 | 80° | 62km/h | 4243m | -3.9m/s | -2.8°C | 13.1% | 605.6hPa | 2.7V | 02:28:51 | 03:21:43 | 00:00:00 | |
| DF8AY-15 | 2026-08-30 13:18:52 | 53.15004 | 11.57652 | 80° | 60km/h | 4243m | -3.9m/s | -2.7°C | 11.7% | 605.5hPa | 2.7V | 00:00:00 | 03:21:43 | 00:00:00 | |
| DL1XH1-15 | 2026-08-30 13:18:51 | 53.14988 | 11.57503 | 79° | 58km/h | 4267m | -4m/s | -2.7°C | 11.7% | 603.8hPa | 2.7V | 02:28:41 | 03:21:37 | 00:00:00 | |
| BIOWL1-15 | 2026-08-30 13:18:50 | 53.14988 | 11.57503 | 80° | 58km/h | 4267m | -4m/s | -2.7°C | 12.7% | 603.8hPa | 2.7V | 02:28:51 | 03:21:37 | 00:00:00 | |
| DL1XH-15 | 2026-08-30 13:18:50 | 53.14985 | 11.57479 | 79° | 60km/h | 4271m | -4.1m/s | -2.8°C | 11.8% | 603.5hPa | 2.7V | 02:28:42 | 03:21:36 | 00:00:00 | |
| DO2SHX-10 | 2026-08-30 13:18:47 | 53.14990 | 11.57527 | 81° | 58km/h | 4263m | -4.1m/s | -2.7°C | 11.6% | 604.0hPa | 2.6V | 02:28:00 | 03:21:38 | 00:00:00 | |
| DL1XH1-15 | 2026-08-30 13:18:46 | 53.14975 | 11.57379 | 80° | 60km/h | 4287m | -4.2m/s | -2.9°C | 12% | 602.2hPa | 2.6V | 02:28:46 | 03:21:32 | 00:00:00 | |
| DL1XH-15 | 2026-08-30 13:18:45 | 53.14973 | 11.57353 | 80° | 62km/h | 4291m | -4.1m/s | -3°C | 12.1% | 601.9hPa | 2.7V | 02:28:47 | 03:21:31 | 00:00:00 | |
| DL1XH-west | 2026-08-30 13:18:44 | 53.14983 | 11.57454 | 80° | 60km/h | 4275m | -4m/s | -2.8°C | 13.1% | 603.2hPa | 2.7V | 02:28:51 | 03:21:35 | 00:00:00 | |
| DF8AY | 2026-08-30 13:18:43 | 53.14978 | 11.57404 | 81° | 60km/h | 4283m | -4m/s | -2.9°C | 13.3% | 602.6hPa | 2.7V | 02:28:51 | 03:21:33 | 00:00:00 | |
| AM1SDL-15 | 2026-08-30 13:18:42 | 53.14978 | 11.57404 | 81° | 60km/h | 4283m | -4.0m/s | -2.9°C | 12.0% | 602.5hPa | 2.6V | 00:00:00 | 03:21:33 | 00:00:00 | |
| DL1XH1-15 | 2026-08-30 13:18:41 | 53.14963 | 11.57252 | 81° | 60km/h | 4307m | -4.2m/s | -3°C | 11.9% | 600.7hPa | 2.6V | 02:28:51 | 03:21:27 | 00:00:00 | |
| DB0DAN | 2026-08-30 13:18:40 | 53.14973 | 11.57353 | 81° | 58km/h | 4291m | -4.1m/s | -3°C | 11.8% | 601.86hPa | 2.7V | 00:00:00 | 00:00:00 | 00:00:00 | |
| DL1XH-15 | 2026-08-30 13:18:40 | 53.14960 | 11.57227 | 81° | 60km/h | 4311m | -4.2m/s | -3°C | 11.8% | 600.4hPa | 2.7V | 02:28:52 | 03:21:26 | 00:00:00 | |
| BIOWL1-15 | 2026-08-30 13:18:38 | 53.14968 | 11.57303 | 81° | 60km/h | 4300m | -3.9m/s | -3.1°C | 13.5% | 601.3hPa | 2.7V | 02:28:51 | 03:21:29 | 00:00:00 | |
| DO2SHX-10 | 2026-08-30 13:18:38 | 53.14968 | 11.57303 | 82° | 60km/h | 4300m | -3.9m/s | -3.1°C | 12.1% | 601.2hPa | 2.7V | 02:28:00 | 03:21:29 | 00:00:00 | |
| DL1XH1-15 | 2026-08-30 13:18:36 | 53.14951 | 11.57127 | 80° | 58km/h | 4328m | -4m/s | -3.1°C | 11.5% | 599.1hPa | 2.7V | 02:28:56 | 03:21:22 | 00:00:00 | |
| DL1XH-15 | 2026-08-30 13:18:35 | 53.14948 | 11.57102 | 80° | 58km/h | 4332m | -3.9m/s | -3.1°C | 11.4% | 598.8hPa | 2.7V | 02:28:57 | 03:21:21 | 00:00:00 | |
| AA1-15 | 2026-08-30 13:18:34 | 53.14958 | 11.57202 | 81° | 60km/h | 4316m | -4.1m/s | -3.1°C | 13% | 600hPa | 2.7V | 02:29:42 | 03:21:25 | 00:00:00 | |
| DL1XH-west | 2026-08-30 13:18:33 | 53.14956 | 11.57177 | 80° | 60km/h | 4320m | -4.1m/s | -3.1°C | 12.8% | 599.8hPa | 2.7V | 02:29:42 | 03:21:24 | 00:00:00 | |
| DF8AY | 2026-08-30 13:18:31 | 53.14951 | 11.57127 | 81° | 58km/h | 4328m | -4m/s | -3.1°C | 12.5% | 599.1hPa | 2.7V | 02:29:42 | 03:21:22 | 00:00:00 | |
| DL1XH-15 | 2026-08-30 13:18:30 | 53.14935 | 11.56979 | 79° | 60km/h | 4352m | -4.2m/s | -3.4°C | 11.1% | 597.4hPa | 2.7V | 02:29:02 | 03:21:16 | 00:00:00 | |
| BIOWL1-15 | 2026-08-30 13:18:29 | 53.14941 | 11.57028 | 80° | 58km/h | 4344m | -4.2m/s | -3.2°C | 12.4% | 598hPa | 2.6V | 02:29:42 | 03:21:18 | 00:00:00 | |
| DO2SHX-10 | 2026-08-30 13:18:29 | 53.14946 | 11.57078 | 80° | 60km/h | 4336m | -3.8m/s | -3.1°C | 11.2% | 598.5hPa | 2.7V | 02:28:00 | 03:21:20 | 00:00:00 | |
| DL1XH1-15 | 2026-08-30 13:18:26 | 53.14925 | 11.56882 | 79° | 58km/h | 4368m | -4m/s | -3.3°C | 11.2% | 596hPa | 2.7V | 02:29:06 | 03:21:12 | 00:00:00 | |
| DB0DAN | 2026-08-30 13:18:25 | 53.14935 | 11.56979 | 79° | 57km/h | 4352m | -4.2m/s | -3.4°C | 10.8% | 597.39hPa | 2.7V | 00:00:00 | 00:00:00 | 00:00:00 | |
| DL1XH-15 | 2026-08-30 13:18:25 | 53.14922 | 11.56858 | 80° | 58km/h | 4372m | -4.2m/s | -3.3°C | 11.2% | 595.8hPa | 2.7V | 02:29:07 | 03:21:11 | 00:00:00 | |
| DL1XH-west | 2026-08-30 13:18:23 | 53.14930 | 11.56930 | 80° | 58km/h | 4360m | -4.3m/s | -3.2°C | 11.8% | 596.6hPa | 2.7V | 02:29:42 | 03:21:14 | 00:00:00 | |
| DF8AY | 2026-08-30 13:18:21 | 53.14925 | 11.56882 | 79° | 58km/h | 4368m | -4.1m/s | -3.3°C | 12.1% | 596hPa | 2.7V | 02:29:42 | 03:21:12 | 00:00:00 | |
| DL1XH-15 | 2026-08-30 13:18:20 | 53.14909 | 11.56737 | 80° | 57km/h | 4393m | -3.9m/s | -3.6°C | 11.4% | 594.2hPa | 2.7V | 02:29:12 | 03:21:06 | 00:00:00 | |
| EDDB2-12 | 2026-08-30 13:18:20 | 53.14919 | 11.56834 | 79° | 57km/h | 4377m | -4.0m/s | -3.4°C | 10.9% | 595.4hPa | 2.7V | 00:00:00 | 00:00:00 | 00:00:00 | |
| AM1SDL-15 | 2026-08-30 13:18:18 | 53.14917 | 11.56810 | 80° | 58km/h | 4381m | -4.0m/s | -3.4°C | 11.3% | 595.1hPa | 2.7V | 00:00:00 | 03:21:09 | 00:00:00 | |
| DO2SHX-10 | 2026-08-30 13:18:17 | 53.14914 | 11.56786 | 80° | 58km/h | 4385m | -4.2m/s | -3.5°C | 11.4% | 594.8hPa | 2.7V | 00:00:00 | 03:21:08 | 00:00:00 | |
| DM0DOS-11 | 2026-08-30 13:18:16 | 53.14899 | 11.56640 | 79° | 58km/h | 4409m | -4.2m/s | -3.6°C | 11.3% | 593hPa | 2.7V | 02:29:16 | 03:21:02 | 00:00:00 | |
| DL1XH-15 | 2026-08-30 13:18:15 | 53.14896 | 11.56615 | 79° | 60km/h | 4413m | -4.2m/s | -3.7°C | 11.4% | 592.8hPa | 2.7V | 02:29:17 | 03:21:01 | 00:00:00 | |
| AA1-15 | 2026-08-30 13:18:13 | 53.14904 | 11.56688 | 81° | 58km/h | 4401m | -4m/s | -3.6°C | 12.3% | 593.7hPa | 2.7V | 02:29:42 | 03:21:04 | 00:00:00 | |
| DL1XH-west | 2026-08-30 13:18:12 | 53.14901 | 11.56664 | 81° | 58km/h | 4405m | -4.2m/s | -3.6°C | 12.2% | 593.2hPa | 2.6V | 02:29:42 | 03:21:03 | 00:00:00 | |
| DF8AY | 2026-08-30 13:18:11 | 53.14896 | 11.56615 | 79° | 60km/h | 4413m | -4.2m/s | -3.7°C | 12.6% | 592.8hPa | 2.7V | 02:29:42 | 03:21:01 | 00:00:00 | |
| DB0DAN | 2026-08-30 13:18:10 | 53.14896 | 11.56615 | 79° | 57km/h | 4413m | -4.2m/s | -3.7°C | 11.1% | 592.79hPa | 2.7V | 00:00:00 | 00:00:00 | 00:00:00 | |
| DL1XH-15 | 2026-08-30 13:18:10 | 53.14883 | 11.56492 | 80° | 60km/h | 4433m | -4m/s | -3.9°C | 11.5% | 591.2hPa | 2.7V | 02:29:22 | 03:20:56 | 00:00:00 | |
| DO2SHX-10 | 2026-08-30 13:18:08 | 53.14891 | 11.56566 | 81° | 58km/h | 4421m | -4.0m/s | -3.7°C | 11.4% | 592.0hPa | 2.7V | 00:00:00 | 03:20:59 | 00:00:00 | |
| DL1XH1-15 | 2026-08-30 13:18:06 | 53.14872 | 11.56393 | 79° | 60km/h | 4449m | -4.2m/s | -4°C | 11.5% | 589.9hPa | 2.7V | 02:29:26 | 03:20:52 | 00:00:00 | |
| DL1XH-15 | 2026-08-30 13:18:05 | 53.14869 | 11.56368 | 79° | 60km/h | 4454m | -4.3m/s | -4°C | 11.5% | 589.7hPa | 2.7V | 02:29:27 | 03:20:51 | 00:00:00 | |
| AA1-15 | 2026-08-30 13:18:02 | 53.14874 | 11.56418 | 79° | 60km/h | 4446m | -4.2m/s | -4°C | 13.2% | 590.3hPa | 2.7V | 02:29:42 | 03:20:53 | 00:00:00 | |
| DL1XH-west | 2026-08-30 13:18:01 | 53.14872 | 11.56393 | 80° | 60km/h | 4450m | -4.2m/s | -4°C | 13% | 590hPa | 2.7V | 02:29:42 | 03:20:52 | 00:00:00 | |
| DF8AY | 2026-08-30 13:18:00 | 53.14869 | 11.56368 | 80° | 60km/h | 4454m | -4.4m/s | -4°C | 12.9% | 589.7hPa | 2.7V | 02:29:42 | 03:20:51 | 00:00:00 | |
| SONDE2-11 | 2026-08-30 13:17:59 | 53.14863 | 11.56318 | 79° | 60km/h | 4462m | -4.1m/s | -4.0°C | 11.2% | 589.1hPa | 2.7V | 00:00:00 | 00:00:00 | 00:00:00 | |
| DL1XH1-15 | 2026-08-30 13:17:56 | 53.14844 | 11.56143 | 79° | 60km/h | 4491m | -4.2m/s | -4.3°C | 11.6% | 586.8hPa | 2.7V | 02:29:36 | 03:20:42 | 00:00:00 | |
| DB0DAN | 2026-08-30 13:17:55 | 53.14855 | 11.56243 | 79° | 58km/h | 4474m | -4.2m/s | -4.1°C | 11.3% | 588.07hPa | 2.6V | 00:00:00 | 00:00:00 | 00:00:00 | |
| DL1XH-15 | 2026-08-30 13:17:55 | 53.14841 | 11.56118 | 79° | 60km/h | 4495m | -4.2m/s | -4.3°C | 11.6% | 586.6hPa | 2.7V | 02:29:37 | 03:20:41 | 00:00:00 | |
| AA1-15 | 2026-08-30 13:17:52 | 53.14847 | 11.56168 | 80° | 60km/h | 4487m | -4.2m/s | -4.2°C | 12.7% | 587.3hPa | 2.7V | 02:29:42 | 03:20:43 | 00:00:00 | |
| DF8AY | 2026-08-30 13:17:50 | 53.14842 | 11.56118 | 80° | 60km/h | 4495m | -4.2m/s | -4.3°C | 12.9% | 586.6hPa | 2.7V | 02:29:42 | 03:20:41 | 00:00:00 | |
| EDDB2-12 | 2026-08-30 13:17:49 | 53.14836 | 11.56068 | 79° | 58km/h | 4504m | -4.2m/s | -4.5°C | 11.4% | 585.9hPa | 2.7V | 00:00:00 | 00:00:00 | 00:00:00 | |
| DO2SHX-10 | 2026-08-30 13:17:47 | 53.14833 | 11.56043 | 80° | 60km/h | 4508m | -4.2m/s | -4.4°C | 11.7% | 585.7hPa | 2.7V | 00:00:00 | 03:20:38 | 00:00:00 | |
| DL1XH1-15 | 2026-08-30 13:17:46 | 53.14817 | 11.55894 | 79° | 60km/h | 4532m | -4m/s | -4.7°C | 12.3% | 583.9hPa | 2.7V | 02:29:46 | 03:20:32 | 00:00:00 | |
| DL1XH-15 | 2026-08-30 13:17:45 | 53.14814 | 11.55870 | 78° | 60km/h | 4537m | -4.1m/s | -4.8°C | 12.4% | 583.5hPa | 2.7V | 02:29:47 | 03:20:31 | 00:00:00 | |
| BIOWL1-15 | 2026-08-30 13:17:41 | 53.14811 | 11.55845 | 79° | 60km/h | 4541m | -4.1m/s | -4.9°C | 14.2% | 583.3hPa | 2.7V | 02:30:33 | 03:20:30 | 00:00:00 | |
| DM0DOS-11 | 2026-08-30 13:17:41 | 53.14802 | 11.55770 | 78° | 60km/h | 4553m | -4.1m/s | -4.9°C | 12.5% | 582.3hPa | 2.6V | 02:29:51 | 03:20:27 | 00:00:00 | |
| AA1-15 | 2026-08-30 13:17:41 | 53.14817 | 11.55894 | 80° | 60km/h | 4533m | -4m/s | -4.7°C | 14.1% | 583.9hPa | 2.7V | 02:30:33 | 03:20:32 | 00:00:00 | |
| DB0DAN | 2026-08-30 13:17:40 | 53.14814 | 11.55870 | 78° | 57km/h | 4537m | -4.1m/s | -4.8°C | 12% | 583.51hPa | 2.7V | 00:00:00 | 00:00:00 | 00:00:00 | |
| DF8AY | 2026-08-30 13:17:40 | 53.14814 | 11.55870 | 78° | 60km/h | 4537m | -4.1m/s | -4.8°C | 14.2% | 583.5hPa | 2.7V | 02:30:33 | 03:20:31 | 00:00:00 | |
| DO2SHX-10 | 2026-08-30 13:17:38 | 53.14808 | 11.55819 | 80° | 60km/h | 4545m | -4.0m/s | -4.8°C | 12.4% | 582.8hPa | 2.7V | 00:00:00 | 03:20:29 | 00:00:00 | |
| DL1XH1-15 | 2026-08-30 13:17:36 | 53.14788 | 11.55646 | 78° | 60km/h | 4574m | -4.2m/s | -5°C | 12.6% | 580.8hPa | 2.7V | 02:29:56 | 03:20:22 | 00:00:00 | |
| DL1XH-15 | 2026-08-30 13:17:35 | 53.14785 | 11.55621 | 79° | 60km/h | 4577m | -4m/s | -5.1°C | 12.6% | 580.4hPa | 2.7V | 02:29:57 | 03:20:21 | 00:00:00 | |
| BIOWL1-15 | 2026-08-30 13:17:32 | 53.14779 | 11.55572 | 78° | 60km/h | 4586m | -4.2m/s | -5.2°C | 14.5% | 579.8hPa | 2.6V | 02:30:33 | 03:20:19 | 00:00:00 | |
| DO2SHX-10 | 2026-08-30 13:17:32 | 53.14791 | 11.55671 | 80° | 60km/h | 4570m | -4.1m/s | -5.0°C | 12.6% | 581.1hPa | 2.7V | 00:00:00 | 03:20:23 | 00:00:00 | |
| DL1XH1-15 | 2026-08-30 13:17:31 | 53.14774 | 11.55522 | 78° | 60km/h | 4594m | -4.3m/s | -5.3°C | 12.7% | 579.3hPa | 2.7V | 02:30:01 | 03:20:17 | 00:00:00 | |
| AA1-15 | 2026-08-30 13:17:30 | 53.14786 | 11.55621 | 80° | 60km/h | 4577m | -4m/s | -5.1°C | 14.6% | 580.4hPa | 2.7V | 02:30:33 | 03:20:21 | 00:00:00 | |
| DL1XH-west | 2026-08-30 13:17:29 | 53.14783 | 11.55596 | 78° | 60km/h | 4582m | -3.9m/s | -5.2°C | 14.5% | 580.2hPa | 2.7V | 02:30:33 | 03:20:20 | 00:00:00 | |
| DO2SHX-10 | 2026-08-30 13:17:29 | 53.14782 | 11.55596 | 79° | 60km/h | 4582m | -3.9m/s | -5.1°C | 12.5% | 580.2hPa | 2.7V | 00:00:00 | 03:20:20 | 00:00:00 | |
| SMARD9-10 | 2026-08-30 13:17:27 | 53.14779 | 11.55572 | 78° | 60km/h | 4586m | -4.2m/s | -5.2°C | 12.1% | 579.8hPa | 2.7V | 02:30:00 | 00:00:00 | 00:00:00 | |
| DL1XH1-15 | 2026-08-30 13:17:26 | 53.14758 | 11.55399 | 78° | 58km/h | 4615m | -4.1m/s | -5.4°C | 12.9% | 577.7hPa | 2.7V | 02:30:06 | 03:20:12 | 00:00:00 | |
| DB0DAN | 2026-08-30 13:17:25 | 53.14770 | 11.55497 | 78° | 57km/h | 4598m | -4.2m/s | -5.3°C | 12.3% | 578.87hPa | 2.7V | 00:00:00 | 00:00:00 | 00:00:00 | |
| DL1XH-15 | 2026-08-30 13:17:25 | 53.14755 | 11.55375 | 77° | 58km/h | 4619m | -4.2m/s | -5.5°C | 12.9% | 577.5hPa | 2.7V | 02:30:07 | 03:20:11 | 00:00:00 | |
| DO2SHX-10 | 2026-08-30 13:17:23 | 53.14764 | 11.55448 | 79° | 58km/h | 4606m | -4.0m/s | -5.3°C | 12.9% | 578.3hPa | 2.7V | 00:00:00 | 03:20:14 | 00:00:00 | |
| DL1XH1-15 | 2026-08-30 13:17:21 | 53.14743 | 11.55279 | 77° | 58km/h | 4636m | -4.3m/s | -5.7°C | 13.2% | 576.2hPa | 2.7V | 02:30:11 | 03:20:07 | 00:00:00 | |
| DL1XH-15 | 2026-08-30 13:17:20 | 53.14740 | 11.55255 | 78° | 58km/h | 4640m | -4.3m/s | -5.8°C | 13.3% | 575.9hPa | 2.7V | 02:30:12 | 03:20:06 | 00:00:00 | |
| DF8AY | 2026-08-30 13:17:19 | 53.14752 | 11.55351 | 79° | 58km/h | 4623m | -4.3m/s | -5.6°C | 14.9% | 577.1hPa | 2.6V | 02:30:33 | 03:20:10 | 00:00:00 | |
| BIOWL1-15 | 2026-08-30 13:17:18 | 53.14749 | 11.55327 | 79° | 58km/h | 4627m | -4.3m/s | -5.6°C | 14.9% | 576.8hPa | 2.6V | 02:30:33 | 03:20:09 | 00:00:00 | |
| DO2SHX-10 | 2026-08-30 13:17:17 | 53.14746 | 11.55303 | 78° | 58km/h | 4632m | -4.4m/s | -5.6°C | 13.2% | 576.4hPa | 2.7V | 02:30:00 | 03:20:08 | 00:00:00 | |
| DL1XH1-15 | 2026-08-30 13:17:16 | 53.14729 | 11.55159 | 79° | 58km/h | 4657m | -4.3m/s | -5.8°C | 13.5% | 574.7hPa | 2.7V | 02:30:16 | 03:20:02 | 00:00:00 | |
| DO2SHX-10 | 2026-08-30 13:17:14 | 53.14738 | 11.55231 | 80° | 58km/h | 4644m | -4.2m/s | -5.8°C | 13.3% | 575.5hPa | 2.7V | 00:00:00 | 03:20:05 | 00:00:00 | |
| TFSTFS | 2026-08-30 13:17:13 | 53.14738 | 11.55231 | 80° | 58km/h | 4644m | -4.3m/s | -5.8°C | 12.9% | 575.6hPa | 2.7V | 00:00:00 | 00:00:00 | 00:00:00 | |
| DF8AY-15 | 2026-08-30 13:17:12 | 53.14732 | 11.55183 | 79° | 58km/h | 4653m | -3.9m/s | -5.7°C | 13.4% | 574.9hPa | 2.7V | 00:00:00 | 03:20:03 | 00:00:00 | |
| DL1XH1-15 | 2026-08-30 13:17:11 | 53.14713 | 11.55038 | 77° | 58km/h | 4678m | -4.2m/s | -6.1°C | 13.6% | 573.1hPa | 2.7V | 02:30:21 | 03:19:57 | 00:00:00 | |
| DB0DAN | 2026-08-30 13:17:10 | 53.14726 | 11.55135 | 78° | 55km/h | 4661m | -4.2m/s | -5.9°C | 13% | 574.41hPa | 2.6V | 00:00:00 | 00:00:00 | 00:00:00 | |
| DL1XH-15 | 2026-08-30 13:17:10 | 53.14710 | 11.55014 | 77° | 58km/h | 4682m | -4.1m/s | -6.2°C | 13.7% | 572.8hPa | 2.7V | 02:30:22 | 03:19:56 | 00:00:00 | |
| AA1-15 | 2026-08-30 13:17:09 | 53.14723 | 11.55111 | 77° | 58km/h | 4665m | -4.3m/s | -6°C | 15.7% | 574.1hPa | 2.6V | 02:30:33 | 03:20:00 | 00:00:00 | |
| DF8AY | 2026-08-30 13:17:08 | 53.14719 | 11.55087 | 78° | 60km/h | 4669m | -4.2m/s | -6.1°C | 15.8% | 573.7hPa | 2.7V | 02:30:33 | 03:19:59 | 00:00:00 | |
| DL1XH-west | 2026-08-30 13:17:07 | 53.14716 | 11.55062 | 79° | 58km/h | 4673m | -4.3m/s | -6.1°C | 15.9% | 573.5hPa | 2.7V | 02:30:33 | 03:19:58 | 00:00:00 | |
| DL1XH1-15 | 2026-08-30 13:17:06 | 53.14697 | 11.54918 | 76° | 60km/h | 4698m | -4.2m/s | -6.3°C | 13.6% | 571.6hPa | 2.7V | 02:30:26 | 03:19:52 | 00:00:00 | |
| DM0DOS-11 | 2026-08-30 13:17:05 | 53.14693 | 11.54893 | 77° | 60km/h | 4703m | -3.9m/s | -6.3°C | 13.7% | 571.2hPa | 2.7V | 02:30:27 | 03:19:51 | 00:00:00 | |
| DO2SHX-10 | 2026-08-30 13:17:05 | 53.14710 | 11.55014 | 78° | 58km/h | 4682m | -4.1m/s | -6.1°C | 13.7% | 572.8hPa | 2.6V | 00:00:00 | 03:19:56 | 00:00:00 | |
| AM1SDL-15 | 2026-08-30 13:17:04 | 53.14707 | 11.54990 | 78° | 60km/h | 4687m | -4.4m/s | -6.2°C | 13.7% | 572.4hPa | 2.6V | 00:00:00 | 03:19:55 | 00:00:00 | |
| DO2SHX-10 | 2026-08-30 13:17:02 | 53.14701 | 11.54942 | 77° | 58km/h | 4695m | -4.1m/s | -6.2°C | 13.7% | 571.9hPa | 2.6V | 00:00:00 | 03:19:53 | 00:00:00 | |
| DL1XH1-15 | 2026-08-30 13:17:01 | 53.14680 | 11.54796 | 78° | 60km/h | 4719m | -4.2m/s | -6.4°C | 13.8% | 570.1hPa | 2.6V | 02:30:31 | 03:19:47 | 00:00:00 | |
| DL1XH-15 | 2026-08-30 13:17:00 | 53.14677 | 11.54772 | 77° | 60km/h | 4723m | -4.2m/s | -6.5°C | 13.9% | 569.8hPa | 2.7V | 02:30:32 | 03:19:46 | 00:00:00 | |
| AA1-15 | 2026-08-30 13:16:58 | 53.14687 | 11.54845 | 77° | 58km/h | 4711m | -4.2m/s | -6.3°C | 15.8% | 570.6hPa | 2.7V | 02:30:33 | 03:19:49 | 00:00:00 | |
| DF8AY | 2026-08-30 13:16:57 | 53.14684 | 11.54821 | 77° | 60km/h | 4715m | -4.3m/s | -6.4°C | 16% | 570.3hPa | 2.6V | 02:30:33 | 03:19:48 | 00:00:00 | |
| BIOWL1-15 | 2026-08-30 13:16:56 | 53.14674 | 11.54747 | 78° | 60km/h | 4728m | -4.3m/s | -6.6°C | 16% | 569.5hPa | 2.7V | 02:30:33 | 03:19:45 | 00:00:00 | |
| DL1XH-west | 2026-08-30 13:16:56 | 53.14681 | 11.54796 | 79° | 60km/h | 4720m | -4.3m/s | -6.4°C | 16% | 570.1hPa | 2.6V | 02:30:33 | 03:19:47 | 00:00:00 | |
| DB0DAN | 2026-08-30 13:16:55 | 53.14678 | 11.54772 | 78° | 57km/h | 4723m | -4.2m/s | -6.5°C | 13.4% | 569.8hPa | 2.7V | 00:00:00 | 00:00:00 | 00:00:00 | |
| DL1XH-15 | 2026-08-30 13:16:55 | 53.14662 | 11.54647 | 77° | 60km/h | 4745m | -4.2m/s | -6.6°C | 14.1% | 568.2hPa | 2.7V | 02:30:37 | 03:19:41 | 00:00:00 | |
| DO2SHX-10 | 2026-08-30 13:16:53 | 53.14671 | 11.54722 | 79° | 60km/h | 4732m | -4.3m/s | -6.5°C | 13.8% | 569.1hPa | 2.7V | 00:00:00 | 03:19:44 | 00:00:00 | |
| DF8AY-15 | 2026-08-30 13:16:52 | 53.14668 | 11.54697 | 79° | 60km/h | 4736m | -4.2m/s | -6.5°C | 13.9% | 568.9hPa | 2.7V | 00:00:00 | 03:19:43 | 00:00:00 | |
| DL1XH1-15 | 2026-08-30 13:16:51 | 53.14649 | 11.54548 | 77° | 60km/h | 4762m | -4.2m/s | -6.8°C | 14.5% | 567hPa | 2.7V | 02:30:41 | 03:19:37 | 00:00:00 | |
| DL1XH-15 | 2026-08-30 13:16:50 | 53.14646 | 11.54523 | 78° | 60km/h | 4766m | -4.2m/s | -6.8°C | 14.5% | 566.7hPa | 2.7V | 02:30:42 | 03:19:36 | 00:00:00 | |
| DF8AY | 2026-08-30 13:16:47 | 53.14652 | 11.54573 | 78° | 60km/h | 4757m | -4.3m/s | -6.8°C | 16.3% | 567.3hPa | 2.6V | 02:31:24 | 03:19:38 | 00:00:00 | |
| BIOWL1-15 | 2026-08-30 13:16:46 | 53.14649 | 11.54548 | 78° | 60km/h | 4762m | -4.3m/s | -6.8°C | 16.4% | 567hPa | 2.7V | 02:31:24 | 03:19:37 | 00:00:00 | |
| DL1XH-15 | 2026-08-30 13:16:45 | 53.14631 | 11.54398 | 78° | 60km/h | 4787m | -4.2m/s | -7°C | 14.3% | 565.2hPa | 2.6V | 02:30:47 | 03:19:31 | 00:00:00 | |
| DO2SHX-10 | 2026-08-30 13:16:44 | 53.14643 | 11.54498 | 79° | 60km/h | 4770m | -4.1m/s | -6.8°C | 14.5% | 566.4hPa | 2.7V | 00:00:00 | 03:19:35 | 00:00:00 | |
| S3001 | 2026-08-30 13:16:43 | 53.14640 | 11.54473 | 78° | 60km/h | 4774m | -4.1m/s | -7.0°C | 13.8% | 566.1hPa | 2.7V | 00:00:00 | 00:00:00 | 00:00:00 | |
| DL1XH1-15 | 2026-08-30 13:16:41 | 53.14619 | 11.54297 | 79° | 60km/h | 4803m | -4.3m/s | -7.2°C | 13.9% | 563.9hPa | 2.7V | 02:30:51 | 03:19:27 | 00:00:00 | |
| DB0DAN | 2026-08-30 13:16:40 | 53.14631 | 11.54398 | 79° | 57km/h | 4787m | -4.2m/s | -7°C | 13.8% | 565.19hPa | 2.6V | 00:00:00 | 00:00:00 | 00:00:00 | |
| DL1XH-15 | 2026-08-30 13:16:40 | 53.14616 | 11.54272 | 78° | 60km/h | 4808m | -4.3m/s | -7.2°C | 13.8% | 563.7hPa | 2.7V | 02:30:52 | 03:19:26 | 00:00:00 | |
| AA1-15 | 2026-08-30 13:16:37 | 53.14622 | 11.54322 | 80° | 60km/h | 4799m | -4.2m/s | -7.2°C | 16.1% | 564.3hPa | 2.7V | 02:31:24 | 03:19:28 | 00:00:00 | |
| DF8AY | 2026-08-30 13:16:36 | 53.14619 | 11.54297 | 79° | 60km/h | 4803m | -4.3m/s | -7.2°C | 16% | 563.9hPa | 2.7V | 02:31:24 | 03:19:27 | 00:00:00 | |
| BIOWL1-15 | 2026-08-30 13:16:35 | 53.14616 | 11.54272 | 79° | 60km/h | 4808m | -4.3m/s | -7.2°C | 15.9% | 563.7hPa | 2.7V | 02:31:24 | 03:19:26 | 00:00:00 | |
| DO2SHX-10 | 2026-08-30 13:16:35 | 53.14616 | 11.54272 | 79° | 60km/h | 4808m | -4.2m/s | -7.1°C | 13.8% | 563.7hPa | 2.7V | 00:00:00 | 03:19:26 | 00:00:00 | |
| DF8AY-15 | 2026-08-30 13:16:32 | 53.14608 | 11.54198 | 80° | 60km/h | 4820m | -3.9m/s | -7.3°C | 13.7% | 562.7hPa | 2.7V | 02:30:00 | 03:19:23 | 00:00:00 | |
| DL1XH1-15 | 2026-08-30 13:16:31 | 53.14590 | 11.54047 | 79° | 60km/h | 4845m | -4.2m/s | -7.6°C | 13.8% | 560.9hPa | 2.7V | 02:31:01 | 03:19:17 | 00:00:00 | |
| DO2SHX-10 | 2026-08-30 13:16:29 | 53.14599 | 11.54122 | 79° | 60km/h | 4832m | -4.2m/s | -7.4°C | 13.9% | 561.8hPa | 2.7V | 00:00:00 | 03:19:20 | 00:00:00 | |
| DM0DOS-11 | 2026-08-30 13:16:28 | 53.14587 | 11.54022 | 79° | 60km/h | 4849m | -4.3m/s | -7.7°C | 13.8% | 560.5hPa | 2.7V | 02:31:02 | 03:19:16 | 00:00:00 | |
| AA1-15 | 2026-08-30 13:16:27 | 53.14593 | 11.54072 | 78° | 62km/h | 4841m | -4.4m/s | -7.5°C | 15.8% | 561.3hPa | 2.7V | 02:31:24 | 03:19:18 | 00:00:00 | |
| DK1YY | 2026-08-30 13:16:27 | 53.14593 | 11.54072 | 77° | 60km/h | 4841m | -4.4m/s | -7.5°C | 13.3% | 561.3hPa | 2.7V | 00:00:00 | 00:00:00 | 00:00:00 | |
| DL1XH1-15 | 2026-08-30 13:16:26 | 53.14577 | 11.53923 | 80° | 58km/h | 4866m | -4.3m/s | -7.7°C | 13% | 559.4hPa | 2.7V | 02:31:06 | 03:19:12 | 00:00:00 | |
| DB0DAN | 2026-08-30 13:16:25 | 53.14587 | 11.54022 | 80° | 57km/h | 4849m | -4.3m/s | -7.7°C | 13.3% | 560.55hPa | 2.7V | 00:00:00 | 00:00:00 | 00:00:00 | |
| BIOWL1-15 | 2026-08-30 13:16:25 | 53.14587 | 11.54022 | 80° | 60km/h | 4849m | -4.3m/s | -7.7°C | 15.6% | 560.5hPa | 2.7V | 02:31:24 | 03:19:16 | 00:00:00 | |
| DO2SHX-10 | 2026-08-30 13:16:23 | 53.14582 | 11.53973 | 80° | 60km/h | 4858m | -4.2m/s | -7.6°C | 13.6% | 559.8hPa | 2.6V | 02:31:00 | 03:19:14 | 00:00:00 | |
| DJ2DS-15 | 2026-08-30 13:16:22 | 53.14579 | 11.53948 | 81° | 58km/h | 4862m | -4.1m/s | -7.6°C | 12.7% | 559.6hPa | 2.7V | 00:00:00 | 00:00:00 | 00:00:00 | |
| DO2SHX-10 | 2026-08-30 13:16:20 | 53.14574 | 11.53898 | 80° | 60km/h | 4870m | -4.3m/s | -7.7°C | 12.8% | 559.0hPa | 2.7V | 00:00:00 | 03:19:11 | 00:00:00 | |
| DM0DOS-11 | 2026-08-30 13:16:17 | 53.14563 | 11.53776 | 80° | 58km/h | 4891m | -4.4m/s | -7.9°C | 10.9% | 557.6hPa | 2.7V | 02:31:12 | 03:19:06 | 00:00:00 | |
| AA1-15 | 2026-08-30 13:16:16 | 53.14565 | 11.53800 | 80° | 58km/h | 4887m | -4.4m/s | -7.9°C | 12.4% | 557.8hPa | 2.7V | 02:31:24 | 03:19:07 | 00:00:00 | |
| DF8AY | 2026-08-30 13:16:15 | 53.14562 | 11.53776 | 81° | 58km/h | 4892m | -4.4m/s | -7.9°C | 12.2% | 557.6hPa | 2.7V | 02:31:24 | 03:19:06 | 00:00:00 | |
| DL1XH-west | 2026-08-30 13:16:15 | 53.14560 | 11.53751 | 81° | 58km/h | 4896m | -4.4m/s | -7.9°C | 11.9% | 557.3hPa | 2.7V | 02:31:24 | 03:19:05 | 00:00:00 | |
| DO2SHX-10 | 2026-08-30 13:16:14 | 53.14560 | 11.53751 | 81° | 58km/h | 4896m | -4.4m/s | -7.9°C | 10.7% | 557.3hPa | 2.7V | 02:31:00 | 03:19:05 | 00:00:00 | |
| DF8AY-15 | 2026-08-30 13:16:12 | 53.14555 | 11.53703 | 80° | 57km/h | 4904m | -4.3m/s | -7.9°C | 9.6% | 556.5hPa | 2.6V | 00:00:00 | 03:19:03 | 00:00:00 | |
| DB0DAN | 2026-08-30 13:16:10 | 53.14550 | 11.53655 | 81° | 55km/h | 4913m | -4.4m/s | -7.9°C | 8.7% | 555.97hPa | 2.6V | 00:00:00 | 00:00:00 | 00:00:00 | |
| BIOWL9-15 | 2026-08-30 13:16:09 | 53.14547 | 11.53631 | 79° | 57km/h | 4917m | -4.5m/s | -7.9°C | 8.6% | 555.6hPa | 2.7V | 00:00:00 | 00:00:00 | 00:00:00 | |
| DO2SHX-10 | 2026-08-30 13:16:08 | 53.14545 | 11.53606 | 80° | 58km/h | 4922m | -4.1m/s | -7.8°C | 8.8% | 555.3hPa | 2.7V | 00:00:00 | 03:18:59 | 00:00:00 | |
| DM0DOS-11 | 2026-08-30 13:16:07 | 53.14537 | 11.53535 | 80° | 57km/h | 4934m | -4.4m/s | -8.1°C | 9% | 554.4hPa | 2.7V | 02:31:22 | 03:18:56 | 00:00:00 | |
| BIOWL1-15 | 2026-08-30 13:16:06 | 53.14527 | 11.53418 | 82° | 57km/h | 4956m | -4.4m/s | -8.3°C | 9.8% | 553hPa | 2.7V | 02:32:15 | 03:18:51 | 00:00:00 | |
| AA1-15 | 2026-08-30 13:16:06 | 53.14540 | 11.53559 | 81° | 57km/h | 4930m | -4.4m/s | -8°C | 9.3% | 554.8hPa | 2.7V | 02:31:24 | 03:18:57 | 00:00:00 | |
| DF8AY | 2026-08-30 13:16:04 | 53.14535 | 11.53512 | 82° | 57km/h | 4939m | -4.3m/s | -8.1°C | 9.4% | 554.2hPa | 2.7V | 02:31:24 | 03:18:55 | 00:00:00 | |
| TFSTFS | 2026-08-30 13:16:04 | 53.14535 | 11.53512 | 82° | 57km/h | 4939m | -4.3m/s | -8.0°C | 8.6% | 554.2hPa | 2.7V | 02:31:00 | 00:00:00 | 00:00:00 | |
| DM0DOS-11 | 2026-08-30 13:16:02 | 53.14527 | 11.53418 | 81° | 57km/h | 4956m | -4.4m/s | -8.3°C | 9.2% | 553hPa | 2.7V | 02:31:27 | 03:18:51 | 00:00:00 | |
| AA1-15 | 2026-08-30 13:15:55 | 53.14517 | 11.53302 | 82° | 57km/h | 4978m | -4.4m/s | -8.4°C | 10.3% | 551.4hPa | 2.7V | 02:32:15 | 03:18:46 | 00:00:00 | |
| DB0DAN | 2026-08-30 13:15:55 | 53.14517 | 11.53302 | 82° | 53km/h | 4978m | -4.4m/s | -8.4°C | 9.1% | 551.41hPa | 2.7V | 00:00:00 | 00:00:00 | 00:00:00 | |
| DF8AY | 2026-08-30 13:15:54 | 53.14514 | 11.53278 | 81° | 57km/h | 4982m | -4.4m/s | -8.5°C | 10.3% | 551.1hPa | 2.6V | 02:32:15 | 03:18:45 | 00:00:00 | |
| BIOWL1-15 | 2026-08-30 13:15:54 | 53.14510 | 11.53230 | 81° | 58km/h | 4991m | -4.4m/s | -8.5°C | 10% | 550.5hPa | 2.7V | 02:32:15 | 03:18:43 | 00:00:00 | |
| DF8AY-15 | 2026-08-30 13:15:52 | 53.14510 | 11.53230 | 82° | 58km/h | 4991m | -4.4m/s | -8.4°C | 9.2% | 550.5hPa | 2.7V | 00:00:00 | 03:18:43 | 00:00:00 | |
| AM1SDL-15 | 2026-08-30 13:15:51 | 53.14508 | 11.53206 | 82° | 57km/h | 4995m | -4.2m/s | -8.5°C | 9.0% | 550.2hPa | 2.7V | 00:00:00 | 03:18:42 | 00:00:00 | |
| DO2SHX-10 | 2026-08-30 13:15:50 | 53.14505 | 11.53182 | 81° | 58km/h | 5000m | -4.3m/s | -8.4°C | 8.9% | 549.8hPa | 2.7V | 00:00:00 | 03:18:41 | 00:00:00 | |
| DL1XH1-15 | 2026-08-30 13:15:48 | 53.14490 | 11.53014 | 81° | 57km/h | 5030m | -4.4m/s | -8.6°C | 8.2% | 547.8hPa | 2.7V | 02:31:44 | 03:18:34 | 00:00:00 | |
| DJ2DS-15 | 2026-08-30 13:15:46 | 53.14496 | 11.53086 | 80° | 57km/h | 5017m | -4.4m/s | -8.6°C | 8.1% | 548.7hPa | 2.7V | 00:00:00 | 00:00:00 | 00:00:00 | |
| DM0DOS-11 | 2026-08-30 13:15:45 | 53.14484 | 11.52943 | 82° | 57km/h | 5042m | -4.3m/s | -8.7°C | 7.5% | 546.8hPa | 2.7V | 02:31:47 | 03:18:31 | 00:00:00 | |
| AA1-15 | 2026-08-30 13:15:45 | 53.14494 | 11.53062 | 81° | 58km/h | 5021m | -4.5m/s | -8.6°C | 8.7% | 548.2hPa | 2.6V | 02:32:15 | 03:18:36 | 00:00:00 | |
| DL1XH-west | 2026-08-30 13:15:43 | 53.14490 | 11.53014 | 81° | 57km/h | 5030m | -4.4m/s | -8.6°C | 8.3% | 547.8hPa | 2.7V | 02:32:15 | 03:18:34 | 00:00:00 | |
| BIOWL1-15 | 2026-08-30 13:15:41 | 53.14482 | 11.52920 | 82° | 57km/h | 5047m | -4.2m/s | -8.7°C | 7.4% | 546.5hPa | 2.7V | 02:32:15 | 03:18:30 | 00:00:00 | |
| DB0DAN | 2026-08-30 13:15:40 | 53.14484 | 11.52943 | 82° | 53km/h | 5043m | -4.3m/s | -8.7°C | 7.2% | 546.77hPa | 2.7V | 00:00:00 | 00:00:00 | 00:00:00 | |
| AM1SDL-15 | 2026-08-30 13:15:39 | 53.14482 | 11.52919 | 82° | 58km/h | 5047m | -4.2m/s | -8.6°C | 7.5% | 546.5hPa | 2.7V | 00:00:00 | 03:18:30 | 00:00:00 | |
| DL1XH1-15 | 2026-08-30 13:15:38 | 53.14470 | 11.52774 | 82° | 58km/h | 5073m | -4.4m/s | -8.9°C | 7.4% | 544.7hPa | 2.7V | 02:31:54 | 03:18:24 | 00:00:00 | |
| AA1-15 | 2026-08-30 13:15:34 | 53.14472 | 11.52798 | 82° | 60km/h | 5069m | -4.4m/s | -8.9°C | 7.3% | 545hPa | 2.7V | 02:32:15 | 03:18:25 | 00:00:00 | |
| DL1XH-west | 2026-08-30 13:15:33 | 53.14470 | 11.52774 | 83° | 58km/h | 5073m | -4.4m/s | -8.9°C | 7.1% | 544.7hPa | 2.7V | 02:32:15 | 03:18:24 | 00:00:00 | |
| DM0DOS-11 | 2026-08-30 13:15:32 | 53.14463 | 11.52700 | 81° | 60km/h | 5086m | -4.4m/s | -9°C | 7.6% | 543.8hPa | 2.6V | 02:31:57 | 03:18:21 | 00:00:00 | |
| BIOWL1-15 | 2026-08-30 13:15:30 | 53.14464 | 11.52700 | 82° | 60km/h | 5086m | -4.4m/s | -9°C | 7.4% | 543.8hPa | 2.6V | 02:32:15 | 03:18:21 | 00:00:00 | |
| DL1XH1-15 | 2026-08-30 13:15:28 | 53.14450 | 11.52534 | 81° | 57km/h | 5117m | -4.5m/s | -9.3°C | 7.6% | 541.6hPa | 2.7V | 02:32:04 | 03:18:14 | 00:00:00 | |
| DO2SHX-10 | 2026-08-30 13:15:28 | 53.14460 | 11.52652 | 83° | 57km/h | 5095m | -4.5m/s | -9.0°C | 7.7% | 543.2hPa | 2.7V | 02:31:00 | 03:18:19 | 00:00:00 | |
| DB0DAN | 2026-08-30 13:15:25 | 53.14453 | 11.52580 | 82° | 53km/h | 5108m | -4.4m/s | -9.3°C | 7.3% | 542.21hPa | 2.7V | 00:00:00 | 00:00:00 | 00:00:00 | |
| AA1-15 | 2026-08-30 13:15:23 | 53.14450 | 11.52534 | 82° | 57km/h | 5117m | -4.5m/s | -9.3°C | 7.6% | 541.6hPa | 2.7V | 02:32:15 | 03:18:14 | 00:00:00 | |
| DM0DOS-11 | 2026-08-30 13:15:22 | 53.14444 | 11.52463 | 83° | 57km/h | 5130m | -4.5m/s | -9.4°C | 7.6% | 540.7hPa | 2.7V | 02:32:07 | 03:18:11 | 00:00:00 | |
| DF8AY | 2026-08-30 13:15:22 | 53.14448 | 11.52510 | 83° | 57km/h | 5121m | -4.4m/s | -9.4°C | 7.6% | 541.3hPa | 2.6V | 02:32:15 | 03:18:13 | 00:00:00 | |
| BIOWL1-15 | 2026-08-30 13:15:20 | 53.14445 | 11.52463 | 83° | 57km/h | 5130m | -4.5m/s | -9.4°C | 7.5% | 540.7hPa | 2.7V | 02:32:15 | 03:18:11 | 00:00:00 | |
| DO2SHX-10 | 2026-08-30 13:15:19 | 53.14443 | 11.52439 | 84° | 58km/h | 5134m | -4.3m/s | -9.4°C | 7.6% | 540.4hPa | 2.7V | 02:32:00 | 03:18:10 | 00:00:00 | |
| DL1XH1-15 | 2026-08-30 13:15:19 | 53.14433 | 11.52291 | 82° | 58km/h | 5160m | -4.6m/s | -9.5°C | 7.3% | 538.6hPa | 2.6V | 02:32:14 | 03:18:04 | 00:00:00 | |
| SONCRA | 2026-08-30 13:15:18 | 53.14434 | 11.52316 | 83° | 58km/h | 5155m | -4.4m/s | -9.6°C | 7.0% | 539.0hPa | 2.7V | 00:00:00 | 00:00:00 | 00:00:00 | |
| DM0DOS-11 | 2026-08-30 13:15:16 | 53.14427 | 11.52217 | 84° | 58km/h | 5173m | -4.3m/s | -9.5°C | 6.4% | 537.7hPa | 2.7V | 02:32:17 | 03:18:01 | 00:00:00 | |
| DF8AY | 2026-08-30 13:15:12 | 53.14431 | 11.52267 | 82° | 60km/h | 5165m | -4.4m/s | -9.5°C | 6.7% | 538.3hPa | 2.7V | 02:32:15 | 03:18:03 | 00:00:00 | |
| BIOWL1-15 | 2026-08-30 13:15:11 | 53.14426 | 11.52193 | 84° | 58km/h | 5178m | -4.4m/s | -9.5°C | 5.4% | 537.3hPa | 2.7V | 02:33:06 | 03:18:00 | 00:00:00 | |
| DB0DAN | 2026-08-30 13:15:10 | 53.14427 | 11.52217 | 84° | 57km/h | 5173m | -4.3m/s | -9.5°C | 6.1% | 537.66hPa | 2.7V | 00:00:00 | 00:00:00 | 00:00:00 | |
| DO2SHX-10 | 2026-08-30 13:15:10 | 53.14427 | 11.52217 | 85° | 58km/h | 5173m | -4.3m/s | -9.4°C | 6.4% | 537.6hPa | 2.7V | 02:32:00 | 03:18:01 | 00:00:00 | |
| DL1XH1-15 | 2026-08-30 13:15:08 | 53.14417 | 11.52044 | 85° | 60km/h | 5204m | -4.4m/s | -9.3°C | 4.9% | 535.5hPa | 2.7V | 02:32:24 | 03:17:54 | 00:00:00 | |
| DO2SHX-10 | 2026-08-30 13:15:07 | 53.14422 | 11.52143 | 85° | 58km/h | 5186m | -4.5m/s | -9.4°C | 6.3% | 536.8hPa | 2.7V | 00:00:00 | 03:17:58 | 00:00:00 | |
| SMARD9-15 | 2026-08-30 13:15:06 | 53.14421 | 11.52119 | 84° | 58km/h | 5191m | -4.5m/s | -9.5°C | 6.0% | 536.4hPa | 2.7V | 00:00:00 | 00:00:00 | 00:00:00 | |
| DL1XH-15 | 2026-08-30 13:15:05 | 53.14412 | 11.51971 | 83° | 58km/h | 5218m | -4.4m/s | -9.2°C | 4.3% | 534.5hPa | 2.7V | 02:32:27 | 03:17:51 | 00:00:00 | |
| DF8AY | 2026-08-30 13:15:01 | 53.14414 | 11.51996 | 83° | 58km/h | 5213m | -4.3m/s | -9.2°C | 2.9% | 534.8hPa | 2.7V | 02:33:06 | 03:17:52 | 00:00:00 | |
| BIOWL1-15 | 2026-08-30 13:14:59 | 53.14410 | 11.51947 | 84° | 58km/h | 5222m | -4.6m/s | -9.3°C | 2.7% | 534.3hPa | 2.6V | 02:33:06 | 03:17:50 | 00:00:00 | |
| DO2SHX-10 | 2026-08-30 13:14:58 | 53.14409 | 11.51923 | 85° | 57km/h | 5226m | -4.6m/s | -9.2°C | 4.3% | 533.9hPa | 2.7V | 00:00:00 | 03:17:49 | 00:00:00 | |
| DF7ER-10 | 2026-08-30 13:14:57 | 53.14409 | 11.51923 | 85° | 57km/h | 5226m | -4.7m/s | -9.2°C | 4.1% | 533.9hPa | 2.7V | 02:33:00 | 00:00:00 | 00:00:00 | |
| DB0DAN | 2026-08-30 13:14:55 | 53.14404 | 11.51851 | 84° | 55km/h | 5240m | -4.5m/s | -9.3°C | 4.2% | 532.94hPa | 2.7V | 00:00:00 | 00:00:00 | 00:00:00 | |
| DL1XH-15 | 2026-08-30 13:14:55 | 53.14396 | 11.51732 | 84° | 57km/h | 5262m | -4.6m/s | -9.2°C | 3.8% | 531.4hPa | 2.6V | 02:32:37 | 03:17:41 | 00:00:00 | |
| DL1XH1-15 | 2026-08-30 13:14:55 | 53.14401 | 11.51804 | 83° | 57km/h | 5249m | -4.4m/s | -9.2°C | 4.2% | 532.4hPa | 2.7V | 02:32:34 | 03:17:44 | 00:00:00 | |
| DL1XH-west | 2026-08-30 13:14:51 | 53.14398 | 11.51756 | 84° | 58km/h | 5258m | -4.6m/s | -9.2°C | 2.1% | 531.8hPa | 2.6V | 02:33:06 | 03:17:42 | 00:00:00 | |
| DF8AY | 2026-08-30 13:14:50 | 53.14396 | 11.51732 | 84° | 57km/h | 5262m | -4.6m/s | -9.2°C | 1.9% | 531.4hPa | 2.6V | 02:33:06 | 03:17:41 | 00:00:00 | |
| BIOWL1-15 | 2026-08-30 13:14:50 | 53.14393 | 11.51684 | 84° | 58km/h | 5272m | -4.6m/s | -9.2°C | 1.9% | 530.7hPa | 2.7V | 02:33:06 | 03:17:39 | 00:00:00 | |
| DO2SHX-10 | 2026-08-30 13:14:49 | 53.14395 | 11.51708 | 83° | 57km/h | 5267m | -4.5m/s | -9.2°C | 3.8% | 531.0hPa | 2.6V | 00:00:00 | 03:17:40 | 00:00:00 | |
| DL1XH1-15 | 2026-08-30 13:14:48 | 53.14384 | 11.51564 | 82° | 58km/h | 5294m | -4.6m/s | -9.4°C | 3.6% | 529.3hPa | 2.6V | 02:32:44 | 03:17:34 | 00:00:00 | |
| DO2SHX-10 | 2026-08-30 13:14:46 | 53.14390 | 11.51636 | 83° | 57km/h | 5281m | -4.4m/s | -9.2°C | 3.7% | 530.1hPa | 2.7V | 00:00:00 | 03:17:37 | 00:00:00 | |
| DL1XH-15 | 2026-08-30 13:14:45 | 53.14378 | 11.51492 | 82° | 58km/h | 5307m | -4.3m/s | -9.5°C | 3.6% | 528.4hPa | 2.7V | 02:32:47 | 03:17:31 | 00:00:00 | |
| DL1XH-west | 2026-08-30 13:14:41 | 53.14377 | 11.51492 | 83° | 58km/h | 5307m | -4.3m/s | -9.5°C | 1.5% | 528.4hPa | 2.7V | 02:33:06 | 03:17:31 | 00:00:00 | |
| BIOWL1-15 | 2026-08-30 13:14:40 | 53.14374 | 11.51445 | 82° | 57km/h | 5316m | -4.5m/s | -9.5°C | 1.6% | 527.8hPa | 2.7V | 02:33:06 | 03:17:29 | 00:00:00 | |
| DF8AY | 2026-08-30 13:14:39 | 53.14376 | 11.51469 | 83° | 57km/h | 5312m | -4.5m/s | -9.5°C | 1.5% | 528.1hPa | 2.7V | 02:33:06 | 03:17:30 | 00:00:00 | |
| S3001 | 2026-08-30 13:14:39 | 53.14376 | 11.51469 | 83° | 57km/h | 5312m | -4.5m/s | -9.5°C | 3.4% | 528.1hPa | 2.7V | 00:00:00 | 00:00:00 | 00:00:00 | |
| DL1XH1-15 | 2026-08-30 13:14:38 | 53.14363 | 11.51325 | 81° | 58km/h | 5339m | -4.5m/s | -9.8°C | 3.7% | 526.1hPa | 2.7V | 02:32:54 | 03:17:24 | 00:00:00 | |
| DO2SHX-10 | 2026-08-30 13:14:37 | 53.14372 | 11.51421 | 83° | 58km/h | 5321m | -4.5m/s | -9.5°C | 3.7% | 527.4hPa | 2.7V | 00:00:00 | 03:17:28 | 00:00:00 | |
| DM0DOS-11 | 2026-08-30 13:14:35 | 53.14357 | 11.51251 | 80° | 58km/h | 5353m | -4.4m/s | -9.9°C | 3.7% | 525.3hPa | 2.7V | 02:32:57 | 03:17:21 | 00:00:00 | |
| DL1XH-west | 2026-08-30 13:14:30 | 53.14357 | 11.51251 | 81° | 58km/h | 5353m | -4.4m/s | -9.9°C | 1.9% | 525.3hPa | 2.7V | 02:33:06 | 03:17:21 | 00:00:00 | |
| AA1-15 | 2026-08-30 13:14:29 | 53.14355 | 11.51227 | 81° | 60km/h | 5357m | -4.6m/s | -9.9°C | 1.9% | 524.9hPa | 2.6V | 02:33:06 | 03:17:20 | 00:00:00 | |
| DL1XH1-15 | 2026-08-30 13:14:28 | 53.14343 | 11.51078 | 83° | 58km/h | 5384m | -4.6m/s | -10°C | 3.7% | 523hPa | 2.7V | 02:33:04 | 03:17:14 | 00:00:00 | |
| BIOWL1-15 | 2026-08-30 13:14:26 | 53.14349 | 11.51152 | 82° | 58km/h | 5371m | -4.5m/s | -9.9°C | 1.7% | 524hPa | 2.7V | 02:33:06 | 03:17:17 | 00:00:00 | |
| DB0DAN | 2026-08-30 13:14:25 | 53.14347 | 11.51128 | 81° | 57km/h | 5375m | -4.6m/s | -10°C | 3.4% | 523.7hPa | 2.7V | 00:00:00 | 00:00:00 | 00:00:00 | |
| DM0DOS-11 | 2026-08-30 13:14:25 | 53.14337 | 11.51004 | 83° | 60km/h | 5398m | -4.5m/s | -10.1°C | 3.8% | 522.2hPa | 2.6V | 02:33:07 | 03:17:11 | 00:00:00 | |
| DF8AY | 2026-08-30 13:14:19 | 53.14335 | 11.50980 | 83° | 58km/h | 5403m | -4.6m/s | -10.2°C | 2% | 522hPa | 2.7V | 02:33:57 | 03:17:10 | 00:00:00 | |
| DO2SHX-10 | 2026-08-30 13:14:19 | 53.14335 | 11.50980 | 84° | 60km/h | 5403m | -4.5m/s | -10.2°C | 3.8% | 521.9hPa | 2.7V | 00:00:00 | 03:17:10 | 00:00:00 | |
| DL1XH-15 | 2026-08-30 13:14:15 | 53.14318 | 11.50755 | 81° | 60km/h | 5443m | -4.6m/s | -10.4°C | 4% | 519.1hPa | 2.7V | 02:33:17 | 03:17:01 | 00:00:00 | |
| BIOWL1-15 | 2026-08-30 13:14:14 | 53.14324 | 11.50830 | 82° | 60km/h | 5429m | -4.5m/s | -10.4°C | 2.5% | 520hPa | 2.6V | 02:33:57 | 03:17:04 | 00:00:00 | |
| DO2SHX-10 | 2026-08-30 13:14:14 | 53.14323 | 11.50830 | 83° | 60km/h | 5430m | -4.4m/s | -10.3°C | 4.1% | 520.0hPa | 2.7V | 00:00:00 | 03:17:04 | 00:00:00 | |
| DB0DAN | 2026-08-30 13:14:10 | 53.14318 | 11.50755 | 82° | 58km/h | 5443m | -4.6m/s | -10.5°C | 3.8% | 519.16hPa | 2.7V | 00:00:00 | 00:00:00 | 00:00:00 | |
| DL1XH-west | 2026-08-30 13:14:08 | 53.14314 | 11.50703 | 83° | 60km/h | 5453m | -4.5m/s | -10.5°C | 2.2% | 518.5hPa | 2.7V | 02:33:57 | 03:16:59 | 00:00:00 | |
| S3001 | 2026-08-30 13:14:08 | 53.14312 | 11.50678 | 82° | 58km/h | 5457m | -4.5m/s | -10.6°C | 3.7% | 518.2hPa | 2.6V | 00:00:00 | 00:00:00 | 00:00:00 | |
| DO2SHX-10 | 2026-08-30 13:14:07 | 53.14312 | 11.50678 | 83° | 60km/h | 5457m | -4.5m/s | -10.5°C | 4.0% | 518.1hPa | 2.6V | 02:33:00 | 03:16:58 | 00:00:00 | |
| DL1XH-15 | 2026-08-30 13:14:05 | 53.14296 | 11.50501 | 81° | 60km/h | 5489m | -4.6m/s | -10.9°C | 3.6% | 516.1hPa | 2.7V | 02:33:27 | 03:16:51 | 00:00:00 | |
| BIOWL1-15 | 2026-08-30 13:14:02 | 53.14301 | 11.50552 | 81° | 60km/h | 5480m | -4.3m/s | -10.8°C | 1.9% | 516.6hPa | 2.7V | 02:33:57 | 03:16:53 | 00:00:00 | |
| DL1XH-west | 2026-08-30 13:13:58 | 53.14291 | 11.50451 | 81° | 62km/h | 5498m | -4.7m/s | -10.9°C | 1.6% | 515.4hPa | 2.6V | 02:33:57 | 03:16:49 | 00:00:00 | |
| AA1-15 | 2026-08-30 13:13:57 | 53.14289 | 11.50425 | 81° | 62km/h | 5503m | -4.6m/s | -11°C | 1.6% | 515.1hPa | 2.7V | 02:33:57 | 03:16:48 | 00:00:00 | |
| DB0DAN | 2026-08-30 13:13:55 | 53.14284 | 11.50374 | 80° | 58km/h | 5512m | -4.4m/s | -11°C | 3.5% | 514.53hPa | 2.7V | 00:00:00 | 00:00:00 | 00:00:00 | |
| BIOWL1-15 | 2026-08-30 13:13:51 | 53.14273 | 11.50271 | 79° | 62km/h | 5530m | -4.7m/s | -11.2°C | 1.2% | 513.3hPa | 2.6V | 02:33:57 | 03:16:42 | 00:00:00 | |
| DF8AY | 2026-08-30 13:13:48 | 53.14265 | 11.50192 | 82° | 62km/h | 5543m | -4.4m/s | -11.3°C | 1.5% | 512.4hPa | 2.7V | 02:33:57 | 03:16:39 | 00:00:00 | |
| DL1XH-west | 2026-08-30 13:13:47 | 53.14263 | 11.50166 | 81° | 62km/h | 5548m | -4.6m/s | -11.3°C | 1.4% | 512hPa | 2.7V | 02:33:57 | 03:16:38 | 00:00:00 | |
| DO2SHX-10 | 2026-08-30 13:13:46 | 53.14260 | 11.50140 | 82° | 62km/h | 5553m | -4.6m/s | -11.3°C | 3.3% | 511.7hPa | 2.7V | 00:00:00 | 03:16:37 | 00:00:00 | |
| DM0DOS-11 | 2026-08-30 13:13:45 | 53.14245 | 11.49984 | 80° | 62km/h | 5579m | -4.5m/s | -11.6°C | 3.6% | 509.9hPa | 2.7V | 02:33:47 | 03:16:31 | 00:00:00 | |
| BIOWL1-15 | 2026-08-30 13:13:40 | 53.14228 | 11.49830 | 79° | 64km/h | 5607m | -4.5m/s | -11.7°C | 2.3% | 508.2hPa | 2.7V | 02:33:57 | 03:16:25 | 00:00:00 | |
| DB0DAN | 2026-08-30 13:13:40 | 53.14245 | 11.49984 | 80° | 58km/h | 5579m | -4.6m/s | -11.6°C | 3.4% | 509.94hPa | 2.7V | 00:00:00 | 00:00:00 | 00:00:00 | |
| DO2SHX-10 | 2026-08-30 13:13:40 | 53.14245 | 11.49984 | 81° | 62km/h | 5580m | -4.5m/s | -11.5°C | 3.6% | 509.9hPa | 2.7V | 02:33:00 | 03:16:31 | 00:00:00 | |
| DF7ER-10 | 2026-08-30 13:13:39 | 53.14245 | 11.49984 | 81° | 62km/h | 5580m | -4.6m/s | -11.6°C | 3.4% | 509.9hPa | 2.7V | 02:33:00 | 00:00:00 | 00:00:00 | |
| DL1XH1-15 | 2026-08-30 13:13:38 | 53.14225 | 11.49804 | 79° | 62km/h | 5611m | -4.5m/s | -11.8°C | 4% | 507.8hPa | 2.7V | 02:33:54 | 03:16:24 | 00:00:00 | |
| DF8AY | 2026-08-30 13:13:38 | 53.14240 | 11.49933 | 80° | 62km/h | 5589m | -4.5m/s | -11.6°C | 2% | 509.4hPa | 2.6V | 02:33:57 | 03:16:29 | 00:00:00 | |
| DL1XH-west | 2026-08-30 13:13:37 | 53.14237 | 11.49907 | 80° | 62km/h | 5593m | -4.6m/s | -11.7°C | 2.1% | 509.1hPa | 2.6V | 02:33:57 | 03:16:28 | 00:00:00 | |
| AA1-15 | 2026-08-30 13:13:36 | 53.14234 | 11.49881 | 79° | 60km/h | 5598m | -4.5m/s | -11.7°C | 2.1% | 508.9hPa | 2.7V | 02:33:57 | 03:16:27 | 00:00:00 | |
| DL1XH-15 | 2026-08-30 13:13:35 | 53.14215 | 11.49726 | 79° | 64km/h | 5625m | -4.5m/s | -11.9°C | 4.1% | 507hPa | 2.6V | 02:33:57 | 03:16:21 | 00:00:00 | |
| DF8AY | 2026-08-30 13:13:28 | 53.14206 | 11.49647 | 79° | 64km/h | 5638m | -4.6m/s | -12°C | 2.1% | 506.1hPa | 2.7V | 02:34:48 | 03:16:18 | 00:00:00 | |
| DL1XH1-15 | 2026-08-30 13:13:28 | 53.14194 | 11.49542 | 78° | 64km/h | 5656m | -4.6m/s | -12.2°C | 3.6% | 504.9hPa | 2.6V | 02:34:04 | 03:16:14 | 00:00:00 | |
| DL1XH-west | 2026-08-30 13:13:26 | 53.14203 | 11.49621 | 80° | 64km/h | 5643m | -4.4m/s | -12.1°C | 1.9% | 505.8hPa | 2.7V | 02:34:48 | 03:16:17 | 00:00:00 | |
| DB0DAN | 2026-08-30 13:13:25 | 53.14200 | 11.49595 | 80° | 60km/h | 5647m | -4.4m/s | -12.1°C | 3.4% | 505.49hPa | 2.7V | 00:00:00 | 00:00:00 | 00:00:00 | |
| BIOWL1-15 | 2026-08-30 13:13:23 | 53.14185 | 11.49464 | 79° | 62km/h | 5670m | -4.6m/s | -12.3°C | 1.7% | 504hPa | 2.7V | 02:34:48 | 03:16:11 | 00:00:00 | |
| DJ2DS-15 | 2026-08-30 13:13:22 | 53.14188 | 11.49490 | 80° | 62km/h | 5665m | -4.5m/s | -12.2°C | 3.3% | 504.3hPa | 2.7V | 00:00:00 | 00:00:00 | 00:00:00 | |
| DK1YY | 2026-08-30 13:13:21 | 53.14185 | 11.49464 | 79° | 62km/h | 5670m | -4.6m/s | -12.3°C | 3.3% | 504.0hPa | 2.7V | 00:00:00 | 00:00:00 | 00:00:00 | |
| DL1XH1-15 | 2026-08-30 13:13:18 | 53.14164 | 11.49283 | 78° | 62km/h | 5701m | -4.5m/s | -12.6°C | 3.7% | 501.9hPa | 2.7V | 02:34:14 | 03:16:04 | 00:00:00 | |
| DF8AY | 2026-08-30 13:13:16 | 53.14174 | 11.49361 | 78° | 62km/h | 5688m | -4.5m/s | -12.4°C | 1.9% | 502.8hPa | 2.6V | 02:34:48 | 03:16:07 | 00:00:00 | |
| DL1XH-west | 2026-08-30 13:13:15 | 53.14170 | 11.49335 | 78° | 62km/h | 5692m | -4.6m/s | -12.5°C | 1.9% | 502.5hPa | 2.7V | 02:34:48 | 03:16:06 | 00:00:00 | |
| BIOWL1-15 | 2026-08-30 13:13:13 | 53.14158 | 11.49232 | 79° | 64km/h | 5711m | -4.6m/s | -12.7°C | 2.1% | 501.3hPa | 2.7V | 02:34:48 | 03:16:02 | 00:00:00 | |
| DO2SHX-10 | 2026-08-30 13:13:13 | 53.14164 | 11.49283 | 79° | 62km/h | 5702m | -4.5m/s | -12.5°C | 3.7% | 501.8hPa | 2.7V | 02:34:00 | 03:16:04 | 00:00:00 | |
| DF8AY-15 | 2026-08-30 13:13:12 | 53.14161 | 11.49258 | 79° | 64km/h | 5706m | -4.5m/s | -12.6°C | 3.7% | 501.6hPa | 2.6V | 00:00:00 | 03:16:03 | 00:00:00 | |
| DB0DAN | 2026-08-30 13:13:10 | 53.14155 | 11.49205 | 80° | 60km/h | 5715m | -4.5m/s | -12.8°C | 3.5% | 500.96hPa | 2.6V | 00:00:00 | 00:00:00 | 00:00:00 | |
| SMARD9-10 | 2026-08-30 13:13:10 | 53.14155 | 11.49205 | 81° | 64km/h | 5715m | -4.5m/s | -12.8°C | 3.5% | 501.0hPa | 2.6V | 02:34:00 | 00:00:00 | 00:00:00 | |
| EDDB2-12 | 2026-08-30 13:13:09 | 53.14152 | 11.49179 | 79° | 62km/h | 5720m | -4.8m/s | -12.8°C | 3.5% | 500.7hPa | 2.6V | 00:00:00 | 00:00:00 | 00:00:00 | |
| DL1XH1-15 | 2026-08-30 13:13:08 | 53.14134 | 11.49021 | 79° | 64km/h | 5747m | -4.6m/s | -13°C | 4% | 498.9hPa | 2.6V | 02:34:24 | 03:15:54 | 00:00:00 | |
| DF8AY | 2026-08-30 13:13:05 | 53.14140 | 11.49074 | 80° | 64km/h | 5738m | -4.6m/s | -12.9°C | 2.3% | 499.5hPa | 2.7V | 02:34:48 | 03:15:56 | 00:00:00 | |
| DL1XH-west | 2026-08-30 13:13:04 | 53.14137 | 11.49048 | 79° | 64km/h | 5742m | -4.7m/s | -13°C | 2.4% | 499.3hPa | 2.7V | 02:34:48 | 03:15:55 | 00:00:00 | |
| BIOWL1-15 | 2026-08-30 13:13:00 | 53.14125 | 11.48943 | 78° | 64km/h | 5761m | -4.6m/s | -13.1°C | 2.9% | 498.1hPa | 2.7V | 02:34:48 | 03:15:51 | 00:00:00 | |
| TFSTFS | 2026-08-30 13:12:59 | 53.14125 | 11.48943 | 79° | 64km/h | 5761m | -4.6m/s | -13.1°C | 3.9% | 498.1hPa | 2.7V | 02:34:00 | 00:00:00 | 00:00:00 | |
| DL1XH1-15 | 2026-08-30 13:12:58 | 53.14103 | 11.48760 | 79° | 64km/h | 5793m | -4.6m/s | -13.4°C | 4.5% | 495.9hPa | 2.7V | 02:34:34 | 03:15:44 | 00:00:00 | |
| DO2SHX-10 | 2026-08-30 13:12:58 | 53.14119 | 11.48891 | 80° | 62km/h | 5770m | -4.3m/s | -13.2°C | 4.3% | 497.4hPa | 2.6V | 00:00:00 | 03:15:49 | 00:00:00 | |
| DB0DAN | 2026-08-30 13:12:55 | 53.14109 | 11.48813 | 79° | 62km/h | 5784m | -4.7m/s | -13.3°C | 4.2% | 496.48hPa | 2.6V | 00:00:00 | 00:00:00 | 00:00:00 | |
| DL1XH-15 | 2026-08-30 13:12:55 | 53.14094 | 11.48680 | 79° | 64km/h | 5807m | -4.6m/s | -13.5°C | 4.5% | 495hPa | 2.6V | 02:34:37 | 03:15:41 | 00:00:00 | |
| DO2SHX-10 | 2026-08-30 13:12:55 | 53.14109 | 11.48813 | 80° | 64km/h | 5784m | -4.7m/s | -13.3°C | 4.5% | 496.4hPa | 2.6V | 02:34:00 | 03:15:46 | 00:00:00 | |
| DM0DOS-11 | 2026-08-30 13:12:54 | 53.14091 | 11.48654 | 79° | 62km/h | 5811m | -4.5m/s | -13.6°C | 4.5% | 494.7hPa | 2.6V | 02:34:38 | 03:15:40 | 00:00:00 | |
| DF8AY | 2026-08-30 13:12:54 | 53.14106 | 11.48786 | 79° | 64km/h | 5788m | -4.4m/s | -13.4°C | 3.2% | 496.1hPa | 2.7V | 02:34:48 | 03:15:45 | 00:00:00 | |
| DL1XH-west | 2026-08-30 13:12:53 | 53.14103 | 11.48760 | 79° | 64km/h | 5793m | -4.6m/s | -13.4°C | 3.2% | 495.9hPa | 2.7V | 02:34:48 | 03:15:44 | 00:00:00 | |
| BIOWL1-15 | 2026-08-30 13:12:49 | 53.14075 | 11.48524 | 78° | 64km/h | 5834m | -4.7m/s | -13.9°C | 3.4% | 493.1hPa | 2.7V | 02:34:48 | 03:15:35 | 00:00:00 | |
| DO2SHX-10 | 2026-08-30 13:12:49 | 53.14091 | 11.48654 | 80° | 64km/h | 5811m | -4.4m/s | -13.5°C | 4.5% | 494.7hPa | 2.6V | 00:00:00 | 03:15:40 | 00:00:00 | |
| DL1XH1-15 | 2026-08-30 13:12:48 | 53.14072 | 11.48498 | 78° | 64km/h | 5839m | -4.5m/s | -13.9°C | 4.6% | 492.9hPa | 2.6V | 02:34:44 | 03:15:34 | 00:00:00 | |
| DJ2DS-15 | 2026-08-30 13:12:46 | 53.14079 | 11.48550 | 77° | 62km/h | 5829m | -4.5m/s | -13.9°C | 4.2% | 493.6hPa | 2.7V | 00:00:00 | 00:00:00 | 00:00:00 | |
| DL1XH-15 | 2026-08-30 13:12:45 | 53.14063 | 11.48419 | 78° | 64km/h | 5852m | -4.6m/s | -14°C | 4.7% | 492hPa | 2.7V | 02:34:47 | 03:15:31 | 00:00:00 | |
| DM0DOS-11 | 2026-08-30 13:12:44 | 53.14060 | 11.48393 | 78° | 66km/h | 5857m | -4.5m/s | -14°C | 4.7% | 491.7hPa | 2.7V | 02:34:48 | 03:15:30 | 00:00:00 | |
| DF8AY | 2026-08-30 13:12:43 | 53.14072 | 11.48498 | 79° | 64km/h | 5839m | -4.5m/s | -13.9°C | 3.4% | 492.9hPa | 2.6V | 02:34:48 | 03:15:34 | 00:00:00 | |
| DO2SHX-10 | 2026-08-30 13:12:43 | 53.14072 | 11.48498 | 79° | 64km/h | 5839m | -4.5m/s | -13.9°C | 4.6% | 492.9hPa | 2.7V | 00:00:00 | 03:15:34 | 00:00:00 | |
| DB0DAN | 2026-08-30 13:12:40 | 53.14063 | 11.48419 | 78° | 62km/h | 5852m | -4.6m/s | -14°C | 4.4% | 492hPa | 2.7V | 00:00:00 | 00:00:00 | 00:00:00 | |
| BIOWL1-15 | 2026-08-30 13:12:39 | 53.14048 | 11.48286 | 79° | 66km/h | 5875m | -4.8m/s | -14.3°C | 3.7% | 490.6hPa | 2.6V | 02:35:39 | 03:15:26 | 00:00:00 | |
| DL1XH1-15 | 2026-08-30 13:12:38 | 53.14043 | 11.48233 | 80° | 64km/h | 5885m | -4.5m/s | -14.3°C | 4.9% | 489.9hPa | 2.7V | 02:34:54 | 03:15:24 | 00:00:00 | |
| EDDB2-12 | 2026-08-30 13:12:38 | 53.14057 | 11.48366 | 80° | 64km/h | 5861m | -4.5m/s | -14.1°C | 4.4% | 491.4hPa | 2.7V | 00:00:00 | 00:00:00 | 00:00:00 | |
| DO2SHX-10 | 2026-08-30 13:12:37 | 53.14054 | 11.48339 | 80° | 64km/h | 5866m | -4.5m/s | -14.1°C | 4.7% | 491.1hPa | 2.7V | 02:34:00 | 03:15:28 | 00:00:00 | |
| DL1XH-15 | 2026-08-30 13:12:35 | 53.14034 | 11.48154 | 81° | 62km/h | 5899m | -4.6m/s | -14.4°C | 4.9% | 489.1hPa | 2.7V | 02:34:57 | 03:15:21 | 00:00:00 | |
| S3001 | 2026-08-30 13:12:35 | 53.14045 | 11.48259 | 81° | 62km/h | 5880m | -4.8m/s | -14.3°C | 4.5% | 490.1hPa | 2.6V | 00:00:00 | 00:00:00 | 00:00:00 | |
| DM0DOS-11 | 2026-08-30 13:12:34 | 53.14032 | 11.48128 | 80° | 62km/h | 5903m | -4.7m/s | -14.5°C | 4.9% | 488.8hPa | 2.6V | 02:34:58 | 03:15:20 | 00:00:00 | |
| DF8AY | 2026-08-30 13:12:32 | 53.14040 | 11.48207 | 80° | 64km/h | 5889m | -4.4m/s | -14.3°C | 3.9% | 489.6hPa | 2.7V | 02:35:39 | 03:15:23 | 00:00:00 | |
| EDDB2-11 | 2026-08-30 13:12:32 | 53.14037 | 11.48180 | 80° | 62km/h | 5894m | -4.7m/s | -14.4°C | 4.5% | 489.4hPa | 2.6V | 00:00:00 | 00:00:00 | 00:00:00 | |
| DO2SHX-10 | 2026-08-30 13:12:31 | 53.14037 | 11.48180 | 81° | 62km/h | 5894m | -4.6m/s | -14.4°C | 4.9% | 489.4hPa | 2.6V | 00:00:00 | 03:15:22 | 00:00:00 | |
| SMARD9-10 | 2026-08-30 13:12:30 | 53.14037 | 11.48180 | 81° | 64km/h | 5894m | -4.7m/s | -14.4°C | 4.5% | 489.4hPa | 2.6V | 00:00:00 | 00:00:00 | 00:00:00 | |
| DL1XH1-15 | 2026-08-30 13:12:28 | 53.14014 | 11.47971 | 79° | 64km/h | 5931m | -4.7m/s | -14.7°C | 5.1% | 486.9hPa | 2.6V | 02:35:04 | 03:15:14 | 00:00:00 | |
| DO2SHX-10 | 2026-08-30 13:12:28 | 53.14029 | 11.48102 | 80° | 64km/h | 5908m | -4.6m/s | -14.5°C | 5.0% | 488.3hPa | 2.6V | 02:34:00 | 03:15:19 | 00:00:00 | |
| DL1XH-15 | 2026-08-30 13:12:25 | 53.14006 | 11.47892 | 79° | 62km/h | 5945m | -4.5m/s | -14.9°C | 5.2% | 486.1hPa | 2.7V | 02:35:07 | 03:15:11 | 00:00:00 | |
| DO2SHX-10 | 2026-08-30 13:12:25 | 53.14020 | 11.48023 | 80° | 64km/h | 5922m | -4.6m/s | -14.6°C | 5.0% | 487.4hPa | 2.7V | 00:00:00 | 03:15:16 | 00:00:00 | |
| DM0DOS-11 | 2026-08-30 13:12:24 | 53.14003 | 11.47866 | 79° | 64km/h | 5950m | -4.5m/s | -14.8°C | 5.2% | 485.7hPa | 2.7V | 02:35:08 | 03:15:10 | 00:00:00 | |
| DF7ER-10 | 2026-08-30 13:12:23 | 53.14017 | 11.47997 | 80° | 64km/h | 5927m | -4.5m/s | -14.6°C | 4.6% | 487.3hPa | 2.7V | 02:35:00 | 00:00:00 | 00:00:00 | |
| DO2SHX-10 | 2026-08-30 13:12:22 | 53.14011 | 11.47944 | 81° | 64km/h | 5936m | -4.7m/s | -14.7°C | 5.1% | 486.7hPa | 2.7V | 00:00:00 | 03:15:13 | 00:00:00 | |
| DL1XH-west | 2026-08-30 13:12:22 | 53.14011 | 11.47944 | 80° | 64km/h | 5936m | -4.7m/s | -14.8°C | 4.2% | 486.7hPa | 2.6V | 02:35:39 | 03:15:13 | 00:00:00 | |
| DK1YY | 2026-08-30 13:12:19 | 53.14000 | 11.47839 | 80° | 62km/h | 5955m | -4.5m/s | -14.9°C | 4.8% | 485.5hPa | 2.7V | 00:00:00 | 00:00:00 | 00:00:00 | |
| DL1XH1-15 | 2026-08-30 13:12:18 | 53.13986 | 11.47709 | 79° | 62km/h | 5977m | -4.6m/s | -15.2°C | 5.3% | 483.9hPa | 2.7V | 02:35:14 | 03:15:04 | 00:00:00 | |
| SONDE2-11 | 2026-08-30 13:12:17 | 53.13997 | 11.47813 | 80° | 62km/h | 5959m | -4.6m/s | -15.0°C | 4.8% | 485.2hPa | 2.6V | 00:00:00 | 00:00:00 | 00:00:00 | |
| DO2SHX-10 | 2026-08-30 13:12:16 | 53.13995 | 11.47787 | 80° | 62km/h | 5964m | -4.6m/s | -15.0°C | 5.3% | 484.8hPa | 2.6V | 00:00:00 | 03:15:07 | 00:00:00 | |
| DM0DOS-11 | 2026-08-30 13:12:14 | 53.13952 | 11.47420 | 80° | 64km/h | 6029m | -4.8m/s | -15.5°C | 5.4% | 480.7hPa | 2.6V | 02:35:25 | 03:14:53 | 00:00:00 | |
| DO2SHX-10 | 2026-08-30 13:12:13 | 53.13986 | 11.47709 | 80° | 62km/h | 5977m | -4.5m/s | -15.1°C | 5.3% | 483.8hPa | 2.7V | 00:00:00 | 03:15:04 | 00:00:00 | |
| BIOWL1-15 | 2026-08-30 13:12:12 | 53.13912 | 11.47054 | 80° | 62km/h | 6094m | -4.6m/s | -16.1°C | 4.9% | 476.6hPa | 2.7V | 02:35:39 | 03:14:39 | 00:00:00 | |
| DF8AY | 2026-08-30 13:12:12 | 53.13983 | 11.47683 | 78° | 62km/h | 5982m | -4.5m/s | -15.2°C | 4.5% | 483.6hPa | 2.7V | 02:35:39 | 03:15:03 | 00:00:00 | |
| AA1-15 | 2026-08-30 13:12:12 | 53.13917 | 11.47106 | 81° | 64km/h | 6084m | -4.7m/s | -16.1°C | 4.8% | 477.2hPa | 2.6V | 02:35:39 | 03:14:41 | 00:00:00 | |
| DL1XH-west | 2026-08-30 13:12:12 | 53.13932 | 11.47237 | 79° | 64km/h | 6061m | -4.4m/s | -15.9°C | 4.8% | 478.7hPa | 2.6V | 02:35:39 | 03:14:46 | 00:00:00 | |
| DF8AY-15 | 2026-08-30 13:12:12 | 53.13982 | 11.47683 | 79° | 64km/h | 5982m | -4.5m/s | -15.2°C | 5.3% | 483.6hPa | 2.7V | 00:00:00 | 03:15:03 | 00:00:00 | |
| DB0DAN | 2026-08-30 13:12:10 | 53.13976 | 11.47631 | 79° | 60km/h | 5991m | -4.5m/s | -15.3°C | 4.8% | 483.09hPa | 2.7V | 00:00:00 | 00:00:00 | 00:00:00 | |
| DL1XH-15 | 2026-08-30 13:12:10 | 53.13920 | 11.47133 | 78° | 64km/h | 6080m | -4.7m/s | -16°C | 5.4% | 477.4hPa | 2.7V | 02:35:36 | 03:14:42 | 00:00:00 | |
| DJ2DS-15 | 2026-08-30 13:12:10 | 53.13973 | 11.47605 | 78° | 62km/h | 5996m | -4.8m/s | -15.3°C | 4.9% | 482.9hPa | 2.7V | 00:00:00 | 00:00:00 | 00:00:00 | |
| DM0DOS-11 | 2026-08-30 13:12:09 | 53.13940 | 11.47315 | 80° | 64km/h | 6047m | -4.5m/s | -15.8°C | 5.5% | 479.5hPa | 2.7V | 02:35:29 | 03:14:49 | 00:00:00 | |
| DF8AY | 2026-08-30 13:12:08 | 53.13949 | 11.47394 | 81° | 62km/h | 6034m | -4.8m/s | -15.6°C | 4.7% | 480.4hPa | 2.7V | 02:35:39 | 03:14:52 | 00:00:00 | |
| DO2SHX-10 | 2026-08-30 13:12:07 | 53.13967 | 11.47553 | 79° | 64km/h | 6005m | -4.6m/s | -15.3°C | 5.3% | 482.2hPa | 2.7V | 00:00:00 | 03:14:58 | 00:00:00 | |
| BIOWL1-15 | 2026-08-30 13:12:04 | 53.13909 | 11.47028 | 79° | 64km/h | 6098m | -4.6m/s | -16.2°C | 4.9% | 476.3hPa | 2.7V | 02:36:30 | 03:14:38 | 00:00:00 | |
| AA1-15 | 2026-08-30 13:12:04 | 53.13914 | 11.47080 | 80° | 62km/h | 6089m | -4.6m/s | -16.1°C | 4.8% | 476.9hPa | 2.6V | 02:35:39 | 03:14:40 | 00:00:00 | |
| S3001 | 2026-08-30 13:12:04 | 53.13955 | 11.47447 | 79° | 64km/h | 6024m | -4.6m/s | -15.5°C | 5.0% | 481.1hPa | 2.7V | 00:00:00 | 00:00:00 | 00:00:00 | |
| DL1XH1-15 | 2026-08-30 13:12:03 | 53.13911 | 11.47054 | 79° | 62km/h | 6094m | -4.6m/s | -16.1°C | 5.5% | 476.6hPa | 2.7V | 02:35:39 | 03:14:39 | 00:00:00 | |
| DL1XH-west | 2026-08-30 13:12:03 | 53.13929 | 11.47211 | 80° | 64km/h | 6066m | -4.6m/s | -16°C | 4.7% | 478.3hPa | 2.7V | 02:35:39 | 03:14:45 | 00:00:00 | |
| DF8AY | 2026-08-30 13:12:00 | 53.13920 | 11.47133 | 79° | 64km/h | 6080m | -4.7m/s | -16°C | 4.7% | 477.4hPa | 2.7V | 02:35:39 | 03:14:42 | 00:00:00 | |
| DO2SHX-10 | 2026-08-30 13:11:58 | 53.13940 | 11.47315 | 81° | 62km/h | 6047m | -4.5m/s | -15.8°C | 5.5% | 479.5hPa | 2.7V | 00:00:00 | 03:14:49 | 00:00:00 | |
| DM0DOS-11 | 2026-08-30 13:11:57 | 53.13911 | 11.47054 | 79° | 62km/h | 6094m | -4.6m/s | -16.1°C | 5.5% | 476.6hPa | 2.7V | 02:35:39 | 03:14:39 | 00:00:00 | |
| DB0DAN | 2026-08-30 13:11:55 | 53.13932 | 11.47237 | 79° | 60km/h | 6061m | -4.4m/s | -15.9°C | 5% | 478.67hPa | 2.6V | 00:00:00 | 00:00:00 | 00:00:00 | |
| DK1YY | 2026-08-30 13:11:47 | 53.13909 | 11.47028 | 79° | 62km/h | 6098m | -4.6m/s | -16.2°C | 5.0% | 476.3hPa | 2.6V | 00:00:00 | 00:00:00 | 00:00:00 | |
| DC4HF-4 | 2026-08-30 13:11:46 | 53.13903 | 11.46975 | 79° | 62km/h | 6108m | -4.6m/s | -16.3°C | 5.1% | 475.7hPa | 2.6V | 00:00:00 | 00:00:00 | 00:00:00 | |
| DL1XH-west | 2026-08-30 13:11:43 | 53.13896 | 11.46923 | 78° | 64km/h | 6117m | -4.5m/s | -16.3°C | 4.9% | 475.1hPa | 2.6V | 02:36:30 | 03:14:34 | 00:00:00 | |
| DF8AY | 2026-08-30 13:11:40 | 53.13887 | 11.46845 | 78° | 62km/h | 6130m | -4.7m/s | -16.5°C | 5.2% | 474.3hPa | 2.7V | 02:36:30 | 03:14:31 | 00:00:00 | |
| DB0DAN | 2026-08-30 13:11:40 | 53.13887 | 11.46845 | 78° | 60km/h | 6130m | -4.7m/s | -16.5°C | 5.2% | 474.27hPa | 2.7V | 00:00:00 | 00:00:00 | 00:00:00 | |
| DO2SHX-10 | 2026-08-30 13:11:40 | 53.13887 | 11.46845 | 78° | 64km/h | 6131m | -4.7m/s | -16.4°C | 5.7% | 474.2hPa | 2.6V | 00:00:00 | 03:14:31 | 00:00:00 | |
| AM1SDL-15 | 2026-08-30 13:11:39 | 53.13883 | 11.46819 | 78° | 64km/h | 6135m | -4.6m/s | -16.5°C | 5.7% | 473.9hPa | 2.6V | 00:00:00 | 03:14:30 | 00:00:00 | |
| DM0DOS-11 | 2026-08-30 13:11:38 | 53.13877 | 11.46766 | 79° | 62km/h | 6144m | -4.7m/s | -16.6°C | 5.7% | 473.4hPa | 2.6V | 02:35:50 | 03:14:28 | 00:00:00 | |
| BIOWL1-15 | 2026-08-30 13:11:37 | 53.13877 | 11.46766 | 79° | 62km/h | 6144m | -4.7m/s | -16.6°C | 5% | 473.4hPa | 2.6V | 02:36:30 | 03:14:28 | 00:00:00 | |
| DO2SHX-10 | 2026-08-30 13:11:37 | 53.13877 | 11.46766 | 80° | 64km/h | 6144m | -4.6m/s | -16.5°C | 5.7% | 473.4hPa | 2.7V | 00:00:00 | 03:14:28 | 00:00:00 | |
| EDDB2-12 | 2026-08-30 13:11:36 | 53.13874 | 11.46741 | 78° | 62km/h | 6149m | -4.7m/s | -16.6°C | 5.2% | 473.1hPa | 2.7V | 00:00:00 | 00:00:00 | 00:00:00 | |
| DJ2DS-15 | 2026-08-30 13:11:34 | 53.13865 | 11.46662 | 79° | 62km/h | 6162m | -4.6m/s | -16.7°C | 5.2% | 472.2hPa | 2.7V | 00:00:00 | 00:00:00 | 00:00:00 | |
| DL1XH1-15 | 2026-08-30 13:11:33 | 53.13850 | 11.46530 | 78° | 62km/h | 6185m | -4.7m/s | -16.9°C | 5.6% | 470.8hPa | 2.7V | 02:35:59 | 03:14:19 | 00:00:00 | |
| DL1XH-west | 2026-08-30 13:11:33 | 53.13865 | 11.46662 | 80° | 62km/h | 6163m | -4.6m/s | -16.7°C | 4.9% | 472.2hPa | 2.7V | 02:36:30 | 03:14:24 | 00:00:00 | |
| DF8AY | 2026-08-30 13:11:30 | 53.13856 | 11.46583 | 80° | 64km/h | 6176m | -4.4m/s | -16.8°C | 4.9% | 471.4hPa | 2.6V | 02:36:30 | 03:14:21 | 00:00:00 | |
| BIOWL1-15 | 2026-08-30 13:11:26 | 53.13837 | 11.46425 | 79° | 64km/h | 6204m | -4.5m/s | -17.1°C | 5.1% | 469.6hPa | 2.6V | 02:36:30 | 03:14:15 | 00:00:00 | |
| DB0DAN | 2026-08-30 13:11:25 | 53.13840 | 11.46451 | 79° | 60km/h | 6199m | -4.6m/s | -17°C | 5.2% | 469.93hPa | 2.7V | 00:00:00 | 00:00:00 | 00:00:00 | |
| DL1XH-west | 2026-08-30 13:11:22 | 53.13830 | 11.46372 | 79° | 66km/h | 6213m | -4.4m/s | -17.3°C | 5.1% | 469.1hPa | 2.7V | 02:36:30 | 03:14:13 | 00:00:00 | |
| AA1-15 | 2026-08-30 13:11:21 | 53.13821 | 11.46292 | 78° | 66km/h | 6226m | -4.5m/s | -17.3°C | 5.2% | 468.2hPa | 2.7V | 02:36:30 | 03:14:10 | 00:00:00 | |
| DF7ER-10 | 2026-08-30 13:11:20 | 53.13827 | 11.46345 | 81° | 64km/h | 6217m | -4.6m/s | -17.3°C | 5.2% | 468.7hPa | 2.7V | 02:36:00 | 00:00:00 | 00:00:00 | |
| DF8AY | 2026-08-30 13:11:20 | 53.13824 | 11.46319 | 79° | 64km/h | 6222m | -4.5m/s | -17.2°C | 5.1% | 468.5hPa | 2.7V | 02:36:30 | 03:14:11 | 00:00:00 | |
| DO2SHX-10 | 2026-08-30 13:11:19 | 53.13821 | 11.46292 | 78° | 66km/h | 6226m | -4.4m/s | -17.2°C | 5.7% | 468.2hPa | 2.7V | 00:00:00 | 03:14:10 | 00:00:00 | |
| DM0DOS-11 | 2026-08-30 13:11:17 | 53.13800 | 11.46131 | 77° | 64km/h | 6254m | -4.2m/s | -17.6°C | 5.6% | 466.5hPa | 2.7V | 02:36:14 | 03:14:04 | 00:00:00 | |
| BIOWL1-15 | 2026-08-30 13:11:13 | 53.13800 | 11.46131 | 77° | 64km/h | 6254m | -4.2m/s | -17.6°C | 4.9% | 466.5hPa | 2.7V | 02:36:30 | 03:14:04 | 00:00:00 | |
| DO2SHX-10 | 2026-08-30 13:11:13 | 53.13800 | 11.46131 | 78° | 64km/h | 6254m | -4.1m/s | -17.5°C | 5.6% | 466.5hPa | 2.7V | 00:00:00 | 03:14:04 | 00:00:00 | |
| DL1XH1-15 | 2026-08-30 13:11:12 | 53.13783 | 11.45997 | 78° | 66km/h | 6276m | -4.6m/s | -17.6°C | 5.7% | 465.1hPa | 2.7V | 02:36:19 | 03:13:59 | 00:00:00 | |
| DL1XH-west | 2026-08-30 13:11:11 | 53.13793 | 11.46078 | 76° | 64km/h | 6262m | -4.6m/s | -17.5°C | 4.9% | 465.9hPa | 2.6V | 02:36:30 | 03:14:02 | 00:00:00 | |
| AA1-15 | 2026-08-30 13:11:10 | 53.13789 | 11.46051 | 78° | 66km/h | 6267m | -4.6m/s | -17.6°C | 4.8% | 465.7hPa | 2.6V | 02:36:30 | 03:14:01 | 00:00:00 | |
| DB0DAN | 2026-08-30 13:11:10 | 53.13789 | 11.46051 | 78° | 62km/h | 6267m | -4.6m/s | -17.6°C | 5.2% | 465.71hPa | 2.6V | 00:00:00 | 00:00:00 | 00:00:00 | |
| DF8AY | 2026-08-30 13:11:09 | 53.13786 | 11.46024 | 79° | 66km/h | 6272m | -4.5m/s | -17.6°C | 4.9% | 465.4hPa | 2.7V | 02:36:30 | 03:14:00 | 00:00:00 | |
| BIOWL1-15 | 2026-08-30 13:11:02 | 53.13762 | 11.45833 | 78° | 66km/h | 6303m | -4.4m/s | -17.9°C | 5.2% | 463.5hPa | 2.7V | 02:36:30 | 03:13:53 | 00:00:00 | |
| DL1XH1-15 | 2026-08-30 13:11:02 | 53.13749 | 11.45724 | 78° | 68km/h | 6321m | -4.3m/s | -17.9°C | 5.7% | 462.3hPa | 2.6V | 02:36:29 | 03:13:49 | 00:00:00 | |
| DL1XH-west | 2026-08-30 13:11:00 | 53.13755 | 11.45778 | 79° | 66km/h | 6312m | -4.4m/s | -18°C | 5.2% | 462.9hPa | 2.7V | 02:36:30 | 03:13:51 | 00:00:00 | |
| AA1-15 | 2026-08-30 13:10:59 | 53.13752 | 11.45751 | 78° | 66km/h | 6316m | -4.4m/s | -18°C | 5.2% | 462.6hPa | 2.6V | 02:36:30 | 03:13:50 | 00:00:00 | |
| DF8AY | 2026-08-30 13:10:58 | 53.13749 | 11.45724 | 78° | 68km/h | 6321m | -4.3m/s | -18°C | 5.2% | 462.3hPa | 2.6V | 02:36:30 | 03:13:49 | 00:00:00 | |
| DJ2DS-15 | 2026-08-30 13:10:58 | 53.13745 | 11.45696 | 79° | 66km/h | 6325m | -4.3m/s | -18.0°C | 5.2% | 462.1hPa | 2.7V | 00:00:00 | 00:00:00 | 00:00:00 | |
| DB0DAN | 2026-08-30 13:10:55 | 53.13739 | 11.45642 | 78° | 64km/h | 6333m | -4.1m/s | -18°C | 5.2% | 461.47hPa | 2.7V | 00:00:00 | 00:00:00 | 00:00:00 | |
| DM0DOS-11 | 2026-08-30 13:10:55 | 53.13732 | 11.45585 | 79° | 68km/h | 6342m | -4.4m/s | -18.1°C | 5.7% | 460.9hPa | 2.6V | 02:36:34 | 03:13:44 | 00:00:00 | |
| DO2SHX-10 | 2026-08-30 13:10:55 | 53.13738 | 11.45642 | 78° | 68km/h | 6334m | -4.0m/s | -18.0°C | 5.7% | 461.4hPa | 2.7V | 00:00:00 | 03:13:46 | 00:00:00 | |
| DL1XH1-15 | 2026-08-30 13:10:52 | 53.13715 | 11.45443 | 78° | 68km/h | 6365m | -4.5m/s | -18.2°C | 5.7% | 459.6hPa | 2.7V | 02:36:39 | 03:13:39 | 00:00:00 | |
| BIOWL1-15 | 2026-08-30 13:10:52 | 53.13725 | 11.45529 | 78° | 69km/h | 6351m | -4.7m/s | -18.1°C | 5% | 460.4hPa | 2.7V | 02:37:21 | 03:13:42 | 00:00:00 | |
| DL1XH-west | 2026-08-30 13:10:50 | 53.13721 | 11.45500 | 78° | 69km/h | 6356m | -4.4m/s | -18.2°C | 5% | 460.1hPa | 2.7V | 02:37:21 | 03:13:41 | 00:00:00 | |
| DL1XH-15 | 2026-08-30 13:10:49 | 53.13707 | 11.45386 | 77° | 69km/h | 6374m | -4.6m/s | -18.3°C | 5.8% | 459hPa | 2.6V | 02:36:41 | 03:13:37 | 00:00:00 | |
| AA1-15 | 2026-08-30 13:10:49 | 53.13718 | 11.45472 | 79° | 69km/h | 6360m | -4.3m/s | -18.2°C | 5% | 459.9hPa | 2.7V | 02:37:21 | 03:13:40 | 00:00:00 | |
| DF8AY | 2026-08-30 13:10:47 | 53.13711 | 11.45415 | 78° | 69km/h | 6369m | -4.6m/s | -18.3°C | 5.1% | 459.2hPa | 2.6V | 02:37:21 | 03:13:38 | 00:00:00 | |
| DK1YY | 2026-08-30 13:10:45 | 53.13704 | 11.45358 | 79° | 68km/h | 6378m | -4.6m/s | -18.4°C | 5.3% | 458.9hPa | 2.6V | 00:00:00 | 00:00:00 | 00:00:00 | |
| SONDE2-11 | 2026-08-30 13:10:44 | 53.13700 | 11.45330 | 79° | 66km/h | 6383m | -4.7m/s | -18.4°C | 5.3% | 458.5hPa | 2.6V | 00:00:00 | 00:00:00 | 00:00:00 | |
| DL1XH-west | 2026-08-30 13:10:40 | 53.13687 | 11.45216 | 80° | 71km/h | 6401m | -4.5m/s | -18.6°C | 5.5% | 457.4hPa | 2.6V | 02:37:21 | 03:13:31 | 00:00:00 | |
| DB0DAN | 2026-08-30 13:10:40 | 53.13687 | 11.45216 | 80° | 68km/h | 6401m | -4.5m/s | -18.6°C | 5.3% | 457.43hPa | 2.6V | 00:00:00 | 00:00:00 | 00:00:00 | |
| DO2SHX-10 | 2026-08-30 13:10:40 | 53.13687 | 11.45216 | 80° | 71km/h | 6401m | -4.5m/s | -18.6°C | 5.8% | 457.4hPa | 2.6V | 02:36:00 | 03:13:31 | 00:00:00 | |
| DL1XH-15 | 2026-08-30 13:10:39 | 53.13674 | 11.45098 | 79° | 71km/h | 6419m | -4.4m/s | -18.7°C | 5.8% | 456.4hPa | 2.7V | 02:36:51 | 03:13:27 | 00:00:00 | |
| DL1XH1-15 | 2026-08-30 13:10:39 | 53.13680 | 11.45157 | 79° | 71km/h | 6410m | -4.4m/s | -18.6°C | 5.8% | 456.8hPa | 2.7V | 02:36:49 | 03:13:29 | 00:00:00 | |
| AA1-15 | 2026-08-30 13:10:38 | 53.13680 | 11.45157 | 79° | 71km/h | 6410m | -4.4m/s | -18.6°C | 5.5% | 456.8hPa | 2.7V | 02:37:21 | 03:13:29 | 00:00:00 | |
| DF8AY | 2026-08-30 13:10:36 | 53.13674 | 11.45098 | 80° | 71km/h | 6419m | -4.4m/s | -18.7°C | 5.4% | 456.4hPa | 2.7V | 02:37:21 | 03:13:27 | 00:00:00 | |
| DC4HF-4 | 2026-08-30 13:10:34 | 53.13653 | 11.44920 | 78° | 71km/h | 6446m | -4.4m/s | -19.0°C | 5.5% | 454.7hPa | 2.6V | 00:00:00 | 00:00:00 | 00:00:00 | |
| DL1XH1-15 | 2026-08-30 13:10:33 | 53.13646 | 11.44860 | 79° | 71km/h | 6455m | -4.3m/s | -19°C | 6% | 454.1hPa | 2.6V | 02:36:59 | 03:13:19 | 00:00:00 | |
| DF8AY-15 | 2026-08-30 13:10:32 | 53.13660 | 11.44979 | 80° | 73km/h | 6437m | -4.5m/s | -18.8°C | 5.9% | 455.1hPa | 2.7V | 02:36:00 | 03:13:23 | 00:00:00 | |
| DO2SHX-10 | 2026-08-30 13:10:31 | 53.13657 | 11.44949 | 79° | 71km/h | 6442m | -4.3m/s | -18.9°C | 6.0% | 454.9hPa | 2.7V | 02:36:00 | 03:13:22 | 00:00:00 | |
| S3001 | 2026-08-30 13:10:30 | 53.13653 | 11.44920 | 78° | 71km/h | 6446m | -4.4m/s | -19.0°C | 5.5% | 454.7hPa | 2.7V | 00:00:00 | 00:00:00 | 00:00:00 | |
| DL1XH-15 | 2026-08-30 13:10:29 | 53.13639 | 11.44801 | 78° | 73km/h | 6464m | -4.7m/s | -19.1°C | 6.1% | 453.5hPa | 2.7V | 02:37:01 | 03:13:17 | 00:00:00 | |
| BIOWL1-15 | 2026-08-30 13:10:29 | 53.13650 | 11.44890 | 79° | 73km/h | 6450m | -4.4m/s | -19°C | 5.4% | 454.3hPa | 2.7V | 02:37:21 | 03:13:20 | 00:00:00 | |
| DM0DOS-11 | 2026-08-30 13:10:28 | 53.13628 | 11.44711 | 78° | 73km/h | 6478m | -4.3m/s | -19.3°C | 5.9% | 452.6hPa | 2.7V | 02:37:04 | 03:13:14 | 00:00:00 | |
| AA1-15 | 2026-08-30 13:10:27 | 53.13643 | 11.44830 | 78° | 71km/h | 6460m | -4.6m/s | -19.1°C | 5.6% | 453.9hPa | 2.6V | 02:37:21 | 03:13:18 | 00:00:00 | |
| DF8AY | 2026-08-30 13:10:25 | 53.13635 | 11.44770 | 79° | 73km/h | 6469m | -4.4m/s | -19.2°C | 5.7% | 453.3hPa | 2.7V | 02:37:21 | 03:13:16 | 00:00:00 | |
| DB0DAN | 2026-08-30 13:10:25 | 53.13635 | 11.44770 | 79° | 69km/h | 6469m | -4.4m/s | -19.2°C | 5.5% | 453.29hPa | 2.7V | 00:00:00 | 00:00:00 | 00:00:00 | |
| DO2SHX-10 | 2026-08-30 13:10:25 | 53.13635 | 11.44770 | 80° | 73km/h | 6469m | -4.4m/s | -19.1°C | 6.0% | 453.2hPa | 2.6V | 00:00:00 | 03:13:16 | 00:00:00 | |
| DO2SHX-10 | 2026-08-30 13:10:22 | 53.13625 | 11.44680 | 79° | 73km/h | 6482m | -4.4m/s | -19.3°C | 5.9% | 452.4hPa | 2.6V | 02:37:00 | 03:13:13 | 00:00:00 | |
| DJ2DS-15 | 2026-08-30 13:10:21 | 53.13621 | 11.44650 | 79° | 73km/h | 6487m | -4.5m/s | -19.4°C | 5.4% | 452.2hPa | 2.6V | 00:00:00 | 00:00:00 | 00:00:00 | |
| DL1XH-15 | 2026-08-30 13:10:19 | 53.13604 | 11.44498 | 79° | 73km/h | 6510m | -4.5m/s | -19.5°C | 6% | 450.8hPa | 2.6V | 02:37:11 | 03:13:07 | 00:00:00 | |
| DL1XH1-15 | 2026-08-30 13:10:19 | 53.13611 | 11.44559 | 78° | 73km/h | 6500m | -4.3m/s | -19.4°C | 6% | 451.4hPa | 2.7V | 02:37:09 | 03:13:09 | 00:00:00 | |
| DL1XH-west | 2026-08-30 13:10:19 | 53.13615 | 11.44589 | 79° | 73km/h | 6496m | -4.5m/s | -19.4°C | 5.4% | 451.6hPa | 2.7V | 02:37:21 | 03:13:10 | 00:00:00 | |
| AA1-15 | 2026-08-30 13:10:17 | 53.13607 | 11.44528 | 79° | 75km/h | 6505m | -4.5m/s | -19.5°C | 5.5% | 451.1hPa | 2.7V | 02:37:21 | 03:13:08 | 00:00:00 | |
| DF8AY | 2026-08-30 13:10:15 | 53.13600 | 11.44467 | 79° | 73km/h | 6514m | -4.5m/s | -19.5°C | 5.4% | 450.6hPa | 2.6V | 02:37:21 | 03:13:06 | 00:00:00 | |
| AM1SDL-15 | 2026-08-30 13:10:14 | 53.13596 | 11.44437 | 79° | 73km/h | 6519m | -4.4m/s | -19.5°C | 6.0% | 450.2hPa | 2.7V | 00:00:00 | 03:13:05 | 00:00:00 | |
| DL1XH1-15 | 2026-08-30 13:10:13 | 53.13575 | 11.44254 | 80° | 73km/h | 6546m | -4.7m/s | -19.7°C | 5.5% | 448.6hPa | 2.7V | 02:37:19 | 03:12:59 | 00:00:00 | |
| DO2SHX-10 | 2026-08-30 13:10:13 | 53.13593 | 11.44406 | 80° | 73km/h | 6523m | -4.5m/s | -19.5°C | 5.8% | 450.0hPa | 2.7V | 02:37:00 | 03:13:04 | 00:00:00 | |
| DF8AY-15 | 2026-08-30 13:10:12 | 53.13589 | 11.44375 | 80° | 73km/h | 6528m | -4.3m/s | -19.5°C | 5.6% | 449.6hPa | 2.6V | 00:00:00 | 03:13:03 | 00:00:00 | |
| TFSTFS | 2026-08-30 13:10:11 | 53.13589 | 11.44375 | 81° | 75km/h | 6528m | -4.3m/s | -19.6°C | 5.1% | 449.7hPa | 2.6V | 02:37:00 | 00:00:00 | 00:00:00 | |
| DB0DAN | 2026-08-30 13:10:10 | 53.13582 | 11.44314 | 79° | 69km/h | 6537m | -4.5m/s | -19.6°C | 5% | 449.14hPa | 2.6V | 00:00:00 | 00:00:00 | 00:00:00 | |
| DO2SHX-10 | 2026-08-30 13:10:10 | 53.13582 | 11.44314 | 79° | 73km/h | 6537m | -4.4m/s | -19.5°C | 5.5% | 449.1hPa | 2.7V | 00:00:00 | 03:13:01 | 00:00:00 | |
| DL1XH-15 | 2026-08-30 13:10:09 | 53.13568 | 11.44193 | 78° | 73km/h | 6555m | -4.4m/s | -19.7°C | 5.6% | 448hPa | 2.7V | 02:37:21 | 03:12:57 | 00:00:00 | |
| DL1XH-west | 2026-08-30 13:10:08 | 53.13575 | 11.44254 | 80° | 73km/h | 6546m | -4.7m/s | -19.7°C | 4.9% | 448.6hPa | 2.7V | 02:37:21 | 03:12:59 | 00:00:00 | |
| AA1-15 | 2026-08-30 13:10:06 | 53.13569 | 11.44193 | 79° | 73km/h | 6555m | -4.4m/s | -19.7°C | 4.9% | 448hPa | 2.7V | 02:37:21 | 03:12:57 | 00:00:00 | |
| DF8AY | 2026-08-30 13:10:05 | 53.13565 | 11.44163 | 79° | 75km/h | 6560m | -4.4m/s | -19.8°C | 5% | 447.9hPa | 2.6V | 02:38:12 | 03:12:56 | 00:00:00 | |
| DO2SHX-10 | 2026-08-30 13:10:04 | 53.13561 | 11.44132 | 80° | 73km/h | 6564m | -4.5m/s | -19.8°C | 5.5% | 447.4hPa | 2.6V | 02:37:00 | 03:12:55 | 00:00:00 | |
| EDDB2-12 | 2026-08-30 13:10:03 | 53.13558 | 11.44102 | 79° | 73km/h | 6568m | -4.7m/s | -19.9°C | 4.9% | 447.3hPa | 2.7V | 00:00:00 | 00:00:00 | 00:00:00 | |
| AM1SDL-15 | 2026-08-30 13:10:02 | 53.13554 | 11.44071 | 79° | 75km/h | 6573m | -4.5m/s | -20.0°C | 5.6% | 446.9hPa | 2.7V | 02:37:00 | 03:12:53 | 00:00:00 | |
| DO2SHX-10 | 2026-08-30 13:10:01 | 53.13551 | 11.44041 | 79° | 75km/h | 6578m | -4.4m/s | -19.9°C | 5.5% | 446.6hPa | 2.7V | 00:00:00 | 03:12:52 | 00:00:00 | |
| DL1XH-15 | 2026-08-30 13:09:59 | 53.13532 | 11.43888 | 78° | 75km/h | 6601m | -4.4m/s | -20.1°C | 5.5% | 445.3hPa | 2.7V | 02:37:31 | 03:12:47 | 00:00:00 | |
| DL1XH1-15 | 2026-08-30 13:09:59 | 53.13540 | 11.43949 | 78° | 73km/h | 6592m | -4.5m/s | -20.1°C | 5.6% | 445.8hPa | 2.6V | 02:37:29 | 03:12:49 | 00:00:00 | |
| DL1XH-west | 2026-08-30 13:09:57 | 53.13536 | 11.43919 | 78° | 75km/h | 6596m | -4.5m/s | -20.1°C | 4.9% | 445.6hPa | 2.6V | 02:38:12 | 03:12:48 | 00:00:00 | |
| SMARD9-15 | 2026-08-30 13:09:56 | 53.13528 | 11.43858 | 78° | 73km/h | 6605m | -4.3m/s | -20.2°C | 4.9% | 445.1hPa | 2.7V | 00:00:00 | 00:00:00 | 00:00:00 | |
| DB0DAN | 2026-08-30 13:09:55 | 53.13528 | 11.43858 | 79° | 69km/h | 6605m | -4.3m/s | -20.2°C | 4.9% | 445.05hPa | 2.7V | 00:00:00 | 00:00:00 | 00:00:00 | |
| DO2SHX-10 | 2026-08-30 13:09:55 | 53.13528 | 11.43858 | 79° | 75km/h | 6605m | -4.3m/s | -20.1°C | 5.5% | 445.0hPa | 2.7V | 02:37:00 | 03:12:46 | 00:00:00 | |
| DF8AY | 2026-08-30 13:09:55 | 53.13525 | 11.43827 | 78° | 75km/h | 6610m | -4.3m/s | -20.2°C | 4.8% | 444.7hPa | 2.7V | 02:38:12 | 03:12:45 | 00:00:00 | |
| DF8AY-15 | 2026-08-30 13:09:52 | 53.13517 | 11.43765 | 79° | 75km/h | 6619m | -4.6m/s | -20.3°C | 5.5% | 444.2hPa | 2.6V | 00:00:00 | 03:12:43 | 00:00:00 | |
| AM1SDL-15 | 2026-08-30 13:09:50 | 53.13509 | 11.43704 | 78° | 75km/h | 6628m | -4.7m/s | -20.3°C | 5.4% | 443.7hPa | 2.6V | 00:00:00 | 03:12:41 | 00:00:00 | |
| DL1XH-15 | 2026-08-30 13:09:49 | 53.13493 | 11.43582 | 76° | 75km/h | 6646m | -4.6m/s | -20.6°C | 5.3% | 442.6hPa | 2.6V | 02:37:41 | 03:12:37 | 00:00:00 | |
| DL1XH-west | 2026-08-30 13:09:46 | 53.13493 | 11.43582 | 77° | 75km/h | 6646m | -4.6m/s | -20.6°C | 4.7% | 442.6hPa | 2.6V | 02:38:12 | 03:12:37 | 00:00:00 | |
| DO2SHX-10 | 2026-08-30 13:09:46 | 53.13492 | 11.43582 | 77° | 75km/h | 6646m | -4.6m/s | -20.5°C | 5.3% | 442.6hPa | 2.6V | 02:37:00 | 03:12:37 | 00:00:00 | |
| DM0DOS-11 | 2026-08-30 13:09:45 | 53.13467 | 11.43397 | 77° | 75km/h | 6673m | -4.6m/s | -20.8°C | 5.4% | 441hPa | 2.6V | 02:37:47 | 03:12:31 | 00:00:00 | |
| BIOWL1-15 | 2026-08-30 13:09:45 | 53.13488 | 11.43551 | 77° | 75km/h | 6651m | -4.4m/s | -20.7°C | 4.7% | 442.4hPa | 2.6V | 02:38:12 | 03:12:36 | 00:00:00 | |
| AA1-15 | 2026-08-30 13:09:43 | 53.13480 | 11.43489 | 78° | 75km/h | 6660m | -4.2m/s | -20.7°C | 4.6% | 441.8hPa | 2.7V | 02:38:12 | 03:12:34 | 00:00:00 | |
| DO2SHX-10 | 2026-08-30 13:09:43 | 53.13480 | 11.43489 | 78° | 75km/h | 6660m | -4.2m/s | -20.7°C | 5.3% | 441.7hPa | 2.6V | 00:00:00 | 03:12:34 | 00:00:00 | |
| SONDE2-11 | 2026-08-30 13:09:42 | 53.13476 | 11.43459 | 77° | 73km/h | 6664m | -4.3m/s | -20.7°C | 4.8% | 441.5hPa | 2.6V | 00:00:00 | 00:00:00 | 00:00:00 | |
| DB0DAN | 2026-08-30 13:09:40 | 53.13467 | 11.43397 | 78° | 73km/h | 6673m | -4.6m/s | -20.8°C | 4.8% | 440.96hPa | 2.6V | 00:00:00 | 00:00:00 | 00:00:00 | |
| DO2SHX-10 | 2026-08-30 13:09:40 | 53.13467 | 11.43397 | 78° | 75km/h | 6674m | -4.5m/s | -20.7°C | 5.4% | 440.9hPa | 2.7V | 00:00:00 | 03:12:31 | 00:00:00 | |
| DL1XH-15 | 2026-08-30 13:09:39 | 53.13452 | 11.43274 | 77° | 77km/h | 6691m | -4.5m/s | -20.9°C | 5.2% | 439.9hPa | 2.7V | 02:37:51 | 03:12:27 | 00:00:00 | |
| DL1XH-west | 2026-08-30 13:09:36 | 53.13452 | 11.43274 | 77° | 77km/h | 6691m | -4.5m/s | -21°C | 4.5% | 439.9hPa | 2.7V | 02:38:12 | 03:12:27 | 00:00:00 | |
| SONCRA | 2026-08-30 13:09:36 | 53.13448 | 11.43242 | 78° | 75km/h | 6696m | -4.5m/s | -21.0°C | 4.7% | 439.6hPa | 2.7V | 00:00:00 | 00:00:00 | 00:00:00 | |
| DM0DOS-11 | 2026-08-30 13:09:35 | 53.13427 | 11.43086 | 78° | 77km/h | 6719m | -4.5m/s | -21.2°C | 5.4% | 438.2hPa | 2.7V | 02:37:57 | 03:12:21 | 00:00:00 | |
| BIOWL1-15 | 2026-08-30 13:09:34 | 53.13444 | 11.43211 | 78° | 75km/h | 6700m | -4.6m/s | -21°C | 4.5% | 439.3hPa | 2.6V | 02:38:12 | 03:12:25 | 00:00:00 | |
| DF8AY | 2026-08-30 13:09:33 | 53.13439 | 11.43180 | 77° | 75km/h | 6705m | -4.5m/s | -21.1°C | 4.5% | 439hPa | 2.6V | 02:38:12 | 03:12:24 | 00:00:00 | |
| AA1-15 | 2026-08-30 13:09:32 | 53.13435 | 11.43149 | 77° | 77km/h | 6710m | -4.6m/s | -21.1°C | 4.6% | 438.8hPa | 2.7V | 02:38:12 | 03:12:23 | 00:00:00 | |
| DF8AY-15 | 2026-08-30 13:09:32 | 53.13435 | 11.43149 | 78° | 77km/h | 6710m | -4.5m/s | -21.1°C | 5.3% | 438.7hPa | 2.7V | 02:37:00 | 03:12:23 | 00:00:00 | |
| DO2SHX-10 | 2026-08-30 13:09:31 | 53.13431 | 11.43118 | 79° | 77km/h | 6714m | -4.3m/s | -21.1°C | 5.4% | 438.5hPa | 2.6V | 00:00:00 | 03:12:22 | 00:00:00 | |
| DO2SHX-10 | 2026-08-30 13:09:28 | 53.13419 | 11.43023 | 78° | 77km/h | 6728m | -4.7m/s | -21.2°C | 5.5% | 437.7hPa | 2.6V | 02:37:00 | 03:12:19 | 00:00:00 | |
| DB0DAN | 2026-08-30 13:09:25 | 53.13407 | 11.42928 | 78° | 73km/h | 6741m | -4.4m/s | -21.5°C | 5% | 436.91hPa | 2.7V | 00:00:00 | 00:00:00 | 00:00:00 | |
| DL1XH-west | 2026-08-30 13:09:25 | 53.13407 | 11.42928 | 78° | 77km/h | 6742m | -4.4m/s | -21.5°C | 5% | 436.9hPa | 2.7V | 02:38:12 | 03:12:16 | 00:00:00 | |
| BIOWL1-15 | 2026-08-30 13:09:24 | 53.13395 | 11.42832 | 79° | 78km/h | 6755m | -4.2m/s | -21.6°C | 5.2% | 436.1hPa | 2.6V | 02:38:12 | 03:12:13 | 00:00:00 | |
| DF8AY | 2026-08-30 13:09:24 | 53.13399 | 11.42864 | 79° | 78km/h | 6751m | -4.4m/s | -21.5°C | 5.2% | 436.4hPa | 2.6V | 02:38:12 | 03:12:14 | 00:00:00 | |
| DO2SHX-10 | 2026-08-30 13:09:22 | 53.13395 | 11.42832 | 79° | 78km/h | 6755m | -4.2m/s | -21.5°C | 5.7% | 436.0hPa | 2.7V | 00:00:00 | 03:12:13 | 00:00:00 | |
| DM0DOS-11 | 2026-08-30 13:09:21 | 53.13387 | 11.42768 | 77° | 78km/h | 6764m | -4.4m/s | -21.7°C | 5.7% | 435.5hPa | 2.7V | 02:38:07 | 03:12:11 | 00:00:00 | |
| AA1-15 | 2026-08-30 13:09:21 | 53.13391 | 11.42800 | 78° | 77km/h | 6760m | -4.2m/s | -21.6°C | 5.2% | 435.8hPa | 2.6V | 02:38:12 | 03:12:12 | 00:00:00 | |
| DL1XH-15 | 2026-08-30 13:09:19 | 53.13372 | 11.42640 | 78° | 78km/h | 6781m | -4.4m/s | -21.8°C | 5.9% | 434.5hPa | 2.5V | 02:38:11 | 03:12:07 | 00:00:00 | |
| DL1XH1-15 | 2026-08-30 13:09:19 | 53.13379 | 11.42703 | 79° | 77km/h | 6773m | -4.2m/s | -21.8°C | 5.8% | 435hPa | 2.6V | 02:38:09 | 03:12:09 | 00:00:00 | |
| DO2SHX-10 | 2026-08-30 13:09:19 | 53.13383 | 11.42735 | 80° | 77km/h | 6768m | -4.3m/s | -21.7°C | 5.8% | 435.2hPa | 2.6V | 02:38:00 | 03:12:10 | 00:00:00 | |
| DO2SHX-10 | 2026-08-30 13:09:16 | 53.13372 | 11.42640 | 79° | 78km/h | 6781m | -4.4m/s | -21.7°C | 5.9% | 434.5hPa | 2.6V | 00:00:00 | 03:12:07 | 00:00:00 | |
| DM0DOS-11 | 2026-08-30 13:09:15 | 53.13348 | 11.42445 | 78° | 78km/h | 6808m | -4.5m/s | -22°C | 5.7% | 432.9hPa | 2.6V | 02:38:17 | 03:12:01 | 00:00:00 | |
| DL1XH-west | 2026-08-30 13:09:15 | 53.13368 | 11.42608 | 79° | 78km/h | 6786m | -4.5m/s | -21.8°C | 5.4% | 434.2hPa | 2.6V | 02:38:12 | 03:12:06 | 00:00:00 | |
| AM1SDL-15 | 2026-08-30 13:09:14 | 53.13364 | 11.42575 | 80° | 78km/h | 6790m | -4.7m/s | -21.9°C | 5.9% | 433.9hPa | 2.6V | 00:00:00 | 03:12:05 | 00:00:00 | |
| DL1XH1-15 | 2026-08-30 13:09:13 | 53.13340 | 11.42381 | 77° | 78km/h | 6817m | -4.3m/s | -22.1°C | 5.6% | 432.4hPa | 2.6V | 02:38:19 | 03:11:59 | 00:00:00 | |
| BIOWL1-15 | 2026-08-30 13:09:13 | 53.13360 | 11.42543 | 78° | 78km/h | 6795m | -4.4m/s | -22°C | 5.3% | 433.7hPa | 2.6V | 02:39:03 | 03:12:04 | 00:00:00 | |
| DF8AY | 2026-08-30 13:09:12 | 53.13356 | 11.42511 | 78° | 78km/h | 6799m | -4.4m/s | -22°C | 5.2% | 433.4hPa | 2.6V | 02:39:03 | 03:12:03 | 00:00:00 | |
| AA1-15 | 2026-08-30 13:09:10 | 53.13348 | 11.42445 | 79° | 78km/h | 6808m | -4.5m/s | -22°C | 5.1% | 432.9hPa | 2.6V | 02:39:03 | 03:12:01 | 00:00:00 | |
| DB0DAN | 2026-08-30 13:09:10 | 53.13348 | 11.42445 | 79° | 75km/h | 6808m | -4.5m/s | -22°C | 5% | 432.95hPa | 2.6V | 00:00:00 | 00:00:00 | 00:00:00 | |
| DO2SHX-10 | 2026-08-30 13:09:10 | 53.13348 | 11.42445 | 79° | 78km/h | 6809m | -4.5m/s | -22.0°C | 5.7% | 432.9hPa | 2.6V | 02:38:00 | 03:12:01 | 00:00:00 | |
| DL1XH-15 | 2026-08-30 13:09:09 | 53.13332 | 11.42315 | 79° | 78km/h | 6826m | -4.3m/s | -22.2°C | 5.6% | 431.8hPa | 2.6V | 02:38:21 | 03:11:57 | 00:00:00 | |
| DL1XH-west | 2026-08-30 13:09:05 | 53.13328 | 11.42283 | 79° | 78km/h | 6831m | -4.5m/s | -22.2°C | 5.1% | 431.6hPa | 2.6V | 02:39:03 | 03:11:56 | 00:00:00 | |
| BIOWL1-15 | 2026-08-30 13:09:03 | 53.13321 | 11.42218 | 79° | 78km/h | 6840m | -4.6m/s | -22.3°C | 5.2% | 431hPa | 2.6V | 02:39:03 | 03:11:54 | 00:00:00 | |
| DF8AY | 2026-08-30 13:09:01 | 53.13313 | 11.42155 | 79° | 77km/h | 6849m | -4.3m/s | -22.5°C | 5.3% | 430.5hPa | 2.7V | 02:39:03 | 03:11:52 | 00:00:00 | |
| AA1-15 | 2026-08-30 13:08:59 | 53.13306 | 11.42091 | 79° | 77km/h | 6858m | -4.4m/s | -22.5°C | 5.4% | 430.1hPa | 2.6V | 02:39:03 | 03:11:50 | 00:00:00 | |
| DL1XH1-15 | 2026-08-30 13:08:59 | 53.13302 | 11.42060 | 78° | 77km/h | 6863m | -4.5m/s | -22.6°C | 5.8% | 429.7hPa | 2.6V | 02:38:29 | 03:11:49 | 00:00:00 | |
| S3001 | 2026-08-30 13:08:57 | 53.13298 | 11.42029 | 77° | 75km/h | 6867m | -4.5m/s | -22.7°C | 5.3% | 429.5hPa | 2.6V | 00:00:00 | 00:00:00 | 00:00:00 | |
| DB0DAN | 2026-08-30 13:08:55 | 53.13289 | 11.41966 | 77° | 75km/h | 6876m | -4.4m/s | -22.6°C | 5.4% | 428.87hPa | 2.6V | 00:00:00 | 00:00:00 | 00:00:00 | |
| DL1XH-west | 2026-08-30 13:08:55 | 53.13289 | 11.41966 | 77° | 78km/h | 6876m | -4.4m/s | -22.6°C | 5.7% | 428.9hPa | 2.6V | 02:39:03 | 03:11:46 | 00:00:00 | |
| DF7ER-10 | 2026-08-30 13:08:54 | 53.13285 | 11.41934 | 79° | 77km/h | 6881m | -4.5m/s | -22.7°C | 5.5% | 428.6hPa | 2.6V | 02:39:00 | 00:00:00 | 00:00:00 | |
| DM0DOS-11 | 2026-08-30 13:08:53 | 53.13269 | 11.41809 | 78° | 77km/h | 6899m | -4.2m/s | -22.8°C | 6.9% | 427.6hPa | 2.6V | 02:38:37 | 03:11:41 | 00:00:00 | |
| BIOWL1-15 | 2026-08-30 13:08:53 | 53.13281 | 11.41903 | 78° | 75km/h | 6885m | -4.6m/s | -22.8°C | 6% | 428.4hPa | 2.6V | 02:39:03 | 03:11:44 | 00:00:00 | |
| DF8AY | 2026-08-30 13:08:52 | 53.13273 | 11.41841 | 77° | 77km/h | 6894m | -4.6m/s | -22.8°C | 6.7% | 427.8hPa | 2.6V | 02:39:03 | 03:11:42 | 00:00:00 | |
| AA1-15 | 2026-08-30 13:08:48 | 53.13261 | 11.41747 | 78° | 75km/h | 6908m | -4.5m/s | -23°C | 7.2% | 427.1hPa | 2.6V | 02:39:03 | 03:11:39 | 00:00:00 | |
| DL1XH-west | 2026-08-30 13:08:44 | 53.13245 | 11.41623 | 77° | 75km/h | 6926m | -4.6m/s | -23.1°C | 7.3% | 426hPa | 2.6V | 02:39:03 | 03:11:35 | 00:00:00 | |
| BIOWL1-15 | 2026-08-30 13:08:42 | 53.13219 | 11.41435 | 77° | 78km/h | 6954m | -4.3m/s | -23.2°C | 7.3% | 424.4hPa | 2.6V | 02:39:03 | 03:11:29 | 00:00:00 | |
| DB0DAN | 2026-08-30 13:08:40 | 53.13228 | 11.41499 | 78° | 73km/h | 6945m | -4.6m/s | -23.2°C | 6.4% | 424.91hPa | 2.6V | 00:00:00 | 00:00:00 | 00:00:00 | |
| DF8AY | 2026-08-30 13:08:40 | 53.13228 | 11.41499 | 78° | 77km/h | 6945m | -4.6m/s | -23.2°C | 7.4% | 424.9hPa | 2.6V | 02:39:03 | 03:11:31 | 00:00:00 | |
| DO2SHX-10 | 2026-08-30 13:08:40 | 53.13227 | 11.41499 | 79° | 77km/h | 6945m | -4.5m/s | -23.1°C | 7.1% | 424.9hPa | 2.6V | 00:00:00 | 03:11:31 | 00:00:00 | |
| DL1XH1-15 | 2026-08-30 13:08:39 | 53.13219 | 11.41435 | 77° | 78km/h | 6954m | -4.3m/s | -23.2°C | 7.2% | 424.4hPa | 2.6V | 02:38:49 | 03:11:29 | 00:00:00 | |
| DL1XH-15 | 2026-08-30 13:08:38 | 53.13211 | 11.41370 | 78° | 78km/h | 6963m | -4.5m/s | -23.2°C | 7.2% | 423.8hPa | 2.6V | 02:38:51 | 03:11:27 | 00:00:00 | |
| AA1-15 | 2026-08-30 13:08:37 | 53.13215 | 11.41403 | 79° | 78km/h | 6958m | -4.5m/s | -23.2°C | 7.3% | 424.1hPa | 2.6V | 02:39:03 | 03:11:28 | 00:00:00 | |
| DL1XH-west | 2026-08-30 13:08:33 | 53.13199 | 11.41274 | 79° | 78km/h | 6976m | -4.3m/s | -23.3°C | 7.6% | 423.1hPa | 2.7V | 02:39:03 | 03:11:24 | 00:00:00 | |
| BIOWL1-15 | 2026-08-30 13:08:32 | 53.13195 | 11.41242 | 79° | 77km/h | 6981m | -4.4m/s | -23.4°C | 7.7% | 422.8hPa | 2.6V | 02:39:03 | 03:11:23 | 00:00:00 | |
| DF8AY-15 | 2026-08-30 13:08:32 | 53.13195 | 11.41242 | 80° | 78km/h | 6981m | -4.4m/s | -23.3°C | 7.6% | 422.8hPa | 2.6V | 02:38:00 | 03:11:23 | 00:00:00 | |
| DM0DOS-11 | 2026-08-30 13:08:31 | 53.13179 | 11.41115 | 79° | 77km/h | 6999m | -4.4m/s | -23.5°C | 7.7% | 421.8hPa | 2.6V | 02:38:59 | 03:11:19 | 00:00:00 | |
| DF8AY | 2026-08-30 13:08:30 | 53.13187 | 11.41179 | 78° | 77km/h | 6990m | -4.5m/s | -23.5°C | 7.8% | 422.3hPa | 2.6V | 02:39:03 | 03:11:21 | 00:00:00 | |
| EDDB2-12 | 2026-08-30 13:08:30 | 53.13187 | 11.41179 | 78° | 77km/h | 6989m | -4.5m/s | -23.5°C | 6.9% | 422.3hPa | 2.6V | 00:00:00 | 00:00:00 | 00:00:00 | |
| DL1XH-15 | 2026-08-30 13:08:28 | 53.13172 | 11.41051 | 77° | 77km/h | 7008m | -4.5m/s | -23.6°C | 7.9% | 421.3hPa | 2.6V | 02:39:01 | 03:11:17 | 00:00:00 | |
| AA1-15 | 2026-08-30 13:08:26 | 53.13172 | 11.41051 | 78° | 77km/h | 7008m | -4.5m/s | -23.6°C | 8.1% | 421.3hPa | 2.6V | 02:39:03 | 03:11:17 | 00:00:00 | |
| DB0DAN | 2026-08-30 13:08:25 | 53.13168 | 11.41019 | 78° | 75km/h | 7012m | -4.6m/s | -23.7°C | 7% | 420.99hPa | 2.6V | 00:00:00 | 00:00:00 | 00:00:00 | |
| DL1XH-west | 2026-08-30 13:08:23 | 53.13160 | 11.40954 | 78° | 78km/h | 7021m | -4.6m/s | -23.7°C | 8.3% | 420.5hPa | 2.7V | 02:39:54 | 03:11:14 | 00:00:00 | |
| DF8AY | 2026-08-30 13:08:19 | 53.13143 | 11.40822 | 78° | 80km/h | 7040m | -4.5m/s | -23.8°C | 8% | 419.4hPa | 2.6V | 02:39:54 | 03:11:10 | 00:00:00 | |
| DL1XH-15 | 2026-08-30 13:08:18 | 53.13129 | 11.40724 | 76° | 82km/h | 7053m | -4.4m/s | -23.9°C | 7.5% | 418.6hPa | 2.6V | 02:39:11 | 03:11:07 | 00:00:00 | |
| AA1-15 | 2026-08-30 13:08:15 | 53.13125 | 11.40691 | 77° | 80km/h | 7058m | -4.4m/s | -24°C | 7.8% | 418.4hPa | 2.6V | 02:39:54 | 03:11:06 | 00:00:00 | |
| DL1XH-west | 2026-08-30 13:08:13 | 53.13116 | 11.40626 | 77° | 78km/h | 7067m | -4.5m/s | -24°C | 7.7% | 417.9hPa | 2.6V | 02:39:54 | 03:11:04 | 00:00:00 | |
| DO2SHX-10 | 2026-08-30 13:08:13 | 53.13116 | 11.40626 | 77° | 80km/h | 7067m | -4.4m/s | -23.9°C | 7.6% | 417.9hPa | 2.6V | 00:00:00 | 03:11:04 | 00:00:00 | |
| DF8AY-15 | 2026-08-30 13:08:12 | 53.13111 | 11.40593 | 78° | 80km/h | 7071m | -4.4m/s | -24.0°C | 7.6% | 417.5hPa | 2.6V | 00:00:00 | 03:11:03 | 00:00:00 | |
| DM0DOS-11 | 2026-08-30 13:08:11 | 53.13094 | 11.40461 | 78° | 80km/h | 7090m | -4.5m/s | -24.1°C | 7.4% | 416.6hPa | 2.6V | 02:39:19 | 03:10:59 | 00:00:00 | |
| DB0DAN | 2026-08-30 13:08:10 | 53.13103 | 11.40527 | 78° | 77km/h | 7081m | -4.5m/s | -24.1°C | 6.7% | 417.07hPa | 2.6V | 00:00:00 | 00:00:00 | 00:00:00 | |
| DF8AY | 2026-08-30 13:08:09 | 53.13099 | 11.40494 | 78° | 80km/h | 7085m | -4.5m/s | -24.2°C | 7.6% | 416.8hPa | 2.6V | 02:39:54 | 03:11:00 | 00:00:00 | |
| BIOWL1-15 | 2026-08-30 13:08:09 | 53.13041 | 11.40034 | 80° | 80km/h | 7150m | -4.7m/s | -24.7°C | 7.8% | 413.1hPa | 2.6V | 02:39:54 | 03:10:46 | 00:00:00 | |
| DL1XH-15 | 2026-08-30 13:08:08 | 53.13087 | 11.40394 | 78° | 78km/h | 7099m | -4.6m/s | -24.2°C | 7.5% | 416hPa | 2.6V | 02:39:21 | 03:10:57 | 00:00:00 | |
| AA1-15 | 2026-08-30 13:08:04 | 53.13078 | 11.40329 | 77° | 80km/h | 7108m | -4.4m/s | -24.3°C | 7.6% | 415.5hPa | 2.6V | 02:39:54 | 03:10:55 | 00:00:00 | |
| DL1XH-west | 2026-08-30 13:08:02 | 53.13070 | 11.40263 | 78° | 78km/h | 7117m | -4.7m/s | -24.5°C | 7.6% | 415hPa | 2.6V | 02:39:54 | 03:10:53 | 00:00:00 | |
| DF8AY | 2026-08-30 13:07:58 | 53.13053 | 11.40132 | 79° | 78km/h | 7136m | -4.6m/s | -24.6°C | 7.7% | 413.9hPa | 2.6V | 02:39:54 | 03:10:49 | 00:00:00 | |
| DJ2DS-15 | 2026-08-30 13:07:57 | 53.13049 | 11.40100 | 78° | 77km/h | 7140m | -4.7m/s | -24.5°C | 6.7% | 413.7hPa | 2.6V | 00:00:00 | 00:00:00 | 00:00:00 | |
| DB0DAN | 2026-08-30 13:07:55 | 53.13041 | 11.40034 | 79° | 77km/h | 7150m | -4.7m/s | -24.7°C | 6.7% | 413.15hPa | 2.6V | 00:00:00 | 00:00:00 | 00:00:00 | |
| AA1-15 | 2026-08-30 13:07:53 | 53.13034 | 11.39968 | 79° | 78km/h | 7159m | -4.5m/s | -24.8°C | 7.9% | 412.6hPa | 2.6V | 02:39:54 | 03:10:44 | 00:00:00 | |
| DO2SHX-10 | 2026-08-30 13:07:52 | 53.13030 | 11.39936 | 80° | 78km/h | 7164m | -4.5m/s | -24.8°C | 7.6% | 412.3hPa | 2.6V | 00:00:00 | 03:10:43 | 00:00:00 | |
| DM0DOS-11 | 2026-08-30 13:07:51 | 53.13016 | 11.39808 | 78° | 77km/h | 7182m | -4.4m/s | -24.9°C | 7.6% | 411.3hPa | 2.6V | 02:39:39 | 03:10:39 | 00:00:00 | |
| DL1XH-west | 2026-08-30 13:07:51 | 53.13027 | 11.39903 | 80° | 78km/h | 7169m | -4.6m/s | -24.9°C | 7.9% | 412.1hPa | 2.6V | 02:39:54 | 03:10:42 | 00:00:00 | |
| BIOWL1-15 | 2026-08-30 13:07:49 | 53.13013 | 11.39777 | 80° | 77km/h | 7187m | -4.5m/s | -25°C | 7.9% | 411.1hPa | 2.6V | 02:39:54 | 03:10:38 | 00:00:00 | |
| DL1XH-15 | 2026-08-30 13:07:49 | 53.13009 | 11.39745 | 79° | 77km/h | 7192m | -4.7m/s | -25°C | 7.6% | 410.8hPa | 2.6V | 02:39:41 | 03:10:37 | 00:00:00 | |
| DF8AY | 2026-08-30 13:07:48 | 53.13016 | 11.39808 | 78° | 77km/h | 7182m | -4.4m/s | -24.9°C | 7.9% | 411.3hPa | 2.6V | 02:39:54 | 03:10:39 | 00:00:00 | |
| AA1-15 | 2026-08-30 13:07:42 | 53.12995 | 11.39617 | 80° | 78km/h | 7210m | -4.5m/s | -25.1°C | 7.7% | 409.7hPa | 2.6V | 02:39:54 | 03:10:33 | 00:00:00 | |
| DB0DAN | 2026-08-30 13:07:40 | 53.12988 | 11.39553 | 79° | 75km/h | 7219m | -4.6m/s | -25.1°C | 6.5% | 409.19hPa | 2.6V | 00:00:00 | 00:00:00 | 00:00:00 | |
| DO2SHX-10 | 2026-08-30 13:07:40 | 53.12988 | 11.39553 | 80° | 78km/h | 7219m | -4.5m/s | -25.1°C | 7.4% | 409.1hPa | 2.6V | 02:39:00 | 03:10:31 | 00:00:00 | |
| DL1XH-west | 2026-08-30 13:07:40 | 53.12988 | 11.39553 | 79° | 78km/h | 7219m | -4.6m/s | -25.1°C | 7.5% | 409.2hPa | 2.6V | 02:39:54 | 03:10:31 | 00:00:00 | |
| DL1XH1-15 | 2026-08-30 13:07:39 | 53.12981 | 11.39488 | 80° | 77km/h | 7229m | -4.6m/s | -25.2°C | 7.1% | 408.6hPa | 2.6V | 02:39:49 | 03:10:29 | 00:00:00 | |
| DF8AY | 2026-08-30 13:07:37 | 53.12977 | 11.39457 | 79° | 77km/h | 7233m | -4.6m/s | -25.2°C | 7.1% | 408.4hPa | 2.6V | 02:39:54 | 03:10:28 | 00:00:00 | |
| BIOWL1-15 | 2026-08-30 13:07:36 | 53.12966 | 11.39361 | 80° | 78km/h | 7247m | -4.5m/s | -25.2°C | 6.8% | 407.6hPa | 2.6V | 02:39:54 | 03:10:25 | 00:00:00 | |
| DO2SHX-10 | 2026-08-30 13:07:34 | 53.12966 | 11.39361 | 80° | 77km/h | 7247m | -4.5m/s | -25.2°C | 6.9% | 407.6hPa | 2.6V | 00:00:00 | 03:10:25 | 00:00:00 | |
| DC4HF-4 | 2026-08-30 13:07:33 | 53.12963 | 11.39329 | 79° | 77km/h | 7251m | -4.5m/s | -25.2°C | 6.0% | 407.4hPa | 2.6V | 00:00:00 | 00:00:00 | 00:00:00 | |
| DF8AY-15 | 2026-08-30 13:07:32 | 53.12959 | 11.39297 | 80° | 80km/h | 7257m | -4.6m/s | -25.2°C | 6.7% | 407.2hPa | 2.6V | 02:39:00 | 03:10:23 | 00:00:00 | |
| DM0DOS-11 | 2026-08-30 13:07:31 | 53.12946 | 11.39166 | 80° | 78km/h | 7275m | -4.7m/s | -25.4°C | 6.6% | 406.1hPa | 2.6V | 02:39:59 | 03:10:19 | 00:00:00 | |
| AA1-15 | 2026-08-30 13:07:31 | 53.12955 | 11.39265 | 80° | 78km/h | 7261m | -4.6m/s | -25.3°C | 6.5% | 406.9hPa | 2.6V | 02:40:45 | 03:10:22 | 00:00:00 | |
| DL1XH-west | 2026-08-30 13:07:29 | 53.12949 | 11.39199 | 81° | 78km/h | 7270m | -4.7m/s | -25.4°C | 6.3% | 406.4hPa | 2.6V | 02:40:45 | 03:10:20 | 00:00:00 | |
| DF8AY | 2026-08-30 13:07:26 | 53.12939 | 11.39100 | 81° | 80km/h | 7284m | -4.5m/s | -25.4°C | 6.3% | 405.6hPa | 2.6V | 02:40:45 | 03:10:17 | 00:00:00 | |
| DB0DAN | 2026-08-30 13:07:25 | 53.12935 | 11.39066 | 81° | 77km/h | 7289m | -4.7m/s | -25.4°C | 5.8% | 405.22hPa | 2.6V | 00:00:00 | 00:00:00 | 00:00:00 | |
| BIOWL1-15 | 2026-08-30 13:07:24 | 53.12932 | 11.39033 | 81° | 80km/h | 7294m | -4.5m/s | -25.4°C | 6.2% | 405.1hPa | 2.6V | 02:40:45 | 03:10:15 | 00:00:00 | |
| AA1-15 | 2026-08-30 13:07:20 | 53.12918 | 11.38898 | 80° | 82km/h | 7313m | -4.6m/s | -25.5°C | 6% | 404hPa | 2.6V | 02:40:45 | 03:10:11 | 00:00:00 | |
| DL1XH1-15 | 2026-08-30 13:07:19 | 53.12911 | 11.38830 | 79° | 82km/h | 7322m | -4.5m/s | -25.5°C | 6% | 403.5hPa | 2.6V | 02:40:09 | 03:10:09 | 00:00:00 | |
| DL1XH-west | 2026-08-30 13:07:19 | 53.12915 | 11.38864 | 80° | 82km/h | 7317m | -4.6m/s | -25.6°C | 5.9% | 403.7hPa | 2.6V | 02:40:45 | 03:10:10 | 00:00:00 | |
| DO2SHX-10 | 2026-08-30 13:07:19 | 53.12914 | 11.38864 | 80° | 82km/h | 7318m | -4.5m/s | -25.5°C | 6.2% | 403.7hPa | 2.6V | 00:00:00 | 03:10:10 | 00:00:00 | |
| DL1XH-15 | 2026-08-30 13:07:18 | 53.12904 | 11.38763 | 80° | 80km/h | 7331m | -4.4m/s | -25.6°C | 6% | 402.9hPa | 2.6V | 02:40:11 | 03:10:07 | 00:00:00 | |
| DF8AY | 2026-08-30 13:07:15 | 53.12900 | 11.38730 | 79° | 78km/h | 7336m | -4.6m/s | -25.7°C | 5.7% | 402.7hPa | 2.6V | 02:40:45 | 03:10:06 | 00:00:00 | |
| BIOWL1-15 | 2026-08-30 13:07:13 | 53.12880 | 11.38562 | 78° | 80km/h | 7359m | -4.5m/s | -25.7°C | 5.5% | 401.4hPa | 2.6V | 02:40:45 | 03:10:01 | 00:00:00 | |
| DO2SHX-10 | 2026-08-30 13:07:13 | 53.12892 | 11.38664 | 79° | 82km/h | 7345m | -4.8m/s | -25.6°C | 5.9% | 402.1hPa | 2.5V | 02:40:00 | 03:10:04 | 00:00:00 | |
| DF8AY-15 | 2026-08-30 13:07:12 | 53.12887 | 11.38630 | 79° | 82km/h | 7350m | -4.6m/s | -25.7°C | 5.9% | 401.8hPa | 2.6V | 00:00:00 | 03:10:03 | 00:00:00 | |
| DM0DOS-11 | 2026-08-30 13:07:11 | 53.12870 | 11.38495 | 77° | 84km/h | 7368m | -4.7m/s | -25.8°C | 5.9% | 400.9hPa | 2.6V | 02:40:19 | 03:09:59 | 00:00:00 | |
| DL1XH-15 | 2026-08-30 13:07:11 | 53.12862 | 11.38426 | 78° | 84km/h | 7378m | -4.5m/s | -25.9°C | 5.9% | 400.4hPa | 2.6V | 02:40:21 | 03:09:57 | 00:00:00 | |
| DB0DAN | 2026-08-30 13:07:10 | 53.12880 | 11.38562 | 78° | 77km/h | 7359m | -4.5m/s | -25.7°C | 5.1% | 401.35hPa | 2.6V | 00:00:00 | 00:00:00 | 00:00:00 | |
| DL1XH-west | 2026-08-30 13:07:09 | 53.12875 | 11.38529 | 78° | 82km/h | 7364m | -4.5m/s | -25.7°C | 5.6% | 401.1hPa | 2.6V | 02:40:45 | 03:10:00 | 00:00:00 | |
| DF8AY | 2026-08-30 13:07:05 | 53.12858 | 11.38391 | 78° | 82km/h | 7382m | -4.6m/s | -26°C | 5.6% | 400.1hPa | 2.6V | 02:40:45 | 03:09:56 | 00:00:00 | |
| BIOWL1-15 | 2026-08-30 13:07:03 | 53.12841 | 11.38254 | 79° | 80km/h | 7401m | -4.5m/s | -26°C | 5.5% | 399hPa | 2.6V | 02:40:45 | 03:09:52 | 00:00:00 | |
| DL1XH-15 | 2026-08-30 13:07:01 | 53.12821 | 11.38086 | 77° | 80km/h | 7425m | -4.7m/s | -26.2°C | 6.1% | 397.8hPa | 2.6V | 02:40:31 | 03:09:47 | 00:00:00 | |
| DO2SHX-10 | 2026-08-30 13:07:01 | 53.12841 | 11.38254 | 79° | 82km/h | 7401m | -4.5m/s | -26.0°C | 5.9% | 399.0hPa | 2.6V | 00:00:00 | 03:09:52 | 00:00:00 | |
| DD8BA-10 | 2026-08-30 13:07:00 | 53.12837 | 11.38221 | 79° | 82km/h | 7406m | -4.5m/s | -26.0°C | 6.0% | 398.8hPa | 2.6V | 00:00:00 | 00:00:00 | 00:00:00 | |
| DL1XH1-15 | 2026-08-30 13:06:59 | 53.12829 | 11.38153 | 79° | 82km/h | 7415m | -4.7m/s | -26.1°C | 6% | 398.3hPa | 2.6V | 02:40:29 | 03:09:49 | 00:00:00 | |
| DL1XH-west | 2026-08-30 13:06:59 | 53.12833 | 11.38187 | 79° | 82km/h | 7411m | -4.8m/s | -26.1°C | 5.6% | 398.6hPa | 2.6V | 02:40:45 | 03:09:50 | 00:00:00 | |
| AA1-15 | 2026-08-30 13:06:58 | 53.12829 | 11.38153 | 80° | 82km/h | 7415m | -4.7m/s | -26.1°C | 5.7% | 398.3hPa | 2.6V | 02:40:45 | 03:09:49 | 00:00:00 | |
| EDDB2-12 | 2026-08-30 13:06:57 | 53.12821 | 11.38086 | 77° | 80km/h | 7425m | -4.7m/s | -26.2°C | 5.3% | 397.8hPa | 2.6V | 00:00:00 | 00:00:00 | 00:00:00 | |
| DB0DAN | 2026-08-30 13:06:55 | 53.12816 | 11.38052 | 78° | 78km/h | 7430m | -4.3m/s | -26.2°C | 5.2% | 397.52hPa | 2.6V | 00:00:00 | 00:00:00 | 00:00:00 | |
| DF8AY | 2026-08-30 13:06:54 | 53.12812 | 11.38018 | 79° | 84km/h | 7434m | -4.7m/s | -26.3°C | 5.7% | 397.3hPa | 2.6V | 02:40:45 | 03:09:45 | 00:00:00 | |
| DL1XH-west | 2026-08-30 13:06:48 | 53.12788 | 11.37811 | 79° | 84km/h | 7463m | -4.5m/s | -26.5°C | 5.8% | 395.8hPa | 2.6V | 02:40:45 | 03:09:39 | 00:00:00 | |
| AA1-15 | 2026-08-30 13:06:47 | 53.12784 | 11.37777 | 78° | 84km/h | 7468m | -4.5m/s | -26.5°C | 5.7% | 395.4hPa | 2.6V | 02:40:45 | 03:09:38 | 00:00:00 | |
| DJ2DS-15 | 2026-08-30 13:06:45 | 53.12775 | 11.37707 | 78° | 86km/h | 7477m | -4.6m/s | -26.6°C | 5.2% | 394.9hPa | 2.6V | 00:00:00 | 00:00:00 | 00:00:00 | |
| BIOWL1-15 | 2026-08-30 13:06:44 | 53.12746 | 11.37462 | 79° | 82km/h | 7511m | -4.7m/s | -26.8°C | 5.8% | 393.1hPa | 2.6V | 02:41:36 | 03:09:29 | 00:00:00 | |
| DF8AY | 2026-08-30 13:06:43 | 53.12767 | 11.37637 | 79° | 84km/h | 7486m | -4.9m/s | -26.6°C | 5.7% | 394.5hPa | 2.6V | 02:40:45 | 03:09:34 | 00:00:00 | |
| DO2SHX-10 | 2026-08-30 13:06:43 | 53.12767 | 11.37636 | 79° | 86km/h | 7486m | -4.9m/s | -26.6°C | 6.0% | 394.4hPa | 2.6V | 00:00:00 | 03:09:34 | 00:00:00 | |
| DB0DAN | 2026-08-30 13:06:40 | 53.12754 | 11.37531 | 79° | 80km/h | 7501m | -4.8m/s | -26.7°C | 5.3% | 393.64hPa | 2.6V | 00:00:00 | 00:00:00 | 00:00:00 | |
| DL1XH-west | 2026-08-30 13:06:37 | 53.12742 | 11.37428 | 78° | 84km/h | 7515m | -4.9m/s | -26.9°C | 5.8% | 392.8hPa | 2.6V | 02:41:36 | 03:09:28 | 00:00:00 | |
| DF8AY | 2026-08-30 13:06:32 | 53.12723 | 11.37256 | 80° | 84km/h | 7540m | -4.7m/s | -27.1°C | 6% | 391.6hPa | 2.6V | 02:41:36 | 03:09:23 | 00:00:00 | |
| DF8AY-15 | 2026-08-30 13:06:32 | 53.12723 | 11.37256 | 80° | 86km/h | 7540m | -4.6m/s | -27.0°C | 6.1% | 391.5hPa | 2.6V | 02:40:00 | 03:09:23 | 00:00:00 | |
| DO2SHX-10 | 2026-08-30 13:06:31 | 53.12719 | 11.37221 | 81° | 84km/h | 7545m | -4.7m/s | -27.1°C | 6.2% | 391.3hPa | 2.6V | 00:00:00 | 03:09:22 | 00:00:00 | |
| DM0DOS-11 | 2026-08-30 13:06:30 | 53.12708 | 11.37117 | 78° | 84km/h | 7559m | -4.5m/s | -27.2°C | 6.3% | 390.5hPa | 2.6V | 02:40:59 | 03:09:19 | 00:00:00 | |
| BIOWL1-15 | 2026-08-30 13:06:30 | 53.12716 | 11.37186 | 81° | 84km/h | 7549m | -4.8m/s | -27.2°C | 6% | 391hPa | 2.6V | 02:41:36 | 03:09:21 | 00:00:00 | |
| DD8BA-10 | 2026-08-30 13:06:30 | 53.12716 | 11.37186 | 81° | 86km/h | 7549m | -4.7m/s | -27.1°C | 6.2% | 390.9hPa | 2.6V | 00:00:00 | 00:00:00 | 00:00:00 | |
| SONCRA | 2026-08-30 13:06:29 | 53.12712 | 11.37152 | 80° | 82km/h | 7554m | -4.6m/s | -27.2°C | 5.3% | 390.8hPa | 2.6V | 00:00:00 | 00:00:00 | 00:00:00 | |
| DL1XH-15 | 2026-08-30 13:06:28 | 53.12700 | 11.37047 | 80° | 84km/h | 7568m | -4.8m/s | -27.2°C | 6.3% | 390hPa | 2.6V | 02:41:01 | 03:09:17 | 00:00:00 | |
| DL1XH-west | 2026-08-30 13:06:26 | 53.12700 | 11.37047 | 80° | 84km/h | 7568m | -4.8m/s | -27.2°C | 6% | 390hPa | 2.6V | 02:41:36 | 03:09:17 | 00:00:00 | |
| DB0DAN | 2026-08-30 13:06:25 | 53.12697 | 11.37012 | 79° | 80km/h | 7573m | -4.6m/s | -27.3°C | 5.4% | 389.7hPa | 2.6V | 00:00:00 | 00:00:00 | 00:00:00 | |
| BIOWL1-15 | 2026-08-30 13:06:24 | 53.12676 | 11.36834 | 79° | 84km/h | 7597m | -4.6m/s | -27.5°C | 6.1% | 388.4hPa | 2.6V | 02:41:36 | 03:09:11 | 00:00:00 | |
| DF8AY | 2026-08-30 13:06:22 | 53.12684 | 11.36905 | 80° | 88km/h | 7587m | -4.6m/s | -27.5°C | 6.1% | 388.9hPa | 2.6V | 02:41:36 | 03:09:13 | 00:00:00 | |
| DC4HF-4 | 2026-08-30 13:06:21 | 53.12680 | 11.36869 | 79° | 84km/h | 7592m | -4.7m/s | -27.4°C | 5.4% | 388.7hPa | 2.6V | 00:00:00 | 00:00:00 | 00:00:00 | |
| DL1XH1-15 | 2026-08-30 13:06:19 | 53.12667 | 11.36763 | 79° | 86km/h | 7607m | -4.8m/s | -27.6°C | 6.3% | 387.9hPa | 2.6V | 02:41:09 | 03:09:09 | 00:00:00 | |
| AA1-15 | 2026-08-30 13:06:16 | 53.12660 | 11.36693 | 80° | 84km/h | 7616m | -4.8m/s | -27.6°C | 6.1% | 387.4hPa | 2.6V | 02:41:36 | 03:09:07 | 00:00:00 | |
| DL1XH-west | 2026-08-30 13:06:15 | 53.12656 | 11.36658 | 79° | 84km/h | 7621m | -4.9m/s | -27.6°C | 6.1% | 387.1hPa | 2.6V | 02:41:36 | 03:09:06 | 00:00:00 | |
| DF8AY | 2026-08-30 13:06:11 | 53.12641 | 11.36517 | 80° | 86km/h | 7641m | -4.7m/s | -27.8°C | 6.1% | 386.1hPa | 2.6V | 02:41:36 | 03:09:02 | 00:00:00 | |
| DM0DOS-11 | 2026-08-30 13:06:10 | 53.12629 | 11.36410 | 80° | 88km/h | 7655m | -4.7m/s | -27.9°C | 6.3% | 385.3hPa | 2.6V | 02:41:19 | 03:08:59 | 00:00:00 | |
| DB0DAN | 2026-08-30 13:06:10 | 53.12637 | 11.36482 | 79° | 82km/h | 7646m | -4.7m/s | -27.8°C | 5.4% | 385.76hPa | 2.6V | 00:00:00 | 00:00:00 | 00:00:00 | |
| BIOWL1-15 | 2026-08-30 13:06:08 | 53.12629 | 11.36410 | 80° | 88km/h | 7655m | -4.7m/s | -27.9°C | 6.2% | 385.3hPa | 2.6V | 02:41:36 | 03:08:59 | 00:00:00 | |
| DL1XH-west | 2026-08-30 13:06:05 | 53.12617 | 11.36302 | 79° | 88km/h | 7670m | -4.8m/s | -28°C | 6.2% | 384.5hPa | 2.6V | 02:41:36 | 03:08:56 | 00:00:00 | |
| DF8AY | 2026-08-30 13:06:00 | 53.12597 | 11.36122 | 79° | 88km/h | 7694m | -5m/s | -28°C | 6.7% | 383.1hPa | 2.6V | 02:41:36 | 03:08:51 | 00:00:00 | |
| DM0DOS-11 | 2026-08-30 13:05:59 | 53.12590 | 11.36049 | 80° | 88km/h | 7704m | -4.8m/s | -28.1°C | 6.9% | 382.6hPa | 2.6V | 02:41:29 | 03:08:49 | 00:00:00 | |
| DD8BA-10 | 2026-08-30 13:05:59 | 53.12593 | 11.36086 | 81° | 88km/h | 7699m | -4.7m/s | -28.0°C | 6.9% | 382.9hPa | 2.6V | 00:00:00 | 00:00:00 | 00:00:00 | |
| DO2SHX-10 | 2026-08-30 13:05:58 | 53.12590 | 11.36049 | 81° | 88km/h | 7704m | -4.7m/s | -28.1°C | 6.9% | 382.6hPa | 2.6V | 00:00:00 | 03:08:49 | 00:00:00 | |
| DL1XH-15 | 2026-08-30 13:05:57 | 53.12582 | 11.35978 | 79° | 88km/h | 7714m | -4.8m/s | -28.2°C | 7% | 382.1hPa | 2.6V | 02:41:31 | 03:08:47 | 00:00:00 | |
| DB0DAN | 2026-08-30 13:05:55 | 53.12578 | 11.35941 | 80° | 84km/h | 7718m | -4.8m/s | -28.2°C | 6% | 381.9hPa | 2.6V | 00:00:00 | 00:00:00 | 00:00:00 | |
| DL1XH-west | 2026-08-30 13:05:55 | 53.12578 | 11.35941 | 80° | 89km/h | 7718m | -4.8m/s | -28.2°C | 7.2% | 381.9hPa | 2.6V | 02:41:36 | 03:08:46 | 00:00:00 | |
| DF8AY | 2026-08-30 13:05:50 | 53.12560 | 11.35758 | 81° | 89km/h | 7743m | -4.6m/s | -28.3°C | 7.2% | 380.6hPa | 2.6V | 02:42:27 | 03:08:41 | 00:00:00 | |
| DM0DOS-11 | 2026-08-30 13:05:49 | 53.12553 | 11.35684 | 80° | 89km/h | 7752m | -4.8m/s | -28.4°C | 7.2% | 380.1hPa | 2.6V | 02:41:39 | 03:08:39 | 00:00:00 | |
| EDDB2-11 | 2026-08-30 13:05:48 | 53.12553 | 11.35684 | 80° | 88km/h | 7752m | -4.8m/s | -28.4°C | 0% | 380.1hPa | 2.6V | 00:00:00 | 00:00:00 | 00:00:00 | |
| DL1XH-15 | 2026-08-30 13:05:47 | 53.12545 | 11.35610 | 81° | 89km/h | 7762m | -5.1m/s | -28.6°C | 7.2% | 379.5hPa | 2.6V | 02:41:41 | 03:08:37 | 00:00:00 | |
| DL1XH-west | 2026-08-30 13:05:45 | 53.12542 | 11.35573 | 81° | 88km/h | 7767m | -4.8m/s | -28.7°C | 7.4% | 379.2hPa | 2.6V | 02:42:27 | 03:08:36 | 00:00:00 | |
| AA1-15 | 2026-08-30 13:05:45 | 53.12538 | 11.35536 | 80° | 88km/h | 7772m | -4.8m/s | -28.7°C | 7.5% | 379hPa | 2.6V | 02:42:27 | 03:08:35 | 00:00:00 | |
| DO2SHX-10 | 2026-08-30 13:05:43 | 53.12534 | 11.35500 | 80° | 88km/h | 7777m | -4.8m/s | -28.6°C | 7.3% | 378.6hPa | 2.6V | 02:41:00 | 03:08:34 | 00:00:00 | |
| TFSTFS | 2026-08-30 13:05:42 | 53.12534 | 11.35500 | 81° | 88km/h | 7777m | -4.8m/s | -28.7°C | 6.3% | 378.7hPa | 2.6V | 02:42:00 | 00:00:00 | 00:00:00 | |
| DL1XH-15 | 2026-08-30 13:05:41 | 53.12508 | 11.35245 | 81° | 88km/h | 7812m | -5.2m/s | -29°C | 7.2% | 376.9hPa | 2.6V | 02:41:51 | 03:08:27 | 00:00:00 | |
| DB0DAN | 2026-08-30 13:05:40 | 53.12523 | 11.35391 | 80° | 82km/h | 7792m | -4.9m/s | -28.8°C | 6.2% | 377.92hPa | 2.6V | 00:00:00 | 00:00:00 | 00:00:00 | |
| DF8AY | 2026-08-30 13:05:39 | 53.12519 | 11.35355 | 80° | 86km/h | 7797m | -4.9m/s | -28.9°C | 7.6% | 377.6hPa | 2.6V | 02:42:27 | 03:08:30 | 00:00:00 | |
| DL1XH1-15 | 2026-08-30 13:05:39 | 53.12515 | 11.35319 | 79° | 88km/h | 7802m | -4.9m/s | -28.8°C | 7.2% | 377.5hPa | 2.6V | 02:41:49 | 03:08:29 | 00:00:00 | |
| DL1XH-west | 2026-08-30 13:05:34 | 53.12501 | 11.35173 | 80° | 88km/h | 7822m | -4.9m/s | -29°C | 7.4% | 376.4hPa | 2.6V | 02:42:27 | 03:08:25 | 00:00:00 | |
| AA1-15 | 2026-08-30 13:05:33 | 53.12497 | 11.35136 | 80° | 89km/h | 7827m | -5m/s | -29°C | 7.5% | 376.1hPa | 2.6V | 02:42:27 | 03:08:24 | 00:00:00 | |
| DJ2DS-15 | 2026-08-30 13:05:33 | 53.12497 | 11.35136 | 80° | 88km/h | 7827m | -5.0m/s | -29.0°C | 6.4% | 376.1hPa | 2.6V | 00:00:00 | 00:00:00 | 00:00:00 | |
| DF8AY-15 | 2026-08-30 13:05:32 | 53.12494 | 11.35099 | 82° | 89km/h | 7832m | -4.9m/s | -29.0°C | 7.4% | 375.8hPa | 2.6V | 02:41:00 | 03:08:23 | 00:00:00 | |
| DO2SHX-10 | 2026-08-30 13:05:31 | 53.12490 | 11.35062 | 82° | 88km/h | 7838m | -5.0m/s | -29.1°C | 7.4% | 375.6hPa | 2.6V | 00:00:00 | 03:08:22 | 00:00:00 | |
| DL1XH-15 | 2026-08-30 13:05:30 | 53.12471 | 11.34877 | 80° | 89km/h | 7862m | -4.9m/s | -29.3°C | 7.4% | 374.3hPa | 2.6V | 02:42:01 | 03:08:17 | 00:00:00 | |
| BIOWL1-15 | 2026-08-30 13:05:29 | 53.12467 | 11.34840 | 80° | 89km/h | 7867m | -4.9m/s | -29.4°C | 7.9% | 374hPa | 2.6V | 02:42:27 | 03:08:16 | 00:00:00 | |
| DF8AY | 2026-08-30 13:05:29 | 53.12483 | 11.34989 | 80° | 89km/h | 7847m | -4.8m/s | -29.1°C | 7.7% | 375.1hPa | 2.6V | 02:42:27 | 03:08:20 | 00:00:00 | |
| DD8BA-10 | 2026-08-30 13:05:29 | 53.12483 | 11.34988 | 80° | 89km/h | 7847m | -4.8m/s | -29.1°C | 7.5% | 375.0hPa | 2.6V | 00:00:00 | 00:00:00 | 00:00:00 | |
| DO2SHX-10 | 2026-08-30 13:05:28 | 53.12479 | 11.34951 | 80° | 89km/h | 7853m | -4.9m/s | -29.1°C | 7.5% | 374.8hPa | 2.6V | 00:00:00 | 03:08:19 | 00:00:00 | |
| SONCRA | 2026-08-30 13:05:27 | 53.12475 | 11.34914 | 80° | 89km/h | 7857m | -4.9m/s | -29.2°C | 6.5% | 374.6hPa | 2.6V | 00:00:00 | 00:00:00 | 00:00:00 | |
| DB0DAN | 2026-08-30 13:05:25 | 53.12467 | 11.34840 | 80° | 84km/h | 7867m | -4.9m/s | -29.4°C | 6.4% | 373.99hPa | 2.6V | 00:00:00 | 00:00:00 | 00:00:00 | |
| DL1XH-west | 2026-08-30 13:05:24 | 53.12463 | 11.34803 | 80° | 89km/h | 7872m | -4.9m/s | -29.5°C | 7.8% | 373.7hPa | 2.6V | 02:42:27 | 03:08:15 | 00:00:00 | |
| AA1-15 | 2026-08-30 13:05:23 | 53.12460 | 11.34766 | 81° | 91km/h | 7877m | -5.1m/s | -29.5°C | 7.8% | 373.5hPa | 2.6V | 02:42:27 | 03:08:14 | 00:00:00 | |
| DF8AY | 2026-08-30 13:05:19 | 53.12445 | 11.34617 | 80° | 89km/h | 7897m | -4.9m/s | -29.6°C | 7.9% | 372.5hPa | 2.6V | 02:42:27 | 03:08:10 | 00:00:00 | |
| DO2SHX-10 | 2026-08-30 13:05:19 | 53.12445 | 11.34617 | 81° | 89km/h | 7898m | -4.8m/s | -29.5°C | 7.6% | 372.4hPa | 2.6V | 00:00:00 | 03:08:10 | 00:00:00 | |
| DL1XH-15 | 2026-08-30 13:05:18 | 53.12435 | 11.34507 | 80° | 88km/h | 7913m | -5.1m/s | -29.7°C | 7.6% | 371.7hPa | 2.6V | 02:42:11 | 03:08:07 | 00:00:00 | |
| BIOWL1-15 | 2026-08-30 13:05:17 | 53.12438 | 11.34543 | 82° | 88km/h | 7908m | -4.9m/s | -29.7°C | 7.9% | 371.9hPa | 2.6V | 02:42:27 | 03:08:08 | 00:00:00 | |
| DL1XH-west | 2026-08-30 13:05:13 | 53.12424 | 11.34395 | 82° | 91km/h | 7928m | -5m/s | -29.7°C | 7.9% | 370.8hPa | 2.6V | 02:42:27 | 03:08:04 | 00:00:00 | |
| AA1-15 | 2026-08-30 13:05:12 | 53.12420 | 11.34358 | 81° | 89km/h | 7933m | -5m/s | -29.8°C | 8% | 370.6hPa | 2.6V | 02:42:27 | 03:08:03 | 00:00:00 | |
| DF8AY-15 | 2026-08-30 13:05:12 | 53.12420 | 11.34358 | 82° | 91km/h | 7933m | -4.9m/s | -29.7°C | 7.7% | 370.5hPa | 2.6V | 00:00:00 | 03:08:03 | 00:00:00 | |
| DB0DAN | 2026-08-30 13:05:10 | 53.12413 | 11.34284 | 80° | 86km/h | 7943m | -5.1m/s | -29.8°C | 6.7% | 370.02hPa | 2.6V | 00:00:00 | 00:00:00 | 00:00:00 | |
| DL1XH-15 | 2026-08-30 13:05:10 | 53.12396 | 11.34135 | 78° | 89km/h | 7964m | -5m/s | -30.1°C | 7.7% | 369hPa | 2.6V | 02:42:21 | 03:07:57 | 00:00:00 | |
| DF8AY | 2026-08-30 13:05:08 | 53.12405 | 11.34209 | 80° | 89km/h | 7954m | -5.2m/s | -30°C | 8.2% | 369.5hPa | 2.6V | 02:42:27 | 03:07:59 | 00:00:00 | |
| BIOWL1-15 | 2026-08-30 13:05:06 | 53.12396 | 11.34135 | 79° | 89km/h | 7964m | -5m/s | -30.1°C | 8.1% | 369hPa | 2.6V | 02:42:27 | 03:07:57 | 00:00:00 | |
| AA1-15 | 2026-08-30 13:05:02 | 53.12381 | 11.33985 | 80° | 88km/h | 7985m | -4.7m/s | -30.2°C | 8.1% | 368hPa | 2.6V | 02:42:27 | 03:07:53 | 00:00:00 | |
| DO2SHX-10 | 2026-08-30 13:05:01 | 53.12377 | 11.33948 | 80° | 91km/h | 7989m | -5.0m/s | -30.2°C | 8.0% | 367.6hPa | 2.6V | 00:00:00 | 03:07:52 | 00:00:00 | |
| TFSTFS | 2026-08-30 13:05:00 | 53.12376 | 11.33948 | 80° | 89km/h | 7989m | -5.0m/s | -30.2°C | 6.8% | 367.6hPa | 2.6V | 02:42:00 | 00:00:00 | 00:00:00 | |
| DD8BA-10 | 2026-08-30 13:04:59 | 53.12368 | 11.33873 | 81° | 93km/h | 8000m | -5.1m/s | -30.3°C | 7.9% | 367.1hPa | 2.6V | 00:00:00 | 00:00:00 | 00:00:00 | |
| DL1XH-15 | 2026-08-30 13:04:58 | 53.12356 | 11.33761 | 78° | 91km/h | 8015m | -5.2m/s | -30.4°C | 8% | 366.3hPa | 2.6V | 02:42:31 | 03:07:47 | 00:00:00 | |
| DF8AY | 2026-08-30 13:04:58 | 53.12364 | 11.33836 | 80° | 89km/h | 8005m | -5m/s | -30.4°C | 8.1% | 366.8hPa | 2.6V | 02:43:18 | 03:07:49 | 00:00:00 | |
| BIOWL1-15 | 2026-08-30 13:04:56 | 53.12315 | 11.33365 | 80° | 99km/h | 8066m | -5.2m/s | -30.9°C | 7.8% | 363.6hPa | 2.6V | 02:43:18 | 03:07:37 | 00:00:00 | |
| DB0DAN | 2026-08-30 13:04:55 | 53.12352 | 11.33722 | 80° | 89km/h | 8021m | -5m/s | -30.5°C | 6.8% | 366.03hPa | 2.6V | 00:00:00 | 00:00:00 | 00:00:00 | |
| DL1XH-west | 2026-08-30 13:04:52 | 53.12340 | 11.33605 | 80° | 95km/h | 8036m | -4.9m/s | -30.7°C | 8.1% | 365.3hPa | 2.6V | 02:43:18 | 03:07:43 | 00:00:00 | |
| DO2SHX-10 | 2026-08-30 13:04:52 | 53.12340 | 11.33605 | 80° | 97km/h | 8036m | -4.9m/s | -30.7°C | 7.8% | 365.2hPa | 2.6V | 00:00:00 | 03:07:43 | 00:00:00 | |
| DG6HD-15 | 2026-08-30 13:04:51 | 53.12339 | 11.33605 | 81° | 95km/h | 8036m | -4.9m/s | -30.7°C | 6.7% | 365.3hPa | 2.6V | 02:43:00 | 00:00:00 | 00:00:00 | |
| DL1XH1-15 | 2026-08-30 13:04:49 | 53.12323 | 11.33445 | 81° | 95km/h | 8056m | -4.7m/s | -30.8°C | 7.5% | 364.1hPa | 2.6V | 02:42:39 | 03:07:39 | 00:00:00 | |
| DF8AY | 2026-08-30 13:04:47 | 53.12319 | 11.33405 | 80° | 97km/h | 8061m | -4.7m/s | -30.8°C | 7.7% | 364hPa | 2.6V | 02:43:18 | 03:07:38 | 00:00:00 | |
| EDDB2-11 | 2026-08-30 13:04:46 | 53.12311 | 11.33324 | 81° | 97km/h | 8071m | -5.1m/s | -30.9°C | 6.4% | 363.4hPa | 2.6V | 00:00:00 | 00:00:00 | 00:00:00 | |
| SMARD9-15 | 2026-08-30 13:04:45 | 53.12311 | 11.33324 | 81° | 97km/h | 8071m | -5.1m/s | -30.9°C | 6.4% | 363.4hPa | 2.6V | 00:00:00 | 00:00:00 | 00:00:00 | |
| DL1XH-west | 2026-08-30 13:04:42 | 53.12300 | 11.33203 | 81° | 97km/h | 8087m | -5.2m/s | -30.9°C | 7.8% | 362.6hPa | 2.6V | 02:43:18 | 03:07:33 | 00:00:00 | |
| BIOWL1-15 | 2026-08-30 13:04:41 | 53.12296 | 11.33162 | 82° | 99km/h | 8092m | -5.1m/s | -31°C | 7.8% | 362.3hPa | 2.6V | 02:43:18 | 03:07:32 | 00:00:00 | |
| DM0DOS-11 | 2026-08-30 13:04:41 | 53.12287 | 11.33039 | 82° | 97km/h | 8108m | -5.3m/s | -30.9°C | 8% | 361.6hPa | 2.6V | 02:42:49 | 03:07:29 | 00:00:00 | |
| DB0DAN | 2026-08-30 13:04:40 | 53.12293 | 11.33121 | 83° | 95km/h | 8098m | -4.9m/s | -30.9°C | 6.5% | 362.02hPa | 2.6V | 00:00:00 | 00:00:00 | 00:00:00 | |
| DF8AY | 2026-08-30 13:04:37 | 53.12284 | 11.32999 | 83° | 97km/h | 8113m | -5m/s | -31°C | 8.4% | 361.3hPa | 2.6V | 02:43:18 | 03:07:28 | 00:00:00 | |
| AA1-15 | 2026-08-30 13:04:31 | 53.12264 | 11.32755 | 83° | 97km/h | 8144m | -4.9m/s | -31.2°C | 8.5% | 359.7hPa | 2.6V | 02:43:18 | 03:07:22 | 00:00:00 | |
| DM0DOS-11 | 2026-08-30 13:04:31 | 53.12254 | 11.32635 | 82° | 95km/h | 8160m | -5m/s | -31.3°C | 8.1% | 358.9hPa | 2.6V | 02:42:59 | 03:07:19 | 00:00:00 | |
| BIOWL1-15 | 2026-08-30 13:04:30 | 53.12261 | 11.32715 | 83° | 97km/h | 8150m | -4.9m/s | -31.2°C | 8.6% | 359.5hPa | 2.6V | 02:43:18 | 03:07:21 | 00:00:00 | |
| GOEST3-10 | 2026-08-30 13:04:30 | 53.12261 | 11.32714 | 84° | 97km/h | 8150m | -4.8m/s | -31.1°C | 8.1% | 359.4hPa | 2.6V | 00:00:00 | 00:00:00 | 00:00:00 | |
| DL1XH-15 | 2026-08-30 13:04:29 | 53.12247 | 11.32554 | 83° | 97km/h | 8170m | -4.9m/s | -31.3°C | 8.1% | 358.4hPa | 2.6V | 02:43:01 | 03:07:17 | 00:00:00 | |
| DL1XH1-15 | 2026-08-30 13:04:29 | 53.12251 | 11.32594 | 81° | 99km/h | 8165m | -4.9m/s | -31.3°C | 8.1% | 358.7hPa | 2.6V | 02:43:00 | 03:07:18 | 00:00:00 | |
| DF8AY | 2026-08-30 13:04:26 | 53.12248 | 11.32554 | 84° | 97km/h | 8170m | -4.9m/s | -31.3°C | 8.5% | 358.4hPa | 2.6V | 02:43:18 | 03:07:17 | 00:00:00 | |
| DB0DAN | 2026-08-30 13:04:25 | 53.12245 | 11.32513 | 83° | 91km/h | 8175m | -5m/s | -31.4°C | 6.9% | 358.19hPa | 2.6V | 00:00:00 | 00:00:00 | 00:00:00 | |
| DO2SHX-10 | 2026-08-30 13:04:25 | 53.12245 | 11.32513 | 84° | 95km/h | 8175m | -5.0m/s | -31.3°C | 8.1% | 358.1hPa | 2.6V | 00:00:00 | 03:07:16 | 00:00:00 | |
| GOEST3-10 | 2026-08-30 13:04:24 | 53.12242 | 11.32473 | 84° | 95km/h | 8180m | -4.9m/s | -31.4°C | 8.1% | 357.8hPa | 2.6V | 00:00:00 | 03:07:15 | 00:00:00 | |
| AM1SDL-15 | 2026-08-30 13:04:23 | 53.12239 | 11.32434 | 82° | 95km/h | 8185m | -5.1m/s | -31.4°C | 8.1% | 357.6hPa | 2.6V | 02:43:00 | 03:07:14 | 00:00:00 | |
| DL1XH1-15 | 2026-08-30 13:04:22 | 53.12218 | 11.32198 | 80° | 95km/h | 8216m | -5m/s | -31.7°C | 8.2% | 356hPa | 2.6V | 02:43:10 | 03:07:08 | 00:00:00 | |
| DL1XH-west | 2026-08-30 13:04:20 | 53.12229 | 11.32314 | 83° | 93km/h | 8201m | -5m/s | -31.6°C | 8.6% | 356.9hPa | 2.6V | 02:43:18 | 03:07:11 | 00:00:00 | |
| BIOWL1-15 | 2026-08-30 13:04:19 | 53.12218 | 11.32198 | 81° | 95km/h | 8216m | -5.1m/s | -31.7°C | 8.7% | 356hPa | 2.6V | 02:43:18 | 03:07:08 | 00:00:00 | |
| DL1XH-15 | 2026-08-30 13:04:19 | 53.12215 | 11.32158 | 82° | 95km/h | 8221m | -4.9m/s | -31.8°C | 8.2% | 355.9hPa | 2.6V | 02:43:11 | 03:07:07 | 00:00:00 | |
| DM0DOS-11 | 2026-08-30 13:04:19 | 53.12222 | 11.32237 | 80° | 93km/h | 8211m | -4.9m/s | -31.7°C | 8.2% | 356.3hPa | 2.6V | 02:43:09 | 03:07:09 | 00:00:00 | |
| DF8AY | 2026-08-30 13:04:15 | 53.12211 | 11.32119 | 82° | 93km/h | 8227m | -5.2m/s | -31.8°C | 8.7% | 355.6hPa | 2.6V | 02:43:18 | 03:07:06 | 00:00:00 | |
| EDDB2-11 | 2026-08-30 13:04:15 | 53.12211 | 11.32119 | 81° | 91km/h | 8227m | -5.2m/s | -31.8°C | 7.0% | 355.6hPa | 2.6V | 00:00:00 | 00:00:00 | 00:00:00 | |
| SMARD9-15 | 2026-08-30 13:04:14 | 53.12208 | 11.32081 | 80° | 93km/h | 8232m | -5.2m/s | -31.9°C | 7.0% | 355.3hPa | 2.6V | 00:00:00 | 00:00:00 | 00:00:00 | |
| DO2SHX-10 | 2026-08-30 13:04:13 | 53.12203 | 11.32041 | 80° | 97km/h | 8237m | -4.6m/s | -31.8°C | 8.2% | 354.9hPa | 2.6V | 02:43:00 | 03:07:04 | 00:00:00 | |
| DF8AY-15 | 2026-08-30 13:04:12 | 53.12199 | 11.32001 | 82° | 95km/h | 8242m | -5.0m/s | -31.9°C | 8.3% | 354.8hPa | 2.6V | 00:00:00 | 03:07:03 | 00:00:00 | |
| DM0DOS-11 | 2026-08-30 13:04:11 | 53.12185 | 11.31843 | 80° | 97km/h | 8263m | -5.2m/s | -32.1°C | 8.2% | 353.7hPa | 2.6V | 02:43:19 | 03:06:59 | 00:00:00 | |
| DB0DAN | 2026-08-30 13:04:10 | 53.12193 | 11.31922 | 82° | 89km/h | 8252m | -5m/s | -32°C | 7% | 354.26hPa | 2.6V | 00:00:00 | 00:00:00 | 00:00:00 | |
| DL1XH-west | 2026-08-30 13:04:09 | 53.12189 | 11.31882 | 81° | 95km/h | 8258m | -5m/s | -32.1°C | 8.7% | 354hPa | 2.6V | 02:43:18 | 03:07:00 | 00:00:00 | |
| DL1XH1-15 | 2026-08-30 13:04:09 | 53.12181 | 11.31802 | 81° | 97km/h | 8268m | -5.2m/s | -32.2°C | 8.2% | 353.5hPa | 2.6V | 02:43:20 | 03:06:58 | 00:00:00 | |
| DD8BA-10 | 2026-08-30 13:04:09 | 53.12189 | 11.31882 | 81° | 97km/h | 8258m | -4.9m/s | -32.0°C | 8.2% | 354.0hPa | 2.6V | 02:43:00 | 00:00:00 | 00:00:00 | |
| DL1XH-15 | 2026-08-30 13:04:08 | 53.12178 | 11.31762 | 81° | 95km/h | 8273m | -4.8m/s | -32.2°C | 8.2% | 353.2hPa | 2.6V | 02:43:21 | 03:06:57 | 00:00:00 | |
| BIOWL1-15 | 2026-08-30 13:04:08 | 53.12182 | 11.31802 | 82° | 97km/h | 8268m | -5.2m/s | -32.2°C | 8.7% | 353.5hPa | 2.6V | 02:44:09 | 03:06:58 | 00:00:00 | |
| DF8AY | 2026-08-30 13:04:05 | 53.12174 | 11.31722 | 80° | 95km/h | 8278m | -5m/s | -32.2°C | 8.6% | 352.9hPa | 2.6V | 02:44:09 | 03:06:56 | 00:00:00 | |
| DO2SHX-10 | 2026-08-30 13:04:04 | 53.12170 | 11.31683 | 80° | 97km/h | 8283m | -5.0m/s | -32.2°C | 8.1% | 352.7hPa | 2.6V | 02:43:00 | 03:06:55 | 00:00:00 | |
| DL1XH1-15 | 2026-08-30 13:04:02 | 53.12140 | 11.31404 | 80° | 95km/h | 8320m | -5.2m/s | -32.5°C | 8.4% | 350.9hPa | 2.6V | 02:43:30 | 03:06:48 | 00:00:00 | |
| DK1YY | 2026-08-30 13:04:02 | 53.12157 | 11.31563 | 80° | 95km/h | 8298m | -5.1m/s | -32.3°C | 6.9% | 352.0hPa | 2.6V | 00:00:00 | 00:00:00 | 00:00:00 | |
| DL1XH-15 | 2026-08-30 13:04:01 | 53.12136 | 11.31365 | 79° | 93km/h | 8325m | -5.2m/s | -32.5°C | 8.5% | 350.6hPa | 2.6V | 02:43:31 | 03:06:47 | 00:00:00 | |
| AA1-15 | 2026-08-30 13:03:59 | 53.12149 | 11.31484 | 79° | 97km/h | 8309m | -5m/s | -32.4°C | 8.8% | 351.4hPa | 2.6V | 02:44:09 | 03:06:50 | 00:00:00 | |
| DM0DOS-11 | 2026-08-30 13:03:59 | 53.12144 | 11.31444 | 79° | 97km/h | 8314m | -5.2m/s | -32.5°C | 8.4% | 351.2hPa | 2.6V | 02:43:29 | 03:06:49 | 00:00:00 | |
| DL1XH-west | 2026-08-30 13:03:58 | 53.12144 | 11.31444 | 80° | 97km/h | 8314m | -5.2m/s | -32.5°C | 8.9% | 351.2hPa | 2.6V | 02:44:09 | 03:06:49 | 00:00:00 | |
| BIOWL1-15 | 2026-08-30 13:03:56 | 53.12127 | 11.31287 | 79° | 95km/h | 8335m | -5.1m/s | -32.6°C | 9.3% | 350.2hPa | 2.6V | 02:44:09 | 03:06:45 | 00:00:00 | |
| DB0DAN | 2026-08-30 13:03:55 | 53.12132 | 11.31326 | 79° | 89km/h | 8330m | -5m/s | -32.6°C | 7.3% | 350.38hPa | 2.6V | 00:00:00 | 00:00:00 | 00:00:00 | |
| DF8AY | 2026-08-30 13:03:55 | 53.12132 | 11.31326 | 79° | 93km/h | 8330m | -5m/s | -32.6°C | 9.2% | 350.4hPa | 2.6V | 02:44:09 | 03:06:46 | 00:00:00 | |
| SONCRA | 2026-08-30 13:03:54 | 53.12127 | 11.31287 | 79° | 93km/h | 8335m | -5.1m/s | -32.6°C | 7.4% | 350.2hPa | 2.6V | 00:00:00 | 00:00:00 | 00:00:00 | |
| DO2SHX-10 | 2026-08-30 13:03:52 | 53.12119 | 11.31209 | 81° | 93km/h | 8346m | -5.1m/s | -32.6°C | 9.0% | 349.5hPa | 2.6V | 00:00:00 | 03:06:43 | 00:00:00 | |
| DM0DOS-11 | 2026-08-30 13:03:51 | 53.12102 | 11.31053 | 80° | 95km/h | 8366m | -5.2m/s | -32.8°C | 9.2% | 348.5hPa | 2.6V | 02:43:39 | 03:06:39 | 00:00:00 | |
| EDDB2-12 | 2026-08-30 13:03:50 | 53.12111 | 11.31132 | 79° | 93km/h | 8356m | -5.2m/s | -32.7°C | 7.7% | 349.1hPa | 2.6V | 00:00:00 | 00:00:00 | 00:00:00 | |
| DL1XH-15 | 2026-08-30 13:03:49 | 53.12095 | 11.30975 | 80° | 93km/h | 8377m | -5.1m/s | -32.9°C | 9.2% | 348.1hPa | 2.6V | 02:43:41 | 03:06:37 | 00:00:00 | |
| AA1-15 | 2026-08-30 13:03:48 | 53.12102 | 11.31053 | 81° | 95km/h | 8366m | -5.2m/s | -32.8°C | 9.9% | 348.5hPa | 2.6V | 02:44:09 | 03:06:39 | 00:00:00 | |
| DL1XH1-15 | 2026-08-30 13:03:48 | 53.12099 | 11.31013 | 81° | 95km/h | 8372m | -4.9m/s | -32.9°C | 9.2% | 348.3hPa | 2.6V | 02:43:40 | 03:06:38 | 00:00:00 | |
| DL1XH-west | 2026-08-30 13:03:47 | 53.12099 | 11.31013 | 81° | 95km/h | 8372m | -4.9m/s | -32.9°C | 10% | 348.3hPa | 2.6V | 02:44:09 | 03:06:38 | 00:00:00 | |
| BIOWL1-15 | 2026-08-30 13:03:46 | 53.12095 | 11.30975 | 81° | 93km/h | 8377m | -5.1m/s | -32.9°C | 10% | 348.1hPa | 2.6V | 02:44:09 | 03:06:37 | 00:00:00 | |
| DF8AY | 2026-08-30 13:03:44 | 53.12087 | 11.30897 | 81° | 95km/h | 8387m | -5.1m/s | -33°C | 10.1% | 347.5hPa | 2.6V | 02:44:09 | 03:06:35 | 00:00:00 | |
| EDDB2-11 | 2026-08-30 13:03:44 | 53.12084 | 11.30858 | 81° | 91km/h | 8392m | -5.3m/s | -33.1°C | 8.0% | 347.2hPa | 2.6V | 00:00:00 | 00:00:00 | 00:00:00 | |
| DO2SHX-10 | 2026-08-30 13:03:43 | 53.12084 | 11.30858 | 82° | 91km/h | 8393m | -5.2m/s | -33.0°C | 9.3% | 347.2hPa | 2.6V | 00:00:00 | 03:06:34 | 00:00:00 | |
| GOEST3-10 | 2026-08-30 13:03:42 | 53.12080 | 11.30820 | 83° | 91km/h | 8398m | -5.2m/s | -33.0°C | 9.4% | 347.0hPa | 2.6V | 02:43:00 | 03:06:33 | 00:00:00 | |
| DL1XH1-15 | 2026-08-30 13:03:42 | 53.12059 | 11.30593 | 81° | 89km/h | 8429m | -5.4m/s | -33.3°C | 9.4% | 345.5hPa | 2.6V | 02:43:51 | 03:06:27 | 00:00:00 | |
| DB0DAN | 2026-08-30 13:03:40 | 53.12074 | 11.30745 | 80° | 86km/h | 8408m | -5.3m/s | -33.2°C | 8% | 346.48hPa | 2.6V | 00:00:00 | 00:00:00 | 00:00:00 | |
| DO2SHX-10 | 2026-08-30 13:03:40 | 53.12073 | 11.30745 | 81° | 91km/h | 8408m | -5.2m/s | -33.1°C | 9.4% | 346.4hPa | 2.6V | 00:00:00 | 03:06:31 | 00:00:00 | |
| DD8BA-10 | 2026-08-30 13:03:39 | 53.12070 | 11.30707 | 81° | 91km/h | 8413m | -4.8m/s | -33.2°C | 9.5% | 346.3hPa | 2.6V | 02:43:00 | 00:00:00 | 00:00:00 | |
| DL1XH-15 | 2026-08-30 13:03:38 | 53.12059 | 11.30593 | 81° | 89km/h | 8429m | -5.4m/s | -33.3°C | 9.4% | 345.5hPa | 2.6V | 02:43:51 | 03:06:27 | 00:00:00 | |
| AA1-15 | 2026-08-30 13:03:37 | 53.12063 | 11.30631 | 82° | 91km/h | 8423m | -5.2m/s | -33.3°C | 10.3% | 345.7hPa | 2.6V | 02:44:09 | 03:06:28 | 00:00:00 | |
| BIOWL1-15 | 2026-08-30 13:03:37 | 53.12049 | 11.30479 | 82° | 91km/h | 8445m | -5.3m/s | -33.4°C | 10.3% | 344.7hPa | 2.6V | 02:44:09 | 03:06:24 | 00:00:00 | |
| DL1XH-west | 2026-08-30 13:03:37 | 53.12059 | 11.30593 | 81° | 89km/h | 8429m | -5.4m/s | -33.3°C | 10.3% | 345.5hPa | 2.6V | 02:44:09 | 03:06:27 | 00:00:00 | |
| DF8AY | 2026-08-30 13:03:33 | 53.12032 | 11.30292 | 82° | 91km/h | 8471m | -5.3m/s | -33.6°C | 10.3% | 343.4hPa | 2.6V | 02:44:09 | 03:06:19 | 00:00:00 | |
| DF8AY-15 | 2026-08-30 13:03:32 | 53.12046 | 11.30442 | 83° | 89km/h | 8450m | -5.2m/s | -33.5°C | 9.5% | 344.3hPa | 2.6V | 02:43:00 | 03:06:23 | 00:00:00 | |
| DL1XH-15 | 2026-08-30 13:03:31 | 53.12025 | 11.30218 | 80° | 88km/h | 8482m | -5.3m/s | -33.7°C | 9.4% | 342.9hPa | 2.6V | 02:44:01 | 03:06:17 | 00:00:00 | |
| DO2SHX-10 | 2026-08-30 13:03:31 | 53.12042 | 11.30404 | 82° | 89km/h | 8455m | -5.1m/s | -33.5°C | 9.5% | 344.2hPa | 2.6V | 00:00:00 | 03:06:22 | 00:00:00 | |
| DL4BBY-15 | 2026-08-30 13:03:30 | 53.12039 | 11.30367 | 81° | 89km/h | 8461m | -4.9m/s | -34.1°C | 0% | 0hPa | 2.6V | 00:00:00 | 00:00:00 | 00:00:00 | |
| DL1XH1-15 | 2026-08-30 13:03:29 | 53.12029 | 11.30255 | 81° | 89km/h | 8477m | -5.2m/s | -33.7°C | 9.4% | 343.2hPa | 2.6V | 02:44:00 | 03:06:18 | 00:00:00 | |
| AA1-15 | 2026-08-30 13:03:27 | 53.12029 | 11.30255 | 82° | 89km/h | 8477m | -5.2m/s | -33.7°C | 10.2% | 343.2hPa | 2.6V | 02:44:09 | 03:06:18 | 00:00:00 | |
| DL1XH-west | 2026-08-30 13:03:25 | 53.12021 | 11.30181 | 80° | 89km/h | 8487m | -4.9m/s | -33.7°C | 10.1% | 342.6hPa | 2.6V | 02:44:09 | 03:06:16 | 00:00:00 | |
| DB0DAN | 2026-08-30 13:03:25 | 53.12021 | 11.30181 | 80° | 86km/h | 8487m | -4.9m/s | -33.7°C | 8% | 342.63hPa | 2.6V | 00:00:00 | 00:00:00 | 00:00:00 | |
| BIOWL1-15 | 2026-08-30 13:03:24 | 53.12011 | 11.30069 | 81° | 89km/h | 8503m | -5.5m/s | -33.9°C | 10.1% | 341.9hPa | 2.5V | 02:44:09 | 03:06:13 | 00:00:00 | |
| DF8AY | 2026-08-30 13:03:23 | 53.12014 | 11.30106 | 82° | 89km/h | 8498m | -5.3m/s | -33.8°C | 10.1% | 342.2hPa | 2.5V | 02:44:09 | 03:06:14 | 00:00:00 | |
| SONCRA | 2026-08-30 13:03:23 | 53.12014 | 11.30106 | 81° | 89km/h | 8498m | -5.3m/s | -33.8°C | 7.9% | 342.2hPa | 2.6V | 00:00:00 | 00:00:00 | 00:00:00 | |
| DO2SHX-10 | 2026-08-30 13:03:22 | 53.12010 | 11.30069 | 82° | 89km/h | 8503m | -5.5m/s | -33.8°C | 9.3% | 341.9hPa | 2.6V | 00:00:00 | 03:06:13 | 00:00:00 | |
| GOEST3-10 | 2026-08-30 13:03:21 | 53.12007 | 11.30032 | 80° | 89km/h | 8509m | -5.3m/s | -33.8°C | 9.2% | 341.6hPa | 2.6V | 00:00:00 | 03:06:12 | 00:00:00 | |
| DM0DOS-11 | 2026-08-30 13:03:19 | 53.11995 | 11.29920 | 80° | 91km/h | 8525m | -5m/s | -34°C | 9.2% | 340.9hPa | 2.6V | 02:44:09 | 03:06:09 | 00:00:00 | |
| DO2SHX-10 | 2026-08-30 13:03:19 | 53.11999 | 11.29958 | 80° | 91km/h | 8519m | -5.1m/s | -33.9°C | 9.2% | 341.1hPa | 2.6V | 02:44:00 | 03:06:10 | 00:00:00 | |
| DL1XH-15 | 2026-08-30 13:03:18 | 53.11987 | 11.29846 | 79° | 88km/h | 8535m | -5m/s | -34°C | 9% | 340.3hPa | 2.5V | 02:44:11 | 03:06:07 | 00:00:00 | |
| AA1-15 | 2026-08-30 13:03:16 | 53.11987 | 11.29846 | 80° | 88km/h | 8535m | -5m/s | -34.1°C | 9.8% | 340.3hPa | 2.5V | 02:45:00 | 03:06:07 | 00:00:00 | |
| DL1XH-west | 2026-08-30 13:03:14 | 53.11979 | 11.29773 | 80° | 89km/h | 8546m | -5.2m/s | -34.1°C | 9.7% | 339.8hPa | 2.6V | 02:45:00 | 03:06:05 | 00:00:00 | |
| DF8AY | 2026-08-30 13:03:12 | 53.11971 | 11.29699 | 80° | 88km/h | 8556m | -5.2m/s | -34.2°C | 9.8% | 339.3hPa | 2.6V | 02:45:00 | 03:06:03 | 00:00:00 | |
| DL1XH1-15 | 2026-08-30 13:03:12 | 53.11950 | 11.29514 | 79° | 89km/h | 8583m | -5.1m/s | -34.4°C | 9.3% | 338hPa | 2.6V | 02:44:20 | 03:05:58 | 00:00:00 | |
| BIOWL1-15 | 2026-08-30 13:03:11 | 53.11949 | 11.29514 | 80° | 89km/h | 8583m | -5.1m/s | -34.4°C | 10.1% | 338hPa | 2.6V | 02:45:00 | 03:05:58 | 00:00:00 | |
| DB0DAN | 2026-08-30 13:03:10 | 53.11963 | 11.29626 | 78° | 86km/h | 8567m | -5.4m/s | -34.3°C | 7.7% | 338.71hPa | 2.6V | 00:00:00 | 00:00:00 | 00:00:00 | |
| AA1-15 | 2026-08-30 13:03:05 | 53.11940 | 11.29439 | 78° | 91km/h | 8593m | -5m/s | -34.5°C | 10.4% | 337.5hPa | 2.6V | 02:45:00 | 03:05:56 | 00:00:00 | |
| DL1XH-west | 2026-08-30 13:03:03 | 53.11931 | 11.29364 | 79° | 91km/h | 8604m | -5m/s | -34.6°C | 10.5% | 337hPa | 2.6V | 02:45:00 | 03:05:54 | 00:00:00 | |
| DF8AY | 2026-08-30 13:03:01 | 53.11922 | 11.29290 | 77° | 89km/h | 8614m | -5.4m/s | -34.7°C | 10.8% | 336.4hPa | 2.6V | 02:45:00 | 03:05:52 | 00:00:00 | |
| BIOWL1-15 | 2026-08-30 13:03:01 | 53.11912 | 11.29215 | 79° | 91km/h | 8625m | -5.2m/s | -34.8°C | 11.1% | 335.9hPa | 2.6V | 02:45:00 | 03:05:50 | 00:00:00 | |
| DO2SHX-10 | 2026-08-30 13:03:01 | 53.11921 | 11.29290 | 78° | 91km/h | 8614m | -5.4m/s | -34.6°C | 9.8% | 336.4hPa | 2.6V | 02:44:00 | 03:05:52 | 00:00:00 | |
| DL4BBY-15 | 2026-08-30 13:03:00 | 53.11917 | 11.29253 | 78° | 89km/h | 8620m | -5.3m/s | -35.2°C | 0% | 0hPa | 2.6V | 00:00:00 | 00:00:00 | 00:00:00 | |
| DL1XH1-15 | 2026-08-30 13:02:59 | 53.11903 | 11.29141 | 79° | 88km/h | 8635m | -5.3m/s | -34.8°C | 10.5% | 335.4hPa | 2.6V | 02:44:30 | 03:05:48 | 00:00:00 | |
| AA1-15 | 2026-08-30 13:02:55 | 53.11894 | 11.29069 | 78° | 89km/h | 8646m | -5.1m/s | -34.9°C | 12.2% | 335hPa | 2.6V | 02:45:00 | 03:05:46 | 00:00:00 | |
| DB0DAN | 2026-08-30 13:02:55 | 53.11894 | 11.29069 | 78° | 86km/h | 8646m | -5.1m/s | -34.9°C | 9.4% | 334.97hPa | 2.6V | 00:00:00 | 00:00:00 | 00:00:00 | |
| DO2SHX-10 | 2026-08-30 13:02:55 | 53.11894 | 11.29069 | 78° | 89km/h | 8646m | -5.1m/s | -34.9°C | 11.0% | 334.9hPa | 2.6V | 00:00:00 | 03:05:46 | 00:00:00 | |
| DM0DOS-11 | 2026-08-30 13:02:53 | 53.11861 | 11.28810 | 79° | 91km/h | 8683m | -5.5m/s | -35.2°C | 12.3% | 333.1hPa | 2.6V | 02:44:39 | 03:05:39 | 00:00:00 | |
| DL1XH-west | 2026-08-30 13:02:52 | 53.11881 | 11.28958 | 79° | 88km/h | 8662m | -5.3m/s | -35.1°C | 13.7% | 334.1hPa | 2.6V | 02:45:00 | 03:05:43 | 00:00:00 | |
| DF8AY | 2026-08-30 13:02:50 | 53.11871 | 11.28885 | 77° | 89km/h | 8672m | -5.1m/s | -35.1°C | 13.8% | 333.7hPa | 2.6V | 02:45:00 | 03:05:41 | 00:00:00 | |
| BIOWL1-15 | 2026-08-30 13:02:49 | 53.11866 | 11.28848 | 78° | 91km/h | 8677m | -5m/s | -35.2°C | 13.8% | 333.4hPa | 2.6V | 02:45:00 | 03:05:40 | 00:00:00 | |
| DO2SHX-10 | 2026-08-30 13:02:49 | 53.11866 | 11.28848 | 78° | 91km/h | 8678m | -4.9m/s | -35.2°C | 12.3% | 333.3hPa | 2.6V | 00:00:00 | 03:05:40 | 00:00:00 | |
| DL1XH-15 | 2026-08-30 13:02:48 | 53.11853 | 11.28736 | 79° | 88km/h | 8694m | -5.3m/s | -35.3°C | 12.3% | 332.6hPa | 2.6V | 02:44:41 | 03:05:37 | 00:00:00 | |
| AA1-15 | 2026-08-30 13:02:45 | 53.11849 | 11.28700 | 78° | 88km/h | 8699m | -5.5m/s | -35.4°C | 13.9% | 332.4hPa | 2.6V | 02:45:00 | 03:05:36 | 00:00:00 | |
| DC4HF-4 | 2026-08-30 13:02:45 | 53.11844 | 11.28664 | 78° | 89km/h | 8704m | -5.2m/s | -35.4°C | 10.6% | 332.2hPa | 2.6V | 00:00:00 | 00:00:00 | 00:00:00 | |
| DL1XH-west | 2026-08-30 13:02:42 | 53.11835 | 11.28590 | 79° | 89km/h | 8715m | -5m/s | -35.5°C | 14.3% | 331.6hPa | 2.6V | 02:45:00 | 03:05:33 | 00:00:00 | |
| DL1XH1-15 | 2026-08-30 13:02:42 | 53.11813 | 11.28407 | 79° | 89km/h | 8741m | -5.2m/s | -35.7°C | 13% | 330.4hPa | 2.6V | 02:44:50 | 03:05:28 | 00:00:00 | |
| EDDB2-11 | 2026-08-30 13:02:42 | 53.11831 | 11.28553 | 78° | 86km/h | 8720m | -5.2m/s | -35.6°C | 11.0% | 331.3hPa | 2.6V | 00:00:00 | 00:00:00 | 00:00:00 | |
| DM0DOS-11 | 2026-08-30 13:02:41 | 53.11817 | 11.28444 | 78° | 91km/h | 8736m | -5.5m/s | -35.7°C | 12.8% | 330.6hPa | 2.6V | 02:44:49 | 03:05:29 | 00:00:00 | |
| BIOWL1-15 | 2026-08-30 13:02:41 | 53.11821 | 11.28481 | 78° | 89km/h | 8731m | -5.4m/s | -35.7°C | 14.4% | 330.9hPa | 2.6V | 02:45:00 | 03:05:30 | 00:00:00 | |
| DB0DAN | 2026-08-30 13:02:40 | 53.11826 | 11.28517 | 78° | 84km/h | 8726m | -5.2m/s | -35.6°C | 11% | 331.13hPa | 2.6V | 00:00:00 | 00:00:00 | 00:00:00 | |
| DF8AY | 2026-08-30 13:02:40 | 53.11826 | 11.28517 | 78° | 88km/h | 8726m | -5.2m/s | -35.6°C | 14.4% | 331.1hPa | 2.6V | 02:45:00 | 03:05:31 | 00:00:00 | |
| AA1-15 | 2026-08-30 13:02:34 | 53.11800 | 11.28298 | 78° | 89km/h | 8758m | -5.3m/s | -35.9°C | 14.7% | 329.7hPa | 2.6V | 02:45:00 | 03:05:25 | 00:00:00 | |
| DL1XH-west | 2026-08-30 13:02:31 | 53.11788 | 11.28188 | 80° | 88km/h | 8774m | -5.3m/s | -36.1°C | 15.1% | 328.8hPa | 2.6V | 02:45:00 | 03:05:22 | 00:00:00 | |
| BIOWL1-15 | 2026-08-30 13:02:30 | 53.11776 | 11.28081 | 78° | 88km/h | 8790m | -5.3m/s | -36.2°C | 15.6% | 328.1hPa | 2.6V | 02:45:00 | 03:05:19 | 00:00:00 | |
| DM0DOS-11 | 2026-08-30 13:02:29 | 53.11776 | 11.28081 | 78° | 88km/h | 8790m | -5.3m/s | -36.2°C | 13.9% | 328.1hPa | 2.6V | 02:44:59 | 03:05:19 | 00:00:00 | |
| DF8AY | 2026-08-30 13:02:29 | 53.11780 | 11.28117 | 78° | 86km/h | 8784m | -5.1m/s | -36.1°C | 15.5% | 328.4hPa | 2.6V | 02:45:00 | 03:05:20 | 00:00:00 | |
| DL1XH-15 | 2026-08-30 13:02:29 | 53.11767 | 11.28008 | 79° | 88km/h | 8800m | -5m/s | -36.2°C | 14.1% | 327.6hPa | 2.6V | 02:45:01 | 03:05:17 | 00:00:00 | |
| DD8BA-10 | 2026-08-30 13:02:29 | 53.11780 | 11.28117 | 79° | 88km/h | 8784m | -5.0m/s | -36.1°C | 13.7% | 328.3hPa | 2.6V | 00:00:00 | 00:00:00 | 00:00:00 | |
| DL1XH1-15 | 2026-08-30 13:02:28 | 53.11771 | 11.28045 | 79° | 89km/h | 8795m | -5.2m/s | -36.2°C | 13.9% | 327.8hPa | 2.6V | 02:45:00 | 03:05:18 | 00:00:00 | |
| DO2SHX-10 | 2026-08-30 13:02:28 | 53.11775 | 11.28081 | 79° | 88km/h | 8790m | -5.3m/s | -36.1°C | 13.9% | 328.1hPa | 2.6V | 00:00:00 | 03:05:19 | 00:00:00 | |
| SONDE2-11 | 2026-08-30 13:02:27 | 53.11771 | 11.28045 | 79° | 88km/h | 8795m | -5.2m/s | -36.2°C | 12.1% | 327.8hPa | 2.6V | 00:00:00 | 00:00:00 | 00:00:00 | |
| DB0DAN | 2026-08-30 13:02:25 | 53.11763 | 11.27972 | 79° | 82km/h | 8805m | -4.9m/s | -36.3°C | 12.5% | 327.33hPa | 2.6V | 00:00:00 | 00:00:00 | 00:00:00 | |
| AA1-15 | 2026-08-30 13:02:24 | 53.11758 | 11.27936 | 78° | 89km/h | 8810m | -5.1m/s | -36.4°C | 16.6% | 327.1hPa | 2.6V | 02:45:51 | 03:05:15 | 00:00:00 | |
| AM1SDL-15 | 2026-08-30 13:02:23 | 53.11754 | 11.27899 | 79° | 88km/h | 8816m | -5.2m/s | -36.3°C | 14.9% | 326.9hPa | 2.6V | 00:00:00 | 03:05:14 | 00:00:00 | |
| DL1XH1-15 | 2026-08-30 13:02:22 | 53.11731 | 11.27680 | 80° | 89km/h | 8848m | -5.4m/s | -36.7°C | 16.3% | 325.4hPa | 2.6V | 02:45:10 | 03:05:08 | 00:00:00 | |
| DO2SHX-10 | 2026-08-30 13:02:22 | 53.11750 | 11.27861 | 81° | 88km/h | 8821m | -5.3m/s | -36.4°C | 15.2% | 326.5hPa | 2.6V | 00:00:00 | 03:05:13 | 00:00:00 | |
| DM0DOS-11 | 2026-08-30 13:02:21 | 53.11736 | 11.27716 | 79° | 88km/h | 8842m | -5.2m/s | -36.6°C | 16.2% | 325.6hPa | 2.6V | 02:45:09 | 03:05:09 | 00:00:00 | |
| DL1XH-west | 2026-08-30 13:02:20 | 53.11743 | 11.27788 | 81° | 88km/h | 8832m | -5.3m/s | -36.5°C | 18.1% | 326.1hPa | 2.6V | 02:45:51 | 03:05:11 | 00:00:00 | |
| DL1XH-15 | 2026-08-30 13:02:19 | 53.11728 | 11.27643 | 80° | 86km/h | 8854m | -5.5m/s | -36.7°C | 16.4% | 325.1hPa | 2.6V | 02:45:11 | 03:05:07 | 00:00:00 | |
| DF8AY | 2026-08-30 13:02:18 | 53.11735 | 11.27716 | 80° | 88km/h | 8843m | -5.2m/s | -36.6°C | 18.4% | 325.6hPa | 2.6V | 02:45:51 | 03:05:09 | 00:00:00 | |
| BIOWL1-15 | 2026-08-30 13:02:17 | 53.11731 | 11.27680 | 80° | 89km/h | 8848m | -5.4m/s | -36.7°C | 18.5% | 325.4hPa | 2.6V | 02:45:51 | 03:05:08 | 00:00:00 | |
| AA1-15 | 2026-08-30 13:02:14 | 53.11720 | 11.27573 | 79° | 84km/h | 8864m | -5.4m/s | -36.9°C | 19% | 324.6hPa | 2.6V | 02:45:51 | 03:05:05 | 00:00:00 | |
| S3001 | 2026-08-30 13:02:14 | 53.11720 | 11.27573 | 78° | 84km/h | 8864m | -5.4m/s | -36.9°C | 14.7% | 324.6hPa | 2.6V | 00:00:00 | 00:00:00 | 00:00:00 | |
| DO2SHX-10 | 2026-08-30 13:02:13 | 53.11716 | 11.27538 | 78° | 89km/h | 8870m | -5.4m/s | -36.8°C | 16.9% | 324.3hPa | 2.6V | 00:00:00 | 03:05:04 | 00:00:00 | |
| DF8AY-15 | 2026-08-30 13:02:12 | 53.11711 | 11.27501 | 78° | 88km/h | 8875m | -5.4m/s | -36.9°C | 17.2% | 324.1hPa | 2.6V | 00:00:00 | 03:05:03 | 00:00:00 | |
| DL2RXE-15 | 2026-08-30 13:02:11 | 53.11711 | 11.27501 | 78° | 89km/h | 8875m | -5.4m/s | -36.9°C | 15.1% | 324.1hPa | 2.6V | 02:45:00 | 00:00:00 | 00:00:00 | |
| DB0DAN | 2026-08-30 13:02:10 | 53.11702 | 11.27427 | 79° | 86km/h | 8886m | -5.1m/s | -37°C | 15.4% | 323.52hPa | 2.6V | 00:00:00 | 00:00:00 | 00:00:00 | |
| DO2SHX-10 | 2026-08-30 13:02:10 | 53.11702 | 11.27427 | 80° | 89km/h | 8886m | -5.0m/s | -37.0°C | 17.6% | 323.5hPa | 2.6V | 00:00:00 | 03:05:01 | 00:00:00 | |
| DL1XH-15 | 2026-08-30 13:02:09 | 53.11684 | 11.27280 | 79° | 89km/h | 8908m | -5.4m/s | -37.2°C | 17.9% | 322.6hPa | 2.6V | 02:45:21 | 03:04:57 | 00:00:00 | |
| DL1XH-west | 2026-08-30 13:02:09 | 53.11698 | 11.27391 | 79° | 89km/h | 8891m | -5.4m/s | -37.1°C | 19.9% | 323.4hPa | 2.6V | 02:45:51 | 03:05:00 | 00:00:00 | |
| DD8BA-10 | 2026-08-30 13:02:09 | 53.11697 | 11.27390 | 80° | 88km/h | 8891m | -5.4m/s | -37.0°C | 17.6% | 323.3hPa | 2.6V | 02:45:00 | 00:00:00 | 00:00:00 | |
| DL1XH1-15 | 2026-08-30 13:02:08 | 53.11689 | 11.27317 | 78° | 89km/h | 8902m | -5.4m/s | -37.2°C | 17.7% | 322.9hPa | 2.6V | 02:45:20 | 03:04:58 | 00:00:00 | |
| DF8AY | 2026-08-30 13:02:08 | 53.11693 | 11.27354 | 78° | 88km/h | 8897m | -5.6m/s | -37.1°C | 20% | 323.1hPa | 2.6V | 02:45:51 | 03:04:59 | 00:00:00 | |
| BIOWL1-15 | 2026-08-30 13:02:07 | 53.11688 | 11.27317 | 78° | 89km/h | 8902m | -5.4m/s | -37.2°C | 20.1% | 322.9hPa | 2.6V | 02:45:51 | 03:04:58 | 00:00:00 | |
| AA1-15 | 2026-08-30 13:02:03 | 53.11673 | 11.27172 | 79° | 86km/h | 8924m | -5.5m/s | -37.4°C | 20.6% | 321.9hPa | 2.6V | 02:45:51 | 03:04:54 | 00:00:00 | |
| DM0DOS-11 | 2026-08-30 13:02:01 | 53.11647 | 11.26954 | 78° | 88km/h | 8957m | -5.6m/s | -37.7°C | 19.1% | 320.3hPa | 2.6V | 02:45:30 | 03:04:48 | 00:00:00 | |
| DO2SHX-10 | 2026-08-30 13:02:01 | 53.11663 | 11.27099 | 79° | 88km/h | 8935m | -5.2m/s | -37.4°C | 18.6% | 321.3hPa | 2.6V | 00:00:00 | 03:04:52 | 00:00:00 | |
| DL4BBY-15 | 2026-08-30 13:02:00 | 53.11659 | 11.27063 | 80° | 88km/h | 8940m | -5.2m/s | -38.1°C | 0% | 0hPa | 2.6V | 00:00:00 | 00:00:00 | 00:00:00 | |
| DD8BA-10 | 2026-08-30 13:01:59 | 53.11655 | 11.27027 | 80° | 88km/h | 8946m | -5.2m/s | -37.6°C | 18.8% | 320.8hPa | 2.6V | 00:00:00 | 00:00:00 | 00:00:00 | |
| DL1XH-15 | 2026-08-30 13:01:58 | 53.11642 | 11.26918 | 78° | 89km/h | 8962m | -5.4m/s | -37.7°C | 19.4% | 320hPa | 2.6V | 02:45:31 | 03:04:47 | 00:00:00 | |
| DL1XH-west | 2026-08-30 13:01:58 | 53.11651 | 11.26990 | 79° | 88km/h | 8951m | -5.3m/s | -37.7°C | 21.3% | 320.6hPa | 2.6V | 02:45:51 | 03:04:49 | 00:00:00 | |
| DF8AY | 2026-08-30 13:01:57 | 53.11647 | 11.26954 | 78° | 88km/h | 8957m | -5.6m/s | -37.7°C | 21.5% | 320.3hPa | 2.6V | 02:45:51 | 03:04:48 | 00:00:00 | |
| BIOWL1-15 | 2026-08-30 13:01:56 | 53.11634 | 11.26845 | 80° | 86km/h | 8973m | -5.4m/s | -37.9°C | 22.1% | 319.6hPa | 2.6V | 02:45:51 | 03:04:45 | 00:00:00 | |
| DB0DAN | 2026-08-30 13:01:55 | 53.11638 | 11.26881 | 80° | 84km/h | 8968m | -5.2m/s | -37.8°C | 17.2% | 319.8hPa | 2.6V | 00:00:00 | 00:00:00 | 00:00:00 | |
| AA1-15 | 2026-08-30 13:01:53 | 53.11625 | 11.26773 | 77° | 88km/h | 8984m | -5.3m/s | -38°C | 22.3% | 319.1hPa | 2.6V | 02:45:51 | 03:04:43 | 00:00:00 | |
| TFSTFS | 2026-08-30 13:01:53 | 53.11629 | 11.26809 | 79° | 86km/h | 8978m | -5.3m/s | -37.9°C | 17.4% | 319.3hPa | 2.6V | 02:45:00 | 00:00:00 | 00:00:00 | |
| DO2SHX-10 | 2026-08-30 13:01:52 | 53.11625 | 11.26773 | 77° | 89km/h | 8984m | -5.3m/s | -37.9°C | 19.8% | 319.0hPa | 2.6V | 00:00:00 | 03:04:43 | 00:00:00 | |
| DL1XH-15 | 2026-08-30 13:01:51 | 53.11597 | 11.26557 | 78° | 89km/h | 9017m | -5.1m/s | -38.3°C | 20.6% | 317.5hPa | 2.6V | 02:45:41 | 03:04:37 | 00:00:00 | |
| DL1XH-west | 2026-08-30 13:01:47 | 53.11601 | 11.26593 | 77° | 88km/h | 9011m | -5.4m/s | -38.2°C | 22.7% | 317.8hPa | 2.6V | 02:45:51 | 03:04:38 | 00:00:00 | |
| DF8AY | 2026-08-30 13:01:46 | 53.11597 | 11.26557 | 78° | 89km/h | 9017m | -5.1m/s | -38.3°C | 23% | 317.5hPa | 2.6V | 02:45:51 | 03:04:37 | 00:00:00 | |
| BIOWL1-15 | 2026-08-30 13:01:44 | 53.11588 | 11.26484 | 79° | 86km/h | 9028m | -5.7m/s | -38.4°C | 23.5% | 317.1hPa | 2.6V | 02:45:51 | 03:04:35 | 00:00:00 | |
| AA1-15 | 2026-08-30 13:01:42 | 53.11579 | 11.26414 | 78° | 86km/h | 9039m | -5.1m/s | -38.5°C | 24.2% | 316.5hPa | 2.6V | 02:45:51 | 03:04:33 | 00:00:00 | |
| DF7ER-10 | 2026-08-30 13:01:41 | 53.11579 | 11.26414 | 79° | 86km/h | 9039m | -5.1m/s | -38.5°C | 19.2% | 316.5hPa | 2.6V | 02:45:00 | 00:00:00 | 00:00:00 | |
| DB0DAN | 2026-08-30 13:01:40 | 53.11570 | 11.26341 | 78° | 86km/h | 9050m | -5.6m/s | -38.6°C | 20% | 316.04hPa | 2.6V | 00:00:00 | 00:00:00 | 00:00:00 | |
| EDDB2-11 | 2026-08-30 13:01:40 | 53.11565 | 11.26305 | 78° | 88km/h | 9055m | -5.2m/s | -38.6°C | 20.6% | 315.8hPa | 2.6V | 00:00:00 | 00:00:00 | 00:00:00 | |
| SMARD9-15 | 2026-08-30 13:01:39 | 53.11560 | 11.26268 | 76° | 86km/h | 9060m | -5.4m/s | -38.7°C | 21.2% | 315.5hPa | 2.6V | 00:00:00 | 00:00:00 | 00:00:00 | |
| DL1XH-15 | 2026-08-30 13:01:38 | 53.11549 | 11.26197 | 75° | 89km/h | 9071m | -5.4m/s | -38.7°C | 25.8% | 315hPa | 2.6V | 02:45:51 | 03:04:27 | 00:00:00 | |
| DL1XH-west | 2026-08-30 13:01:36 | 53.11549 | 11.26197 | 76° | 89km/h | 9071m | -5.4m/s | -38.7°C | 28.4% | 315hPa | 2.6V | 02:45:51 | 03:04:27 | 00:00:00 | |
| BIOWL1-15 | 2026-08-30 13:01:33 | 53.11534 | 11.26087 | 77° | 88km/h | 9087m | -5.6m/s | -38.9°C | 30.1% | 314.2hPa | 2.6V | 02:46:42 | 03:04:24 | 00:00:00 | |
| DC4HF-4 | 2026-08-30 13:01:33 | 53.11529 | 11.26051 | 76° | 88km/h | 9092m | -5.7m/s | -38.9°C | 24.8% | 314.0hPa | 2.6V | 00:00:00 | 00:00:00 | 00:00:00 | |
| DL1XH1-15 | 2026-08-30 13:01:32 | 53.11505 | 11.25866 | 76° | 88km/h | 9120m | -5.4m/s | -39.1°C | 27.3% | 312.7hPa | 2.6V | 02:46:00 | 03:04:18 | 00:00:00 | |
| AA1-15 | 2026-08-30 13:01:32 | 53.11524 | 11.26014 | 76° | 91km/h | 9098m | -5.4m/s | -39°C | 30.6% | 313.8hPa | 2.6V | 02:46:42 | 03:04:22 | 00:00:00 | |
| DL1XH-west | 2026-08-30 13:01:25 | 53.11494 | 11.25793 | 77° | 91km/h | 9131m | -5.5m/s | -39.2°C | 29% | 312.2hPa | 2.6V | 02:46:42 | 03:04:16 | 00:00:00 | |
| DB0DAN | 2026-08-30 13:01:25 | 53.11494 | 11.25793 | 77° | 86km/h | 9131m | -5.5m/s | -39.2°C | 23.4% | 312.25hPa | 2.6V | 00:00:00 | 00:00:00 | 00:00:00 | |
| BIOWL1-15 | 2026-08-30 13:01:23 | 53.11485 | 11.25719 | 78° | 88km/h | 9142m | -5.4m/s | -39.3°C | 28.9% | 311.8hPa | 2.6V | 02:46:42 | 03:04:14 | 00:00:00 | |
| AA1-15 | 2026-08-30 13:01:21 | 53.11475 | 11.25647 | 75° | 89km/h | 9153m | -5.5m/s | -39.4°C | 29.1% | 311.2hPa | 2.6V | 02:46:42 | 03:04:12 | 00:00:00 | |
| DF7ER-10 | 2026-08-30 13:01:20 | 53.11475 | 11.25647 | 76° | 89km/h | 9153m | -5.5m/s | -39.4°C | 23.4% | 311.2hPa | 2.6V | 02:46:00 | 00:00:00 | 00:00:00 | |
| DD8BA-10 | 2026-08-30 13:01:19 | 53.11463 | 11.25573 | 77° | 91km/h | 9164m | -5.3m/s | -39.4°C | 26.3% | 310.7hPa | 2.6V | 00:00:00 | 00:00:00 | 00:00:00 | |
| DL1XH-15 | 2026-08-30 13:01:18 | 53.11447 | 11.25463 | 75° | 89km/h | 9180m | -5.5m/s | -39.6°C | 28.3% | 310hPa | 2.6V | 02:46:11 | 03:04:07 | 00:00:00 | |
| DL1XH1-15 | 2026-08-30 13:01:18 | 53.11453 | 11.25499 | 75° | 89km/h | 9174m | -5.4m/s | -39.5°C | 27.4% | 310.3hPa | 2.6V | 02:46:10 | 03:04:08 | 00:00:00 | |
| BIOWL1-15 | 2026-08-30 13:01:17 | 53.11430 | 11.25351 | 78° | 91km/h | 9197m | -5.5m/s | -39.7°C | 32.4% | 309.3hPa | 2.6V | 02:46:42 | 03:04:04 | 00:00:00 | |
| DL1XH-west | 2026-08-30 13:01:15 | 53.11441 | 11.25426 | 76° | 91km/h | 9185m | -5.6m/s | -39.6°C | 31.9% | 309.8hPa | 2.6V | 02:46:42 | 03:04:06 | 00:00:00 | |
| DO2SHX-10 | 2026-08-30 13:01:13 | 53.11430 | 11.25351 | 78° | 89km/h | 9197m | -5.4m/s | -39.7°C | 29.7% | 309.2hPa | 2.6V | 02:46:00 | 03:04:04 | 00:00:00 | |
| DF8AY-15 | 2026-08-30 13:01:12 | 53.11425 | 11.25314 | 78° | 91km/h | 9203m | -5.7m/s | -39.7°C | 29.7% | 309.0hPa | 2.6V | 00:00:00 | 03:04:03 | 00:00:00 | |
| DL1XH-15 | 2026-08-30 13:01:11 | 53.11394 | 11.25092 | 76° | 89km/h | 9236m | -5.3m/s | -40.1°C | 29.9% | 307.5hPa | 2.6V | 02:46:21 | 03:03:57 | 00:00:00 | |
| AA1-15 | 2026-08-30 13:01:10 | 53.11415 | 11.25241 | 76° | 91km/h | 9214m | -5.4m/s | -39.9°C | 32.7% | 308.4hPa | 2.6V | 02:46:42 | 03:04:01 | 00:00:00 | |
| DB0DAN | 2026-08-30 13:01:10 | 53.11415 | 11.25241 | 76° | 86km/h | 9213m | -5.4m/s | -39.9°C | 26.8% | 308.42hPa | 2.6V | 00:00:00 | 00:00:00 | 00:00:00 | |
| DL1XH-west | 2026-08-30 13:01:04 | 53.11383 | 11.25018 | 76° | 93km/h | 9248m | -5.6m/s | -40.2°C | 32.3% | 306.9hPa | 2.6V | 02:46:42 | 03:03:55 | 00:00:00 | |
| BIOWL1-15 | 2026-08-30 13:01:02 | 53.11372 | 11.24942 | 78° | 91km/h | 9259m | -5.4m/s | -40.3°C | 32.3% | 306.5hPa | 2.6V | 02:46:42 | 03:03:53 | 00:00:00 | |
| AA1-15 | 2026-08-30 13:01:00 | 53.11356 | 11.24830 | 77° | 93km/h | 9276m | -5.6m/s | -40.5°C | 33% | 305.7hPa | 2.6V | 02:46:42 | 03:03:50 | 00:00:00 | |
| DL4BBY-15 | 2026-08-30 13:01:00 | 53.11361 | 11.24868 | 77° | 91km/h | 9270m | -5.6m/s | -40.9°C | 0% | 0hPa | 2.6V | 00:00:00 | 00:00:00 | 00:00:00 | |
| DD8BA-10 | 2026-08-30 13:00:59 | 53.11356 | 11.24830 | 77° | 89km/h | 9276m | -5.5m/s | -40.4°C | 30.3% | 305.7hPa | 2.6V | 00:00:00 | 00:00:00 | 00:00:00 | |
| DL1XH1-15 | 2026-08-30 13:00:58 | 53.11346 | 11.24754 | 78° | 91km/h | 9287m | -5.4m/s | -40.6°C | 30.8% | 305.2hPa | 2.6V | 02:46:30 | 03:03:48 | 00:00:00 | |
| DC4HF-4 | 2026-08-30 13:00:56 | 53.11341 | 11.24717 | 77° | 88km/h | 9293m | -5.3m/s | -40.6°C | 27.5% | 305.0hPa | 2.6V | 00:00:00 | 00:00:00 | 00:00:00 | |
| DB0DAN | 2026-08-30 13:00:55 | 53.11336 | 11.24681 | 77° | 86km/h | 9298m | -5.2m/s | -40.7°C | 27.8% | 304.7hPa | 2.6V | 00:00:00 | 00:00:00 | 00:00:00 | |
| DF8AY | 2026-08-30 13:00:54 | 53.11331 | 11.24644 | 78° | 91km/h | 9304m | -5.1m/s | -40.7°C | 34% | 304.5hPa | 2.6V | 02:46:42 | 03:03:45 | 00:00:00 | |
| DL1XH-west | 2026-08-30 13:00:53 | 53.11326 | 11.24606 | 78° | 91km/h | 9309m | -5.5m/s | -40.8°C | 34.2% | 304.2hPa | 2.6V | 02:46:42 | 03:03:44 | 00:00:00 | |
| BIOWL1-15 | 2026-08-30 13:00:51 | 53.11317 | 11.24533 | 77° | 88km/h | 9320m | -5.6m/s | -40.9°C | 34.5% | 303.7hPa | 2.6V | 02:46:42 | 03:03:42 | 00:00:00 | |
| DL1XH-15 | 2026-08-30 13:00:51 | 53.11291 | 11.24347 | 78° | 91km/h | 9349m | -5.6m/s | -41.1°C | 32.4% | 302.5hPa | 2.6V | 02:46:41 | 03:03:37 | 00:00:00 | |
| AA1-15 | 2026-08-30 13:00:49 | 53.11306 | 11.24461 | 76° | 91km/h | 9332m | -5.6m/s | -40.9°C | 34.9% | 303.2hPa | 2.6V | 02:46:42 | 03:03:40 | 00:00:00 | |
| SONCRA | 2026-08-30 13:00:48 | 53.11295 | 11.24385 | 78° | 91km/h | 9343m | -5.5m/s | -41.0°C | 28.8% | 302.7hPa | 2.6V | 00:00:00 | 00:00:00 | 00:00:00 | |
| DL3AQ-11 | 2026-08-30 13:00:47 | 53.11295 | 11.24385 | 78° | 91km/h | 9343m | -5.5m/s | -41.0°C | 28.8% | 302.7hPa | 2.6V | 00:00:00 | 00:00:00 | 00:00:00 | |
| EDDB2-12 | 2026-08-30 13:00:44 | 53.11281 | 11.24272 | 77° | 91km/h | 9360m | -5.5m/s | -41.2°C | 29.0% | 301.9hPa | 2.6V | 00:00:00 | 00:00:00 | 00:00:00 | |
| DF8AY | 2026-08-30 13:00:43 | 53.11276 | 11.24233 | 78° | 95km/h | 9366m | -5.7m/s | -41.2°C | 35.3% | 301.6hPa | 2.6V | 02:47:33 | 03:03:34 | 00:00:00 | |
| DL1XH-west | 2026-08-30 13:00:42 | 53.11271 | 11.24194 | 79° | 95km/h | 9372m | -5.7m/s | -41.3°C | 35.3% | 301.4hPa | 2.6V | 02:47:33 | 03:03:33 | 00:00:00 | |
| BIOWL1-15 | 2026-08-30 13:00:40 | 53.11262 | 11.24118 | 79° | 91km/h | 9383m | -5.3m/s | -41.4°C | 35.5% | 301hPa | 2.6V | 02:47:33 | 03:03:31 | 00:00:00 | |
| DB0DAN | 2026-08-30 13:00:40 | 53.11262 | 11.24118 | 79° | 86km/h | 9383m | -5.3m/s | -41.4°C | 29.3% | 300.96hPa | 2.6V | 00:00:00 | 00:00:00 | 00:00:00 | |
| AA1-15 | 2026-08-30 13:00:38 | 53.11252 | 11.24043 | 77° | 93km/h | 9394m | -5.7m/s | -41.4°C | 35.3% | 300.4hPa | 2.6V | 02:47:33 | 03:03:29 | 00:00:00 | |
| DL1XH1-15 | 2026-08-30 13:00:38 | 53.11246 | 11.24004 | 77° | 95km/h | 9400m | -5.7m/s | -41.5°C | 32.6% | 300.2hPa | 2.6V | 02:46:50 | 03:03:28 | 00:00:00 | |
| DF8AY | 2026-08-30 13:00:33 | 53.11226 | 11.23850 | 76° | 93km/h | 9422m | -5.5m/s | -41.6°C | 35.5% | 299.1hPa | 2.6V | 02:47:33 | 03:03:24 | 00:00:00 | |
| DL1XH-west | 2026-08-30 13:00:31 | 53.11215 | 11.23773 | 78° | 95km/h | 9434m | -5.6m/s | -41.7°C | 35.6% | 298.6hPa | 2.6V | 02:47:33 | 03:03:22 | 00:00:00 | |
| DM0DOS-11 | 2026-08-30 13:00:31 | 53.11195 | 11.23619 | 77° | 95km/h | 9457m | -5.8m/s | -41.9°C | 32.9% | 297.6hPa | 2.6V | 02:47:00 | 03:03:18 | 00:00:00 | |
| DL1XH-15 | 2026-08-30 13:00:31 | 53.11190 | 11.23579 | 78° | 97km/h | 9463m | -5.9m/s | -41.9°C | 33.1% | 297.4hPa | 2.6V | 02:47:01 | 03:03:17 | 00:00:00 | |
| BIOWL1-15 | 2026-08-30 13:00:29 | 53.11201 | 11.23658 | 77° | 95km/h | 9451m | -5.6m/s | -41.9°C | 35.8% | 297.9hPa | 2.6V | 02:47:33 | 03:03:19 | 00:00:00 | |
| AA1-15 | 2026-08-30 13:00:27 | 53.11196 | 11.23619 | 78° | 95km/h | 9457m | -5.8m/s | -41.9°C | 35.8% | 297.7hPa | 2.6V | 02:47:33 | 03:03:18 | 00:00:00 | |
| DO2LYB-13 | 2026-08-30 13:00:26 | 53.11195 | 11.23619 | 79° | 95km/h | 9457m | -5.8m/s | -41.9°C | 29.3% | 297.7hPa | 2.6V | 00:00:00 | 00:00:00 | 00:00:00 | |
| DB0DAN | 2026-08-30 13:00:25 | 53.11186 | 11.23540 | 79° | 89km/h | 9469m | -5.4m/s | -42°C | 29.6% | 297.16hPa | 2.6V | 00:00:00 | 00:00:00 | 00:00:00 | |
| DF8AY | 2026-08-30 13:00:23 | 53.11176 | 11.23463 | 77° | 95km/h | 9480m | -5.7m/s | -42.1°C | 36.5% | 296.6hPa | 2.6V | 02:47:33 | 03:03:14 | 00:00:00 | |
| DL1XH-west | 2026-08-30 13:00:20 | 53.11160 | 11.23344 | 79° | 95km/h | 9497m | -5.6m/s | -42.2°C | 36.9% | 295.9hPa | 2.6V | 02:47:33 | 03:03:11 | 00:00:00 | |
| BIOWL1-15 | 2026-08-30 13:00:19 | 53.11155 | 11.23306 | 78° | 95km/h | 9503m | -5.7m/s | -42.3°C | 37.1% | 295.6hPa | 2.6V | 02:47:33 | 03:03:10 | 00:00:00 | |
| DL1XH-15 | 2026-08-30 13:00:19 | 53.11141 | 11.23187 | 79° | 95km/h | 9520m | -5.6m/s | -42.4°C | 34.8% | 294.9hPa | 2.6V | 02:47:11 | 03:03:07 | 00:00:00 | |
| AA1-15 | 2026-08-30 13:00:17 | 53.11141 | 11.23187 | 80° | 95km/h | 9520m | -5.6m/s | -42.4°C | 37.6% | 294.9hPa | 2.6V | 02:47:33 | 03:03:07 | 00:00:00 | |
| DF8AY | 2026-08-30 13:00:12 | 53.11121 | 11.23032 | 78° | 97km/h | 9543m | -5.7m/s | -42.6°C | 38.5% | 293.9hPa | 2.6V | 02:47:33 | 03:03:03 | 00:00:00 | |
| DF8AY-15 | 2026-08-30 13:00:12 | 53.11121 | 11.23032 | 78° | 95km/h | 9543m | -5.7m/s | -42.6°C | 35.6% | 293.8hPa | 2.6V | 00:00:00 | 03:03:03 | 00:00:00 | |
| DM0DOS-11 | 2026-08-30 13:00:11 | 53.11097 | 11.22836 | 77° | 97km/h | 9572m | -6m/s | -42.9°C | 36.5% | 292.6hPa | 2.6V | 02:47:20 | 03:02:58 | 00:00:00 | |
| DB0DAN | 2026-08-30 13:00:10 | 53.11112 | 11.22952 | 79° | 89km/h | 9555m | -5.6m/s | -42.7°C | 32.2% | 293.4hPa | 2.6V | 00:00:00 | 00:00:00 | 00:00:00 | |
| DL1XH-west | 2026-08-30 13:00:09 | 53.11107 | 11.22914 | 78° | 93km/h | 9561m | -5.7m/s | -42.8°C | 39.2% | 293.1hPa | 2.6V | 02:47:33 | 03:03:00 | 00:00:00 | |
| BIOWL1-15 | 2026-08-30 13:00:08 | 53.11102 | 11.22876 | 77° | 95km/h | 9566m | -5.9m/s | -42.8°C | 39.3% | 292.9hPa | 2.6V | 02:47:33 | 03:02:59 | 00:00:00 | |
| AA1-15 | 2026-08-30 13:00:05 | 53.11087 | 11.22757 | 80° | 95km/h | 9584m | -5.6m/s | -43°C | 39.7% | 292.1hPa | 2.6V | 02:47:33 | 03:02:56 | 00:00:00 | |
| DF8AY | 2026-08-30 13:00:01 | 53.11067 | 11.22605 | 77° | 95km/h | 9607m | -5.8m/s | -43.2°C | 40% | 291.1hPa | 2.6V | 02:47:33 | 03:02:52 | 00:00:00 | |
| DL1XH-west | 2026-08-30 12:59:58 | 53.11052 | 11.22489 | 78° | 93km/h | 9625m | -5.8m/s | -43.3°C | 40.3% | 290.3hPa | 2.6V | 02:47:33 | 03:02:49 | 00:00:00 | |
| BIOWL1-15 | 2026-08-30 12:59:57 | 53.11047 | 11.22450 | 78° | 95km/h | 9630m | -5.9m/s | -43.3°C | 40.3% | 290.1hPa | 2.6V | 02:47:33 | 03:02:48 | 00:00:00 | |
| DF7ER-10 | 2026-08-30 12:59:56 | 53.11047 | 11.22450 | 79° | 95km/h | 9630m | -5.9m/s | -43.3°C | 33.3% | 290.1hPa | 2.6V | 02:47:00 | 00:00:00 | 00:00:00 | |
| DB0DAN | 2026-08-30 12:59:55 | 53.11038 | 11.22373 | 80° | 89km/h | 9642m | -5.6m/s | -43.4°C | 33.5% | 289.63hPa | 2.6V | 00:00:00 | 00:00:00 | 00:00:00 | |
| AA1-15 | 2026-08-30 12:59:54 | 53.11034 | 11.22334 | 79° | 93km/h | 9648m | -5.7m/s | -43.5°C | 40.6% | 289.3hPa | 2.6V | 02:47:33 | 03:02:45 | 00:00:00 | |
| DF8AY | 2026-08-30 12:59:50 | 53.11015 | 11.22182 | 79° | 91km/h | 9671m | -5.8m/s | -43.7°C | 41% | 288.3hPa | 2.6V | 02:48:24 | 03:02:41 | 00:00:00 | |
| DL1XH-west | 2026-08-30 12:59:47 | 53.11000 | 11.22069 | 75° | 95km/h | 9689m | -5.6m/s | -43.9°C | 41.1% | 287.6hPa | 2.6V | 02:48:24 | 03:02:38 | 00:00:00 | |
| DL1XH-15 | 2026-08-30 12:59:47 | 53.10994 | 11.22030 | 77° | 95km/h | 9694m | -5.7m/s | -43.9°C | 38.1% | 287.3hPa | 2.6V | 02:47:41 | 03:02:37 | 00:00:00 | |
| BIOWL1-15 | 2026-08-30 12:59:46 | 53.10968 | 11.21836 | 79° | 95km/h | 9724m | -5.8m/s | -44.2°C | 41.2% | 286.1hPa | 2.6V | 02:48:24 | 03:02:32 | 00:00:00 | |
| SONCRA | 2026-08-30 12:59:46 | 53.10989 | 11.21991 | 77° | 93km/h | 9700m | -6.0m/s | -44.0°C | 33.9% | 287.1hPa | 2.6V | 00:00:00 | 00:00:00 | 00:00:00 | |
| AA1-15 | 2026-08-30 12:59:43 | 53.10978 | 11.21914 | 77° | 95km/h | 9712m | -6m/s | -44.1°C | 41% | 286.6hPa | 2.6V | 02:48:24 | 03:02:34 | 00:00:00 | |
| EDDB2-12 | 2026-08-30 12:59:42 | 53.10973 | 11.21875 | 78° | 95km/h | 9718m | -5.9m/s | -44.1°C | 33.8% | 286.3hPa | 2.6V | 00:00:00 | 00:00:00 | 00:00:00 | |
| DL1XH-15 | 2026-08-30 12:59:41 | 53.10944 | 11.21646 | 76° | 89km/h | 9753m | -5.9m/s | -44.4°C | 39.3% | 284.8hPa | 2.6V | 02:47:51 | 03:02:27 | 00:00:00 | |
| DB0DAN | 2026-08-30 12:59:40 | 53.10964 | 11.21797 | 79° | 89km/h | 9730m | -5.9m/s | -44.2°C | 34.3% | 285.8hPa | 2.6V | 00:00:00 | 00:00:00 | 00:00:00 | |
| DF8AY | 2026-08-30 12:59:40 | 53.10964 | 11.21797 | 80° | 93km/h | 9730m | -5.9m/s | -44.2°C | 41.3% | 285.8hPa | 2.6V | 02:48:24 | 03:02:31 | 00:00:00 | |
| DO2SHX-10 | 2026-08-30 12:59:40 | 53.10964 | 11.21797 | 80° | 93km/h | 9730m | -5.8m/s | -44.2°C | 38.6% | 285.7hPa | 2.6V | 00:00:00 | 03:02:31 | 00:00:00 | |
| DD8BA-10 | 2026-08-30 12:59:39 | 53.10959 | 11.21759 | 79° | 91km/h | 9736m | -5.5m/s | -44.2°C | 38.8% | 285.5hPa | 2.6V | 02:47:00 | 00:00:00 | 00:00:00 | |
| DL1XH1-15 | 2026-08-30 12:59:38 | 53.10949 | 11.21683 | 76° | 91km/h | 9747m | -6m/s | -44.4°C | 39.2% | 285.1hPa | 2.6V | 02:47:50 | 03:02:28 | 00:00:00 | |
| DL1XH-west | 2026-08-30 12:59:37 | 53.10949 | 11.21683 | 77° | 93km/h | 9747m | -6m/s | -44.4°C | 41.8% | 285.1hPa | 2.6V | 02:48:24 | 03:02:28 | 00:00:00 | |
| AA1-15 | 2026-08-30 12:59:33 | 53.10925 | 11.21539 | 72° | 89km/h | 9771m | -6m/s | -44.6°C | 42.2% | 284.1hPa | 2.6V | 02:48:24 | 03:02:24 | 00:00:00 | |
| BIOWL1-15 | 2026-08-30 12:59:31 | 53.10910 | 11.21466 | 71° | 93km/h | 9783m | -5.6m/s | -44.7°C | 42.6% | 283.6hPa | 2.6V | 02:48:24 | 03:02:22 | 00:00:00 | |
| DF8AY | 2026-08-30 12:59:30 | 53.10896 | 11.21392 | 73° | 93km/h | 9794m | -6m/s | -44.8°C | 42.8% | 283hPa | 2.6V | 02:48:24 | 03:02:20 | 00:00:00 | |
| DD8BA-10 | 2026-08-30 12:59:29 | 53.10896 | 11.21392 | 73° | 95km/h | 9794m | -5.9m/s | -44.7°C | 39.8% | 282.9hPa | 2.6V | 00:00:00 | 00:00:00 | 00:00:00 | |
| DO2SHX-10 | 2026-08-30 12:59:28 | 53.10889 | 11.21354 | 74° | 91km/h | 9800m | -6.2m/s | -44.8°C | 39.7% | 282.8hPa | 2.6V | 00:00:00 | 03:02:19 | 00:00:00 | |
| DL1XH-15 | 2026-08-30 12:59:27 | 53.10876 | 11.21280 | 74° | 91km/h | 9815m | -7.8m/s | -45°C | 40% | 282.2hPa | 2.6V | 02:48:01 | 03:02:17 | 00:00:00 | |
| DL1XH-west | 2026-08-30 12:59:27 | 53.10877 | 11.21280 | 75° | 91km/h | 9815m | -7.8m/s | -45°C | 43% | 282.2hPa | 2.6V | 02:48:24 | 03:02:17 | 00:00:00 | |
| DB0DAN | 2026-08-30 12:59:25 | 53.10871 | 11.21243 | 76° | 89km/h | 9822m | -7.3m/s | -45°C | 35.7% | 281.89hPa | 2.6V | 00:00:00 | 00:00:00 | 00:00:00 | |
| BIOWL1-15 | 2026-08-30 12:59:22 | 53.10842 | 11.20962 | 81° | 93km/h | 9870m | -7.5m/s | -45.4°C | 43.1% | 279.9hPa | 2.6V | 02:48:24 | 03:02:09 | 00:00:00 | |
| AA1-15 | 2026-08-30 12:59:22 | 53.10857 | 11.21124 | 80° | 100km/h | 9843m | -6.6m/s | -45.2°C | 43.2% | 281hPa | 2.6V | 02:48:24 | 03:02:13 | 00:00:00 | |
| DO9LL-15 | 2026-08-30 12:59:22 | 53.10857 | 11.21124 | 81° | 97km/h | 9843m | -6.5m/s | -45.1°C | 40.3% | 281.0hPa | 2.6V | 00:00:00 | 03:02:13 | 00:00:00 | |
| GOEST3-10 | 2026-08-30 12:59:21 | 53.10853 | 11.21083 | 82° | 95km/h | 9850m | -6.7m/s | -45.2°C | 40.2% | 280.7hPa | 2.6V | 02:48:00 | 00:00:00 | 00:00:00 | |
| DD8BA-10 | 2026-08-30 12:59:19 | 53.10845 | 11.21001 | 82° | 91km/h | 9863m | -7.3m/s | -45.3°C | 40.2% | 280.2hPa | 2.6V | 00:00:00 | 00:00:00 | 00:00:00 | |
| DL1XH1-15 | 2026-08-30 12:59:18 | 53.10838 | 11.20924 | 80° | 89km/h | 9878m | -7.1m/s | -45.4°C | 40.2% | 279.6hPa | 2.6V | 02:48:10 | 03:02:08 | 00:00:00 | |
| DL1XH-west | 2026-08-30 12:59:16 | 53.10834 | 11.20888 | 79° | 88km/h | 9885m | -7.3m/s | -45.5°C | 43.3% | 279.2hPa | 2.6V | 02:48:24 | 03:02:07 | 00:00:00 | |
| DL3AQ-11 | 2026-08-30 12:59:15 | 53.10824 | 11.20817 | 75° | 86km/h | 9900m | -7.3m/s | -45.6°C | 36.1% | 278.7hPa | 2.6V | 00:00:00 | 00:00:00 | 00:00:00 | |
| SONCRA | 2026-08-30 12:59:14 | 53.10824 | 11.20817 | 75° | 86km/h | 9900m | -7.3m/s | -45.6°C | 36.1% | 278.7hPa | 2.6V | 00:00:00 | 00:00:00 | 00:00:00 | |
| DO2SHX-10 | 2026-08-30 12:59:13 | 53.10818 | 11.20782 | 75° | 91km/h | 9908m | -7.4m/s | -45.6°C | 40.7% | 278.2hPa | 2.6V | 00:00:00 | 03:02:04 | 00:00:00 | |
| DF8AY-15 | 2026-08-30 12:59:12 | 53.10812 | 11.20746 | 74° | 99km/h | 9915m | -7.5m/s | -45.7°C | 40.7% | 278.0hPa | 2.6V | 00:00:00 | 03:02:03 | 00:00:00 | |
| DM0DOS-11 | 2026-08-30 12:59:11 | 53.10777 | 11.20549 | 75° | 104km/h | 9952m | -7.5m/s | -46.1°C | 39.5% | 276.4hPa | 2.6V | 02:48:20 | 03:01:58 | 00:00:00 | |
| AA1-15 | 2026-08-30 12:59:11 | 53.10805 | 11.20709 | 73° | 93km/h | 9922m | -7.4m/s | -45.9°C | 43.7% | 277.7hPa | 2.6V | 02:48:24 | 03:02:02 | 00:00:00 | |
| DB0DAN | 2026-08-30 12:59:10 | 53.10798 | 11.20671 | 73° | 93km/h | 9929m | -7.2m/s | -45.9°C | 35.7% | 277.41hPa | 2.6V | 00:00:00 | 00:00:00 | 00:00:00 | |
| DF8AY | 2026-08-30 12:59:07 | 53.10777 | 11.20549 | 75° | 104km/h | 9952m | -7.6m/s | -46.1°C | 43.3% | 276.5hPa | 2.6V | 02:48:24 | 03:01:58 | 00:00:00 | |
| DL1XH-west | 2026-08-30 12:59:06 | 53.10770 | 11.20506 | 76° | 102km/h | 9959m | -7.5m/s | -46.1°C | 43.2% | 276.1hPa | 2.6V | 02:48:24 | 03:01:57 | 00:00:00 | |
| AA1-15 | 2026-08-30 12:59:00 | 53.10739 | 11.20257 | 79° | 99km/h | 10003m | -7.4m/s | -46.5°C | 42.5% | 274.3hPa | 2.6V | 02:49:15 | 03:01:51 | 00:00:00 | |
| DL4BBY-15 | 2026-08-30 12:59:00 | 53.10739 | 11.20256 | 79° | 95km/h | 10003m | -7.4m/s | -47.0°C | 0% | 0hPa | 2.6V | 00:00:00 | 00:00:00 | 00:00:00 | |
| DL1XH-15 | 2026-08-30 12:58:59 | 53.10720 | 11.20096 | 78° | 97km/h | 10034m | -7.8m/s | -46.8°C | 38.6% | 273hPa | 2.6V | 02:48:31 | 03:01:47 | 00:00:00 | |
| DD8BA-10 | 2026-08-30 12:58:59 | 53.10734 | 11.20216 | 79° | 95km/h | 10011m | -7.5m/s | -46.5°C | 39.0% | 273.9hPa | 2.6V | 00:00:00 | 00:00:00 | 00:00:00 | |
| DL1XH1-15 | 2026-08-30 12:58:58 | 53.10725 | 11.20136 | 78° | 97km/h | 10026m | -7.7m/s | -46.6°C | 38.5% | 273.3hPa | 2.6V | 02:48:30 | 03:01:48 | 00:00:00 | |
| DF8AY | 2026-08-30 12:58:57 | 53.10725 | 11.20136 | 78° | 97km/h | 10026m | -7.7m/s | -46.7°C | 42.1% | 273.3hPa | 2.6V | 02:49:15 | 03:01:48 | 00:00:00 | |
| BIOWL1-15 | 2026-08-30 12:58:56 | 53.10710 | 11.20017 | 79° | 97km/h | 10050m | -8m/s | -46.9°C | 41.9% | 272.3hPa | 2.6V | 02:49:15 | 03:01:45 | 00:00:00 | |
| DL1XH-west | 2026-08-30 12:58:56 | 53.10720 | 11.20096 | 78° | 97km/h | 10034m | -7.8m/s | -46.8°C | 42.1% | 273hPa | 2.6V | 02:49:15 | 03:01:47 | 00:00:00 | |
| DB0DAN | 2026-08-30 12:58:55 | 53.10715 | 11.20056 | 78° | 91km/h | 10042m | -8.1m/s | -46.8°C | 33.8% | 272.73hPa | 2.6V | 00:00:00 | 00:00:00 | 00:00:00 | |
| DO2SHX-10 | 2026-08-30 12:58:55 | 53.10714 | 11.20056 | 79° | 97km/h | 10042m | -8.0m/s | -46.8°C | 38.4% | 272.7hPa | 2.6V | 00:00:00 | 03:01:46 | 00:00:00 | |
| AM1SDL-15 | 2026-08-30 12:58:53 | 53.10705 | 11.19977 | 79° | 95km/h | 10058m | -8.0m/s | -46.9°C | 38.5% | 272.0hPa | 2.6V | 02:48:00 | 03:01:44 | 00:00:00 | |
| DM0DOS-11 | 2026-08-30 12:58:51 | 53.10677 | 11.19743 | 78° | 95km/h | 10104m | -7.9m/s | -47.3°C | 37.5% | 270.1hPa | 2.6V | 02:48:40 | 03:01:38 | 00:00:00 | |
| AA1-15 | 2026-08-30 12:58:50 | 53.10691 | 11.19860 | 79° | 95km/h | 10081m | -7.7m/s | -47.2°C | 41.4% | 271.1hPa | 2.6V | 02:49:15 | 03:01:41 | 00:00:00 | |
| DL1XH-15 | 2026-08-30 12:58:49 | 53.10672 | 11.19704 | 78° | 95km/h | 10112m | -8.1m/s | -47.4°C | 37.3% | 269.8hPa | 2.6V | 02:48:41 | 03:01:37 | 00:00:00 | |
| DF8AY | 2026-08-30 12:58:47 | 53.10672 | 11.19704 | 78° | 95km/h | 10112m | -8.1m/s | -47.4°C | 40.7% | 269.8hPa | 2.6V | 02:49:15 | 03:01:37 | 00:00:00 | |
| DL1XH-west | 2026-08-30 12:58:45 | 53.10668 | 11.19665 | 78° | 95km/h | 10120m | -7.7m/s | -47.4°C | 40.5% | 269.4hPa | 2.6V | 02:49:15 | 03:01:36 | 00:00:00 | |
| BIOWL1-15 | 2026-08-30 12:58:43 | 53.10658 | 11.19587 | 78° | 95km/h | 10136m | -7.8m/s | -47.6°C | 40.3% | 268.8hPa | 2.6V | 02:49:15 | 03:01:34 | 00:00:00 | |
| DO2SHX-10 | 2026-08-30 12:58:43 | 53.10658 | 11.19586 | 79° | 95km/h | 10136m | -7.7m/s | -47.5°C | 37.1% | 268.8hPa | 2.6V | 00:00:00 | 03:01:34 | 00:00:00 | |
| DB0DAN | 2026-08-30 12:58:40 | 53.10644 | 11.19469 | 79° | 89km/h | 10160m | -8.2m/s | -47.7°C | 32.2% | 267.85hPa | 2.6V | 00:00:00 | 00:00:00 | 00:00:00 | |
| DO2SHX-10 | 2026-08-30 12:58:40 | 53.10644 | 11.19469 | 79° | 95km/h | 10160m | -8.2m/s | -47.7°C | 36.8% | 267.8hPa | 2.6V | 02:48:00 | 03:01:31 | 00:00:00 | |
| DL1XH-15 | 2026-08-30 12:58:39 | 53.10624 | 11.19313 | 77° | 95km/h | 10192m | -7.9m/s | -47.9°C | 37.1% | 266.6hPa | 2.6V | 02:48:51 | 03:01:27 | 00:00:00 | |
| AA1-15 | 2026-08-30 12:58:39 | 53.10639 | 11.19430 | 79° | 95km/h | 10168m | -8m/s | -47.8°C | 40.3% | 267.6hPa | 2.6V | 02:49:15 | 03:01:30 | 00:00:00 | |
| DF8AY | 2026-08-30 12:58:35 | 53.10619 | 11.19274 | 77° | 95km/h | 10200m | -7.9m/s | -48°C | 40.8% | 266.3hPa | 2.6V | 02:49:15 | 03:01:26 | 00:00:00 | |
| DL1XH-west | 2026-08-30 12:58:34 | 53.10614 | 11.19235 | 77° | 95km/h | 10207m | -8.1m/s | -48.1°C | 41% | 266hPa | 2.6V | 02:49:15 | 03:01:25 | 00:00:00 | |
| BIOWL1-15 | 2026-08-30 12:58:33 | 53.10609 | 11.19196 | 78° | 97km/h | 10215m | -8m/s | -48.1°C | 41.1% | 265.6hPa | 2.6V | 02:49:15 | 03:01:24 | 00:00:00 | |
| DB0NH | 2026-08-30 12:58:33 | 53.10609 | 11.19195 | 78° | 97km/h | 10215m | -8.0m/s | -48.1°C | 37.4% | 265.5hPa | 2.6V | 02:48:00 | 03:01:24 | 00:00:00 | |
| DF8AY-15 | 2026-08-30 12:58:32 | 53.10603 | 11.19156 | 78° | 97km/h | 10223m | -7.9m/s | -48.1°C | 37.5% | 265.2hPa | 2.6V | 02:48:00 | 03:01:23 | 00:00:00 | |
| DM0DOS-11 | 2026-08-30 12:58:31 | 53.10579 | 11.18957 | 78° | 97km/h | 10264m | -7.9m/s | -48.5°C | 38.2% | 263.7hPa | 2.6V | 02:49:00 | 03:01:18 | 00:00:00 | |
| AA1-15 | 2026-08-30 12:58:28 | 53.10584 | 11.18997 | 79° | 97km/h | 10256m | -7.9m/s | -48.4°C | 41.7% | 264hPa | 2.6V | 02:49:15 | 03:01:19 | 00:00:00 | |
| DO2SHX-10 | 2026-08-30 12:58:28 | 53.10584 | 11.18997 | 79° | 97km/h | 10256m | -7.8m/s | -48.4°C | 38.1% | 263.9hPa | 2.6V | 00:00:00 | 03:01:19 | 00:00:00 | |
| DL1XH-15 | 2026-08-30 12:58:27 | 53.10574 | 11.18917 | 78° | 97km/h | 10271m | -8m/s | -48.6°C | 38.5% | 263.4hPa | 2.6V | 02:49:01 | 03:01:17 | 00:00:00 | |
| DB0DAN | 2026-08-30 12:58:25 | 53.10569 | 11.18877 | 79° | 93km/h | 10279m | -8.1m/s | -48.6°C | 33.6% | 263.04hPa | 2.6V | 00:00:00 | 00:00:00 | 00:00:00 | |
| DL1XH-west | 2026-08-30 12:58:24 | 53.10565 | 11.18837 | 79° | 97km/h | 10287m | -8m/s | -48.7°C | 42.2% | 262.8hPa | 2.6V | 02:49:15 | 03:01:15 | 00:00:00 | |
| BIOWL1-15 | 2026-08-30 12:58:22 | 53.10551 | 11.18717 | 80° | 97km/h | 10311m | -7.9m/s | -48.9°C | 42.2% | 261.7hPa | 2.6V | 02:49:15 | 03:01:12 | 00:00:00 | |
| DL1XH-15 | 2026-08-30 12:58:22 | 53.10530 | 11.18516 | 80° | 97km/h | 10351m | -7.8m/s | -49.2°C | 38.9% | 260.2hPa | 2.6V | 02:49:11 | 03:01:07 | 00:00:00 | |
| AA1-15 | 2026-08-30 12:58:18 | 53.10538 | 11.18596 | 80° | 99km/h | 10335m | -7.8m/s | -49.1°C | 42.1% | 260.9hPa | 2.6V | 02:49:15 | 03:01:09 | 00:00:00 | |
| DF8AY | 2026-08-30 12:58:14 | 53.10523 | 11.18436 | 82° | 97km/h | 10367m | -7.9m/s | -49.4°C | 42.3% | 259.6hPa | 2.6V | 02:49:15 | 03:01:05 | 00:00:00 | |
| DL1XH-west | 2026-08-30 12:58:13 | 53.10519 | 11.18396 | 81° | 97km/h | 10375m | -8.1m/s | -49.4°C | 42.3% | 259.2hPa | 2.6V | 02:49:15 | 03:01:04 | 00:00:00 | |
| BIOWL1-15 | 2026-08-30 12:58:12 | 53.10516 | 11.18356 | 81° | 97km/h | 10383m | -8.2m/s | -49.4°C | 42.2% | 258.9hPa | 2.6V | 02:49:15 | 03:01:03 | 00:00:00 | |
| DM0DOS-11 | 2026-08-30 12:58:11 | 53.10497 | 11.18154 | 81° | 99km/h | 10424m | -8.1m/s | -49.8°C | 39.1% | 257.3hPa | 2.6V | 02:49:20 | 03:00:58 | 00:00:00 | |
| GOEST3-10 | 2026-08-30 12:58:11 | 53.10512 | 11.18316 | 81° | 97km/h | 10391m | -7.9m/s | -49.4°C | 38.8% | 258.6hPa | 2.6V | 00:00:00 | 00:00:00 | 00:00:00 | |
| DO2SHX-10 | 2026-08-30 12:58:10 | 53.10508 | 11.18275 | 82° | 97km/h | 10399m | -8.0m/s | -49.5°C | 38.9% | 258.2hPa | 2.6V | 00:00:00 | 03:01:01 | 00:00:00 | |
| DB0DAN | 2026-08-30 12:58:10 | 53.10508 | 11.18275 | 81° | 93km/h | 10399m | -8m/s | -49.5°C | 33.8% | 258.25hPa | 2.6V | 00:00:00 | 00:00:00 | 00:00:00 | |
| DD8BA-10 | 2026-08-30 12:58:09 | 53.10504 | 11.18235 | 81° | 97km/h | 10407m | -8.2m/s | -49.6°C | 38.9% | 257.9hPa | 2.6V | 02:49:00 | 00:00:00 | 00:00:00 | |
| DL1XH-15 | 2026-08-30 12:58:07 | 53.10493 | 11.18113 | 81° | 97km/h | 10432m | -8.2m/s | -49.8°C | 39.2% | 257hPa | 2.7V | 02:49:21 | 03:00:57 | 00:00:00 | |
| AA1-15 | 2026-08-30 12:58:07 | 53.10497 | 11.18154 | 81° | 99km/h | 10424m | -8.1m/s | -49.8°C | 42.4% | 257.3hPa | 2.6V | 02:50:06 | 03:00:58 | 00:00:00 | |
| DL1XH-west | 2026-08-30 12:58:03 | 53.10483 | 11.17992 | 83° | 97km/h | 10456m | -8.1m/s | -50°C | 42.7% | 256.1hPa | 2.6V | 02:50:06 | 03:00:54 | 00:00:00 | |
| BIOWL1-15 | 2026-08-30 12:58:01 | 53.10477 | 11.17910 | 83° | 99km/h | 10472m | -7.9m/s | -50.1°C | 42.9% | 255.4hPa | 2.6V | 02:50:06 | 03:00:52 | 00:00:00 | |
| DL1XH-15 | 2026-08-30 12:58:01 | 53.10460 | 11.17707 | 81° | 97km/h | 10513m | -8.1m/s | -50.5°C | 39.9% | 253.8hPa | 2.6V | 02:49:31 | 03:00:47 | 00:00:00 | |
| AA1-15 | 2026-08-30 12:57:57 | 53.10464 | 11.17747 | 82° | 97km/h | 10504m | -8.2m/s | -50.4°C | 43.1% | 254.2hPa | 2.6V | 02:50:06 | 03:00:48 | 00:00:00 | |
| DC4HF-4 | 2026-08-30 12:57:56 | 53.10454 | 11.17626 | 83° | 95km/h | 10529m | -8.1m/s | -50.6°C | 34.6% | 253.2hPa | 2.6V | 00:00:00 | 00:00:00 | 00:00:00 | |
| DB0DAN | 2026-08-30 12:57:55 | 53.10457 | 11.17667 | 83° | 93km/h | 10521m | -8.3m/s | -50.5°C | 34.6% | 253.49hPa | 2.6V | 00:00:00 | 00:00:00 | 00:00:00 | |
| DF8AY | 2026-08-30 12:57:53 | 53.10451 | 11.17586 | 83° | 95km/h | 10537m | -8m/s | -50.7°C | 43.1% | 252.9hPa | 2.6V | 02:50:06 | 03:00:44 | 00:00:00 | |
| SONDE2-11 | 2026-08-30 12:57:48 | 53.10435 | 11.17387 | 82° | 95km/h | 10577m | -8.2m/s | -51.0°C | 34.6% | 251.2hPa | 2.6V | 00:00:00 | 00:00:00 | 00:00:00 | |
| DL1XH-15 | 2026-08-30 12:57:47 | 53.10429 | 11.17308 | 82° | 95km/h | 10594m | -8.2m/s | -51.1°C | 40.3% | 250.7hPa | 2.6V | 02:49:41 | 03:00:37 | 00:00:00 | |
| AA1-15 | 2026-08-30 12:57:46 | 53.10429 | 11.17308 | 83° | 95km/h | 10594m | -8.2m/s | -51.1°C | 43% | 250.7hPa | 2.6V | 02:50:06 | 03:00:37 | 00:00:00 | |
| DK1YY | 2026-08-30 12:57:44 | 53.10423 | 11.17230 | 82° | 93km/h | 10610m | -7.9m/s | -51.3°C | 35.0% | 250.1hPa | 2.6V | 00:00:00 | 00:00:00 | 00:00:00 | |
| BIOWL1-15 | 2026-08-30 12:57:43 | 53.10413 | 11.17114 | 82° | 93km/h | 10634m | -8.1m/s | -51.5°C | 43.6% | 249.1hPa | 2.6V | 02:50:06 | 03:00:32 | 00:00:00 | |
| DL1XH-west | 2026-08-30 12:57:43 | 53.10420 | 11.17191 | 82° | 93km/h | 10618m | -8m/s | -51.3°C | 43.2% | 249.7hPa | 2.6V | 02:50:06 | 03:00:34 | 00:00:00 | |
| DF8AY | 2026-08-30 12:57:42 | 53.10416 | 11.17152 | 82° | 93km/h | 10626m | -8m/s | -51.4°C | 43.4% | 249.5hPa | 2.6V | 02:50:06 | 03:00:33 | 00:00:00 | |
| DO2LYB-13 | 2026-08-30 12:57:41 | 53.10416 | 11.17152 | 83° | 93km/h | 10626m | -8.0m/s | -51.4°C | 35.4% | 249.5hPa | 2.6V | 00:00:00 | 00:00:00 | 00:00:00 | |
| DB0DAN | 2026-08-30 12:57:40 | 53.10410 | 11.17075 | 82° | 88km/h | 10642m | -8.1m/s | -51.5°C | 35.6% | 248.83hPa | 2.6V | 00:00:00 | 00:00:00 | 00:00:00 | |
| DO2SHX-10 | 2026-08-30 12:57:40 | 53.10410 | 11.17075 | 82° | 93km/h | 10642m | -8.1m/s | -51.5°C | 41.2% | 248.8hPa | 2.6V | 00:00:00 | 03:00:31 | 00:00:00 | |
| DL1XH1-15 | 2026-08-30 12:57:39 | 53.10400 | 11.16960 | 81° | 91km/h | 10666m | -8.1m/s | -51.6°C | 41.8% | 247.8hPa | 2.6V | 02:49:50 | 03:00:28 | 00:00:00 | |
| AA1-15 | 2026-08-30 12:57:35 | 53.10393 | 11.16884 | 82° | 91km/h | 10683m | -8.4m/s | -51.8°C | 44.8% | 247.2hPa | 2.6V | 02:50:06 | 03:00:26 | 00:00:00 | |
| S3001 | 2026-08-30 12:57:35 | 53.10390 | 11.16846 | 82° | 91km/h | 10691m | -8.2m/s | -51.8°C | 36.8% | 246.9hPa | 2.6V | 00:00:00 | 00:00:00 | 00:00:00 | |
| DO2SHX-10 | 2026-08-30 12:57:34 | 53.10390 | 11.16845 | 83° | 91km/h | 10691m | -8.2m/s | -51.8°C | 42.6% | 246.9hPa | 2.6V | 00:00:00 | 03:00:25 | 00:00:00 | |
| DF7ER-10 | 2026-08-30 12:57:33 | 53.10386 | 11.16807 | 83° | 91km/h | 10699m | -8.3m/s | -51.9°C | 37.1% | 246.6hPa | 2.6V | 02:50:00 | 00:00:00 | 00:00:00 | |
| DF8AY-15 | 2026-08-30 12:57:32 | 53.10383 | 11.16769 | 83° | 91km/h | 10708m | -7.9m/s | -51.9°C | 43.2% | 246.2hPa | 2.6V | 02:49:00 | 03:00:23 | 00:00:00 | |
| DL1XH-west | 2026-08-30 12:57:32 | 53.10383 | 11.16769 | 82° | 91km/h | 10708m | -8m/s | -52°C | 45.4% | 246.3hPa | 2.6V | 02:50:06 | 03:00:23 | 00:00:00 | |
| DM0DOS-11 | 2026-08-30 12:57:31 | 53.10365 | 11.16580 | 80° | 91km/h | 10748m | -7.9m/s | -52.3°C | 43.2% | 244.8hPa | 2.6V | 02:50:00 | 03:00:18 | 00:00:00 | |
| BIOWL1-15 | 2026-08-30 12:57:31 | 53.10380 | 11.16732 | 81° | 91km/h | 10716m | -8.1m/s | -52.1°C | 45.4% | 246hPa | 2.6V | 02:50:06 | 03:00:22 | 00:00:00 | |
| SMARD9-15 | 2026-08-30 12:57:30 | 53.10376 | 11.16694 | 81° | 89km/h | 10724m | -8.2m/s | -52.1°C | 37.4% | 245.7hPa | 2.6V | 00:00:00 | 00:00:00 | 00:00:00 | |
| DD8BA-10 | 2026-08-30 12:57:29 | 53.10373 | 11.16656 | 81° | 91km/h | 10732m | -8.3m/s | -52.2°C | 43.4% | 245.4hPa | 2.6V | 00:00:00 | 00:00:00 | 00:00:00 | |
| DO2SHX-10 | 2026-08-30 12:57:28 | 53.10369 | 11.16618 | 81° | 91km/h | 10740m | -8.0m/s | -52.2°C | 43.5% | 245.0hPa | 2.6V | 02:49:00 | 03:00:19 | 00:00:00 | |
| MECKS9 | 2026-08-30 12:57:27 | 53.10369 | 11.16618 | 81° | 91km/h | 10740m | -8.0m/s | -52.3°C | 37.5% | 245.1hPa | 2.5V | 00:00:00 | 00:00:00 | 00:00:00 | |
| DB0DAN | 2026-08-30 12:57:25 | 53.10357 | 11.16505 | 80° | 88km/h | 10764m | -8.1m/s | -52.4°C | 36.9% | 244.17hPa | 2.5V | 00:00:00 | 00:00:00 | 00:00:00 | |
| AA1-15 | 2026-08-30 12:57:24 | 53.10353 | 11.16467 | 80° | 93km/h | 10773m | -8.3m/s | -52.4°C | 44.6% | 243.9hPa | 2.6V | 02:50:06 | 03:00:15 | 00:00:00 | |
| DL1XH-west | 2026-08-30 12:57:22 | 53.10346 | 11.16390 | 81° | 91km/h | 10789m | -8.3m/s | -52.5°C | 44.1% | 243.2hPa | 2.7V | 02:50:06 | 03:00:13 | 00:00:00 | |
| DL1XH-15 | 2026-08-30 12:57:21 | 53.10327 | 11.16166 | 81° | 89km/h | 10838m | -8.1m/s | -52.7°C | 40.9% | 241.4hPa | 2.6V | 02:50:11 | 03:00:07 | 00:00:00 | |
| BIOWL1-15 | 2026-08-30 12:57:20 | 53.10333 | 11.16240 | 82° | 89km/h | 10822m | -8m/s | -52.7°C | 43.3% | 242.1hPa | 2.6V | 02:50:57 | 03:00:09 | 00:00:00 | |
| DF8AY | 2026-08-30 12:57:20 | 53.10339 | 11.16315 | 82° | 91km/h | 10805m | -8.4m/s | -52.6°C | 43.8% | 242.6hPa | 2.6V | 02:50:57 | 03:00:11 | 00:00:00 | |
| AA1-15 | 2026-08-30 12:57:13 | 53.10317 | 11.16055 | 81° | 89km/h | 10863m | -8.1m/s | -52.9°C | 42.2% | 240.4hPa | 2.6V | 02:50:57 | 03:00:04 | 00:00:00 | |
| DL1XH-west | 2026-08-30 12:57:12 | 53.10313 | 11.16018 | 81° | 88km/h | 10871m | -8.1m/s | -52.9°C | 42% | 240.2hPa | 2.6V | 02:50:57 | 03:00:03 | 00:00:00 | |
| DF7ER-10 | 2026-08-30 12:57:11 | 53.10313 | 11.16018 | 82° | 88km/h | 10871m | -8.1m/s | -52.9°C | 34.4% | 240.2hPa | 2.6V | 00:00:00 | 00:00:00 | 00:00:00 | |
| DB0DAN | 2026-08-30 12:57:10 | 53.10307 | 11.15945 | 82° | 84km/h | 10887m | -8.2m/s | -53°C | 33.9% | 239.58hPa | 2.6V | 00:00:00 | 00:00:00 | 00:00:00 | |
| BIOWL1-15 | 2026-08-30 12:57:10 | 53.10307 | 11.15945 | 82° | 88km/h | 10887m | -8.2m/s | -53°C | 41.6% | 239.6hPa | 2.6V | 02:50:57 | 03:00:01 | 00:00:00 | |
| DF8AY | 2026-08-30 12:57:09 | 53.10304 | 11.15909 | 82° | 88km/h | 10895m | -7.9m/s | -53°C | 41.4% | 239.3hPa | 2.6V | 02:50:57 | 03:00:00 | 00:00:00 | |
| AA1-15 | 2026-08-30 12:57:02 | 53.10282 | 11.15653 | 82° | 88km/h | 10952m | -8.3m/s | -53.4°C | 39.5% | 237.2hPa | 2.6V | 02:50:57 | 02:59:53 | 00:00:00 | |
| BIOWL1-15 | 2026-08-30 12:57:01 | 53.10272 | 11.15543 | 81° | 89km/h | 10976m | -8m/s | -53.4°C | 38.5% | 236.3hPa | 2.6V | 02:50:57 | 02:59:50 | 00:00:00 | |
| DL1XH-west | 2026-08-30 12:57:01 | 53.10278 | 11.15617 | 82° | 88km/h | 10960m | -8.1m/s | -53.4°C | 39.2% | 236.9hPa | 2.6V | 02:50:57 | 02:59:52 | 00:00:00 | |
| EDDB2-11 | 2026-08-30 12:57:00 | 53.10275 | 11.15580 | 80° | 88km/h | 10968m | -8.3m/s | -53.4°C | 31.5% | 236.6hPa | 2.6V | 00:00:00 | 00:00:00 | 00:00:00 | |
| DL1XH1-15 | 2026-08-30 12:56:59 | 53.10265 | 11.15470 | 81° | 88km/h | 10992m | -8.3m/s | -53.5°C | 36.1% | 235.7hPa | 2.6V | 02:50:30 | 02:59:48 | 00:00:00 | |
| DF8AY | 2026-08-30 12:56:58 | 53.10268 | 11.15507 | 81° | 88km/h | 10984m | -7.9m/s | -53.5°C | 38.2% | 235.9hPa | 2.6V | 02:50:57 | 02:59:49 | 00:00:00 | |
| DO2SHX-10 | 2026-08-30 12:56:58 | 53.10268 | 11.15506 | 82° | 88km/h | 10984m | -7.8m/s | -53.4°C | 36.4% | 235.9hPa | 2.7V | 00:00:00 | 02:59:49 | 00:00:00 | |
| TFSTFS | 2026-08-30 12:56:57 | 53.10265 | 11.15470 | 83° | 88km/h | 10993m | -8.3m/s | -53.5°C | 30.5% | 235.7hPa | 2.7V | 00:00:00 | 00:00:00 | 00:00:00 | |
| DB0DAN | 2026-08-30 12:56:55 | 53.10258 | 11.15397 | 80° | 84km/h | 11009m | -8.2m/s | -53.5°C | 29.7% | 235.11hPa | 2.7V | 00:00:00 | 00:00:00 | 00:00:00 | |
| AA1-15 | 2026-08-30 12:56:51 | 53.10242 | 11.15252 | 79° | 89km/h | 11042m | -8.2m/s | -53.7°C | 36.1% | 233.9hPa | 2.6V | 02:50:57 | 02:59:42 | 00:00:00 | |
| GOEST3-10 | 2026-08-30 12:56:51 | 53.10242 | 11.15252 | 80° | 89km/h | 11042m | -8.2m/s | -53.6°C | 34.3% | 233.9hPa | 2.6V | 02:50:00 | 00:00:00 | 00:00:00 | |
| DM0DOS-11 | 2026-08-30 12:56:50 | 53.10224 | 11.15105 | 77° | 88km/h | 11075m | -8m/s | -53.7°C | 33.2% | 232.7hPa | 2.6V | 02:50:40 | 02:59:38 | 00:00:00 | |
| DL1XH-west | 2026-08-30 12:56:50 | 53.10238 | 11.15215 | 79° | 89km/h | 11050m | -8m/s | -53.7°C | 35.8% | 233.6hPa | 2.6V | 02:50:57 | 02:59:41 | 00:00:00 | |
| BIOWL1-15 | 2026-08-30 12:56:48 | 53.10229 | 11.15142 | 78° | 89km/h | 11066m | -8m/s | -53.7°C | 35.2% | 233hPa | 2.6V | 02:50:57 | 02:59:39 | 00:00:00 | |
| DF8AY | 2026-08-30 12:56:48 | 53.10224 | 11.15105 | 78° | 88km/h | 11075m | -8m/s | -53.7°C | 35% | 232.7hPa | 2.6V | 02:50:57 | 02:59:38 | 00:00:00 | |
| DL1XH-15 | 2026-08-30 12:56:48 | 53.10219 | 11.15069 | 77° | 88km/h | 11083m | -8.2m/s | -53.8°C | 32.9% | 232.4hPa | 2.6V | 02:50:41 | 02:59:37 | 00:00:00 | |
| SONDE2-11 | 2026-08-30 12:56:46 | 53.10214 | 11.15033 | 77° | 88km/h | 11091m | -8.2m/s | -53.8°C | 27.3% | 232.1hPa | 2.6V | 00:00:00 | 00:00:00 | 00:00:00 | |
| DC4HF-4 | 2026-08-30 12:56:44 | 53.10209 | 11.14997 | 76° | 88km/h | 11099m | -8.2m/s | -53.9°C | 27.2% | 231.8hPa | 2.6V | 00:00:00 | 00:00:00 | 00:00:00 | |
| DO2SHX-10 | 2026-08-30 12:56:43 | 53.10204 | 11.14960 | 77° | 89km/h | 11107m | -8.2m/s | -53.9°C | 32.4% | 231.5hPa | 2.6V | 02:50:00 | 02:59:34 | 00:00:00 | |
| DK1YY | 2026-08-30 12:56:42 | 53.10199 | 11.14924 | 77° | 88km/h | 11115m | -8.1m/s | -53.9°C | 26.8% | 231.2hPa | 2.6V | 00:00:00 | 00:00:00 | 00:00:00 | |
| DL1XH-15 | 2026-08-30 12:56:41 | 53.10171 | 11.14701 | 79° | 91km/h | 11164m | -8m/s | -54.1°C | 31.3% | 229.5hPa | 2.6V | 02:50:51 | 02:59:27 | 00:00:00 | |
| DB0DAN | 2026-08-30 12:56:40 | 53.10190 | 11.14850 | 78° | 86km/h | 11132m | -8.1m/s | -53.9°C | 26.4% | 230.65hPa | 2.6V | 00:00:00 | 00:00:00 | 00:00:00 | |
| AA1-15 | 2026-08-30 12:56:40 | 53.10190 | 11.14850 | 78° | 89km/h | 11132m | -8.1m/s | -53.9°C | 33.6% | 230.7hPa | 2.6V | 02:50:57 | 02:59:31 | 00:00:00 | |
| DO2SHX-10 | 2026-08-30 12:56:40 | 53.10190 | 11.14850 | 78° | 91km/h | 11132m | -8.0m/s | -53.9°C | 31.8% | 230.6hPa | 2.6V | 00:00:00 | 02:59:31 | 00:00:00 | |
| DL1XH1-15 | 2026-08-30 12:56:39 | 53.10175 | 11.14738 | 78° | 91km/h | 11156m | -8.1m/s | -54.1°C | 31.4% | 229.7hPa | 2.6V | 02:50:50 | 02:59:28 | 00:00:00 | |
| DL1XH-west | 2026-08-30 12:56:39 | 53.10185 | 11.14813 | 78° | 91km/h | 11140m | -8.2m/s | -54°C | 33.4% | 230.3hPa | 2.6V | 02:50:57 | 02:59:30 | 00:00:00 | |
| DF8AY | 2026-08-30 12:56:37 | 53.10175 | 11.14738 | 79° | 91km/h | 11156m | -8.1m/s | -54.1°C | 33.1% | 229.7hPa | 2.6V | 02:50:57 | 02:59:28 | 00:00:00 | |
| AA1-15 | 2026-08-30 12:56:29 | 53.10142 | 11.14439 | 80° | 89km/h | 11222m | -8.1m/s | -54.4°C | 31.4% | 227.5hPa | 2.6V | 02:51:48 | 02:59:20 | 00:00:00 | |
| DM0DOS-11 | 2026-08-30 12:56:29 | 53.10135 | 11.14365 | 80° | 89km/h | 11238m | -8.3m/s | -54.5°C | 29.7% | 226.9hPa | 2.7V | 02:51:00 | 02:59:18 | 00:00:00 | |
| DL1XH-west | 2026-08-30 12:56:28 | 53.10138 | 11.14402 | 80° | 89km/h | 11230m | -8.1m/s | -54.4°C | 31.2% | 227.2hPa | 2.6V | 02:51:48 | 02:59:19 | 00:00:00 | |
| DO2SHX-10 | 2026-08-30 12:56:28 | 53.10138 | 11.14401 | 81° | 89km/h | 11230m | -8.0m/s | -54.4°C | 30.0% | 227.1hPa | 2.7V | 00:00:00 | 02:59:19 | 00:00:00 | |
| DL1XH-15 | 2026-08-30 12:56:27 | 53.10130 | 11.14327 | 80° | 89km/h | 11246m | -8.1m/s | -54.5°C | 29.5% | 226.6hPa | 2.7V | 02:51:01 | 02:59:17 | 00:00:00 | |
| BIOWL1-15 | 2026-08-30 12:56:26 | 53.10130 | 11.14327 | 80° | 89km/h | 11246m | -8.1m/s | -54.5°C | 30.5% | 226.6hPa | 2.7V | 02:51:48 | 02:59:17 | 00:00:00 | |
| DB0DAN | 2026-08-30 12:56:25 | 53.10127 | 11.14290 | 80° | 86km/h | 11254m | -8.1m/s | -54.5°C | 24% | 226.25hPa | 2.6V | 00:00:00 | 00:00:00 | 00:00:00 | |
| DO2SHX-10 | 2026-08-30 12:56:25 | 53.10127 | 11.14290 | 81° | 91km/h | 11254m | -8.0m/s | -54.5°C | 29.3% | 226.2hPa | 2.6V | 02:51:00 | 02:59:16 | 00:00:00 | |
| TFSTFS | 2026-08-30 12:56:24 | 53.10123 | 11.14252 | 81° | 91km/h | 11263m | -7.9m/s | -54.5°C | 23.8% | 226.0hPa | 2.6V | 00:00:00 | 00:00:00 | 00:00:00 | |
| DL3AQ-11 | 2026-08-30 12:56:23 | 53.10119 | 11.14215 | 79° | 89km/h | 11271m | -8.4m/s | -54.5°C | 23.7% | 225.7hPa | 2.6V | 00:00:00 | 00:00:00 | 00:00:00 | |
| DO2SHX-10 | 2026-08-30 12:56:22 | 53.10114 | 11.14177 | 80° | 91km/h | 11279m | -8.4m/s | -54.4°C | 28.5% | 225.4hPa | 2.6V | 00:00:00 | 02:59:13 | 00:00:00 | |
| DL1XH-15 | 2026-08-30 12:56:21 | 53.10088 | 11.13950 | 78° | 91km/h | 11329m | -8.2m/s | -54.6°C | 27.2% | 223.7hPa | 2.6V | 02:51:11 | 02:59:07 | 00:00:00 | |
| DL1XH1-15 | 2026-08-30 12:56:19 | 53.10092 | 11.13988 | 78° | 91km/h | 11321m | -8.4m/s | -54.6°C | 27.5% | 224hPa | 2.6V | 02:51:10 | 02:59:08 | 00:00:00 | |
| AA1-15 | 2026-08-30 12:56:18 | 53.10097 | 11.14025 | 78° | 91km/h | 11312m | -8.3m/s | -54.6°C | 28.4% | 224.2hPa | 2.6V | 02:51:48 | 02:59:09 | 00:00:00 | |
| DL1XH-west | 2026-08-30 12:56:17 | 53.10092 | 11.13988 | 79° | 91km/h | 11321m | -8.4m/s | -54.7°C | 28% | 224hPa | 2.6V | 02:51:48 | 02:59:08 | 00:00:00 | |
| BIOWL1-15 | 2026-08-30 12:56:15 | 53.10083 | 11.13913 | 78° | 91km/h | 11337m | -8.1m/s | -54.7°C | 27.4% | 223.4hPa | 2.7V | 02:51:48 | 02:59:06 | 00:00:00 | |
| DL2RXE-15 | 2026-08-30 12:56:14 | 53.10083 | 11.13913 | 79° | 91km/h | 11337m | -8.1m/s | -54.7°C | 21.8% | 223.4hPa | 2.6V | 02:51:00 | 00:00:00 | 00:00:00 | |
| DO2SHX-10 | 2026-08-30 12:56:13 | 53.10073 | 11.13839 | 78° | 91km/h | 11354m | -7.9m/s | -54.6°C | 26.3% | 222.7hPa | 2.6V | 00:00:00 | 02:59:04 | 00:00:00 | |
| DF8AY-15 | 2026-08-30 12:56:12 | 53.10069 | 11.13802 | 78° | 89km/h | 11362m | -8.2m/s | -54.7°C | 26.0% | 222.5hPa | 2.6V | 00:00:00 | 02:59:03 | 00:00:00 | |
| DB0DAN | 2026-08-30 12:56:10 | 53.10058 | 11.13728 | 77° | 88km/h | 11378m | -8.5m/s | -54.8°C | 20.3% | 221.99hPa | 2.6V | 00:00:00 | 00:00:00 | 00:00:00 | |
| DO2SHX-10 | 2026-08-30 12:56:10 | 53.10058 | 11.13727 | 78° | 91km/h | 11378m | -8.4m/s | -54.7°C | 25.3% | 221.9hPa | 2.6V | 00:00:00 | 02:59:01 | 00:00:00 | |
| DM0DOS-11 | 2026-08-30 12:56:09 | 53.10043 | 11.13616 | 76° | 91km/h | 11403m | -8.2m/s | -54.6°C | 23.8% | 221.1hPa | 2.6V | 02:51:20 | 02:58:58 | 00:00:00 | |
| AA1-15 | 2026-08-30 12:56:07 | 53.10043 | 11.13616 | 76° | 91km/h | 11403m | -8.2m/s | -54.6°C | 24.2% | 221.1hPa | 2.6V | 02:51:48 | 02:58:58 | 00:00:00 | |
| DL1XH-15 | 2026-08-30 12:56:07 | 53.10037 | 11.13579 | 76° | 89km/h | 11412m | -8.4m/s | -54.6°C | 23.4% | 220.8hPa | 2.6V | 02:51:21 | 02:58:57 | 00:00:00 | |
| DL1XH-west | 2026-08-30 12:56:06 | 53.10037 | 11.13579 | 77° | 89km/h | 11412m | -8.4m/s | -54.6°C | 23.8% | 220.8hPa | 2.6V | 02:51:48 | 02:58:57 | 00:00:00 | |
| BIOWL1-15 | 2026-08-30 12:56:04 | 53.10027 | 11.13506 | 77° | 89km/h | 11428m | -8.1m/s | -54.5°C | 23.1% | 220.2hPa | 2.7V | 02:51:48 | 02:58:55 | 00:00:00 | |
| DO2SHX-10 | 2026-08-30 12:56:04 | 53.10027 | 11.13506 | 78° | 88km/h | 11429m | -8.1m/s | -54.5°C | 22.7% | 220.2hPa | 2.6V | 00:00:00 | 02:58:55 | 00:00:00 | |
| DB0NH | 2026-08-30 12:56:03 | 53.10022 | 11.13470 | 78° | 89km/h | 11437m | -8.1m/s | -54.5°C | 22.5% | 219.9hPa | 2.6V | 00:00:00 | 02:58:54 | 00:00:00 | |
| DL1XH-15 | 2026-08-30 12:56:01 | 53.09985 | 11.13218 | 75° | 89km/h | 11495m | -8.2m/s | -54.6°C | 20% | 218hPa | 2.6V | 02:51:31 | 02:58:47 | 00:00:00 | |
| BUE01 | 2026-08-30 12:56:01 | 53.10007 | 11.13362 | 76° | 88km/h | 11462m | -8.5m/s | -54.6°C | 16.9% | 219.0hPa | 2.6V | 00:00:00 | 00:00:00 | 00:00:00 | |
| TFSTFS | 2026-08-30 12:56:00 | 53.10012 | 11.13398 | 78° | 88km/h | 11453m | -8.2m/s | -54.6°C | 17.1% | 219.3hPa | 2.6V | 00:00:00 | 00:00:00 | 00:00:00 | |
| DL1XH1-15 | 2026-08-30 12:55:59 | 53.09990 | 11.13255 | 75° | 89km/h | 11487m | -8.3m/s | -54.6°C | 20.4% | 218.2hPa | 2.6V | 02:51:30 | 02:58:48 | 00:00:00 | |
| AA1-15 | 2026-08-30 12:55:56 | 53.09985 | 11.13218 | 76° | 89km/h | 11495m | -8.2m/s | -54.6°C | 20% | 218hPa | 2.6V | 02:51:48 | 02:58:47 | 00:00:00 | |
| DB0DAN | 2026-08-30 12:55:55 | 53.09979 | 11.13182 | 76° | 86km/h | 11503m | -8.2m/s | -54.5°C | 15.1% | 217.62hPa | 2.6V | 00:00:00 | 00:00:00 | 00:00:00 | |
| DL1XH-west | 2026-08-30 12:55:55 | 53.09979 | 11.13182 | 76° | 89km/h | 11503m | -8.2m/s | -54.5°C | 19.5% | 217.6hPa | 2.6V | 02:51:48 | 02:58:46 | 00:00:00 | |
| BIOWL1-15 | 2026-08-30 12:55:54 | 53.09974 | 11.13146 | 76° | 89km/h | 11512m | -8.2m/s | -54.5°C | 19.1% | 217.4hPa | 2.6V | 02:51:48 | 02:58:45 | 00:00:00 | |
| DF8AY-15 | 2026-08-30 12:55:52 | 53.09962 | 11.13073 | 76° | 91km/h | 11528m | -8.2m/s | -54.4°C | 18.3% | 216.7hPa | 2.7V | 00:00:00 | 02:58:43 | 00:00:00 | |
| GOEST3-10 | 2026-08-30 12:55:51 | 53.09956 | 11.13036 | 75° | 91km/h | 11537m | -8.4m/s | -54.4°C | 17.8% | 216.4hPa | 2.7V | 02:51:00 | 00:00:00 | 00:00:00 | |
| DM0DOS-11 | 2026-08-30 12:55:50 | 53.09932 | 11.12889 | 74° | 91km/h | 11571m | -8.3m/s | -54.3°C | 16.4% | 215.4hPa | 2.6V | 02:51:40 | 02:58:38 | 00:00:00 | |
| DO2SHX-10 | 2026-08-30 12:55:49 | 53.09944 | 11.12963 | 75° | 91km/h | 11554m | -8.3m/s | -54.4°C | 17.1% | 215.9hPa | 2.6V | 02:51:00 | 02:58:40 | 00:00:00 | |
| DD8BA-10 | 2026-08-30 12:55:48 | 53.09938 | 11.12926 | 75° | 91km/h | 11562m | -8.3m/s | -54.3°C | 16.7% | 215.6hPa | 2.6V | 00:00:00 | 00:00:00 | 00:00:00 | |
| DL1XH-15 | 2026-08-30 12:55:47 | 53.09925 | 11.12852 | 74° | 91km/h | 11579m | -8.3m/s | -54.2°C | 16% | 215.1hPa | 2.6V | 02:51:41 | 02:58:37 | 00:00:00 | |
| DL1XH-west | 2026-08-30 12:55:45 | 53.09919 | 11.12816 | 75° | 89km/h | 11587m | -8.3m/s | -54.2°C | 15.4% | 214.8hPa | 2.6V | 02:51:48 | 02:58:36 | 00:00:00 | |
| BIOWL1-15 | 2026-08-30 12:55:43 | 53.09907 | 11.12743 | 75° | 89km/h | 11604m | -8.4m/s | -54.2°C | 14.9% | 214.2hPa | 2.6V | 02:51:48 | 02:58:34 | 00:00:00 | |
| DF7ER-10 | 2026-08-30 12:55:43 | 53.09907 | 11.12743 | 76° | 89km/h | 11604m | -8.4m/s | -54.2°C | 11.4% | 214.2hPa | 2.6V | 02:51:00 | 00:00:00 | 00:00:00 | |
| DO9LL-15 | 2026-08-30 12:55:42 | 53.09901 | 11.12707 | 75° | 93km/h | 11613m | -8.3m/s | -54.2°C | 15.1% | 213.9hPa | 2.6V | 00:00:00 | 02:58:33 | 00:00:00 | |
| GOEST3-10 | 2026-08-30 12:55:41 | 53.09895 | 11.12670 | 75° | 93km/h | 11621m | -8.5m/s | -54.2°C | 14.8% | 213.6hPa | 2.6V | 00:00:00 | 00:00:00 | 00:00:00 | |
| DL1XH-15 | 2026-08-30 12:55:40 | 53.09864 | 11.12483 | 75° | 93km/h | 11663m | -8.6m/s | -54.2°C | 13.7% | 212.2hPa | 2.6V | 02:51:51 | 02:58:27 | 00:00:00 | |
| DB0DAN | 2026-08-30 12:55:40 | 53.09889 | 11.12633 | 74° | 88km/h | 11630m | -8.4m/s | -54.2°C | 10.7% | 213.33hPa | 2.6V | 00:00:00 | 00:00:00 | 00:00:00 | |
| DO2SHX-10 | 2026-08-30 12:55:40 | 53.09888 | 11.12633 | 75° | 93km/h | 11630m | -8.4m/s | -54.1°C | 14.6% | 213.3hPa | 2.6V | 02:51:00 | 02:58:31 | 00:00:00 | |
| DL1XH1-15 | 2026-08-30 12:55:39 | 53.09870 | 11.12521 | 75° | 93km/h | 11655m | -8.5m/s | -54.2°C | 13.9% | 212.5hPa | 2.6V | 02:51:50 | 02:58:28 | 00:00:00 | |
| DL1XH-west | 2026-08-30 12:55:35 | 53.09858 | 11.12444 | 76° | 95km/h | 11672m | -8.3m/s | -54.1°C | 12.8% | 211.9hPa | 2.7V | 02:52:39 | 02:58:26 | 00:00:00 | |
| AA1-15 | 2026-08-30 12:55:34 | 53.09852 | 11.12406 | 75° | 95km/h | 11680m | -8.5m/s | -54.1°C | 12.6% | 211.7hPa | 2.6V | 02:52:39 | 02:58:25 | 00:00:00 | |
| BIOWL1-15 | 2026-08-30 12:55:34 | 53.09840 | 11.12329 | 75° | 95km/h | 11698m | -8.8m/s | -54.1°C | 12.1% | 211hPa | 2.6V | 02:52:39 | 02:58:23 | 00:00:00 | |
| DF8AY | 2026-08-30 12:55:33 | 53.09846 | 11.12367 | 75° | 95km/h | 11689m | -8.7m/s | -54.1°C | 12.4% | 211.4hPa | 2.6V | 02:52:39 | 02:58:24 | 00:00:00 | |
| DB0NH | 2026-08-30 12:55:33 | 53.09846 | 11.12367 | 76° | 91km/h | 11689m | -8.6m/s | -54.0°C | 13.1% | 211.3hPa | 2.6V | 02:51:00 | 02:58:24 | 00:00:00 | |
| DF8AY-15 | 2026-08-30 12:55:32 | 53.09840 | 11.12329 | 76° | 93km/h | 11698m | -8.7m/s | -54.0°C | 12.9% | 211.0hPa | 2.6V | 02:51:00 | 02:58:23 | 00:00:00 | |
| DO2SHX-10 | 2026-08-30 12:55:31 | 53.09834 | 11.12290 | 76° | 93km/h | 11707m | -8.7m/s | -54.0°C | 12.7% | 210.8hPa | 2.6V | 02:51:00 | 02:58:22 | 00:00:00 | |
| DL1XH-15 | 2026-08-30 12:55:30 | 53.09803 | 11.12101 | 75° | 93km/h | 11749m | -8.5m/s | -54°C | 12% | 209.4hPa | 2.6V | 02:52:01 | 02:58:17 | 00:00:00 | |
| DD8BA-10 | 2026-08-30 12:55:28 | 53.09815 | 11.12177 | 75° | 93km/h | 11733m | -8.5m/s | -54.0°C | 12.3% | 209.9hPa | 2.6V | 00:00:00 | 00:00:00 | 00:00:00 | |
| EDDB2-11 | 2026-08-30 12:55:27 | 53.09809 | 11.12139 | 75° | 91km/h | 11741m | -8.5m/s | -54.0°C | 8.6% | 209.7hPa | 2.6V | 00:00:00 | 00:00:00 | 00:00:00 | |
| DL2RXE-15 | 2026-08-30 12:55:26 | 53.09809 | 11.12138 | 77° | 93km/h | 11741m | -8.5m/s | -54.0°C | 8.6% | 209.7hPa | 2.6V | 02:52:00 | 00:00:00 | 00:00:00 | |
| DB0DAN | 2026-08-30 12:55:25 | 53.09798 | 11.12063 | 76° | 88km/h | 11759m | -8.7m/s | -53.9°C | 8.3% | 209.12hPa | 2.6V | 00:00:00 | 00:00:00 | 00:00:00 | |
| DL1XH-west | 2026-08-30 12:55:24 | 53.09792 | 11.12025 | 77° | 93km/h | 11767m | -8.7m/s | -53.9°C | 10.5% | 208.9hPa | 2.6V | 02:52:39 | 02:58:15 | 00:00:00 | |
| AA1-15 | 2026-08-30 12:55:23 | 53.09787 | 11.11988 | 77° | 91km/h | 11776m | -8.7m/s | -53.9°C | 10.4% | 208.5hPa | 2.6V | 02:52:39 | 02:58:14 | 00:00:00 | |
| DF8AY | 2026-08-30 12:55:22 | 53.09781 | 11.11950 | 77° | 93km/h | 11784m | -8.6m/s | -53.7°C | 10.3% | 208.2hPa | 2.7V | 02:52:39 | 02:58:13 | 00:00:00 | |
| BIOWL1-15 | 2026-08-30 12:55:21 | 53.09757 | 11.11762 | 79° | 91km/h | 11828m | -8.6m/s | -53.3°C | 9.4% | 206.9hPa | 2.7V | 02:52:39 | 02:58:08 | 00:00:00 | |
| DL1XH-west | 2026-08-30 12:55:13 | 53.09738 | 11.11613 | 77° | 91km/h | 11863m | -8.7m/s | -53.4°C | 9.1% | 205.7hPa | 2.6V | 02:52:39 | 02:58:04 | 00:00:00 | |
| AA1-15 | 2026-08-30 12:55:13 | 53.09733 | 11.11575 | 76° | 91km/h | 11872m | -9m/s | -53.3°C | 8.9% | 205.4hPa | 2.6V | 02:52:39 | 02:58:03 | 00:00:00 | |
| DF8AY | 2026-08-30 12:55:11 | 53.09727 | 11.11538 | 76° | 91km/h | 11880m | -8.7m/s | -53.2°C | 8.7% | 205.2hPa | 2.7V | 02:52:39 | 02:58:02 | 00:00:00 | |
| DB0DAN | 2026-08-30 12:55:10 | 53.09721 | 11.11501 | 76° | 88km/h | 11889m | -8.8m/s | -53.1°C | 6.6% | 204.92hPa | 2.7V | 00:00:00 | 00:00:00 | 00:00:00 | |
| DO2SHX-10 | 2026-08-30 12:55:10 | 53.09721 | 11.11501 | 76° | 91km/h | 11889m | -8.7m/s | -53.1°C | 9.8% | 204.9hPa | 2.6V | 00:00:00 | 02:58:01 | 00:00:00 | |
| DM0DOS-11 | 2026-08-30 12:55:09 | 53.09703 | 11.11390 | 75° | 89km/h | 11916m | -8.6m/s | -53°C | 9.5% | 204.1hPa | 2.6V | 02:52:20 | 02:57:58 | 00:00:00 | |
| DL1XH-west | 2026-08-30 12:55:04 | 53.09681 | 11.11245 | 75° | 89km/h | 11951m | -8.9m/s | -53°C | 7.7% | 203hPa | 2.6V | 02:52:39 | 02:57:54 | 00:00:00 | |
| AA1-15 | 2026-08-30 12:55:04 | 53.09668 | 11.11171 | 74° | 91km/h | 11968m | -8.5m/s | -53°C | 7.4% | 202.4hPa | 2.6V | 02:52:39 | 02:57:52 | 00:00:00 | |
| BIOWL1-15 | 2026-08-30 12:55:00 | 53.09637 | 11.10986 | 75° | 91km/h | 12012m | -8.6m/s | -52.9°C | 6.7% | 201hPa | 2.6V | 02:52:39 | 02:57:47 | 00:00:00 | |
| DF8AY | 2026-08-30 12:55:00 | 53.09662 | 11.11134 | 74° | 91km/h | 11977m | -9m/s | -53°C | 7.2% | 202.2hPa | 2.6V | 02:52:39 | 02:57:51 | 00:00:00 | |
| S3001 | 2026-08-30 12:54:59 | 53.09656 | 11.11097 | 73° | 91km/h | 11986m | -8.8m/s | -52.9°C | 5.6% | 201.9hPa | 2.6V | 00:00:00 | 00:00:00 | 00:00:00 | |
| BUE01 | 2026-08-30 12:54:58 | 53.09649 | 11.11060 | 74° | 91km/h | 11995m | -8.6m/s | -52.9°C | 5.5% | 201.6hPa | 2.6V | 00:00:00 | 00:00:00 | 00:00:00 | |
| DM0DOS-11 | 2026-08-30 12:54:58 | 53.09643 | 11.11023 | 74° | 91km/h | 12004m | -8.8m/s | -52.9°C | 8.5% | 201.3hPa | 2.6V | 02:52:30 | 02:57:48 | 00:00:00 | |
| DC4HF-4 | 2026-08-30 12:54:56 | 53.09631 | 11.10948 | 75° | 91km/h | 12021m | -9.1m/s | -52.9°C | 5.4% | 200.8hPa | 2.6V | 00:00:00 | 00:00:00 | 00:00:00 | |
| DB0DAN | 2026-08-30 12:54:55 | 53.09631 | 11.10948 | 75° | 88km/h | 12021m | -9.1m/s | -52.9°C | 5.4% | 200.76hPa | 2.6V | 00:00:00 | 00:00:00 | 00:00:00 | |
| DL1XH-west | 2026-08-30 12:54:53 | 53.09619 | 11.10873 | 75° | 93km/h | 12039m | -8.9m/s | -52.7°C | 6.3% | 200.2hPa | 2.7V | 02:52:39 | 02:57:44 | 00:00:00 | |
| AA1-15 | 2026-08-30 12:54:52 | 53.09613 | 11.10835 | 75° | 93km/h | 12048m | -9m/s | -52.8°C | 6.3% | 199.9hPa | 2.7V | 02:52:39 | 02:57:43 | 00:00:00 | |
| DF8AY | 2026-08-30 12:54:51 | 53.09601 | 11.10758 | 74° | 97km/h | 12066m | -8.5m/s | -52.9°C | 6.1% | 199.4hPa | 2.6V | 02:52:39 | 02:57:41 | 00:00:00 | |
| BIOWL1-15 | 2026-08-30 12:54:46 | 53.09574 | 11.10601 | 74° | 99km/h | 12101m | -8.9m/s | -52.7°C | 5.6% | 198.2hPa | 2.7V | 02:53:30 | 02:57:37 | 00:00:00 | |
| DL1XH-west | 2026-08-30 12:54:42 | 53.09548 | 11.10444 | 75° | 97km/h | 12137m | -9.1m/s | -52.3°C | 5.1% | 197.2hPa | 2.6V | 02:53:30 | 02:57:33 | 00:00:00 | |
| DF8AY | 2026-08-30 12:54:40 | 53.09536 | 11.10364 | 76° | 99km/h | 12156m | -9m/s | -52.3°C | 4.9% | 196.6hPa | 2.6V | 02:53:30 | 02:57:31 | 00:00:00 | |
| DB0DAN | 2026-08-30 12:54:40 | 53.09536 | 11.10364 | 76° | 93km/h | 12156m | -9m/s | -52.3°C | 4.2% | 196.62hPa | 2.6V | 00:00:00 | 00:00:00 | 00:00:00 | |
| DF7ER-10 | 2026-08-30 12:54:40 | 53.09536 | 11.10364 | 77° | 99km/h | 12156m | -9.0m/s | -52.3°C | 4.3% | 196.6hPa | 2.6V | 02:53:00 | 00:00:00 | 00:00:00 | |
| DM0DOS-11 | 2026-08-30 12:54:38 | 53.09518 | 11.10244 | 76° | 99km/h | 12183m | -9.1m/s | -52.2°C | 6.8% | 195.8hPa | 2.6V | 02:52:50 | 02:57:28 | 00:00:00 | |
| BIOWL1-15 | 2026-08-30 12:54:35 | 53.09506 | 11.10165 | 76° | 97km/h | 12201m | -8.9m/s | -52.1°C | 4.2% | 195.2hPa | 2.7V | 02:53:30 | 02:57:26 | 00:00:00 | |
| DL1XH-west | 2026-08-30 12:54:31 | 53.09482 | 11.10007 | 76° | 99km/h | 12237m | -9.2m/s | -51.9°C | 3.8% | 194.2hPa | 2.6V | 02:53:30 | 02:57:22 | 00:00:00 | |
| AA1-15 | 2026-08-30 12:54:31 | 53.09476 | 11.09967 | 76° | 99km/h | 12246m | -9.1m/s | -51.9°C | 3.7% | 193.9hPa | 2.6V | 02:53:30 | 02:57:21 | 00:00:00 | |
| DF8AY | 2026-08-30 12:54:29 | 53.09464 | 11.09886 | 76° | 99km/h | 12264m | -9.1m/s | -51.8°C | 3.4% | 193.4hPa | 2.7V | 02:53:30 | 02:57:19 | 00:00:00 | |
| DM0DOS-11 | 2026-08-30 12:54:28 | 53.09458 | 11.09846 | 76° | 99km/h | 12273m | -9m/s | -51.8°C | 5.9% | 193hPa | 2.6V | 02:53:00 | 02:57:18 | 00:00:00 | |
| BIOWL1-15 | 2026-08-30 12:54:26 | 53.09430 | 11.09645 | 78° | 100km/h | 12319m | -9.2m/s | -51.1°C | 2.8% | 191.7hPa | 2.7V | 02:53:30 | 02:57:13 | 00:00:00 | |
| DB0DAN | 2026-08-30 12:54:25 | 53.09446 | 11.09766 | 77° | 93km/h | 12291m | -9.3m/s | -51.6°C | 3.1% | 192.5hPa | 2.6V | 00:00:00 | 00:00:00 | 00:00:00 | |
| DL1XH-west | 2026-08-30 12:54:20 | 53.09419 | 11.09562 | 78° | 100km/h | 12337m | -9m/s | -51°C | 2.6% | 191.2hPa | 2.6V | 02:53:30 | 02:57:11 | 00:00:00 | |
| DC4HF-4 | 2026-08-30 12:54:20 | 53.09413 | 11.09521 | 78° | 100km/h | 12347m | -9.4m/s | -50.9°C | 2.7% | 190.8hPa | 2.6V | 00:00:00 | 00:00:00 | 00:00:00 | |
| DO2SHX-10 | 2026-08-30 12:54:19 | 53.09413 | 11.09521 | 79° | 100km/h | 12347m | -9.4m/s | -50.9°C | 5.2% | 190.8hPa | 2.6V | 02:53:00 | 02:57:10 | 00:00:00 | |
| DM0DOS-11 | 2026-08-30 12:54:18 | 53.09402 | 11.09438 | 78° | 102km/h | 12365m | -9.4m/s | -50.9°C | 5.1% | 190.4hPa | 2.6V | 02:53:10 | 02:57:08 | 00:00:00 | |
| DL1XH-15 | 2026-08-30 12:54:18 | 53.09397 | 11.09396 | 77° | 104km/h | 12374m | -9m/s | -50.8°C | 5.1% | 190.1hPa | 2.6V | 02:53:11 | 02:57:07 | 00:00:00 | |
| DF8AY | 2026-08-30 12:54:18 | 53.09408 | 11.09480 | 77° | 100km/h | 12356m | -9.3m/s | -50.9°C | 2.5% | 190.6hPa | 2.6V | 02:53:30 | 02:57:09 | 00:00:00 | |
| BIOWL1-15 | 2026-08-30 12:54:14 | 53.09386 | 11.09310 | 78° | 104km/h | 12392m | -9.1m/s | -50.6°C | 2.4% | 189.5hPa | 2.6V | 02:53:30 | 02:57:05 | 00:00:00 | |
| TFSTFS | 2026-08-30 12:54:14 | 53.09386 | 11.09310 | 79° | 104km/h | 12392m | -9.1m/s | -50.6°C | 2.6% | 189.5hPa | 2.6V | 02:53:00 | 00:00:00 | 00:00:00 | |
| DO2SHX-10 | 2026-08-30 12:54:13 | 53.09380 | 11.09267 | 78° | 104km/h | 12401m | -9.2m/s | -50.5°C | 4.9% | 189.1hPa | 2.6V | 00:00:00 | 02:57:04 | 00:00:00 | |
| HTAHTA | 2026-08-30 12:54:12 | 53.09369 | 11.09182 | 78° | 102km/h | 12420m | -9.3m/s | -50.6°C | 2.5% | 188.7hPa | 2.6V | 00:00:00 | 00:00:00 | 00:00:00 | |
| DM0DOS-11 | 2026-08-30 12:54:11 | 53.09350 | 11.09014 | 79° | 100km/h | 12457m | -9.3m/s | -50.6°C | 4.7% | 187.6hPa | 2.6V | 02:53:20 | 02:56:58 | 00:00:00 | |
| AA1-15 | 2026-08-30 12:54:10 | 53.09364 | 11.09139 | 79° | 102km/h | 12429m | -9.3m/s | -50.7°C | 2.2% | 188.4hPa | 2.7V | 02:53:30 | 02:57:01 | 00:00:00 | |
| DB0DAN | 2026-08-30 12:54:10 | 53.09364 | 11.09139 | 79° | 97km/h | 12429m | -9.3m/s | -50.7°C | 2.5% | 188.43hPa | 2.7V | 00:00:00 | 00:00:00 | 00:00:00 | |
| DL1XH-west | 2026-08-30 12:54:09 | 53.09360 | 11.09097 | 79° | 102km/h | 12438m | -9.2m/s | -50.6°C | 2.1% | 188.2hPa | 2.7V | 02:53:30 | 02:57:00 | 00:00:00 | |
| DF8AY | 2026-08-30 12:54:08 | 53.09355 | 11.09055 | 79° | 100km/h | 12448m | -9.3m/s | -50.6°C | 2.1% | 187.9hPa | 2.6V | 02:53:30 | 02:56:59 | 00:00:00 | |
| DL1XH-15 | 2026-08-30 12:54:08 | 53.09346 | 11.08973 | 79° | 99km/h | 12466m | -9.4m/s | -50.5°C | 4.7% | 187.4hPa | 2.6V | 02:53:21 | 02:56:57 | 00:00:00 | |
| BIOWL1-15 | 2026-08-30 12:54:04 | 53.09336 | 11.08892 | 80° | 97km/h | 12485m | -9.1m/s | -50.4°C | 1.8% | 186.8hPa | 2.6V | 02:53:30 | 02:56:55 | 00:00:00 | |
| DL1XH-west | 2026-08-30 12:53:59 | 53.09317 | 11.08700 | 81° | 88km/h | 12532m | -9.4m/s | -50°C | 1.4% | 185.5hPa | 2.7V | 02:53:30 | 02:56:50 | 00:00:00 | |
| AP2371 | 2026-08-30 12:53:59 | 53.09317 | 11.08700 | 81° | 88km/h | 12532m | -9.4m/s | -50.0°C | 2.0% | 185.5hPa | 2.7V | 00:00:00 | 00:00:00 | 00:00:00 | |
| DM0DOS-11 | 2026-08-30 12:53:58 | 53.09309 | 11.08628 | 80° | 86km/h | 12550m | -9m/s | -50.1°C | 4.2% | 185.1hPa | 2.7V | 02:53:30 | 02:56:48 | 00:00:00 | |
| DL1XH-15 | 2026-08-30 12:53:58 | 53.09306 | 11.08592 | 79° | 84km/h | 12560m | -9m/s | -50.1°C | 4.2% | 184.8hPa | 2.6V | 02:53:31 | 02:56:47 | 00:00:00 | |
| DF8AY | 2026-08-30 12:53:58 | 53.09313 | 11.08664 | 80° | 88km/h | 12541m | -9.3m/s | -50°C | 1.4% | 185.2hPa | 2.7V | 02:53:30 | 02:56:49 | 00:00:00 | |
| BIOWL1-15 | 2026-08-30 12:53:55 | 53.09294 | 11.08489 | 79° | 84km/h | 12588m | -9.5m/s | -50°C | 1.2% | 183.9hPa | 2.6V | 02:54:21 | 02:56:44 | 00:00:00 | |
| DB0DAN | 2026-08-30 12:53:55 | 53.09302 | 11.08558 | 80° | 80km/h | 12569m | -9.2m/s | -50.1°C | 1.9% | 184.43hPa | 2.6V | 00:00:00 | 00:00:00 | 00:00:00 | |
| DL3AQ-11 | 2026-08-30 12:53:55 | 53.09298 | 11.08523 | 79° | 82km/h | 12578m | -9.3m/s | -50.1°C | 1.9% | 184.2hPa | 2.7V | 00:00:00 | 00:00:00 | 00:00:00 | |
| BIOWL9-15 | 2026-08-30 12:53:54 | 53.09298 | 11.08523 | 79° | 82km/h | 12578m | -9.3m/s | -50.1°C | 1.9% | 184.2hPa | 2.7V | 00:00:00 | 00:00:00 | 00:00:00 | |
| SMARD9-15 | 2026-08-30 12:53:53 | 53.09294 | 11.08489 | 78° | 82km/h | 12588m | -9.5m/s | -50.0°C | 1.9% | 183.9hPa | 2.7V | 00:00:00 | 00:00:00 | 00:00:00 | |
| TFSTFS | 2026-08-30 12:53:52 | 53.09294 | 11.08489 | 80° | 84km/h | 12588m | -9.5m/s | -50.0°C | 1.9% | 183.9hPa | 2.7V | 02:54:00 | 00:00:00 | 00:00:00 | |
| DM0DOS-11 | 2026-08-30 12:53:51 | 53.09269 | 11.08285 | 77° | 82km/h | 12644m | -9.2m/s | -50°C | 4% | 182.4hPa | 2.7V | 02:53:40 | 02:56:38 | 00:00:00 | |
| DL1XH-west | 2026-08-30 12:53:48 | 53.09273 | 11.08319 | 78° | 82km/h | 12635m | -9.4m/s | -50°C | 1.1% | 182.6hPa | 2.6V | 02:54:21 | 02:56:39 | 00:00:00 | |
| AA1-15 | 2026-08-30 12:53:47 | 53.09269 | 11.08285 | 78° | 82km/h | 12644m | -9.2m/s | -50°C | 1.1% | 182.4hPa | 2.7V | 02:54:21 | 02:56:38 | 00:00:00 | |
| DL1XH-15 | 2026-08-30 12:53:47 | 53.09264 | 11.08251 | 77° | 82km/h | 12654m | -9.5m/s | -50°C | 4% | 182.1hPa | 2.7V | 02:53:41 | 02:56:37 | 00:00:00 | |
| BIOWL1-15 | 2026-08-30 12:53:42 | 53.09220 | 11.07987 | 73° | 84km/h | 12730m | -9.4m/s | -49.7°C | 1% | 180hPa | 2.7V | 02:54:21 | 02:56:29 | 00:00:00 | |
| DB0DAN | 2026-08-30 12:53:40 | 53.09232 | 11.08053 | 73° | 78km/h | 12710m | -9.4m/s | -49.6°C | 1.7% | 180.52hPa | 2.7V | 00:00:00 | 00:00:00 | 00:00:00 | |
| SONDE2-11 | 2026-08-30 12:53:40 | 53.09226 | 11.08020 | 72° | 82km/h | 12720m | -9.3m/s | -49.7°C | 1.7% | 180.3hPa | 2.6V | 00:00:00 | 00:00:00 | 00:00:00 | |
| DL1XH-15 | 2026-08-30 12:53:38 | 53.09208 | 11.07920 | 73° | 82km/h | 12749m | -9.5m/s | -49.6°C | 3.9% | 179.5hPa | 2.6V | 02:53:51 | 02:56:27 | 00:00:00 | |
| DL1XH1-15 | 2026-08-30 12:53:38 | 53.09214 | 11.07953 | 73° | 82km/h | 12739m | -9.7m/s | -49.7°C | 3.9% | 179.6hPa | 2.6V | 02:53:50 | 02:56:28 | 00:00:00 | |
| DL1XH-west | 2026-08-30 12:53:37 | 53.09213 | 11.07953 | 74° | 84km/h | 12739m | -9.7m/s | -49.7°C | 1% | 179.7hPa | 2.6V | 02:54:21 | 02:56:28 | 00:00:00 | |
| DF8AY | 2026-08-30 12:53:36 | 53.09208 | 11.07920 | 73° | 82km/h | 12749m | -9.5m/s | -49.6°C | 0.9% | 179.5hPa | 2.6V | 02:54:21 | 02:56:27 | 00:00:00 | |
| GOEST3-10 | 2026-08-30 12:53:36 | 53.09208 | 11.07920 | 74° | 82km/h | 12749m | -9.5m/s | -49.6°C | 3.9% | 179.5hPa | 2.6V | 02:53:00 | 02:56:27 | 00:00:00 | |
| DG6HD-15 | 2026-08-30 12:53:34 | 53.09196 | 11.07854 | 74° | 82km/h | 12768m | -9.4m/s | -49.6°C | 1.7% | 179.0hPa | 2.7V | 02:54:00 | 00:00:00 | 00:00:00 | |
| SONCRA | 2026-08-30 12:53:33 | 53.09184 | 11.07789 | 72° | 80km/h | 12787m | -9.5m/s | -49.5°C | 1.7% | 178.4hPa | 2.7V | 00:00:00 | 00:00:00 | 00:00:00 | |
| DF8AY-15 | 2026-08-30 12:53:32 | 53.09184 | 11.07788 | 73° | 80km/h | 12787m | -9.5m/s | -49.4°C | 3.8% | 178.3hPa | 2.7V | 02:53:00 | 02:56:23 | 00:00:00 | |
| DM0DOS-11 | 2026-08-30 12:53:31 | 53.09151 | 11.07628 | 69° | 82km/h | 12834m | -9.4m/s | -49.6°C | 3.8% | 177.1hPa | 2.6V | 02:54:00 | 02:56:18 | 00:00:00 | |
| BIOWL1-15 | 2026-08-30 12:53:29 | 53.09151 | 11.07628 | 70° | 82km/h | 12834m | -9.4m/s | -49.6°C | 0.8% | 177.1hPa | 2.6V | 02:54:21 | 02:56:18 | 00:00:00 | |
| DL1XH-15 | 2026-08-30 12:53:28 | 53.09144 | 11.07596 | 69° | 82km/h | 12844m | -9.6m/s | -49.6°C | 3.7% | 176.8hPa | 2.6V | 02:54:01 | 02:56:17 | 00:00:00 | |
| DL1XH-west | 2026-08-30 12:53:26 | 53.09144 | 11.07596 | 70° | 82km/h | 12844m | -9.6m/s | -49.6°C | 0.8% | 176.9hPa | 2.6V | 02:54:21 | 02:56:17 | 00:00:00 | |
| DB0DAN | 2026-08-30 12:53:25 | 53.09137 | 11.07563 | 71° | 78km/h | 12853m | -9.8m/s | -49.5°C | 1.6% | 176.57hPa | 2.6V | 00:00:00 | 00:00:00 | 00:00:00 | |
| DF8AY | 2026-08-30 12:53:25 | 53.09137 | 11.07563 | 71° | 82km/h | 12853m | -9.8m/s | -49.5°C | 0.7% | 176.6hPa | 2.6V | 02:54:21 | 02:56:16 | 00:00:00 | |
| DO2SHX-10 | 2026-08-30 12:53:25 | 53.09137 | 11.07563 | 71° | 82km/h | 12854m | -9.7m/s | -49.5°C | 3.7% | 176.5hPa | 2.6V | 02:54:00 | 02:56:16 | 00:00:00 | |
| DB0UT-7 | 2026-08-30 12:53:24 | 53.09130 | 11.07530 | 72° | 69km/h | 12863m | -9.7m/s | -49.5°C | 3.8% | 176.3hPa | 2.7V | 00:00:00 | 02:56:15 | 00:00:00 | |
| EDDB2-11 | 2026-08-30 12:53:23 | 53.09124 | 11.07498 | 71° | 80km/h | 12873m | -9.7m/s | -49.5°C | 1.6% | 176.1hPa | 2.7V | 00:00:00 | 00:00:00 | 00:00:00 | |
| DO2SHX-10 | 2026-08-30 12:53:22 | 53.09117 | 11.07465 | 72° | 82km/h | 12882m | -9.5m/s | -49.2°C | 3.7% | 175.8hPa | 2.7V | 00:00:00 | 02:56:13 | 00:00:00 | |
| GOEST3-10 | 2026-08-30 12:53:21 | 53.09110 | 11.07432 | 72° | 80km/h | 12892m | -9.3m/s | -49.2°C | 3.7% | 175.5hPa | 2.7V | 02:54:00 | 00:00:00 | 00:00:00 | |
| DO2SHX-10 | 2026-08-30 12:53:19 | 53.09097 | 11.07368 | 72° | 78km/h | 12911m | -9.4m/s | -49.2°C | 3.7% | 175.0hPa | 2.6V | 00:00:00 | 02:56:10 | 00:00:00 | |
| DL1XH1-15 | 2026-08-30 12:53:18 | 53.09085 | 11.07305 | 72° | 77km/h | 12930m | -9.7m/s | -49.3°C | 3.7% | 174.6hPa | 2.6V | 02:54:10 | 02:56:08 | 00:00:00 | |
| DD8BA-10 | 2026-08-30 12:53:18 | 53.09091 | 11.07336 | 72° | 73km/h | 12921m | -9.4m/s | -49.2°C | 3.7% | 174.8hPa | 2.7V | 00:00:00 | 00:00:00 | 00:00:00 | |
| DL1XH-15 | 2026-08-30 12:53:17 | 53.09080 | 11.07274 | 72° | 77km/h | 12940m | -9.7m/s | -49.1°C | 3.6% | 174.3hPa | 2.7V | 02:54:11 | 02:56:07 | 00:00:00 | |
| BIOWL1-15 | 2026-08-30 12:53:16 | 53.09068 | 11.07214 | 73° | 73km/h | 12959m | -9.4m/s | -48.8°C | 0.5% | 173.8hPa | 2.7V | 02:54:21 | 02:56:05 | 00:00:00 | |
| DL1XH-west | 2026-08-30 12:53:16 | 53.09080 | 11.07274 | 73° | 77km/h | 12940m | -9.7m/s | -49.1°C | 0.6% | 174.3hPa | 2.7V | 02:54:21 | 02:56:07 | 00:00:00 | |
| DF8AY | 2026-08-30 12:53:15 | 53.09074 | 11.07244 | 73° | 75km/h | 12950m | -9.6m/s | -48.9°C | 0.6% | 174hPa | 2.7V | 02:54:21 | 02:56:06 | 00:00:00 | |
| DL3AQ-11 | 2026-08-30 12:53:15 | 53.09068 | 11.07214 | 73° | 73km/h | 12959m | -9.4m/s | -48.8°C | 1.4% | 173.8hPa | 2.6V | 00:00:00 | 00:00:00 | 00:00:00 | |
| DO2SHX-10 | 2026-08-30 12:53:13 | 53.09063 | 11.07184 | 73° | 71km/h | 12969m | -9.6m/s | -48.7°C | 3.4% | 173.5hPa | 2.6V | 00:00:00 | 02:56:04 | 00:00:00 | |
| DF8AY-15 | 2026-08-30 12:53:12 | 53.09057 | 11.07156 | 72° | 64km/h | 12979m | -9.6m/s | -48.7°C | 3.4% | 173.3hPa | 2.6V | 00:00:00 | 02:56:03 | 00:00:00 | |
| DM0DOS-11 | 2026-08-30 12:53:11 | 53.09029 | 11.07020 | 70° | 64km/h | 13027m | -9.9m/s | -49°C | 3.4% | 172hPa | 2.6V | 02:54:20 | 02:55:58 | 00:00:00 | |
| DB0DAN | 2026-08-30 12:53:10 | 53.09046 | 11.07099 | 72° | 66km/h | 12998m | -9.5m/s | -48.9°C | 1.4% | 172.74hPa | 2.7V | 00:00:00 | 00:00:00 | 00:00:00 | |
| DO2SHX-10 | 2026-08-30 12:53:10 | 53.09046 | 11.07099 | 72° | 68km/h | 12998m | -9.4m/s | -48.9°C | 3.4% | 172.7hPa | 2.6V | 00:00:00 | 02:56:01 | 00:00:00 | |
| DL1XH-15 | 2026-08-30 12:53:09 | 53.09024 | 11.06994 | 70° | 64km/h | 13037m | -9.7m/s | -48.9°C | 3.4% | 171.8hPa | 2.6V | 02:54:21 | 02:55:57 | 00:00:00 | |
| DL1XH-west | 2026-08-30 12:53:05 | 53.09019 | 11.06969 | 71° | 62km/h | 13047m | -9.8m/s | -48.8°C | 0.4% | 171.5hPa | 2.7V | 02:55:12 | 02:55:56 | 00:00:00 | |
| DF8AY | 2026-08-30 12:53:04 | 53.09013 | 11.06945 | 70° | 62km/h | 13056m | -9.8m/s | -48.9°C | 0.4% | 171.3hPa | 2.7V | 02:55:12 | 02:55:55 | 00:00:00 | |
| BIOWL1-15 | 2026-08-30 12:53:03 | 53.08986 | 11.06822 | 68° | 62km/h | 13105m | -9.7m/s | -49°C | 0.4% | 170hPa | 2.6V | 02:55:12 | 02:55:50 | 00:00:00 | |
| SONCRA | 2026-08-30 12:53:02 | 53.08997 | 11.06871 | 69° | 62km/h | 13086m | -9.8m/s | -48.9°C | 1.4% | 170.5hPa | 2.7V | 00:00:00 | 00:00:00 | 00:00:00 | |
| DO2SHX-10 | 2026-08-30 12:53:01 | 53.08997 | 11.06871 | 70° | 62km/h | 13086m | -9.7m/s | -48.8°C | 3.4% | 170.4hPa | 2.7V | 00:00:00 | 02:55:52 | 00:00:00 | |
| DO2LYB-13 | 2026-08-30 12:53:00 | 53.08997 | 11.06871 | 70° | 62km/h | 13086m | -9.8m/s | -48.9°C | 1.4% | 170.5hPa | 2.7V | 02:55:00 | 00:00:00 | 00:00:00 | |
| NBG1-10 | 2026-08-30 12:52:59 | 53.08986 | 11.06822 | 69° | 68km/h | 13105m | -9.7m/s | -49.0°C | 3.4% | 170.0hPa | 2.7V | 00:00:00 | 02:55:50 | 00:00:00 | |
| DL1XH-15 | 2026-08-30 12:52:58 | 53.08968 | 11.06751 | 66° | 60km/h | 13135m | -9.6m/s | -49.2°C | 3.4% | 169.2hPa | 2.7V | 02:54:31 | 02:55:47 | 00:00:00 | |
| DL1XH1-15 | 2026-08-30 12:52:58 | 53.08974 | 11.06774 | 66° | 62km/h | 13125m | -9.6m/s | -49.2°C | 3.4% | 169.4hPa | 2.7V | 02:54:30 | 02:55:48 | 00:00:00 | |
| AA1-15 | 2026-08-30 12:52:55 | 53.08962 | 11.06728 | 65° | 60km/h | 13144m | -9.9m/s | -49.2°C | 0.4% | 169hPa | 2.6V | 02:55:12 | 02:55:46 | 00:00:00 | |
| DB0DAN | 2026-08-30 12:52:55 | 53.08962 | 11.06728 | 65° | 57km/h | 13144m | -9.9m/s | -49.2°C | 1.4% | 168.96hPa | 2.6V | 00:00:00 | 00:00:00 | 00:00:00 | |
| DF8AY | 2026-08-30 12:52:54 | 53.08955 | 11.06705 | 64° | 60km/h | 13154m | -9.8m/s | -49.2°C | 0.5% | 168.7hPa | 2.6V | 02:55:12 | 02:55:45 | 00:00:00 | |
| DF7ER-10 | 2026-08-30 12:52:53 | 53.08955 | 11.06705 | 65° | 60km/h | 13154m | -9.8m/s | -49.2°C | 1.4% | 168.7hPa | 2.7V | 02:55:00 | 00:00:00 | 00:00:00 | |
| DO2SHX-10 | 2026-08-30 12:52:52 | 53.08942 | 11.06660 | 63° | 62km/h | 13174m | -9.6m/s | -49.2°C | 3.4% | 168.2hPa | 2.7V | 00:00:00 | 02:55:43 | 00:00:00 | |
| DM0DOS-11 | 2026-08-30 12:52:51 | 53.08905 | 11.06543 | 62° | 66km/h | 13223m | -9.9m/s | -49.6°C | 3.5% | 166.9hPa | 2.7V | 02:54:40 | 02:55:38 | 00:00:00 | |
| BIOWL1-15 | 2026-08-30 12:52:49 | 53.08905 | 11.06543 | 63° | 66km/h | 13223m | -9.9m/s | -49.6°C | 0.5% | 167hPa | 2.7V | 02:55:12 | 02:55:38 | 00:00:00 | |
| DO2SHX-10 | 2026-08-30 12:52:49 | 53.08920 | 11.06591 | 63° | 64km/h | 13203m | -9.5m/s | -49.4°C | 3.5% | 167.4hPa | 2.6V | 02:54:00 | 02:55:40 | 00:00:00 | |
| DL1XH-15 | 2026-08-30 12:52:48 | 53.08898 | 11.06519 | 62° | 66km/h | 13232m | -9.7m/s | -49.6°C | 3.5% | 166.7hPa | 2.7V | 02:54:41 | 02:55:37 | 00:00:00 | |
| AA1-15 | 2026-08-30 12:52:45 | 53.08890 | 11.06494 | 62° | 66km/h | 13242m | -9.5m/s | -49.8°C | 0.5% | 166.5hPa | 2.7V | 02:55:12 | 02:55:36 | 00:00:00 | |
| DL1XH-west | 2026-08-30 12:52:44 | 53.08882 | 11.06469 | 61° | 68km/h | 13251m | -9.5m/s | -49.8°C | 0.6% | 166.2hPa | 2.7V | 02:55:12 | 02:55:35 | 00:00:00 | |
| DF8AY | 2026-08-30 12:52:43 | 53.08874 | 11.06445 | 61° | 68km/h | 13261m | -9.7m/s | -49.9°C | 0.6% | 166hPa | 2.6V | 02:55:12 | 02:55:34 | 00:00:00 | |
| DO2SHX-10 | 2026-08-30 12:52:43 | 53.08874 | 11.06445 | 61° | 68km/h | 13262m | -9.7m/s | -49.9°C | 3.6% | 165.9hPa | 2.6V | 00:00:00 | 02:55:34 | 00:00:00 | |
| AM1SDL-15 | 2026-08-30 12:52:42 | 53.08865 | 11.06420 | 61° | 64km/h | 13271m | -9.8m/s | -49.9°C | 3.6% | 165.7hPa | 2.6V | 02:54:00 | 02:55:33 | 00:00:00 | |
| DB0DAN | 2026-08-30 12:52:40 | 53.08849 | 11.06371 | 61° | 64km/h | 13291m | -9.8m/s | -50°C | 1.4% | 165.17hPa | 2.6V | 00:00:00 | 00:00:00 | 00:00:00 | |
| DO2SHX-10 | 2026-08-30 12:52:40 | 53.08849 | 11.06371 | 61° | 66km/h | 13291m | -9.8m/s | -50.0°C | 3.6% | 165.1hPa | 2.6V | 02:54:00 | 02:55:31 | 00:00:00 | |
| DL1XH-15 | 2026-08-30 12:52:38 | 53.08817 | 11.06276 | 60° | 62km/h | 13330m | -10m/s | -50.1°C | 3.6% | 164.2hPa | 2.6V | 02:54:51 | 02:55:27 | 00:00:00 | |
| DL1XH1-15 | 2026-08-30 12:52:38 | 53.08825 | 11.06299 | 60° | 62km/h | 13320m | -10m/s | -50°C | 3.6% | 164.4hPa | 2.6V | 02:54:50 | 02:55:28 | 00:00:00 | |
| AA1-15 | 2026-08-30 12:52:34 | 53.08801 | 11.06231 | 61° | 62km/h | 13351m | -9.9m/s | -50°C | 0.5% | 163.7hPa | 2.7V | 02:55:12 | 02:55:25 | 00:00:00 | |
| DL1XH-west | 2026-08-30 12:52:33 | 53.08794 | 11.06208 | 62° | 62km/h | 13361m | -9.7m/s | -50.2°C | 0.6% | 163.5hPa | 2.7V | 02:55:12 | 02:55:24 | 00:00:00 | |
| DL1XH1-15 | 2026-08-30 12:52:33 | 53.08751 | 11.06064 | 65° | 66km/h | 13421m | -10.1m/s | -49.8°C | 3.6% | 162hPa | 2.7V | 02:55:00 | 02:55:18 | 00:00:00 | |
| DF8AY-15 | 2026-08-30 12:52:33 | 53.08786 | 11.06185 | 63° | 66km/h | 13371m | -9.9m/s | -50.0°C | 3.6% | 163.1hPa | 2.6V | 02:54:00 | 02:55:23 | 00:00:00 | |
| DC4HF-4 | 2026-08-30 12:52:32 | 53.08779 | 11.06161 | 63° | 62km/h | 13381m | -10.1m/s | -50.0°C | 1.4% | 162.9hPa | 2.6V | 00:00:00 | 00:00:00 | 00:00:00 | |
| DO2SHX-10 | 2026-08-30 12:52:31 | 53.08779 | 11.06161 | 64° | 64km/h | 13381m | -10.0m/s | -50.0°C | 3.7% | 162.9hPa | 2.6V | 02:54:00 | 02:55:22 | 00:00:00 | |
| AM1SDL-15 | 2026-08-30 12:52:30 | 53.08772 | 11.06137 | 65° | 66km/h | 13391m | -9.9m/s | -49.9°C | 3.6% | 162.7hPa | 2.7V | 00:00:00 | 02:55:21 | 00:00:00 | |
| DO2SHX-10 | 2026-08-30 12:52:29 | 53.08758 | 11.06088 | 65° | 66km/h | 13411m | -9.8m/s | -49.7°C | 3.6% | 162.2hPa | 2.7V | 00:00:00 | 02:55:19 | 00:00:00 | |
| DL1XH-15 | 2026-08-30 12:52:27 | 53.08744 | 11.06039 | 65° | 66km/h | 13430m | -9.9m/s | -49.7°C | 3.6% | 161.7hPa | 2.7V | 02:55:01 | 02:55:17 | 00:00:00 | |
| DB0DAN | 2026-08-30 12:52:25 | 53.08738 | 11.06014 | 66° | 62km/h | 13440m | -10m/s | -49.6°C | 1.4% | 161.47hPa | 2.6V | 00:00:00 | 00:00:00 | 00:00:00 | |
| BIOWL1-15 | 2026-08-30 12:52:23 | 53.08672 | 11.05758 | 68° | 66km/h | 13542m | -10.1m/s | -49.8°C | 0.3% | 159hPa | 2.7V | 02:55:12 | 02:55:06 | 00:00:00 | |
| DF8AY | 2026-08-30 12:52:23 | 53.08724 | 11.05963 | 67° | 68km/h | 13461m | -10.1m/s | -49.7°C | 0.5% | 161hPa | 2.6V | 02:55:12 | 02:55:14 | 00:00:00 | |
| DL1XH-west | 2026-08-30 12:52:22 | 53.08718 | 11.05937 | 67° | 66km/h | 13471m | -10m/s | -49.7°C | 0.5% | 160.7hPa | 2.7V | 02:55:12 | 02:55:13 | 00:00:00 | |
| DL1LOL-11 | 2026-08-30 12:52:22 | 53.08718 | 11.05937 | 68° | 66km/h | 13471m | -10.0m/s | -49.7°C | 1.4% | 160.7hPa | 2.7V | 00:00:00 | 00:00:00 | 00:00:00 | |
| GOEST3-10 | 2026-08-30 12:52:21 | 53.08711 | 11.05912 | 67° | 66km/h | 13481m | -10.4m/s | -49.6°C | 3.6% | 160.4hPa | 2.7V | 02:55:00 | 00:00:00 | 00:00:00 | |
| DJ2DS-15 | 2026-08-30 12:52:20 | 53.08698 | 11.05860 | 66° | 66km/h | 13501m | -10.1m/s | -49.7°C | 1.4% | 160.0hPa | 2.7V | 00:00:00 | 00:00:00 | 00:00:00 | |
| DL1XH-15 | 2026-08-30 12:52:19 | 53.08678 | 11.05783 | 67° | 66km/h | 13531m | -10m/s | -49.8°C | 3.4% | 159.2hPa | 2.7V | 02:55:11 | 02:55:07 | 00:00:00 | |
| AA1-15 | 2026-08-30 12:52:13 | 53.08659 | 11.05708 | 66° | 64km/h | 13562m | -10.5m/s | -49.8°C | 0.4% | 158.5hPa | 2.6V | 02:56:03 | 02:55:04 | 00:00:00 | |
| DF8AY | 2026-08-30 12:52:13 | 53.08620 | 11.05565 | 64° | 62km/h | 13623m | -10m/s | -49.7°C | 0.4% | 157hPa | 2.6V | 02:56:03 | 02:54:58 | 00:00:00 | |
| DL1XH-west | 2026-08-30 12:52:12 | 53.08653 | 11.05684 | 65° | 64km/h | 13572m | -10.4m/s | -49.8°C | 0.4% | 158.3hPa | 2.6V | 02:56:03 | 02:55:03 | 00:00:00 | |
| DB0DAN | 2026-08-30 12:52:10 | 53.08640 | 11.05636 | 65° | 60km/h | 13593m | -10.2m/s | -49.7°C | 1.3% | 157.79hPa | 2.7V | 00:00:00 | 00:00:00 | 00:00:00 | |
| DO2SHX-10 | 2026-08-30 12:52:10 | 53.08640 | 11.05636 | 65° | 62km/h | 13593m | -10.1m/s | -49.7°C | 3.4% | 157.7hPa | 2.6V | 00:00:00 | 02:55:01 | 00:00:00 | |
| DL1XH-15 | 2026-08-30 12:52:08 | 53.08612 | 11.05542 | 63° | 62km/h | 13633m | -10.3m/s | -49.8°C | 3.4% | 156.8hPa | 2.6V | 02:55:21 | 02:54:57 | 00:00:00 | |
| BIOWL1-15 | 2026-08-30 12:52:04 | 53.08599 | 11.05495 | 64° | 60km/h | 13654m | -10.1m/s | -49.8°C | 0.3% | 156.3hPa | 2.7V | 02:56:03 | 02:54:55 | 00:00:00 | |
| AA1-15 | 2026-08-30 12:52:02 | 53.08585 | 11.05450 | 63° | 60km/h | 13674m | -10.6m/s | -50.1°C | 0.3% | 155.8hPa | 2.7V | 02:56:03 | 02:54:53 | 00:00:00 | |
| DL1XH-west | 2026-08-30 12:52:01 | 53.08578 | 11.05428 | 62° | 58km/h | 13684m | -10.3m/s | -50.2°C | 0.4% | 155.6hPa | 2.6V | 02:56:03 | 02:54:52 | 00:00:00 | |
| SONCRA | 2026-08-30 12:52:00 | 53.08565 | 11.05386 | 60° | 57km/h | 13705m | -10.2m/s | -50.2°C | 1.3% | 155.1hPa | 2.6V | 00:00:00 | 00:00:00 | 00:00:00 | |
| EDDB2-12 | 2026-08-30 12:51:57 | 53.08543 | 11.05324 | 58° | 55km/h | 13736m | -10.2m/s | -50.4°C | 1.3% | 154.3hPa | 2.6V | 00:00:00 | 00:00:00 | 00:00:00 | |
| DC4HF-4 | 2026-08-30 12:51:56 | 53.08535 | 11.05304 | 57° | 55km/h | 13746m | -10.2m/s | -50.3°C | 1.3% | 154.1hPa | 2.6V | 00:00:00 | 00:00:00 | 00:00:00 | |
| DB0DAN | 2026-08-30 12:51:55 | 53.08535 | 11.05304 | 57° | 53km/h | 13746m | -10.2m/s | -50.3°C | 1.3% | 154.12hPa | 2.6V | 00:00:00 | 00:00:00 | 00:00:00 | |
| BIOWL1-15 | 2026-08-30 12:51:53 | 53.08519 | 11.05266 | 54° | 55km/h | 13767m | -10.5m/s | -50.3°C | 0.3% | 153.6hPa | 2.7V | 02:56:03 | 02:54:44 | 00:00:00 | |
| AA1-15 | 2026-08-30 12:51:52 | 53.08511 | 11.05248 | 53° | 55km/h | 13777m | -10.4m/s | -50.3°C | 0.3% | 153.3hPa | 2.7V | 02:56:03 | 02:54:43 | 00:00:00 | |
| DL1XH1-15 | 2026-08-30 12:51:52 | 53.08469 | 11.05160 | 50° | 55km/h | 13828m | -10.4m/s | -50.7°C | 3.5% | 152.2hPa | 2.6V | 02:55:40 | 02:54:38 | 00:00:00 | |
| DL1XH-west | 2026-08-30 12:51:51 | 53.08503 | 11.05230 | 52° | 53km/h | 13787m | -10.3m/s | -50.4°C | 0.3% | 153.1hPa | 2.7V | 02:56:03 | 02:54:42 | 00:00:00 | |
| BIOWL9-15 | 2026-08-30 12:51:50 | 53.08486 | 11.05195 | 50° | 53km/h | 13808m | -10.3m/s | -50.5°C | 1.3% | 152.6hPa | 2.6V | 00:00:00 | 00:00:00 | 00:00:00 | |
| SMARD9-15 | 2026-08-30 12:51:49 | 53.08477 | 11.05177 | 49° | 53km/h | 13818m | -10.4m/s | -50.6°C | 1.3% | 152.4hPa | 2.6V | 00:00:00 | 00:00:00 | 00:00:00 | |
| BIOWL1-15 | 2026-08-30 12:51:42 | 53.08408 | 11.05029 | 54° | 58km/h | 13901m | -10.2m/s | -50.9°C | 0.5% | 150.5hPa | 2.6V | 02:56:03 | 02:54:31 | 00:00:00 | |
| DF8AY | 2026-08-30 12:51:41 | 53.08416 | 11.05049 | 54° | 58km/h | 13890m | -10.4m/s | -50.9°C | 0.4% | 150.7hPa | 2.7V | 02:56:03 | 02:54:32 | 00:00:00 | |
| DB0DAN | 2026-08-30 12:51:40 | 53.08408 | 11.05029 | 54° | 55km/h | 13901m | -10.2m/s | -50.9°C | 1.4% | 150.46hPa | 2.6V | 00:00:00 | 00:00:00 | 00:00:00 | |
| DO2SHX-10 | 2026-08-30 12:51:40 | 53.08408 | 11.05029 | 55° | 58km/h | 13901m | -10.1m/s | -50.8°C | 3.7% | 150.4hPa | 2.6V | 00:00:00 | 02:54:31 | 00:00:00 | |
| DL1XH1-15 | 2026-08-30 12:51:38 | 53.08382 | 11.04969 | 54° | 58km/h | 13932m | -10.7m/s | -51°C | 3.7% | 149.8hPa | 2.6V | 02:55:50 | 02:54:28 | 00:00:00 | |
| DL1XH-15 | 2026-08-30 12:51:38 | 53.08374 | 11.04949 | 55° | 58km/h | 13942m | -10.6m/s | -51.1°C | 3.7% | 149.5hPa | 2.6V | 02:55:51 | 02:54:27 | 00:00:00 | |
| DL1XH-west | 2026-08-30 12:51:31 | 53.08316 | 11.04786 | 63° | 55km/h | 14026m | -10.6m/s | -51.3°C | 0.5% | 147.6hPa | 2.7V | 02:56:03 | 02:54:19 | 00:00:00 | |
| BIOWL1-15 | 2026-08-30 12:51:30 | 53.08310 | 11.04766 | 64° | 55km/h | 14036m | -10.6m/s | -51.2°C | 0.4% | 147.3hPa | 2.7V | 02:56:03 | 02:54:18 | 00:00:00 | |
| DF8AY | 2026-08-30 12:51:30 | 53.08329 | 11.04826 | 61° | 55km/h | 14005m | -10.4m/s | -51.3°C | 0.5% | 148.1hPa | 2.6V | 02:56:03 | 02:54:21 | 00:00:00 | |
| DM0DOS-11 | 2026-08-30 12:51:28 | 53.08310 | 11.04766 | 63° | 55km/h | 14036m | -10.6m/s | -51.2°C | 3.6% | 147.3hPa | 2.7V | 02:56:00 | 02:54:18 | 00:00:00 | |
| DL1XH-15 | 2026-08-30 12:51:27 | 53.08304 | 11.04745 | 64° | 53km/h | 14047m | -10.2m/s | -51.1°C | 3.6% | 147.1hPa | 2.7V | 02:56:01 | 02:54:17 | 00:00:00 | |
| DB0DAN | 2026-08-30 12:51:25 | 53.08299 | 11.04725 | 66° | 51km/h | 14057m | -10.6m/s | -51.1°C | 1.3% | 146.85hPa | 2.7V | 00:00:00 | 00:00:00 | 00:00:00 | |
| DO2SHX-10 | 2026-08-30 12:51:25 | 53.08299 | 11.04725 | 66° | 55km/h | 14057m | -10.6m/s | -51.0°C | 3.5% | 146.8hPa | 2.7V | 00:00:00 | 02:54:16 | 00:00:00 | |
| DB0UT-7 | 2026-08-30 12:51:24 | 53.08293 | 11.04703 | 68° | 58km/h | 14068m | -10.7m/s | -50.9°C | 3.6% | 146.6hPa | 2.7V | 00:00:00 | 02:54:15 | 00:00:00 | |
| DO2SHX-10 | 2026-08-30 12:51:22 | 53.08283 | 11.04662 | 69° | 53km/h | 14089m | -10.6m/s | -51.0°C | 3.5% | 146.1hPa | 2.7V | 00:00:00 | 02:54:13 | 00:00:00 | |
| GOEST3-10 | 2026-08-30 12:51:21 | 53.08278 | 11.04640 | 70° | 53km/h | 14100m | -10.7m/s | -50.9°C | 3.5% | 145.9hPa | 2.7V | 02:56:00 | 00:00:00 | 00:00:00 | |
| DL1XH-15 | 2026-08-30 12:51:19 | 53.08255 | 11.04537 | 69° | 53km/h | 14153m | -10.5m/s | -50.7°C | 3.5% | 144.8hPa | 2.7V | 02:56:11 | 02:54:07 | 00:00:00 | |
| AA1-15 | 2026-08-30 12:51:19 | 53.08269 | 11.04599 | 69° | 53km/h | 14121m | -10.7m/s | -50.9°C | 0.3% | 145.4hPa | 2.7V | 02:56:54 | 02:54:10 | 00:00:00 | |
| DO2SHX-10 | 2026-08-30 12:51:19 | 53.08269 | 11.04599 | 69° | 53km/h | 14121m | -10.7m/s | -50.9°C | 3.5% | 145.4hPa | 2.7V | 02:56:00 | 02:54:10 | 00:00:00 | |
| DL1XH1-15 | 2026-08-30 12:51:18 | 53.08259 | 11.04558 | 69° | 53km/h | 14142m | -10.6m/s | -50.7°C | 3.5% | 144.9hPa | 2.6V | 02:56:10 | 02:54:08 | 00:00:00 | |
| DL1XH-west | 2026-08-30 12:51:17 | 53.08259 | 11.04558 | 70° | 53km/h | 14142m | -10.6m/s | -50.7°C | 0.3% | 144.9hPa | 2.6V | 02:56:54 | 02:54:08 | 00:00:00 | |
| BIOWL1-15 | 2026-08-30 12:51:17 | 53.08245 | 11.04494 | 69° | 55km/h | 14174m | -10.5m/s | -50.7°C | 0.4% | 144.3hPa | 2.7V | 02:56:54 | 02:54:05 | 00:00:00 | |
| DO2SHX-10 | 2026-08-30 12:51:16 | 53.08255 | 11.04536 | 70° | 55km/h | 14153m | -10.5m/s | -50.7°C | 3.5% | 144.7hPa | 2.7V | 00:00:00 | 02:54:07 | 00:00:00 | |
| DL3AQ-11 | 2026-08-30 12:51:15 | 53.08250 | 11.04515 | 69° | 53km/h | 14163m | -10.5m/s | -50.7°C | 1.3% | 144.5hPa | 2.7V | 00:00:00 | 00:00:00 | 00:00:00 | |
| AM1SDL-15 | 2026-08-30 12:51:14 | 53.08245 | 11.04494 | 70° | 58km/h | 14174m | -10.5m/s | -50.7°C | 3.5% | 144.2hPa | 2.7V | 00:00:00 | 02:54:05 | 00:00:00 | |
| DO2SHX-10 | 2026-08-30 12:51:13 | 53.08240 | 11.04473 | 69° | 55km/h | 14185m | -10.4m/s | -50.7°C | 3.5% | 144.0hPa | 2.7V | 00:00:00 | 02:54:04 | 00:00:00 | |
| DL1XH1-15 | 2026-08-30 12:51:12 | 53.08206 | 11.04342 | 65° | 58km/h | 14248m | -10.7m/s | -51.1°C | 3.6% | 142.6hPa | 2.7V | 02:56:20 | 02:53:58 | 00:00:00 | |
| DF8AY-15 | 2026-08-30 12:51:12 | 53.08234 | 11.04451 | 68° | 64km/h | 14195m | -10.6m/s | -50.8°C | 3.5% | 143.8hPa | 2.7V | 00:00:00 | 02:54:03 | 00:00:00 | |
| DO2LYB-13 | 2026-08-30 12:51:11 | 53.08234 | 11.04451 | 68° | 55km/h | 14195m | -10.6m/s | -50.8°C | 1.3% | 143.8hPa | 2.7V | 00:00:00 | 00:00:00 | 00:00:00 | |
| DB0DAN | 2026-08-30 12:51:10 | 53.08224 | 11.04408 | 67° | 53km/h | 14216m | -10.6m/s | -50.9°C | 1.3% | 143.35hPa | 2.7V | 00:00:00 | 00:00:00 | 00:00:00 | |
| AA1-15 | 2026-08-30 12:51:09 | 53.08218 | 11.04387 | 66° | 57km/h | 14227m | -10.7m/s | -51°C | 0.4% | 143.1hPa | 2.7V | 02:56:54 | 02:54:00 | 00:00:00 | |
| DL1XH-west | 2026-08-30 12:51:07 | 53.08206 | 11.04342 | 66° | 58km/h | 14248m | -10.7m/s | -51.1°C | 0.4% | 142.6hPa | 2.7V | 02:56:54 | 02:53:58 | 00:00:00 | |
| DL1XH-15 | 2026-08-30 12:51:07 | 53.08199 | 11.04319 | 64° | 60km/h | 14259m | -10.6m/s | -51.1°C | 3.7% | 142.4hPa | 2.6V | 02:56:21 | 02:53:57 | 00:00:00 | |
| BIOWL1-15 | 2026-08-30 12:51:05 | 53.08193 | 11.04296 | 63° | 62km/h | 14269m | -10.5m/s | -51.1°C | 0.5% | 142.1hPa | 2.6V | 02:56:54 | 02:53:56 | 00:00:00 | |
| DF8AY | 2026-08-30 12:51:03 | 53.08179 | 11.04250 | 63° | 62km/h | 14290m | -10.7m/s | -51.1°C | 0.5% | 141.7hPa | 2.7V | 02:56:54 | 02:53:54 | 00:00:00 | |
| AA1-15 | 2026-08-30 12:50:59 | 53.08148 | 11.04153 | 62° | 68km/h | 14333m | -10.8m/s | -51.2°C | 0.6% | 140.8hPa | 2.6V | 02:56:54 | 02:53:50 | 00:00:00 | |
| DL1XH-15 | 2026-08-30 12:50:59 | 53.08124 | 11.04076 | 62° | 71km/h | 14365m | -10.6m/s | -51.2°C | 3.8% | 140.1hPa | 2.7V | 02:56:31 | 02:53:47 | 00:00:00 | |
| DL1XH1-15 | 2026-08-30 12:50:58 | 53.08132 | 11.04103 | 62° | 69km/h | 14354m | -10.5m/s | -51.2°C | 3.7% | 140.3hPa | 2.7V | 02:56:30 | 02:53:48 | 00:00:00 | |
| DL1XH-west | 2026-08-30 12:50:57 | 53.08124 | 11.04077 | 63° | 71km/h | 14365m | -10.6m/s | -51.2°C | 0.6% | 140.1hPa | 2.7V | 02:56:54 | 02:53:47 | 00:00:00 | |
| DF7ER-10 | 2026-08-30 12:50:57 | 53.08132 | 11.04103 | 63° | 69km/h | 14354m | -10.5m/s | -51.2°C | 1.4% | 140.3hPa | 2.6V | 02:56:00 | 00:00:00 | 00:00:00 | |
| DB0DAN | 2026-08-30 12:50:55 | 53.08115 | 11.04050 | 63° | 69km/h | 14376m | -11m/s | -51.2°C | 1.4% | 139.84hPa | 2.6V | 00:00:00 | 00:00:00 | 00:00:00 | |
| BIOWL1-15 | 2026-08-30 12:50:54 | 53.08092 | 11.03967 | 65° | 73km/h | 14408m | -11.1m/s | -51.3°C | 0.6% | 139.2hPa | 2.7V | 02:56:54 | 02:53:43 | 00:00:00 | |
| DF8AY | 2026-08-30 12:50:53 | 53.08099 | 11.03995 | 65° | 73km/h | 14397m | -10.7m/s | -51.2°C | 0.6% | 139.4hPa | 2.6V | 02:56:54 | 02:53:44 | 00:00:00 | |
| DL1XH1-15 | 2026-08-30 12:50:52 | 53.08054 | 11.03828 | 65° | 73km/h | 14462m | -11.2m/s | -51.1°C | 3.8% | 138hPa | 2.6V | 02:56:40 | 02:53:38 | 00:00:00 | |
| AA1-15 | 2026-08-30 12:50:48 | 53.08062 | 11.03856 | 66° | 71km/h | 14451m | -11.1m/s | -51.1°C | 0.7% | 138.2hPa | 2.6V | 02:56:54 | 02:53:39 | 00:00:00 | |
| BIOWL9-15 | 2026-08-30 12:50:48 | 53.08055 | 11.03828 | 65° | 71km/h | 14462m | -11.2m/s | -51.1°C | 1.4% | 138.0hPa | 2.6V | 00:00:00 | 00:00:00 | 00:00:00 | |
| DL1XH-15 | 2026-08-30 12:50:47 | 53.08047 | 11.03800 | 66° | 73km/h | 14473m | -10.8m/s | -51.2°C | 3.8% | 137.8hPa | 2.6V | 02:56:41 | 02:53:37 | 00:00:00 | |
| DL1XH-west | 2026-08-30 12:50:47 | 53.08055 | 11.03828 | 66° | 73km/h | 14462m | -11.2m/s | -51.1°C | 0.7% | 138hPa | 2.6V | 02:56:54 | 02:53:38 | 00:00:00 | |
| SMARD9-15 | 2026-08-30 12:50:47 | 53.08047 | 11.03800 | 66° | 71km/h | 14473m | -10.8m/s | -51.2°C | 1.4% | 137.8hPa | 2.7V | 00:00:00 | 00:00:00 | 00:00:00 | |
| DF8AY | 2026-08-30 12:50:42 | 53.08016 | 11.03687 | 65° | 75km/h | 14516m | -10.9m/s | -51.3°C | 0.7% | 136.9hPa | 2.7V | 02:56:54 | 02:53:33 | 00:00:00 | |
| DL1XH-15 | 2026-08-30 12:50:41 | 53.07973 | 11.03517 | 69° | 69km/h | 14582m | -10.9m/s | -51.4°C | 3.8% | 135.5hPa | 2.7V | 02:56:51 | 02:53:27 | 00:00:00 | |
| DB0DAN | 2026-08-30 12:50:40 | 53.08000 | 11.03630 | 66° | 71km/h | 14538m | -11m/s | -51.3°C | 1.4% | 136.41hPa | 2.6V | 00:00:00 | 00:00:00 | 00:00:00 | |
| DO2SHX-10 | 2026-08-30 12:50:40 | 53.08000 | 11.03630 | 67° | 73km/h | 14538m | -10.9m/s | -51.3°C | 3.7% | 136.4hPa | 2.7V | 00:00:00 | 02:53:31 | 00:00:00 | |
| DG6HD-15 | 2026-08-30 12:50:39 | 53.07993 | 11.03601 | 68° | 73km/h | 14549m | -11.0m/s | -51.4°C | 1.4% | 136.2hPa | 2.7V | 02:56:00 | 00:00:00 | 00:00:00 | |
| DL1XH1-15 | 2026-08-30 12:50:38 | 53.07979 | 11.03544 | 68° | 71km/h | 14571m | -10.8m/s | -51.4°C | 3.8% | 135.7hPa | 2.7V | 02:56:50 | 02:53:28 | 00:00:00 | |
| DL1XH-west | 2026-08-30 12:50:37 | 53.07979 | 11.03544 | 68° | 71km/h | 14571m | -10.8m/s | -51.4°C | 0.8% | 135.7hPa | 2.7V | 02:56:54 | 02:53:28 | 00:00:00 | |
| DF8AY | 2026-08-30 12:50:32 | 53.07950 | 11.03407 | 73° | 68km/h | 14625m | -10.9m/s | -51.7°C | 0.8% | 134.6hPa | 2.7V | 02:57:45 | 02:53:23 | 00:00:00 | |
| BIOWL1-15 | 2026-08-30 12:50:31 | 53.07935 | 11.03326 | 75° | 68km/h | 14658m | -11m/s | -51.7°C | 0.9% | 133.9hPa | 2.6V | 02:57:45 | 02:53:20 | 00:00:00 | |
| DO2SHX-10 | 2026-08-30 12:50:31 | 53.07945 | 11.03380 | 73° | 68km/h | 14636m | -10.9m/s | -51.8°C | 4.0% | 134.3hPa | 2.7V | 00:00:00 | 02:53:22 | 00:00:00 | |
| DK1YY | 2026-08-30 12:50:30 | 53.07935 | 11.03326 | 74° | 66km/h | 14658m | -11.0m/s | 0°C | -1.0% | -1.0hPa | 2.7V | 00:00:00 | 00:00:00 | 00:00:00 | |
| DL1XH-15 | 2026-08-30 12:50:29 | 53.07923 | 11.03245 | 76° | 66km/h | 14691m | -11m/s | -51.7°C | 4.1% | 133.2hPa | 2.7V | 02:57:01 | 02:53:17 | 00:00:00 | |
| AA1-15 | 2026-08-30 12:50:26 | 53.07923 | 11.03245 | 77° | 66km/h | 14691m | -11m/s | -51.7°C | 1.1% | 133.2hPa | 2.7V | 02:57:45 | 02:53:17 | 00:00:00 | |
| DF8AY | 2026-08-30 12:50:22 | 53.07910 | 11.03140 | 80° | 64km/h | 14735m | -11.1m/s | -51.7°C | 1% | 132.4hPa | 2.6V | 02:57:45 | 02:53:13 | 00:00:00 | |
| BIOWL1-15 | 2026-08-30 12:50:21 | 53.07902 | 11.03063 | 82° | 60km/h | 14767m | -10.8m/s | -51.9°C | 1% | 131.7hPa | 2.7V | 02:57:45 | 02:53:10 | 00:00:00 | |
| GOEST3-10 | 2026-08-30 12:50:21 | 53.07907 | 11.03114 | 81° | 60km/h | 14745m | -11.0m/s | -51.8°C | 4.1% | 132.1hPa | 2.6V | 02:57:00 | 00:00:00 | 00:00:00 | |
| DL1XH-15 | 2026-08-30 12:50:19 | 53.07896 | 11.02990 | 81° | 57km/h | 14800m | -10.8m/s | -52.1°C | 4.2% | 131hPa | 2.6V | 02:57:11 | 02:53:07 | 00:00:00 | |
| DO2LYB-13 | 2026-08-30 12:50:19 | 53.07902 | 11.03063 | 83° | 60km/h | 14768m | -10.8m/s | -51.9°C | 1.6% | 131.7hPa | 2.7V | 00:00:00 | 00:00:00 | 00:00:00 | |
| DL1XH1-15 | 2026-08-30 12:50:18 | 53.07898 | 11.03014 | 81° | 58km/h | 14789m | -10.8m/s | -52.1°C | 4.2% | 131.2hPa | 2.7V | 02:57:10 | 02:53:08 | 00:00:00 | |
| DL1XH-west | 2026-08-30 12:50:16 | 53.07896 | 11.02990 | 82° | 57km/h | 14800m | -10.8m/s | -52.2°C | 1.2% | 131hPa | 2.6V | 02:57:45 | 02:53:07 | 00:00:00 | |
| DO2SHX-10 | 2026-08-30 12:50:16 | 53.07896 | 11.02990 | 82° | 55km/h | 14800m | -10.7m/s | -52.1°C | 4.2% | 131.0hPa | 2.6V | 02:57:00 | 02:53:07 | 00:00:00 | |
| DG6HD-15 | 2026-08-30 12:50:15 | 53.07896 | 11.02990 | 83° | 57km/h | 14800m | -10.8m/s | -52.2°C | 1.7% | 131.0hPa | 2.7V | 02:57:00 | 00:00:00 | 00:00:00 | |
| AA1-15 | 2026-08-30 12:50:15 | 53.07894 | 11.02966 | 82° | 57km/h | 14811m | -10.9m/s | -52.2°C | 1.2% | 130.8hPa | 2.6V | 02:57:45 | 02:53:06 | 00:00:00 | |
| DF7ER-10 | 2026-08-30 12:50:13 | 53.07892 | 11.02943 | 84° | 55km/h | 14822m | -10.9m/s | -52.2°C | 1.7% | 130.6hPa | 2.7V | 02:57:00 | 00:00:00 | 00:00:00 | |
| DL1XH1-15 | 2026-08-30 12:50:12 | 53.07884 | 11.02794 | 86° | 49km/h | 14898m | -11.1m/s | -52.1°C | 4.2% | 129hPa | 2.7V | 02:57:20 | 02:52:58 | 00:00:00 | |
| DF8AY | 2026-08-30 12:50:11 | 53.07888 | 11.02877 | 84° | 51km/h | 14854m | -11.1m/s | -52.2°C | 1.1% | 129.9hPa | 2.7V | 02:57:45 | 02:53:02 | 00:00:00 | |
| BIOWL1-15 | 2026-08-30 12:50:11 | 53.07885 | 11.02815 | 86° | 49km/h | 14887m | -10.9m/s | -52.1°C | 1.1% | 129.3hPa | 2.7V | 02:57:45 | 02:52:59 | 00:00:00 | |
| DB0DAN | 2026-08-30 12:50:10 | 53.07887 | 11.02856 | 85° | 47km/h | 14865m | -11.1m/s | -52.2°C | 1.7% | 129.7hPa | 2.6V | 00:00:00 | 00:00:00 | 00:00:00 | |
| DL1XH-west | 2026-08-30 12:50:06 | 53.07883 | 11.02774 | 87° | 47km/h | 14910m | -11m/s | -52.2°C | 1.1% | 128.8hPa | 2.7V | 02:57:45 | 02:52:57 | 00:00:00 | |
| AA1-15 | 2026-08-30 12:50:05 | 53.07883 | 11.02754 | 87° | 47km/h | 14921m | -11.1m/s | -52.3°C | 1.1% | 128.7hPa | 2.6V | 02:57:45 | 02:52:56 | 00:00:00 | |
| DF8AY | 2026-08-30 12:50:00 | 53.07872 | 11.02510 | 75° | 33km/h | 15087m | -11.5m/s | -51.8°C | 0.7% | 125.3hPa | 2.6V | 02:57:45 | 02:52:41 | 00:00:00 | |
| AM1SDL-15 | 2026-08-30 12:50:00 | 53.07881 | 11.02664 | 90° | 37km/h | 14976m | -10.7m/s | -51.7°C | 3.9% | 127.5hPa | 2.6V | 00:00:00 | 02:52:51 | 00:00:00 | |
| DL1XH-15 | 2026-08-30 12:49:59 | 53.07879 | 11.02598 | 86° | 38km/h | 15020m | -11.3m/s | -51.9°C | 3.9% | 126.7hPa | 2.6V | 02:57:31 | 02:52:47 | 00:00:00 | |
| DL1XH1-15 | 2026-08-30 12:49:58 | 53.07880 | 11.02614 | 87° | 38km/h | 15008m | -11.1m/s | -51.9°C | 3.9% | 126.9hPa | 2.6V | 02:57:30 | 02:52:48 | 00:00:00 | |
| BIOWL1-15 | 2026-08-30 12:49:58 | 53.07880 | 11.02614 | 87° | 38km/h | 15008m | -11.1m/s | -51.9°C | 0.9% | 126.9hPa | 2.6V | 02:57:45 | 02:52:48 | 00:00:00 | |
| DM0DOS-11 | 2026-08-30 12:49:57 | 53.07878 | 11.02567 | 84° | 37km/h | 15042m | -11.1m/s | -51.8°C | 3.8% | 126.2hPa | 2.7V | 02:57:33 | 02:52:45 | 00:00:00 | |
| DL1XH-west | 2026-08-30 12:49:55 | 53.07879 | 11.02582 | 87° | 37km/h | 15031m | -11.2m/s | -51.8°C | 0.8% | 126.5hPa | 2.7V | 02:57:45 | 02:52:46 | 00:00:00 | |
| DB0DAN | 2026-08-30 12:49:55 | 53.07879 | 11.02582 | 87° | 35km/h | 15031m | -11.2m/s | -51.8°C | 1.5% | 126.48hPa | 2.7V | 00:00:00 | 00:00:00 | 00:00:00 | |
| AA1-15 | 2026-08-30 12:49:55 | 53.07878 | 11.02567 | 85° | 37km/h | 15042m | -11.1m/s | -51.8°C | 0.8% | 126.2hPa | 2.7V | 02:57:45 | 02:52:45 | 00:00:00 | |
| DB0UT-7 | 2026-08-30 12:49:54 | 53.07878 | 11.02567 | 85° | 38km/h | 15042m | -11.0m/s | -51.7°C | 3.8% | 126.2hPa | 2.7V | 00:00:00 | 00:00:00 | 00:00:00 | |
| DL1XH1-15 | 2026-08-30 12:49:52 | 53.07865 | 11.02470 | 69° | 33km/h | 15121m | -11.5m/s | -52.1°C | 3.8% | 124.7hPa | 2.7V | 02:57:40 | 02:52:38 | 00:00:00 | |
| S3001 | 2026-08-30 12:49:49 | 53.07868 | 11.02483 | 71° | 33km/h | 15110m | -11.3m/s | -52.0°C | 1.4% | 124.9hPa | 2.7V | 00:00:00 | 00:00:00 | 00:00:00 | |
| BUE01 | 2026-08-30 12:49:48 | 53.07865 | 11.02470 | 69° | 33km/h | 15121m | -11.5m/s | -52.1°C | 1.4% | 124.7hPa | 2.7V | 00:00:00 | 00:00:00 | 00:00:00 | |
| DL1XH-15 | 2026-08-30 12:49:47 | 53.07862 | 11.02457 | 68° | 33km/h | 15133m | -11.3m/s | -52.2°C | 3.8% | 124.5hPa | 2.7V | 02:57:41 | 02:52:37 | 00:00:00 | |
| DM0DOS-11 | 2026-08-30 12:49:47 | 53.07855 | 11.02431 | 66° | 33km/h | 15156m | -11.6m/s | -52.2°C | 3.8% | 124.1hPa | 2.6V | 02:57:43 | 02:52:35 | 00:00:00 | |
| BIOWL1-15 | 2026-08-30 12:49:46 | 53.07862 | 11.02457 | 68° | 33km/h | 15133m | -11.3m/s | -52.2°C | 0.6% | 124.5hPa | 2.7V | 02:57:45 | 02:52:37 | 00:00:00 | |
| DF8AY | 2026-08-30 12:49:45 | 53.07858 | 11.02444 | 68° | 35km/h | 15144m | -11.2m/s | -52.2°C | 0.7% | 124.2hPa | 2.7V | 02:57:45 | 02:52:36 | 00:00:00 | |
| DL1XH-west | 2026-08-30 12:49:44 | 53.07855 | 11.02431 | 66° | 33km/h | 15156m | -11.6m/s | -52.2°C | 0.6% | 124.1hPa | 2.6V | 02:57:45 | 02:52:35 | 00:00:00 | |
| AA1-15 | 2026-08-30 12:49:43 | 53.07852 | 11.02418 | 66° | 35km/h | 15167m | -11.3m/s | -52.4°C | 0.6% | 123.8hPa | 2.6V | 02:57:45 | 02:52:34 | 00:00:00 | |
| DO2SHX-10 | 2026-08-30 12:49:43 | 53.07852 | 11.02418 | 67° | 35km/h | 15167m | -11.2m/s | -52.3°C | 3.8% | 123.8hPa | 2.7V | 00:00:00 | 02:52:34 | 00:00:00 | |
| DF7ER-10 | 2026-08-30 12:49:42 | 53.07848 | 11.02404 | 68° | 35km/h | 15179m | -11.6m/s | -52.4°C | 1.4% | 123.6hPa | 2.7V | 02:57:00 | 00:00:00 | 00:00:00 | |
| DL1XH-15 | 2026-08-30 12:49:41 | 53.07824 | 11.02326 | 55° | 37km/h | 15247m | -11.3m/s | -53°C | 4.1% | 122.3hPa | 2.7V | 02:57:51 | 02:52:27 | 00:00:00 | |
| DB0DAN | 2026-08-30 12:49:40 | 53.07841 | 11.02378 | 66° | 33km/h | 15202m | -11.6m/s | -52.6°C | 1.4% | 123.16hPa | 2.7V | 00:00:00 | 00:00:00 | 00:00:00 | |
| DO2SHX-10 | 2026-08-30 12:49:40 | 53.07841 | 11.02378 | 66° | 35km/h | 15202m | -11.5m/s | -52.6°C | 4.0% | 123.1hPa | 2.7V | 02:57:00 | 02:52:31 | 00:00:00 | |
| DD8BA-10 | 2026-08-30 12:49:38 | 53.07833 | 11.02351 | 62° | 38km/h | 15224m | -11.2m/s | -52.8°C | 4.0% | 122.7hPa | 2.6V | 02:57:00 | 00:00:00 | 00:00:00 | |
| BIOWL1-15 | 2026-08-30 12:49:38 | 53.07824 | 11.02326 | 56° | 37km/h | 15247m | -11.3m/s | -53°C | 0.7% | 122.3hPa | 2.7V | 02:58:36 | 02:52:27 | 00:00:00 | |
| DM0DOS-11 | 2026-08-30 12:49:37 | 53.07813 | 11.02302 | 48° | 37km/h | 15269m | -11m/s | -53.1°C | 4.1% | 121.9hPa | 2.7V | 02:57:53 | 02:52:25 | 00:00:00 | |
| DF8AY | 2026-08-30 12:49:34 | 53.07813 | 11.02302 | 48° | 37km/h | 15269m | -11m/s | -53.1°C | 0.7% | 121.9hPa | 2.7V | 02:58:36 | 02:52:25 | 00:00:00 | |
| DL1XH-west | 2026-08-30 12:49:33 | 53.07806 | 11.02290 | 46° | 38km/h | 15280m | -11.1m/s | -53.3°C | 0.7% | 121.6hPa | 2.6V | 02:58:36 | 02:52:24 | 00:00:00 | |
| AA1-15 | 2026-08-30 12:49:33 | 53.07799 | 11.02278 | 44° | 40km/h | 15291m | -10.9m/s | -53.4°C | 0.6% | 121.5hPa | 2.6V | 02:58:36 | 02:52:23 | 00:00:00 | |
| DL1XH1-15 | 2026-08-30 12:49:32 | 53.07758 | 11.02215 | 46° | 47km/h | 15347m | -11.2m/s | -53.8°C | 4.1% | 120.3hPa | 2.7V | 02:58:00 | 02:52:18 | 00:00:00 | |
| DF8AY-15 | 2026-08-30 12:49:32 | 53.07799 | 11.02278 | 45° | 47km/h | 15292m | -10.8m/s | -53.4°C | 4.0% | 121.4hPa | 2.6V | 02:57:00 | 02:52:23 | 00:00:00 | |
| TFSTFS | 2026-08-30 12:49:31 | 53.07792 | 11.02266 | 44° | 42km/h | 15302m | -11.3m/s | -53.4°C | 1.4% | 121.3hPa | 2.6V | 02:58:00 | 00:00:00 | 00:00:00 | |
| DF7ER-10 | 2026-08-30 12:49:30 | 53.07792 | 11.02266 | 44° | 42km/h | 15302m | -11.3m/s | -53.4°C | 1.4% | 121.3hPa | 2.6V | 02:58:00 | 00:00:00 | 00:00:00 | |
| DO9LL-15 | 2026-08-30 12:49:28 | 53.07767 | 11.02229 | 45° | 53km/h | 15336m | -11.3m/s | -53.7°C | 4.1% | 120.5hPa | 2.6V | 00:00:00 | 02:52:19 | 00:00:00 | |
| DM0DOS-11 | 2026-08-30 12:49:27 | 53.07735 | 11.02168 | 52° | 49km/h | 15381m | -11.4m/s | -53.8°C | 4.1% | 119.8hPa | 2.6V | 02:58:03 | 02:52:15 | 00:00:00 | |
| BIOWL1-15 | 2026-08-30 12:49:25 | 53.07742 | 11.02184 | 51° | 49km/h | 15370m | -11.5m/s | -53.8°C | 0.6% | 120hPa | 2.6V | 02:58:36 | 02:52:16 | 00:00:00 | |
| DB0DAN | 2026-08-30 12:49:25 | 53.07742 | 11.02184 | 51° | 46km/h | 15370m | -11.5m/s | -53.8°C | 1.4% | 119.98hPa | 2.6V | 00:00:00 | 00:00:00 | 00:00:00 | |
| DF8AY | 2026-08-30 12:49:24 | 53.07735 | 11.02168 | 53° | 49km/h | 15381m | -11.4m/s | -53.8°C | 0.6% | 119.8hPa | 2.6V | 02:58:36 | 02:52:15 | 00:00:00 | |
| DL1XH-west | 2026-08-30 12:49:23 | 53.07720 | 11.02135 | 57° | 49km/h | 15404m | -11.3m/s | -53.8°C | 0.6% | 119.4hPa | 2.7V | 02:58:36 | 02:52:13 | 00:00:00 | |
| AA1-15 | 2026-08-30 12:49:22 | 53.07713 | 11.02117 | 58° | 51km/h | 15415m | -11.3m/s | -53.8°C | 0.5% | 119.1hPa | 2.7V | 02:58:36 | 02:52:12 | 00:00:00 | |
| DO2SHX-10 | 2026-08-30 12:49:22 | 53.07720 | 11.02134 | 57° | 49km/h | 15404m | -11.2m/s | -53.8°C | 4.1% | 119.3hPa | 2.7V | 02:58:00 | 02:52:13 | 00:00:00 | |
| TFSTFS | 2026-08-30 12:49:21 | 53.07713 | 11.02117 | 59° | 51km/h | 15415m | -11.3m/s | -53.8°C | 1.3% | 119.1hPa | 2.6V | 00:00:00 | 00:00:00 | 00:00:00 | |
| DO2SHX-10 | 2026-08-30 12:49:19 | 53.07701 | 11.02080 | 61° | 49km/h | 15438m | -11.4m/s | -53.4°C | 4.0% | 118.6hPa | 2.6V | 00:00:00 | 02:52:10 | 00:00:00 | |
| DL1XH1-15 | 2026-08-30 12:49:18 | 53.07689 | 11.02044 | 60° | 49km/h | 15461m | -11.5m/s | -53.1°C | 3.9% | 118.3hPa | 2.6V | 02:58:10 | 02:52:08 | 00:00:00 | |
| DD8BA-10 | 2026-08-30 12:49:18 | 53.07695 | 11.02062 | 62° | 53km/h | 15449m | -11.5m/s | -53.2°C | 4.0% | 118.5hPa | 2.7V | 00:00:00 | 00:00:00 | 00:00:00 | |
| DM0DOS-11 | 2026-08-30 12:49:17 | 53.07669 | 11.01990 | 57° | 51km/h | 15495m | -11.5m/s | -53°C | 4% | 117.7hPa | 2.7V | 02:58:13 | 02:52:05 | 00:00:00 | |
| DF8AY | 2026-08-30 12:49:14 | 53.07669 | 11.01990 | 58° | 51km/h | 15495m | -11.5m/s | -53°C | 0.5% | 117.7hPa | 2.7V | 02:58:36 | 02:52:05 | 00:00:00 | |
| SMARD9-15 | 2026-08-30 12:49:14 | 53.07662 | 11.01972 | 56° | 51km/h | 15507m | -11.6m/s | -53.0°C | 1.3% | 117.5hPa | 2.6V | 00:00:00 | 00:00:00 | 00:00:00 | |
| DO2SHX-10 | 2026-08-30 12:49:13 | 53.07662 | 11.01972 | 57° | 53km/h | 15507m | -11.6m/s | -52.9°C | 3.9% | 117.4hPa | 2.6V | 02:58:00 | 02:52:04 | 00:00:00 | |
| DL1XH1-15 | 2026-08-30 12:49:12 | 53.07615 | 11.01857 | 55° | 58km/h | 15576m | -11.8m/s | -52.5°C | 3.7% | 116.2hPa | 2.6V | 02:58:20 | 02:51:58 | 00:00:00 | |
| DL1XH-west | 2026-08-30 12:49:12 | 53.07655 | 11.01953 | 56° | 53km/h | 15518m | -11.7m/s | -52.9°C | 0.5% | 117.2hPa | 2.6V | 02:58:36 | 02:52:03 | 00:00:00 | |
| AA1-15 | 2026-08-30 12:49:10 | 53.07639 | 11.01916 | 55° | 57km/h | 15541m | -11.7m/s | -52.7°C | 0.4% | 116.8hPa | 2.7V | 02:58:36 | 02:52:01 | 00:00:00 | |
| DB0DAN | 2026-08-30 12:49:10 | 53.07639 | 11.01916 | 55° | 53km/h | 15541m | -11.7m/s | -52.7°C | 1.2% | 116.82hPa | 2.7V | 00:00:00 | 00:00:00 | 00:00:00 | |
| DD8BA-10 | 2026-08-30 12:49:08 | 53.07623 | 11.01877 | 55° | 57km/h | 15565m | -11.7m/s | -52.5°C | 3.8% | 116.4hPa | 2.6V | 02:58:00 | 00:00:00 | 00:00:00 | |
| DM0DOS-11 | 2026-08-30 12:49:07 | 53.07590 | 11.01796 | 59° | 57km/h | 15611m | -11.5m/s | -52.5°C | 3.8% | 115.5hPa | 2.7V | 02:58:23 | 02:51:55 | 00:00:00 | |
| DF8AY | 2026-08-30 12:49:03 | 53.07583 | 11.01776 | 60° | 57km/h | 15623m | -11.7m/s | -52.5°C | 0.3% | 115.4hPa | 2.6V | 02:58:36 | 02:51:54 | 00:00:00 | |
| DL1XH-west | 2026-08-30 12:49:02 | 53.07576 | 11.01755 | 61° | 57km/h | 15635m | -11.7m/s | -52.6°C | 0.4% | 115.2hPa | 2.6V | 02:58:36 | 02:51:53 | 00:00:00 | |
| AA1-15 | 2026-08-30 12:49:00 | 53.07563 | 11.01714 | 62° | 55km/h | 15658m | -11.9m/s | -52.5°C | 0.3% | 114.7hPa | 2.7V | 02:58:36 | 02:51:51 | 00:00:00 | |
| BIOWL1-15 | 2026-08-30 12:48:59 | 53.07533 | 11.01611 | 65° | 57km/h | 15717m | -11.8m/s | -51.8°C | 0.2% | 113.7hPa | 2.6V | 02:58:36 | 02:51:46 | 00:00:00 | |
| DL1XH1-15 | 2026-08-30 12:48:58 | 53.07545 | 11.01653 | 64° | 55km/h | 15694m | -11.8m/s | -51.9°C | 3.6% | 114.1hPa | 2.7V | 02:58:30 | 02:51:48 | 00:00:00 | |
| DO2JMG | 2026-08-30 12:48:57 | 53.07545 | 11.01653 | 65° | 55km/h | 15694m | -11.8m/s | 0°C | 0% | 0hPa | 2.7V | 18:12:15 | 02:51:48 | 00:00:00 | |
| DB0DAN | 2026-08-30 12:48:55 | 53.07533 | 11.01611 | 65° | 53km/h | 15717m | -11.8m/s | -51.8°C | 1.1% | 113.71hPa | 2.6V | 00:00:00 | 00:00:00 | 00:00:00 | |
| DF8AY | 2026-08-30 12:48:53 | 53.07521 | 11.01568 | 65° | 57km/h | 15741m | -11.9m/s | -51.9°C | 0.1% | 113.3hPa | 2.7V | 02:58:36 | 02:51:44 | 00:00:00 | |
| DL1XH-west | 2026-08-30 12:48:51 | 53.07503 | 11.01501 | 67° | 58km/h | 15777m | -11.9m/s | -52.2°C | 0.3% | 112.7hPa | 2.7V | 02:59:27 | 02:51:41 | 00:00:00 | |
| AA1-15 | 2026-08-30 12:48:49 | 53.07497 | 11.01478 | 68° | 60km/h | 15789m | -11.9m/s | -52.2°C | 0.2% | 112.4hPa | 2.6V | 02:59:27 | 02:51:40 | 00:00:00 | |
| DO2SHX-10 | 2026-08-30 12:48:49 | 53.07497 | 11.01478 | 69° | 60km/h | 15789m | -11.8m/s | -52.1°C | 3.6% | 112.4hPa | 2.7V | 00:00:00 | 02:51:40 | 00:00:00 | |
| AM1SDL-15 | 2026-08-30 12:48:48 | 53.07492 | 11.01454 | 70° | 58km/h | 15801m | -11.9m/s | -52.1°C | 3.6% | 112.2hPa | 2.7V | 00:00:00 | 02:51:39 | 00:00:00 | |
| DM0DOS-11 | 2026-08-30 12:48:47 | 53.07473 | 11.01358 | 75° | 60km/h | 15849m | -12.1m/s | -52.3°C | 3.7% | 111.3hPa | 2.7V | 02:58:43 | 02:51:35 | 00:00:00 | |
| BIOWL1-15 | 2026-08-30 12:48:45 | 53.07477 | 11.01382 | 74° | 60km/h | 15836m | -12.1m/s | -52.3°C | 0.2% | 111.6hPa | 2.7V | 02:59:27 | 02:51:36 | 00:00:00 | |
| DF8AY | 2026-08-30 12:48:42 | 53.07467 | 11.01310 | 78° | 58km/h | 15873m | -12.1m/s | -52.4°C | 0.2% | 111hPa | 2.6V | 02:59:27 | 02:51:33 | 00:00:00 | |
| DL1XH-west | 2026-08-30 12:48:40 | 53.07461 | 11.01263 | 79° | 55km/h | 15897m | -12.3m/s | -52.4°C | 0.2% | 110.5hPa | 2.6V | 02:59:27 | 02:51:31 | 00:00:00 | |
| DB0DAN | 2026-08-30 12:48:40 | 53.07461 | 11.01263 | 79° | 53km/h | 15897m | -12.3m/s | -52.4°C | 1.1% | 110.54hPa | 2.6V | 00:00:00 | 00:00:00 | 00:00:00 | |
| AA1-15 | 2026-08-30 12:48:38 | 53.07456 | 11.01219 | 80° | 53km/h | 15922m | -12m/s | -52.4°C | 0.2% | 110.2hPa | 2.7V | 02:59:27 | 02:51:29 | 00:00:00 | |
| DD8BA-10 | 2026-08-30 12:48:38 | 53.07456 | 11.01219 | 81° | 49km/h | 15922m | -11.9m/s | -52.3°C | 3.7% | 110.1hPa | 2.7V | 02:58:00 | 00:00:00 | 00:00:00 | |
| DM0DOS-11 | 2026-08-30 12:48:37 | 53.07447 | 11.01136 | 77° | 49km/h | 15970m | -12.3m/s | -51.9°C | 3.5% | 109.3hPa | 2.6V | 02:58:53 | 02:51:25 | 00:00:00 | |
| BIOWL1-15 | 2026-08-30 12:48:35 | 53.07449 | 11.01156 | 78° | 49km/h | 15958m | -12.2m/s | -52.1°C | 0.1% | 109.5hPa | 2.6V | 02:59:27 | 02:51:26 | 00:00:00 | |
| DF8AY | 2026-08-30 12:48:31 | 53.07437 | 11.01076 | 72° | 49km/h | 16007m | -12.2m/s | -51.8°C | 0% | 108.7hPa | 2.7V | 02:59:27 | 02:51:22 | 00:00:00 | |
| DL1XH-west | 2026-08-30 12:48:30 | 53.07433 | 11.01057 | 71° | 49km/h | 16019m | -12.4m/s | -51.9°C | 0% | 108.5hPa | 2.7V | 02:59:27 | 02:51:21 | 00:00:00 | |
| AA1-15 | 2026-08-30 12:48:27 | 53.07421 | 11.01000 | 70° | 47km/h | 16056m | -12.6m/s | -52°C | 0% | 107.9hPa | 2.6V | 02:59:27 | 02:51:18 | 00:00:00 | |
| DB0DAN | 2026-08-30 12:48:25 | 53.07413 | 11.00963 | 70° | 46km/h | 16080m | -12.4m/s | -52.1°C | 1% | 107.48hPa | 2.7V | 00:00:00 | 00:00:00 | 00:00:00 | |
| DM0DOS-11 | 2026-08-30 12:48:25 | 53.07409 | 11.00944 | 69° | 47km/h | 16093m | -12.3m/s | -52.2°C | 3.4% | 107.2hPa | 2.7V | 02:59:03 | 02:51:15 | 00:00:00 | |
| BIOWL1-15 | 2026-08-30 12:48:25 | 53.07409 | 11.00944 | 70° | 47km/h | 16093m | -12.3m/s | -52.2°C | 0% | 107.2hPa | 2.7V | 02:59:27 | 02:51:15 | 00:00:00 | |
| DF8AY | 2026-08-30 12:48:21 | 53.07397 | 11.00890 | 70° | 46km/h | 16129m | -12.4m/s | -52.1°C | 0% | 106.7hPa | 2.6V | 02:59:27 | 02:51:12 | 00:00:00 | |
| DL1XH-west | 2026-08-30 12:48:20 | 53.07393 | 11.00873 | 70° | 44km/h | 16142m | -12.4m/s | -52.2°C | 0.1% | 106.4hPa | 2.6V | 02:59:27 | 02:51:11 | 00:00:00 | |
| AA1-15 | 2026-08-30 12:48:16 | 53.07377 | 11.00807 | 64° | 42km/h | 16191m | -12.4m/s | -52.6°C | 0.2% | 105.7hPa | 2.7V | 02:59:27 | 02:51:07 | 00:00:00 | |
| BIOWL1-15 | 2026-08-30 12:48:13 | 53.07339 | 11.00688 | 63° | 49km/h | 16279m | -12.4m/s | -53.2°C | 0.3% | 104.2hPa | 2.7V | 02:59:27 | 02:51:00 | 00:00:00 | |
| DO2SHX-10 | 2026-08-30 12:48:13 | 53.07361 | 11.00758 | 62° | 47km/h | 16229m | -12.3m/s | -52.9°C | 3.8% | 105.0hPa | 2.6V | 00:00:00 | 02:51:04 | 00:00:00 | |
| DL1XH1-15 | 2026-08-30 12:48:12 | 53.07328 | 11.00650 | 64° | 51km/h | 16304m | -12.7m/s | -53°C | 4% | 103.8hPa | 2.6V | 02:59:20 | 02:50:58 | 00:00:00 | |
| DF8AY | 2026-08-30 12:48:11 | 53.07350 | 11.00724 | 62° | 47km/h | 16253m | -12.7m/s | -53.1°C | 0.3% | 104.6hPa | 2.7V | 02:59:27 | 02:51:02 | 00:00:00 | |
| DB0DAN | 2026-08-30 12:48:10 | 53.07344 | 11.00706 | 63° | 47km/h | 16266m | -12.7m/s | -53.2°C | 1.1% | 104.41hPa | 2.7V | 00:00:00 | 00:00:00 | 00:00:00 | |
| DL1XH-west | 2026-08-30 12:48:10 | 53.07344 | 11.00706 | 63° | 49km/h | 16266m | -12.7m/s | -53.2°C | 0.3% | 104.4hPa | 2.7V | 02:59:27 | 02:51:01 | 00:00:00 | |
| AA1-15 | 2026-08-30 12:48:06 | 53.07322 | 11.00630 | 66° | 51km/h | 16317m | -12.8m/s | -52.9°C | 0.3% | 103.6hPa | 2.6V | 02:59:27 | 02:50:57 | 00:00:00 | |
| GOEST3-10 | 2026-08-30 12:48:06 | 53.07322 | 11.00630 | 67° | 49km/h | 16317m | -12.7m/s | -52.9°C | 3.9% | 103.6hPa | 2.6V | 02:59:00 | 02:50:57 | 00:00:00 | |
| DM0DOS-11 | 2026-08-30 12:48:05 | 53.07312 | 11.00592 | 67° | 49km/h | 16342m | -12.7m/s | -53°C | 4% | 103.2hPa | 2.7V | 02:59:23 | 02:50:55 | 00:00:00 | |
| DF8AY | 2026-08-30 12:48:01 | 53.07298 | 11.00533 | 69° | 49km/h | 16381m | -13m/s | -52.6°C | 0.4% | 102.6hPa | 2.7V | 02:59:27 | 02:50:52 | 00:00:00 | |
| DL1XH-west | 2026-08-30 12:48:00 | 53.07294 | 11.00514 | 68° | 47km/h | 16394m | -12.9m/s | -52.3°C | 0.3% | 102.4hPa | 2.6V | 02:59:27 | 02:50:51 | 00:00:00 | |
| BIOWL1-15 | 2026-08-30 12:47:58 | 53.07285 | 11.00478 | 67° | 46km/h | 16420m | -13.1m/s | -51.7°C | 0.1% | 101.9hPa | 2.6V | 03:00:18 | 02:50:49 | 00:00:00 | |
| DL1XH1-15 | 2026-08-30 12:47:58 | 53.07280 | 11.00461 | 65° | 46km/h | 16432m | -13m/s | -51.4°C | 3.5% | 101.8hPa | 2.7V | 02:59:30 | 02:50:48 | 00:00:00 | |
| DO2SHX-10 | 2026-08-30 12:47:58 | 53.07285 | 11.00478 | 67° | 46km/h | 16420m | -13.0m/s | -51.6°C | 3.6% | 101.9hPa | 2.7V | 00:00:00 | 02:50:49 | 00:00:00 | |
| DD8BA-10 | 2026-08-30 12:47:57 | 53.07280 | 11.00461 | 66° | 44km/h | 16432m | -13.0m/s | -51.3°C | 3.5% | 101.7hPa | 2.7V | 00:00:00 | 00:00:00 | 00:00:00 | |
| GOEST3-10 | 2026-08-30 12:47:56 | 53.07275 | 11.00443 | 64° | 44km/h | 16445m | -12.8m/s | -51.1°C | 3.4% | 101.5hPa | 2.7V | 00:00:00 | 02:50:47 | 00:00:00 | |
| DM0DOS-11 | 2026-08-30 12:47:55 | 53.07265 | 11.00410 | 59° | 44km/h | 16471m | -12.8m/s | -50.7°C | 3.3% | 101.2hPa | 2.7V | 02:59:33 | 02:50:45 | 00:00:00 | |
| DB0DAN | 2026-08-30 12:47:55 | 53.07270 | 11.00426 | 62° | 42km/h | 16458m | -12.8m/s | -50.8°C | 0.9% | 101.38hPa | 2.7V | 00:00:00 | 00:00:00 | 00:00:00 | |
| AA1-15 | 2026-08-30 12:47:55 | 53.07270 | 11.00426 | 62° | 46km/h | 16458m | -12.8m/s | -50.8°C | 0% | 101.4hPa | 2.7V | 03:00:18 | 02:50:46 | 00:00:00 | |
| DL3AQ-11 | 2026-08-30 12:47:55 | 53.07265 | 11.00410 | 59° | 44km/h | 16471m | -12.8m/s | -50.7°C | 0.9% | 101.2hPa | 2.7V | 00:00:00 | 00:00:00 | 00:00:00 | |
| DB0UT-7 | 2026-08-30 12:47:54 | 53.07264 | 11.00410 | 60° | 51km/h | 16471m | -12.7m/s | -50.7°C | 3.3% | 101.1hPa | 2.7V | 02:59:00 | 00:00:00 | 00:00:00 | |
| DL1XH1-15 | 2026-08-30 12:47:52 | 53.07217 | 11.00309 | 47° | 46km/h | 16561m | -12.9m/s | -49.7°C | 3% | 99.7hPa | 2.7V | 02:59:40 | 02:50:38 | 00:00:00 | |
| DF8AY | 2026-08-30 12:47:51 | 53.07239 | 11.00351 | 52° | 44km/h | 16523m | -13.1m/s | -50.1°C | 0% | 100.4hPa | 2.7V | 03:00:18 | 02:50:41 | 00:00:00 | |
| DL1XH-west | 2026-08-30 12:47:50 | 53.07232 | 11.00337 | 50° | 44km/h | 16536m | -13.1m/s | -49.9°C | 0% | 100.2hPa | 2.7V | 03:00:18 | 02:50:40 | 00:00:00 | |
| EDDB2-12 | 2026-08-30 12:47:48 | 53.07224 | 11.00323 | 48° | 44km/h | 16549m | -12.6m/s | -49.8°C | 0.8% | 99.9hPa | 2.6V | 00:00:00 | 00:00:00 | 00:00:00 | |
| DL1XH-15 | 2026-08-30 12:47:47 | 53.07209 | 11.00295 | 46° | 46km/h | 16574m | -13.1m/s | -49.8°C | 3.1% | 99.6hPa | 2.6V | 02:59:41 | 02:50:37 | 00:00:00 | |
| BIOWL1-15 | 2026-08-30 12:47:47 | 53.07217 | 11.00309 | 48° | 46km/h | 16561m | -12.9m/s | -49.7°C | 0% | 99.8hPa | 2.7V | 03:00:18 | 02:50:38 | 00:00:00 | |
| AA1-15 | 2026-08-30 12:47:44 | 53.07193 | 11.00267 | 44° | 47km/h | 16600m | -13.2m/s | -49.8°C | 0% | 99.2hPa | 2.6V | 03:00:18 | 02:50:35 | 00:00:00 | |
| DL3AQ-11 | 2026-08-30 12:47:44 | 53.07184 | 11.00253 | 44° | 49km/h | 16613m | -13.1m/s | -49.9°C | 0.8% | 99.0hPa | 2.7V | 00:00:00 | 00:00:00 | 00:00:00 | |
| TFSTFS | 2026-08-30 12:47:43 | 53.07184 | 11.00253 | 45° | 49km/h | 16613m | -13.1m/s | -49.9°C | 0.8% | 99.0hPa | 2.7V | 03:00:00 | 00:00:00 | 00:00:00 | |
| DB0DAN | 2026-08-30 12:47:40 | 53.07156 | 11.00208 | 44° | 51km/h | 16652m | -13.1m/s | -50.2°C | 0.8% | 98.37hPa | 2.7V | 00:00:00 | 00:00:00 | 00:00:00 | |
| DF8AY | 2026-08-30 12:47:40 | 53.07156 | 11.00208 | 44° | 53km/h | 16652m | -13.1m/s | -50.2°C | 0% | 98.4hPa | 2.7V | 03:00:18 | 02:50:31 | 00:00:00 | |
| DL1XH-west | 2026-08-30 12:47:39 | 53.07146 | 11.00192 | 45° | 55km/h | 16666m | -13m/s | -50.2°C | 0% | 98.2hPa | 2.6V | 03:00:18 | 02:50:30 | 00:00:00 | |
| DL1XH-15 | 2026-08-30 12:47:39 | 53.07117 | 11.00141 | 47° | 57km/h | 16705m | -13.3m/s | -50.4°C | 3.1% | 97.6hPa | 2.7V | 02:59:51 | 02:50:27 | 00:00:00 | |
| DL1XH1-15 | 2026-08-30 12:47:38 | 53.07126 | 11.00159 | 46° | 57km/h | 16692m | -13.3m/s | -50.4°C | 3.2% | 97.8hPa | 2.6V | 02:59:50 | 02:50:28 | 00:00:00 | |
| BIOWL1-15 | 2026-08-30 12:47:36 | 53.07117 | 11.00141 | 48° | 57km/h | 16705m | -13.3m/s | -50.4°C | 0% | 97.6hPa | 2.7V | 03:00:18 | 02:50:27 | 00:00:00 | |
| AA1-15 | 2026-08-30 12:47:34 | 53.07098 | 11.00106 | 49° | 57km/h | 16731m | -13.1m/s | -50.5°C | 0% | 97.2hPa | 2.7V | 03:00:18 | 02:50:25 | 00:00:00 | |
| DO2SHX-10 | 2026-08-30 12:47:34 | 53.07097 | 11.00106 | 49° | 55km/h | 16731m | -13.1m/s | -50.5°C | 3.2% | 97.1hPa | 2.7V | 02:59:00 | 02:50:25 | 00:00:00 | |
| DL1XH1-15 | 2026-08-30 12:47:32 | 53.07035 | 10.99985 | 49° | 53km/h | 16824m | -13.3m/s | -50.8°C | 3.2% | 95.8hPa | 2.7V | 03:00:00 | 02:50:18 | 00:00:00 | |
| DF8AY | 2026-08-30 12:47:29 | 53.07053 | 11.00019 | 49° | 55km/h | 16797m | -13.3m/s | -50.8°C | 0% | 96.2hPa | 2.7V | 03:00:18 | 02:50:20 | 00:00:00 | |
| DM0DOS-11 | 2026-08-30 12:47:29 | 53.07010 | 10.99936 | 48° | 49km/h | 16864m | -13.3m/s | -50.6°C | 3.2% | 95.2hPa | 2.6V | 03:00:03 | 02:50:15 | 00:00:00 | |
| DL1XH-west | 2026-08-30 12:47:29 | 53.07044 | 11.00002 | 50° | 53km/h | 16810m | -13.3m/s | -50.8°C | 0% | 96hPa | 2.7V | 03:00:18 | 02:50:19 | 00:00:00 | |
| BIOWL1-15 | 2026-08-30 12:47:27 | 53.07018 | 10.99952 | 50° | 51km/h | 16851m | -13.5m/s | -50.7°C | 0% | 95.4hPa | 2.6V | 03:00:18 | 02:50:16 | 00:00:00 | |
| DL1XH-15 | 2026-08-30 12:47:27 | 53.07026 | 10.99968 | 49° | 53km/h | 16837m | -13.4m/s | -50.7°C | 3.2% | 95.6hPa | 2.7V | 03:00:01 | 02:50:17 | 00:00:00 | |
| DD8BA-10 | 2026-08-30 12:47:27 | 53.07035 | 10.99985 | 50° | 51km/h | 16824m | -13.3m/s | -50.7°C | 3.2% | 95.8hPa | 2.6V | 00:00:00 | 00:00:00 | 00:00:00 | |
| DB0DAN | 2026-08-30 12:47:25 | 53.07018 | 10.99952 | 50° | 49km/h | 16851m | -13.5m/s | -50.7°C | 0.9% | 95.43hPa | 2.6V | 00:00:00 | 00:00:00 | 00:00:00 | |
| AA1-15 | 2026-08-30 12:47:24 | 53.07010 | 10.99936 | 48° | 49km/h | 16864m | -13.3m/s | -50.6°C | 0% | 95.2hPa | 2.6V | 03:00:18 | 02:50:15 | 00:00:00 | |
| DB0UT-7 | 2026-08-30 12:47:24 | 53.07010 | 10.99936 | 49° | 42km/h | 16864m | -13.3m/s | -50.6°C | 3.2% | 95.2hPa | 2.6V | 00:00:00 | 02:50:15 | 00:00:00 | |
| DO2SHX-10 | 2026-08-30 12:47:22 | 53.06992 | 10.99905 | 47° | 49km/h | 16890m | -13.3m/s | -50.6°C | 3.2% | 94.8hPa | 2.6V | 00:00:00 | 02:50:13 | 00:00:00 | |
| DL1XH-15 | 2026-08-30 12:47:21 | 53.06940 | 10.99816 | 45° | 49km/h | 16972m | -14.1m/s | -50.8°C | 3.3% | 93.7hPa | 2.6V | 03:00:11 | 02:50:07 | 00:00:00 | |
| DF8AY | 2026-08-30 12:47:18 | 53.06958 | 10.99845 | 46° | 49km/h | 16944m | -13.6m/s | -50.7°C | 0% | 94.1hPa | 2.6V | 03:00:18 | 02:50:09 | 00:00:00 | |
| DM0DOS-11 | 2026-08-30 12:47:18 | 53.06923 | 10.99786 | 47° | 49km/h | 16999m | -13.5m/s | -50.7°C | 3.2% | 93.3hPa | 2.7V | 03:00:13 | 02:50:05 | 00:00:00 | |
| DL1XH1-15 | 2026-08-30 12:47:18 | 53.06949 | 10.99831 | 45° | 49km/h | 16958m | -13.8m/s | -50.8°C | 3.3% | 93.9hPa | 2.6V | 03:00:10 | 02:50:08 | 00:00:00 | |
| DL1XH-west | 2026-08-30 12:47:17 | 53.06949 | 10.99831 | 45° | 49km/h | 16958m | -13.8m/s | -50.8°C | 0% | 93.9hPa | 2.6V | 03:00:18 | 02:50:08 | 00:00:00 | |
| BIOWL1-15 | 2026-08-30 12:47:14 | 53.06923 | 10.99786 | 47° | 49km/h | 16999m | -13.5m/s | -50.7°C | 0% | 93.3hPa | 2.7V | 03:00:18 | 02:50:05 | 00:00:00 | |
| AA1-15 | 2026-08-30 12:47:13 | 53.06914 | 10.99771 | 48° | 47km/h | 17013m | -13.8m/s | -50.8°C | 0% | 93.1hPa | 2.7V | 03:00:18 | 02:50:04 | 00:00:00 | |
| DL1XH1-15 | 2026-08-30 12:47:12 | 53.06869 | 10.99691 | 44° | 40km/h | 17094m | -13.6m/s | -51°C | 3.4% | 92hPa | 2.7V | 03:00:20 | 02:49:58 | 00:00:00 | |
| DF8AY-15 | 2026-08-30 12:47:12 | 53.06906 | 10.99757 | 48° | 37km/h | 17026m | -13.6m/s | -50.8°C | 3.3% | 92.9hPa | 2.6V | 00:00:00 | 02:50:03 | 00:00:00 | |
| DB0DAN | 2026-08-30 12:47:10 | 53.06891 | 10.99729 | 48° | 42km/h | 17053m | -13.7m/s | -51°C | 0.9% | 92.52hPa | 2.6V | 00:00:00 | 00:00:00 | 00:00:00 | |
| DL1XH-15 | 2026-08-30 12:47:09 | 53.06861 | 10.99680 | 41° | 38km/h | 17108m | -13.4m/s | -51°C | 3.4% | 91.7hPa | 2.7V | 03:00:21 | 02:49:57 | 00:00:00 | |
| DF8AY | 2026-08-30 12:47:07 | 53.06869 | 10.99691 | 44° | 40km/h | 17094m | -13.6m/s | -51°C | 0% | 92hPa | 2.7V | 03:01:09 | 02:49:58 | 00:00:00 | |
| DL1XH-west | 2026-08-30 12:47:06 | 53.06862 | 10.99680 | 42° | 38km/h | 17108m | -13.4m/s | -51°C | 0% | 91.7hPa | 2.7V | 03:01:09 | 02:49:57 | 00:00:00 | |
| BIOWL1-15 | 2026-08-30 12:47:03 | 53.06813 | 10.99615 | 37° | 31km/h | 17203m | -13.7m/s | -50.4°C | 0% | 90.4hPa | 2.7V | 03:01:09 | 02:49:50 | 00:00:00 | |
| AA1-15 | 2026-08-30 12:47:03 | 53.06840 | 10.99650 | 38° | 37km/h | 17148m | -13.6m/s | -50.8°C | 0% | 91.2hPa | 2.6V | 03:01:09 | 02:49:54 | 00:00:00 | |
| SP3BTT-10 | 2026-08-30 12:47:03 | 53.06840 | 10.99649 | 38° | 40km/h | 17149m | -13.6m/s | -50.8°C | 3.3% | 91.1hPa | 2.6V | 00:00:00 | 00:00:00 | 00:00:00 | |
| AP2371 | 2026-08-30 12:47:02 | 53.06833 | 10.99640 | 40° | 35km/h | 17162m | -13.8m/s | -50.8°C | 0.9% | 91.0hPa | 2.6V | 00:00:00 | 00:00:00 | 00:00:00 | |
| DG6HD-15 | 2026-08-30 12:47:01 | 53.06826 | 10.99632 | 39° | 33km/h | 17175m | -13.7m/s | -50.6°C | 0.9% | 90.8hPa | 2.6V | 03:01:00 | 00:00:00 | 00:00:00 | |
| DB0NH | 2026-08-30 12:47:00 | 53.06819 | 10.99623 | 38° | 29km/h | 17189m | -13.9m/s | -50.4°C | 3.2% | 90.6hPa | 2.6V | 00:00:00 | 02:49:51 | 00:00:00 | |
| DL1XH-15 | 2026-08-30 12:46:59 | 53.06795 | 10.99590 | 41° | 31km/h | 17244m | -13.9m/s | -50.4°C | 3.2% | 89.9hPa | 2.6V | 03:00:31 | 02:49:47 | 00:00:00 | |
| DF8AY | 2026-08-30 12:46:56 | 53.06795 | 10.99590 | 42° | 31km/h | 17244m | -13.9m/s | -50.4°C | 0% | 89.9hPa | 2.6V | 03:01:09 | 02:49:47 | 00:00:00 | |
| DL1XH-west | 2026-08-30 12:46:55 | 53.06789 | 10.99582 | 43° | 31km/h | 17258m | -14.2m/s | -50.5°C | 0% | 89.7hPa | 2.6V | 03:01:09 | 02:49:46 | 00:00:00 | |
| DM0DOS-11 | 2026-08-30 12:46:55 | 53.06783 | 10.99573 | 44° | 31km/h | 17272m | -14.1m/s | -50.6°C | 3.2% | 89.4hPa | 2.7V | 03:00:33 | 02:49:45 | 00:00:00 | |
| DB0DAN | 2026-08-30 12:46:55 | 53.06789 | 10.99582 | 43° | 29km/h | 17258m | -14.2m/s | -50.5°C | 0.8% | 89.66hPa | 2.6V | 00:00:00 | 00:00:00 | 00:00:00 | |
| AA1-15 | 2026-08-30 12:46:52 | 53.06772 | 10.99553 | 48° | 33km/h | 17300m | -13.8m/s | -50.7°C | 0% | 89.1hPa | 2.7V | 03:01:09 | 02:49:43 | 00:00:00 | |
| DO2SHX-10 | 2026-08-30 12:46:52 | 53.06772 | 10.99553 | 48° | 33km/h | 17300m | -13.7m/s | -50.6°C | 3.2% | 89.0hPa | 2.7V | 00:00:00 | 02:49:43 | 00:00:00 | |
| GOEST3-10 | 2026-08-30 12:46:51 | 53.06767 | 10.99543 | 50° | 31km/h | 17314m | -13.8m/s | -50.6°C | 3.3% | 88.8hPa | 2.7V | 03:00:00 | 00:00:00 | 00:00:00 | |
| DL1XH-15 | 2026-08-30 12:46:49 | 53.06744 | 10.99493 | 58° | 27km/h | 17382m | -13.7m/s | -50.6°C | 3.2% | 88hPa | 2.7V | 03:00:41 | 02:49:37 | 00:00:00 | |
| BIOWL1-15 | 2026-08-30 12:46:48 | 53.06752 | 10.99512 | 54° | 29km/h | 17355m | -14m/s | -50.5°C | 0% | 88.3hPa | 2.6V | 03:01:09 | 02:49:39 | 00:00:00 | |
| DL3AQ-11 | 2026-08-30 12:46:48 | 53.06748 | 10.99503 | 55° | 27km/h | 17369m | -14.0m/s | -50.6°C | 0.8% | 88.2hPa | 2.7V | 00:00:00 | 00:00:00 | 00:00:00 | |
| DL1ZP-14 | 2026-08-30 12:46:47 | 53.06744 | 10.99493 | 58° | 26km/h | 17382m | -13.7m/s | -50.7°C | 0.9% | 88.0hPa | 2.7V | 00:00:00 | 00:00:00 | 00:00:00 | |
| DF8AY | 2026-08-30 12:46:46 | 53.06733 | 10.99447 | 79° | 24km/h | 17451m | -13.9m/s | -50.6°C | 0% | 87hPa | 2.6V | 03:01:09 | 02:49:32 | 00:00:00 | |
| DO2SHX-10 | 2026-08-30 12:46:46 | 53.06744 | 10.99493 | 59° | 26km/h | 17382m | -13.7m/s | -50.6°C | 3.2% | 87.9hPa | 2.7V | 00:00:00 | 02:49:37 | 00:00:00 | |
| DM0DOS-11 | 2026-08-30 12:46:45 | 53.06738 | 10.99474 | 69° | 24km/h | 17410m | -13.7m/s | -50.7°C | 3.3% | 87.6hPa | 2.7V | 03:00:43 | 02:49:35 | 00:00:00 | |
| DL1XH-west | 2026-08-30 12:46:45 | 53.06738 | 10.99474 | 69° | 24km/h | 17410m | -13.7m/s | -50.7°C | 0% | 87.6hPa | 2.7V | 03:01:09 | 02:49:35 | 00:00:00 | |
| AA1-15 | 2026-08-30 12:46:42 | 53.06734 | 10.99456 | 74° | 24km/h | 17437m | -14.1m/s | -50.6°C | 0% | 87.2hPa | 2.6V | 03:01:09 | 02:49:33 | 00:00:00 | |
| DB0DAN | 2026-08-30 12:46:40 | 53.06732 | 10.99437 | 76° | 24km/h | 17465m | -13.6m/s | -50.6°C | 0.9% | 86.84hPa | 2.7V | 00:00:00 | 00:00:00 | 00:00:00 | |
| DG6HD-15 | 2026-08-30 12:46:40 | 53.06731 | 10.99437 | 77° | 24km/h | 17465m | -13.6m/s | -50.6°C | 0.9% | 86.8hPa | 2.6V | 03:01:00 | 00:00:00 | 00:00:00 | |
| DL1XH-15 | 2026-08-30 12:46:39 | 53.06724 | 10.99392 | 69° | 31km/h | 17519m | -14m/s | -50.8°C | 3.2% | 86.1hPa | 2.6V | 03:00:51 | 02:49:27 | 00:00:00 | |
| BIOWL1-15 | 2026-08-30 12:46:37 | 53.06721 | 10.99380 | 64° | 31km/h | 17532m | -14.2m/s | -50.9°C | 0% | 85.9hPa | 2.6V | 03:01:09 | 02:49:26 | 00:00:00 | |
| DF8AY | 2026-08-30 12:46:36 | 53.06724 | 10.99392 | 70° | 31km/h | 17519m | -14m/s | -50.8°C | 0% | 86.1hPa | 2.6V | 03:01:09 | 02:49:27 | 00:00:00 | |
| DO2LYB-13 | 2026-08-30 12:46:36 | 53.06724 | 10.99392 | 71° | 31km/h | 17519m | -14.0m/s | -50.8°C | 0.9% | 86.1hPa | 2.6V | 00:00:00 | 00:00:00 | 00:00:00 | |
| DM0DOS-11 | 2026-08-30 12:46:35 | 53.06717 | 10.99369 | 61° | 29km/h | 17546m | -13.9m/s | -50.9°C | 3.2% | 85.8hPa | 2.6V | 03:00:53 | 02:49:25 | 00:00:00 | |
| DL1XH-west | 2026-08-30 12:46:34 | 53.06717 | 10.99369 | 61° | 29km/h | 17546m | -13.9m/s | -50.9°C | 0% | 85.8hPa | 2.6V | 03:01:09 | 02:49:25 | 00:00:00 | |
| AA1-15 | 2026-08-30 12:46:32 | 53.06708 | 10.99344 | 52° | 18km/h | 17582m | -10.6m/s | -50.9°C | 0% | 85.3hPa | 2.7V | 03:01:09 | 02:49:22 | 00:00:00 | |
| DL1XH1-15 | 2026-08-30 12:46:31 | 53.06696 | 10.99321 | 55° | 18km/h | 17636m | -13.6m/s | -50.6°C | 3.2% | 84.6hPa | 2.6V | 03:01:00 | 02:49:18 | 00:00:00 | |
| DF8AY | 2026-08-30 12:46:25 | 53.06690 | 10.99306 | 55° | 27km/h | 17663m | -14.8m/s | -50.6°C | 0% | 84.3hPa | 2.7V | 03:01:09 | 02:49:16 | 00:00:00 | |
| DB0DAN | 2026-08-30 12:46:25 | 53.06690 | 10.99306 | 55° | 26km/h | 17663m | -14.8m/s | -50.6°C | 0.8% | 84.26hPa | 2.7V | 00:00:00 | 00:00:00 | 00:00:00 | |
| DM0DOS-11 | 2026-08-30 12:46:25 | 53.06686 | 10.99296 | 49° | 31km/h | 17677m | -12.7m/s | -50.6°C | 3.1% | 84hPa | 2.7V | 03:01:03 | 02:49:15 | 00:00:00 | |
| BIOWL1-15 | 2026-08-30 12:46:24 | 53.06686 | 10.99296 | 50° | 31km/h | 17677m | -12.7m/s | -50.6°C | 0% | 84hPa | 2.7V | 03:01:09 | 02:49:15 | 00:00:00 | |
| DL1XH-west | 2026-08-30 12:46:24 | 53.06680 | 10.99286 | 46° | 35km/h | 17691m | -15m/s | -50.7°C | 0% | 83.9hPa | 2.7V | 03:01:09 | 02:49:14 | 00:00:00 | |
| AA1-15 | 2026-08-30 12:46:21 | 53.06666 | 10.99266 | 37° | 38km/h | 17720m | -15m/s | -50.9°C | 0% | 83.5hPa | 2.6V | 03:01:09 | 02:49:12 | 00:00:00 | |
| DL1XH1-15 | 2026-08-30 12:46:21 | 53.06635 | 10.99234 | 32° | 35km/h | 17777m | -14.7m/s | -51.1°C | 3.2% | 82.7hPa | 2.7V | 03:01:10 | 02:49:08 | 00:00:00 | |
| GOEST3-10 | 2026-08-30 12:46:21 | 53.06666 | 10.99266 | 37° | 37km/h | 17720m | -14.9m/s | -50.8°C | 3.2% | 83.5hPa | 2.6V | 00:00:00 | 00:00:00 | 00:00:00 | |
| DG6HD-15 | 2026-08-30 12:46:20 | 53.06658 | 10.99257 | 34° | 37km/h | 17735m | -14.7m/s | -51.0°C | 0.8% | 83.3hPa | 2.6V | 03:01:00 | 00:00:00 | 00:00:00 | |
| DO2SHX-10 | 2026-08-30 12:46:19 | 53.06650 | 10.99249 | 31° | 35km/h | 17749m | -14.3m/s | -51.0°C | 3.2% | 83.1hPa | 2.6V | 00:00:00 | 02:49:10 | 00:00:00 | |
| SONCRA | 2026-08-30 12:46:18 | 53.06643 | 10.99242 | 30° | 35km/h | 17763m | -14.3m/s | -51.0°C | 0.9% | 83.0hPa | 2.6V | 00:00:00 | 00:00:00 | 00:00:00 | |
| DD8BA-10 | 2026-08-30 12:46:17 | 53.06635 | 10.99234 | 33° | 42km/h | 17777m | -14.7m/s | -51.0°C | 3.2% | 82.7hPa | 2.6V | 03:01:00 | 00:00:00 | 00:00:00 | |
| DO2SHX-10 | 2026-08-30 12:46:16 | 53.06628 | 10.99227 | 35° | 37km/h | 17792m | -15.3m/s | -51.2°C | 3.3% | 82.5hPa | 2.6V | 00:00:00 | 02:49:07 | 00:00:00 | |
| DM0DOS-11 | 2026-08-30 12:46:15 | 53.06614 | 10.99208 | 43° | 38km/h | 17821m | -14.3m/s | -51.4°C | 3.3% | 82.2hPa | 2.6V | 03:01:13 | 02:49:05 | 00:00:00 | |
| BIOWL1-15 | 2026-08-30 12:46:14 | 53.06574 | 10.99151 | 38° | 44km/h | 17896m | -15.8m/s | -51.9°C | 0% | 81.3hPa | 2.6V | 03:02:00 | 02:49:00 | 00:00:00 | |
| DF8AY | 2026-08-30 12:46:14 | 53.06614 | 10.99208 | 43° | 38km/h | 17821m | -14.3m/s | -51.4°C | 0% | 82.2hPa | 2.6V | 03:02:00 | 02:49:05 | 00:00:00 | |
| DL1XH-west | 2026-08-30 12:46:14 | 53.06607 | 10.99197 | 42° | 40km/h | 17835m | -14.7m/s | -51.5°C | 0% | 82hPa | 2.6V | 03:02:00 | 02:49:04 | 00:00:00 | |
| DF8AY-15 | 2026-08-30 12:46:13 | 53.06599 | 10.99185 | 41° | 42km/h | 17850m | -15.7m/s | -51.6°C | 3.4% | 81.8hPa | 2.7V | 00:00:00 | 02:49:03 | 00:00:00 | |
| S3001 | 2026-08-30 12:46:12 | 53.06590 | 10.99174 | 39° | 42km/h | 17866m | -15.4m/s | -51.7°C | 0.9% | 81.7hPa | 2.7V | 00:00:00 | 00:00:00 | 00:00:00 | |
| DL1XH1-15 | 2026-08-30 12:46:11 | 53.06557 | 10.99129 | 39° | 42km/h | 17927m | -16.9m/s | -52.1°C | 3.5% | 80.9hPa | 2.7V | 03:01:20 | 02:48:58 | 00:00:00 | |
| DB0DAN | 2026-08-30 12:46:10 | 53.06582 | 10.99163 | 39° | 40km/h | 17881m | -15m/s | -51.8°C | 0.9% | 81.42hPa | 2.7V | 00:00:00 | 00:00:00 | 00:00:00 | |
| AA1-15 | 2026-08-30 12:46:10 | 53.06582 | 10.99163 | 39° | 42km/h | 17881m | -15m/s | -51.8°C | 0% | 81.4hPa | 2.7V | 03:02:00 | 02:49:01 | 00:00:00 | |
| DO2SHX-10 | 2026-08-30 12:46:10 | 53.06582 | 10.99162 | 40° | 44km/h | 17881m | -14.9m/s | -51.8°C | 3.5% | 81.4hPa | 2.7V | 00:00:00 | 02:49:01 | 00:00:00 | |
| DL1XH-15 | 2026-08-30 12:46:09 | 53.06549 | 10.99118 | 40° | 40km/h | 17944m | -17m/s | -52.2°C | 3.5% | 80.7hPa | 2.7V | 03:01:21 | 02:48:57 | 00:00:00 | |
| DM0DOS-11 | 2026-08-30 12:46:08 | 53.06533 | 10.99096 | 42° | 40km/h | 17976m | -16m/s | -52.2°C | 3.5% | 80.3hPa | 2.7V | 03:01:23 | 02:48:55 | 00:00:00 | |
| DF8AY | 2026-08-30 12:46:03 | 53.06526 | 10.99084 | 45° | 40km/h | 17992m | -16.1m/s | -52.1°C | 0.1% | 80.1hPa | 2.6V | 03:02:00 | 02:48:54 | 00:00:00 | |
| AA1-15 | 2026-08-30 12:46:00 | 53.06506 | 10.99046 | 53° | 40km/h | 18041m | -15.9m/s | -51.4°C | 0% | 79.5hPa | 2.7V | 03:02:00 | 02:48:51 | 00:00:00 | |
| DB0NH | 2026-08-30 12:46:00 | 53.06506 | 10.99046 | 53° | 44km/h | 18041m | -15.9m/s | -51.4°C | 3.3% | 79.4hPa | 2.7V | 00:00:00 | 02:48:51 | 00:00:00 | |
| DL1XH1-15 | 2026-08-30 12:45:59 | 53.06487 | 10.99004 | 52° | 44km/h | 18088m | -16.2m/s | -51.2°C | 3.2% | 78.9hPa | 2.7V | 03:01:30 | 02:48:48 | 00:00:00 | |
| DO2SHX-10 | 2026-08-30 12:45:58 | 53.06493 | 10.99018 | 54° | 42km/h | 18073m | -15.5m/s | -51.2°C | 3.2% | 79.1hPa | 2.6V | 00:00:00 | 02:48:49 | 00:00:00 | |
| TFSTFS | 2026-08-30 12:45:57 | 53.06486 | 10.99004 | 54° | 44km/h | 18088m | -16.2m/s | -51.2°C | 0.8% | 78.9hPa | 2.6V | 03:02:00 | 00:00:00 | 00:00:00 | |
| GOEST3-10 | 2026-08-30 12:45:56 | 53.06480 | 10.98990 | 54° | 44km/h | 18104m | -15.4m/s | -51.2°C | 3.2% | 78.7hPa | 2.6V | 00:00:00 | 02:48:47 | 00:00:00 | |
| DM0DOS-11 | 2026-08-30 12:45:55 | 53.06467 | 10.98960 | 54° | 44km/h | 18136m | -17m/s | -51.4°C | 3.2% | 78.3hPa | 2.6V | 03:01:33 | 02:48:45 | 00:00:00 | |
| DB0DAN | 2026-08-30 12:45:55 | 53.06474 | 10.98975 | 55° | 42km/h | 18120m | -16.8m/s | -51.3°C | 0.9% | 78.52hPa | 2.6V | 00:00:00 | 00:00:00 | 00:00:00 | |
| BIOWL1-15 | 2026-08-30 12:45:53 | 53.06460 | 10.98946 | 53° | 46km/h | 18153m | -16.3m/s | -51.5°C | 0% | 78.1hPa | 2.7V | 03:02:00 | 02:48:44 | 00:00:00 | |
| DL1XH1-15 | 2026-08-30 12:45:52 | 53.06413 | 10.98860 | 43° | 46km/h | 18248m | -15.9m/s | -52.1°C | 3.4% | 77hPa | 2.7V | 03:01:40 | 02:48:38 | 00:00:00 | |
| DL1XH-west | 2026-08-30 12:45:52 | 53.06453 | 10.98931 | 52° | 46km/h | 18169m | -16.1m/s | -51.5°C | 0% | 77.9hPa | 2.7V | 03:02:00 | 02:48:43 | 00:00:00 | |
| AA1-15 | 2026-08-30 12:45:49 | 53.06430 | 10.98886 | 46° | 46km/h | 18216m | -16.7m/s | -51.9°C | 0% | 77.4hPa | 2.6V | 03:02:00 | 02:48:40 | 00:00:00 | |
| SONCRA | 2026-08-30 12:45:47 | 53.06413 | 10.98860 | 43° | 44km/h | 18248m | -15.9m/s | -52.2°C | 0.9% | 77.0hPa | 2.6V | 00:00:00 | 00:00:00 | 00:00:00 | |
| DF8AY | 2026-08-30 12:45:43 | 53.06374 | 10.98792 | 52° | 46km/h | 18325m | -16.1m/s | -52.8°C | 0.1% | 76hPa | 2.6V | 03:02:00 | 02:48:33 | 00:00:00 | |
| DL1XH-west | 2026-08-30 12:45:42 | 53.06360 | 10.98761 | 57° | 44km/h | 18358m | -17.2m/s | -53°C | 0.2% | 75.7hPa | 2.7V | 03:02:00 | 02:48:31 | 00:00:00 | |
| DB0DAN | 2026-08-30 12:45:40 | 53.06360 | 10.98761 | 57° | 42km/h | 18358m | -17.2m/s | -53°C | 1% | 75.72hPa | 2.7V | 00:00:00 | 00:00:00 | 00:00:00 | |
| AA1-15 | 2026-08-30 12:45:39 | 53.06354 | 10.98746 | 57° | 44km/h | 18374m | -16.5m/s | -52.9°C | 0.2% | 75.5hPa | 2.7V | 03:02:00 | 02:48:30 | 00:00:00 | |
| BIOWL7-15 | 2026-08-30 12:45:39 | 53.06354 | 10.98746 | 58° | 44km/h | 18375m | -16.5m/s | -52.9°C | 1.0% | 75.5hPa | 2.7V | 00:00:00 | 00:00:00 | 00:00:00 | |
| DG6HD-15 | 2026-08-30 12:45:38 | 53.06354 | 10.98746 | 58° | 44km/h | 18375m | -16.5m/s | -52.9°C | 1.0% | 75.5hPa | 2.7V | 03:02:00 | 00:00:00 | 00:00:00 | |
| DL1XH-15 | 2026-08-30 12:45:37 | 53.06337 | 10.98698 | 59° | 46km/h | 18424m | -16.6m/s | -52.7°C | 3.6% | 74.9hPa | 2.7V | 03:01:51 | 02:48:27 | 00:00:00 | |
| DO2SHX-10 | 2026-08-30 12:45:37 | 53.06342 | 10.98714 | 60° | 46km/h | 18408m | -17.0m/s | -52.6°C | 3.6% | 75.1hPa | 2.6V | 03:01:00 | 02:48:28 | 00:00:00 | |
| SMARD9-15 | 2026-08-30 12:45:36 | 53.06337 | 10.98698 | 59° | 44km/h | 18424m | -16.6m/s | -52.7°C | 1.0% | 74.9hPa | 2.7V | 00:00:00 | 00:00:00 | 00:00:00 | |
| DD8BA-10 | 2026-08-30 12:45:35 | 53.06331 | 10.98681 | 59° | 37km/h | 18440m | -16.2m/s | -52.7°C | 3.6% | 74.7hPa | 2.7V | 03:01:00 | 00:00:00 | 00:00:00 | |
| DO2SHX-10 | 2026-08-30 12:45:34 | 53.06325 | 10.98666 | 57° | 44km/h | 18457m | -16.6m/s | -52.8°C | 3.6% | 74.5hPa | 2.6V | 00:00:00 | 02:48:25 | 00:00:00 | |
| DL1XH1-15 | 2026-08-30 12:45:32 | 53.06284 | 10.98569 | 71° | 27km/h | 18585m | -15.6m/s | -53.4°C | 3.9% | 73hPa | 2.6V | 03:02:01 | 02:48:17 | 00:00:00 | |
| DF8AY | 2026-08-30 12:45:32 | 53.06312 | 10.98635 | 53° | 42km/h | 18490m | -16.1m/s | -53.1°C | 0.2% | 74.1hPa | 2.6V | 03:02:00 | 02:48:23 | 00:00:00 | |
| DL1XH-west | 2026-08-30 12:45:30 | 53.06299 | 10.98610 | 50° | 35km/h | 18522m | -16.4m/s | -53.2°C | 0.3% | 73.8hPa | 2.6V | 03:02:00 | 02:48:21 | 00:00:00 | |
| BIOWL1-15 | 2026-08-30 12:45:29 | 53.06284 | 10.98569 | 72° | 27km/h | 18585m | -15.6m/s | -53.4°C | 0.3% | 73hPa | 2.6V | 03:02:51 | 02:48:17 | 00:00:00 | |
| AA1-15 | 2026-08-30 12:45:28 | 53.06290 | 10.98589 | 58° | 27km/h | 18554m | -15.8m/s | -53.4°C | 0.3% | 73.4hPa | 2.7V | 03:02:00 | 02:48:19 | 00:00:00 | |
| DF8AY | 2026-08-30 12:45:21 | 53.06276 | 10.98501 | 79° | 37km/h | 18662m | -15.7m/s | -52.3°C | 0.1% | 72.2hPa | 2.7V | 03:02:51 | 02:48:12 | 00:00:00 | |
| DL1XH-west | 2026-08-30 12:45:20 | 53.06270 | 10.98459 | 78° | 33km/h | 18708m | -15.3m/s | -51.8°C | 0% | 71.7hPa | 2.6V | 03:02:51 | 02:48:09 | 00:00:00 | |
| GOEST3-10 | 2026-08-30 12:45:20 | 53.06274 | 10.98486 | 78° | 31km/h | 18678m | -15.6m/s | -52.0°C | 3.4% | 71.9hPa | 2.6V | 00:00:00 | 00:00:00 | 00:00:00 | |
| DL1XH1-15 | 2026-08-30 12:45:19 | 53.06268 | 10.98447 | 76° | 31km/h | 18723m | -15.5m/s | -51.9°C | 3.3% | 71.5hPa | 2.7V | 03:02:10 | 02:48:08 | 00:00:00 | |
| AA1-15 | 2026-08-30 12:45:19 | 53.06268 | 10.98447 | 76° | 31km/h | 18723m | -15.5m/s | -51.9°C | 0% | 71.5hPa | 2.7V | 03:02:51 | 02:48:08 | 00:00:00 | |
| DC4HF-4 | 2026-08-30 12:45:19 | 53.06270 | 10.98459 | 78° | 31km/h | 18708m | -15.3m/s | -51.8°C | 0.9% | 71.7hPa | 2.6V | 00:00:00 | 00:00:00 | 00:00:00 | |
| DM0DOS-11 | 2026-08-30 12:45:18 | 53.06264 | 10.98412 | 80° | 27km/h | 18769m | -15.3m/s | -52.1°C | 3.3% | 71hPa | 2.6V | 03:02:13 | 02:48:05 | 00:00:00 | |
| BIOWL1-15 | 2026-08-30 12:45:16 | 53.06263 | 10.98401 | 79° | 27km/h | 18784m | -15.4m/s | -52.2°C | 0% | 70.8hPa | 2.6V | 03:02:51 | 02:48:04 | 00:00:00 | |
| DO2SHX-10 | 2026-08-30 12:45:16 | 53.06267 | 10.98434 | 82° | 27km/h | 18738m | -15.7m/s | -51.9°C | 3.3% | 71.3hPa | 2.7V | 00:00:00 | 02:48:07 | 00:00:00 | |
| DD8BA-10 | 2026-08-30 12:45:15 | 53.06265 | 10.98423 | 81° | 22km/h | 18754m | -15.3m/s | -52.0°C | 3.3% | 71.1hPa | 2.7V | 00:00:00 | 00:00:00 | 00:00:00 | |
| SP3WXH-11 | 2026-08-30 12:45:14 | 53.06264 | 10.98412 | 80° | 26km/h | 18769m | -15.4m/s | -52.1°C | 0.8% | 71.0hPa | 2.7V | 00:00:00 | 00:00:00 | 00:00:00 | |
| DO2SHX-10 | 2026-08-30 12:45:13 | 53.06263 | 10.98401 | 79° | 26km/h | 18784m | -15.3m/s | -52.2°C | 3.4% | 70.8hPa | 2.7V | 03:02:00 | 02:48:04 | 00:00:00 | |
| DL1XH1-15 | 2026-08-30 12:45:12 | 53.06254 | 10.98348 | 64° | 18km/h | 18878m | -17.2m/s | -52.3°C | 3.3% | 69.8hPa | 2.7V | 03:02:20 | 02:47:58 | 00:00:00 | |
| DF8AY-15 | 2026-08-30 12:45:12 | 53.06262 | 10.98390 | 78° | 16km/h | 18799m | -15.7m/s | -52.2°C | 3.3% | 70.6hPa | 2.7V | 00:00:00 | 02:48:03 | 00:00:00 | |
| DL1XH-15 | 2026-08-30 12:45:11 | 53.06252 | 10.98342 | 65° | 16km/h | 18896m | -18.6m/s | -52.5°C | 3.4% | 69.6hPa | 2.7V | 03:02:21 | 02:47:57 | 00:00:00 | |
| DF8AY | 2026-08-30 12:45:10 | 53.06259 | 10.98371 | 76° | 22km/h | 18830m | -15.5m/s | -52.2°C | 0% | 70.3hPa | 2.7V | 03:02:51 | 02:48:01 | 00:00:00 | |
| DB0DAN | 2026-08-30 12:45:10 | 53.06259 | 10.98371 | 76° | 20km/h | 18830m | -15.5m/s | -52.2°C | 0.9% | 70.33hPa | 2.7V | 00:00:00 | 00:00:00 | 00:00:00 | |
| DL1XH-west | 2026-08-30 12:45:09 | 53.06256 | 10.98355 | 73° | 18km/h | 18862m | -16.9m/s | -52.2°C | 0% | 70hPa | 2.6V | 03:02:51 | 02:47:59 | 00:00:00 | |
| AA1-15 | 2026-08-30 12:45:07 | 53.06252 | 10.98342 | 66° | 16km/h | 18896m | -18.6m/s | -52.5°C | 0% | 69.7hPa | 2.7V | 03:02:51 | 02:47:57 | 00:00:00 | |
| DF8AY | 2026-08-30 12:45:04 | 53.06237 | 10.98314 | 41° | 15km/h | 19014m | -15.8m/s | -53.5°C | 0.2% | 68.4hPa | 2.7V | 03:02:51 | 02:47:50 | 00:00:00 | |
| BIOWL1-15 | 2026-08-30 12:45:03 | 53.06240 | 10.98318 | 47° | 13km/h | 18999m | -16.3m/s | -53.3°C | 0.1% | 68.6hPa | 2.7V | 03:02:51 | 02:47:51 | 00:00:00 | |
| DL1XH-15 | 2026-08-30 12:45:01 | 53.06227 | 10.98301 | 38° | 18km/h | 19065m | -16.6m/s | -54°C | 3.8% | 67.9hPa | 2.6V | 03:02:31 | 02:47:47 | 00:00:00 | |
| DL1XH-west | 2026-08-30 12:44:57 | 53.06230 | 10.98305 | 36° | 18km/h | 19048m | -16.9m/s | -53.8°C | 0.2% | 68.1hPa | 2.6V | 03:02:51 | 02:47:48 | 00:00:00 | |
| AA1-15 | 2026-08-30 12:44:56 | 53.06227 | 10.98301 | 39° | 18km/h | 19065m | -16.6m/s | -54°C | 0.2% | 67.9hPa | 2.6V | 03:02:51 | 02:47:47 | 00:00:00 | |
| DB0DAN | 2026-08-30 12:44:55 | 53.06223 | 10.98296 | 42° | 18km/h | 19081m | -16.2m/s | -54.1°C | 1% | 67.68hPa | 2.7V | 00:00:00 | 00:00:00 | 00:00:00 | |
| BIOWL1-15 | 2026-08-30 12:44:52 | 53.06213 | 10.98279 | 50° | 18km/h | 19131m | -16.7m/s | -54.5°C | 0.4% | 67.2hPa | 2.6V | 03:02:51 | 02:47:43 | 00:00:00 | |
| SONDE2-11 | 2026-08-30 12:44:52 | 53.06210 | 10.98274 | 49° | 16km/h | 19147m | -16.1m/s | -54.6°C | 1.1% | 67.0hPa | 2.7V | 00:00:00 | 00:00:00 | 00:00:00 | |
| 13BRC | 2026-08-30 12:44:51 | 53.06213 | 10.98279 | 51° | 18km/h | 19131m | -16.7m/s | -54.5°C | 1.1% | 67.1hPa | 2.7V | 00:00:00 | 00:00:00 | 00:00:00 | |
| GOEST3-10 | 2026-08-30 12:44:50 | 53.06207 | 10.98268 | 53° | 20km/h | 19163m | -15.8m/s | -54.5°C | 4.2% | 66.8hPa | 2.7V | 03:02:00 | 00:00:00 | 00:00:00 | |
| DM0DOS-11 | 2026-08-30 12:44:49 | 53.06187 | 10.98219 | 49° | 35km/h | 19260m | -14.1m/s | -53.6°C | 3.9% | 65.8hPa | 2.6V | 03:02:43 | 02:47:35 | 00:00:00 | |
| DL1XH1-15 | 2026-08-30 12:44:49 | 53.06200 | 10.98247 | 58° | 22km/h | 19213m | -17.6m/s | -53.9°C | 4% | 66.3hPa | 2.7V | 03:02:40 | 02:47:38 | 00:00:00 | |
| DF8AY | 2026-08-30 12:44:48 | 53.06202 | 10.98255 | 59° | 20km/h | 19196m | -18m/s | -54°C | 0.4% | 66.5hPa | 2.7V | 03:02:51 | 02:47:39 | 00:00:00 | |
| DL1XH-west | 2026-08-30 12:44:46 | 53.06196 | 10.98239 | 53° | 26km/h | 19230m | -14.3m/s | -53.9°C | 0.3% | 66.2hPa | 2.6V | 03:02:51 | 02:47:37 | 00:00:00 | |
| AA1-15 | 2026-08-30 12:44:46 | 53.06187 | 10.98219 | 49° | 35km/h | 19260m | -14.1m/s | -53.6°C | 0.3% | 65.8hPa | 2.6V | 03:02:51 | 02:47:35 | 00:00:00 | |
| SONCRA | 2026-08-30 12:44:45 | 53.06192 | 10.98229 | 51° | 29km/h | 19245m | -16.3m/s | -53.8°C | 1.0% | 66.0hPa | 2.7V | 00:00:00 | 00:00:00 | 00:00:00 | |
| DF8AY | 2026-08-30 12:44:43 | 53.06137 | 10.98154 | 34° | 46km/h | 19354m | -16.2m/s | -53.6°C | 0.2% | 64.9hPa | 2.7V | 03:02:51 | 02:47:29 | 00:00:00 | |
| DC4HF-4 | 2026-08-30 12:44:43 | 53.06173 | 10.98197 | 40° | 40km/h | 19291m | -16.1m/s | -53.5°C | 1.0% | 65.5hPa | 2.7V | 00:00:00 | 00:00:00 | 00:00:00 | |
| DL1XH1-15 | 2026-08-30 12:44:42 | 53.06127 | 10.98143 | 33° | 49km/h | 19371m | -16.9m/s | -53.6°C | 3.8% | 64.7hPa | 2.7V | 03:02:50 | 02:47:28 | 00:00:00 | |
| BIOWL1-15 | 2026-08-30 12:44:42 | 53.06164 | 10.98186 | 38° | 44km/h | 19306m | -15.3m/s | -53.6°C | 0.3% | 65.3hPa | 2.7V | 03:02:51 | 02:47:32 | 00:00:00 | |
| DB0DAN | 2026-08-30 12:44:40 | 53.06156 | 10.98175 | 36° | 40km/h | 19322m | -16m/s | -53.6°C | 1% | 65.21hPa | 2.6V | 00:00:00 | 00:00:00 | 00:00:00 | |
| DO2SHX-10 | 2026-08-30 12:44:40 | 53.06156 | 10.98175 | 36° | 46km/h | 19322m | -15.9m/s | -53.6°C | 3.8% | 65.2hPa | 2.6V | 00:00:00 | 02:47:31 | 00:00:00 | |
| DM0DOS-11 | 2026-08-30 12:44:39 | 53.06095 | 10.98110 | 31° | 49km/h | 19419m | -16.1m/s | -53.4°C | 3.7% | 64.2hPa | 2.6V | 03:02:53 | 02:47:25 | 00:00:00 | |
| S3001 | 2026-08-30 12:44:38 | 53.06137 | 10.98154 | 33° | 44km/h | 19354m | -16.2m/s | -53.6°C | 1.0% | 64.9hPa | 2.7V | 00:00:00 | 00:00:00 | 00:00:00 | |
| DL1XH-15 | 2026-08-30 12:44:37 | 53.06116 | 10.98132 | 30° | 51km/h | 19387m | -15.8m/s | -53.5°C | 3.8% | 64.6hPa | 2.7V | 03:02:51 | 02:47:27 | 00:00:00 | |
| DL1XH-west | 2026-08-30 12:44:35 | 53.06105 | 10.98121 | 32° | 49km/h | 19404m | -16.5m/s | -53.6°C | 0.2% | 64.3hPa | 2.6V | 03:03:42 | 02:47:26 | 00:00:00 | |
| AA1-15 | 2026-08-30 12:44:34 | 53.06095 | 10.98110 | 31° | 49km/h | 19419m | -16.2m/s | -53.4°C | 0.2% | 64.2hPa | 2.6V | 03:03:42 | 02:47:25 | 00:00:00 | |
| BIOWL1-15 | 2026-08-30 12:44:31 | 53.06059 | 10.98066 | 45° | 38km/h | 19484m | -16.4m/s | -53.2°C | 0.2% | 63.5hPa | 2.6V | 03:03:42 | 02:47:21 | 00:00:00 | |
| DL1XH-15 | 2026-08-30 12:44:31 | 53.06041 | 10.98024 | 60° | 22km/h | 19552m | -18.3m/s | -53.2°C | 3.7% | 62.9hPa | 2.7V | 03:03:01 | 02:47:17 | 00:00:00 | |
| DO2SHX-10 | 2026-08-30 12:44:31 | 53.06067 | 10.98077 | 41° | 37km/h | 19467m | -17.9m/s | -53.1°C | 3.7% | 63.7hPa | 2.6V | 00:00:00 | 02:47:22 | 00:00:00 | |
| DB0NH | 2026-08-30 12:44:30 | 53.06059 | 10.98066 | 45° | 24km/h | 19484m | -16.4m/s | -53.2°C | 3.8% | 63.5hPa | 2.6V | 03:02:00 | 02:47:21 | 00:00:00 | |
| DM0DOS-11 | 2026-08-30 12:44:29 | 53.06036 | 10.98010 | 59° | 16km/h | 19585m | -16.4m/s | -53.3°C | 3.8% | 62.6hPa | 2.6V | 03:03:03 | 02:47:15 | 00:00:00 | |
| DL1XH1-15 | 2026-08-30 12:44:29 | 53.06044 | 10.98033 | 58° | 27km/h | 19533m | -17.3m/s | -53.1°C | 3.7% | 63.1hPa | 2.7V | 03:03:00 | 02:47:18 | 00:00:00 | |
| DF8AY | 2026-08-30 12:44:28 | 53.06044 | 10.98033 | 59° | 27km/h | 19534m | -17.3m/s | -53.1°C | 0.2% | 63.1hPa | 2.7V | 03:03:42 | 02:47:18 | 00:00:00 | |
| DB0DAN | 2026-08-30 12:44:25 | 53.06038 | 10.98017 | 56° | 20km/h | 19569m | -16.2m/s | -53.3°C | 1% | 62.76hPa | 2.6V | 00:00:00 | 00:00:00 | 00:00:00 | |
| DL1XH-west | 2026-08-30 12:44:24 | 53.06035 | 10.98010 | 60° | 16km/h | 19585m | -16.4m/s | -53.3°C | 0.3% | 62.6hPa | 2.6V | 03:03:42 | 02:47:15 | 00:00:00 | |
| AA1-15 | 2026-08-30 12:44:24 | 53.06034 | 10.98005 | 59° | 15km/h | 19601m | -16.2m/s | -53.3°C | 0.2% | 62.4hPa | 2.7V | 03:03:42 | 02:47:14 | 00:00:00 | |
| DL3AQ-11 | 2026-08-30 12:44:24 | 53.06034 | 10.98005 | 58° | 13km/h | 19601m | -16.2m/s | -53.3°C | 1.0% | 62.4hPa | 2.6V | 00:00:00 | 00:00:00 | 00:00:00 | |
| HTAHTA | 2026-08-30 12:44:22 | 53.06030 | 10.97995 | 67° | 11km/h | 19635m | -17.2m/s | -53.4°C | 1.0% | 62.1hPa | 2.6V | 00:00:00 | 00:00:00 | 00:00:00 | |
| SONDE2-11 | 2026-08-30 12:44:21 | 53.06029 | 10.97989 | 75° | 16km/h | 19653m | -18.0m/s | -53.2°C | 1.0% | 61.9hPa | 2.6V | 00:00:00 | 00:00:00 | 00:00:00 | |
| GOEST3-10 | 2026-08-30 12:44:20 | 53.06029 | 10.97989 | 76° | 27km/h | 19653m | -17.9m/s | -53.2°C | 3.8% | 61.9hPa | 2.6V | 00:00:00 | 00:00:00 | 00:00:00 | |
| DL1XH-15 | 2026-08-30 12:44:19 | 53.06023 | 10.97945 | 73° | 38km/h | 19719m | -17.1m/s | -52.9°C | 3.7% | 61.3hPa | 2.7V | 03:03:11 | 02:47:07 | 00:00:00 | |
| DM0DOS-11 | 2026-08-30 12:44:19 | 53.06017 | 10.97915 | 68° | 40km/h | 19755m | -18.8m/s | -53.1°C | 3.8% | 61hPa | 2.6V | 03:03:13 | 02:47:05 | 00:00:00 | |
| DF8AY | 2026-08-30 12:44:17 | 53.06025 | 10.97960 | 76° | 33km/h | 19703m | -16.5m/s | -53.1°C | 0.3% | 61.4hPa | 2.7V | 03:03:42 | 02:47:08 | 00:00:00 | |
| DL1XH-west | 2026-08-30 12:44:14 | 53.06013 | 10.97899 | 66° | 38km/h | 19773m | -17.5m/s | -53.2°C | 0.3% | 60.8hPa | 2.7V | 03:03:42 | 02:47:04 | 00:00:00 | |
| AA1-15 | 2026-08-30 12:44:14 | 53.06009 | 10.97886 | 58° | 37km/h | 19791m | -18.5m/s | -53°C | 0.3% | 60.6hPa | 2.7V | 03:03:42 | 02:47:03 | 00:00:00 | |
| DO2SHX-10 | 2026-08-30 12:44:13 | 53.06013 | 10.97899 | 67° | 37km/h | 19774m | -17.5m/s | -53.1°C | 3.8% | 60.8hPa | 2.6V | 03:03:00 | 02:47:04 | 00:00:00 | |
| DF8AY-15 | 2026-08-30 12:44:12 | 53.06008 | 10.97886 | 58° | 15km/h | 19791m | -18.5m/s | -53.0°C | 3.8% | 60.6hPa | 2.6V | 03:03:00 | 02:47:03 | 00:00:00 | |
| DB0DAN | 2026-08-30 12:44:10 | 53.05998 | 10.97865 | 41° | 29km/h | 19824m | -15m/s | -52.6°C | 0.9% | 60.28hPa | 2.6V | 00:00:00 | 00:00:00 | 00:00:00 | |
| DO2SHX-10 | 2026-08-30 12:44:10 | 53.05998 | 10.97865 | 41° | 26km/h | 19824m | -14.9m/s | -52.6°C | 3.6% | 60.2hPa | 2.6V | 00:00:00 | 02:47:01 | 00:00:00 | |
| DM0DOS-11 | 2026-08-30 12:44:09 | 53.05978 | 10.97843 | 90° | 4km/h | 19924m | -16.4m/s | -52.6°C | 3.5% | 59.3hPa | 2.6V | 03:03:23 | 02:46:55 | 00:00:00 | |
| DL1XH1-15 | 2026-08-30 12:44:09 | 53.05984 | 10.97849 | 34° | 15km/h | 19873m | -18m/s | -52.5°C | 3.5% | 59.9hPa | 2.7V | 03:03:20 | 02:46:58 | 00:00:00 | |
| DF8AY | 2026-08-30 12:44:07 | 53.05984 | 10.97849 | 35° | 15km/h | 19873m | -18m/s | -52.5°C | 0.1% | 59.9hPa | 2.7V | 03:03:42 | 02:46:58 | 00:00:00 | |
| DL1XH-west | 2026-08-30 12:44:03 | 53.05979 | 10.97841 | 127° | 4km/h | 19941m | -17.7m/s | -52.6°C | 0.1% | 59.2hPa | 2.7V | 03:03:42 | 02:46:54 | 00:00:00 | |
| AA1-15 | 2026-08-30 12:44:03 | 53.05980 | 10.97838 | 114° | 4km/h | 19976m | -16.9m/s | -52.6°C | 0.1% | 58.9hPa | 2.7V | 03:03:42 | 02:46:52 | 00:00:00 | |
| DL1XH1-15 | 2026-08-30 12:44:02 | 53.05978 | 10.97836 | 321° | 7km/h | 20044m | -17.9m/s | -53°C | 3.7% | 58.3hPa | 2.7V | 03:03:30 | 02:46:48 | 00:00:00 | |
| DL1XH-15 | 2026-08-30 12:44:01 | 53.05976 | 10.97839 | 297° | 11km/h | 20061m | -15.8m/s | -52.9°C | 3.6% | 58.1hPa | 2.7V | 03:03:31 | 02:46:47 | 00:00:00 | |
| TFSTFS | 2026-08-30 12:44:01 | 53.05980 | 10.97838 | 115° | 4km/h | 19976m | -16.9m/s | -52.6°C | 0.9% | 58.9hPa | 2.6V | 03:03:00 | 00:00:00 | 00:00:00 | |
| DB0NH | 2026-08-30 12:44:00 | 53.05980 | 10.97836 | 97° | 13km/h | 19992m | -16.6m/s | -52.7°C | 3.5% | 58.7hPa | 2.6V | 00:00:00 | 02:46:51 | 00:00:00 | |
| DM0DOS-11 | 2026-08-30 12:43:59 | 53.05973 | 10.97851 | 287° | 18km/h | 20095m | -17.8m/s | -52.6°C | 3.6% | 57.8hPa | 2.6V | 03:03:33 | 02:46:45 | 00:00:00 | |
| DF8AY | 2026-08-30 12:43:56 | 53.05976 | 10.97839 | 298° | 11km/h | 20061m | -15.8m/s | -52.9°C | 0.2% | 58.1hPa | 2.7V | 03:03:42 | 02:46:47 | 00:00:00 | |
| DB0DAN | 2026-08-30 12:43:55 | 53.05975 | 10.97844 | 293° | 15km/h | 20077m | -17.7m/s | -52.7°C | 0.9% | 58hPa | 2.6V | 00:00:00 | 00:00:00 | 00:00:00 | |
| DL1XH-west | 2026-08-30 12:43:53 | 53.05972 | 10.97858 | 292° | 18km/h | 20113m | -18.3m/s | -52.6°C | 0.1% | 57.6hPa | 2.7V | 03:03:42 | 02:46:44 | 00:00:00 | |
| AA1-15 | 2026-08-30 12:43:51 | 53.05964 | 10.97873 | 342° | 13km/h | 20163m | -17.8m/s | -52.9°C | 0.3% | 57.2hPa | 2.6V | 03:03:42 | 02:46:41 | 00:00:00 | |
| HTAHTA | 2026-08-30 12:43:51 | 53.05964 | 10.97873 | 341° | 13km/h | 20164m | -17.8m/s | -52.9°C | 1.0% | 57.2hPa | 2.7V | 00:00:00 | 00:00:00 | 00:00:00 | |
| SONDE2-11 | 2026-08-30 12:43:50 | 53.05961 | 10.97874 | 1° | 15km/h | 20181m | -16.1m/s | -53.0°C | 0.9% | 57.0hPa | 2.7V | 00:00:00 | 00:00:00 | 00:00:00 | |
| DL1XH-15 | 2026-08-30 12:43:49 | 53.05951 | 10.97862 | 64° | 18km/h | 20230m | -17.7m/s | -53.2°C | 3.7% | 56.6hPa | 2.7V | 03:03:41 | 02:46:37 | 00:00:00 | |
| DL1XH1-15 | 2026-08-30 12:43:49 | 53.05954 | 10.97869 | 46° | 16km/h | 20213m | -17.9m/s | -53.2°C | 3.7% | 56.7hPa | 2.7V | 03:03:40 | 02:46:38 | 00:00:00 | |
| DF8AY | 2026-08-30 12:43:45 | 53.05949 | 10.97856 | 70° | 16km/h | 20248m | -18.7m/s | -53.3°C | 0.3% | 56.5hPa | 2.6V | 03:03:42 | 02:46:36 | 00:00:00 | |
| DL1XH-west | 2026-08-30 12:43:42 | 53.05948 | 10.97838 | 114° | 11km/h | 20300m | -16.6m/s | -53.3°C | 0.3% | 56hPa | 2.7V | 03:04:33 | 02:46:33 | 00:00:00 | |
| DB0DAN | 2026-08-30 12:43:40 | 53.05951 | 10.97831 | 139° | 9km/h | 20336m | -18.1m/s | -53.2°C | 1% | 55.69hPa | 2.6V | 00:00:00 | 00:00:00 | 00:00:00 | |
| AA1-15 | 2026-08-30 12:43:40 | 53.05953 | 10.97830 | 164° | 4km/h | 20353m | -17.1m/s | -53.2°C | 0.3% | 55.5hPa | 2.6V | 03:04:33 | 02:46:30 | 00:00:00 | |
| DM0DOS-11 | 2026-08-30 12:43:39 | 53.05950 | 10.97848 | 299° | 18km/h | 20438m | -17.4m/s | -52.8°C | 3.7% | 54.8hPa | 2.6V | 03:03:53 | 02:46:25 | 00:00:00 | |
| BIOWL1-15 | 2026-08-30 12:43:37 | 53.05950 | 10.97848 | 299° | 18km/h | 20438m | -17.4m/s | -52.9°C | 0.2% | 54.8hPa | 2.6V | 03:04:33 | 02:46:25 | 00:00:00 | |
| DL1XH-15 | 2026-08-30 12:43:37 | 53.05953 | 10.97837 | 282° | 11km/h | 20403m | -17.4m/s | -53.1°C | 3.7% | 55.1hPa | 2.7V | 03:03:51 | 02:46:27 | 00:00:00 | |
| DF8AY | 2026-08-30 12:43:35 | 53.05952 | 10.97842 | 292° | 15km/h | 20421m | -18.3m/s | -53°C | 0.2% | 55hPa | 2.6V | 03:04:33 | 02:46:26 | 00:00:00 | |
| DL1XH-west | 2026-08-30 12:43:32 | 53.05945 | 10.97862 | 306° | 24km/h | 20473m | -17.9m/s | -52.9°C | 0.3% | 54.4hPa | 2.7V | 03:04:33 | 02:46:23 | 00:00:00 | |
| DL1XH1-15 | 2026-08-30 12:43:31 | 53.05918 | 10.97894 | 342° | 31km/h | 20561m | -17.6m/s | -52.6°C | 3.7% | 53.7hPa | 2.7V | 03:04:00 | 02:46:18 | 00:00:00 | |
| AA1-15 | 2026-08-30 12:43:28 | 53.05925 | 10.97889 | 336° | 29km/h | 20544m | -18m/s | -52.7°C | 0.2% | 53.8hPa | 2.7V | 03:04:33 | 02:46:19 | 00:00:00 | |
| DL3AQ-11 | 2026-08-30 12:43:28 | 53.05918 | 10.97894 | 342° | 29km/h | 20561m | -17.6m/s | -52.6°C | 0.9% | 53.7hPa | 2.6V | 00:00:00 | 00:00:00 | 00:00:00 | |
| DM0DOS-11 | 2026-08-30 12:43:27 | 53.05894 | 10.97896 | 12° | 33km/h | 20613m | -18.3m/s | -52.5°C | 3.6% | 53.3hPa | 2.6V | 03:04:03 | 02:46:15 | 00:00:00 | |
| BIOWL1-15 | 2026-08-30 12:43:25 | 53.05902 | 10.97898 | 3° | 31km/h | 20596m | -17.7m/s | -52.5°C | 0.2% | 53.4hPa | 2.6V | 03:04:33 | 02:46:16 | 00:00:00 | |
| DB0DAN | 2026-08-30 12:43:25 | 53.05902 | 10.97898 | 3° | 31km/h | 20596m | -17.7m/s | -52.5°C | 0.9% | 53.44hPa | 2.6V | 00:00:00 | 00:00:00 | 00:00:00 | |
| DF8AY | 2026-08-30 12:43:24 | 53.05894 | 10.97896 | 13° | 33km/h | 20613m | -18.3m/s | -52.5°C | 0.1% | 53.3hPa | 2.6V | 03:04:33 | 02:46:15 | 00:00:00 | |
| DL1XH-west | 2026-08-30 12:43:21 | 53.05870 | 10.97878 | 32° | 38km/h | 20668m | -18.8m/s | -52.6°C | 0.2% | 52.9hPa | 2.7V | 03:04:33 | 02:46:12 | 00:00:00 | |
| GOEST3-10 | 2026-08-30 12:43:20 | 53.05861 | 10.97868 | 38° | 40km/h | 20687m | -18.4m/s | -52.6°C | 3.7% | 52.7hPa | 2.6V | 00:00:00 | 00:00:00 | 00:00:00 | |
| DL1XH-15 | 2026-08-30 12:43:19 | 53.05831 | 10.97822 | 45° | 38km/h | 20761m | -19.1m/s | -52.6°C | 3.7% | 52.1hPa | 2.7V | 03:04:11 | 02:46:07 | 00:00:00 | |
| DL1XH1-15 | 2026-08-30 12:43:19 | 53.05838 | 10.97834 | 44° | 42km/h | 20743m | -18.6m/s | -52.6°C | 3.7% | 52.2hPa | 2.7V | 03:04:10 | 02:46:08 | 00:00:00 | |
| AA1-15 | 2026-08-30 12:43:18 | 53.05838 | 10.97834 | 44° | 42km/h | 20743m | -18.6m/s | -52.6°C | 0.2% | 52.3hPa | 2.7V | 03:04:33 | 02:46:08 | 00:00:00 | |
| DM0DOS-11 | 2026-08-30 12:43:16 | 53.05819 | 10.97801 | 48° | 27km/h | 20797m | -19m/s | -52.6°C | 3.7% | 51.9hPa | 2.6V | 03:04:13 | 02:46:05 | 00:00:00 | |
| BIOWL1-15 | 2026-08-30 12:43:15 | 53.05824 | 10.97811 | 47° | 35km/h | 20779m | -18.6m/s | -52.6°C | 0.2% | 52hPa | 2.6V | 03:04:33 | 02:46:06 | 00:00:00 | |
| DF8AY | 2026-08-30 12:43:14 | 53.05819 | 10.97801 | 49° | 27km/h | 20797m | -19m/s | -52.6°C | 0.2% | 51.9hPa | 2.6V | 03:04:33 | 02:46:05 | 00:00:00 | |
| DL1XH-west | 2026-08-30 12:43:10 | 53.05814 | 10.97778 | 134° | 13km/h | 20866m | -19.1m/s | -52.7°C | 0.3% | 51.3hPa | 2.6V | 03:04:33 | 02:46:01 | 00:00:00 | |
| DB0DAN | 2026-08-30 12:43:10 | 53.05814 | 10.97778 | 134° | 13km/h | 20866m | -19.1m/s | -52.7°C | 1% | 51.28hPa | 2.6V | 00:00:00 | 00:00:00 | 00:00:00 | |
| DO2SHX-10 | 2026-08-30 12:43:10 | 53.05814 | 10.97778 | 135° | 18km/h | 20866m | -19.1m/s | -52.6°C | 3.7% | 51.2hPa | 2.6V | 03:04:00 | 02:46:01 | 00:00:00 | |
| EDDB2-12 | 2026-08-30 12:43:09 | 53.05821 | 10.97769 | 146° | 20km/h | 20904m | -19.5m/s | -52.5°C | 0.9% | 51.0hPa | 2.7V | 00:00:00 | 00:00:00 | 00:00:00 | |
| DL1ZP-14 | 2026-08-30 12:43:08 | 53.05821 | 10.97769 | 146° | 20km/h | 20904m | -19.5m/s | -52.5°C | 0.9% | 51.0hPa | 2.7V | 00:00:00 | 00:00:00 | 00:00:00 | |
| DL1XH-15 | 2026-08-30 12:43:07 | 53.05831 | 10.97759 | 148° | 22km/h | 20942m | -18.8m/s | -52.1°C | 3.5% | 50.7hPa | 2.7V | 03:04:21 | 02:45:57 | 00:00:00 | |
| AA1-15 | 2026-08-30 12:43:07 | 53.05840 | 10.97750 | 153° | 18km/h | 20980m | -19.1m/s | -51.9°C | 0.1% | 50.3hPa | 2.6V | 03:04:33 | 02:45:55 | 00:00:00 | |
| DF8AY | 2026-08-30 12:43:04 | 53.05847 | 10.97746 | 158° | 9km/h | 21018m | -18.7m/s | -51.8°C | 0.1% | 50.1hPa | 2.7V | 03:04:33 | 02:45:53 | 00:00:00 | |
| DL3AQ-11 | 2026-08-30 12:43:04 | 53.05844 | 10.97748 | 157° | 13km/h | 20999m | -19.8m/s | -51.8°C | 0.9% | 50.2hPa | 2.7V | 00:00:00 | 00:00:00 | 00:00:00 | |
| BIOWL9-15 | 2026-08-30 12:43:03 | 53.05847 | 10.97746 | 158° | 7km/h | 21018m | -18.7m/s | -51.8°C | 0.9% | 50.1hPa | 2.7V | 00:00:00 | 00:00:00 | 00:00:00 | |
| EDDB2-11 | 2026-08-30 12:43:02 | 53.05847 | 10.97746 | 158° | 7km/h | 21018m | -18.7m/s | -51.8°C | 0.9% | 50.1hPa | 2.7V | 00:00:00 | 00:00:00 | 00:00:00 | |
| DL1XH-15 | 2026-08-30 12:43:01 | 53.05845 | 10.97758 | 302° | 11km/h | 21128m | -21.3m/s | -52.1°C | 3.5% | 49.2hPa | 2.7V | 03:04:31 | 02:45:47 | 00:00:00 | |
| DL1XH-west | 2026-08-30 12:43:00 | 53.05848 | 10.97748 | 295° | 7km/h | 21071m | -18.2m/s | -51.9°C | 0.1% | 49.7hPa | 2.6V | 03:04:33 | 02:45:50 | 00:00:00 | |
| DL1XH1-15 | 2026-08-30 12:42:59 | 53.05846 | 10.97754 | 294° | 9km/h | 21108m | -20.3m/s | -52.1°C | 3.5% | 49.4hPa | 2.7V | 03:04:30 | 02:45:48 | 00:00:00 | |
| AA1-15 | 2026-08-30 12:42:56 | 53.05845 | 10.97758 | 302° | 11km/h | 21128m | -21.3m/s | -52.1°C | 0.1% | 49.2hPa | 2.7V | 03:04:33 | 02:45:47 | 00:00:00 | |
| DB0DAN | 2026-08-30 12:42:55 | 53.05844 | 10.97762 | 309° | 7km/h | 21149m | -19.4m/s | -52.2°C | 0.9% | 49.1hPa | 2.6V | 00:00:00 | 00:00:00 | 00:00:00 | |
| DF8AY | 2026-08-30 12:42:54 | 53.05842 | 10.97765 | 305° | 9km/h | 21167m | -18.3m/s | -52.4°C | 0.2% | 49hPa | 2.6V | 03:04:33 | 02:45:45 | 00:00:00 | |
| DB0UT-7 | 2026-08-30 12:42:54 | 53.05842 | 10.97765 | 305° | 16km/h | 21167m | -18.3m/s | -52.3°C | 3.6% | 48.9hPa | 2.7V | 00:00:00 | 00:00:00 | 00:00:00 | |
| DL1XH1-15 | 2026-08-30 12:42:52 | 53.05825 | 10.97794 | 316° | 11km/h | 21324m | -20.3m/s | -52.2°C | 3.5% | 47.8hPa | 2.7V | 03:04:41 | 02:45:37 | 00:00:00 | |
| BIOWL1-15 | 2026-08-30 12:42:51 | 53.05836 | 10.97774 | 324° | 13km/h | 21227m | -18.1m/s | -52.5°C | 0.2% | 48.5hPa | 2.7V | 03:05:24 | 02:45:42 | 00:00:00 | |
| DL1XH-west | 2026-08-30 12:42:49 | 53.05829 | 10.97786 | 315° | 15km/h | 21283m | -19.9m/s | -52.1°C | 0.1% | 48.1hPa | 2.7V | 03:05:24 | 02:45:39 | 00:00:00 | |
| DL1XH-15 | 2026-08-30 12:42:49 | 53.05825 | 10.97794 | 316° | 11km/h | 21324m | -20.3m/s | -52.2°C | 3.5% | 47.8hPa | 2.7V | 03:04:41 | 02:45:37 | 00:00:00 | |
| DF8AY | 2026-08-30 12:42:44 | 53.05820 | 10.97800 | 332° | 13km/h | 21364m | -20.8m/s | -52.3°C | 0.1% | 47.5hPa | 2.6V | 03:05:24 | 02:45:35 | 00:00:00 | |
| TFSTFS | 2026-08-30 12:42:44 | 53.05820 | 10.97800 | 333° | 13km/h | 21364m | -20.8m/s | -52.3°C | 0.9% | 47.5hPa | 2.6V | 03:05:00 | 00:00:00 | 00:00:00 | |
| DO2SHX-10 | 2026-08-30 12:42:43 | 53.05816 | 10.97802 | 339° | 15km/h | 21385m | -21.3m/s | -52.3°C | 3.5% | 47.3hPa | 2.6V | 00:00:00 | 02:45:34 | 00:00:00 | |
| DB0DAN | 2026-08-30 12:42:40 | 53.05805 | 10.97810 | 337° | 18km/h | 21447m | -20.8m/s | -52.5°C | 0.9% | 46.9hPa | 2.7V | 00:00:00 | 00:00:00 | 00:00:00 | |
| DO2SHX-10 | 2026-08-30 12:42:40 | 53.05805 | 10.97810 | 337° | 20km/h | 21448m | -20.7m/s | -52.5°C | 3.6% | 46.9hPa | 2.6V | 00:00:00 | 02:45:31 | 00:00:00 | |
| DL1XH1-15 | 2026-08-30 12:42:39 | 53.05791 | 10.97820 | 335° | 22km/h | 21510m | -20.6m/s | -52.5°C | 3.6% | 46.5hPa | 2.6V | 03:04:50 | 02:45:28 | 00:00:00 | |
| DL1XH-west | 2026-08-30 12:42:38 | 53.05796 | 10.97817 | 337° | 22km/h | 21489m | -21.4m/s | -52.5°C | 0.2% | 46.6hPa | 2.7V | 03:05:24 | 02:45:29 | 00:00:00 | |
| DL1XH-15 | 2026-08-30 12:42:37 | 53.05786 | 10.97824 | 339° | 20km/h | 21531m | -20.7m/s | -52.5°C | 3.6% | 46.3hPa | 2.6V | 03:04:51 | 02:45:27 | 00:00:00 | |
| DF8AY | 2026-08-30 12:42:33 | 53.05751 | 10.97847 | 3° | 15km/h | 21698m | -21.7m/s | -52.6°C | 0.2% | 45.1hPa | 2.7V | 03:05:24 | 02:45:19 | 00:00:00 | |
| AA1-15 | 2026-08-30 12:42:33 | 53.05772 | 10.97834 | 334° | 20km/h | 21593m | -20.8m/s | -52.7°C | 0.2% | 45.9hPa | 2.7V | 03:05:24 | 02:45:24 | 00:00:00 | |
| BUE01 | 2026-08-30 12:42:33 | 53.05772 | 10.97834 | 334° | 18km/h | 21593m | -20.8m/s | -52.7°C | 0.9% | 45.9hPa | 2.6V | 00:00:00 | 00:00:00 | 00:00:00 | |
| DL1XH1-15 | 2026-08-30 12:42:32 | 53.05743 | 10.97846 | 15° | 13km/h | 21741m | -22.1m/s | -52.6°C | 3.6% | 44.8hPa | 2.6V | 03:05:01 | 02:45:17 | 00:00:00 | |
| DF8AY-15 | 2026-08-30 12:42:32 | 53.05767 | 10.97837 | 333° | 16km/h | 21614m | -21.3m/s | -52.6°C | 3.6% | 45.7hPa | 2.6V | 00:00:00 | 02:45:23 | 00:00:00 | |
| DL1XH-15 | 2026-08-30 12:42:31 | 53.05743 | 10.97846 | 15° | 13km/h | 21741m | -22.1m/s | -52.6°C | 3.6% | 44.8hPa | 2.6V | 03:05:01 | 02:45:17 | 00:00:00 | |
| BIOWL1-15 | 2026-08-30 12:42:29 | 53.05754 | 10.97846 | 351° | 16km/h | 21677m | -21.5m/s | -52.7°C | 0.2% | 45.2hPa | 2.7V | 03:05:24 | 02:45:20 | 00:00:00 | |
| DL1XH-west | 2026-08-30 12:42:28 | 53.05747 | 10.97847 | 6° | 16km/h | 21720m | -21.6m/s | -52.6°C | 0.2% | 45hPa | 2.6V | 03:05:24 | 02:45:18 | 00:00:00 | |
| DF7ER-10 | 2026-08-30 12:42:27 | 53.05747 | 10.97847 | 7° | 16km/h | 21720m | -21.6m/s | -52.6°C | 0.9% | 44.9hPa | 2.7V | 03:05:00 | 00:00:00 | 00:00:00 | |
| DB0DAN | 2026-08-30 12:42:25 | 53.05740 | 10.97844 | 17° | 15km/h | 21763m | -21.9m/s | -52.6°C | 0.9% | 44.69hPa | 2.7V | 00:00:00 | 00:00:00 | 00:00:00 | |
| AA1-15 | 2026-08-30 12:42:23 | 53.05732 | 10.97839 | 28° | 16km/h | 21805m | -21.7m/s | -52.6°C | 0.2% | 44.4hPa | 2.7V | 03:05:24 | 02:45:14 | 00:00:00 | |
| DO2SHX-10 | 2026-08-30 12:42:22 | 53.05728 | 10.97835 | 44° | 18km/h | 21827m | -21.9m/s | -52.6°C | 3.6% | 44.2hPa | 2.6V | 03:05:00 | 02:45:13 | 00:00:00 | |
| GOEST3-10 | 2026-08-30 12:42:20 | 53.05722 | 10.97825 | 47° | 16km/h | 21871m | -22.1m/s | -52.7°C | 3.7% | 43.8hPa | 2.6V | 00:00:00 | 00:00:00 | 00:00:00 | |
| DL1XH-15 | 2026-08-30 12:42:19 | 53.05713 | 10.97802 | 57° | 16km/h | 21956m | -22.3m/s | -52.9°C | 3.7% | 43.3hPa | 2.7V | 03:05:11 | 02:45:07 | 00:00:00 | |
| DF8AY | 2026-08-30 12:42:18 | 53.05717 | 10.97813 | 59° | 16km/h | 21913m | -21.6m/s | -52.8°C | 0.2% | 43.6hPa | 2.7V | 03:05:24 | 02:45:09 | 00:00:00 | |
| BIOWL1-15 | 2026-08-30 12:42:18 | 53.05713 | 10.97802 | 58° | 16km/h | 21956m | -22.3m/s | -52.9°C | 0.3% | 43.3hPa | 2.7V | 03:05:24 | 02:45:07 | 00:00:00 | |
| DL1XH-west | 2026-08-30 12:42:17 | 53.05715 | 10.97807 | 61° | 15km/h | 21935m | -21.8m/s | -52.9°C | 0.2% | 43.5hPa | 2.7V | 03:05:24 | 02:45:08 | 00:00:00 | |
| DF7ER-10 | 2026-08-30 12:42:17 | 53.05715 | 10.97807 | 62° | 15km/h | 21935m | -21.8m/s | -52.9°C | 0.9% | 43.5hPa | 2.7V | 03:05:00 | 00:00:00 | 00:00:00 | |
| DO2SHX-10 | 2026-08-30 12:42:16 | 53.05712 | 10.97801 | 58° | 15km/h | 21956m | -22.3m/s | -52.9°C | 3.7% | 43.3hPa | 2.7V | 00:00:00 | 02:45:07 | 00:00:00 | |
| DM0DOS-11 | 2026-08-30 12:42:15 | 53.05709 | 10.97791 | 60° | 15km/h | 21999m | -22.1m/s | -53°C | 3.7% | 43.1hPa | 2.6V | 03:05:13 | 02:45:05 | 00:00:00 | |
| AA1-15 | 2026-08-30 12:42:12 | 53.05705 | 10.97781 | 49° | 11km/h | 22043m | -22.5m/s | -53°C | 0.2% | 42.8hPa | 2.7V | 03:05:24 | 02:45:03 | 00:00:00 | |
| DF8AY-15 | 2026-08-30 12:42:12 | 53.05705 | 10.97781 | 49° | 16km/h | 22043m | -22.4m/s | -53.0°C | 3.7% | 42.7hPa | 2.7V | 00:00:00 | 02:45:03 | 00:00:00 | |
| DB0DAN | 2026-08-30 12:42:10 | 53.05701 | 10.97777 | 19° | 7km/h | 22087m | -21.5m/s | -53°C | 0.9% | 42.48hPa | 2.7V | 00:00:00 | 00:00:00 | 00:00:00 | |
| DO2SHX-10 | 2026-08-30 12:42:10 | 53.05701 | 10.97777 | 20° | 5km/h | 22087m | -21.4m/s | -53.0°C | 3.7% | 42.4hPa | 2.7V | 03:05:00 | 02:45:01 | 00:00:00 | |
| DM0DOS-11 | 2026-08-30 12:42:09 | 53.05705 | 10.97775 | 154° | 11km/h | 22217m | -22.6m/s | -52.8°C | 3.6% | 41.6hPa | 2.7V | 03:05:23 | 02:44:55 | 00:00:00 | |
| BIOWL1-15 | 2026-08-30 12:42:08 | 53.05699 | 10.97776 | 302° | 2km/h | 22130m | -22.5m/s | -53°C | 0.2% | 42.2hPa | 2.6V | 03:05:24 | 02:44:59 | 00:00:00 | |
| DL1XH-west | 2026-08-30 12:42:07 | 53.05700 | 10.97777 | 177° | 7km/h | 22174m | -21.9m/s | -52.9°C | 0.2% | 41.9hPa | 2.7V | 03:05:24 | 02:44:57 | 00:00:00 | |
| AA1-15 | 2026-08-30 12:42:02 | 53.05712 | 10.97763 | 112° | 16km/h | 22286m | -23.3m/s | -52.8°C | 0.2% | 41.2hPa | 2.6V | 03:06:15 | 02:44:52 | 00:00:00 | |
| HSKMA3-T | 2026-08-30 12:42:02 | 53.05710 | 10.97769 | 122° | 13km/h | 22263m | -23.6m/s | -52.8°C | 0.2% | 41.3hPa | 2.6V | 03:06:15 | 02:44:53 | 00:00:00 | |
| SO1NDE-10 | 2026-08-30 12:42:02 | 53.05710 | 10.97769 | 122° | 22km/h | 22264m | -23.6m/s | -52.8°C | 3.6% | 41.3hPa | 2.6V | 00:00:00 | 02:44:53 | 00:00:00 | |
| DL1XH1-15 | 2026-08-30 12:42:01 | 53.05708 | 10.97732 | 56° | 24km/h | 22370m | -21.4m/s | -52.9°C | 3.7% | 40.6hPa | 2.7V | 03:05:30 | 02:44:48 | 00:00:00 | |
| DL1NUX | 2026-08-30 12:42:01 | 53.05704 | 10.97724 | 44° | 27km/h | 22392m | -21.6m/s | -52.9°C | 3.7% | 40.5hPa | 2.6V | 03:05:31 | 02:44:47 | 00:00:00 | |
| BIOWL1-15 | 2026-08-30 12:42:00 | 53.05698 | 10.97716 | 34° | 31km/h | 22413m | -22m/s | -53°C | 0.2% | 40.4hPa | 2.6V | 03:07:06 | 02:44:46 | 00:00:00 | |
| BIOWL9-15 | 2026-08-30 12:42:00 | 53.05713 | 10.97748 | 80° | 20km/h | 22329m | -20.6m/s | -52.8°C | 0.9% | 40.9hPa | 2.7V | 00:00:00 | 00:00:00 | 00:00:00 | |
| SMARD9-15 | 2026-08-30 12:41:59 | 53.05711 | 10.97740 | 65° | 18km/h | 22350m | -20.6m/s | -52.9°C | 0.9% | 40.8hPa | 2.7V | 00:00:00 | 00:00:00 | 00:00:00 | |
| DM0DOS-11 | 2026-08-30 12:41:58 | 53.05683 | 10.97702 | 23° | 38km/h | 22455m | -20.9m/s | -53°C | 3.7% | 40hPa | 2.7V | 03:05:34 | 02:44:44 | 00:00:00 | |
| DF8AY | 2026-08-30 12:41:58 | 53.05708 | 10.97732 | 56° | 24km/h | 22370m | -21.4m/s | -52.9°C | 0.2% | 40.6hPa | 2.7V | 03:06:15 | 02:44:48 | 00:00:00 | |
| DL1XH-west | 2026-08-30 12:41:56 | 53.05704 | 10.97724 | 45° | 27km/h | 22392m | -21.6m/s | -53°C | 0.3% | 40.5hPa | 2.6V | 03:06:15 | 02:44:47 | 00:00:00 | |
| DB0DAN | 2026-08-30 12:41:55 | 53.05698 | 10.97716 | 34° | 29km/h | 22413m | -22m/s | -53°C | 0.9% | 40.38hPa | 2.6V | 00:00:00 | 00:00:00 | 00:00:00 | |
| AA1-15 | 2026-08-30 12:41:51 | 53.05653 | 10.97692 | 2° | 42km/h | 22516m | -20.8m/s | -53.1°C | 0.3% | 39.7hPa | 2.6V | 03:06:15 | 02:44:41 | 00:00:00 | |
| HSKMA3-T | 2026-08-30 12:41:51 | 53.05664 | 10.97694 | 8° | 42km/h | 22496m | -21m/s | -53°C | 0.3% | 39.8hPa | 2.7V | 03:06:15 | 02:44:42 | 00:00:00 | |
| DL1XH1-15 | 2026-08-30 12:41:51 | 53.05622 | 10.97698 | 343° | 38km/h | 22580m | -21.9m/s | -53.2°C | 3.7% | 39.3hPa | 2.7V | 03:05:40 | 02:44:38 | 00:00:00 | |
| GOEST3-10 | 2026-08-30 12:41:50 | 53.05653 | 10.97692 | 3° | 40km/h | 22517m | -20.8m/s | -53.0°C | 3.7% | 39.6hPa | 2.6V | 03:05:00 | 00:00:00 | 00:00:00 | |
| DL1XH-15 | 2026-08-30 12:41:49 | 53.05614 | 10.97703 | 338° | 35km/h | 22602m | -22.4m/s | -53.3°C | 3.7% | 39.2hPa | 2.7V | 03:05:41 | 02:44:37 | 00:00:00 | |
| DO2SHX-10 | 2026-08-30 12:41:49 | 53.05642 | 10.97693 | 355° | 40km/h | 22538m | -21.6m/s | -53.0°C | 3.7% | 39.5hPa | 2.6V | 00:00:00 | 02:44:40 | 00:00:00 | |
| DM0DOS-11 | 2026-08-30 12:41:48 | 53.05595 | 10.97720 | 323° | 22km/h | 22668m | -21.2m/s | -53.4°C | 3.8% | 38.8hPa | 2.6V | 03:05:44 | 02:44:34 | 00:00:00 | |
| DL1XH-west | 2026-08-30 12:41:46 | 53.05614 | 10.97703 | 338° | 35km/h | 22602m | -22.4m/s | -53.3°C | 0.2% | 39.2hPa | 2.7V | 03:06:15 | 02:44:37 | 00:00:00 | |
| BIOWL1-15 | 2026-08-30 12:41:45 | 53.05606 | 10.97709 | 336° | 29km/h | 22624m | -22.6m/s | -53.4°C | 0.2% | 39hPa | 2.7V | 03:07:06 | 02:44:36 | 00:00:00 | |
| DD8BA-10 | 2026-08-30 12:41:45 | 53.05606 | 10.97708 | 337° | 18km/h | 22624m | -22.6m/s | -53.3°C | 3.7% | 39.0hPa | 2.6V | 00:00:00 | 00:00:00 | 00:00:00 | |
| DF7ER-10 | 2026-08-30 12:41:44 | 53.05600 | 10.97714 | 329° | 26km/h | 22647m | -22.3m/s | -53.4°C | 0.9% | 38.9hPa | 2.6V | 03:06:00 | 00:00:00 | 00:00:00 | |
| DL1LOL-11 | 2026-08-30 12:41:43 | 53.05595 | 10.97719 | 325° | 22km/h | 22668m | -21.2m/s | -53.4°C | 0.9% | 38.8hPa | 2.6V | 00:00:00 | 00:00:00 | 00:00:00 | |
| DC4HF-4 | 2026-08-30 12:41:42 | 53.05591 | 10.97725 | 307° | 15km/h | 22689m | -20.2m/s | -53.4°C | 0.9% | 38.7hPa | 2.6V | 00:00:00 | 00:00:00 | 00:00:00 | |
| DL1XH1-15 | 2026-08-30 12:41:41 | 53.05601 | 10.97726 | 156° | 22km/h | 22792m | -21.6m/s | -53.3°C | 3.7% | 38hPa | 2.6V | 03:05:50 | 02:44:28 | 00:00:00 | |
| AA1-15 | 2026-08-30 12:41:40 | 53.05593 | 10.97731 | 171° | 11km/h | 22749m | -20.4m/s | -53.3°C | 0.2% | 38.3hPa | 2.7V | 03:06:15 | 02:44:30 | 00:00:00 | |
| TFSTFS | 2026-08-30 12:41:40 | 53.05591 | 10.97731 | 196° | 5km/h | 22728m | -21.1m/s | -53.3°C | 0.9% | 38.5hPa | 2.7V | 03:06:00 | 00:00:00 | 00:00:00 | |
| SONCRA | 2026-08-30 12:41:39 | 53.05596 | 10.97729 | 155° | 16km/h | 22771m | -22.7m/s | -53.3°C | 0.9% | 38.2hPa | 2.7V | 00:00:00 | 00:00:00 | 00:00:00 | |
| DM0DOS-11 | 2026-08-30 12:41:38 | 53.05624 | 10.97701 | 133° | 33km/h | 22876m | -21.9m/s | -53.4°C | 3.8% | 37.5hPa | 2.7V | 03:05:54 | 02:44:24 | 00:00:00 | |
| DL1XH-15 | 2026-08-30 12:41:37 | 53.05606 | 10.97722 | 150° | 26km/h | 22813m | -21.1m/s | -53.3°C | 3.8% | 37.9hPa | 2.6V | 03:05:51 | 02:44:27 | 00:00:00 | |
| DF8AY | 2026-08-30 12:41:36 | 53.05606 | 10.97722 | 150° | 26km/h | 22813m | -21.1m/s | -53.4°C | 0.3% | 37.9hPa | 2.6V | 03:06:15 | 02:44:27 | 00:00:00 | |
| HSKMA3-T | 2026-08-30 12:41:35 | 53.05612 | 10.97716 | 148° | 27km/h | 22834m | -21.4m/s | -53.3°C | 0.3% | 37.8hPa | 2.6V | 03:06:15 | 02:44:26 | 00:00:00 | |
| BIOWL1-15 | 2026-08-30 12:41:35 | 53.05618 | 10.97709 | 142° | 29km/h | 22855m | -21.1m/s | -53.4°C | 0.3% | 37.6hPa | 2.7V | 03:07:06 | 02:44:25 | 00:00:00 | |
| DO2SHX-10 | 2026-08-30 12:41:34 | 53.05618 | 10.97709 | 143° | 31km/h | 22855m | -21.0m/s | -53.3°C | 3.8% | 37.6hPa | 2.7V | 03:05:00 | 02:44:25 | 00:00:00 | |
| DF7ER-10 | 2026-08-30 12:41:33 | 53.05618 | 10.97709 | 143° | 29km/h | 22855m | -21.1m/s | -53.4°C | 0.9% | 37.6hPa | 2.7V | 03:06:00 | 00:00:00 | 00:00:00 | |
| DG6HD-15 | 2026-08-30 12:41:32 | 53.05629 | 10.97690 | 128° | 33km/h | 22898m | -22.2m/s | -53.3°C | 0.9% | 37.4hPa | 2.7V | 03:06:00 | 00:00:00 | 00:00:00 | |
| DL1XH-15 | 2026-08-30 12:41:31 | 53.05640 | 10.97611 | 71° | 33km/h | 23028m | -22.1m/s | -53.2°C | 3.8% | 36.7hPa | 2.7V | 03:06:01 | 02:44:17 | 00:00:00 | |
| DL1XH1-15 | 2026-08-30 12:41:31 | 53.05642 | 10.97625 | 81° | 33km/h | 23006m | -22.2m/s | -53.3°C | 3.8% | 36.8hPa | 2.6V | 03:06:00 | 02:44:18 | 00:00:00 | |
| AA1-15 | 2026-08-30 12:41:30 | 53.05641 | 10.97652 | 103° | 33km/h | 22963m | -21.9m/s | -53.3°C | 0.3% | 37hPa | 2.6V | 03:06:15 | 02:44:20 | 00:00:00 | |
| DO9LL-15 | 2026-08-30 12:41:30 | 53.05638 | 10.97666 | 114° | 31km/h | 22942m | -22.0m/s | -53.2°C | 3.8% | 37.2hPa | 2.6V | 00:00:00 | 02:44:21 | 00:00:00 | |
| DL3AQ-11 | 2026-08-30 12:41:28 | 53.05642 | 10.97625 | 81° | 31km/h | 23006m | -22.2m/s | -53.3°C | 0.9% | 36.8hPa | 2.6V | 00:00:00 | 00:00:00 | 00:00:00 | |
| DL1NUX | 2026-08-30 12:41:26 | 53.05611 | 10.97573 | 5° | 29km/h | 23138m | -22.4m/s | -53.2°C | 3.7% | 36.1hPa | 2.6V | 03:06:06 | 02:44:12 | 00:00:00 | |
| DF8AY | 2026-08-30 12:41:26 | 53.05640 | 10.97611 | 71° | 33km/h | 23028m | -22.1m/s | -53.2°C | 0.3% | 36.7hPa | 2.7V | 03:06:15 | 02:44:17 | 00:00:00 | |
| BIOWL1-15 | 2026-08-30 12:41:25 | 53.05618 | 10.97575 | 17° | 31km/h | 23116m | -22.3m/s | -53.2°C | 0.2% | 36.1hPa | 2.6V | 03:07:06 | 02:44:13 | 00:00:00 | |
| HSKMA3-T | 2026-08-30 12:41:25 | 53.05632 | 10.97589 | 44° | 31km/h | 23071m | -22.1m/s | -53.2°C | 0.2% | 36.4hPa | 2.7V | 03:06:15 | 02:44:15 | 00:00:00 | |
| DM0DOS-11 | 2026-08-30 12:41:24 | 53.05626 | 10.97581 | 30° | 31km/h | 23093m | -22.4m/s | -53.2°C | 3.7% | 36.3hPa | 2.7V | 03:06:04 | 02:44:14 | 00:00:00 | |
| DB0UT-7 | 2026-08-30 12:41:24 | 53.05632 | 10.97588 | 45° | 29km/h | 23072m | -22.1m/s | -53.2°C | 3.7% | 36.4hPa | 2.6V | 00:00:00 | 02:44:15 | 00:00:00 | |
| DO2SHX-10 | 2026-08-30 12:41:22 | 53.05618 | 10.97575 | 18° | 29km/h | 23116m | -22.2m/s | -53.1°C | 3.7% | 36.1hPa | 2.6V | 03:06:00 | 02:44:13 | 00:00:00 | |
| DL1XH1-15 | 2026-08-30 12:41:21 | 53.05582 | 10.97590 | 319° | 35km/h | 23227m | -21.8m/s | -53.1°C | 3.7% | 35.6hPa | 2.7V | 03:06:10 | 02:44:08 | 00:00:00 | |
| AA1-15 | 2026-08-30 12:41:19 | 53.05596 | 10.97576 | 339° | 31km/h | 23182m | -22.4m/s | -53.1°C | 0.2% | 35.8hPa | 2.7V | 03:06:15 | 02:44:10 | 00:00:00 | |
| DL1XH-15 | 2026-08-30 12:41:19 | 53.05576 | 10.97601 | 309° | 35km/h | 23249m | -21.9m/s | -53.1°C | 3.7% | 35.5hPa | 2.6V | 03:06:11 | 02:44:07 | 00:00:00 | |
| DO2SHX-10 | 2026-08-30 12:41:19 | 53.05596 | 10.97576 | 340° | 33km/h | 23182m | -22.4m/s | -53.1°C | 3.7% | 35.8hPa | 2.7V | 00:00:00 | 02:44:10 | 00:00:00 | |
| DM0DOS-11 | 2026-08-30 12:41:18 | 53.05565 | 10.97639 | 282° | 33km/h | 23314m | -22.2m/s | -53.2°C | 3.7% | 35.1hPa | 2.7V | 03:06:14 | 02:44:04 | 00:00:00 | |
| DF8AY | 2026-08-30 12:41:15 | 53.05571 | 10.97613 | 299° | 35km/h | 23270m | -21.9m/s | -53.1°C | 0.2% | 35.3hPa | 2.6V | 03:06:15 | 02:44:06 | 00:00:00 | |
| DL1XH-west | 2026-08-30 12:41:13 | 53.05565 | 10.97639 | 283° | 33km/h | 23314m | -22.2m/s | -53.2°C | 0.2% | 35.1hPa | 2.7V | 03:06:15 | 02:44:04 | 00:00:00 | |
| BIOWL1-15 | 2026-08-30 12:41:11 | 53.05600 | 10.97682 | 126° | 24km/h | 23536m | -21.7m/s | -53.7°C | 0.3% | 33.9hPa | 2.7V | 03:07:06 | 02:43:54 | 00:00:00 | |
| DL1XH1-15 | 2026-08-30 12:41:11 | 53.05580 | 10.97695 | 194° | 22km/h | 23447m | -22.2m/s | -53.4°C | 3.8% | 34.3hPa | 2.6V | 03:06:20 | 02:43:58 | 00:00:00 | |
| AA1-15 | 2026-08-30 12:41:09 | 53.05575 | 10.97692 | 213° | 24km/h | 23425m | -21.9m/s | -53.3°C | 0.3% | 34.5hPa | 2.6V | 03:07:06 | 02:43:59 | 00:00:00 | |
| 13BRC | 2026-08-30 12:41:08 | 53.05570 | 10.97685 | 230° | 24km/h | 23403m | -22.4m/s | -53.4°C | 0.9% | 34.6hPa | 2.6V | 03:07:00 | 00:00:00 | 00:00:00 | |
| DL1XH-15 | 2026-08-30 12:41:07 | 53.05585 | 10.97696 | 175° | 22km/h | 23469m | -22.2m/s | -53.5°C | 3.8% | 34.2hPa | 2.6V | 03:06:21 | 02:43:57 | 00:00:00 | |
| DO2SHX-10 | 2026-08-30 12:41:07 | 53.05580 | 10.97695 | 195° | 22km/h | 23448m | -22.2m/s | -53.3°C | 3.8% | 34.3hPa | 2.7V | 00:00:00 | 02:43:58 | 00:00:00 | |
| SP3WXH-11 | 2026-08-30 12:41:06 | 53.05591 | 10.97694 | 155° | 24km/h | 23492m | -22.1m/s | -53.6°C | 0.9% | 34.1hPa | 2.7V | 00:00:00 | 00:00:00 | 00:00:00 | |
| DM0DOS-11 | 2026-08-30 12:41:05 | 53.05600 | 10.97682 | 126° | 24km/h | 23536m | -21.7m/s | -53.6°C | 3.9% | 33.9hPa | 2.7V | 03:06:24 | 02:43:54 | 00:00:00 | |
| DF8AY | 2026-08-30 12:41:04 | 53.05596 | 10.97689 | 141° | 24km/h | 23513m | -22.6m/s | -53.6°C | 0.3% | 34hPa | 2.7V | 03:07:06 | 02:43:55 | 00:00:00 | |
| DL1XH-west | 2026-08-30 12:41:02 | 53.05603 | 10.97673 | 116° | 26km/h | 23558m | -22.8m/s | -53.7°C | 0.4% | 33.8hPa | 2.7V | 03:07:06 | 02:43:53 | 00:00:00 | |
| DL1XH-15 | 2026-08-30 12:41:01 | 53.05591 | 10.97616 | 30° | 31km/h | 23694m | -23.3m/s | -53.5°C | 3.9% | 33hPa | 2.7V | 03:06:31 | 02:43:47 | 00:00:00 | |
| BIOWL1-15 | 2026-08-30 12:41:00 | 53.05602 | 10.97632 | 57° | 27km/h | 23648m | -23.2m/s | -53.6°C | 0.4% | 33.3hPa | 2.6V | 03:07:06 | 02:43:49 | 00:00:00 | |
| AA1-15 | 2026-08-30 12:40:57 | 53.05584 | 10.97610 | 23° | 35km/h | 23717m | -22.7m/s | -53.4°C | 0.4% | 33hPa | 2.7V | 03:07:06 | 02:43:46 | 00:00:00 | |
| SMARD9-15 | 2026-08-30 12:40:57 | 53.05591 | 10.97616 | 30° | 31km/h | 23695m | -23.3m/s | -53.5°C | 0.9% | 33.0hPa | 2.7V | 00:00:00 | 00:00:00 | 00:00:00 | |
| DB0DAN | 2026-08-30 12:40:55 | 53.05584 | 10.97610 | 23° | 33km/h | 23717m | -22.7m/s | -53.4°C | 0.9% | 32.95hPa | 2.7V | 00:00:00 | 00:00:00 | 00:00:00 | |
| DF8AY | 2026-08-30 12:40:54 | 53.05575 | 10.97606 | 12° | 37km/h | 23740m | -22.8m/s | -53.3°C | 0.4% | 32.8hPa | 2.7V | 03:07:06 | 02:43:45 | 00:00:00 | |
| HSKMA3-T | 2026-08-30 12:40:52 | 53.05557 | 10.97605 | 354° | 37km/h | 23787m | -24m/s | -53.1°C | 0.3% | 32.6hPa | 2.6V | 03:07:06 | 02:43:43 | 00:00:00 | |
| DL1XH-15 | 2026-08-30 12:40:51 | 53.05511 | 10.97645 | 304° | 31km/h | 23928m | -23.1m/s | -52.4°C | 3.6% | 31.9hPa | 2.7V | 03:06:41 | 02:43:37 | 00:00:00 | |
| BIOWL1-15 | 2026-08-30 12:40:47 | 53.05509 | 10.97686 | 240° | 24km/h | 24020m | -23.1m/s | -52.3°C | 0.1% | 31.4hPa | 2.6V | 03:07:06 | 02:43:33 | 00:00:00 | |
| AA1-15 | 2026-08-30 12:40:46 | 53.05508 | 10.97656 | 291° | 27km/h | 23951m | -23.1m/s | -52.3°C | 0.2% | 31.7hPa | 2.7V | 03:07:06 | 02:43:36 | 00:00:00 | |
| DM0DOS-11 | 2026-08-30 12:40:45 | 53.05507 | 10.97677 | 258° | 24km/h | 23997m | -23.2m/s | -52.3°C | 3.5% | 31.5hPa | 2.7V | 03:06:44 | 02:43:34 | 00:00:00 | |
| DF8AY | 2026-08-30 12:40:44 | 53.05507 | 10.97667 | 276° | 26km/h | 23974m | -22.9m/s | -52.3°C | 0.2% | 31.7hPa | 2.7V | 03:07:06 | 02:43:35 | 00:00:00 | |
| DL1XH-west | 2026-08-30 12:40:41 | 53.05513 | 10.97694 | 222° | 26km/h | 24043m | -23.2m/s | -52.5°C | 0.1% | 31.3hPa | 2.6V | 03:07:06 | 02:43:32 | 00:00:00 | |
| DL1XH-15 | 2026-08-30 12:40:41 | 53.05549 | 10.97708 | 173° | 33km/h | 24160m | -23.4m/s | -52.8°C | 3.6% | 30.7hPa | 2.6V | 03:06:51 | 02:43:27 | 00:00:00 | |
| DB0DAN | 2026-08-30 12:40:40 | 53.05518 | 10.97700 | 209° | 26km/h | 24067m | -23.4m/s | -52.5°C | 0.8% | 31.18hPa | 2.7V | 00:00:00 | 00:00:00 | 00:00:00 | |
| HSKMA3-T | 2026-08-30 12:40:37 | 53.05540 | 10.97709 | 182° | 33km/h | 24137m | -23.5m/s | -52.7°C | 0.1% | 30.8hPa | 2.6V | 03:07:06 | 02:43:28 | 00:00:00 | |
| BIOWL1-15 | 2026-08-30 12:40:36 | 53.05549 | 10.97708 | 173° | 33km/h | 24160m | -23.4m/s | -52.8°C | 0.2% | 30.7hPa | 2.6V | 03:07:06 | 02:43:27 | 00:00:00 | |
| DM0DOS-11 | 2026-08-30 12:40:35 | 53.05573 | 10.97693 | 144° | 35km/h | 24231m | -23.6m/s | -52.9°C | 3.7% | 30.4hPa | 2.7V | 03:06:54 | 02:43:24 | 00:00:00 | |
| AA1-15 | 2026-08-30 12:40:35 | 53.05557 | 10.97705 | 162° | 35km/h | 24184m | -23.6m/s | -52.9°C | 0.1% | 30.6hPa | 2.7V | 03:07:06 | 02:43:26 | 00:00:00 | |
| DF8AY | 2026-08-30 12:40:34 | 53.05565 | 10.97700 | 154° | 35km/h | 24207m | -23.7m/s | -52.9°C | 0.2% | 30.5hPa | 2.7V | 03:07:06 | 02:43:25 | 00:00:00 | |
| DO2SHX-10 | 2026-08-30 12:40:34 | 53.05565 | 10.97700 | 155° | 35km/h | 24208m | -23.7m/s | -52.8°C | 3.7% | 30.5hPa | 2.7V | 03:06:00 | 02:43:25 | 00:00:00 | |
| EDDB2-12 | 2026-08-30 12:40:33 | 53.05573 | 10.97693 | 144° | 35km/h | 24231m | -23.6m/s | -52.9°C | 0.9% | 30.4hPa | 2.7V | 00:00:00 | 00:00:00 | 00:00:00 | |
| DL1LOL-11 | 2026-08-30 12:40:32 | 53.05579 | 10.97683 | 136° | 37km/h | 24255m | -23.7m/s | -52.9°C | 0.9% | 30.3hPa | 2.7V | 00:00:00 | 00:00:00 | 00:00:00 | |
| DF7ER-10 | 2026-08-30 12:40:31 | 53.05579 | 10.97683 | 136° | 37km/h | 24255m | -23.7m/s | -52.9°C | 0.9% | 30.3hPa | 2.7V | 03:07:00 | 00:00:00 | 00:00:00 | |
| DL1XH-west | 2026-08-30 12:40:31 | 53.05585 | 10.97671 | 125° | 37km/h | 24279m | -23.7m/s | -52.9°C | 0.2% | 30.2hPa | 2.6V | 03:07:06 | 02:43:22 | 00:00:00 | |
| DL1XH1-15 | 2026-08-30 12:40:30 | 53.05594 | 10.97618 | 79° | 29km/h | 24374m | -23.9m/s | -52.9°C | 3.8% | 29.7hPa | 2.7V | 03:07:00 | 02:43:18 | 00:00:00 | |
| SMARD9-10 | 2026-08-30 12:40:30 | 53.05590 | 10.97658 | 116° | 37km/h | 24302m | -23.7m/s | -52.8°C | 0.9% | 30.1hPa | 2.7V | 00:00:00 | 00:00:00 | 00:00:00 | |
| BUE01 | 2026-08-30 12:40:29 | 53.05595 | 10.97631 | 94° | 31km/h | 24350m | -23.8m/s | -52.9°C | 0.9% | 29.9hPa | 2.7V | 00:00:00 | 00:00:00 | 00:00:00 | |
| DM0DOS-11 | 2026-08-30 12:40:28 | 53.05577 | 10.97586 | 15° | 27km/h | 24471m | -24.7m/s | -52.7°C | 3.7% | 29.3hPa | 2.7V | 03:07:04 | 02:43:14 | 00:00:00 | |
| HSKMA3-T | 2026-08-30 12:40:26 | 53.05592 | 10.97607 | 65° | 27km/h | 24398m | -24.3m/s | -52.8°C | 0.2% | 29.6hPa | 2.6V | 03:07:06 | 02:43:17 | 00:00:00 | |
| BIOWL1-15 | 2026-08-30 12:40:25 | 53.05548 | 10.97598 | 322° | 35km/h | 24569m | -23.8m/s | -52.9°C | 0.4% | 28.9hPa | 2.6V | 03:07:57 | 02:43:10 | 00:00:00 | |
| AA1-15 | 2026-08-30 12:40:25 | 53.05583 | 10.97590 | 32° | 27km/h | 24446m | -24.4m/s | -52.7°C | 0.2% | 29.4hPa | 2.7V | 03:07:06 | 02:43:15 | 00:00:00 | |
| DF8AY | 2026-08-30 12:40:23 | 53.05577 | 10.97586 | 15° | 27km/h | 24471m | -24.7m/s | -52.7°C | 0.2% | 29.3hPa | 2.7V | 03:07:06 | 02:43:14 | 00:00:00 | |
| DO2SHX-10 | 2026-08-30 12:40:22 | 53.05570 | 10.97584 | 2° | 31km/h | 24496m | -24.6m/s | -52.7°C | 3.8% | 29.1hPa | 2.7V | 03:07:00 | 02:43:13 | 00:00:00 | |
| DL1XH-15 | 2026-08-30 12:40:21 | 53.05534 | 10.97635 | 287° | 37km/h | 24641m | -24.3m/s | -53.1°C | 4% | 28.5hPa | 2.7V | 03:07:11 | 02:43:07 | 00:00:00 | |
| DL1XH-west | 2026-08-30 12:40:21 | 53.05563 | 10.97585 | 345° | 31km/h | 24521m | -24.7m/s | -52.9°C | 0.4% | 29hPa | 2.7V | 03:07:06 | 02:43:12 | 00:00:00 | |
| BIOWL1-15 | 2026-08-30 12:40:17 | 53.05532 | 10.97650 | 278° | 37km/h | 24665m | -23.8m/s | -52.9°C | 0.4% | 28.4hPa | 2.6V | 03:07:57 | 02:43:06 | 00:00:00 | |
| HSKMA3-T | 2026-08-30 12:40:16 | 53.05534 | 10.97635 | 288° | 37km/h | 24641m | -24.3m/s | -53.1°C | 0.4% | 28.5hPa | 2.7V | 03:07:57 | 02:43:07 | 00:00:00 | |
| DO2SHX-10 | 2026-08-30 12:40:16 | 53.05534 | 10.97635 | 288° | 37km/h | 24641m | -24.3m/s | -53.0°C | 4.0% | 28.5hPa | 2.7V | 00:00:00 | 02:43:07 | 00:00:00 | |
| DM0DOS-11 | 2026-08-30 12:40:15 | 53.05533 | 10.97680 | 256° | 35km/h | 24713m | -24.2m/s | -52.6°C | 3.8% | 28.2hPa | 2.7V | 03:07:14 | 02:43:04 | 00:00:00 | |
| DL1NUX | 2026-08-30 12:40:15 | 53.05531 | 10.97665 | 265° | 37km/h | 24689m | -23.8m/s | -52.7°C | 3.8% | 28.3hPa | 2.6V | 03:07:13 | 02:43:05 | 00:00:00 | |
| AA1-15 | 2026-08-30 12:40:13 | 53.05533 | 10.97680 | 256° | 35km/h | 24713m | -24.2m/s | -52.6°C | 0.3% | 28.2hPa | 2.7V | 03:07:57 | 02:43:04 | 00:00:00 | |
| DF8AY | 2026-08-30 12:40:13 | 53.05536 | 10.97694 | 246° | 35km/h | 24737m | -24.1m/s | -52.6°C | 0.2% | 28.1hPa | 2.7V | 03:07:57 | 02:43:03 | 00:00:00 | |
| DO2SHX-10 | 2026-08-30 12:40:13 | 53.05533 | 10.97680 | 257° | 35km/h | 24713m | -24.2m/s | -52.6°C | 3.8% | 28.1hPa | 2.7V | 00:00:00 | 02:43:04 | 00:00:00 | |
| DF8AY-15 | 2026-08-30 12:40:12 | 53.05536 | 10.97694 | 246° | 35km/h | 24737m | -24.0m/s | -52.5°C | 3.7% | 28.0hPa | 2.7V | 03:07:00 | 02:43:03 | 00:00:00 | |
| DL1XH-15 | 2026-08-30 12:40:11 | 53.05572 | 10.97729 | 164° | 24km/h | 24884m | -24.9m/s | -51.9°C | 3.5% | 27.4hPa | 2.7V | 03:07:21 | 02:42:57 | 00:00:00 | |
| DL1XH-west | 2026-08-30 12:40:10 | 53.05546 | 10.97716 | 222° | 31km/h | 24785m | -24.6m/s | -52.5°C | 0.2% | 27.9hPa | 2.7V | 03:07:57 | 02:43:01 | 00:00:00 | |
| DB0DAN | 2026-08-30 12:40:10 | 53.05546 | 10.97716 | 222° | 29km/h | 24785m | -24.6m/s | -52.5°C | 0.9% | 27.9hPa | 2.7V | 00:00:00 | 00:00:00 | 00:00:00 | |
| DO2SHX-10 | 2026-08-30 12:40:10 | 53.05545 | 10.97716 | 222° | 29km/h | 24786m | -24.6m/s | -52.4°C | 3.7% | 27.9hPa | 2.7V | 03:07:00 | 02:43:01 | 00:00:00 | |
| DL1NUX | 2026-08-30 12:40:09 | 53.05582 | 10.97717 | 126° | 27km/h | 24934m | -25.6m/s | -51.7°C | 3.4% | 27.3hPa | 2.6V | 03:07:23 | 02:42:55 | 00:00:00 | |
| HSKMA3-T | 2026-08-30 12:40:06 | 53.05572 | 10.97729 | 165° | 24km/h | 24884m | -24.9m/s | -51.9°C | 0.1% | 27.5hPa | 2.7V | 03:07:57 | 02:42:57 | 00:00:00 | |
| DM0DOS-11 | 2026-08-30 12:40:05 | 53.05586 | 10.97706 | 111° | 31km/h | 24960m | -25.7m/s | -51.7°C | 3.4% | 27.2hPa | 2.6V | 03:07:24 | 02:42:54 | 00:00:00 | |
| BIOWL1-15 | 2026-08-30 12:40:05 | 53.05577 | 10.97724 | 145° | 26km/h | 24909m | -25.7m/s | -51.8°C | 0.1% | 27.4hPa | 2.7V | 03:07:57 | 02:42:56 | 00:00:00 | |
| AA1-15 | 2026-08-30 12:40:03 | 53.05586 | 10.97706 | 111° | 31km/h | 24960m | -25.7m/s | -51.7°C | 0.1% | 27.2hPa | 2.6V | 03:07:57 | 02:42:54 | 00:00:00 | |
| DF8AY | 2026-08-30 12:40:02 | 53.05589 | 10.97678 | 88° | 38km/h | 25011m | -25.1m/s | -51.8°C | 0.2% | 26.9hPa | 2.7V | 03:07:57 | 02:42:52 | 00:00:00 | |
| DL1XH-west | 2026-08-30 12:39:59 | 53.05584 | 10.97644 | 69° | 44km/h | 25061m | -25m/s | -52.1°C | 0.3% | 26.7hPa | 2.7V | 03:07:57 | 02:42:50 | 00:00:00 | |
| DL1XH1-15 | 2026-08-30 12:39:59 | 53.05573 | 10.97612 | 51° | 46km/h | 25112m | -25.4m/s | -52.3°C | 3.9% | 26.5hPa | 2.6V | 03:07:30 | 02:42:48 | 00:00:00 | |
| DF8AY | 2026-08-30 12:39:56 | 53.05522 | 10.97577 | 332° | 26km/h | 25265m | -25.6m/s | -51.9°C | 0.2% | 25.9hPa | 2.7V | 03:07:57 | 02:42:42 | 00:00:00 | |
| DF7PN | 2026-08-30 12:39:56 | 53.05556 | 10.97586 | 31° | 42km/h | 25163m | -26.1m/s | -52.0°C | 0.8% | 26.3hPa | 2.7V | 00:00:00 | 00:00:00 | 00:00:00 | |
| DM0DOS-11 | 2026-08-30 12:39:55 | 53.05537 | 10.97574 | 8° | 37km/h | 25214m | -25.5m/s | -51.8°C | 3.6% | 26.1hPa | 2.7V | 03:07:34 | 02:42:44 | 00:00:00 | |
| HSKMA3-T | 2026-08-30 12:39:55 | 53.05556 | 10.97586 | 32° | 44km/h | 25163m | -26.1m/s | -52°C | 0.2% | 26.3hPa | 2.6V | 03:07:57 | 02:42:46 | 00:00:00 | |
| DL1NUX | 2026-08-30 12:39:55 | 53.05546 | 10.97578 | 20° | 40km/h | 25189m | -25.6m/s | -51.9°C | 3.6% | 26.2hPa | 2.7V | 03:07:33 | 02:42:45 | 00:00:00 | |
| AA1-15 | 2026-08-30 12:39:53 | 53.05529 | 10.97574 | 353° | 31km/h | 25240m | -25.5m/s | -51.9°C | 0.2% | 26hPa | 2.7V | 03:07:57 | 02:42:43 | 00:00:00 | |
| DL1XH1-15 | 2026-08-30 12:39:52 | 53.05519 | 10.97621 | 243° | 38km/h | 25368m | -26.3m/s | -51.6°C | 3.5% | 25.5hPa | 2.7V | 03:07:40 | 02:42:38 | 00:00:00 | |
| DO2SHX-10 | 2026-08-30 12:39:52 | 53.05529 | 10.97574 | 353° | 27km/h | 25240m | -25.5m/s | -51.8°C | 3.6% | 25.9hPa | 2.7V | 00:00:00 | 02:42:43 | 00:00:00 | |
| DL1XH-15 | 2026-08-30 12:39:51 | 53.05525 | 10.97635 | 232° | 44km/h | 25394m | -26.2m/s | -51.6°C | 3.5% | 25.4hPa | 2.7V | 03:07:41 | 02:42:37 | 00:00:00 | |
| DL1XH-west | 2026-08-30 12:39:49 | 53.05516 | 10.97595 | 277° | 27km/h | 25316m | -25.7m/s | -51.8°C | 0.2% | 25.7hPa | 2.6V | 03:07:57 | 02:42:40 | 00:00:00 | |
| DO3MHA-11 | 2026-08-30 12:39:49 | 53.05516 | 10.97595 | 278° | 46km/h | 25317m | -25.7m/s | -51.7°C | 3.6% | 25.6hPa | 2.6V | 00:00:00 | 02:42:40 | 00:00:00 | |
| SMARD9-10 | 2026-08-30 12:39:48 | 53.05516 | 10.97595 | 278° | 27km/h | 25317m | -25.7m/s | -51.8°C | 0.8% | 25.7hPa | 2.6V | 00:00:00 | 00:00:00 | 00:00:00 | |
| DL1LOL-11 | 2026-08-30 12:39:47 | 53.05519 | 10.97621 | 244° | 38km/h | 25369m | -26.3m/s | -51.6°C | 0.8% | 25.5hPa | 2.6V | 03:07:00 | 00:00:00 | 00:00:00 | |
| DO2SHX-10 | 2026-08-30 12:39:46 | 53.05525 | 10.97635 | 233° | 47km/h | 25395m | -26.2m/s | -51.6°C | 3.5% | 25.3hPa | 2.6V | 03:07:00 | 02:42:37 | 00:00:00 | |
| DM0DOS-11 | 2026-08-30 12:39:45 | 53.05553 | 10.97674 | 207° | 53km/h | 25474m | -26.3m/s | -51.5°C | 3.5% | 25hPa | 2.6V | 03:07:44 | 02:42:34 | 00:00:00 | |
| HSKMA3-T | 2026-08-30 12:39:44 | 53.05542 | 10.97662 | 215° | 51km/h | 25447m | -26.8m/s | -51.4°C | 0.1% | 25.2hPa | 2.6V | 03:07:57 | 02:42:35 | 00:00:00 | |
| AA1-15 | 2026-08-30 12:39:42 | 53.05566 | 10.97682 | 199° | 53km/h | 25500m | -26.3m/s | -51.5°C | 0.1% | 25hPa | 2.7V | 03:07:57 | 02:42:33 | 00:00:00 | |
| DF8AY | 2026-08-30 12:39:41 | 53.05591 | 10.97690 | 180° | 49km/h | 25553m | -26.7m/s | -51.3°C | 0.2% | 24.8hPa | 2.7V | 03:07:57 | 02:42:31 | 00:00:00 | |
| DL1XH-15 | 2026-08-30 12:39:41 | 53.05626 | 10.97666 | 124° | 29km/h | 25662m | -27.2m/s | -51.2°C | 3.6% | 24.4hPa | 2.7V | 03:07:51 | 02:42:27 | 00:00:00 | |
| DB0DAN | 2026-08-30 12:39:40 | 53.05591 | 10.97690 | 180° | 46km/h | 25553m | -26.7m/s | -51.3°C | 0.8% | 24.75hPa | 2.7V | 00:00:00 | 00:00:00 | 00:00:00 | |
| DL1XH-west | 2026-08-30 12:39:39 | 53.05603 | 10.97688 | 169° | 44km/h | 25580m | -27.3m/s | -51.3°C | 0.2% | 24.7hPa | 2.6V | 03:07:57 | 02:42:30 | 00:00:00 | |
| HSKMA3-T | 2026-08-30 12:39:34 | 53.05628 | 10.97644 | 74° | 27km/h | 25717m | -27.7m/s | -51.4°C | 0.2% | 24.2hPa | 2.7V | 03:07:57 | 02:42:25 | 00:00:00 | |
| BIOWL1-15 | 2026-08-30 12:39:33 | 53.05590 | 10.97610 | 1° | 46km/h | 25854m | -27.4m/s | -51.2°C | 0.2% | 23.6hPa | 2.7V | 03:08:48 | 02:42:20 | 00:00:00 | |
| AA1-15 | 2026-08-30 12:39:32 | 53.05619 | 10.97625 | 36° | 35km/h | 25773m | -27.4m/s | -51.4°C | 0.2% | 24hPa | 2.6V | 03:07:57 | 02:42:23 | 00:00:00 | |
| DL1XH1-15 | 2026-08-30 12:39:32 | 53.05568 | 10.97616 | 338° | 46km/h | 25909m | -27.2m/s | -51°C | 3.5% | 23.4hPa | 2.6V | 03:08:00 | 02:42:18 | 00:00:00 | |
| DF8AY | 2026-08-30 12:39:29 | 53.05549 | 10.97637 | 314° | 44km/h | 25963m | -27.7m/s | -50.9°C | 0.1% | 23.3hPa | 2.7V | 03:08:48 | 02:42:16 | 00:00:00 | |
| DL1XH-west | 2026-08-30 12:39:28 | 53.05579 | 10.97611 | 351° | 46km/h | 25881m | -27m/s | -51°C | 0.2% | 23.6hPa | 2.6V | 03:08:48 | 02:42:19 | 00:00:00 | |
| DF7ER-10 | 2026-08-30 12:39:28 | 53.05579 | 10.97611 | 352° | 46km/h | 25882m | -27.0m/s | -51.0°C | 0.8% | 23.6hPa | 2.7V | 03:08:00 | 00:00:00 | 00:00:00 | |
| AM1SDL-15 | 2026-08-30 12:39:27 | 53.05568 | 10.97616 | 339° | 38km/h | 25909m | -27.2m/s | -50.9°C | 3.5% | 23.4hPa | 2.7V | 00:00:00 | 02:42:18 | 00:00:00 | |
| DM0DOS-11 | 2026-08-30 12:39:25 | 53.05538 | 10.97666 | 286° | 38km/h | 26019m | -27.5m/s | -50.8°C | 3.4% | 23.1hPa | 2.7V | 03:08:04 | 02:42:14 | 00:00:00 | |
| HSKMA3-T | 2026-08-30 12:39:24 | 53.05542 | 10.97650 | 301° | 42km/h | 25991m | -28.1m/s | -50.9°C | 0.1% | 23.1hPa | 2.7V | 03:08:48 | 02:42:15 | 00:00:00 | |
| AA1-15 | 2026-08-30 12:39:22 | 53.05538 | 10.97695 | 249° | 33km/h | 26074m | -27.8m/s | -50.6°C | 0.1% | 22.9hPa | 2.6V | 03:08:48 | 02:42:12 | 00:00:00 | |
| BIOWL1-15 | 2026-08-30 12:39:19 | 53.05558 | 10.97720 | 193° | 37km/h | 26157m | -27.8m/s | -50.2°C | 0.1% | 22.6hPa | 2.7V | 03:08:48 | 02:42:09 | 00:00:00 | |
| DL1XH1-15 | 2026-08-30 12:39:19 | 53.05567 | 10.97722 | 177° | 38km/h | 26185m | -28.1m/s | -50°C | 3.5% | 22.5hPa | 2.7V | 03:08:10 | 02:42:08 | 00:00:00 | |
| DO2SHX-10 | 2026-08-30 12:39:19 | 53.05549 | 10.97715 | 210° | 37km/h | 26130m | -27.4m/s | -50.4°C | 3.5% | 22.6hPa | 2.7V | 00:00:00 | 02:42:10 | 00:00:00 | |
| DM0DOS-11 | 2026-08-30 12:39:18 | 53.05609 | 10.97672 | 114° | 44km/h | 26326m | -28.9m/s | -49.3°C | 3.3% | 22hPa | 2.7V | 03:08:15 | 02:42:03 | 00:00:00 | |
| DL1XH-west | 2026-08-30 12:39:18 | 53.05567 | 10.97722 | 178° | 38km/h | 26185m | -28.1m/s | -50°C | 0.2% | 22.5hPa | 2.7V | 03:08:48 | 02:42:08 | 00:00:00 | |
| DF8AY | 2026-08-30 12:39:14 | 53.05596 | 10.97701 | 139° | 46km/h | 26269m | -28.3m/s | -49.7°C | 0.1% | 22.2hPa | 2.7V | 03:08:48 | 02:42:05 | 00:00:00 | |
| HSKMA3-T | 2026-08-30 12:39:13 | 53.05603 | 10.97688 | 127° | 46km/h | 26297m | -28.5m/s | -49.5°C | 0.1% | 22.1hPa | 2.7V | 03:08:48 | 02:42:04 | 00:00:00 | |
| DK7RCA | 2026-08-30 12:39:13 | 53.05603 | 10.97688 | 128° | 46km/h | 26298m | -28.5m/s | -49.5°C | 0.8% | 22.1hPa | 2.7V | 03:08:00 | 00:00:00 | 00:00:00 | |
| DF8AY-15 | 2026-08-30 12:39:12 | 53.05609 | 10.97671 | 115° | 42km/h | 26326m | -28.8m/s | -49.3°C | 3.3% | 21.9hPa | 2.7V | 00:00:00 | 02:42:03 | 00:00:00 | |
| DL1XH-15 | 2026-08-30 12:39:11 | 53.05592 | 10.97588 | 19° | 38km/h | 26499m | -28.8m/s | -49°C | 3.2% | 21.4hPa | 2.7V | 03:08:21 | 02:41:57 | 00:00:00 | |
| AA1-15 | 2026-08-30 12:39:10 | 53.05613 | 10.97637 | 87° | 40km/h | 26384m | -29.1m/s | -49.1°C | 0% | 21.8hPa | 2.6V | 03:08:48 | 02:42:01 | 00:00:00 | |
| DB0DAN | 2026-08-30 12:39:10 | 53.05613 | 10.97637 | 87° | 38km/h | 26384m | -29.1m/s | -49.1°C | 0.7% | 21.81hPa | 2.6V | 00:00:00 | 00:00:00 | 00:00:00 | |
| BIOWL1-15 | 2026-08-30 12:39:09 | 53.05607 | 10.97607 | 54° | 38km/h | 26442m | -29.1m/s | -49°C | 0% | 21.6hPa | 2.7V | 03:08:48 | 02:41:59 | 00:00:00 | |
| DL1XH-west | 2026-08-30 12:39:06 | 53.05592 | 10.97588 | 19° | 38km/h | 26499m | -28.8m/s | -49.1°C | 0% | 21.4hPa | 2.7V | 03:08:48 | 02:41:57 | 00:00:00 | |
| DF7ER-10 | 2026-08-30 12:39:06 | 53.05600 | 10.97595 | 38° | 38km/h | 26471m | -28.6m/s | -49.0°C | 0.7% | 21.6hPa | 2.7V | 03:08:00 | 00:00:00 | 00:00:00 | |
| DM0DOS-11 | 2026-08-30 12:39:05 | 53.05553 | 10.97605 | 317° | 47km/h | 26615m | -28.9m/s | -48.8°C | 3% | 21hPa | 2.7V | 03:08:25 | 02:41:53 | 00:00:00 | |
| DF8AY | 2026-08-30 12:39:04 | 53.05572 | 10.97587 | 345° | 42km/h | 26557m | -29m/s | -48.9°C | 0% | 21.3hPa | 2.6V | 03:08:48 | 02:41:55 | 00:00:00 | |
| HSKMA3-T | 2026-08-30 12:39:02 | 53.05553 | 10.97605 | 317° | 47km/h | 26615m | -28.9m/s | -48.8°C | 0% | 21hPa | 2.7V | 03:08:48 | 02:41:53 | 00:00:00 | |
| AA1-15 | 2026-08-30 12:39:00 | 53.05539 | 10.97638 | 295° | 51km/h | 26672m | -28.8m/s | -48.5°C | 0% | 20.8hPa | 2.7V | 03:08:48 | 02:41:51 | 00:00:00 | |
| DB0NH | 2026-08-30 12:39:00 | 53.05539 | 10.97638 | 296° | 42km/h | 26672m | -28.8m/s | -48.5°C | 2.9% | 20.8hPa | 2.7V | 00:00:00 | 02:41:51 | 00:00:00 | |
| DL1XH1-15 | 2026-08-30 12:38:59 | 53.05533 | 10.97698 | 261° | 46km/h | 26760m | -29.8m/s | -48.3°C | 2.9% | 20.6hPa | 2.7V | 03:08:30 | 02:41:48 | 00:00:00 | |
| BIOWL1-15 | 2026-08-30 12:38:58 | 53.05546 | 10.97742 | 220° | 31km/h | 26850m | -30.4m/s | -48.4°C | 0% | 20.4hPa | 2.6V | 03:08:48 | 02:41:45 | 00:00:00 | |
| DL1XH-west | 2026-08-30 12:38:55 | 53.05541 | 10.97731 | 236° | 37km/h | 26820m | -30.4m/s | -48.4°C | 0% | 20.4hPa | 2.7V | 03:08:48 | 02:41:46 | 00:00:00 | |
| EDDB2-11 | 2026-08-30 12:38:54 | 53.05552 | 10.97748 | 202° | 26km/h | 26881m | -29.9m/s | -48.5°C | 0.7% | 20.2hPa | 2.7V | 00:00:00 | 00:00:00 | 00:00:00 | |
| DM0DOS-11 | 2026-08-30 12:38:53 | 53.05558 | 10.97750 | 174° | 20km/h | 26910m | -29.8m/s | -48.4°C | 3% | 20.1hPa | 2.7V | 03:08:35 | 02:41:43 | 00:00:00 | |
| DF8AY | 2026-08-30 12:38:53 | 53.05552 | 10.97748 | 202° | 26km/h | 26881m | -29.9m/s | -48.5°C | 0% | 20.2hPa | 2.6V | 03:08:48 | 02:41:44 | 00:00:00 | |
| SMARD9-15 | 2026-08-30 12:38:53 | 53.05558 | 10.97750 | 174° | 20km/h | 26910m | -29.8m/s | -48.4°C | 0.7% | 20.1hPa | 2.7V | 00:00:00 | 00:00:00 | 00:00:00 | |
| DO2SHX-10 | 2026-08-30 12:38:52 | 53.05558 | 10.97750 | 175° | 22km/h | 26910m | -29.8m/s | -48.4°C | 3.0% | 20.0hPa | 2.7V | 00:00:00 | 02:41:43 | 00:00:00 | |
| DL1XH-15 | 2026-08-30 12:38:51 | 53.05550 | 10.97684 | 44° | 51km/h | 27089m | -30.2m/s | -48.6°C | 3% | 19.6hPa | 2.7V | 03:08:41 | 02:41:37 | 00:00:00 | |
| HSKMA3-T | 2026-08-30 12:38:51 | 53.05562 | 10.97746 | 137° | 20km/h | 26940m | -29.8m/s | -48.4°C | 0% | 20.1hPa | 2.7V | 03:08:48 | 02:41:42 | 00:00:00 | |
| AA1-15 | 2026-08-30 12:38:49 | 53.05565 | 10.97728 | 83° | 31km/h | 26999m | -30.1m/s | -48.5°C | 0% | 19.9hPa | 2.7V | 03:08:48 | 02:41:40 | 00:00:00 | |
| BIOWL1-15 | 2026-08-30 12:38:48 | 53.05563 | 10.97714 | 67° | 38km/h | 27029m | -29.9m/s | -48.5°C | 0% | 19.8hPa | 2.6V | 03:08:48 | 02:41:39 | 00:00:00 | |
| DL1CLM-18 | 2026-08-30 12:38:48 | 53.05563 | 10.97714 | 68° | 38km/h | 27030m | -29.9m/s | -48.5°C | 0.7% | 19.8hPa | 2.7V | 03:08:00 | 00:00:00 | 00:00:00 | |
| BIOWL7-15 | 2026-08-30 12:38:47 | 53.05563 | 10.97714 | 68° | 38km/h | 27030m | -29.9m/s | -48.5°C | 0.7% | 19.8hPa | 2.7V | 00:00:00 | 00:00:00 | 00:00:00 | |
| DF7ER-10 | 2026-08-30 12:38:46 | 53.05549 | 10.97684 | 46° | 51km/h | 27090m | -30.2m/s | -48.6°C | 0.7% | 19.6hPa | 2.7V | 03:08:00 | 00:00:00 | 00:00:00 | |
| DL1NUX | 2026-08-30 12:38:45 | 53.05467 | 10.97646 | 346° | 58km/h | 27271m | -31.1m/s | -49.3°C | 3.1% | 19.1hPa | 2.7V | 03:08:47 | 02:41:31 | 00:00:00 | |
| DL1XH-west | 2026-08-30 12:38:44 | 53.05527 | 10.97658 | 26° | 60km/h | 27149m | -30.1m/s | -48.8°C | 0% | 19.4hPa | 2.7V | 03:08:48 | 02:41:35 | 00:00:00 | |
| DO9LL-15 | 2026-08-30 12:38:44 | 53.05527 | 10.97658 | 26° | 49km/h | 27150m | -30.1m/s | -48.8°C | 3.1% | 19.3hPa | 2.6V | 00:00:00 | 02:41:35 | 00:00:00 | |
| DM0DOS-11 | 2026-08-30 12:38:43 | 53.05497 | 10.97643 | 7° | 62km/h | 27210m | -30.6m/s | -49.2°C | 3.1% | 19.2hPa | 2.6V | 03:08:45 | 02:41:33 | 00:00:00 | |
| DF8AY | 2026-08-30 12:38:42 | 53.05497 | 10.97643 | 7° | 62km/h | 27210m | -30.6m/s | -49.2°C | 0% | 19.2hPa | 2.6V | 03:08:48 | 02:41:33 | 00:00:00 | |
| DC4HF-4 | 2026-08-30 12:38:42 | 53.05482 | 10.97642 | 357° | 60km/h | 27241m | -30.9m/s | -49.3°C | 0.7% | 19.1hPa | 2.6V | 00:00:00 | 00:00:00 | 00:00:00 | |
| DL1XH-15 | 2026-08-30 12:38:41 | 53.05426 | 10.97695 | 296° | 44km/h | 27395m | -31.1m/s | -49.2°C | 3.1% | 18.6hPa | 2.6V | 03:08:51 | 02:41:27 | 00:00:00 | |
| HSKMA3-T | 2026-08-30 12:38:40 | 53.05467 | 10.97646 | 346° | 58km/h | 27271m | -31.1m/s | -49.3°C | 0% | 19.1hPa | 2.7V | 03:08:48 | 02:41:31 | 00:00:00 | |
| DB0DAN | 2026-08-30 12:38:40 | 53.05467 | 10.97646 | 346° | 57km/h | 27271m | -31.1m/s | -49.3°C | 0.7% | 19.05hPa | 2.7V | 00:00:00 | 00:00:00 | 00:00:00 | |
| DO2SHX-10 | 2026-08-30 12:38:40 | 53.05467 | 10.97645 | 347° | 57km/h | 27272m | -31.0m/s | -49.3°C | 3.1% | 19.0hPa | 2.7V | 00:00:00 | 02:41:31 | 00:00:00 | |
| DL1XH1-15 | 2026-08-30 12:38:39 | 53.05433 | 10.97679 | 310° | 47km/h | 27364m | -30.8m/s | -49.2°C | 3.1% | 18.8hPa | 2.6V | 03:08:50 | 02:41:28 | 00:00:00 | |
| AA1-15 | 2026-08-30 12:38:38 | 53.05442 | 10.97665 | 323° | 53km/h | 27334m | -31.1m/s | -49.3°C | 0% | 18.9hPa | 2.7V | 03:09:39 | 02:41:29 | 00:00:00 | |
| BIOWL1-15 | 2026-08-30 12:38:37 | 53.05423 | 10.97711 | 282° | 38km/h | 27426m | -31.1m/s | -49.1°C | 0% | 18.6hPa | 2.7V | 03:09:39 | 02:41:26 | 00:00:00 | |
| DO2SHX-10 | 2026-08-30 12:38:37 | 53.05433 | 10.97679 | 311° | 44km/h | 27365m | -30.8m/s | -49.2°C | 3.1% | 18.7hPa | 2.7V | 00:00:00 | 02:41:28 | 00:00:00 | |
| DM0DOS-11 | 2026-08-30 12:38:35 | 53.05429 | 10.97749 | 221° | 29km/h | 27520m | -31.6m/s | -48.9°C | 3.2% | 18.3hPa | 2.7V | 03:08:55 | 02:41:23 | 00:00:00 | |
| DL1NUX | 2026-08-30 12:38:35 | 53.05441 | 10.97756 | 172° | 27km/h | 27584m | -32.3m/s | -48.9°C | 3.3% | 18.2hPa | 2.6V | 03:08:57 | 02:41:21 | 00:00:00 | |
| DL1XH-west | 2026-08-30 12:38:34 | 53.05422 | 10.97727 | 264° | 35km/h | 27457m | -31.6m/s | -49.1°C | 0% | 18.5hPa | 2.7V | 03:09:39 | 02:41:25 | 00:00:00 | |
| DF8AY | 2026-08-30 12:38:31 | 53.05435 | 10.97755 | 198° | 27km/h | 27552m | -31.9m/s | -48.9°C | 0% | 18.2hPa | 2.6V | 03:09:39 | 02:41:22 | 00:00:00 | |
| DL1XH-15 | 2026-08-30 12:38:31 | 53.05459 | 10.97715 | 89° | 42km/h | 27711m | -31.2m/s | -49°C | 3.4% | 17.8hPa | 2.7V | 03:09:01 | 02:41:17 | 00:00:00 | |
| HSKMA3-T | 2026-08-30 12:38:29 | 53.05448 | 10.97752 | 151° | 29km/h | 27616m | -32m/s | -48.9°C | 0% | 18.1hPa | 2.7V | 03:09:39 | 02:41:20 | 00:00:00 | |
| AA1-15 | 2026-08-30 12:38:27 | 53.05458 | 10.97731 | 108° | 37km/h | 27679m | -31.4m/s | -49°C | 0.1% | 17.9hPa | 2.7V | 03:09:39 | 02:41:18 | 00:00:00 | |
| BIOWL1-15 | 2026-08-30 12:38:25 | 53.05458 | 10.97696 | 76° | 49km/h | 27742m | -31.1m/s | -49°C | 0.1% | 17.7hPa | 2.6V | 03:09:39 | 02:41:16 | 00:00:00 | |
| DM0DOS-11 | 2026-08-30 12:38:25 | 53.05433 | 10.97637 | 41° | 66km/h | 27837m | -32.6m/s | -48.8°C | 3.3% | 17.5hPa | 2.7V | 03:09:05 | 02:41:13 | 00:00:00 | |
| DB0DAN | 2026-08-30 12:38:25 | 53.05458 | 10.97696 | 75° | 47km/h | 27742m | -31.1m/s | -49°C | 0.7% | 17.71hPa | 2.6V | 00:00:00 | 00:00:00 | 00:00:00 | |
| DL1XH-west | 2026-08-30 12:38:24 | 53.05445 | 10.97656 | 50° | 62km/h | 27805m | -32.1m/s | -48.9°C | 0% | 17.6hPa | 2.7V | 03:09:39 | 02:41:14 | 00:00:00 | |
| DF7PN | 2026-08-30 12:38:23 | 53.05433 | 10.97637 | 41° | 66km/h | 27837m | -32.6m/s | -48.8°C | 0.7% | 17.5hPa | 2.7V | 00:00:00 | 00:00:00 | 00:00:00 | |
| DO3MHA-11 | 2026-08-30 12:38:22 | 53.05433 | 10.97637 | 42° | 42km/h | 27838m | -32.6m/s | -48.8°C | 3.3% | 17.4hPa | 2.7V | 00:00:00 | 02:41:13 | 00:00:00 | |
| DL1XH-15 | 2026-08-30 12:38:21 | 53.05338 | 10.97592 | 348° | 57km/h | 28037m | -33.8m/s | -48.8°C | 3.4% | 16.9hPa | 2.7V | 03:09:11 | 02:41:07 | 00:00:00 | |
| DF8AY | 2026-08-30 12:38:20 | 53.05325 | 10.97598 | 337° | 49km/h | 28071m | -33m/s | -48.6°C | 0.1% | 16.9hPa | 2.7V | 03:09:39 | 02:41:06 | 00:00:00 | |
| HSKMA3-T | 2026-08-30 12:38:19 | 53.05387 | 10.97596 | 14° | 73km/h | 27936m | -33.8m/s | -48.7°C | 0% | 17.2hPa | 2.6V | 03:09:39 | 02:41:10 | 00:00:00 | |
| DL1XH1-15 | 2026-08-30 12:38:19 | 53.05353 | 10.97589 | 358° | 64km/h | 28004m | -34m/s | -48.8°C | 3.4% | 17hPa | 2.7V | 03:09:10 | 02:41:08 | 00:00:00 | |
| AA1-15 | 2026-08-30 12:38:17 | 53.05353 | 10.97589 | 358° | 64km/h | 28004m | -34m/s | -48.8°C | 0.1% | 17hPa | 2.7V | 03:09:39 | 02:41:08 | 00:00:00 | |
| BIOWL1-15 | 2026-08-30 12:38:14 | 53.05312 | 10.97640 | 229° | 29km/h | 28201m | -32.4m/s | -47.2°C | 0% | 16.5hPa | 2.7V | 03:09:39 | 02:41:02 | 00:00:00 | |
| DL1XH-west | 2026-08-30 12:38:13 | 53.05310 | 10.97618 | 296° | 29km/h | 28136m | -32.7m/s | -48°C | 0% | 16.7hPa | 2.6V | 03:09:39 | 02:41:04 | 00:00:00 | |
| DO2SHX-10 | 2026-08-30 12:38:13 | 53.05310 | 10.97618 | 296° | 29km/h | 28136m | -32.7m/s | -47.9°C | 3.1% | 16.7hPa | 2.6V | 00:00:00 | 02:41:04 | 00:00:00 | |
| DF8AY-15 | 2026-08-30 12:38:12 | 53.05308 | 10.97629 | 263° | 47km/h | 28169m | -32.6m/s | -47.6°C | 3.0% | 16.6hPa | 2.7V | 00:00:00 | 02:41:03 | 00:00:00 | |
| DL1XH-15 | 2026-08-30 12:38:11 | 53.05364 | 10.97641 | 154° | 55km/h | 28368m | -34.2m/s | -46.9°C | 2.9% | 16.1hPa | 2.7V | 03:09:21 | 02:40:57 | 00:00:00 | |
| DB0DAN | 2026-08-30 12:38:10 | 53.05318 | 10.97648 | 205° | 33km/h | 28234m | -32.9m/s | -47°C | 0.6% | 16.4hPa | 2.7V | 00:00:00 | 00:00:00 | 00:00:00 | |
| HSKMA3-T | 2026-08-30 12:38:08 | 53.05339 | 10.97653 | 176° | 49km/h | 28300m | -33.8m/s | -46.9°C | 0% | 16.2hPa | 2.6V | 03:09:39 | 02:40:59 | 00:00:00 | |
| DL3AQ-11 | 2026-08-30 12:38:08 | 53.05351 | 10.97649 | 164° | 53km/h | 28334m | -34.2m/s | -46.8°C | 0.6% | 16.1hPa | 2.6V | 00:00:00 | 00:00:00 | 00:00:00 | |
| DM0DOS-11 | 2026-08-30 12:38:07 | 53.05394 | 10.97574 | 92° | 47km/h | 28503m | -33.8m/s | -47.1°C | 3.1% | 15.7hPa | 2.6V | 03:09:25 | 02:40:53 | 00:00:00 | |
| AA1-15 | 2026-08-30 12:38:07 | 53.05351 | 10.97649 | 164° | 53km/h | 28334m | -34.2m/s | -46.8°C | 0% | 16.1hPa | 2.6V | 03:09:39 | 02:40:58 | 00:00:00 | |
| DF8AY | 2026-08-30 12:38:04 | 53.05385 | 10.97613 | 127° | 53km/h | 28436m | -34.2m/s | -47°C | 0% | 15.9hPa | 2.7V | 03:09:39 | 02:40:55 | 00:00:00 | |
| DO2SHX-10 | 2026-08-30 12:38:04 | 53.05385 | 10.97613 | 127° | 51km/h | 28436m | -34.1m/s | -47.0°C | 3.1% | 15.9hPa | 2.7V | 00:00:00 | 02:40:55 | 00:00:00 | |
| DL1NUX | 2026-08-30 12:38:03 | 53.05387 | 10.97537 | 52° | 49km/h | 28570m | -33.9m/s | -46.8°C | 3% | 15.6hPa | 2.7V | 03:09:27 | 02:40:51 | 00:00:00 | |
| DL1XH-west | 2026-08-30 12:38:03 | 53.05394 | 10.97574 | 93° | 47km/h | 28503m | -33.8m/s | -47.1°C | 0% | 15.7hPa | 2.6V | 03:09:39 | 02:40:53 | 00:00:00 | |
| DL1XH-15 | 2026-08-30 12:38:02 | 53.05340 | 10.97509 | 351° | 55km/h | 28707m | -34.9m/s | -46.3°C | 2.9% | 15.3hPa | 2.6V | 03:09:31 | 02:40:47 | 00:00:00 | |
| HSKMA3-T | 2026-08-30 12:37:58 | 53.05367 | 10.97513 | 20° | 53km/h | 28638m | -34.5m/s | -46.5°C | 0% | 15.5hPa | 2.7V | 03:09:39 | 02:40:49 | 00:00:00 | |
| AA1-15 | 2026-08-30 12:37:56 | 53.05340 | 10.97509 | 352° | 55km/h | 28707m | -34.9m/s | -46.3°C | 0% | 15.3hPa | 2.6V | 03:09:39 | 02:40:47 | 00:00:00 | |
| DB0DAN | 2026-08-30 12:37:55 | 53.05327 | 10.97515 | 339° | 51km/h | 28742m | -35.1m/s | -46.3°C | 0.6% | 15.15hPa | 2.6V | 00:00:00 | 00:00:00 | 00:00:00 | |
| DF8AY | 2026-08-30 12:37:54 | 53.05315 | 10.97525 | 326° | 51km/h | 28776m | -35.3m/s | -46.4°C | 0% | 15.1hPa | 2.7V | 03:09:39 | 02:40:45 | 00:00:00 | |
| BUE01 | 2026-08-30 12:37:54 | 53.05306 | 10.97605 | 205° | 31km/h | 28989m | -36.0m/s | -45.3°C | 0.5% | 14.6hPa | 2.7V | 00:00:00 | 00:00:00 | 00:00:00 | |
| DM0DOS-11 | 2026-08-30 12:37:53 | 53.05299 | 10.97554 | 295° | 42km/h | 28847m | -35.9m/s | -46.3°C | 3% | 14.9hPa | 2.7V | 03:09:35 | 02:40:43 | 00:00:00 | |
| DL1XH-west | 2026-08-30 12:37:53 | 53.05296 | 10.97569 | 277° | 37km/h | 28882m | -35.9m/s | -46°C | 0% | 14.9hPa | 2.7V | 03:09:39 | 02:40:42 | 00:00:00 | |
| HSKMA3-T | 2026-08-30 12:37:47 | 53.05314 | 10.97608 | 184° | 35km/h | 29025m | -35.5m/s | -45.1°C | 0% | 14.6hPa | 2.7V | 03:10:30 | 02:40:38 | 00:00:00 | |
| DO2SHX-10 | 2026-08-30 12:37:46 | 53.05323 | 10.97607 | 165° | 44km/h | 29060m | -35.0m/s | -45.0°C | 2.7% | 14.5hPa | 2.7V | 03:09:00 | 02:40:37 | 00:00:00 | |
| DL1NUX | 2026-08-30 12:37:45 | 53.05349 | 10.97499 | 75° | 60km/h | 29273m | -37.5m/s | -44°C | 2.5% | 14hPa | 2.7V | 03:09:47 | 02:40:31 | 00:00:00 | |
| AA1-15 | 2026-08-30 12:37:45 | 53.05332 | 10.97600 | 145° | 42km/h | 29094m | -35.3m/s | -44.8°C | 0% | 14.4hPa | 2.6V | 03:10:30 | 02:40:36 | 00:00:00 | |
| DF8AY | 2026-08-30 12:37:43 | 53.05347 | 10.97569 | 114° | 53km/h | 29164m | -35.8m/s | -44.4°C | 0% | 14.3hPa | 2.7V | 03:11:21 | 02:40:34 | 00:00:00 | |
| DL1XH-west | 2026-08-30 12:37:41 | 53.05351 | 10.97524 | 87° | 58km/h | 29236m | -36.9m/s | -44.1°C | 0% | 14.1hPa | 2.7V | 03:10:30 | 02:40:32 | 00:00:00 | |
| DB0DAN | 2026-08-30 12:37:40 | 53.05349 | 10.97499 | 76° | 58km/h | 29273m | -37.5m/s | -44°C | 0.5% | 14.02hPa | 2.7V | 00:00:00 | 00:00:00 | 00:00:00 | |
| HSKMA3-T | 2026-08-30 12:37:37 | 53.05325 | 10.97435 | 40° | 58km/h | 29384m | -36.9m/s | -44.2°C | 0% | 13.8hPa | 2.7V | 03:10:30 | 02:40:28 | 00:00:00 | |
| BIOWL1-15 | 2026-08-30 12:37:36 | 53.05258 | 10.97462 | 280° | 49km/h | 29637m | -37.6m/s | -44.1°C | 0% | 13.2hPa | 2.7V | 03:10:30 | 02:40:21 | 00:00:00 | |
| DL1NUX | 2026-08-30 12:37:35 | 53.05258 | 10.97462 | 280° | 49km/h | 29636m | -37.6m/s | -44.1°C | 2.4% | 13.2hPa | 2.7V | 03:09:57 | 02:40:21 | 00:00:00 | |
| DM0DOS-11 | 2026-08-30 12:37:35 | 53.05269 | 10.97428 | 315° | 46km/h | 29563m | -36.9m/s | -44.2°C | 2.4% | 13.4hPa | 2.6V | 03:09:55 | 02:40:23 | 00:00:00 | |
| AA1-15 | 2026-08-30 12:37:34 | 53.05289 | 10.97413 | 355° | 47km/h | 29492m | -36.6m/s | -44.4°C | 0% | 13.5hPa | 2.7V | 03:10:30 | 02:40:25 | 00:00:00 | |
| DF8AY | 2026-08-30 12:37:34 | 53.05269 | 10.97428 | 315° | 46km/h | 29563m | -36.9m/s | -44.2°C | 0% | 13.4hPa | 2.6V | 03:11:21 | 02:40:23 | 00:00:00 | |
| DO2SHX-10 | 2026-08-30 12:37:34 | 53.05289 | 10.97412 | 355° | 46km/h | 29492m | -36.5m/s | -44.3°C | 2.5% | 13.5hPa | 2.6V | 03:09:00 | 02:40:25 | 00:00:00 | |
| DL2RXE-15 | 2026-08-30 12:37:33 | 53.05289 | 10.97412 | 356° | 47km/h | 29492m | -36.6m/s | -44.4°C | 0.5% | 13.5hPa | 2.6V | 00:00:00 | 00:00:00 | 00:00:00 | |
| DF8AY-15 | 2026-08-30 12:37:32 | 53.05269 | 10.97428 | 316° | 49km/h | 29564m | -36.8m/s | -44.2°C | 2.4% | 13.4hPa | 2.6V | 03:09:00 | 02:40:23 | 00:00:00 | |
| DL1XH-15 | 2026-08-30 12:37:31 | 53.05269 | 10.97535 | 227° | 38km/h | 29788m | -39.4m/s | -44.3°C | 2.5% | 13hPa | 2.6V | 03:10:01 | 02:40:17 | 00:00:00 | |
| DL1XH-west | 2026-08-30 12:37:31 | 53.05262 | 10.97443 | 297° | 46km/h | 29600m | -37m/s | -44.1°C | 0% | 13.3hPa | 2.7V | 03:10:30 | 02:40:22 | 00:00:00 | |
| HSKMA3-T | 2026-08-30 12:37:26 | 53.05269 | 10.97535 | 228° | 40km/h | 29788m | -39.4m/s | -44.3°C | 0% | 13hPa | 2.6V | 03:10:30 | 02:40:17 | 00:00:00 | |
| DM0DOS-11 | 2026-08-30 12:37:25 | 53.05292 | 10.97545 | 121° | 22km/h | 29941m | -37.9m/s | -44.7°C | 2.6% | 12.7hPa | 2.7V | 03:10:05 | 02:40:13 | 00:00:00 | |
| DL1NUX | 2026-08-30 12:37:25 | 53.05291 | 10.97520 | 65° | 40km/h | 30015m | -37.6m/s | -44.7°C | 2.6% | 12.5hPa | 2.6V | 03:10:07 | 02:40:11 | 00:00:00 | |
| AA1-15 | 2026-08-30 12:37:23 | 53.05288 | 10.97550 | 159° | 20km/h | 29903m | -37.7m/s | -44.7°C | 0% | 12.8hPa | 2.7V | 03:10:30 | 02:40:14 | 00:00:00 | |
| DL1XH-15 | 2026-08-30 12:37:22 | 53.05245 | 10.97456 | 23° | 75km/h | 30167m | -39.4m/s | -44.6°C | 2.6% | 12.3hPa | 2.6V | 03:10:11 | 02:40:07 | 00:00:00 | |
| BIOWL1-15 | 2026-08-30 12:37:21 | 53.05293 | 10.97535 | 85° | 31km/h | 29978m | -37.5m/s | -44.8°C | 0% | 12.6hPa | 2.6V | 03:10:30 | 02:40:12 | 00:00:00 | |
| DL1XH-west | 2026-08-30 12:37:21 | 53.05291 | 10.97520 | 66° | 40km/h | 30015m | -37.6m/s | -44.7°C | 0% | 12.5hPa | 2.6V | 03:10:30 | 02:40:11 | 00:00:00 | |
| HSKMA3-T | 2026-08-30 12:37:15 | 53.05227 | 10.97445 | 16° | 78km/h | 30206m | -40.2m/s | -44.7°C | 0% | 12.2hPa | 2.6V | 03:10:30 | 02:40:06 | 00:00:00 | |
| DM0DOS-11 | 2026-08-30 12:37:15 | 53.05170 | 10.97441 | 348° | 71km/h | 30323m | -39.3m/s | -44.7°C | 2.6% | 12hPa | 2.7V | 03:10:15 | 02:40:03 | 00:00:00 | |
| AA1-15 | 2026-08-30 12:37:12 | 53.05169 | 10.97441 | 349° | 71km/h | 30323m | -39.3m/s | -44.7°C | 0% | 12hPa | 2.7V | 03:10:30 | 02:40:03 | 00:00:00 | |
| BIOWL1-15 | 2026-08-30 12:37:11 | 53.05153 | 10.97449 | 337° | 68km/h | 30362m | -39.8m/s | -44.8°C | 0% | 11.9hPa | 2.7V | 03:10:30 | 02:40:02 | 00:00:00 | |
| DB0DAN | 2026-08-30 12:37:10 | 53.05139 | 10.97461 | 325° | 55km/h | 30401m | -40.1m/s | -44.9°C | 0.5% | 11.82hPa | 2.6V | 00:00:00 | 00:00:00 | 00:00:00 | |
| DL1XH-west | 2026-08-30 12:37:10 | 53.05129 | 10.97476 | 309° | 49km/h | 30441m | -40.1m/s | -45°C | 0% | 11.8hPa | 2.6V | 03:10:30 | 02:40:00 | 00:00:00 | |
| HSKMA3-T | 2026-08-30 12:37:05 | 53.05128 | 10.97530 | 217° | 29km/h | 30601m | -41.3m/s | -45°C | 0% | 11.5hPa | 2.7V | 03:10:30 | 02:39:56 | 00:00:00 | |
| DF8AY | 2026-08-30 12:37:01 | 53.05158 | 10.97516 | 121° | 44km/h | 30761m | -39.6m/s | -44.3°C | 0% | 11.2hPa | 2.7V | 03:11:21 | 02:39:52 | 00:00:00 | |
| DL1XH1-15 | 2026-08-30 12:37:01 | 53.05156 | 10.97425 | 63° | 66km/h | 30920m | -42.1m/s | -43.6°C | 2.5% | 10.9hPa | 2.6V | 03:10:30 | 02:39:48 | 00:00:00 | |
| BIOWL1-15 | 2026-08-30 12:37:00 | 53.05135 | 10.97381 | 42° | 68km/h | 31003m | -42.4m/s | -43.8°C | 0% | 10.8hPa | 2.7V | 03:11:21 | 02:39:46 | 00:00:00 | |
| DL1XH-west | 2026-08-30 12:36:59 | 53.05162 | 10.97450 | 77° | 62km/h | 30879m | -41.6m/s | -43.5°C | 0% | 11hPa | 2.6V | 03:10:30 | 02:39:49 | 00:00:00 | |
| HSKMA3-T | 2026-08-30 12:36:54 | 53.05122 | 10.97365 | 31° | 64km/h | 31045m | -42.6m/s | -43.9°C | 0% | 10.8hPa | 2.7V | 03:11:21 | 02:39:45 | 00:00:00 | |
| DF8AY | 2026-08-30 12:36:51 | 53.05083 | 10.97350 | 348° | 46km/h | 31171m | -42.8m/s | -44°C | 0% | 10.6hPa | 2.6V | 03:11:21 | 02:39:42 | 00:00:00 | |
| DL1XH-15 | 2026-08-30 12:36:51 | 53.05071 | 10.97408 | 226° | 42km/h | 31381m | -42.3m/s | -44.1°C | 2.6% | 10.2hPa | 2.6V | 03:10:41 | 02:39:37 | 00:00:00 | |
| AA1-15 | 2026-08-30 12:36:50 | 53.05073 | 10.97356 | 328° | 38km/h | 31213m | -42.6m/s | -44.1°C | 0% | 10.5hPa | 2.7V | 03:11:21 | 02:39:41 | 00:00:00 | |
| EDDB2-11 | 2026-08-30 12:36:50 | 53.05067 | 10.97367 | 300° | 33km/h | 31255m | -42.6m/s | -44.1°C | 0.5% | 10.4hPa | 2.7V | 00:00:00 | 00:00:00 | 00:00:00 | |
| DL1XH1-15 | 2026-08-30 12:36:49 | 53.05066 | 10.97395 | 247° | 37km/h | 31339m | -42.6m/s | -44°C | 2.6% | 10.3hPa | 2.7V | 03:10:40 | 02:39:38 | 00:00:00 | |
| BIOWL1-15 | 2026-08-30 12:36:48 | 53.05071 | 10.97408 | 227° | 42km/h | 31381m | -42.3m/s | -44.1°C | 0% | 10.2hPa | 2.6V | 03:11:21 | 02:39:37 | 00:00:00 | |
| DL1XH-west | 2026-08-30 12:36:47 | 53.05066 | 10.97395 | 248° | 37km/h | 31339m | -42.6m/s | -44.1°C | 0% | 10.3hPa | 2.7V | 03:11:21 | 02:39:38 | 00:00:00 | |
| DG6HD-15 | 2026-08-30 12:36:46 | 53.05071 | 10.97408 | 228° | 42km/h | 31381m | -42.3m/s | -44.1°C | 0.5% | 10.2hPa | 2.7V | 03:11:00 | 00:00:00 | 00:00:00 | |
| DM0DOS-11 | 2026-08-30 12:36:45 | 53.05119 | 10.97427 | 164° | 60km/h | 31550m | -43.2m/s | -43.5°C | 2.6% | 9.9hPa | 2.7V | 03:10:45 | 02:39:33 | 00:00:00 | |
| HSKMA3-T | 2026-08-30 12:36:43 | 53.05105 | 10.97430 | 178° | 57km/h | 31507m | -42.7m/s | -43.7°C | 0% | 10hPa | 2.7V | 03:11:21 | 02:39:34 | 00:00:00 | |
| DL1XH1-15 | 2026-08-30 12:36:42 | 53.05169 | 10.97344 | 101° | 55km/h | 31766m | -43.6m/s | -42.9°C | 2.6% | 9.6hPa | 2.7V | 03:10:50 | 02:39:28 | 00:00:00 | |
| DF8AY | 2026-08-30 12:36:41 | 53.05146 | 10.97404 | 140° | 60km/h | 31636m | -43.9m/s | -43.2°C | 0% | 9.8hPa | 2.6V | 03:11:21 | 02:39:31 | 00:00:00 | |
| DL1XH-15 | 2026-08-30 12:36:41 | 53.05170 | 10.97322 | 87° | 51km/h | 31810m | -43.8m/s | -42.7°C | 2.6% | 9.6hPa | 2.7V | 03:10:51 | 02:39:27 | 00:00:00 | |
| AA1-15 | 2026-08-30 12:36:39 | 53.05156 | 10.97386 | 127° | 58km/h | 31680m | -43.9m/s | -43.1°C | 0% | 9.8hPa | 2.7V | 03:11:21 | 02:39:30 | 00:00:00 | |
| BIOWL1-15 | 2026-08-30 12:36:36 | 53.05169 | 10.97322 | 88° | 51km/h | 31810m | -43.8m/s | -42.7°C | 0% | 9.6hPa | 2.7V | 03:11:21 | 02:39:27 | 00:00:00 | |
| HTAHTA | 2026-08-30 12:36:36 | 53.05162 | 10.97286 | 52° | 44km/h | 31897m | -43.9m/s | -42.1°C | 0.4% | 9.5hPa | 2.7V | 00:00:00 | 00:00:00 | 00:00:00 | |
| DM0DOS-11 | 2026-08-30 12:36:35 | 53.05144 | 10.97265 | 18° | 46km/h | 31982m | -43.1m/s | -41.9°C | 2.4% | 9.3hPa | 2.7V | 03:10:55 | 02:39:23 | 00:00:00 | |
| DL1NUX | 2026-08-30 12:36:35 | 53.05162 | 10.97286 | 52° | 44km/h | 31896m | -43.9m/s | -42.1°C | 2.4% | 9.5hPa | 2.6V | 03:10:53 | 02:39:25 | 00:00:00 | |
| HSKMA3-T | 2026-08-30 12:36:33 | 53.05154 | 10.97273 | 34° | 46km/h | 31939m | -43.5m/s | -42°C | 0% | 9.4hPa | 2.7V | 03:11:21 | 02:39:24 | 00:00:00 | |
| DL1CLM-18 | 2026-08-30 12:36:33 | 53.05154 | 10.97273 | 35° | 46km/h | 31940m | -43.5m/s | -42.0°C | 0.4% | 9.4hPa | 2.7V | 00:00:00 | 00:00:00 | 00:00:00 | |
| DO2SHX-10 | 2026-08-30 12:36:32 | 53.05144 | 10.97265 | 19° | 46km/h | 31983m | -43.0m/s | -41.8°C | 2.4% | 9.3hPa | 2.7V | 00:00:00 | 02:39:23 | 00:00:00 | |
| DL1XH-15 | 2026-08-30 12:36:31 | 53.05084 | 10.97302 | 305° | 40km/h | 32239m | -45.3m/s | -41.5°C | 2.3% | 9hPa | 2.7V | 03:11:01 | 02:39:17 | 00:00:00 | |
| AA1-15 | 2026-08-30 12:36:28 | 53.05100 | 10.97277 | 325° | 46km/h | 32152m | -43.7m/s | -41.4°C | 0% | 9.1hPa | 2.6V | 03:11:21 | 02:39:19 | 00:00:00 | |
| DL1XH-west | 2026-08-30 12:36:26 | 53.05079 | 10.97317 | 295° | 38km/h | 32284m | -45.7m/s | -41.5°C | 0% | 8.9hPa | 2.7V | 03:11:21 | 02:39:16 | 00:00:00 | |
| DL1NUX | 2026-08-30 12:36:25 | 53.05075 | 10.97331 | 287° | 37km/h | 32330m | -46.8m/s | -41.6°C | 2.3% | 8.8hPa | 2.7V | 03:11:03 | 02:39:15 | 00:00:00 | |
| DB0DAN | 2026-08-30 12:36:25 | 53.05079 | 10.97317 | 295° | 37km/h | 32284m | -45.7m/s | -41.5°C | 0.4% | 8.93hPa | 2.7V | 00:00:00 | 00:00:00 | 00:00:00 | |
| DD8BA-10 | 2026-08-30 12:36:25 | 53.05079 | 10.97317 | 295° | 24km/h | 32284m | -45.7m/s | -41.5°C | 2.3% | 8.9hPa | 2.6V | 00:00:00 | 00:00:00 | 00:00:00 | |
| DB0UT-7 | 2026-08-30 12:36:24 | 53.05075 | 10.97331 | 288° | 33km/h | 32330m | -46.7m/s | -41.6°C | 2.3% | 8.8hPa | 2.6V | 03:11:00 | 02:39:15 | 00:00:00 | |
| DM0DOS-11 | 2026-08-30 12:36:23 | 53.05073 | 10.97358 | 269° | 27km/h | 32422m | -46.9m/s | -41.8°C | 2.4% | 8.8hPa | 2.6V | 03:11:05 | 02:39:13 | 00:00:00 | |
| HSKMA3-T | 2026-08-30 12:36:22 | 53.05073 | 10.97358 | 270° | 27km/h | 32422m | -46.9m/s | -41.8°C | 0% | 8.8hPa | 2.6V | 03:11:21 | 02:39:13 | 00:00:00 | |
| DL1XH1-15 | 2026-08-30 12:36:22 | 53.05083 | 10.97380 | 126° | 11km/h | 32653m | -47.4m/s | -42.1°C | 2.8% | 8.5hPa | 2.6V | 03:11:10 | 02:39:08 | 00:00:00 | |
| AA1-15 | 2026-08-30 12:36:17 | 53.05083 | 10.97380 | 127° | 11km/h | 32653m | -47.4m/s | -42.1°C | 0% | 8.5hPa | 2.6V | 03:11:21 | 02:39:08 | 00:00:00 | |
| DM0DOS-11 | 2026-08-30 12:36:17 | 53.05076 | 10.97323 | 65° | 44km/h | 32893m | -49.6m/s | -41.2°C | 2.6% | 8.2hPa | 2.6V | 03:11:15 | 02:39:03 | 00:00:00 | |
| DO2SHX-10 | 2026-08-30 12:36:17 | 53.05083 | 10.97380 | 127° | 18km/h | 32653m | -47.4m/s | -42.0°C | 2.8% | 8.4hPa | 2.7V | 00:00:00 | 02:39:08 | 00:00:00 | |
| DL1NUX | 2026-08-30 12:36:15 | 53.05083 | 10.97354 | 75° | 35km/h | 32796m | -50m/s | -41.7°C | 2.8% | 8.3hPa | 2.7V | 03:11:13 | 02:39:05 | 00:00:00 | |
| DL1XH-west | 2026-08-30 12:36:15 | 53.05083 | 10.97354 | 76° | 35km/h | 32796m | -50m/s | -41.7°C | 0% | 8.3hPa | 2.7V | 03:11:21 | 02:39:05 | 00:00:00 | |
| DF8AY | 2026-08-30 12:36:13 | 53.05076 | 10.97323 | 65° | 44km/h | 32893m | -49.6m/s | -41.2°C | 0% | 8.2hPa | 2.6V | 03:11:21 | 02:39:03 | 00:00:00 | |
| DL1XH-15 | 2026-08-30 12:36:12 | 53.05044 | 10.97235 | 61° | 31km/h | 33205m | -56.7m/s | -39.3°C | 2.3% | 7.8hPa | 2.6V | 03:11:21 | 02:38:57 | 00:00:00 | |
| HSKMA3-T | 2026-08-30 12:36:11 | 53.05071 | 10.97306 | 60° | 46km/h | 32943m | -51.5m/s | -41.1°C | 0% | 8.1hPa | 2.6V | 03:11:21 | 02:39:02 | 00:00:00 | |
| DJTTGO | 2026-08-30 12:36:11 | 53.05071 | 10.97306 | 61° | 46km/h | 32943m | -51.5m/s | 0°C | 0% | 0hPa | 2.7V | 00:00:00 | 00:00:00 | 00:00:00 | |
| GOEST3-10 | 2026-08-30 12:36:10 | 53.05065 | 10.97290 | 59° | 38km/h | 32994m | -52.5m/s | -40.8°C | 2.6% | 8.0hPa | 2.7V | 03:11:00 | 00:00:00 | 00:00:00 | |
| DL1XH1-15 | 2026-08-30 12:36:09 | 53.05048 | 10.97247 | 57° | 37km/h | 33151m | -55m/s | -39.7°C | 2.4% | 7.9hPa | 2.7V | 03:11:20 | 02:38:58 | 00:00:00 | |
| AA1-15 | 2026-08-30 12:36:07 | 53.05048 | 10.97247 | 57° | 37km/h | 33151m | -55m/s | -39.7°C | 0% | 7.9hPa | 2.7V | 03:11:21 | 02:38:58 | 00:00:00 | |
| DL1NUX | 2026-08-30 12:36:05 | 53.05039 | 10.97214 | 77° | 24km/h | 33319m | -59.7m/s | -38.1°C | 2.2% | 7.7hPa | 2.7V | 03:11:23 | 02:38:55 | 00:00:00 | |
| DL1XH-west | 2026-08-30 12:36:04 | 53.05039 | 10.97205 | 103° | 22km/h | 33380m | -65.6m/s | -37.7°C | 0% | 7.7hPa | 2.7V | 03:12:12 | 02:38:54 | 00:00:00 | |
| DF8AY | 2026-08-30 12:36:02 | 53.05042 | 10.97195 | 125° | 31km/h | 33448m | -71.6m/s | -37.2°C | 0% | 7.6hPa | 2.7V | 03:12:12 | 02:38:53 | 00:00:00 | |
| DL1XH1-15 | 2026-08-30 12:36:02 | 53.05087 | 10.97124 | 140° | 47km/h | 33886m | -59m/s | -34.3°C | 1.8% | 7.1hPa | 2.7V | 03:11:31 | 02:38:47 | 00:00:00 | |
| DO2SHX-10 | 2026-08-30 12:36:02 | 53.05042 | 10.97195 | 125° | 35km/h | 33448m | -71.6m/s | -37.1°C | 2.1% | 7.6hPa | 2.7V | 00:00:00 | 02:38:53 | 00:00:00 | |
| DL1XH-15 | 2026-08-30 12:36:01 | 53.05087 | 10.97124 | 140° | 47km/h | 33886m | -59m/s | -34.3°C | 1.8% | 7.1hPa | 2.7V | 03:11:31 | 02:38:47 | 00:00:00 | |
| HSKMA3-T | 2026-08-30 12:36:00 | 53.05053 | 10.97174 | 137° | 42km/h | 33596m | -86.9m/s | -35.8°C | 0% | 7.6hPa | 2.6V | 03:12:12 | 02:38:51 | 00:00:00 | |
| AA1-15 | 2026-08-30 12:35:57 | 53.05078 | 10.97137 | 140° | 46km/h | 33824m | -66.4m/s | -35°C | 0% | 7.2hPa | 2.7V | 03:12:12 | 02:38:48 | 00:00:00 | |
| DB0DAN | 2026-08-30 12:35:55 | 53.05096 | 10.97111 | 141° | 46km/h | 33940m | -51.5m/s | -34°C | 0.3% | 6.91hPa | 2.7V | 00:00:00 | 00:00:00 | 00:00:00 | |
| DL1XH-west | 2026-08-30 12:35:53 | 53.05113 | 10.97087 | 134° | 38km/h | 34026m | -35.5m/s | -33.9°C | 0% | 6.8hPa | 2.6V | 03:12:12 | 02:38:44 | 00:00:00 | |
| DF8AY | 2026-08-30 12:35:51 | 53.05142 | 10.97020 | 88° | 11km/h | 34091m | 6.7m/s | -34.4°C | 0% | 6.8hPa | 2.7V | 03:12:12 | 02:38:36 | 00:00:00 | |
| DL1XH-15 | 2026-08-30 12:35:51 | 53.05141 | 10.97025 | 108° | 16km/h | 34097m | 7m/s | -34.2°C | 1.8% | 6.8hPa | 2.7V | 03:11:41 | 02:38:37 | 00:00:00 | |
| HSKMA3-T | 2026-08-30 12:35:49 | 53.05133 | 10.97045 | 126° | 27km/h | 34103m | -3.9m/s | -33.5°C | 0% | 6.7hPa | 2.6V | 03:12:12 | 02:38:40 | 00:00:00 | |
| DL1XH1-15 | 2026-08-30 12:35:49 | 53.05139 | 10.97033 | 118° | 24km/h | 34103m | 6.1m/s | -33.9°C | 1.8% | 6.7hPa | 2.7V | 03:11:40 | 02:38:38 | 00:00:00 | |
| AA1-15 | 2026-08-30 12:35:46 | 53.05141 | 10.97025 | 109° | 16km/h | 34097m | 7m/s | -34.2°C | 0% | 6.8hPa | 2.7V | 03:12:12 | 02:38:37 | 00:00:00 | |
| DL1NUX | 2026-08-30 12:35:45 | 53.05140 | 10.97011 | 49° | 13km/h | 34079m | 4.8m/s | -34.3°C | 1.9% | 6.8hPa | 2.6V | 03:11:44 | 02:38:34 | 00:00:00 | |
| DL1XH-west | 2026-08-30 12:35:43 | 53.05140 | 10.97011 | 50° | 13km/h | 34079m | 4.8m/s | -34.3°C | 0% | 6.8hPa | 2.6V | 03:12:12 | 02:38:34 | 00:00:00 | |
| DM0DOS-11 | 2026-08-30 12:35:43 | 53.05138 | 10.97007 | 57° | 15km/h | 34075m | 4.6m/s | -34.2°C | 1.9% | 6.8hPa | 2.6V | 03:11:45 | 02:38:33 | 00:00:00 | |
| GOEST3-10 | 2026-08-30 12:35:43 | 53.05140 | 10.97011 | 50° | 18km/h | 34080m | 4.7m/s | -34.3°C | 1.9% | 6.7hPa | 2.6V | 00:00:00 | 02:38:34 | 00:00:00 | |
| DO2SHX-10 | 2026-08-30 12:35:42 | 53.05138 | 10.97007 | 58° | 18km/h | 34075m | 4.6m/s | -34.2°C | 1.9% | 6.7hPa | 2.6V | 00:00:00 | 02:38:33 | 00:00:00 | |
| DL1XH-15 | 2026-08-30 12:35:41 | 53.05143 | 10.96950 | 115° | 26km/h | 34040m | 6.3m/s | -34.9°C | 1.9% | 6.8hPa | 2.6V | 03:11:51 | 02:38:27 | 00:00:00 | |
| DL1XH1-15 | 2026-08-30 12:35:41 | 53.05140 | 10.96960 | 111° | 29km/h | 34046m | 5.5m/s | -34.8°C | 1.9% | 6.8hPa | 2.6V | 03:11:50 | 02:38:28 | 00:00:00 | |
| HSKMA3-T | 2026-08-30 12:35:38 | 53.05138 | 10.96972 | 107° | 29km/h | 34051m | 5.1m/s | -34.6°C | 0% | 6.8hPa | 2.7V | 03:12:12 | 02:38:29 | 00:00:00 | |
| AA1-15 | 2026-08-30 12:35:36 | 53.05143 | 10.96950 | 115° | 26km/h | 34040m | 6.3m/s | -34.9°C | 0% | 6.8hPa | 2.6V | 03:12:12 | 02:38:27 | 00:00:00 | |
| DL2RXE-15 | 2026-08-30 12:35:36 | 53.05143 | 10.96950 | 116° | 26km/h | 34040m | 6.3m/s | -34.9°C | 0.3% | 6.8hPa | 2.7V | 00:00:00 | 00:00:00 | 00:00:00 | |
| DL1NUX | 2026-08-30 12:35:35 | 53.05150 | 10.96928 | 121° | 16km/h | 34022m | 5.3m/s | -34.7°C | 1.9% | 6.8hPa | 2.7V | 03:11:54 | 02:38:24 | 00:00:00 | |
| DD8BA-10 | 2026-08-30 12:35:35 | 53.05145 | 10.96941 | 117° | 26km/h | 34034m | 6.2m/s | -34.8°C | 1.9% | 6.8hPa | 2.7V | 03:11:00 | 00:00:00 | 00:00:00 | |
| DM0DOS-11 | 2026-08-30 12:35:33 | 53.05152 | 10.96921 | 120° | 18km/h | 34017m | 4.9m/s | -34.8°C | 1.9% | 6.8hPa | 2.7V | 03:11:55 | 02:38:23 | 00:00:00 | |
| DL1XH-west | 2026-08-30 12:35:32 | 53.05152 | 10.96921 | 121° | 18km/h | 34017m | 4.9m/s | -34.8°C | 0% | 6.8hPa | 2.7V | 03:12:12 | 02:38:23 | 00:00:00 | |
| DL1XH-15 | 2026-08-30 12:35:31 | 53.05169 | 10.96852 | 102° | 27km/h | 33983m | 5.3m/s | -35.1°C | 2% | 6.8hPa | 2.6V | 03:12:01 | 02:38:17 | 00:00:00 | |
| HSKMA3-T | 2026-08-30 12:35:29 | 53.05164 | 10.96879 | 111° | 37km/h | 33993m | 5.1m/s | -35.2°C | 0% | 6.8hPa | 2.7V | 03:12:12 | 02:38:19 | 00:00:00 | |
| AA1-15 | 2026-08-30 12:35:26 | 53.05170 | 10.96842 | 95° | 20km/h | 33977m | 6.8m/s | -35°C | 0% | 6.9hPa | 2.6V | 03:12:12 | 02:38:16 | 00:00:00 | |
| DF8AY | 2026-08-30 12:35:25 | 53.05170 | 10.96835 | 80° | 15km/h | 33971m | 6.4m/s | -35°C | 0% | 6.9hPa | 2.7V | 03:12:12 | 02:38:15 | 00:00:00 | |
| DB0DAN | 2026-08-30 12:35:25 | 53.05170 | 10.96842 | 95° | 20km/h | 33977m | 6.8m/s | -35°C | 0.3% | 6.86hPa | 2.6V | 00:00:00 | 00:00:00 | 00:00:00 | |
| SP3WXH-11 | 2026-08-30 12:35:25 | 53.05170 | 10.96835 | 79° | 13km/h | 33971m | 6.4m/s | -35.0°C | 0.3% | 6.9hPa | 2.7V | 00:00:00 | 00:00:00 | 00:00:00 | |
| DK7RCA | 2026-08-30 12:35:24 | 53.05170 | 10.96835 | 81° | 15km/h | 33971m | 6.4m/s | -35.0°C | 0.3% | 6.9hPa | 2.7V | 03:12:00 | 00:00:00 | 00:00:00 | |
| DM0DOS-11 | 2026-08-30 12:35:23 | 53.05169 | 10.96828 | 66° | 7km/h | 33960m | 4.7m/s | -35.2°C | 1.9% | 6.8hPa | 2.7V | 03:12:05 | 02:38:13 | 00:00:00 | |
| DL1XH-west | 2026-08-30 12:35:22 | 53.05168 | 10.96827 | 67° | 7km/h | 33960m | 4.7m/s | -35.2°C | 0% | 6.9hPa | 2.7V | 03:12:12 | 02:38:13 | 00:00:00 | |
| GOEST3-10 | 2026-08-30 12:35:22 | 53.05168 | 10.96827 | 67° | 16km/h | 33960m | 4.6m/s | -35.1°C | 1.9% | 6.8hPa | 2.7V | 00:00:00 | 02:38:13 | 00:00:00 | |
| DL1XH1-15 | 2026-08-30 12:35:21 | 53.05179 | 10.96794 | 126° | 31km/h | 33931m | 5.2m/s | -36°C | 2% | 6.9hPa | 2.7V | 03:12:10 | 02:38:08 | 00:00:00 | |
| HSKMA3-T | 2026-08-30 12:35:18 | 53.05175 | 10.96804 | 125° | 29km/h | 33936m | 5.8m/s | -35.8°C | 0% | 6.9hPa | 2.7V | 03:12:12 | 02:38:09 | 00:00:00 | |
| DF8AY | 2026-08-30 12:35:15 | 53.05187 | 10.96775 | 123° | 26km/h | 33920m | 5.9m/s | -36.3°C | 0% | 6.9hPa | 2.7V | 03:12:12 | 02:38:06 | 00:00:00 | |
| DL1NUX | 2026-08-30 12:35:15 | 53.05191 | 10.96760 | 92° | 13km/h | 33908m | 5.8m/s | -36.6°C | 2.1% | 6.9hPa | 2.6V | 03:12:14 | 02:38:04 | 00:00:00 | |
| DL1XH-west | 2026-08-30 12:35:12 | 53.05188 | 10.96749 | 54° | 18km/h | 33897m | 5.3m/s | -37°C | 0% | 7hPa | 2.7V | 03:13:03 | 02:38:02 | 00:00:00 | |
| DL1XH-15 | 2026-08-30 12:35:12 | 53.05172 | 10.96700 | 64° | 29km/h | 33868m | 4.7m/s | -37°C | 2.3% | 7hPa | 2.7V | 03:12:21 | 02:37:57 | 00:00:00 | |
| DL1XH1-15 | 2026-08-30 12:35:11 | 53.05175 | 10.96711 | 64° | 31km/h | 33873m | 4.8m/s | -37.1°C | 2.3% | 7hPa | 2.6V | 03:12:20 | 02:37:58 | 00:00:00 | |
| HSKMA3-T | 2026-08-30 12:35:08 | 53.05175 | 10.96711 | 65° | 31km/h | 33873m | 4.8m/s | -37.1°C | 0% | 7hPa | 2.6V | 03:13:03 | 02:37:58 | 00:00:00 | |
| DM0DOS-11 | 2026-08-30 12:35:07 | 53.05160 | 10.96673 | 42° | 13km/h | 33845m | 5m/s | -36.7°C | 2.2% | 7hPa | 2.6V | 03:12:25 | 02:37:53 | 00:00:00 | |
| AA1-15 | 2026-08-30 12:35:05 | 53.05168 | 10.96690 | 59° | 24km/h | 33863m | 6.2m/s | -36.9°C | 0% | 7hPa | 2.7V | 03:13:03 | 02:37:56 | 00:00:00 | |
| DD8BA-10 | 2026-08-30 12:35:05 | 53.05168 | 10.96690 | 59° | 18km/h | 33864m | 6.1m/s | -36.8°C | 2.3% | 6.9hPa | 2.7V | 00:00:00 | 00:00:00 | 00:00:00 | |
| HTAHTA | 2026-08-30 12:35:03 | 53.05160 | 10.96673 | 42° | 11km/h | 33846m | 5.0m/s | -36.7°C | 0.3% | 7.0hPa | 2.6V | 00:00:00 | 00:00:00 | 00:00:00 | |
| SONDE2-11 | 2026-08-30 12:35:02 | 53.05158 | 10.96670 | 54° | 11km/h | 33841m | 5.3m/s | -36.8°C | 0.3% | 7.0hPa | 2.6V | 00:00:00 | 00:00:00 | 00:00:00 | |
| DL1XH-15 | 2026-08-30 12:35:01 | 53.05152 | 10.96631 | 70° | 22km/h | 33811m | 5.8m/s | -37°C | 2.2% | 7hPa | 2.6V | 03:12:31 | 02:37:47 | 00:00:00 | |
| DL1XH1-15 | 2026-08-30 12:35:01 | 53.05154 | 10.96640 | 78° | 24km/h | 33817m | 5.1m/s | -36.9°C | 2.2% | 7hPa | 2.6V | 03:12:30 | 02:37:48 | 00:00:00 | |
| DL1XH-west | 2026-08-30 12:35:01 | 53.05157 | 10.96665 | 68° | 15km/h | 33835m | 6.3m/s | -36.8°C | 0% | 7hPa | 2.7V | 03:13:03 | 02:37:51 | 00:00:00 | |
| BIOWL1-15 | 2026-08-30 12:35:00 | 53.05155 | 10.96650 | 82° | 22km/h | 33822m | 5.5m/s | -36.9°C | 0% | 7.1hPa | 2.7V | 03:13:03 | 02:37:49 | 00:00:00 | |
| HSKMA3-T | 2026-08-30 12:34:57 | 53.05152 | 10.96631 | 70° | 22km/h | 33811m | 5.9m/s | -37.1°C | 0% | 7hPa | 2.6V | 03:13:03 | 02:37:47 | 00:00:00 | |
| DF8AY | 2026-08-30 12:34:56 | 53.05150 | 10.96623 | 60° | 20km/h | 33805m | 6.5m/s | -37.1°C | 0% | 7hPa | 2.7V | 03:13:03 | 02:37:46 | 00:00:00 | |
| DL1CLM-18 | 2026-08-30 12:34:56 | 53.05152 | 10.96631 | 71° | 22km/h | 33812m | 5.9m/s | -37.1°C | 0.3% | 7.0hPa | 2.7V | 00:00:00 | 00:00:00 | 00:00:00 | |
| DL1NUX | 2026-08-30 12:34:55 | 53.05143 | 10.96611 | 40° | 20km/h | 33793m | 5m/s | -37.4°C | 2.3% | 7hPa | 2.7V | 03:12:34 | 02:37:44 | 00:00:00 | |
| AA1-15 | 2026-08-30 12:34:54 | 53.05147 | 10.96617 | 46° | 20km/h | 33799m | 5.9m/s | -37.2°C | 0% | 7hPa | 2.7V | 03:13:03 | 02:37:45 | 00:00:00 | |
| SP3WXH-11 | 2026-08-30 12:34:54 | 53.05143 | 10.96611 | 40° | 20km/h | 33794m | 5.0m/s | -37.4°C | 0.4% | 7.1hPa | 2.7V | 00:00:00 | 00:00:00 | 00:00:00 | |
| DL1XH-15 | 2026-08-30 12:34:52 | 53.05131 | 10.96548 | 99° | 20km/h | 33754m | 6m/s | -37.6°C | 2.3% | 7.1hPa | 2.7V | 03:12:41 | 02:37:37 | 00:00:00 | |
| DF8AY | 2026-08-30 12:34:50 | 53.05133 | 10.96536 | 113° | 9km/h | 33742m | 5.7m/s | -37.6°C | 0% | 7.1hPa | 2.6V | 03:13:03 | 02:37:35 | 00:00:00 | |
| DL1XH-west | 2026-08-30 12:34:50 | 53.05131 | 10.96579 | 78° | 27km/h | 33772m | 6.3m/s | -37.4°C | 0% | 7.1hPa | 2.7V | 03:13:03 | 02:37:40 | 00:00:00 | |
| BIOWL1-15 | 2026-08-30 12:34:47 | 53.05130 | 10.96557 | 95° | 26km/h | 33760m | 5.1m/s | -37.5°C | 0% | 7.1hPa | 2.7V | 03:13:03 | 02:37:38 | 00:00:00 | |
| GOEST3-10 | 2026-08-30 12:34:47 | 53.05130 | 10.96557 | 95° | 15km/h | 33761m | 5.0m/s | -37.5°C | 2.3% | 7.1hPa | 2.7V | 03:12:00 | 00:00:00 | 00:00:00 | |
| DM0DOS-11 | 2026-08-30 12:34:46 | 53.05135 | 10.96524 | 99° | 15km/h | 33726m | 6.4m/s | -37.7°C | 2.3% | 7.1hPa | 2.7V | 03:12:46 | 02:37:32 | 00:00:00 | |
| HSKMA3-T | 2026-08-30 12:34:46 | 53.05132 | 10.96540 | 105° | 15km/h | 33748m | 6.2m/s | -37.6°C | 0% | 7.1hPa | 2.6V | 03:13:03 | 02:37:36 | 00:00:00 | |
| DF7PN | 2026-08-30 12:34:45 | 53.05133 | 10.96536 | 113° | 9km/h | 33743m | 5.7m/s | -37.6°C | 0.4% | 7.1hPa | 2.7V | 00:00:00 | 00:00:00 | 00:00:00 | |
| SMARD9-15 | 2026-08-30 12:34:44 | 53.05133 | 10.96536 | 113° | 9km/h | 33743m | 5.7m/s | -37.6°C | 0.4% | 7.1hPa | 2.7V | 00:00:00 | 00:00:00 | 00:00:00 | |
| AA1-15 | 2026-08-30 12:34:43 | 53.05134 | 10.96532 | 112° | 7km/h | 33737m | 5m/s | -37.7°C | 0% | 7.1hPa | 2.7V | 03:13:03 | 02:37:34 | 00:00:00 | |
| DL1XH1-15 | 2026-08-30 12:34:42 | 53.05134 | 10.96486 | 76° | 26km/h | 33704m | 5.1m/s | -38°C | 2.3% | 7.2hPa | 2.7V | 03:12:50 | 02:37:28 | 00:00:00 | |
| DG6HD-15 | 2026-08-30 12:34:42 | 53.05134 | 10.96529 | 106° | 9km/h | 33733m | 5.1m/s | -37.7°C | 0.4% | 7.1hPa | 2.6V | 03:13:00 | 00:00:00 | 00:00:00 | |
| DF7ER-10 | 2026-08-30 12:34:41 | 53.05134 | 10.96529 | 106° | 9km/h | 33733m | 5.1m/s | -37.7°C | 0.4% | 7.1hPa | 2.6V | 03:13:00 | 00:00:00 | 00:00:00 | |
| DB0DAN | 2026-08-30 12:34:40 | 53.05136 | 10.96517 | 94° | 18km/h | 33720m | 6.4m/s | -37.8°C | 0.4% | 7.12hPa | 2.6V | 00:00:00 | 00:00:00 | 00:00:00 | |
| DL1XH-west | 2026-08-30 12:34:39 | 53.05135 | 10.96497 | 83° | 26km/h | 33709m | 4.9m/s | -37.9°C | 0% | 7.1hPa | 2.7V | 03:13:03 | 02:37:29 | 00:00:00 | |
| BIOWL1-15 | 2026-08-30 12:34:37 | 53.05132 | 10.96477 | 67° | 22km/h | 33698m | 6.5m/s | -37.9°C | 0% | 7.2hPa | 2.7V | 03:13:03 | 02:37:27 | 00:00:00 | |
| DM0DOS-11 | 2026-08-30 12:34:36 | 53.05122 | 10.96439 | 84° | 24km/h | 33670m | 6.9m/s | -38.5°C | 2.4% | 7.2hPa | 2.7V | 03:12:56 | 02:37:22 | 00:00:00 | |
| HSKMA3-T | 2026-08-30 12:34:34 | 53.05127 | 10.96462 | 54° | 18km/h | 33686m | 5.1m/s | -38°C | 0% | 7.2hPa | 2.6V | 03:13:03 | 02:37:25 | 00:00:00 | |
| DF8AY | 2026-08-30 12:34:33 | 53.05125 | 10.96456 | 62° | 18km/h | 33681m | 4.4m/s | -38.1°C | 0% | 7.2hPa | 2.6V | 03:13:03 | 02:37:24 | 00:00:00 | |
| AA1-15 | 2026-08-30 12:34:32 | 53.05122 | 10.96439 | 84° | 24km/h | 33670m | 6.9m/s | -38.5°C | 0% | 7.2hPa | 2.7V | 03:13:03 | 02:37:22 | 00:00:00 | |
| DL1XH-15 | 2026-08-30 12:34:32 | 53.05122 | 10.96391 | 74° | 15km/h | 33640m | 6m/s | -38.3°C | 2.4% | 7.2hPa | 2.7V | 03:13:01 | 02:37:17 | 00:00:00 | |
| HTAHTA | 2026-08-30 12:34:32 | 53.05122 | 10.96439 | 84° | 24km/h | 33670m | 6.9m/s | -38.5°C | 0.4% | 7.2hPa | 2.6V | 00:00:00 | 00:00:00 | 00:00:00 | |
| DL1XH1-15 | 2026-08-30 12:34:31 | 53.05123 | 10.96398 | 88° | 20km/h | 33647m | 6.1m/s | -38.4°C | 2.4% | 7.2hPa | 2.6V | 03:13:00 | 02:37:18 | 00:00:00 | |
| DL1XH-west | 2026-08-30 12:34:28 | 53.05123 | 10.96398 | 89° | 20km/h | 33647m | 6.1m/s | -38.4°C | 0% | 7.2hPa | 2.6V | 03:13:03 | 02:37:18 | 00:00:00 | |
| AP2371 | 2026-08-30 12:34:28 | 53.05123 | 10.96407 | 96° | 24km/h | 33653m | 5.0m/s | -38.5°C | 0.4% | 7.2hPa | 2.7V | 03:13:00 | 00:00:00 | 00:00:00 | |
| DO2SHX-10 | 2026-08-30 12:34:27 | 53.05123 | 10.96398 | 89° | 15km/h | 33647m | 6.1m/s | -38.3°C | 2.4% | 7.1hPa | 2.7V | 00:00:00 | 02:37:18 | 00:00:00 | |
| DM0DOS-11 | 2026-08-30 12:34:26 | 53.05108 | 10.96369 | 52° | 22km/h | 33613m | 6.2m/s | -38.6°C | 2.4% | 7.2hPa | 2.7V | 03:13:06 | 02:37:12 | 00:00:00 | |
| DB0DAN | 2026-08-30 12:34:25 | 53.05121 | 10.96386 | 46° | 11km/h | 33635m | 5.3m/s | -38.3°C | 0.4% | 7.22hPa | 2.7V | 00:00:00 | 00:00:00 | 00:00:00 | |
| DF8AY | 2026-08-30 12:34:23 | 53.05115 | 10.96380 | 33° | 16km/h | 33625m | 5.4m/s | -38.4°C | 0% | 7.3hPa | 2.6V | 03:13:54 | 02:37:14 | 00:00:00 | |
| SO1NDE-10 | 2026-08-30 12:34:22 | 53.05112 | 10.96375 | 42° | 24km/h | 33619m | 6.3m/s | -38.5°C | 2.4% | 7.2hPa | 2.6V | 00:00:00 | 02:37:13 | 00:00:00 | |
| DL1XH-15 | 2026-08-30 12:34:21 | 53.05096 | 10.96324 | 66° | 20km/h | 33584m | 6.2m/s | -38.9°C | 2.5% | 7.3hPa | 2.6V | 03:13:11 | 02:37:07 | 00:00:00 | |
| DL1XH1-15 | 2026-08-30 12:34:21 | 53.05098 | 10.96332 | 68° | 22km/h | 33590m | 6.5m/s | -39°C | 2.5% | 7.3hPa | 2.6V | 03:13:10 | 02:37:08 | 00:00:00 | |
| AA1-15 | 2026-08-30 12:34:20 | 53.05105 | 10.96361 | 61° | 26km/h | 33607m | 5.6m/s | -38.7°C | 0% | 7.3hPa | 2.7V | 03:13:54 | 02:37:11 | 00:00:00 | |
| DL1XH-west | 2026-08-30 12:34:18 | 53.05098 | 10.96332 | 68° | 22km/h | 33590m | 6.6m/s | -39°C | 0% | 7.3hPa | 2.6V | 03:13:54 | 02:37:08 | 00:00:00 | |
| DJ2DS-15 | 2026-08-30 12:34:18 | 53.05098 | 10.96332 | 68° | 22km/h | 33591m | 6.6m/s | -39.0°C | 0.4% | 7.3hPa | 2.6V | 00:00:00 | 00:00:00 | 00:00:00 | |
| GOEST3-10 | 2026-08-30 12:34:17 | 53.05098 | 10.96332 | 69° | 20km/h | 33591m | 6.5m/s | -38.9°C | 2.5% | 7.2hPa | 2.6V | 00:00:00 | 00:00:00 | 00:00:00 | |
| DM0DOS-11 | 2026-08-30 12:34:16 | 53.05088 | 10.96280 | 81° | 31km/h | 33556m | 6.5m/s | -39°C | 2.4% | 7.3hPa | 2.6V | 03:13:16 | 02:37:02 | 00:00:00 | |
| DL1LOL-11 | 2026-08-30 12:34:16 | 53.05096 | 10.96324 | 67° | 20km/h | 33584m | 6.3m/s | -38.9°C | 0.4% | 7.3hPa | 2.7V | 00:00:00 | 00:00:00 | 00:00:00 | |
| DO2SHX-10 | 2026-08-30 12:34:15 | 53.05094 | 10.96317 | 68° | 20km/h | 33579m | 5.1m/s | -38.8°C | 2.4% | 7.2hPa | 2.7V | 00:00:00 | 02:37:06 | 00:00:00 | |
| DL1NUX | 2026-08-30 12:34:14 | 53.05091 | 10.96301 | 75° | 22km/h | 33568m | 5.5m/s | -38.9°C | 2.4% | 7.3hPa | 2.7V | 03:13:14 | 02:37:04 | 00:00:00 | |
| DF8AY | 2026-08-30 12:34:13 | 53.05091 | 10.96301 | 75° | 22km/h | 33569m | 5.5m/s | -38.9°C | 0% | 7.3hPa | 2.7V | 03:13:54 | 02:37:04 | 00:00:00 | |
| DO2SHX-10 | 2026-08-30 12:34:12 | 53.05089 | 10.96291 | 80° | 29km/h | 33563m | 6.6m/s | -38.9°C | 2.5% | 7.3hPa | 2.7V | 00:00:00 | 02:37:03 | 00:00:00 | |
| DL1XH-15 | 2026-08-30 12:34:11 | 53.05079 | 10.96225 | 49° | 16km/h | 33527m | 6.4m/s | -39.1°C | 2.4% | 7.3hPa | 2.6V | 03:13:21 | 02:36:57 | 00:00:00 | |
| DB0DAN | 2026-08-30 12:34:10 | 53.05087 | 10.96266 | 81° | 31km/h | 33550m | 5.1m/s | -39.1°C | 0.4% | 7.32hPa | 2.6V | 00:00:00 | 00:00:00 | 00:00:00 | |
| AA1-15 | 2026-08-30 12:34:09 | 53.05086 | 10.96253 | 78° | 31km/h | 33545m | 4.6m/s | -39.1°C | 0% | 7.3hPa | 2.7V | 03:13:54 | 02:37:00 | 00:00:00 | |
| DL1XH1-15 | 2026-08-30 12:34:09 | 53.05082 | 10.96232 | 63° | 22km/h | 33534m | 6.9m/s | -39.2°C | 2.5% | 7.3hPa | 2.7V | 03:13:20 | 02:36:58 | 00:00:00 | |
| DL1XH-west | 2026-08-30 12:34:07 | 53.05081 | 10.96232 | 64° | 22km/h | 33534m | 6.9m/s | -39.2°C | 0% | 7.3hPa | 2.7V | 03:13:54 | 02:36:58 | 00:00:00 | |
| DF8AY | 2026-08-30 12:34:03 | 53.05071 | 10.96214 | 47° | 15km/h | 33511m | 5m/s | -39.1°C | 0% | 7.4hPa | 2.7V | 03:13:54 | 02:36:54 | 00:00:00 | |
| HSKMA3-T | 2026-08-30 12:34:02 | 53.05068 | 10.96208 | 63° | 18km/h | 33505m | 5.9m/s | -39.3°C | 0% | 7.4hPa | 2.7V | 03:13:54 | 02:36:53 | 00:00:00 | |
| AA1-15 | 2026-08-30 12:33:59 | 53.05063 | 10.96175 | 79° | 35km/h | 33487m | 4.6m/s | -39°C | 0% | 7.4hPa | 2.6V | 03:13:54 | 02:36:50 | 00:00:00 | |
| DL1XH-west | 2026-08-30 12:33:57 | 53.05056 | 10.96140 | 59° | 22km/h | 33471m | 6.7m/s | -39.3°C | 0% | 7.4hPa | 2.7V | 03:13:54 | 02:36:47 | 00:00:00 | |
| DO2SHX-10 | 2026-08-30 12:33:57 | 53.05059 | 10.96149 | 71° | 22km/h | 33478m | 6.1m/s | -39.2°C | 2.4% | 7.4hPa | 2.6V | 03:13:00 | 02:36:48 | 00:00:00 | |
| DD8BA-10 | 2026-08-30 12:33:55 | 53.05053 | 10.96134 | 38° | 22km/h | 33466m | 6.0m/s | -39.3°C | 2.4% | 7.4hPa | 2.6V | 00:00:00 | 00:00:00 | 00:00:00 | |
| DL1NUX | 2026-08-30 12:33:54 | 53.05045 | 10.96129 | 14° | 16km/h | 33454m | 5.1m/s | -39.5°C | 2.5% | 7.4hPa | 2.6V | 03:13:34 | 02:36:44 | 00:00:00 | |
| DF8AY | 2026-08-30 12:33:53 | 53.05045 | 10.96129 | 15° | 16km/h | 33454m | 5.1m/s | -39.5°C | 0% | 7.4hPa | 2.6V | 03:13:54 | 02:36:44 | 00:00:00 | |
| HSKMA3-T | 2026-08-30 12:33:52 | 53.05041 | 10.96126 | 24° | 18km/h | 33448m | 5.9m/s | -39.6°C | 0% | 7.4hPa | 2.7V | 03:13:54 | 02:36:43 | 00:00:00 | |
| BIOWL1-15 | 2026-08-30 12:33:52 | 53.05025 | 10.96086 | 66° | 26km/h | 33419m | 5.1m/s | -39.2°C | 0% | 7.5hPa | 2.7V | 03:13:54 | 02:36:38 | 00:00:00 | |
| DL1XH-15 | 2026-08-30 12:33:51 | 53.05022 | 10.96077 | 57° | 24km/h | 33414m | 6.2m/s | -39.2°C | 2.4% | 7.5hPa | 2.7V | 03:13:41 | 02:36:37 | 00:00:00 | |
| AA1-15 | 2026-08-30 12:33:48 | 53.05027 | 10.96097 | 67° | 27km/h | 33425m | 5.3m/s | -39.3°C | 0% | 7.5hPa | 2.6V | 03:13:54 | 02:36:39 | 00:00:00 | |
| DL1XH-west | 2026-08-30 12:33:46 | 53.05018 | 10.96070 | 41° | 22km/h | 33408m | 6.4m/s | -39.3°C | 0% | 7.5hPa | 2.7V | 03:13:54 | 02:36:36 | 00:00:00 | |
| DM0DOS-11 | 2026-08-30 12:33:46 | 53.04995 | 10.96056 | 20° | 31km/h | 33385m | 6.2m/s | -39.7°C | 2.5% | 7.5hPa | 2.7V | 03:13:46 | 02:36:32 | 00:00:00 | |
| DJ8HS-15 | 2026-08-30 12:33:46 | 53.05022 | 10.96077 | 58° | 24km/h | 33414m | 6.2m/s | -39.2°C | 2.4% | 7.4hPa | 2.7V | 00:00:00 | 02:36:37 | 00:00:00 | |
| DO2SHX-10 | 2026-08-30 12:33:45 | 53.05018 | 10.96070 | 42° | 22km/h | 33408m | 6.3m/s | -39.3°C | 2.4% | 7.4hPa | 2.7V | 03:13:00 | 02:36:36 | 00:00:00 | |
| DL1NUX | 2026-08-30 12:33:44 | 53.05008 | 10.96062 | 14° | 26km/h | 33396m | 5.2m/s | -39.5°C | 2.4% | 7.5hPa | 2.6V | 03:13:44 | 02:36:34 | 00:00:00 | |
| DF8AY | 2026-08-30 12:33:42 | 53.05002 | 10.96059 | 15° | 27km/h | 33391m | 5.3m/s | -39.6°C | 0% | 7.5hPa | 2.6V | 03:13:54 | 02:36:33 | 00:00:00 | |
| HSKMA3-T | 2026-08-30 12:33:41 | 53.04995 | 10.96056 | 20° | 31km/h | 33385m | 6.2m/s | -39.7°C | 0% | 7.5hPa | 2.7V | 03:13:54 | 02:36:32 | 00:00:00 | |
| BIOWL1-15 | 2026-08-30 12:33:40 | 53.04988 | 10.96050 | 29° | 33km/h | 33379m | 6.3m/s | -39.7°C | 0% | 7.5hPa | 2.7V | 03:13:54 | 02:36:31 | 00:00:00 | |
| DB0DAN | 2026-08-30 12:33:40 | 53.04988 | 10.96050 | 29° | 31km/h | 33379m | 6.3m/s | -39.7°C | 0.4% | 7.51hPa | 2.7V | 00:00:00 | 00:00:00 | 00:00:00 | |
| AA1-15 | 2026-08-30 12:33:37 | 53.04963 | 10.96015 | 44° | 27km/h | 33357m | 6m/s | -39.9°C | 0% | 7.5hPa | 2.6V | 03:13:54 | 02:36:27 | 00:00:00 | |
| GOEST3-10 | 2026-08-30 12:33:37 | 53.04968 | 10.96024 | 46° | 24km/h | 33363m | 4.7m/s | -39.7°C | 2.5% | 7.5hPa | 2.6V | 00:00:00 | 00:00:00 | 00:00:00 | |
| DM0DOS-11 | 2026-08-30 12:33:36 | 53.04945 | 10.95991 | 56° | 16km/h | 33327m | 6.4m/s | -40.3°C | 2.7% | 7.5hPa | 2.6V | 03:13:56 | 02:36:22 | 00:00:00 | |
| DL1XH-west | 2026-08-30 12:33:36 | 53.04958 | 10.96008 | 38° | 24km/h | 33351m | 6.7m/s | -39.9°C | 0% | 7.5hPa | 2.7V | 03:13:54 | 02:36:26 | 00:00:00 | |
| SMARD9-10 | 2026-08-30 12:33:36 | 53.04963 | 10.96015 | 45° | 27km/h | 33357m | 6.0m/s | -39.9°C | 0.4% | 7.5hPa | 2.7V | 00:00:00 | 00:00:00 | 00:00:00 | |
| DD8BA-10 | 2026-08-30 12:33:35 | 53.04958 | 10.96008 | 39° | 22km/h | 33351m | 6.7m/s | -39.9°C | 2.5% | 7.5hPa | 2.7V | 03:13:00 | 00:00:00 | 00:00:00 | |
| DL1NUX | 2026-08-30 12:33:34 | 53.04951 | 10.96000 | 32° | 15km/h | 33338m | 5.5m/s | -40.1°C | 2.6% | 7.6hPa | 2.7V | 03:13:54 | 02:36:24 | 00:00:00 | |
| DF8AY | 2026-08-30 12:33:32 | 53.04948 | 10.95996 | 42° | 15km/h | 33333m | 5m/s | -40.2°C | 0% | 7.5hPa | 2.6V | 03:14:45 | 02:36:23 | 00:00:00 | |
| HSKMA3-T | 2026-08-30 12:33:31 | 53.04945 | 10.95991 | 56° | 16km/h | 33327m | 6.4m/s | -40.3°C | 0% | 7.5hPa | 2.6V | 03:14:45 | 02:36:22 | 00:00:00 | |
| BIOWL1-15 | 2026-08-30 12:33:30 | 53.04941 | 10.95977 | 64° | 24km/h | 33315m | 5.8m/s | -40.3°C | 0% | 7.6hPa | 2.7V | 03:14:45 | 02:36:20 | 00:00:00 | |
| DL1XH1-15 | 2026-08-30 12:33:29 | 53.04934 | 10.95959 | 47° | 27km/h | 33304m | 5.9m/s | -40.4°C | 2.6% | 7.6hPa | 2.7V | 03:14:00 | 02:36:18 | 00:00:00 | |
| AA1-15 | 2026-08-30 12:33:27 | 53.04929 | 10.95951 | 35° | 27km/h | 33297m | 6.9m/s | -40.5°C | 0% | 7.6hPa | 2.6V | 03:14:45 | 02:36:17 | 00:00:00 | |
| DO2SHX-10 | 2026-08-30 12:33:27 | 53.04934 | 10.95959 | 48° | 27km/h | 33304m | 5.9m/s | -40.4°C | 2.6% | 7.6hPa | 2.7V | 00:00:00 | 02:36:18 | 00:00:00 | |
| DF7ER-10 | 2026-08-30 12:33:26 | 53.04934 | 10.95959 | 48° | 27km/h | 33304m | 5.9m/s | -40.4°C | 0.5% | 7.6hPa | 2.6V | 03:14:00 | 00:00:00 | 00:00:00 | |
| DB0DAN | 2026-08-30 12:33:25 | 53.04923 | 10.95946 | 24° | 27km/h | 33291m | 6.3m/s | -40.6°C | 0.4% | 7.58hPa | 2.6V | 00:00:00 | 00:00:00 | 00:00:00 | |
| DL1XH-west | 2026-08-30 12:33:25 | 53.04916 | 10.95941 | 21° | 29km/h | 33285m | 5.4m/s | -40.6°C | 0% | 7.6hPa | 2.7V | 03:14:45 | 02:36:15 | 00:00:00 | |
| DL1NUX | 2026-08-30 12:33:24 | 53.04909 | 10.95936 | 26° | 29km/h | 33280m | 5m/s | -40.5°C | 2.7% | 7.6hPa | 2.7V | 03:14:04 | 02:36:14 | 00:00:00 | |
| DO2SHX-10 | 2026-08-30 12:33:24 | 53.04916 | 10.95941 | 22° | 29km/h | 33285m | 5.3m/s | -40.6°C | 2.7% | 7.6hPa | 2.7V | 00:00:00 | 02:36:15 | 00:00:00 | |
| DL1XH1-15 | 2026-08-30 12:33:22 | 53.04884 | 10.95883 | 62° | 20km/h | 33243m | 7.1m/s | -40.7°C | 2.6% | 7.7hPa | 2.7V | 03:14:10 | 02:36:08 | 00:00:00 | |
| SO1NDE-10 | 2026-08-30 12:33:22 | 53.04902 | 10.95930 | 34° | 26km/h | 33274m | 6.8m/s | -40.4°C | 2.6% | 7.6hPa | 2.7V | 00:00:00 | 02:36:13 | 00:00:00 | |
| DL1XH-15 | 2026-08-30 12:33:21 | 53.04881 | 10.95876 | 57° | 18km/h | 33237m | 6m/s | -40.7°C | 2.6% | 7.7hPa | 2.7V | 03:14:11 | 02:36:07 | 00:00:00 | |
| DF8AY | 2026-08-30 12:33:21 | 53.04897 | 10.95922 | 48° | 29km/h | 33267m | 7.1m/s | -40.4°C | 0% | 7.6hPa | 2.7V | 03:14:45 | 02:36:12 | 00:00:00 | |
| HSKMA3-T | 2026-08-30 12:33:20 | 53.04892 | 10.95912 | 58° | 29km/h | 33261m | 6.3m/s | -40.5°C | 0% | 7.6hPa | 2.6V | 03:14:45 | 02:36:11 | 00:00:00 | |
| AA1-15 | 2026-08-30 12:33:16 | 53.04881 | 10.95876 | 57° | 18km/h | 33237m | 6m/s | -40.7°C | 0% | 7.7hPa | 2.7V | 03:14:45 | 02:36:07 | 00:00:00 | |
| 13BRC | 2026-08-30 12:33:16 | 53.04881 | 10.95876 | 58° | 18km/h | 33237m | 6.0m/s | 0°C | 0% | 0hPa | 2.7V | 00:00:00 | 00:00:00 | 00:00:00 | |
| DM0DOS-11 | 2026-08-30 12:33:15 | 53.04868 | 10.95835 | 68° | 33km/h | 33207m | 6.1m/s | -40.8°C | 2.7% | 7.7hPa | 2.7V | 03:14:16 | 02:36:02 | 00:00:00 | |
| DL1XH-west | 2026-08-30 12:33:14 | 53.04876 | 10.95864 | 59° | 20km/h | 33226m | 4.8m/s | -40.8°C | 0% | 7.7hPa | 2.6V | 03:14:45 | 02:36:05 | 00:00:00 | |
| DL1NUX | 2026-08-30 12:33:14 | 53.04874 | 10.95856 | 63° | 24km/h | 33220m | 6.3m/s | -40.8°C | 2.6% | 7.7hPa | 2.7V | 03:14:14 | 02:36:04 | 00:00:00 | |
| AM1SDL-15 | 2026-08-30 12:33:13 | 53.04874 | 10.95856 | 64° | 26km/h | 33221m | 6.3m/s | -40.8°C | 2.6% | 7.7hPa | 2.7V | 00:00:00 | 02:36:04 | 00:00:00 | |
| DF7PN | 2026-08-30 12:33:12 | 53.04868 | 10.95835 | 68° | 31km/h | 33207m | 6.1m/s | -40.8°C | 0.4% | 7.7hPa | 2.7V | 00:00:00 | 00:00:00 | 00:00:00 | |
| DL1XH-15 | 2026-08-30 12:33:11 | 53.04848 | 10.95784 | 35° | 24km/h | 33177m | 5.5m/s | -41°C | 2.7% | 7.7hPa | 2.7V | 03:14:21 | 02:35:57 | 00:00:00 | |
| DF8AY | 2026-08-30 12:33:10 | 53.04865 | 10.95822 | 65° | 33km/h | 33202m | 5.2m/s | -40.9°C | 0% | 7.7hPa | 2.7V | 03:14:45 | 02:36:01 | 00:00:00 | |
| DB0DAN | 2026-08-30 12:33:10 | 53.04865 | 10.95822 | 65° | 31km/h | 33202m | 5.2m/s | -40.9°C | 0.4% | 7.7hPa | 2.7V | 00:00:00 | 00:00:00 | 00:00:00 | |
| HSKMA3-T | 2026-08-30 12:33:09 | 53.04861 | 10.95810 | 60° | 31km/h | 33196m | 5.2m/s | -41°C | 0% | 7.7hPa | 2.6V | 03:14:45 | 02:36:00 | 00:00:00 | |
| DL1XH1-15 | 2026-08-30 12:33:09 | 53.04853 | 10.95791 | 42° | 26km/h | 33183m | 6.8m/s | -41.1°C | 2.7% | 7.7hPa | 2.7V | 03:14:20 | 02:35:58 | 00:00:00 | |
| BIOWL1-15 | 2026-08-30 12:33:06 | 53.04848 | 10.95784 | 35° | 24km/h | 33177m | 5.5m/s | -41°C | 0% | 7.7hPa | 2.7V | 03:14:45 | 02:35:57 | 00:00:00 | |
| AA1-15 | 2026-08-30 12:33:06 | 53.04843 | 10.95779 | 37° | 20km/h | 33172m | 4.7m/s | -40.9°C | 0% | 7.7hPa | 2.7V | 03:14:45 | 02:35:56 | 00:00:00 | |
| DL1XH-west | 2026-08-30 12:33:04 | 53.04840 | 10.95773 | 52° | 20km/h | 33167m | 4.8m/s | -40.9°C | 0% | 7.8hPa | 2.7V | 03:14:45 | 02:35:55 | 00:00:00 | |
| DL1NUX | 2026-08-30 12:33:04 | 53.04838 | 10.95766 | 71° | 22km/h | 33162m | 6.2m/s | -41°C | 2.7% | 7.8hPa | 2.6V | 03:14:24 | 02:35:54 | 00:00:00 | |
| DO2SHX-10 | 2026-08-30 12:33:03 | 53.04838 | 10.95766 | 72° | 27km/h | 33163m | 6.1m/s | -41.0°C | 2.7% | 7.7hPa | 2.7V | 00:00:00 | 02:35:54 | 00:00:00 | |
| DL1XH1-15 | 2026-08-30 12:33:02 | 53.04842 | 10.95684 | 59° | 16km/h | 33120m | 6.6m/s | -41.5°C | 2.7% | 7.8hPa | 2.7V | 03:14:31 | 02:35:47 | 00:00:00 | |
| GOEST3-10 | 2026-08-30 12:33:02 | 53.04836 | 10.95756 | 89° | 33km/h | 33156m | 7.2m/s | -41.0°C | 2.7% | 7.7hPa | 2.6V | 00:00:00 | 02:35:53 | 00:00:00 | |
| DL1XH-15 | 2026-08-30 12:33:01 | 53.04842 | 10.95684 | 59° | 16km/h | 33120m | 6.6m/s | -41.5°C | 2.7% | 7.8hPa | 2.7V | 03:14:31 | 02:35:47 | 00:00:00 | |
| DF8AY | 2026-08-30 12:32:59 | 53.04841 | 10.95715 | 104° | 35km/h | 33138m | 4.2m/s | -41.3°C | 0% | 7.8hPa | 2.7V | 03:14:45 | 02:35:50 | 00:00:00 | |
| HSKMA3-T | 2026-08-30 12:32:58 | 53.04843 | 10.95702 | 100° | 29km/h | 33133m | 5.2m/s | -41.4°C | 0% | 7.8hPa | 2.6V | 03:14:45 | 02:35:49 | 00:00:00 | |
| BIOWL1-15 | 2026-08-30 12:32:56 | 53.04842 | 10.95684 | 60° | 16km/h | 33120m | 6.6m/s | -41.5°C | 0% | 7.8hPa | 2.7V | 03:14:45 | 02:35:47 | 00:00:00 | |
| DF8AY-15 | 2026-08-30 12:32:56 | 53.04842 | 10.95684 | 60° | 33km/h | 33121m | 6.5m/s | -41.4°C | 2.7% | 7.7hPa | 2.7V | 03:14:00 | 02:35:47 | 00:00:00 | |
| DM0DOS-11 | 2026-08-30 12:32:55 | 53.04808 | 10.95651 | 39° | 46km/h | 33089m | 6.8m/s | -41.8°C | 2.8% | 7.8hPa | 2.6V | 03:14:36 | 02:35:42 | 00:00:00 | |
| DB0DAN | 2026-08-30 12:32:55 | 53.04839 | 10.95679 | 29° | 20km/h | 33114m | 6.1m/s | -41.6°C | 0.5% | 7.83hPa | 2.7V | 00:00:00 | 00:00:00 | 00:00:00 | |
| DL1XH-west | 2026-08-30 12:32:54 | 53.04833 | 10.95674 | 21° | 29km/h | 33108m | 5.8m/s | -41.7°C | 0% | 7.8hPa | 2.7V | 03:14:45 | 02:35:45 | 00:00:00 | |
| DB0UT-7 | 2026-08-30 12:32:54 | 53.04833 | 10.95674 | 21° | 31km/h | 33109m | 5.7m/s | -41.7°C | 2.8% | 7.8hPa | 2.7V | 00:00:00 | 00:00:00 | 00:00:00 | |
| DO3MHA-11 | 2026-08-30 12:32:53 | 53.04825 | 10.95669 | 24° | 29km/h | 33103m | 5.7m/s | -41.8°C | 2.8% | 7.7hPa | 2.7V | 03:14:00 | 02:35:44 | 00:00:00 | |
| GOEST3-10 | 2026-08-30 12:32:52 | 53.04817 | 10.95662 | 31° | 44km/h | 33096m | 7.1m/s | -41.7°C | 2.8% | 7.8hPa | 2.6V | 00:00:00 | 02:35:43 | 00:00:00 | |
| DL1XH-15 | 2026-08-30 12:32:51 | 53.04782 | 10.95582 | 81° | 27km/h | 33059m | 6m/s | -41.7°C | 2.9% | 7.9hPa | 2.6V | 03:14:41 | 02:35:37 | 00:00:00 | |
| DF8AY | 2026-08-30 12:32:49 | 53.04792 | 10.95623 | 57° | 44km/h | 33077m | 5.5m/s | -42°C | 0% | 7.8hPa | 2.7V | 03:14:45 | 02:35:40 | 00:00:00 | |
| HSKMA3-T | 2026-08-30 12:32:48 | 53.04787 | 10.95608 | 63° | 38km/h | 33072m | 6.5m/s | -41.8°C | 0% | 7.8hPa | 2.7V | 03:14:45 | 02:35:39 | 00:00:00 | |
| DL3AQ-11 | 2026-08-30 12:32:48 | 53.04783 | 10.95594 | 70° | 31km/h | 33065m | 6.7m/s | -41.7°C | 0.5% | 7.9hPa | 2.7V | 00:00:00 | 00:00:00 | 00:00:00 | |
| GOEST3-10 | 2026-08-30 12:32:47 | 53.04783 | 10.95594 | 71° | 27km/h | 33065m | 6.6m/s | -41.6°C | 2.8% | 7.8hPa | 2.7V | 03:14:00 | 00:00:00 | 00:00:00 | |
| DJ8HS-15 | 2026-08-30 12:32:46 | 53.04782 | 10.95582 | 82° | 29km/h | 33059m | 6.0m/s | -41.6°C | 2.9% | 7.8hPa | 2.6V | 03:14:00 | 02:35:37 | 00:00:00 | |
| DM0DOS-11 | 2026-08-30 12:32:45 | 53.04781 | 10.95526 | 80° | 31km/h | 33029m | 5.7m/s | -41.9°C | 2.9% | 7.9hPa | 2.6V | 03:14:46 | 02:35:32 | 00:00:00 | |
| BIOWL1-15 | 2026-08-30 12:32:45 | 53.04781 | 10.95572 | 90° | 24km/h | 33053m | 5.6m/s | -41.8°C | 0% | 7.9hPa | 2.6V | 03:14:45 | 02:35:36 | 00:00:00 | |
| DL1XH-west | 2026-08-30 12:32:44 | 53.04782 | 10.95551 | 92° | 27km/h | 33041m | 6.5m/s | -41.9°C | 0% | 7.9hPa | 2.7V | 03:14:45 | 02:35:34 | 00:00:00 | |
| BUE01 | 2026-08-30 12:32:43 | 53.04782 | 10.95551 | 92° | 27km/h | 33041m | 6.5m/s | -41.9°C | 0.5% | 7.9hPa | 2.7V | 00:00:00 | 00:00:00 | 00:00:00 | |
| DO2SHX-10 | 2026-08-30 12:32:42 | 53.04782 | 10.95539 | 88° | 31km/h | 33035m | 6.0m/s | -41.9°C | 2.9% | 7.9hPa | 2.7V | 00:00:00 | 02:35:33 | 00:00:00 | |
| DL1XH-15 | 2026-08-30 12:32:41 | 53.04759 | 10.95480 | 27° | 31km/h | 32998m | 5.4m/s | -41.6°C | 2.8% | 8hPa | 2.7V | 03:14:51 | 02:35:27 | 00:00:00 | |
| DF8AY | 2026-08-30 12:32:38 | 53.04771 | 10.95494 | 45° | 27km/h | 33010m | 7.4m/s | -41.5°C | 0% | 8hPa | 2.7V | 03:15:36 | 02:35:29 | 00:00:00 | |
| HSKMA3-T | 2026-08-30 12:32:37 | 53.04766 | 10.95486 | 33° | 29km/h | 33004m | 6.5m/s | -41.5°C | 0% | 7.9hPa | 2.7V | 03:15:36 | 02:35:28 | 00:00:00 | |
| DG6HD-15 | 2026-08-30 12:32:37 | 53.04766 | 10.95486 | 34° | 29km/h | 33004m | 6.5m/s | -41.5°C | 0.5% | 7.9hPa | 2.7V | 03:15:00 | 00:00:00 | 00:00:00 | |
| DO2SHX-10 | 2026-08-30 12:32:36 | 53.04759 | 10.95480 | 28° | 35km/h | 32998m | 5.4m/s | -41.5°C | 2.8% | 7.9hPa | 2.7V | 00:00:00 | 02:35:27 | 00:00:00 | |
| DM0DOS-11 | 2026-08-30 12:32:35 | 53.04723 | 10.95429 | 55° | 37km/h | 32968m | 5.2m/s | -41.5°C | 2.7% | 8hPa | 2.7V | 03:14:56 | 02:35:22 | 00:00:00 | |
| BIOWL1-15 | 2026-08-30 12:32:34 | 53.04744 | 10.95465 | 36° | 38km/h | 32987m | 6.7m/s | -41.6°C | 0% | 7.9hPa | 2.6V | 03:15:36 | 02:35:25 | 00:00:00 | |
| AA1-15 | 2026-08-30 12:32:34 | 53.04729 | 10.95442 | 50° | 40km/h | 32974m | 6m/s | -41.5°C | 0% | 8hPa | 2.7V | 03:15:36 | 02:35:23 | 00:00:00 | |
| DL1XH-west | 2026-08-30 12:32:33 | 53.04724 | 10.95429 | 56° | 37km/h | 32968m | 5.2m/s | -41.5°C | 0% | 8hPa | 2.7V | 03:15:36 | 02:35:22 | 00:00:00 | |
| DL1XH-15 | 2026-08-30 12:32:32 | 53.04712 | 10.95393 | 63° | 9km/h | 32939m | 4.9m/s | -41.8°C | 2.6% | 8hPa | 2.7V | 03:15:01 | 02:35:17 | 00:00:00 | |
| DF8AY | 2026-08-30 12:32:28 | 53.04714 | 10.95401 | 69° | 15km/h | 32949m | 6.6m/s | -41.7°C | 0% | 8hPa | 2.7V | 03:15:36 | 02:35:19 | 00:00:00 | |
| HSKMA3-T | 2026-08-30 12:32:27 | 53.04713 | 10.95396 | 68° | 9km/h | 32943m | 5.3m/s | -41.7°C | 0% | 8hPa | 2.7V | 03:15:36 | 02:35:18 | 00:00:00 | |
| BIOWL1-15 | 2026-08-30 12:32:26 | 53.04709 | 10.95383 | 52° | 18km/h | 32926m | 6.8m/s | -41.9°C | 0% | 8hPa | 2.6V | 03:15:36 | 02:35:15 | 00:00:00 | |
| DB0DAN | 2026-08-30 12:32:25 | 53.04711 | 10.95388 | 57° | 13km/h | 32933m | 6.9m/s | -41.8°C | 0.5% | 8.03hPa | 2.7V | 00:00:00 | 00:00:00 | 00:00:00 | |
| DD8BA-10 | 2026-08-30 12:32:25 | 53.04711 | 10.95388 | 57° | 22km/h | 32933m | 6.8m/s | -41.8°C | 2.7% | 8.0hPa | 2.6V | 00:00:00 | 00:00:00 | 00:00:00 | |
| DL1NUX | 2026-08-30 12:32:24 | 53.04705 | 10.95377 | 45° | 22km/h | 32920m | 5.8m/s | -42.1°C | 2.8% | 8hPa | 2.6V | 03:15:04 | 02:35:14 | 00:00:00 | |
| DO2SHX-10 | 2026-08-30 12:32:24 | 53.04708 | 10.95383 | 53° | 22km/h | 32926m | 6.8m/s | -41.9°C | 2.7% | 8.0hPa | 2.6V | 00:00:00 | 02:35:15 | 00:00:00 | |
| DF7ER-10 | 2026-08-30 12:32:23 | 53.04708 | 10.95383 | 53° | 18km/h | 32926m | 6.8m/s | -41.9°C | 0.5% | 8.0hPa | 2.7V | 03:15:00 | 00:00:00 | 00:00:00 | |
| AA1-15 | 2026-08-30 12:32:23 | 53.04701 | 10.95371 | 37° | 24km/h | 32914m | 4.9m/s | -42.1°C | 0% | 8.1hPa | 2.7V | 03:15:36 | 02:35:13 | 00:00:00 | |
| DM0DOS-11 | 2026-08-30 12:32:22 | 53.04696 | 10.95365 | 29° | 24km/h | 32909m | 6.3m/s | -42.1°C | 2.8% | 8.1hPa | 2.7V | 03:15:06 | 02:35:12 | 00:00:00 | |
| DL1XH-west | 2026-08-30 12:32:21 | 53.04696 | 10.95365 | 29° | 24km/h | 32909m | 6.3m/s | -42.1°C | 0% | 8.1hPa | 2.7V | 03:15:36 | 02:35:12 | 00:00:00 | |
| DL1XH-15 | 2026-08-30 12:32:21 | 53.04668 | 10.95348 | 29° | 24km/h | 32876m | 7.2m/s | -42.2°C | 2.9% | 8.1hPa | 2.7V | 03:15:11 | 02:35:07 | 00:00:00 | |
| BIOWL1-15 | 2026-08-30 12:32:18 | 53.04660 | 10.95338 | 44° | 18km/h | 32865m | 4.7m/s | -42.2°C | 0% | 8.1hPa | 2.7V | 03:15:36 | 02:35:05 | 00:00:00 | |
| HSKMA3-T | 2026-08-30 12:32:18 | 53.04673 | 10.95353 | 21° | 24km/h | 32883m | 6.4m/s | -42.3°C | 0% | 8.1hPa | 2.6V | 03:15:36 | 02:35:08 | 00:00:00 | |
| EDDB2-12 | 2026-08-30 12:32:17 | 53.04668 | 10.95348 | 29° | 22km/h | 32877m | 7.2m/s | -42.2°C | 0.5% | 8.1hPa | 2.7V | 00:00:00 | 00:00:00 | 00:00:00 | |
| DM0DOS-11 | 2026-08-30 12:32:16 | 53.04654 | 10.95331 | 323° | 5km/h | 32846m | 7m/s | -42.5°C | 2.9% | 8.2hPa | 2.7V | 03:15:16 | 02:35:02 | 00:00:00 | |
| AA1-15 | 2026-08-30 12:32:14 | 53.04657 | 10.95333 | 44° | 13km/h | 32860m | 5.3m/s | -42.2°C | 0% | 8.1hPa | 2.6V | 03:15:36 | 02:35:04 | 00:00:00 | |
| DF8AY | 2026-08-30 12:32:12 | 53.04631 | 10.95328 | 29° | 29km/h | 32804m | 5.5m/s | -42.8°C | 0% | 8.2hPa | 2.7V | 03:15:36 | 02:34:55 | 00:00:00 | |
| DL1XH-west | 2026-08-30 12:32:11 | 53.04654 | 10.95331 | 324° | 5km/h | 32846m | 7m/s | -42.5°C | 0% | 8.2hPa | 2.7V | 03:15:36 | 02:35:02 | 00:00:00 | |
| DF7PN | 2026-08-30 12:32:10 | 53.04652 | 10.95336 | 311° | 7km/h | 32836m | 4.3m/s | -42.6°C | 0.5% | 8.1hPa | 2.7V | 00:00:00 | 00:00:00 | 00:00:00 | |
| DO2SHX-10 | 2026-08-30 12:32:09 | 53.04652 | 10.95336 | 312° | 11km/h | 32836m | 4.3m/s | -42.6°C | 2.9% | 8.1hPa | 2.7V | 03:15:00 | 02:35:00 | 00:00:00 | |
| DL1NUX | 2026-08-30 12:32:08 | 53.04625 | 10.95322 | 29° | 27km/h | 32800m | 4.7m/s | -42.8°C | 3.1% | 8.2hPa | 2.7V | 03:15:24 | 02:34:54 | 00:00:00 | |
| HSKMA3-T | 2026-08-30 12:32:06 | 53.04643 | 10.95337 | 19° | 20km/h | 32818m | 7.6m/s | -42.8°C | 0% | 8.1hPa | 2.6V | 03:15:36 | 02:34:57 | 00:00:00 | |
| BIOWL1-15 | 2026-08-30 12:32:03 | 53.04625 | 10.95322 | 30° | 27km/h | 32800m | 4.7m/s | -42.8°C | 0% | 8.2hPa | 2.7V | 03:15:36 | 02:34:54 | 00:00:00 | |
| DO2SHX-10 | 2026-08-30 12:32:03 | 53.04625 | 10.95322 | 30° | 20km/h | 32800m | 4.7m/s | -42.7°C | 3.1% | 8.1hPa | 2.7V | 00:00:00 | 02:34:54 | 00:00:00 | |
| DL1XH1-15 | 2026-08-30 12:32:02 | 53.04612 | 10.95321 | 279° | 4km/h | 32765m | 4.6m/s | -42.5°C | 3.1% | 8.2hPa | 2.7V | 03:15:30 | 02:34:48 | 00:00:00 | |
| DL1XH-15 | 2026-08-30 12:32:02 | 53.04611 | 10.95321 | 57° | 4km/h | 32760m | 6m/s | -42.5°C | 3.1% | 8.2hPa | 2.6V | 03:15:31 | 02:34:47 | 00:00:00 | |
| DL1XH-west | 2026-08-30 12:32:01 | 53.04616 | 10.95314 | 17° | 15km/h | 32788m | 6.8m/s | -42.7°C | 0% | 8.2hPa | 2.6V | 03:15:36 | 02:34:52 | 00:00:00 | |
| DF8AY | 2026-08-30 12:31:57 | 53.04612 | 10.95321 | 279° | 4km/h | 32765m | 4.6m/s | -42.5°C | 0% | 8.2hPa | 2.7V | 03:15:36 | 02:34:48 | 00:00:00 | |
| HSKMA3-T | 2026-08-30 12:31:56 | 53.04611 | 10.95321 | 58° | 4km/h | 32760m | 6m/s | -42.5°C | 0% | 8.2hPa | 2.6V | 03:15:36 | 02:34:47 | 00:00:00 | |
| DB0DAN | 2026-08-30 12:31:55 | 53.04610 | 10.95318 | 61° | 13km/h | 32754m | 7m/s | -42.5°C | 0.5% | 8.26hPa | 2.6V | 00:00:00 | 00:00:00 | 00:00:00 | |
| BIOWL1-15 | 2026-08-30 12:31:54 | 53.04602 | 10.95290 | 64° | 31km/h | 32734m | 5m/s | -42.6°C | 0% | 8.3hPa | 2.7V | 03:15:36 | 02:34:43 | 00:00:00 | |
| DL1NUX | 2026-08-30 12:31:54 | 53.04605 | 10.95301 | 63° | 29km/h | 32739m | 6.5m/s | -42.5°C | 3.1% | 8.3hPa | 2.7V | 03:15:34 | 02:34:44 | 00:00:00 | |
| DO2SHX-10 | 2026-08-30 12:31:54 | 53.04608 | 10.95311 | 65° | 27km/h | 32747m | 7.3m/s | -42.4°C | 3.1% | 8.2hPa | 2.7V | 00:00:00 | 02:34:45 | 00:00:00 | |
| 13BRC | 2026-08-30 12:31:52 | 53.04602 | 10.95290 | 65° | 31km/h | 32735m | 5.0m/s | 0°C | 0% | 0hPa | 2.7V | 03:15:00 | 00:00:00 | 00:00:00 | |
| AA1-15 | 2026-08-30 12:31:52 | 53.04599 | 10.95279 | 65° | 27km/h | 32729m | 5.1m/s | -42.6°C | 0% | 8.3hPa | 2.7V | 03:15:36 | 02:34:42 | 00:00:00 | |
| DL1XH-15 | 2026-08-30 12:31:51 | 53.04594 | 10.95258 | 142° | 0km/h | 32697m | 6.4m/s | -42.2°C | 3.1% | 8.3hPa | 2.7V | 03:15:41 | 02:34:37 | 00:00:00 | |
| DL1XH-west | 2026-08-30 12:31:50 | 53.04596 | 10.95269 | 66° | 22km/h | 32723m | 6.7m/s | -42.4°C | 0% | 8.3hPa | 2.6V | 03:16:27 | 02:34:41 | 00:00:00 | |
| DL1XH1-15 | 2026-08-30 12:31:49 | 53.04594 | 10.95258 | 140° | 2km/h | 32704m | 6m/s | -42.3°C | 3.1% | 8.3hPa | 2.7V | 03:15:40 | 02:34:38 | 00:00:00 | |
| DF8AY | 2026-08-30 12:31:46 | 53.04594 | 10.95258 | 142° | 2km/h | 32697m | 6.4m/s | -42.2°C | 0% | 8.3hPa | 2.7V | 03:16:27 | 02:34:37 | 00:00:00 | |
| HSKMA3-T | 2026-08-30 12:31:45 | 53.04594 | 10.95257 | 51° | 4km/h | 32691m | 6.4m/s | -42.1°C | 0% | 8.3hPa | 2.6V | 03:16:27 | 02:34:36 | 00:00:00 | |
| DO2SHX-10 | 2026-08-30 12:31:45 | 53.04594 | 10.95257 | 51° | 9km/h | 32692m | 6.4m/s | -42.1°C | 3.1% | 8.3hPa | 2.7V | 03:15:00 | 02:34:36 | 00:00:00 | |
| DL1NUX | 2026-08-30 12:31:44 | 53.04591 | 10.95251 | 40° | 15km/h | 32680m | 5.2m/s | -42°C | 3% | 8.3hPa | 2.7V | 03:15:44 | 02:34:34 | 00:00:00 | |
| BIOWL1-15 | 2026-08-30 12:31:44 | 53.04587 | 10.95247 | 37° | 18km/h | 32675m | 5.7m/s | -42°C | 0% | 8.4hPa | 2.7V | 03:16:27 | 02:34:33 | 00:00:00 | |
| DL3AQ-11 | 2026-08-30 12:31:43 | 53.04591 | 10.95251 | 40° | 15km/h | 32680m | 5.2m/s | -42.0°C | 0.5% | 8.3hPa | 2.7V | 00:00:00 | 00:00:00 | 00:00:00 | |
| DL1XH1-15 | 2026-08-30 12:31:42 | 53.04563 | 10.95219 | 45° | 29km/h | 32645m | 5.8m/s | -42.1°C | 3% | 8.4hPa | 2.7V | 03:15:50 | 02:34:28 | 00:00:00 | |
| DO2SHX-10 | 2026-08-30 12:31:42 | 53.04587 | 10.95247 | 38° | 20km/h | 32675m | 5.7m/s | -41.9°C | 3.0% | 8.3hPa | 2.7V | 00:00:00 | 02:34:33 | 00:00:00 | |
| DL1XH-15 | 2026-08-30 12:31:41 | 53.04558 | 10.95210 | 53° | 33km/h | 32639m | 7.7m/s | -42.1°C | 3% | 8.4hPa | 2.7V | 03:15:51 | 02:34:27 | 00:00:00 | |
| AA1-15 | 2026-08-30 12:31:40 | 53.04568 | 10.95227 | 37° | 26km/h | 32650m | 5.1m/s | -42°C | 0% | 8.4hPa | 2.6V | 03:16:27 | 02:34:29 | 00:00:00 | |
| DB0DAN | 2026-08-30 12:31:40 | 53.04579 | 10.95238 | 27° | 22km/h | 32662m | 6.8m/s | -41.9°C | 0.5% | 8.35hPa | 2.7V | 00:00:00 | 00:00:00 | 00:00:00 | |
| DL1XH-west | 2026-08-30 12:31:40 | 53.04573 | 10.95233 | 29° | 24km/h | 32656m | 5.6m/s | -42°C | 0% | 8.4hPa | 2.6V | 03:16:27 | 02:34:30 | 00:00:00 | |
| DF8AY | 2026-08-30 12:31:36 | 53.04558 | 10.95210 | 54° | 33km/h | 32639m | 7.7m/s | -42.1°C | 0% | 8.4hPa | 2.7V | 03:16:27 | 02:34:27 | 00:00:00 | |
| DO2SHX-10 | 2026-08-30 12:31:36 | 53.04558 | 10.95210 | 54° | 33km/h | 32639m | 7.6m/s | -42.1°C | 3.0% | 8.3hPa | 2.7V | 00:00:00 | 02:34:27 | 00:00:00 | |
| DM0DOS-11 | 2026-08-30 12:31:35 | 53.04544 | 10.95159 | 68° | 11km/h | 32608m | 7.9m/s | -42.1°C | 3% | 8.4hPa | 2.7V | 03:15:56 | 02:34:22 | 00:00:00 | |
| HSKMA3-T | 2026-08-30 12:31:35 | 53.04553 | 10.95198 | 61° | 35km/h | 32631m | 6.9m/s | -42.1°C | 0% | 8.4hPa | 2.7V | 03:16:27 | 02:34:26 | 00:00:00 | |
| DG6HD-15 | 2026-08-30 12:31:35 | 53.04553 | 10.95198 | 62° | 35km/h | 32632m | 6.9m/s | -42.1°C | 0.5% | 8.4hPa | 2.6V | 03:16:00 | 00:00:00 | 00:00:00 | |
| DL1NUX | 2026-08-30 12:31:34 | 53.04547 | 10.95174 | 71° | 26km/h | 32620m | 5m/s | -42.1°C | 3% | 8.4hPa | 2.6V | 03:15:54 | 02:34:24 | 00:00:00 | |
| BIOWL1-15 | 2026-08-30 12:31:34 | 53.04545 | 10.95165 | 73° | 18km/h | 32615m | 6m/s | -42.1°C | 0% | 8.4hPa | 2.7V | 03:16:27 | 02:34:23 | 00:00:00 | |
| DO2SHX-10 | 2026-08-30 12:31:33 | 53.04547 | 10.95174 | 72° | 18km/h | 32621m | 4.9m/s | -42.0°C | 3.0% | 8.4hPa | 2.7V | 03:15:00 | 02:34:24 | 00:00:00 | |
| GOEST3-10 | 2026-08-30 12:31:32 | 53.04545 | 10.95165 | 73° | 9km/h | 32615m | 5.9m/s | -42.0°C | 3.0% | 8.3hPa | 2.7V | 00:00:00 | 02:34:23 | 00:00:00 | |
| DL1XH-15 | 2026-08-30 12:31:31 | 53.04532 | 10.95151 | 39° | 27km/h | 32579m | 7.1m/s | -41.9°C | 2.9% | 8.5hPa | 2.7V | 03:16:01 | 02:34:17 | 00:00:00 | |
| DO2SHX-10 | 2026-08-30 12:31:30 | 53.04543 | 10.95157 | 23° | 7km/h | 32601m | 6.8m/s | -42.0°C | 2.9% | 8.4hPa | 2.7V | 00:00:00 | 02:34:21 | 00:00:00 | |
| DL1XH1-15 | 2026-08-30 12:31:29 | 53.04537 | 10.95156 | 26° | 16km/h | 32585m | 5.9m/s | -41.9°C | 2.9% | 8.5hPa | 2.6V | 03:16:00 | 02:34:18 | 00:00:00 | |
| DL1XH-west | 2026-08-30 12:31:28 | 53.04540 | 10.95158 | 3° | 11km/h | 32590m | 4.3m/s | -42°C | 0% | 8.5hPa | 2.6V | 03:16:27 | 02:34:19 | 00:00:00 | |
| HSKMA3-T | 2026-08-30 12:31:25 | 53.04526 | 10.95141 | 48° | 38km/h | 32572m | 7.1m/s | -41.9°C | 0% | 8.5hPa | 2.7V | 03:16:27 | 02:34:16 | 00:00:00 | |
| DD8BA-10 | 2026-08-30 12:31:25 | 53.04526 | 10.95141 | 49° | 37km/h | 32572m | 7.1m/s | -41.9°C | 2.9% | 8.4hPa | 2.7V | 00:00:00 | 00:00:00 | 00:00:00 | |
| DM0DOS-11 | 2026-08-30 12:31:24 | 53.04500 | 10.95075 | 63° | 44km/h | 32548m | 6.3m/s | -41.7°C | 2.9% | 8.5hPa | 2.7V | 03:16:06 | 02:34:12 | 00:00:00 | |
| DF8AY | 2026-08-30 12:31:24 | 53.04519 | 10.95127 | 53° | 47km/h | 32565m | 6.3m/s | -42°C | 0% | 8.4hPa | 2.7V | 03:16:27 | 02:34:15 | 00:00:00 | |
| DO2SHX-10 | 2026-08-30 12:31:24 | 53.04519 | 10.95127 | 53° | 49km/h | 32566m | 6.2m/s | -42.0°C | 3.0% | 8.4hPa | 2.6V | 00:00:00 | 02:34:15 | 00:00:00 | |
| DL1XH1-15 | 2026-08-30 12:31:23 | 53.04489 | 10.95030 | 63° | 18km/h | 32524m | 5.6m/s | -41.9°C | 3% | 8.5hPa | 2.6V | 03:16:10 | 02:34:08 | 00:00:00 | |
| DL1XH-15 | 2026-08-30 12:31:22 | 53.04486 | 10.95022 | 55° | 20km/h | 32518m | 6.8m/s | -41.8°C | 2.9% | 8.5hPa | 2.6V | 03:16:11 | 02:34:07 | 00:00:00 | |
| DL1XH-west | 2026-08-30 12:31:18 | 53.04491 | 10.95037 | 70° | 22km/h | 32529m | 5.6m/s | -41.9°C | 0% | 8.5hPa | 2.7V | 03:16:27 | 02:34:09 | 00:00:00 | |
| DF8AY | 2026-08-30 12:31:14 | 53.04477 | 10.95007 | 39° | 31km/h | 32504m | 6.3m/s | -41.6°C | 0% | 8.6hPa | 2.7V | 03:16:27 | 02:34:05 | 00:00:00 | |
| DM0DOS-11 | 2026-08-30 12:31:14 | 53.04456 | 10.94984 | 29° | 35km/h | 32487m | 6.6m/s | -41.6°C | 2.9% | 8.6hPa | 2.6V | 03:16:16 | 02:34:02 | 00:00:00 | |
| DL1ZP-14 | 2026-08-30 12:31:14 | 53.04471 | 10.94999 | 35° | 33km/h | 32499m | 5.6m/s | -41.6°C | 0.5% | 8.6hPa | 2.7V | 00:00:00 | 00:00:00 | 00:00:00 | |
| SP3BTT-10 | 2026-08-30 12:31:13 | 53.04471 | 10.94999 | 36° | 29km/h | 32499m | 5.5m/s | -41.5°C | 2.9% | 8.5hPa | 2.6V | 03:16:00 | 00:00:00 | 00:00:00 | |
| DO2SHX-10 | 2026-08-30 12:31:12 | 53.04464 | 10.94991 | 33° | 33km/h | 32494m | 5.3m/s | -41.5°C | 2.8% | 8.5hPa | 2.6V | 00:00:00 | 02:34:03 | 00:00:00 | |
| DL1XH-15 | 2026-08-30 12:31:11 | 53.04428 | 10.94946 | 61° | 31km/h | 32456m | 6.9m/s | -42°C | 2.9% | 8.6hPa | 2.6V | 03:16:21 | 02:33:57 | 00:00:00 | |
| BIOWL1-15 | 2026-08-30 12:31:11 | 53.04407 | 10.94876 | 9° | 13km/h | 32412m | 6.4m/s | -41.5°C | 0% | 8.7hPa | 2.7V | 03:17:18 | 02:33:50 | 00:00:00 | |
| BUE01 | 2026-08-30 12:31:10 | 53.04449 | 10.94977 | 28° | 31km/h | 32481m | 6.9m/s | -41.6°C | 0.5% | 8.6hPa | 2.7V | 00:00:00 | 00:00:00 | 00:00:00 | |
| DL1XH1-15 | 2026-08-30 12:31:09 | 53.04432 | 10.94956 | 52° | 27km/h | 32462m | 5.8m/s | -41.9°C | 2.9% | 8.6hPa | 2.7V | 03:16:20 | 02:33:58 | 00:00:00 | |
| AA1-15 | 2026-08-30 12:31:08 | 53.04432 | 10.94956 | 52° | 27km/h | 32462m | 5.8m/s | -41.9°C | 0% | 8.6hPa | 2.7V | 03:16:27 | 02:33:58 | 00:00:00 | |
| DL1XH-west | 2026-08-30 12:31:08 | 53.04437 | 10.94964 | 41° | 26km/h | 32468m | 5.7m/s | -41.7°C | 0% | 8.6hPa | 2.7V | 03:16:27 | 02:33:59 | 00:00:00 | |
| GOEST3-10 | 2026-08-30 12:31:07 | 53.04432 | 10.94956 | 53° | 33km/h | 32462m | 5.8m/s | -41.8°C | 2.9% | 8.6hPa | 2.6V | 03:16:00 | 00:00:00 | 00:00:00 | |
| DJ8HS-15 | 2026-08-30 12:31:06 | 53.04429 | 10.94946 | 62° | 22km/h | 32456m | 6.9m/s | -41.9°C | 2.9% | 8.6hPa | 2.6V | 00:00:00 | 02:33:57 | 00:00:00 | |
| DD8BA-10 | 2026-08-30 12:31:05 | 53.04425 | 10.94934 | 67° | 24km/h | 32449m | 7.5m/s | -42.1°C | 2.9% | 8.6hPa | 2.6V | 00:00:00 | 00:00:00 | 00:00:00 | |
| DM0DOS-11 | 2026-08-30 12:31:04 | 53.04413 | 10.94885 | 60° | 22km/h | 32426m | 7.2m/s | -41.9°C | 3% | 8.7hPa | 2.6V | 03:16:26 | 02:33:52 | 00:00:00 | |
| DL1NUX | 2026-08-30 12:31:04 | 53.04419 | 10.94906 | 69° | 35km/h | 32437m | 4.7m/s | -42.1°C | 3% | 8.6hPa | 2.7V | 03:16:24 | 02:33:54 | 00:00:00 | |
| HSKMA3-T | 2026-08-30 12:31:03 | 53.04419 | 10.94906 | 70° | 35km/h | 32437m | 4.7m/s | -42.1°C | 0% | 8.6hPa | 2.7V | 03:16:27 | 02:33:54 | 00:00:00 | |
| DO2SHX-10 | 2026-08-30 12:31:03 | 53.04419 | 10.94906 | 70° | 27km/h | 32437m | 4.6m/s | -42.1°C | 3.0% | 8.6hPa | 2.7V | 00:00:00 | 02:33:54 | 00:00:00 | |
| DL1XH1-15 | 2026-08-30 12:31:02 | 53.04399 | 10.94876 | 3° | 20km/h | 32400m | 6.3m/s | -41.5°C | 2.9% | 8.7hPa | 2.7V | 03:16:30 | 02:33:48 | 00:00:00 | |
| DL1XH-15 | 2026-08-30 12:31:02 | 53.04387 | 10.94870 | 29° | 29km/h | 32387m | 6.7m/s | -41.6°C | 3% | 8.7hPa | 2.6V | 03:16:32 | 02:33:46 | 00:00:00 | |
| DL1XH-west | 2026-08-30 12:30:57 | 53.04399 | 10.94876 | 3° | 20km/h | 32400m | 6.4m/s | -41.5°C | 0% | 8.7hPa | 2.7V | 03:17:18 | 02:33:48 | 00:00:00 | |
| AA1-15 | 2026-08-30 12:30:56 | 53.04394 | 10.94874 | 16° | 26km/h | 32394m | 6.9m/s | -41.5°C | 0% | 8.7hPa | 2.7V | 03:17:18 | 02:33:47 | 00:00:00 | |
| DB0DAN | 2026-08-30 12:30:55 | 53.04387 | 10.94870 | 29° | 27km/h | 32387m | 6.7m/s | -41.6°C | 0.5% | 8.71hPa | 2.6V | 00:00:00 | 00:00:00 | 00:00:00 | |
| BIOWL1-15 | 2026-08-30 12:30:55 | 53.04381 | 10.94863 | 40° | 31km/h | 32380m | 6m/s | -41.7°C | 0% | 8.7hPa | 2.6V | 03:17:18 | 02:33:45 | 00:00:00 | |
| DF8AY | 2026-08-30 12:30:54 | 53.04376 | 10.94854 | 49° | 29km/h | 32375m | 5.7m/s | -41.8°C | 0% | 8.7hPa | 2.7V | 03:19:00 | 02:33:44 | 00:00:00 | |
| DL1NUX | 2026-08-30 12:30:54 | 53.04376 | 10.94854 | 48° | 29km/h | 32375m | 5.7m/s | -41.8°C | 3% | 8.7hPa | 2.7V | 03:16:34 | 02:33:44 | 00:00:00 | |
| HSKMA3-T | 2026-08-30 12:30:52 | 53.04372 | 10.94845 | 58° | 24km/h | 32368m | 7m/s | -41.6°C | 0% | 8.7hPa | 2.7V | 03:17:18 | 02:33:43 | 00:00:00 | |
| GOEST3-10 | 2026-08-30 12:30:52 | 53.04372 | 10.94845 | 58° | 15km/h | 32369m | 7.0m/s | -41.6°C | 3.1% | 8.7hPa | 2.7V | 00:00:00 | 02:33:43 | 00:00:00 | |
| DO2SHX-10 | 2026-08-30 12:30:51 | 53.04369 | 10.94837 | 70° | 13km/h | 32362m | 7.1m/s | -41.3°C | 3.1% | 8.7hPa | 2.7V | 00:00:00 | 02:33:42 | 00:00:00 | |
| DL1XH-15 | 2026-08-30 12:30:50 | 53.04364 | 10.94820 | 13° | 13km/h | 32329m | 6.8m/s | -41.2°C | 3% | 8.8hPa | 2.7V | 03:16:41 | 02:33:37 | 00:00:00 | |
| DL1XH-west | 2026-08-30 12:30:46 | 53.04364 | 10.94820 | 14° | 13km/h | 32329m | 6.8m/s | -41.2°C | 0% | 8.8hPa | 2.7V | 03:17:18 | 02:33:37 | 00:00:00 | |
| DJ8HS-15 | 2026-08-30 12:30:46 | 53.04364 | 10.94819 | 14° | 15km/h | 32329m | 6.7m/s | -41.1°C | 3.0% | 8.7hPa | 2.6V | 00:00:00 | 02:33:37 | 00:00:00 | |
| DD8BA-10 | 2026-08-30 12:30:45 | 53.04361 | 10.94819 | 358° | 16km/h | 32323m | 5.9m/s | -41.1°C | 3.0% | 8.8hPa | 2.6V | 00:00:00 | 00:00:00 | 00:00:00 | |
| DL1NUX | 2026-08-30 12:30:44 | 53.04353 | 10.94823 | 334° | 18km/h | 32309m | 7.3m/s | -41.1°C | 3% | 8.8hPa | 2.6V | 03:16:44 | 02:33:34 | 00:00:00 | |
| BIOWL1-15 | 2026-08-30 12:30:43 | 53.04353 | 10.94823 | 335° | 18km/h | 32309m | 7.3m/s | -41.1°C | 0% | 8.8hPa | 2.6V | 03:17:18 | 02:33:34 | 00:00:00 | |
| DM0DOS-11 | 2026-08-30 12:30:42 | 53.04345 | 10.94829 | 336° | 15km/h | 32297m | 5m/s | -41°C | 3% | 8.8hPa | 2.7V | 03:16:46 | 02:33:32 | 00:00:00 | |
| HSKMA3-T | 2026-08-30 12:30:42 | 53.04349 | 10.94826 | 330° | 16km/h | 32303m | 6m/s | -41°C | 0% | 8.8hPa | 2.7V | 03:17:18 | 02:33:33 | 00:00:00 | |
| DO2SHX-10 | 2026-08-30 12:30:42 | 53.04349 | 10.94826 | 330° | 15km/h | 32303m | 6.0m/s | -41.0°C | 3.0% | 8.8hPa | 2.7V | 00:00:00 | 02:33:33 | 00:00:00 | |
| DB0DAN | 2026-08-30 12:30:40 | 53.04341 | 10.94830 | 358° | 13km/h | 32292m | 5.5m/s | -41°C | 0.5% | 8.85hPa | 2.7V | 00:00:00 | 00:00:00 | 00:00:00 | |
| AA1-15 | 2026-08-30 12:30:36 | 53.04327 | 10.94814 | 57° | 16km/h | 32267m | 4.9m/s | -40.9°C | 0% | 8.9hPa | 2.7V | 03:17:18 | 02:33:27 | 00:00:00 | |
| DL1XH-west | 2026-08-30 12:30:35 | 53.04326 | 10.94809 | 68° | 11km/h | 32262m | 5.5m/s | -41°C | 0% | 8.9hPa | 2.7V | 03:17:18 | 02:33:26 | 00:00:00 | |
| DL3AQ-11 | 2026-08-30 12:30:35 | 53.04326 | 10.94806 | 107° | 4km/h | 32256m | 7.6m/s | -41.1°C | 0.5% | 8.9hPa | 2.6V | 00:00:00 | 00:00:00 | 00:00:00 | |
| DL1NUX | 2026-08-30 12:30:34 | 53.04328 | 10.94810 | 233° | 13km/h | 32242m | 5.5m/s | -40.9°C | 2.9% | 8.9hPa | 2.6V | 03:16:55 | 02:33:23 | 00:00:00 | |
| BIOWL1-15 | 2026-08-30 12:30:32 | 53.04328 | 10.94810 | 233° | 13km/h | 32242m | 5.5m/s | -40.9°C | 0% | 8.9hPa | 2.6V | 03:17:18 | 02:33:23 | 00:00:00 | |
| HSKMA3-T | 2026-08-30 12:30:31 | 53.04330 | 10.94815 | 247° | 15km/h | 32237m | 4.6m/s | -40.9°C | 0% | 8.9hPa | 2.7V | 03:17:18 | 02:33:22 | 00:00:00 | |
| DB0NH | 2026-08-30 12:30:30 | 53.04331 | 10.94820 | 261° | 11km/h | 32232m | 5.7m/s | -40.8°C | 2.8% | 8.9hPa | 2.6V | 03:16:00 | 02:33:21 | 00:00:00 | |
| DL1XH1-15 | 2026-08-30 12:30:29 | 53.04325 | 10.94828 | 6° | 16km/h | 32212m | 6.3m/s | -40.8°C | 2.8% | 8.9hPa | 2.6V | 03:17:00 | 02:33:18 | 00:00:00 | |
| AA1-15 | 2026-08-30 12:30:26 | 53.04321 | 10.94826 | 17° | 18km/h | 32206m | 5.6m/s | -40.9°C | 0% | 8.9hPa | 2.7V | 03:17:18 | 02:33:17 | 00:00:00 | |
| DJ8HS-15 | 2026-08-30 12:30:26 | 53.04321 | 10.94826 | 18° | 9km/h | 32206m | 5.6m/s | -40.8°C | 2.8% | 8.9hPa | 2.6V | 00:00:00 | 02:33:17 | 00:00:00 | |
| DL1NUX | 2026-08-30 12:30:25 | 53.04311 | 10.94820 | 252° | 2km/h | 32181m | 6.6m/s | -40.9°C | 2.8% | 9hPa | 2.6V | 03:17:05 | 02:33:13 | 00:00:00 | |
| DL1XH-west | 2026-08-30 12:30:25 | 53.04313 | 10.94821 | 26° | 13km/h | 32194m | 6.5m/s | -40.9°C | 0% | 9hPa | 2.7V | 03:17:18 | 02:33:15 | 00:00:00 | |
| BIOWL1-15 | 2026-08-30 12:30:21 | 53.04311 | 10.94822 | 236° | 9km/h | 32175m | 6.2m/s | -40.9°C | 0% | 9hPa | 2.6V | 03:17:18 | 02:33:12 | 00:00:00 | |
| HSKMA3-T | 2026-08-30 12:30:20 | 53.04313 | 10.94825 | 244° | 11km/h | 32169m | 5.2m/s | -40.9°C | 0% | 9hPa | 2.7V | 03:17:18 | 02:33:11 | 00:00:00 | |
| AA1-15 | 2026-08-30 12:30:16 | 53.04309 | 10.94841 | 330° | 7km/h | 32138m | 5.7m/s | -40.9°C | 0% | 9.1hPa | 2.7V | 03:17:18 | 02:33:06 | 00:00:00 | |
| DO2SHX-10 | 2026-08-30 12:30:15 | 53.04309 | 10.94840 | 330° | 7km/h | 32138m | 5.6m/s | -40.9°C | 2.7% | 9.0hPa | 2.7V | 00:00:00 | 02:33:06 | 00:00:00 | |
| DM0DOS-11 | 2026-08-30 12:30:14 | 53.04307 | 10.94849 | 250° | 5km/h | 32113m | 5.2m/s | -41.1°C | 2.7% | 9.1hPa | 2.7V | 03:17:16 | 02:33:02 | 00:00:00 | |
| DL1NUX | 2026-08-30 12:30:14 | 53.04306 | 10.94847 | 252° | 5km/h | 32118m | 5.9m/s | -41°C | 2.7% | 9.1hPa | 2.7V | 03:17:15 | 02:33:03 | 00:00:00 | |
| DL1XH-west | 2026-08-30 12:30:13 | 53.04306 | 10.94844 | 281° | 5km/h | 32124m | 6.9m/s | -41°C | 0% | 9.1hPa | 2.7V | 03:17:18 | 02:33:04 | 00:00:00 | |
| DL1ZP-14 | 2026-08-30 12:30:12 | 53.04307 | 10.94849 | 250° | 5km/h | 32113m | 5.2m/s | -41.1°C | 0.5% | 9.1hPa | 2.7V | 00:00:00 | 00:00:00 | 00:00:00 | |
| DL1XH-15 | 2026-08-30 12:30:11 | 53.04299 | 10.94862 | 319° | 13km/h | 32083m | 5.3m/s | -41.6°C | 2.7% | 9.1hPa | 2.7V | 03:17:21 | 02:32:57 | 00:00:00 | |
| BIOWL1-15 | 2026-08-30 12:30:10 | 53.04305 | 10.94856 | 330° | 11km/h | 32095m | 7.1m/s | -41.4°C | 0% | 9.1hPa | 2.6V | 03:18:09 | 02:32:59 | 00:00:00 | |
| HSKMA3-T | 2026-08-30 12:30:10 | 53.04307 | 10.94851 | 282° | 5km/h | 32108m | 5.3m/s | -41.2°C | 0% | 9.1hPa | 2.6V | 03:17:18 | 02:33:01 | 00:00:00 | |
| DB0DAN | 2026-08-30 12:30:10 | 53.04307 | 10.94851 | 282° | 5km/h | 32108m | 5.3m/s | -41.2°C | 0.5% | 9.08hPa | 2.6V | 00:00:00 | 00:00:00 | 00:00:00 | |
| AA1-15 | 2026-08-30 12:30:05 | 53.04297 | 10.94866 | 296° | 13km/h | 32077m | 5.5m/s | -41.5°C | 0% | 9.1hPa | 2.7V | 03:18:09 | 02:32:56 | 00:00:00 | |
| DD8BA-10 | 2026-08-30 12:30:05 | 53.04297 | 10.94866 | 297° | 11km/h | 32077m | 5.5m/s | -41.5°C | 2.7% | 9.1hPa | 2.7V | 00:00:00 | 00:00:00 | 00:00:00 | |
| DM0DOS-11 | 2026-08-30 12:30:04 | 53.04303 | 10.94887 | 225° | 15km/h | 32052m | 5.1m/s | -41.5°C | 2.7% | 9.2hPa | 2.7V | 03:17:26 | 02:32:52 | 00:00:00 | |
| DL1XH-west | 2026-08-30 12:30:02 | 53.04303 | 10.94887 | 225° | 15km/h | 32052m | 5.1m/s | -41.5°C | 0% | 9.2hPa | 2.7V | 03:18:09 | 02:32:52 | 00:00:00 | |
| DL1XH1-15 | 2026-08-30 12:30:02 | 53.04302 | 10.94893 | 26° | 9km/h | 32021m | 5.4m/s | -41.5°C | 2.6% | 9.2hPa | 2.7V | 03:17:31 | 02:32:47 | 00:00:00 | |
| HSKMA3-T | 2026-08-30 12:30:00 | 53.04305 | 10.94891 | 228° | 11km/h | 32047m | 6m/s | -41.5°C | 0% | 9.2hPa | 2.7V | 03:18:09 | 02:32:51 | 00:00:00 | |
| DF8AY | 2026-08-30 12:29:57 | 53.04304 | 10.94894 | 14° | 7km/h | 32027m | 5.9m/s | -41.3°C | 0% | 9.2hPa | 2.6V | 03:19:00 | 02:32:48 | 00:00:00 | |
| DM0DOS-11 | 2026-08-30 12:29:57 | 53.04305 | 10.94893 | 210° | 11km/h | 31992m | 5.9m/s | -41.5°C | 2.7% | 9.2hPa | 2.6V | 03:17:36 | 02:32:42 | 00:00:00 | |
| DO2SHX-10 | 2026-08-30 12:29:57 | 53.04304 | 10.94894 | 14° | 7km/h | 32027m | 5.9m/s | -41.3°C | 2.6% | 9.1hPa | 2.7V | 03:17:00 | 02:32:48 | 00:00:00 | |
| DB0DAN | 2026-08-30 12:29:55 | 53.04300 | 10.94892 | 41° | 5km/h | 32015m | 6.3m/s | -41.5°C | 0.5% | 9.23hPa | 2.7V | 00:00:00 | 00:00:00 | 00:00:00 | |
| DL1NUX | 2026-08-30 12:29:55 | 53.04303 | 10.94891 | 200° | 9km/h | 31997m | 5.5m/s | -41.4°C | 2.7% | 9.2hPa | 2.7V | 03:17:35 | 02:32:43 | 00:00:00 | |
| AA1-15 | 2026-08-30 12:29:54 | 53.04300 | 10.94891 | 131° | 2km/h | 32009m | 6.5m/s | -41.6°C | 0% | 9.2hPa | 2.7V | 03:18:09 | 02:32:45 | 00:00:00 | |
| DL1XH-west | 2026-08-30 12:29:51 | 53.04305 | 10.94893 | 211° | 11km/h | 31992m | 5.9m/s | -41.5°C | 0% | 9.2hPa | 2.6V | 03:18:09 | 02:32:42 | 00:00:00 | |
| HSKMA3-T | 2026-08-30 12:29:49 | 53.04309 | 10.94898 | 233° | 7km/h | 31978m | 6.7m/s | -41.7°C | 0% | 9.2hPa | 2.6V | 03:18:09 | 02:32:40 | 00:00:00 | |
| BIOWL1-15 | 2026-08-30 12:29:47 | 53.04311 | 10.94901 | 184° | 5km/h | 31967m | 5.4m/s | -41.7°C | 0% | 9.3hPa | 2.7V | 03:18:09 | 02:32:38 | 00:00:00 | |
| DF8AY | 2026-08-30 12:29:46 | 53.04313 | 10.94901 | 168° | 11km/h | 31961m | 6.3m/s | -41.8°C | 0% | 9.3hPa | 2.7V | 03:19:00 | 02:32:37 | 00:00:00 | |
| DM0DOS-11 | 2026-08-30 12:29:46 | 53.04333 | 10.94890 | 172° | 11km/h | 31929m | 7m/s | -41.9°C | 2.7% | 9.3hPa | 2.6V | 03:17:46 | 02:32:32 | 00:00:00 | |
| SONCRA | 2026-08-30 12:29:45 | 53.04321 | 10.94897 | 160° | 20km/h | 31947m | 6.3m/s | -41.9°C | 0.5% | 9.3hPa | 2.6V | 00:00:00 | 00:00:00 | 00:00:00 | |
| DL1NUX | 2026-08-30 12:29:44 | 53.04330 | 10.94892 | 164° | 16km/h | 31936m | 5.8m/s | -41.8°C | 2.7% | 9.3hPa | 2.6V | 03:17:45 | 02:32:33 | 00:00:00 | |
| AA1-15 | 2026-08-30 12:29:43 | 53.04326 | 10.94894 | 162° | 20km/h | 31941m | 5.3m/s | -41.8°C | 0% | 9.3hPa | 2.6V | 03:18:09 | 02:32:34 | 00:00:00 | |
| DO2SHX-10 | 2026-08-30 12:29:42 | 53.04330 | 10.94892 | 165° | 11km/h | 31936m | 5.8m/s | -41.8°C | 2.7% | 9.3hPa | 2.6V | 00:00:00 | 02:32:33 | 00:00:00 | |
| DL1XH1-15 | 2026-08-30 12:29:41 | 53.04339 | 10.94903 | 242° | 15km/h | 31905m | 5.9m/s | -42°C | 2.7% | 9.4hPa | 2.7V | 03:17:50 | 02:32:28 | 00:00:00 | |
| DL1XH-west | 2026-08-30 12:29:40 | 53.04336 | 10.94891 | 211° | 7km/h | 31923m | 6.6m/s | -42°C | 0% | 9.4hPa | 2.7V | 03:18:09 | 02:32:31 | 00:00:00 | |
| DB0DAN | 2026-08-30 12:29:40 | 53.04336 | 10.94891 | 211° | 5km/h | 31923m | 6.6m/s | -42°C | 0.5% | 9.36hPa | 2.7V | 00:00:00 | 00:00:00 | 00:00:00 | |
| BIOWL1-15 | 2026-08-30 12:29:39 | 53.04339 | 10.94903 | 243° | 15km/h | 31905m | 5.9m/s | -42°C | 0% | 9.4hPa | 2.7V | 03:18:09 | 02:32:28 | 00:00:00 | |
| HSKMA3-T | 2026-08-30 12:29:38 | 53.04337 | 10.94898 | 253° | 13km/h | 31911m | 5.1m/s | -41.9°C | 0% | 9.4hPa | 2.7V | 03:18:09 | 02:32:29 | 00:00:00 | |
| S3001 | 2026-08-30 12:29:38 | 53.04337 | 10.94898 | 253° | 11km/h | 31911m | 5.1m/s | -41.9°C | 0.5% | 9.4hPa | 2.7V | 00:00:00 | 00:00:00 | 00:00:00 | |
| GOEST3-10 | 2026-08-30 12:29:37 | 53.04339 | 10.94903 | 243° | 20km/h | 31906m | 5.9m/s | -42.0°C | 2.7% | 9.3hPa | 2.7V | 00:00:00 | 00:00:00 | 00:00:00 | |
| DM0DOS-11 | 2026-08-30 12:29:36 | 53.04365 | 10.94915 | 150° | 15km/h | 31867m | 6.5m/s | -42.1°C | 2.8% | 9.5hPa | 2.7V | 03:17:56 | 02:32:22 | 00:00:00 | |
| DF8AY | 2026-08-30 12:29:35 | 53.04365 | 10.94915 | 151° | 15km/h | 31867m | 6.5m/s | -42.1°C | 0% | 9.5hPa | 2.7V | 03:19:00 | 02:32:22 | 00:00:00 | |
| EDDB2-11 | 2026-08-30 12:29:35 | 53.04350 | 10.94916 | 194° | 22km/h | 31887m | 5.9m/s | -42.0°C | 0.5% | 9.4hPa | 2.7V | 00:00:00 | 00:00:00 | 00:00:00 | |
| DL1NUX | 2026-08-30 12:29:34 | 53.04361 | 10.94917 | 170° | 18km/h | 31874m | 6.8m/s | -42°C | 2.7% | 9.4hPa | 2.7V | 03:17:55 | 02:32:23 | 00:00:00 | |
| AA1-15 | 2026-08-30 12:29:32 | 53.04361 | 10.94917 | 171° | 18km/h | 31874m | 6.8m/s | -42°C | 0% | 9.4hPa | 2.7V | 03:18:09 | 02:32:23 | 00:00:00 | |
| GOEST3-10 | 2026-08-30 12:29:32 | 53.04361 | 10.94917 | 171° | 18km/h | 31874m | 6.7m/s | -42.0°C | 2.7% | 9.4hPa | 2.7V | 00:00:00 | 02:32:23 | 00:00:00 | |
| DL1XH-15 | 2026-08-30 12:29:31 | 53.04381 | 10.94885 | 139° | 22km/h | 31837m | 5.8m/s | -42.4°C | 2.8% | 9.4hPa | 2.6V | 03:18:01 | 02:32:17 | 00:00:00 | |
| DL1XH-west | 2026-08-30 12:29:30 | 53.04368 | 10.94911 | 131° | 16km/h | 31861m | 5.5m/s | -42.3°C | 0% | 9.4hPa | 2.7V | 03:18:09 | 02:32:21 | 00:00:00 | |
| HSKMA3-T | 2026-08-30 12:29:28 | 53.04373 | 10.94899 | 125° | 22km/h | 31850m | 6.6m/s | -42.3°C | 0% | 9.5hPa | 2.7V | 03:18:09 | 02:32:19 | 00:00:00 | |
| BIOWL1-15 | 2026-08-30 12:29:27 | 53.04389 | 10.94877 | 167° | 15km/h | 31825m | 5.8m/s | -42.8°C | 0% | 9.5hPa | 2.7V | 03:18:09 | 02:32:15 | 00:00:00 | |
| DM0DOS-11 | 2026-08-30 12:29:26 | 53.04398 | 10.94886 | 218° | 13km/h | 31799m | 4.5m/s | -42.7°C | 3% | 9.5hPa | 2.7V | 03:18:07 | 02:32:11 | 00:00:00 | |
| DF8AY | 2026-08-30 12:29:21 | 53.04398 | 10.94886 | 219° | 13km/h | 31799m | 4.5m/s | -42.7°C | 0% | 9.5hPa | 2.7V | 03:19:00 | 02:32:11 | 00:00:00 | |
| DL1XH-west | 2026-08-30 12:29:20 | 53.04401 | 10.94889 | 193° | 15km/h | 31794m | 6.1m/s | -42.7°C | 0% | 9.5hPa | 2.6V | 03:18:09 | 02:32:10 | 00:00:00 | |
| HSKMA3-T | 2026-08-30 12:29:17 | 53.04411 | 10.94885 | 154° | 27km/h | 31780m | 6.4m/s | -42.9°C | 0% | 9.6hPa | 2.6V | 03:19:00 | 02:32:08 | 00:00:00 | |
| GOEST3-10 | 2026-08-30 12:29:17 | 53.04411 | 10.94885 | 154° | 27km/h | 31781m | 6.4m/s | -42.8°C | 3.0% | 9.5hPa | 2.6V | 00:00:00 | 00:00:00 | 00:00:00 | |
| DL1NUX | 2026-08-30 12:29:15 | 53.04434 | 10.94849 | 125° | 13km/h | 31750m | 5.9m/s | -42.6°C | 3% | 9.6hPa | 2.7V | 03:18:15 | 02:32:03 | 00:00:00 | |
| DM0DOS-11 | 2026-08-30 12:29:15 | 53.04437 | 10.94845 | 167° | 7km/h | 31739m | 6.3m/s | -42.7°C | 2.9% | 9.6hPa | 2.6V | 03:18:17 | 02:32:01 | 00:00:00 | |
| BIOWL1-15 | 2026-08-30 12:29:14 | 53.04464 | 10.94853 | 135° | 13km/h | 31691m | 5.2m/s | -42.9°C | 0% | 9.7hPa | 2.6V | 03:19:00 | 02:31:53 | 00:00:00 | |
| AA1-15 | 2026-08-30 12:29:11 | 53.04436 | 10.94846 | 138° | 7km/h | 31745m | 5.5m/s | -42.7°C | 0% | 9.6hPa | 2.6V | 03:19:00 | 02:32:02 | 00:00:00 | |
| DL1XH-west | 2026-08-30 12:29:10 | 53.04440 | 10.94844 | 183° | 11km/h | 31732m | 7m/s | -42.7°C | 0% | 9.6hPa | 2.6V | 03:19:00 | 02:32:00 | 00:00:00 | |
| HSKMA3-T | 2026-08-30 12:29:06 | 53.04452 | 10.94850 | 201° | 18km/h | 31714m | 5.5m/s | -42.8°C | 0% | 9.6hPa | 2.7V | 03:19:00 | 02:31:57 | 00:00:00 | |
| DO2SHX-10 | 2026-08-30 12:29:06 | 53.04451 | 10.94850 | 202° | 15km/h | 31714m | 5.4m/s | -42.7°C | 2.9% | 9.6hPa | 2.7V | 00:00:00 | 02:31:57 | 00:00:00 | |
| DC4HF-4 | 2026-08-30 12:29:05 | 53.04459 | 10.94855 | 199° | 11km/h | 31702m | 6.4m/s | -42.8°C | 0.5% | 9.7hPa | 2.6V | 00:00:00 | 00:00:00 | 00:00:00 | |
| DL1NUX | 2026-08-30 12:29:04 | 53.04464 | 10.94853 | 134° | 13km/h | 31691m | 5.2m/s | -42.9°C | 3% | 9.7hPa | 2.6V | 03:18:25 | 02:31:53 | 00:00:00 | |
| DF8AY | 2026-08-30 12:29:03 | 53.04461 | 10.94855 | 169° | 9km/h | 31696m | 5.4m/s | -42.9°C | 0% | 9.7hPa | 2.6V | 03:19:00 | 02:31:54 | 00:00:00 | |
| AA1-15 | 2026-08-30 12:29:01 | 53.04466 | 10.94848 | 124° | 20km/h | 31685m | 6.2m/s | -42.9°C | 0% | 9.7hPa | 2.6V | 03:19:00 | 02:31:52 | 00:00:00 | |
| DM0DOS-11 | 2026-08-30 12:29:01 | 53.04469 | 10.94839 | 120° | 27km/h | 31678m | 8.1m/s | -42.8°C | 2.9% | 9.7hPa | 2.7V | 03:18:27 | 02:31:51 | 00:00:00 | |
| BIOWL1-15 | 2026-08-30 12:29:00 | 53.04469 | 10.94839 | 120° | 27km/h | 31678m | 8.1m/s | -42.8°C | 0% | 9.7hPa | 2.7V | 03:19:00 | 02:31:51 | 00:00:00 | |
| DL1XH-west | 2026-08-30 12:28:58 | 53.04477 | 10.94816 | 117° | 35km/h | 31664m | 5m/s | -42.6°C | 0% | 9.7hPa | 2.7V | 03:19:00 | 02:31:49 | 00:00:00 | |
| DL1NUX | 2026-08-30 12:28:57 | 53.04484 | 10.94777 | 238° | 4km/h | 31629m | 5.2m/s | -42.8°C | 3% | 9.8hPa | 2.7V | 03:18:35 | 02:31:43 | 00:00:00 | |
| HSKMA3-T | 2026-08-30 12:28:56 | 53.04484 | 10.94777 | 11° | 2km/h | 31635m | 5.2m/s | -42.9°C | 0% | 9.8hPa | 2.6V | 03:19:00 | 02:31:44 | 00:00:00 | |
| DM0DOS-11 | 2026-08-30 12:28:56 | 53.04488 | 10.94781 | 186° | 16km/h | 31616m | 7m/s | -42.7°C | 3% | 9.8hPa | 2.7V | 03:18:37 | 02:31:41 | 00:00:00 | |
| DB0DAN | 2026-08-30 12:28:55 | 53.04485 | 10.94784 | 95° | 16km/h | 31647m | 7.1m/s | -42.8°C | 0.6% | 9.74hPa | 2.6V | 00:00:00 | 00:00:00 | 00:00:00 | |
| DF8AY | 2026-08-30 12:28:52 | 53.04485 | 10.94779 | 210° | 9km/h | 31623m | 6.9m/s | -42.7°C | 0% | 9.8hPa | 2.7V | 03:19:00 | 02:31:42 | 00:00:00 | |
| DL1XH-15 | 2026-08-30 12:28:51 | 53.04509 | 10.94765 | 130° | 26km/h | 31593m | 6.5m/s | -42.7°C | 2.9% | 9.8hPa | 2.6V | 03:18:41 | 02:31:37 | 00:00:00 | |
| BIOWL1-15 | 2026-08-30 12:28:50 | 53.04488 | 10.94781 | 186° | 16km/h | 31616m | 7m/s | -42.7°C | 0% | 9.8hPa | 2.7V | 03:19:00 | 02:31:41 | 00:00:00 | |
| DL1XH-west | 2026-08-30 12:28:47 | 53.04505 | 10.94772 | 146° | 27km/h | 31599m | 5.5m/s | -42.7°C | 0% | 9.8hPa | 2.6V | 03:19:00 | 02:31:38 | 00:00:00 | |
| GOEST3-10 | 2026-08-30 12:28:47 | 53.04505 | 10.94772 | 146° | 26km/h | 31599m | 5.5m/s | -42.6°C | 3.0% | 9.8hPa | 2.6V | 03:18:00 | 00:00:00 | 00:00:00 | |
| DJ8HS-15 | 2026-08-30 12:28:46 | 53.04510 | 10.94765 | 131° | 22km/h | 31593m | 6.4m/s | -42.6°C | 2.9% | 9.8hPa | 2.7V | 03:18:00 | 02:31:37 | 00:00:00 | |
| DL1NUX | 2026-08-30 12:28:45 | 53.04512 | 10.94705 | 94° | 24km/h | 31554m | 6.7m/s | -43°C | 3% | 9.9hPa | 2.7V | 03:18:47 | 02:31:31 | 00:00:00 | |
| HSKMA3-T | 2026-08-30 12:28:42 | 53.04512 | 10.94716 | 84° | 26km/h | 31561m | 6.7m/s | -42.9°C | 0% | 9.9hPa | 2.7V | 03:19:00 | 02:31:32 | 00:00:00 | |
| DL1XH1-15 | 2026-08-30 12:28:42 | 53.04517 | 10.94684 | 132° | 13km/h | 31536m | 6.2m/s | -43.1°C | 2.9% | 9.9hPa | 2.6V | 03:18:50 | 02:31:28 | 00:00:00 | |
| DF8AY | 2026-08-30 12:28:41 | 53.04512 | 10.94705 | 95° | 24km/h | 31555m | 6.7m/s | -43°C | 0% | 9.9hPa | 2.7V | 03:19:00 | 02:31:31 | 00:00:00 | |
| BIOWL1-15 | 2026-08-30 12:28:40 | 53.04530 | 10.94675 | 149° | 20km/h | 31506m | 7.1m/s | -43.2°C | 0% | 9.9hPa | 2.7V | 03:19:00 | 02:31:23 | 00:00:00 | |
| AA1-15 | 2026-08-30 12:28:39 | 53.04513 | 10.94696 | 107° | 22km/h | 31548m | 6.4m/s | -43°C | 0% | 9.9hPa | 2.6V | 03:19:00 | 02:31:30 | 00:00:00 | |
| DL1XH-west | 2026-08-30 12:28:37 | 53.04517 | 10.94684 | 133° | 13km/h | 31536m | 6.3m/s | -43.1°C | 0% | 9.9hPa | 2.6V | 03:19:00 | 02:31:28 | 00:00:00 | |
| GOEST3-10 | 2026-08-30 12:28:37 | 53.04517 | 10.94684 | 133° | 11km/h | 31536m | 6.2m/s | -43.1°C | 2.9% | 9.9hPa | 2.7V | 00:00:00 | 00:00:00 | 00:00:00 | |
| DO2SHX-10 | 2026-08-30 12:28:36 | 53.04519 | 10.94680 | 152° | 9km/h | 31529m | 7.2m/s | -43.1°C | 2.9% | 9.9hPa | 2.7V | 00:00:00 | 02:31:27 | 00:00:00 | |
| DD8BA-10 | 2026-08-30 12:28:35 | 53.04521 | 10.94679 | 172° | 24km/h | 31523m | 5.9m/s | -43.1°C | 2.9% | 9.9hPa | 2.7V | 00:00:00 | 00:00:00 | 00:00:00 | |
| DM0DOS-11 | 2026-08-30 12:28:34 | 53.04539 | 10.94660 | 127° | 31km/h | 31493m | 6m/s | -43.3°C | 2.9% | 9.9hPa | 2.6V | 03:18:57 | 02:31:21 | 00:00:00 | |
| HSKMA3-T | 2026-08-30 12:28:32 | 53.04534 | 10.94669 | 138° | 27km/h | 31499m | 6.9m/s | -43.3°C | 0% | 10hPa | 2.6V | 03:19:00 | 02:31:22 | 00:00:00 | |
| SMARD9-15 | 2026-08-30 12:28:32 | 53.04534 | 10.94669 | 138° | 26km/h | 31499m | 6.9m/s | -43.3°C | 0.5% | 10.0hPa | 2.7V | 00:00:00 | 00:00:00 | 00:00:00 | |
| DL1XH-15 | 2026-08-30 12:28:31 | 53.04548 | 10.94612 | 78° | 26km/h | 31467m | 6.4m/s | -43.6°C | 2.9% | 10hPa | 2.7V | 03:19:01 | 02:31:17 | 00:00:00 | |
| BIOWL1-15 | 2026-08-30 12:28:29 | 53.04544 | 10.94649 | 117° | 33km/h | 31487m | 5.3m/s | -43.4°C | 0% | 10hPa | 2.6V | 03:19:00 | 02:31:20 | 00:00:00 | |
| DL1XH1-15 | 2026-08-30 12:28:29 | 53.04548 | 10.94624 | 93° | 29km/h | 31474m | 7.5m/s | -43.6°C | 2.9% | 10hPa | 2.7V | 03:19:00 | 02:31:18 | 00:00:00 | |
| AA1-15 | 2026-08-30 12:28:28 | 53.04547 | 10.94636 | 106° | 31km/h | 31481m | 6.9m/s | -43.5°C | 0% | 10hPa | 2.7V | 03:19:00 | 02:31:19 | 00:00:00 | |
| DL1XH-west | 2026-08-30 12:28:27 | 53.04548 | 10.94624 | 94° | 29km/h | 31474m | 7.5m/s | -43.6°C | 0% | 10hPa | 2.7V | 03:19:00 | 02:31:18 | 00:00:00 | |
| DO2SHX-10 | 2026-08-30 12:28:27 | 53.04548 | 10.94623 | 94° | 26km/h | 31474m | 7.4m/s | -43.5°C | 2.9% | 9.9hPa | 2.7V | 00:00:00 | 02:31:18 | 00:00:00 | |
| DJ8HS-15 | 2026-08-30 12:28:26 | 53.04548 | 10.94612 | 79° | 20km/h | 31467m | 6.4m/s | -43.6°C | 2.9% | 9.9hPa | 2.7V | 00:00:00 | 02:31:17 | 00:00:00 | |
| DM0DOS-11 | 2026-08-30 12:28:25 | 53.04553 | 10.94582 | 189° | 15km/h | 31429m | 6.3m/s | -43.5°C | 3% | 10.1hPa | 2.7V | 03:19:07 | 02:31:11 | 00:00:00 | |
| DD8BA-10 | 2026-08-30 12:28:25 | 53.04546 | 10.94602 | 75° | 16km/h | 31461m | 5.2m/s | -43.5°C | 2.9% | 10.0hPa | 2.7V | 00:00:00 | 00:00:00 | 00:00:00 | |
| DO2SHX-10 | 2026-08-30 12:28:24 | 53.04545 | 10.94594 | 82° | 15km/h | 31456m | 6.1m/s | -43.5°C | 2.9% | 10.0hPa | 2.7V | 00:00:00 | 02:31:15 | 00:00:00 | |
| DL1XH1-15 | 2026-08-30 12:28:22 | 53.04564 | 10.94587 | 179° | 13km/h | 31411m | 4.6m/s | -43.5°C | 2.9% | 10.1hPa | 2.7V | 03:19:10 | 02:31:08 | 00:00:00 | |
| DL1XH-15 | 2026-08-30 12:28:22 | 53.04567 | 10.94585 | 144° | 15km/h | 31406m | 5.1m/s | -43.6°C | 3% | 10.1hPa | 2.7V | 03:19:11 | 02:31:07 | 00:00:00 | |
| HSKMA3-T | 2026-08-30 12:28:21 | 53.04553 | 10.94581 | 189° | 15km/h | 31429m | 6.3m/s | -43.5°C | 0% | 10.1hPa | 2.7V | 03:19:51 | 02:31:11 | 00:00:00 | |
| BIOWL1-15 | 2026-08-30 12:28:20 | 53.04567 | 10.94585 | 145° | 15km/h | 31406m | 5.1m/s | -43.6°C | 0% | 10.1hPa | 2.7V | 03:19:51 | 02:31:07 | 00:00:00 | |
| DF8AY | 2026-08-30 12:28:19 | 53.04560 | 10.94586 | 200° | 15km/h | 31416m | 5.7m/s | -43.5°C | 0% | 10.1hPa | 2.6V | 03:19:51 | 02:31:09 | 00:00:00 | |
| DL1XH-west | 2026-08-30 12:28:17 | 53.04564 | 10.94587 | 180° | 13km/h | 31411m | 4.6m/s | -43.5°C | 0% | 10.1hPa | 2.7V | 03:19:51 | 02:31:08 | 00:00:00 | |
| GOEST3-10 | 2026-08-30 12:28:17 | 53.04564 | 10.94586 | 180° | 24km/h | 31411m | 4.5m/s | -43.5°C | 2.9% | 10.0hPa | 2.7V | 00:00:00 | 00:00:00 | 00:00:00 | |
| TFSTFS | 2026-08-30 12:28:16 | 53.04564 | 10.94586 | 181° | 13km/h | 31411m | 4.6m/s | -43.5°C | 0.6% | 10.1hPa | 2.7V | 00:00:00 | 00:00:00 | 00:00:00 | |
| DO2SHX-10 | 2026-08-30 12:28:15 | 53.04570 | 10.94579 | 128° | 29km/h | 31400m | 7.7m/s | -43.5°C | 3.0% | 10.1hPa | 2.7V | 00:00:00 | 02:31:06 | 00:00:00 | |
| DL1NUX | 2026-08-30 12:28:12 | 53.04578 | 10.94513 | 83° | 27km/h | 31370m | 6.4m/s | -43.8°C | 3% | 10.2hPa | 2.7V | 03:19:17 | 02:31:01 | 00:00:00 | |
| DO2SHX-10 | 2026-08-30 12:28:12 | 53.04578 | 10.94541 | 97° | 33km/h | 31380m | 4.5m/s | -43.6°C | 3.0% | 10.1hPa | 2.6V | 00:00:00 | 02:31:03 | 00:00:00 | |
| DL1XH-15 | 2026-08-30 12:28:11 | 53.04579 | 10.94505 | 219° | 15km/h | 31344m | 6.3m/s | -43.7°C | 3% | 10.2hPa | 2.7V | 03:19:21 | 02:30:57 | 00:00:00 | |
| DB0DAN | 2026-08-30 12:28:10 | 53.04578 | 10.94513 | 84° | 26km/h | 31370m | 6.4m/s | -43.8°C | 0.6% | 10.18hPa | 2.7V | 00:00:00 | 00:00:00 | 00:00:00 | |
| HSKMA3-T | 2026-08-30 12:28:10 | 53.04577 | 10.94505 | 76° | 15km/h | 31363m | 6.9m/s | -43.7°C | 0% | 10.2hPa | 2.7V | 03:19:51 | 02:31:00 | 00:00:00 | |
| DL1XH1-15 | 2026-08-30 12:28:09 | 53.04577 | 10.94502 | 236° | 7km/h | 31350m | 6.2m/s | -43.7°C | 3% | 10.2hPa | 2.6V | 03:19:20 | 02:30:58 | 00:00:00 | |
| BIOWL1-15 | 2026-08-30 12:28:08 | 53.04577 | 10.94501 | 69° | 2km/h | 31357m | 6.6m/s | -43.7°C | 0% | 10.2hPa | 2.6V | 03:19:51 | 02:30:59 | 00:00:00 | |
| AA1-15 | 2026-08-30 12:28:07 | 53.04577 | 10.94502 | 237° | 7km/h | 31350m | 6.2m/s | -43.7°C | 0% | 10.2hPa | 2.6V | 03:19:51 | 02:30:58 | 00:00:00 | |
| DL1XH-west | 2026-08-30 12:28:06 | 53.04579 | 10.94505 | 220° | 15km/h | 31344m | 6.3m/s | -43.7°C | 0% | 10.2hPa | 2.7V | 03:19:51 | 02:30:57 | 00:00:00 | |
| DO2SHX-10 | 2026-08-30 12:28:06 | 53.04579 | 10.94505 | 220° | 18km/h | 31344m | 6.2m/s | -43.7°C | 3.0% | 10.2hPa | 2.7V | 00:00:00 | 02:30:57 | 00:00:00 | |
| DD8BA-10 | 2026-08-30 12:28:05 | 53.04582 | 10.94508 | 198° | 27km/h | 31338m | 5.9m/s | -43.7°C | 3.0% | 10.2hPa | 2.7V | 00:00:00 | 00:00:00 | 00:00:00 | |
| BUE01 | 2026-08-30 12:28:04 | 53.04593 | 10.94505 | 149° | 26km/h | 31326m | 6.1m/s | -43.6°C | 0.6% | 10.2hPa | 2.6V | 00:00:00 | 00:00:00 | 00:00:00 | |
| DO2SHX-10 | 2026-08-30 12:28:03 | 53.04593 | 10.94505 | 150° | 31km/h | 31326m | 6.1m/s | -43.6°C | 3.0% | 10.2hPa | 2.6V | 00:00:00 | 02:30:54 | 00:00:00 | |
| DL1XH1-15 | 2026-08-30 12:28:02 | 53.04600 | 10.94433 | 60° | 24km/h | 31288m | 5.3m/s | -43.4°C | 2.9% | 10.3hPa | 2.6V | 03:19:30 | 02:30:48 | 00:00:00 | |
| EDDB2-11 | 2026-08-30 12:28:02 | 53.04603 | 10.94486 | 112° | 35km/h | 31313m | 6.3m/s | -43.7°C | 0.6% | 10.2hPa | 2.6V | 00:00:00 | 00:00:00 | 00:00:00 | |
| DL1XH-15 | 2026-08-30 12:28:01 | 53.04597 | 10.94426 | 56° | 16km/h | 31282m | 5.7m/s | -43.6°C | 3% | 10.3hPa | 2.6V | 03:19:31 | 02:30:47 | 00:00:00 | |
| BIOWL1-15 | 2026-08-30 12:27:59 | 53.04600 | 10.94433 | 61° | 24km/h | 31288m | 5.3m/s | -43.4°C | 0% | 10.3hPa | 2.6V | 03:19:51 | 02:30:48 | 00:00:00 | |
| HSKMA3-T | 2026-08-30 12:27:58 | 53.04603 | 10.94443 | 70° | 31km/h | 31294m | 5.8m/s | -43.4°C | 0% | 10.3hPa | 2.7V | 03:19:51 | 02:30:49 | 00:00:00 | |
| AA1-15 | 2026-08-30 12:27:57 | 53.04597 | 10.94426 | 57° | 16km/h | 31282m | 5.7m/s | -43.6°C | 0% | 10.3hPa | 2.6V | 03:19:51 | 02:30:47 | 00:00:00 | |
| DL1XH-west | 2026-08-30 12:27:56 | 53.04596 | 10.94421 | 68° | 9km/h | 31276m | 6.7m/s | -43.6°C | 0% | 10.3hPa | 2.7V | 03:19:51 | 02:30:46 | 00:00:00 | |
| DB0DAN | 2026-08-30 12:27:55 | 53.04596 | 10.94421 | 68° | 9km/h | 31276m | 6.7m/s | -43.6°C | 0.5% | 10.31hPa | 2.7V | 00:00:00 | 00:00:00 | 00:00:00 | |
| DL3AQ-11 | 2026-08-30 12:27:55 | 53.04596 | 10.94418 | 111° | 5km/h | 31269m | 6.8m/s | -43.6°C | 0.6% | 10.3hPa | 2.6V | 00:00:00 | 00:00:00 | 00:00:00 | |
| DL1NUX | 2026-08-30 12:27:54 | 53.04604 | 10.94403 | 119° | 15km/h | 31245m | 6m/s | -43.7°C | 3% | 10.3hPa | 2.6V | 03:19:37 | 02:30:41 | 00:00:00 | |
| DC4HF-4 | 2026-08-30 12:27:53 | 53.04599 | 10.94412 | 142° | 13km/h | 31257m | 5.8m/s | -43.6°C | 0.6% | 10.3hPa | 2.7V | 00:00:00 | 00:00:00 | 00:00:00 | |
| SO1NDE-10 | 2026-08-30 12:27:52 | 53.04599 | 10.94412 | 143° | 24km/h | 31257m | 5.8m/s | -43.5°C | 3.0% | 10.3hPa | 2.7V | 03:19:00 | 02:30:43 | 00:00:00 | |
| DO2SHX-10 | 2026-08-30 12:27:51 | 53.04602 | 10.94408 | 134° | 15km/h | 31251m | 5.3m/s | -43.6°C | 3.0% | 10.3hPa | 2.7V | 00:00:00 | 02:30:42 | 00:00:00 | |
| DL1XH1-15 | 2026-08-30 12:27:49 | 53.04603 | 10.94384 | 61° | 22km/h | 31226m | 6m/s | -43.6°C | 2.9% | 10.4hPa | 2.7V | 03:19:40 | 02:30:38 | 00:00:00 | |
| HSKMA3-T | 2026-08-30 12:27:48 | 53.04605 | 10.94392 | 72° | 16km/h | 31232m | 6.4m/s | -43.6°C | 0% | 10.4hPa | 2.7V | 03:19:51 | 02:30:39 | 00:00:00 | |
| DL1XH-15 | 2026-08-30 12:27:48 | 53.04600 | 10.94376 | 60° | 26km/h | 31220m | 6m/s | -43.7°C | 3% | 10.4hPa | 2.7V | 03:19:41 | 02:30:37 | 00:00:00 | |
| BIOWL1-15 | 2026-08-30 12:27:47 | 53.04603 | 10.94384 | 62° | 22km/h | 31226m | 6m/s | -43.6°C | 0% | 10.4hPa | 2.7V | 03:19:51 | 02:30:38 | 00:00:00 | |
| AA1-15 | 2026-08-30 12:27:46 | 53.04600 | 10.94375 | 61° | 26km/h | 31220m | 6m/s | -43.7°C | 0% | 10.4hPa | 2.7V | 03:19:51 | 02:30:37 | 00:00:00 | |
| DL1XH-west | 2026-08-30 12:27:45 | 53.04594 | 10.94353 | 75° | 31km/h | 31208m | 6.5m/s | -43.9°C | 0% | 10.4hPa | 2.7V | 03:19:51 | 02:30:35 | 00:00:00 | |
| DL1LOL-11 | 2026-08-30 12:27:45 | 53.04597 | 10.94365 | 67° | 29km/h | 31215m | 5.9m/s | -43.8°C | 0.6% | 10.4hPa | 2.7V | 00:00:00 | 00:00:00 | 00:00:00 | |
| DK7RCA | 2026-08-30 12:27:43 | 53.04594 | 10.94353 | 76° | 31km/h | 31208m | 6.5m/s | -43.9°C | 0.6% | 10.4hPa | 2.7V | 00:00:00 | 00:00:00 | 00:00:00 | |
| DL1XH1-15 | 2026-08-30 12:27:42 | 53.04581 | 10.94275 | 25° | 24km/h | 31165m | 6.3m/s | -43.6°C | 3.1% | 10.5hPa | 2.7V | 03:19:50 | 02:30:28 | 00:00:00 | |
| DO2SHX-10 | 2026-08-30 12:27:42 | 53.04592 | 10.94327 | 90° | 31km/h | 31196m | 5.4m/s | -43.8°C | 3.1% | 10.4hPa | 2.7V | 00:00:00 | 02:30:33 | 00:00:00 | |
| DL1XH-15 | 2026-08-30 12:27:41 | 53.04576 | 10.94272 | 10° | 20km/h | 31160m | 5.9m/s | -43.6°C | 3.1% | 10.5hPa | 2.7V | 03:19:51 | 02:30:27 | 00:00:00 | |
| DB0DAN | 2026-08-30 12:27:40 | 53.04591 | 10.94301 | 79° | 27km/h | 31186m | 4.8m/s | -43.7°C | 0.6% | 10.47hPa | 2.7V | 00:00:00 | 00:00:00 | 00:00:00 | |
| HSKMA3-T | 2026-08-30 12:27:37 | 53.04581 | 10.94275 | 25° | 24km/h | 31165m | 6.3m/s | -43.6°C | 0% | 10.5hPa | 2.7V | 03:19:51 | 02:30:28 | 00:00:00 | |
| AA1-15 | 2026-08-30 12:27:36 | 53.04576 | 10.94272 | 10° | 20km/h | 31160m | 5.9m/s | -43.6°C | 0% | 10.5hPa | 2.7V | 03:19:51 | 02:30:27 | 00:00:00 | |
| DL1XH-west | 2026-08-30 12:27:35 | 53.04571 | 10.94271 | 3° | 16km/h | 31153m | 6.7m/s | -43.6°C | 0% | 10.5hPa | 2.6V | 03:20:42 | 02:30:26 | 00:00:00 | |
| DF7ER-10 | 2026-08-30 12:27:35 | 53.04576 | 10.94272 | 11° | 20km/h | 31160m | 5.9m/s | -43.6°C | 0.6% | 10.5hPa | 2.7V | 03:19:00 | 00:00:00 | 00:00:00 | |
| S3001 | 2026-08-30 12:27:34 | 53.04565 | 10.94270 | 33° | 7km/h | 31140m | 6.1m/s | -43.5°C | 0.6% | 10.5hPa | 2.7V | 00:00:00 | 00:00:00 | 00:00:00 | |
| BIOWL7-15 | 2026-08-30 12:27:33 | 53.04565 | 10.94270 | 34° | 9km/h | 31140m | 6.1m/s | -43.5°C | 0.6% | 10.5hPa | 2.7V | 00:00:00 | 00:00:00 | 00:00:00 | |
| GOEST3-10 | 2026-08-30 12:27:32 | 53.04564 | 10.94266 | 65° | 26km/h | 31135m | 5.3m/s | -43.5°C | 3.0% | 10.5hPa | 2.7V | 00:00:00 | 02:30:23 | 00:00:00 | |
| DL1XH-15 | 2026-08-30 12:27:31 | 53.04546 | 10.94196 | 71° | 37km/h | 31098m | 6.1m/s | -43.5°C | 3% | 10.6hPa | 2.7V | 03:20:01 | 02:30:17 | 00:00:00 | |
| HSKMA3-T | 2026-08-30 12:27:27 | 53.04546 | 10.94196 | 71° | 37km/h | 31098m | 6.1m/s | -43.5°C | 0% | 10.6hPa | 2.7V | 03:20:42 | 02:30:17 | 00:00:00 | |
| DL1XH-west | 2026-08-30 12:27:25 | 53.04543 | 10.94182 | 76° | 31km/h | 31091m | 6.4m/s | -43.5°C | 0% | 10.6hPa | 2.7V | 03:20:42 | 02:30:16 | 00:00:00 | |
| AA1-15 | 2026-08-30 12:27:24 | 53.04542 | 10.94172 | 74° | 22km/h | 31085m | 5.8m/s | -43.4°C | 0% | 10.6hPa | 2.7V | 03:20:42 | 02:30:15 | 00:00:00 | |
| DO2SHX-10 | 2026-08-30 12:27:24 | 53.04542 | 10.94172 | 75° | 16km/h | 31086m | 5.8m/s | -43.4°C | 3.0% | 10.5hPa | 2.7V | 00:00:00 | 02:30:15 | 00:00:00 | |
| DL1XH1-15 | 2026-08-30 12:27:22 | 53.04509 | 10.94156 | 14° | 24km/h | 31044m | 6.1m/s | -43.6°C | 2.9% | 10.7hPa | 2.7V | 03:20:10 | 02:30:08 | 00:00:00 | |
| GOEST3-10 | 2026-08-30 12:27:22 | 53.04537 | 10.94160 | 27° | 22km/h | 31074m | 6.3m/s | -43.4°C | 3.0% | 10.6hPa | 2.7V | 00:00:00 | 02:30:13 | 00:00:00 | |
| DL1XH-15 | 2026-08-30 12:27:21 | 53.04504 | 10.94153 | 31° | 18km/h | 31037m | 7.1m/s | -43.5°C | 3% | 10.7hPa | 2.7V | 03:20:11 | 02:30:07 | 00:00:00 | |
| DL1XH-west | 2026-08-30 12:27:15 | 53.04501 | 10.94148 | 60° | 18km/h | 31030m | 7.1m/s | -43.5°C | 0% | 10.7hPa | 2.7V | 03:20:42 | 02:30:06 | 00:00:00 | |
| BIOWL1-15 | 2026-08-30 12:27:15 | 53.04499 | 10.94140 | 78° | 22km/h | 31024m | 6.3m/s | -43.5°C | 0% | 10.7hPa | 2.6V | 03:20:42 | 02:30:05 | 00:00:00 | |
| AA1-15 | 2026-08-30 12:27:14 | 53.04498 | 10.94131 | 81° | 26km/h | 31018m | 5.1m/s | -43.5°C | 0% | 10.7hPa | 2.6V | 03:20:42 | 02:30:04 | 00:00:00 | |
| DF8AY | 2026-08-30 12:27:11 | 53.04494 | 10.94109 | 64° | 31km/h | 31007m | 6.8m/s | -43.7°C | 0% | 10.8hPa | 2.7V | 03:21:33 | 02:30:02 | 00:00:00 | |
| DL1XH-15 | 2026-08-30 12:27:11 | 53.04457 | 10.94071 | 4° | 16km/h | 30969m | 6.7m/s | -43.3°C | 2.8% | 10.8hPa | 2.7V | 03:20:22 | 02:29:56 | 00:00:00 | |
| DL3OBA | 2026-08-30 12:27:10 | 53.04494 | 10.94108 | 65° | 31km/h | 31007m | 6.8m/s | -43.7°C | 0.6% | 10.7hPa | 2.6V | 03:20:00 | 00:00:00 | 00:00:00 | |
| DL1XH1-15 | 2026-08-30 12:27:09 | 53.04469 | 10.94075 | 19° | 29km/h | 30982m | 5.7m/s | -43.3°C | 2.9% | 10.8hPa | 2.6V | 03:20:20 | 02:29:58 | 00:00:00 | |
| DL1XH-west | 2026-08-30 12:27:05 | 53.04454 | 10.94071 | 357° | 11km/h | 30962m | 5.8m/s | -43.4°C | 0% | 10.8hPa | 2.7V | 03:20:42 | 02:29:55 | 00:00:00 | |
| BIOWL1-15 | 2026-08-30 12:27:04 | 53.04451 | 10.94071 | 357° | 11km/h | 30957m | 5.2m/s | -43.4°C | 0% | 10.8hPa | 2.7V | 03:20:42 | 02:29:54 | 00:00:00 | |
| AA1-15 | 2026-08-30 12:27:02 | 53.04448 | 10.94071 | 7° | 13km/h | 30952m | 6.5m/s | -43.5°C | 0% | 10.8hPa | 2.7V | 03:20:42 | 02:29:53 | 00:00:00 | |
| DL1XH1-15 | 2026-08-30 12:27:02 | 53.04425 | 10.94043 | 54° | 29km/h | 30920m | 7.1m/s | -43.4°C | 2.8% | 10.9hPa | 2.7V | 03:20:30 | 02:29:48 | 00:00:00 | |
| GOEST3-10 | 2026-08-30 12:27:02 | 53.04448 | 10.94071 | 7° | 22km/h | 30952m | 6.5m/s | -43.4°C | 2.9% | 10.8hPa | 2.7V | 00:00:00 | 02:29:53 | 00:00:00 | |
| BUE01 | 2026-08-30 12:27:01 | 53.04444 | 10.94069 | 18° | 16km/h | 30945m | 6.5m/s | -43.5°C | 0.5% | 10.8hPa | 2.7V | 00:00:00 | 00:00:00 | 00:00:00 | |
| DL1XH-15 | 2026-08-30 12:27:00 | 53.04420 | 10.94032 | 61° | 29km/h | 30914m | 6.6m/s | -43.5°C | 2.8% | 10.9hPa | 2.7V | 03:20:31 | 02:29:47 | 00:00:00 | |
| DF8AY | 2026-08-30 12:26:58 | 53.04429 | 10.94052 | 46° | 29km/h | 30927m | 5.8m/s | -43.3°C | 0% | 10.9hPa | 2.7V | 03:21:33 | 02:29:49 | 00:00:00 | |
| HSKMA3-T | 2026-08-30 12:26:55 | 53.04417 | 10.94021 | 63° | 29km/h | 30908m | 5m/s | -43.6°C | 0% | 10.9hPa | 2.7V | 03:20:42 | 02:29:46 | 00:00:00 | |
| DB0DAN | 2026-08-30 12:26:55 | 53.04417 | 10.94021 | 63° | 27km/h | 30908m | 5m/s | -43.6°C | 0.6% | 10.88hPa | 2.7V | 00:00:00 | 00:00:00 | 00:00:00 | |
| DL1XH-west | 2026-08-30 12:26:54 | 53.04413 | 10.94011 | 56° | 29km/h | 30903m | 4.9m/s | -43.7°C | 0% | 10.9hPa | 2.7V | 03:20:42 | 02:29:45 | 00:00:00 | |
| DL1NUX | 2026-08-30 12:26:54 | 53.04390 | 10.93986 | 6° | 26km/h | 30879m | 5.7m/s | -43.4°C | 2.9% | 10.9hPa | 2.7V | 03:20:37 | 02:29:41 | 00:00:00 | |
| AA1-15 | 2026-08-30 12:26:52 | 53.04403 | 10.93993 | 34° | 29km/h | 30891m | 6.5m/s | -43.6°C | 0% | 10.9hPa | 2.6V | 03:20:42 | 02:29:43 | 00:00:00 | |
| SO1NDE-10 | 2026-08-30 12:26:52 | 53.04403 | 10.93993 | 34° | 18km/h | 30892m | 6.5m/s | -43.5°C | 2.9% | 10.9hPa | 2.6V | 00:00:00 | 02:29:43 | 00:00:00 | |
| DL1XH-15 | 2026-08-30 12:26:50 | 53.04372 | 10.93992 | 337° | 13km/h | 30853m | 5.5m/s | -43.1°C | 2.7% | 11hPa | 2.6V | 03:20:41 | 02:29:37 | 00:00:00 | |
| HSKMA3-T | 2026-08-30 12:26:44 | 53.04365 | 10.93993 | 7° | 18km/h | 30840m | 7.3m/s | -43.2°C | 0% | 11hPa | 2.7V | 03:21:33 | 02:29:35 | 00:00:00 | |
| DL1XH-west | 2026-08-30 12:26:43 | 53.04360 | 10.93991 | 22° | 22km/h | 30834m | 6.2m/s | -43.4°C | 0% | 11hPa | 2.7V | 03:21:33 | 02:29:34 | 00:00:00 | |
| AA1-15 | 2026-08-30 12:26:42 | 53.04355 | 10.93987 | 33° | 24km/h | 30828m | 4.9m/s | -43.5°C | 0% | 11hPa | 2.7V | 03:21:33 | 02:29:33 | 00:00:00 | |
| DL1XH1-15 | 2026-08-30 12:26:42 | 53.04344 | 10.93959 | 60° | 7km/h | 30798m | 5.1m/s | -43.7°C | 2.8% | 11.1hPa | 2.7V | 03:20:50 | 02:29:28 | 00:00:00 | |
| DF8AY | 2026-08-30 12:26:40 | 53.04340 | 10.93956 | 358° | 13km/h | 30785m | 7.2m/s | -43.9°C | 0% | 11.1hPa | 2.7V | 03:21:33 | 02:29:26 | 00:00:00 | |
| DO2SHX-10 | 2026-08-30 12:26:39 | 53.04345 | 10.93968 | 74° | 11km/h | 30810m | 6.6m/s | -43.7°C | 2.8% | 11.0hPa | 2.7V | 00:00:00 | 02:29:30 | 00:00:00 | |
| SONCRA | 2026-08-30 12:26:38 | 53.04345 | 10.93963 | 77° | 11km/h | 30804m | 5.5m/s | -43.7°C | 0.5% | 11.1hPa | 2.7V | 00:00:00 | 00:00:00 | 00:00:00 | |
| GOEST3-10 | 2026-08-30 12:26:37 | 53.04344 | 10.93959 | 61° | 15km/h | 30799m | 5.1m/s | -43.6°C | 2.8% | 11.0hPa | 2.7V | 00:00:00 | 00:00:00 | 00:00:00 | |
| DO2SHX-10 | 2026-08-30 12:26:36 | 53.04342 | 10.93956 | 28° | 13km/h | 30793m | 7.0m/s | -43.7°C | 2.8% | 11.0hPa | 2.7V | 00:00:00 | 02:29:27 | 00:00:00 | |
| DD8BA-10 | 2026-08-30 12:26:35 | 53.04340 | 10.93956 | 359° | 18km/h | 30786m | 7.1m/s | -43.8°C | 2.8% | 11.0hPa | 2.7V | 00:00:00 | 00:00:00 | 00:00:00 | |
| DL1NUX | 2026-08-30 12:26:34 | 53.04319 | 10.93960 | 28° | 11km/h | 30755m | 5.2m/s | -44.2°C | 3% | 11.2hPa | 2.6V | 03:20:57 | 02:29:21 | 00:00:00 | |
| HSKMA3-T | 2026-08-30 12:26:33 | 53.04331 | 10.93958 | 347° | 20km/h | 30773m | 5.7m/s | -44.2°C | 0% | 11.1hPa | 2.7V | 03:21:33 | 02:29:24 | 00:00:00 | |
| DL1XH-west | 2026-08-30 12:26:32 | 53.04326 | 10.93960 | 348° | 18km/h | 30767m | 6.2m/s | -44.3°C | 0% | 11.1hPa | 2.6V | 03:21:33 | 02:29:23 | 00:00:00 | |
| AA1-15 | 2026-08-30 12:26:31 | 53.04323 | 10.93961 | 359° | 13km/h | 30761m | 6.2m/s | -44.3°C | 0% | 11.1hPa | 2.6V | 03:21:33 | 02:29:22 | 00:00:00 | |
| DL1XH-15 | 2026-08-30 12:26:30 | 53.04309 | 10.93932 | 61° | 26km/h | 30731m | 5.9m/s | -44.3°C | 2.9% | 11.2hPa | 2.7V | 03:21:01 | 02:29:17 | 00:00:00 | |
| DB0NH | 2026-08-30 12:26:30 | 53.04319 | 10.93960 | 29° | 16km/h | 30755m | 5.2m/s | -44.2°C | 3.0% | 11.1hPa | 2.6V | 03:20:00 | 02:29:21 | 00:00:00 | |
| BIOWL9-15 | 2026-08-30 12:26:29 | 53.04315 | 10.93949 | 64° | 18km/h | 30744m | 6.4m/s | -44.3°C | 0.6% | 11.1hPa | 2.6V | 00:00:00 | 00:00:00 | 00:00:00 | |
| DF7PN | 2026-08-30 12:26:28 | 53.04313 | 10.93941 | 63° | 24km/h | 30737m | 7.2m/s | -44.3°C | 0.6% | 11.2hPa | 2.6V | 00:00:00 | 00:00:00 | 00:00:00 | |
| BIOWL7-15 | 2026-08-30 12:26:27 | 53.04312 | 10.93941 | 64° | 24km/h | 30738m | 7.2m/s | -44.3°C | 0.6% | 11.2hPa | 2.6V | 00:00:00 | 00:00:00 | 00:00:00 | |
| DL3OBA | 2026-08-30 12:26:26 | 53.04312 | 10.93941 | 64° | 24km/h | 30738m | 7.2m/s | -44.3°C | 0.6% | 11.2hPa | 2.6V | 00:00:00 | 00:00:00 | 00:00:00 | |
| DB0DAN | 2026-08-30 12:26:25 | 53.04307 | 10.93922 | 63° | 22km/h | 30725m | 4.7m/s | -44.4°C | 0.6% | 11.21hPa | 2.6V | 00:00:00 | 00:00:00 | 00:00:00 | |
| DF8AY | 2026-08-30 12:26:24 | 53.04304 | 10.93915 | 67° | 18km/h | 30720m | 4.7m/s | -44.5°C | 0% | 11.2hPa | 2.6V | 03:21:33 | 02:29:15 | 00:00:00 | |
| DB0UT-7 | 2026-08-30 12:26:24 | 53.04304 | 10.93914 | 68° | 18km/h | 30721m | 4.6m/s | -44.4°C | 3.0% | 11.2hPa | 2.7V | 03:21:00 | 02:29:15 | 00:00:00 | |
| DL1CLM-18 | 2026-08-30 12:26:23 | 53.04303 | 10.93909 | 83° | 11km/h | 30715m | 6.7m/s | -44.6°C | 0.6% | 11.2hPa | 2.7V | 00:00:00 | 00:00:00 | 00:00:00 | |
| DL1NUX | 2026-08-30 12:26:22 | 53.04307 | 10.93908 | 234° | 9km/h | 30694m | 5.8m/s | -44.8°C | 3.1% | 11.2hPa | 2.7V | 03:21:07 | 02:29:11 | 00:00:00 | |
| DL1XH-west | 2026-08-30 12:26:22 | 53.04304 | 10.93906 | 138° | 5km/h | 30707m | 7.8m/s | -44.7°C | 0% | 11.2hPa | 2.7V | 03:21:33 | 02:29:13 | 00:00:00 | |
| AA1-15 | 2026-08-30 12:26:20 | 53.04307 | 10.93908 | 235° | 9km/h | 30694m | 5.9m/s | -44.8°C | 0% | 11.3hPa | 2.7V | 03:21:33 | 02:29:11 | 00:00:00 | |
| DO2SHX-10 | 2026-08-30 12:26:18 | 53.04307 | 10.93915 | 307° | 13km/h | 30682m | 5.8m/s | -44.9°C | 3.1% | 11.2hPa | 2.6V | 00:00:00 | 02:29:09 | 00:00:00 | |
| GOEST3-10 | 2026-08-30 12:26:17 | 53.04305 | 10.93917 | 351° | 18km/h | 30677m | 4.7m/s | -44.9°C | 3.1% | 11.2hPa | 2.6V | 00:00:00 | 00:00:00 | 00:00:00 | |
| DL4BBY-15 | 2026-08-30 12:26:16 | 53.04301 | 10.93917 | 19° | 24km/h | 30672m | 4.6m/s | -45.3°C | 0% | 0hPa | 2.7V | 00:00:00 | 00:00:00 | 00:00:00 | |
| DO2SHX-10 | 2026-08-30 12:26:15 | 53.04298 | 10.93913 | 39° | 22km/h | 30667m | 6.2m/s | -44.7°C | 3.0% | 11.3hPa | 2.7V | 00:00:00 | 02:29:06 | 00:00:00 | |
| DL1NUX | 2026-08-30 12:26:14 | 53.04283 | 10.93868 | 56° | 27km/h | 30635m | 7m/s | -44.9°C | 3% | 11.4hPa | 2.6V | 03:21:17 | 02:29:01 | 00:00:00 | |
| DF8AY | 2026-08-30 12:26:13 | 53.04292 | 10.93899 | 67° | 26km/h | 30653m | 6.4m/s | -44.6°C | 0% | 11.3hPa | 2.7V | 03:21:33 | 02:29:04 | 00:00:00 | |
| DL1XH-west | 2026-08-30 12:26:12 | 53.04289 | 10.93888 | 69° | 27km/h | 30647m | 5.4m/s | -44.7°C | 0% | 11.3hPa | 2.7V | 03:21:33 | 02:29:03 | 00:00:00 | |
| HSKMA3-T | 2026-08-30 12:26:11 | 53.04287 | 10.93878 | 65° | 27km/h | 30642m | 5.6m/s | -44.8°C | 0% | 11.3hPa | 2.6V | 03:21:33 | 02:29:02 | 00:00:00 | |
| DB0DAN | 2026-08-30 12:26:10 | 53.04283 | 10.93868 | 56° | 27km/h | 30635m | 7m/s | -44.9°C | 0.6% | 11.37hPa | 2.6V | 00:00:00 | 00:00:00 | 00:00:00 | |
| AA1-15 | 2026-08-30 12:26:10 | 53.04279 | 10.93859 | 46° | 24km/h | 30629m | 5.9m/s | -44.9°C | 0% | 11.3hPa | 2.6V | 03:21:33 | 02:29:00 | 00:00:00 | |
| DL1XH1-15 | 2026-08-30 12:26:10 | 53.04271 | 10.93849 | 30° | 13km/h | 30618m | 5.8m/s | -44.8°C | 3% | 11.4hPa | 2.7V | 03:21:20 | 02:28:58 | 00:00:00 | |
| DO2SHX-10 | 2026-08-30 12:26:09 | 53.04279 | 10.93859 | 47° | 20km/h | 30629m | 5.8m/s | -44.9°C | 3.1% | 11.3hPa | 2.7V | 03:21:00 | 02:29:00 | 00:00:00 | |
| TFSTFS | 2026-08-30 12:26:08 | 53.04279 | 10.93859 | 47° | 26km/h | 30629m | 5.9m/s | -44.9°C | 0.6% | 11.3hPa | 2.7V | 00:00:00 | 00:00:00 | 00:00:00 | |
| GOEST3-10 | 2026-08-30 12:26:07 | 53.04271 | 10.93849 | 31° | 7km/h | 30618m | 5.7m/s | -44.8°C | 3.0% | 11.3hPa | 2.7V | 03:21:00 | 00:00:00 | 00:00:00 | |
| DJ8HS-15 | 2026-08-30 12:26:06 | 53.04269 | 10.93847 | 26° | 22km/h | 30611m | 7.7m/s | -44.8°C | 3.0% | 11.3hPa | 2.7V | 03:21:00 | 02:28:57 | 00:00:00 | |
| DD8BA-10 | 2026-08-30 12:26:05 | 53.04268 | 10.93846 | 3° | 27km/h | 30604m | 6.2m/s | -44.8°C | 3.0% | 11.3hPa | 2.7V | 00:00:00 | 00:00:00 | 00:00:00 | |
| EDDB2-12 | 2026-08-30 12:26:04 | 53.04267 | 10.93846 | 346° | 2km/h | 30599m | 5.1m/s | -44.9°C | 0.6% | 11.4hPa | 2.7V | 00:00:00 | 00:00:00 | 00:00:00 | |
| DO9LL-15 | 2026-08-30 12:26:03 | 53.04266 | 10.93846 | 9° | 26km/h | 30594m | 4.9m/s | -44.9°C | 3.0% | 11.4hPa | 2.7V | 03:21:00 | 02:28:54 | 00:00:00 | |
| DL1NUX | 2026-08-30 12:26:02 | 53.04255 | 10.93836 | 36° | 29km/h | 30575m | 5.8m/s | -45.1°C | 3% | 11.4hPa | 2.7V | 03:21:27 | 02:28:51 | 00:00:00 | |
| DL1XH1-15 | 2026-08-30 12:26:02 | 53.04237 | 10.93803 | 58° | 40km/h | 30555m | 6.2m/s | -45°C | 3% | 11.5hPa | 2.7V | 03:21:30 | 02:28:48 | 00:00:00 | |
| DL1XH-west | 2026-08-30 12:26:01 | 53.04260 | 10.93842 | 28° | 22km/h | 30581m | 6.3m/s | -45.1°C | 0% | 11.4hPa | 2.7V | 03:21:33 | 02:28:52 | 00:00:00 | |
| HSKMA3-T | 2026-08-30 12:26:00 | 53.04255 | 10.93836 | 36° | 29km/h | 30575m | 5.8m/s | -45.1°C | 0% | 11.5hPa | 2.7V | 03:21:33 | 02:28:51 | 00:00:00 | |
| AA1-15 | 2026-08-30 12:25:59 | 53.04243 | 10.93816 | 51° | 38km/h | 30562m | 7.1m/s | -45°C | 0% | 11.5hPa | 2.6V | 03:21:33 | 02:28:49 | 00:00:00 | |
| BIOWL9-15 | 2026-08-30 12:25:59 | 53.04237 | 10.93803 | 58° | 38km/h | 30556m | 6.2m/s | -45.0°C | 0.6% | 11.5hPa | 2.6V | 00:00:00 | 00:00:00 | 00:00:00 | |
| BIOWL1-15 | 2026-08-30 12:25:57 | 53.04163 | 10.93716 | 36° | 42km/h | 30472m | 5m/s | -45°C | 0% | 11.7hPa | 2.6V | 03:22:24 | 02:28:34 | 00:00:00 | |
| EDDB2-11 | 2026-08-30 12:25:57 | 53.04237 | 10.93803 | 58° | 38km/h | 30556m | 6.2m/s | -45.0°C | 0.6% | 11.5hPa | 2.7V | 00:00:00 | 00:00:00 | 00:00:00 | |
| SMARD9-15 | 2026-08-30 12:25:56 | 53.04232 | 10.93789 | 60° | 38km/h | 30550m | 5.0m/s | -45.1°C | 0.6% | 11.5hPa | 2.7V | 00:00:00 | 00:00:00 | 00:00:00 | |
| DB0DAN | 2026-08-30 12:25:55 | 53.04227 | 10.93775 | 58° | 35km/h | 30545m | 4.6m/s | -45.2°C | 0.6% | 11.49hPa | 2.7V | 00:00:00 | 00:00:00 | 00:00:00 | |
| DL3AQ-11 | 2026-08-30 12:25:55 | 53.04222 | 10.93764 | 48° | 31km/h | 30540m | 5.9m/s | -45.2°C | 0.6% | 11.5hPa | 2.7V | 00:00:00 | 00:00:00 | 00:00:00 | |
| DL1NUX | 2026-08-30 12:25:54 | 53.04199 | 10.93748 | 355° | 20km/h | 30515m | 6m/s | -44.8°C | 3.1% | 11.6hPa | 2.7V | 03:21:37 | 02:28:41 | 00:00:00 | |
| HSKMA3-T | 2026-08-30 12:25:50 | 53.04199 | 10.93749 | 355° | 20km/h | 30515m | 6m/s | -44.8°C | 0% | 11.6hPa | 2.7V | 03:22:24 | 02:28:41 | 00:00:00 | |
| DL1XH1-15 | 2026-08-30 12:25:49 | 53.04188 | 10.93746 | 34° | 16km/h | 30497m | 5.4m/s | -45°C | 3.1% | 11.6hPa | 2.7V | 03:21:40 | 02:28:38 | 00:00:00 | |
| AA1-15 | 2026-08-30 12:25:47 | 53.04188 | 10.93746 | 34° | 16km/h | 30497m | 5.4m/s | -45°C | 0% | 11.6hPa | 2.7V | 03:22:24 | 02:28:38 | 00:00:00 | |
| BIOWL1-15 | 2026-08-30 12:25:44 | 53.04154 | 10.93705 | 37° | 40km/h | 30467m | 5.7m/s | -45°C | 0% | 11.7hPa | 2.7V | 03:22:24 | 02:28:33 | 00:00:00 | |
| DL3AQ-11 | 2026-08-30 12:25:44 | 53.04163 | 10.93716 | 35° | 42km/h | 30472m | 5.0m/s | -45.0°C | 0.6% | 11.7hPa | 2.6V | 00:00:00 | 00:00:00 | 00:00:00 | |
| SONDE2-11 | 2026-08-30 12:25:43 | 53.04154 | 10.93705 | 37° | 40km/h | 30467m | 5.7m/s | -45.0°C | 0.6% | 11.7hPa | 2.6V | 00:00:00 | 00:00:00 | 00:00:00 | |
| DL1XH1-15 | 2026-08-30 12:25:42 | 53.04121 | 10.93678 | 358° | 27km/h | 30436m | 7.7m/s | -45°C | 3.1% | 11.7hPa | 2.6V | 03:21:50 | 02:28:28 | 00:00:00 | |
| DF8AY | 2026-08-30 12:25:40 | 53.04140 | 10.93687 | 35° | 29km/h | 30454m | 6.3m/s | -44.8°C | 0% | 11.7hPa | 2.7V | 03:22:24 | 02:28:31 | 00:00:00 | |
| HSKMA3-T | 2026-08-30 12:25:39 | 53.04134 | 10.93681 | 23° | 26km/h | 30448m | 5.4m/s | -44.8°C | 0% | 11.7hPa | 2.7V | 03:22:24 | 02:28:30 | 00:00:00 | |
| DL1XH-15 | 2026-08-30 12:25:39 | 53.04114 | 10.93679 | 353° | 31km/h | 30429m | 6.6m/s | -45.1°C | 3.1% | 11.7hPa | 2.7V | 03:21:51 | 02:28:27 | 00:00:00 | |
| AA1-15 | 2026-08-30 12:25:36 | 53.04114 | 10.93679 | 354° | 31km/h | 30429m | 6.6m/s | -45.1°C | 0% | 11.7hPa | 2.7V | 03:22:24 | 02:28:27 | 00:00:00 | |
| SMARD9-10 | 2026-08-30 12:25:36 | 53.04114 | 10.93679 | 355° | 31km/h | 30429m | 6.6m/s | -45.1°C | 0.6% | 11.7hPa | 2.7V | 00:00:00 | 00:00:00 | 00:00:00 | |
| DD8BA-10 | 2026-08-30 12:25:35 | 53.04106 | 10.93680 | 355° | 31km/h | 30424m | 4.7m/s | -45.0°C | 3.1% | 11.7hPa | 2.7V | 03:21:00 | 00:00:00 | 00:00:00 | |
| AM1SDL-15 | 2026-08-30 12:25:34 | 53.04099 | 10.93681 | 359° | 29km/h | 30419m | 5.1m/s | -44.9°C | 3.1% | 11.7hPa | 2.7V | 00:00:00 | 02:28:25 | 00:00:00 | |
| DL1NUX | 2026-08-30 12:25:33 | 53.04074 | 10.93666 | 38° | 31km/h | 30393m | 6.1m/s | -44.8°C | 3.1% | 11.8hPa | 2.7V | 03:21:57 | 02:28:21 | 00:00:00 | |
| BIOWL1-15 | 2026-08-30 12:25:33 | 53.04029 | 10.93626 | 4° | 26km/h | 30355m | 6.3m/s | -44.7°C | 0% | 11.8hPa | 2.7V | 03:22:24 | 02:28:15 | 00:00:00 | |
| DL1XH-west | 2026-08-30 12:25:30 | 53.04074 | 10.93666 | 38° | 31km/h | 30393m | 6.1m/s | -44.8°C | 0% | 11.8hPa | 2.7V | 03:22:24 | 02:28:21 | 00:00:00 | |
| DF8AY | 2026-08-30 12:25:29 | 53.04068 | 10.93657 | 36° | 37km/h | 30386m | 7.7m/s | -44.9°C | 0% | 11.8hPa | 2.7V | 03:22:24 | 02:28:20 | 00:00:00 | |
| DL1XH-15 | 2026-08-30 12:25:29 | 53.04043 | 10.93633 | 22° | 35km/h | 30368m | 5.7m/s | -44.6°C | 3% | 11.8hPa | 2.6V | 03:22:01 | 02:28:17 | 00:00:00 | |
| HSKMA3-T | 2026-08-30 12:25:28 | 53.04060 | 10.93648 | 32° | 38km/h | 30379m | 6.9m/s | -44.9°C | 0% | 11.8hPa | 2.7V | 03:22:24 | 02:28:19 | 00:00:00 | |
| AA1-15 | 2026-08-30 12:25:26 | 53.04043 | 10.93633 | 23° | 35km/h | 30368m | 5.7m/s | -44.6°C | 0% | 11.8hPa | 2.6V | 03:22:24 | 02:28:17 | 00:00:00 | |
| DB0DAN | 2026-08-30 12:25:25 | 53.04035 | 10.93629 | 17° | 29km/h | 30361m | 6.9m/s | -44.6°C | 0.6% | 11.82hPa | 2.6V | 00:00:00 | 00:00:00 | 00:00:00 | |
| DD8BA-10 | 2026-08-30 12:25:25 | 53.04035 | 10.93629 | 18° | 27km/h | 30362m | 6.8m/s | -44.6°C | 3.0% | 11.8hPa | 2.6V | 00:00:00 | 00:00:00 | 00:00:00 | |
| DO2SHX-10 | 2026-08-30 12:25:24 | 53.04029 | 10.93626 | 4° | 26km/h | 30355m | 6.3m/s | -44.6°C | 3.0% | 11.8hPa | 2.6V | 00:00:00 | 02:28:15 | 00:00:00 | |
| DL1XH1-15 | 2026-08-30 12:25:22 | 53.03979 | 10.93642 | 12° | 27km/h | 30313m | 6.9m/s | -45.2°C | 3.1% | 11.9hPa | 2.6V | 03:22:10 | 02:28:08 | 00:00:00 | |
| SO1NDE-10 | 2026-08-30 12:25:22 | 53.04016 | 10.93630 | 339° | 29km/h | 30344m | 5.7m/s | -44.7°C | 2.9% | 11.8hPa | 2.7V | 00:00:00 | 02:28:13 | 00:00:00 | |
| DL1NUX | 2026-08-30 12:25:21 | 53.04002 | 10.93639 | 343° | 33km/h | 30331m | 6.5m/s | -45°C | 3% | 11.9hPa | 2.7V | 03:22:07 | 02:28:11 | 00:00:00 | |
| DL1XH-west | 2026-08-30 12:25:19 | 53.03994 | 10.93642 | 351° | 33km/h | 30325m | 5.5m/s | -45.1°C | 0% | 11.9hPa | 2.6V | 03:22:24 | 02:28:10 | 00:00:00 | |
| DL1XH-15 | 2026-08-30 12:25:19 | 53.03973 | 10.93638 | 25° | 24km/h | 30306m | 6.9m/s | -45.1°C | 3.2% | 11.9hPa | 2.7V | 03:22:11 | 02:28:07 | 00:00:00 | |
| DF8AY | 2026-08-30 12:25:18 | 53.03986 | 10.93643 | 1° | 31km/h | 30319m | 5.6m/s | -45.2°C | 0% | 11.9hPa | 2.6V | 03:22:24 | 02:28:09 | 00:00:00 | |
| HSKMA3-T | 2026-08-30 12:25:17 | 53.03979 | 10.93642 | 12° | 27km/h | 30313m | 6.9m/s | -45.2°C | 0% | 11.9hPa | 2.6V | 03:22:24 | 02:28:08 | 00:00:00 | |
| AA1-15 | 2026-08-30 12:25:16 | 53.03968 | 10.93633 | 37° | 22km/h | 30300m | 5.4m/s | -45.1°C | 0% | 11.9hPa | 2.7V | 03:22:24 | 02:28:06 | 00:00:00 | |
| BIOWL1-15 | 2026-08-30 12:25:15 | 53.03944 | 10.93616 | 1° | 35km/h | 30277m | 6.6m/s | -44.9°C | 0% | 12hPa | 2.6V | 03:22:24 | 02:28:02 | 00:00:00 | |
| DD8BA-10 | 2026-08-30 12:25:15 | 53.03968 | 10.93633 | 37° | 31km/h | 30300m | 5.4m/s | -45.1°C | 3.2% | 11.9hPa | 2.7V | 00:00:00 | 00:00:00 | 00:00:00 | |
| DL3AQ-11 | 2026-08-30 12:25:14 | 53.03964 | 10.93627 | 36° | 22km/h | 30295m | 4.1m/s | -45.0°C | 0.6% | 11.9hPa | 2.7V | 00:00:00 | 00:00:00 | 00:00:00 | |
| HTAHTA | 2026-08-30 12:25:13 | 53.03952 | 10.93618 | 14° | 29km/h | 30284m | 7.0m/s | -44.8°C | 0.6% | 12.0hPa | 2.7V | 00:00:00 | 00:00:00 | 00:00:00 | |
| DM0DOS-11 | 2026-08-30 12:25:12 | 53.03935 | 10.93618 | 348° | 38km/h | 30271m | 5.7m/s | -44.9°C | 3.1% | 12hPa | 2.7V | 03:22:17 | 02:28:01 | 00:00:00 | |
| DL1XH-15 | 2026-08-30 12:25:12 | 53.03903 | 10.93640 | 328° | 24km/h | 30247m | 6.2m/s | -44.8°C | 3.1% | 12hPa | 2.6V | 03:22:21 | 02:27:57 | 00:00:00 | |
| AM1SDL-15 | 2026-08-30 12:25:10 | 53.03935 | 10.93618 | 349° | 31km/h | 30272m | 5.7m/s | -44.9°C | 3.1% | 11.9hPa | 2.7V | 00:00:00 | 02:28:01 | 00:00:00 | |
| DL1XH1-15 | 2026-08-30 12:25:09 | 53.03909 | 10.93635 | 330° | 31km/h | 30254m | 6.6m/s | -44.8°C | 3.1% | 12.1hPa | 2.6V | 03:22:20 | 02:27:58 | 00:00:00 | |
| DL1XH-west | 2026-08-30 12:25:08 | 53.03917 | 10.93628 | 335° | 37km/h | 30260m | 6.3m/s | -44.8°C | 0% | 12hPa | 2.7V | 03:22:24 | 02:27:59 | 00:00:00 | |
| HSKMA3-T | 2026-08-30 12:25:07 | 53.03909 | 10.93635 | 330° | 31km/h | 30254m | 6.6m/s | -44.8°C | 0% | 12.1hPa | 2.6V | 03:22:24 | 02:27:58 | 00:00:00 | |
| AA1-15 | 2026-08-30 12:25:04 | 53.03890 | 10.93647 | 3° | 18km/h | 30230m | 5.8m/s | -45°C | 0% | 12.1hPa | 2.7V | 03:22:24 | 02:27:54 | 00:00:00 | |
| BIOWL1-15 | 2026-08-30 12:25:04 | 53.03884 | 10.93646 | 9° | 24km/h | 30223m | 7.5m/s | -45°C | 0% | 12.1hPa | 2.7V | 03:23:15 | 02:27:53 | 00:00:00 | |
| DL3AQ-11 | 2026-08-30 12:25:04 | 53.03890 | 10.93647 | 2° | 18km/h | 30230m | 5.8m/s | -45.0°C | 0.6% | 12.1hPa | 2.6V | 00:00:00 | 00:00:00 | 00:00:00 | |
| DL1NUX | 2026-08-30 12:25:03 | 53.03869 | 10.93642 | 8° | 37km/h | 30211m | 5.9m/s | -44.9°C | 3.1% | 12.1hPa | 2.6V | 03:22:27 | 02:27:51 | 00:00:00 | |
| DO2SHX-10 | 2026-08-30 12:25:03 | 53.03890 | 10.93647 | 3° | 26km/h | 30230m | 5.8m/s | -45.0°C | 3.2% | 12.0hPa | 2.7V | 00:00:00 | 02:27:54 | 00:00:00 | |
| GOEST3-10 | 2026-08-30 12:25:02 | 53.03884 | 10.93646 | 9° | 33km/h | 30224m | 7.4m/s | -44.9°C | 3.2% | 12.0hPa | 2.7V | 00:00:00 | 02:27:53 | 00:00:00 | |
| DL1ZP-14 | 2026-08-30 12:25:01 | 53.03869 | 10.93642 | 8° | 37km/h | 30211m | 5.9m/s | -44.9°C | 0.6% | 12.1hPa | 2.6V | 00:00:00 | 00:00:00 | 00:00:00 | |
| DO2SHX-10 | 2026-08-30 12:25:00 | 53.03869 | 10.93642 | 9° | 37km/h | 30211m | 5.8m/s | -44.8°C | 3.1% | 12.1hPa | 2.7V | 00:00:00 | 02:27:51 | 00:00:00 | |
| DL1XH-15 | 2026-08-30 12:24:59 | 53.03835 | 10.93642 | 343° | 26km/h | 30187m | 6.7m/s | -44.9°C | 3.2% | 12.2hPa | 2.7V | 03:22:31 | 02:27:47 | 00:00:00 | |
| DL1XH-west | 2026-08-30 12:24:57 | 53.03842 | 10.93640 | 354° | 31km/h | 30193m | 6.3m/s | -44.9°C | 0% | 12.1hPa | 2.7V | 03:23:15 | 02:27:48 | 00:00:00 | |
| HSKMA3-T | 2026-08-30 12:24:56 | 53.03835 | 10.93642 | 344° | 26km/h | 30187m | 6.7m/s | -44.9°C | 0% | 12.2hPa | 2.7V | 03:23:15 | 02:27:47 | 00:00:00 | |
| AA1-15 | 2026-08-30 12:24:54 | 53.03813 | 10.93668 | 321° | 31km/h | 30162m | 7m/s | -45.2°C | 0.1% | 12.2hPa | 2.7V | 03:23:15 | 02:27:43 | 00:00:00 | |
| GOEST3-10 | 2026-08-30 12:24:52 | 53.03812 | 10.93668 | 321° | 27km/h | 30162m | 6.9m/s | -45.1°C | 3.3% | 12.2hPa | 2.6V | 00:00:00 | 02:27:43 | 00:00:00 | |
| DL1XH-15 | 2026-08-30 12:24:51 | 53.03781 | 10.93698 | 349° | 16km/h | 30124m | 5.2m/s | -44.9°C | 3.3% | 12.3hPa | 2.6V | 03:22:41 | 02:27:37 | 00:00:00 | |
| DF8AY | 2026-08-30 12:24:47 | 53.03785 | 10.93696 | 343° | 16km/h | 30130m | 6.4m/s | -45.1°C | 0.1% | 12.2hPa | 2.6V | 03:23:15 | 02:27:38 | 00:00:00 | |
| DL1XH-west | 2026-08-30 12:24:46 | 53.03781 | 10.93698 | 349° | 16km/h | 30124m | 5.2m/s | -44.9°C | 0.1% | 12.3hPa | 2.6V | 03:23:15 | 02:27:37 | 00:00:00 | |
| HSKMA3-T | 2026-08-30 12:24:45 | 53.03776 | 10.93699 | 349° | 20km/h | 30119m | 6.2m/s | -44.8°C | 0.1% | 12.3hPa | 2.7V | 03:23:15 | 02:27:36 | 00:00:00 | |
| AA1-15 | 2026-08-30 12:24:42 | 53.03750 | 10.93714 | 332° | 27km/h | 30095m | 5.7m/s | -44.9°C | 0.1% | 12.3hPa | 2.6V | 03:23:15 | 02:27:32 | 00:00:00 | |
| DL1XH1-15 | 2026-08-30 12:24:42 | 53.03731 | 10.93737 | 316° | 24km/h | 30069m | 6.1m/s | -44.7°C | 3.3% | 12.3hPa | 2.7V | 03:22:50 | 02:27:28 | 00:00:00 | |
| BIOWL1-15 | 2026-08-30 12:24:40 | 53.03735 | 10.93731 | 318° | 22km/h | 30075m | 5.9m/s | -44.8°C | 0.1% | 12.3hPa | 2.7V | 03:23:15 | 02:27:29 | 00:00:00 | |
| DL1XH-west | 2026-08-30 12:24:36 | 53.03727 | 10.93744 | 318° | 26km/h | 30062m | 7.4m/s | -44.6°C | 0.1% | 12.4hPa | 2.6V | 03:23:15 | 02:27:27 | 00:00:00 | |
| HSKMA3-T | 2026-08-30 12:24:34 | 53.03717 | 10.93759 | 321° | 27km/h | 30049m | 5.6m/s | -44.6°C | 0% | 12.4hPa | 2.7V | 03:23:15 | 02:27:25 | 00:00:00 | |
| SONCRA | 2026-08-30 12:24:34 | 53.03712 | 10.93765 | 320° | 22km/h | 30043m | 6.9m/s | -44.6°C | 0.7% | 12.4hPa | 2.7V | 00:00:00 | 00:00:00 | 00:00:00 | |
| TFSTFS | 2026-08-30 12:24:33 | 53.03712 | 10.93765 | 321° | 22km/h | 30043m | 6.9m/s | -44.6°C | 0.7% | 12.4hPa | 2.7V | 03:23:00 | 00:00:00 | 00:00:00 | |
| GOEST3-10 | 2026-08-30 12:24:32 | 53.03708 | 10.93771 | 319° | 18km/h | 30036m | 7.6m/s | -44.5°C | 3.2% | 12.4hPa | 2.7V | 00:00:00 | 02:27:23 | 00:00:00 | |
| DL1XH-15 | 2026-08-30 12:24:31 | 53.03683 | 10.93799 | 331° | 31km/h | 29998m | 5.8m/s | -44.6°C | 3.2% | 12.5hPa | 2.7V | 03:23:01 | 02:27:17 | 00:00:00 | |
| AA1-15 | 2026-08-30 12:24:31 | 53.03705 | 10.93776 | 317° | 15km/h | 30029m | 6.3m/s | -44.6°C | 0% | 12.5hPa | 2.7V | 03:23:15 | 02:27:22 | 00:00:00 | |
| DB0NH | 2026-08-30 12:24:30 | 53.03702 | 10.93780 | 320° | 18km/h | 30024m | 5.1m/s | -44.6°C | 3.2% | 12.4hPa | 2.7V | 03:22:00 | 02:27:21 | 00:00:00 | |
| DL1XH1-15 | 2026-08-30 12:24:29 | 53.03689 | 10.93793 | 331° | 27km/h | 30005m | 6.9m/s | -44.7°C | 3.2% | 12.5hPa | 2.7V | 03:23:00 | 02:27:18 | 00:00:00 | |
| BIOWL1-15 | 2026-08-30 12:24:27 | 53.03689 | 10.93793 | 332° | 27km/h | 30005m | 6.9m/s | -44.7°C | 0% | 12.5hPa | 2.7V | 03:23:15 | 02:27:18 | 00:00:00 | |
| DL1XH-west | 2026-08-30 12:24:25 | 53.03676 | 10.93806 | 329° | 29km/h | 29992m | 5.7m/s | -44.5°C | 0% | 12.5hPa | 2.7V | 03:23:15 | 02:27:16 | 00:00:00 | |
| HSKMA3-T | 2026-08-30 12:24:24 | 53.03670 | 10.93812 | 324° | 26km/h | 29986m | 6.6m/s | -44.6°C | 0% | 12.5hPa | 2.7V | 03:23:15 | 02:27:15 | 00:00:00 | |
| DF7PN | 2026-08-30 12:24:24 | 53.03666 | 10.93819 | 313° | 20km/h | 29980m | 6.8m/s | -44.6°C | 0.6% | 12.5hPa | 2.6V | 00:00:00 | 00:00:00 | 00:00:00 | |
| SMARD9-15 | 2026-08-30 12:24:23 | 53.03666 | 10.93819 | 313° | 20km/h | 29980m | 6.8m/s | -44.6°C | 0.6% | 12.5hPa | 2.6V | 00:00:00 | 00:00:00 | 00:00:00 | |
| DL1XH1-15 | 2026-08-30 12:24:22 | 53.03649 | 10.93856 | 334° | 24km/h | 29944m | 5.6m/s | -44.4°C | 3.2% | 12.6hPa | 2.6V | 03:23:10 | 02:27:08 | 00:00:00 | |
| GOEST3-10 | 2026-08-30 12:24:22 | 53.03663 | 10.93825 | 299° | 18km/h | 29973m | 5.9m/s | -44.6°C | 3.2% | 12.5hPa | 2.7V | 00:00:00 | 02:27:13 | 00:00:00 | |
| DL1XH-15 | 2026-08-30 12:24:21 | 53.03643 | 10.93860 | 345° | 24km/h | 29938m | 5.2m/s | -44.4°C | 3.1% | 12.6hPa | 2.7V | 03:23:11 | 02:27:07 | 00:00:00 | |
| AA1-15 | 2026-08-30 12:24:21 | 53.03660 | 10.93839 | 293° | 18km/h | 29962m | 5.4m/s | -44.7°C | 0% | 12.6hPa | 2.7V | 03:23:15 | 02:27:11 | 00:00:00 | |
| DL1XH-west | 2026-08-30 12:24:15 | 53.03638 | 10.93861 | 356° | 22km/h | 29933m | 5.9m/s | -44.4°C | 0% | 12.6hPa | 2.7V | 03:23:15 | 02:27:06 | 00:00:00 | |
| HSKMA3-T | 2026-08-30 12:24:14 | 53.03633 | 10.93861 | 5° | 18km/h | 29926m | 7.8m/s | -44.4°C | 0% | 12.6hPa | 2.7V | 03:23:15 | 02:27:05 | 00:00:00 | |
| DO2SHX-10 | 2026-08-30 12:24:12 | 53.03627 | 10.93859 | 15° | 9km/h | 29914m | 5.2m/s | -44.3°C | 3.1% | 12.6hPa | 2.7V | 00:00:00 | 02:27:03 | 00:00:00 | |
| DL1XH-15 | 2026-08-30 12:24:11 | 53.03613 | 10.93893 | 289° | 26km/h | 29876m | 5.3m/s | -44.5°C | 3.1% | 12.8hPa | 2.7V | 03:23:21 | 02:26:57 | 00:00:00 | |
| AA1-15 | 2026-08-30 12:24:10 | 53.03621 | 10.93866 | 304° | 16km/h | 29895m | 7.6m/s | -44.6°C | 0% | 12.7hPa | 2.7V | 03:24:06 | 02:27:00 | 00:00:00 | |
| DB0DAN | 2026-08-30 12:24:10 | 53.03623 | 10.93861 | 316° | 11km/h | 29902m | 6.6m/s | -44.6°C | 0.6% | 12.67hPa | 2.6V | 00:00:00 | 00:00:00 | 00:00:00 | |
| DL1XH1-15 | 2026-08-30 12:24:09 | 53.03615 | 10.93882 | 294° | 27km/h | 29882m | 5.7m/s | -44.7°C | 3.2% | 12.7hPa | 2.7V | 03:23:20 | 02:26:58 | 00:00:00 | |
| DL1XH-west | 2026-08-30 12:24:05 | 53.03611 | 10.93902 | 285° | 20km/h | 29871m | 6.8m/s | -44.5°C | 0% | 12.8hPa | 2.6V | 03:24:06 | 02:26:56 | 00:00:00 | |
| DF8AY | 2026-08-30 12:24:05 | 53.03610 | 10.93909 | 278° | 13km/h | 29864m | 6.4m/s | -44.5°C | 0% | 12.8hPa | 2.6V | 03:24:06 | 02:26:55 | 00:00:00 | |
| HSKMA3-T | 2026-08-30 12:24:03 | 53.03610 | 10.93912 | 280° | 5km/h | 29858m | 5.9m/s | -44.4°C | 0% | 12.8hPa | 2.7V | 03:24:06 | 02:26:54 | 00:00:00 | |
| DL1NUX | 2026-08-30 12:24:03 | 53.03606 | 10.93910 | 19° | 13km/h | 29839m | 7m/s | -44.6°C | 3.1% | 12.8hPa | 2.6V | 03:23:27 | 02:26:51 | 00:00:00 | |
| SONCRA | 2026-08-30 12:24:03 | 53.03609 | 10.93913 | 15° | 2km/h | 29852m | 5.7m/s | -44.5°C | 0.6% | 12.8hPa | 2.7V | 00:00:00 | 00:00:00 | 00:00:00 | |
| DL1XH1-15 | 2026-08-30 12:24:02 | 53.03595 | 10.93906 | 14° | 11km/h | 29822m | 5.4m/s | -44.4°C | 3% | 12.8hPa | 2.7V | 03:23:30 | 02:26:48 | 00:00:00 | |
| DF7ER-10 | 2026-08-30 12:24:02 | 53.03609 | 10.93913 | 17° | 4km/h | 29853m | 5.7m/s | -44.5°C | 0.7% | 12.8hPa | 2.7V | 03:24:00 | 00:00:00 | 00:00:00 | |
| DL1XH-15 | 2026-08-30 12:24:01 | 53.03593 | 10.93905 | 19° | 5km/h | 29815m | 7.5m/s | -44.4°C | 3.1% | 12.9hPa | 2.7V | 03:23:31 | 02:26:47 | 00:00:00 | |
| AA1-15 | 2026-08-30 12:23:59 | 53.03599 | 10.93907 | 11° | 15km/h | 29827m | 5.2m/s | -44.4°C | 0% | 12.8hPa | 2.7V | 03:24:06 | 02:26:49 | 00:00:00 | |
| S3001 | 2026-08-30 12:23:56 | 53.03594 | 10.93905 | 19° | 5km/h | 29815m | 7.5m/s | -44.4°C | 0.6% | 12.9hPa | 2.7V | 00:00:00 | 00:00:00 | 00:00:00 | |
| DB0DAN | 2026-08-30 12:23:55 | 53.03593 | 10.93905 | 162° | 0km/h | 29808m | 7.2m/s | -44.5°C | 0.6% | 12.84hPa | 2.7V | 00:00:00 | 00:00:00 | 00:00:00 | |
| DL1XH-west | 2026-08-30 12:23:54 | 53.03593 | 10.93906 | 228° | 5km/h | 29801m | 6.1m/s | -44.5°C | 0% | 12.9hPa | 2.6V | 03:24:06 | 02:26:45 | 00:00:00 | |
| DF8AY | 2026-08-30 12:23:53 | 53.03594 | 10.93908 | 241° | 9km/h | 29795m | 6.4m/s | -44.5°C | 0% | 12.9hPa | 2.6V | 03:24:06 | 02:26:44 | 00:00:00 | |
| HSKMA3-T | 2026-08-30 12:23:52 | 53.03595 | 10.93912 | 263° | 13km/h | 29788m | 7.3m/s | -44.5°C | 0% | 12.9hPa | 2.6V | 03:24:06 | 02:26:43 | 00:00:00 | |
| DL1NUX | 2026-08-30 12:23:52 | 53.03594 | 10.93922 | 290° | 11km/h | 29776m | 4.7m/s | -44.5°C | 3% | 12.9hPa | 2.7V | 03:23:37 | 02:26:41 | 00:00:00 | |
| SO1NDE-10 | 2026-08-30 12:23:52 | 53.03595 | 10.93912 | 263° | 13km/h | 29788m | 7.3m/s | -44.5°C | 3.0% | 12.8hPa | 2.6V | 03:23:00 | 02:26:43 | 00:00:00 | |
| DL1XH-15 | 2026-08-30 12:23:51 | 53.03591 | 10.93918 | 83° | 13km/h | 29750m | 6.2m/s | -44.3°C | 2.9% | 13hPa | 2.6V | 03:23:41 | 02:26:37 | 00:00:00 | |
| DO2SHX-10 | 2026-08-30 12:23:51 | 53.03595 | 10.93918 | 277° | 9km/h | 29782m | 5.8m/s | -44.5°C | 3.0% | 12.9hPa | 2.7V | 00:00:00 | 02:26:42 | 00:00:00 | |
| DF7ER-10 | 2026-08-30 12:23:50 | 53.03595 | 10.93918 | 278° | 13km/h | 29782m | 5.9m/s | -44.6°C | 0.6% | 12.9hPa | 2.6V | 03:24:00 | 00:00:00 | 00:00:00 | |
| DL1XH1-15 | 2026-08-30 12:23:49 | 53.03592 | 10.93923 | 81° | 9km/h | 29757m | 7.2m/s | -44.2°C | 3% | 12.9hPa | 2.6V | 03:23:40 | 02:26:38 | 00:00:00 | |
| AA1-15 | 2026-08-30 12:23:48 | 53.03592 | 10.93923 | 81° | 9km/h | 29757m | 7.2m/s | -44.2°C | 0% | 12.9hPa | 2.6V | 03:24:06 | 02:26:38 | 00:00:00 | |
| DL1XH-west | 2026-08-30 12:23:43 | 53.03588 | 10.93903 | 47° | 13km/h | 29730m | 6.5m/s | -44.5°C | 0% | 13hPa | 2.7V | 03:24:06 | 02:26:34 | 00:00:00 | |
| HSKMA3-T | 2026-08-30 12:23:42 | 53.03586 | 10.93900 | 42° | 9km/h | 29724m | 5.6m/s | -44.4°C | 0% | 13hPa | 2.6V | 03:24:06 | 02:26:33 | 00:00:00 | |
| DL1XH1-15 | 2026-08-30 12:23:42 | 53.03586 | 10.93889 | 123° | 4km/h | 29693m | 5.8m/s | -44.5°C | 3.1% | 13.1hPa | 2.6V | 03:23:50 | 02:26:28 | 00:00:00 | |
| DL1NUX | 2026-08-30 12:23:42 | 53.03584 | 10.93895 | 88° | 7km/h | 29711m | 7.5m/s | -44.4°C | 3% | 13.1hPa | 2.7V | 03:23:47 | 02:26:31 | 00:00:00 | |
| DO2SHX-10 | 2026-08-30 12:23:42 | 53.03586 | 10.93900 | 43° | 7km/h | 29725m | 5.6m/s | -44.3°C | 3.0% | 13.0hPa | 2.6V | 00:00:00 | 02:26:33 | 00:00:00 | |
| DL1XH-15 | 2026-08-30 12:23:41 | 53.03586 | 10.93888 | 14° | 2km/h | 29687m | 7.3m/s | -44.5°C | 3% | 13.1hPa | 2.6V | 03:23:51 | 02:26:27 | 00:00:00 | |
| DB0DAN | 2026-08-30 12:23:40 | 53.03584 | 10.93895 | 89° | 5km/h | 29711m | 7.5m/s | -44.5°C | 0.6% | 13.06hPa | 2.7V | 00:00:00 | 00:00:00 | 00:00:00 | |
| AA1-15 | 2026-08-30 12:23:37 | 53.03586 | 10.93888 | 15° | 2km/h | 29687m | 7.3m/s | -44.5°C | 0% | 13.1hPa | 2.6V | 03:24:06 | 02:26:27 | 00:00:00 | |
| DF8AY | 2026-08-30 12:23:34 | 53.03583 | 10.93886 | 81° | 7km/h | 29669m | 5.5m/s | -44.5°C | 0% | 13.1hPa | 2.7V | 03:24:06 | 02:26:24 | 00:00:00 | |
| DL1XH-west | 2026-08-30 12:23:32 | 53.03583 | 10.93882 | 103° | 13km/h | 29663m | 7.6m/s | -44.6°C | 0% | 13.1hPa | 2.7V | 03:24:06 | 02:26:23 | 00:00:00 | |
| DL1NUX | 2026-08-30 12:23:32 | 53.03587 | 10.93867 | 109° | 26km/h | 29649m | 6m/s | -44.6°C | 2.9% | 13.2hPa | 2.6V | 03:23:57 | 02:26:21 | 00:00:00 | |
| DL1XH-15 | 2026-08-30 12:23:30 | 53.03587 | 10.93829 | 58° | 20km/h | 29623m | 6m/s | -44.8°C | 2.9% | 13.2hPa | 2.7V | 03:24:01 | 02:26:17 | 00:00:00 | |
| AA1-15 | 2026-08-30 12:23:26 | 53.03584 | 10.93822 | 50° | 18km/h | 29617m | 6m/s | -44.9°C | 0% | 13.2hPa | 2.7V | 03:24:06 | 02:26:16 | 00:00:00 | |
| DB0DAN | 2026-08-30 12:23:25 | 53.03584 | 10.93822 | 50° | 16km/h | 29617m | 6m/s | -44.9°C | 0.6% | 13.24hPa | 2.7V | 00:00:00 | 00:00:00 | 00:00:00 | |
| DF8AY | 2026-08-30 12:23:23 | 53.03579 | 10.93812 | 59° | 15km/h | 29604m | 6.5m/s | -45°C | 0% | 13.2hPa | 2.6V | 03:24:06 | 02:26:14 | 00:00:00 | |
| DO2SHX-10 | 2026-08-30 12:23:23 | 53.03579 | 10.93812 | 60° | 13km/h | 29605m | 6.5m/s | -44.9°C | 3.0% | 13.2hPa | 2.6V | 00:00:00 | 02:26:14 | 00:00:00 | |
| GOEST3-10 | 2026-08-30 12:23:22 | 53.03577 | 10.93807 | 69° | 15km/h | 29599m | 5.5m/s | -44.9°C | 3.1% | 13.3hPa | 2.7V | 00:00:00 | 02:26:13 | 00:00:00 | |
| DL1XH-west | 2026-08-30 12:23:22 | 53.03577 | 10.93807 | 69° | 13km/h | 29598m | 5.6m/s | -44.9°C | 0% | 13.3hPa | 2.7V | 03:24:06 | 02:26:13 | 00:00:00 | |
| DL1XH-15 | 2026-08-30 12:23:21 | 53.03566 | 10.93777 | 45° | 13km/h | 29563m | 5m/s | -45°C | 3% | 13.3hPa | 2.7V | 03:24:11 | 02:26:07 | 00:00:00 | |
| BIOWL1-15 | 2026-08-30 12:23:17 | 53.03568 | 10.93781 | 41° | 15km/h | 29568m | 5.7m/s | -44.9°C | 0% | 13.3hPa | 2.7V | 03:24:57 | 02:26:08 | 00:00:00 | |
| AA1-15 | 2026-08-30 12:23:16 | 53.03564 | 10.93773 | 63° | 9km/h | 29558m | 5.6m/s | -45°C | 0% | 13.4hPa | 2.7V | 03:24:57 | 02:26:06 | 00:00:00 | |
| DL1XH-west | 2026-08-30 12:23:12 | 53.03566 | 10.93760 | 120° | 16km/h | 29538m | 5.5m/s | -45.1°C | 0% | 13.4hPa | 2.7V | 03:24:57 | 02:26:03 | 00:00:00 | |
| HSKMA3-T | 2026-08-30 12:23:11 | 53.03568 | 10.93753 | 106° | 16km/h | 29532m | 5.3m/s | -45.2°C | 0% | 13.4hPa | 2.7V | 03:24:57 | 02:26:02 | 00:00:00 | |
| DO2SHX-10 | 2026-08-30 12:23:11 | 53.03568 | 10.93753 | 107° | 16km/h | 29533m | 5.2m/s | -45.1°C | 3.1% | 13.4hPa | 2.6V | 00:00:00 | 02:26:02 | 00:00:00 | |
| DL1XH-15 | 2026-08-30 12:23:10 | 53.03555 | 10.93716 | 43° | 26km/h | 29501m | 6.5m/s | -45.2°C | 3.2% | 13.5hPa | 2.6V | 03:24:21 | 02:25:57 | 00:00:00 | |
| DB0DAN | 2026-08-30 12:23:10 | 53.03568 | 10.93746 | 86° | 16km/h | 29527m | 6.5m/s | -45.2°C | 0.6% | 13.44hPa | 2.7V | 00:00:00 | 00:00:00 | 00:00:00 | |
| BIOWL1-15 | 2026-08-30 12:23:08 | 53.03555 | 10.93716 | 44° | 26km/h | 29501m | 6.5m/s | -45.2°C | 0% | 13.5hPa | 2.6V | 03:24:57 | 02:25:57 | 00:00:00 | |
| AA1-15 | 2026-08-30 12:23:05 | 53.03547 | 10.93702 | 58° | 20km/h | 29488m | 5.9m/s | -44.8°C | 0% | 13.5hPa | 2.7V | 03:24:57 | 02:25:55 | 00:00:00 | |
| DO2SHX-10 | 2026-08-30 12:23:04 | 53.03547 | 10.93702 | 58° | 20km/h | 29488m | 5.9m/s | -44.8°C | 3.1% | 13.4hPa | 2.7V | 00:00:00 | 02:25:55 | 00:00:00 | |
| TFSTFS | 2026-08-30 12:23:03 | 53.03547 | 10.93702 | 59° | 20km/h | 29488m | 5.9m/s | -44.8°C | 0.6% | 13.5hPa | 2.7V | 03:24:00 | 00:00:00 | 00:00:00 | |
| DL1XH1-15 | 2026-08-30 12:23:02 | 53.03531 | 10.93655 | 80° | 20km/h | 29445m | 7.6m/s | -44.6°C | 3.1% | 13.6hPa | 2.7V | 03:24:30 | 02:25:48 | 00:00:00 | |
| DL1XH-west | 2026-08-30 12:23:02 | 53.03543 | 10.93688 | 59° | 16km/h | 29477m | 5.7m/s | -44.7°C | 0% | 13.5hPa | 2.7V | 03:24:57 | 02:25:53 | 00:00:00 | |
| HSKMA3-T | 2026-08-30 12:23:01 | 53.03540 | 10.93682 | 53° | 18km/h | 29471m | 7.2m/s | -44.7°C | 0% | 13.6hPa | 2.6V | 03:24:57 | 02:25:52 | 00:00:00 | |
| SONCRA | 2026-08-30 12:23:01 | 53.03537 | 10.93677 | 50° | 18km/h | 29464m | 6.5m/s | -44.7°C | 0.6% | 13.5hPa | 2.6V | 00:00:00 | 00:00:00 | 00:00:00 | |
| DB0NH | 2026-08-30 12:22:59 | 53.03535 | 10.93670 | 60° | 16km/h | 29458m | 5.5m/s | -44.8°C | 3.1% | 13.5hPa | 2.6V | 00:00:00 | 02:25:50 | 00:00:00 | |
| DO2SHX-10 | 2026-08-30 12:22:58 | 53.03532 | 10.93663 | 68° | 20km/h | 29452m | 6.2m/s | -44.7°C | 3.1% | 13.5hPa | 2.6V | 00:00:00 | 02:25:49 | 00:00:00 | |
| DG6HD-15 | 2026-08-30 12:22:57 | 53.03531 | 10.93655 | 81° | 20km/h | 29446m | 7.6m/s | -44.6°C | 0.7% | 13.6hPa | 2.6V | 03:24:00 | 00:00:00 | 00:00:00 | |
| DB0DAN | 2026-08-30 12:22:55 | 53.03530 | 10.93639 | 82° | 18km/h | 29433m | 4.5m/s | -44.6°C | 0.6% | 13.6hPa | 2.6V | 00:00:00 | 00:00:00 | 00:00:00 | |
| BIOWL1-15 | 2026-08-30 12:22:55 | 53.03530 | 10.93639 | 82° | 18km/h | 29433m | 4.5m/s | -44.6°C | 0% | 13.6hPa | 2.6V | 03:24:57 | 02:25:46 | 00:00:00 | |
| AA1-15 | 2026-08-30 12:22:54 | 53.03529 | 10.93631 | 65° | 18km/h | 29428m | 5.7m/s | -44.7°C | 0% | 13.6hPa | 2.7V | 03:24:57 | 02:25:45 | 00:00:00 | |
| DB0UT-7 | 2026-08-30 12:22:54 | 53.03529 | 10.93631 | 66° | 15km/h | 29428m | 5.6m/s | -44.7°C | 3.1% | 13.6hPa | 2.6V | 00:00:00 | 00:00:00 | 00:00:00 | |
| DM0DOS-11 | 2026-08-30 12:22:53 | 53.03513 | 10.93618 | 7° | 20km/h | 29403m | 6m/s | -44.6°C | 3% | 13.7hPa | 2.6V | 03:24:37 | 02:25:41 | 00:00:00 | |
| DL1XH-west | 2026-08-30 12:22:51 | 53.03518 | 10.93619 | 8° | 22km/h | 29409m | 5.1m/s | -44.5°C | 0% | 13.7hPa | 2.6V | 03:24:57 | 02:25:42 | 00:00:00 | |
| DF8AY | 2026-08-30 12:22:51 | 53.03500 | 10.93611 | 33° | 13km/h | 29378m | 5.9m/s | -44.5°C | 0% | 13.7hPa | 2.6V | 03:24:57 | 02:25:37 | 00:00:00 | |
| DF7PN | 2026-08-30 12:22:50 | 53.03512 | 10.93618 | 7° | 18km/h | 29403m | 6.0m/s | -44.6°C | 0.6% | 13.7hPa | 2.7V | 00:00:00 | 00:00:00 | 00:00:00 | |
| DL1XH1-15 | 2026-08-30 12:22:49 | 53.03502 | 10.93614 | 31° | 11km/h | 29383m | 5.8m/s | -44.6°C | 3.1% | 13.7hPa | 2.7V | 03:24:40 | 02:25:38 | 00:00:00 | |
| BIOWL1-15 | 2026-08-30 12:22:44 | 53.03493 | 10.93604 | 36° | 18km/h | 29364m | 6.1m/s | -44.4°C | 0% | 13.8hPa | 2.7V | 03:24:57 | 02:25:35 | 00:00:00 | |
| DL1NUX | 2026-08-30 12:22:43 | 53.03483 | 10.93580 | 77° | 15km/h | 29339m | 5.9m/s | -44.4°C | 2.8% | 13.8hPa | 2.6V | 03:24:47 | 02:25:31 | 00:00:00 | |
| AA1-15 | 2026-08-30 12:22:43 | 53.03490 | 10.93599 | 43° | 18km/h | 29358m | 5.3m/s | -44.4°C | 0% | 13.8hPa | 2.7V | 03:24:57 | 02:25:34 | 00:00:00 | |
| DO2SHX-10 | 2026-08-30 12:22:42 | 53.03486 | 10.93593 | 54° | 16km/h | 29353m | 6.1m/s | -44.3°C | 2.8% | 13.7hPa | 2.7V | 03:24:00 | 02:25:33 | 00:00:00 | |
| DL1XH-15 | 2026-08-30 12:22:41 | 53.03474 | 10.93564 | 10° | 18km/h | 29316m | 6.2m/s | -45°C | 2.9% | 13.8hPa | 2.7V | 03:24:51 | 02:25:27 | 00:00:00 | |
| DL1XH-west | 2026-08-30 12:22:40 | 53.03483 | 10.93580 | 77° | 15km/h | 29340m | 5.9m/s | -44.4°C | 0% | 13.8hPa | 2.6V | 03:24:57 | 02:25:31 | 00:00:00 | |
| DF8AY | 2026-08-30 12:22:39 | 53.03482 | 10.93575 | 71° | 13km/h | 29334m | 4.5m/s | -44.5°C | 0% | 13.8hPa | 2.6V | 03:24:57 | 02:25:30 | 00:00:00 | |
| BIOWL1-15 | 2026-08-30 12:22:37 | 53.03462 | 10.93563 | 2° | 11km/h | 29298m | 7.3m/s | -45.2°C | 0% | 13.9hPa | 2.6V | 03:24:57 | 02:25:24 | 00:00:00 | |
| AA1-15 | 2026-08-30 12:22:32 | 53.03460 | 10.93562 | 22° | 5km/h | 29291m | 6.4m/s | -45.2°C | 0% | 13.9hPa | 2.6V | 03:24:57 | 02:25:23 | 00:00:00 | |
| DL1NUX | 2026-08-30 12:22:32 | 53.03457 | 10.93559 | 40° | 7km/h | 29280m | 5.7m/s | -45.2°C | 3.2% | 13.9hPa | 2.7V | 03:24:57 | 02:25:21 | 00:00:00 | |
| DL1XH-west | 2026-08-30 12:22:30 | 53.03457 | 10.93559 | 41° | 7km/h | 29280m | 5.7m/s | -45.2°C | 0% | 13.9hPa | 2.7V | 03:24:57 | 02:25:21 | 00:00:00 | |
| DF8AY | 2026-08-30 12:22:29 | 53.03454 | 10.93556 | 20° | 11km/h | 29267m | 6.1m/s | -45°C | 0% | 13.9hPa | 2.6V | 03:25:48 | 02:25:19 | 00:00:00 | |
| HSKMA3-T | 2026-08-30 12:22:29 | 53.03456 | 10.93557 | 33° | 7km/h | 29273m | 6.9m/s | -45.1°C | 0% | 13.9hPa | 2.7V | 03:25:48 | 02:25:20 | 00:00:00 | |
| DL1XH1-15 | 2026-08-30 12:22:29 | 53.03451 | 10.93554 | 14° | 11km/h | 29261m | 5.4m/s | -44.9°C | 3.1% | 14hPa | 2.6V | 03:25:00 | 02:25:18 | 00:00:00 | |
| DB0NH | 2026-08-30 12:22:29 | 53.03456 | 10.93557 | 34° | 15km/h | 29274m | 6.9m/s | -45.1°C | 3.2% | 13.9hPa | 2.7V | 03:24:00 | 02:25:20 | 00:00:00 | |
| DC4HF-4 | 2026-08-30 12:22:28 | 53.03454 | 10.93556 | 19° | 9km/h | 29267m | 6.1m/s | -45.0°C | 0.7% | 13.9hPa | 2.7V | 00:00:00 | 00:00:00 | 00:00:00 | |
| EDDB2-12 | 2026-08-30 12:22:27 | 53.03449 | 10.93553 | 12° | 7km/h | 29256m | 6.1m/s | -44.9°C | 0.6% | 14.0hPa | 2.7V | 00:00:00 | 00:00:00 | 00:00:00 | |
| DO2SHX-10 | 2026-08-30 12:22:26 | 53.03449 | 10.93553 | 13° | 4km/h | 29256m | 6.0m/s | -44.9°C | 3.1% | 14.0hPa | 2.7V | 00:00:00 | 02:25:17 | 00:00:00 | |
| DL1NUX | 2026-08-30 12:22:25 | 53.03444 | 10.93548 | 26° | 13km/h | 29220m | 7m/s | -45.1°C | 3% | 14.1hPa | 2.7V | 03:25:07 | 02:25:11 | 00:00:00 | |
| BIOWL1-15 | 2026-08-30 12:22:24 | 53.03447 | 10.93551 | 55° | 4km/h | 29232m | 4.7m/s | -45°C | 0% | 14hPa | 2.6V | 03:25:48 | 02:25:13 | 00:00:00 | |
| DL3AQ-11 | 2026-08-30 12:22:24 | 53.03447 | 10.93552 | 118° | 0km/h | 29237m | 4.9m/s | -44.9°C | 0.6% | 14.0hPa | 2.6V | 00:00:00 | 00:00:00 | 00:00:00 | |
| DO2SHX-10 | 2026-08-30 12:22:23 | 53.03447 | 10.93552 | 119° | 9km/h | 29237m | 4.9m/s | -44.9°C | 3.0% | 14.0hPa | 2.6V | 00:00:00 | 02:25:14 | 00:00:00 | |
| DL1XH1-15 | 2026-08-30 12:22:22 | 53.03432 | 10.93538 | 36° | 18km/h | 29201m | 6.6m/s | -45.1°C | 3% | 14.1hPa | 2.6V | 03:25:10 | 02:25:08 | 00:00:00 | |
| AA1-15 | 2026-08-30 12:22:21 | 53.03446 | 10.93550 | 30° | 7km/h | 29226m | 6.7m/s | -45°C | 0% | 14.1hPa | 2.7V | 03:25:48 | 02:25:12 | 00:00:00 | |
| DL1XH-15 | 2026-08-30 12:22:20 | 53.03428 | 10.93533 | 42° | 16km/h | 29194m | 6.8m/s | -45.2°C | 3% | 14.1hPa | 2.7V | 03:25:11 | 02:25:07 | 00:00:00 | |
| DL1XH-west | 2026-08-30 12:22:19 | 53.03440 | 10.93545 | 26° | 18km/h | 29213m | 6.4m/s | -45.2°C | 0% | 14.1hPa | 2.7V | 03:25:48 | 02:25:10 | 00:00:00 | |
| DF8AY | 2026-08-30 12:22:19 | 53.03436 | 10.93542 | 29° | 20km/h | 29207m | 5.4m/s | -45.1°C | 0% | 14.1hPa | 2.6V | 03:25:48 | 02:25:09 | 00:00:00 | |
| BIOWL1-15 | 2026-08-30 12:22:14 | 53.03405 | 10.93515 | 3° | 13km/h | 29155m | 6.1m/s | -45.6°C | 0.1% | 14.2hPa | 2.7V | 03:25:48 | 02:25:00 | 00:00:00 | |
| DL1NUX | 2026-08-30 12:22:13 | 53.03408 | 10.93515 | 1° | 15km/h | 29160m | 3.8m/s | -45.5°C | 3.2% | 14.2hPa | 2.7V | 03:25:17 | 02:25:01 | 00:00:00 | |
| AA1-15 | 2026-08-30 12:22:10 | 53.03408 | 10.93515 | 1° | 15km/h | 29160m | 3.8m/s | -45.5°C | 0% | 14.2hPa | 2.7V | 03:25:48 | 02:25:01 | 00:00:00 | |
| DL1XH-15 | 2026-08-30 12:22:10 | 53.03400 | 10.93510 | 61° | 11km/h | 29136m | 4.9m/s | -45.6°C | 3.2% | 14.2hPa | 2.7V | 03:25:21 | 02:24:57 | 00:00:00 | |
| DO2SHX-10 | 2026-08-30 12:22:10 | 53.03408 | 10.93515 | 2° | 13km/h | 29160m | 3.7m/s | -45.5°C | 3.2% | 14.1hPa | 2.6V | 00:00:00 | 02:25:01 | 00:00:00 | |
| DL1XH1-15 | 2026-08-30 12:22:09 | 53.03401 | 10.93513 | 59° | 5km/h | 29141m | 5.8m/s | -45.5°C | 3.2% | 14.2hPa | 2.6V | 03:25:20 | 02:24:58 | 00:00:00 | |
| DL1XH-west | 2026-08-30 12:22:08 | 53.03402 | 10.93515 | 15° | 7km/h | 29148m | 7.4m/s | -45.6°C | 0% | 14.2hPa | 2.6V | 03:25:48 | 02:24:59 | 00:00:00 | |
| DF8AY | 2026-08-30 12:22:07 | 53.03401 | 10.93513 | 59° | 5km/h | 29141m | 5.8m/s | -45.6°C | 0% | 14.2hPa | 2.6V | 03:25:48 | 02:24:58 | 00:00:00 | |
| GOEST3-10 | 2026-08-30 12:22:07 | 53.03401 | 10.93513 | 60° | 15km/h | 29142m | 5.8m/s | -45.5°C | 3.2% | 14.2hPa | 2.7V | 03:25:00 | 00:00:00 | 00:00:00 | |
| HTAHTA | 2026-08-30 12:22:06 | 53.03399 | 10.93506 | 53° | 15km/h | 29130m | 6.6m/s | -45.7°C | 0.7% | 14.3hPa | 2.7V | 00:00:00 | 00:00:00 | 00:00:00 | |
| DD8BA-10 | 2026-08-30 12:22:05 | 53.03399 | 10.93506 | 54° | 18km/h | 29130m | 6.6m/s | -45.6°C | 3.2% | 14.2hPa | 2.7V | 00:00:00 | 00:00:00 | 00:00:00 | |
| DO2SHX-10 | 2026-08-30 12:22:04 | 53.03396 | 10.93501 | 46° | 22km/h | 29123m | 8.1m/s | -45.7°C | 3.2% | 14.2hPa | 2.7V | 00:00:00 | 02:24:55 | 00:00:00 | |
| DM0DOS-11 | 2026-08-30 12:22:03 | 53.03379 | 10.93477 | 42° | 16km/h | 29097m | 7.2m/s | -45.7°C | 3.3% | 14.3hPa | 2.6V | 03:25:27 | 02:24:51 | 00:00:00 | |
| DL1XH1-15 | 2026-08-30 12:22:02 | 53.03370 | 10.93467 | 20° | 16km/h | 29080m | 7m/s | -45.8°C | 3.3% | 14.3hPa | 2.7V | 03:25:30 | 02:24:48 | 00:00:00 | |
| AA1-15 | 2026-08-30 12:21:59 | 53.03376 | 10.93473 | 38° | 15km/h | 29091m | 5m/s | -45.7°C | 0.1% | 14.3hPa | 2.7V | 03:25:48 | 02:24:50 | 00:00:00 | |
| DL1XH-15 | 2026-08-30 12:21:59 | 53.03365 | 10.93465 | 13° | 20km/h | 29073m | 6.9m/s | -45.7°C | 3.3% | 14.3hPa | 2.7V | 03:25:31 | 02:24:47 | 00:00:00 | |
| BIOWL1-15 | 2026-08-30 12:21:58 | 53.03365 | 10.93465 | 14° | 20km/h | 29073m | 6.9m/s | -45.7°C | 0.1% | 14.3hPa | 2.7V | 03:25:48 | 02:24:47 | 00:00:00 | |
| DL1XH-west | 2026-08-30 12:21:58 | 53.03373 | 10.93470 | 29° | 15km/h | 29086m | 4.8m/s | -45.8°C | 0.1% | 14.3hPa | 2.7V | 03:25:48 | 02:24:49 | 00:00:00 | |
| Es werden nur die letzten 3500 von 8145 Frames angezeigt. GPX/KML und Diagramme bleiben verfügbar. | |||||||||||||||